<?xml version="1.0" encoding="UTF-8" standalone="no" ?>
<gpx xmlns="http://www.topografix.com/GPX/1/1" xmlns:xsi="http://www.w3.org/2001/XMLSchema-instance" xsi:schemaLocation="http://www.topografix.com/GPX/1/1 http://www.topografix.com/GPX/1/1/gpx.xsd" version="1.1" creator="VisuGPX - https://www.visugpx.com">
  <metadata>
    <name>83 - V - Lorgues </name>
    <desc><![CDATA[83 - V - Lorgues : Nord
21-01-22]]></desc>
  </metadata>
  <trk>
    <name><![CDATA[Lorgues Nord V 21-01-22]]></name>
    <desc><![CDATA[comment ...]]></desc>
    <extensions>
      <line xmlns="http://www.topografix.com/GPX/gpx_style/0/2">
        <width>4</width>
      </line>
    </extensions>
    <trkseg>
      <trkpt lat="43.50076" lon="6.37357">
        <ele>236</ele>
        <time>2022-01-21T12:40:53.000Z</time>
      </trkpt>
      <trkpt lat="43.50076" lon="6.37357">
        <ele>236</ele>
        <time>2022-01-21T12:40:54.000Z</time>
      </trkpt>
      <trkpt lat="43.50076" lon="6.37357">
        <ele>236</ele>
        <time>2022-01-21T12:40:55.000Z</time>
      </trkpt>
      <trkpt lat="43.50076" lon="6.37357">
        <ele>236</ele>
        <time>2022-01-21T12:41:01.000Z</time>
      </trkpt>
      <trkpt lat="43.50076" lon="6.37357">
        <ele>236</ele>
        <time>2022-01-21T12:41:02.000Z</time>
      </trkpt>
      <trkpt lat="43.50076" lon="6.37357">
        <ele>236</ele>
        <time>2022-01-21T12:41:03.000Z</time>
      </trkpt>
      <trkpt lat="43.50076" lon="6.37357">
        <ele>236</ele>
        <time>2022-01-21T12:41:04.000Z</time>
      </trkpt>
      <trkpt lat="43.50076" lon="6.37357">
        <ele>236</ele>
        <time>2022-01-21T12:41:06.000Z</time>
      </trkpt>
      <trkpt lat="43.50076" lon="6.37357">
        <ele>236</ele>
        <time>2022-01-21T12:41:07.000Z</time>
      </trkpt>
      <trkpt lat="43.50076" lon="6.37357">
        <ele>236</ele>
        <time>2022-01-21T12:41:08.000Z</time>
      </trkpt>
      <trkpt lat="43.50076" lon="6.37357">
        <ele>236</ele>
        <time>2022-01-21T12:41:09.000Z</time>
      </trkpt>
      <trkpt lat="43.50076" lon="6.37357">
        <ele>236</ele>
        <time>2022-01-21T12:41:10.000Z</time>
      </trkpt>
      <trkpt lat="43.50076" lon="6.37357">
        <ele>236</ele>
        <time>2022-01-21T12:41:11.000Z</time>
      </trkpt>
      <trkpt lat="43.50076" lon="6.37357">
        <ele>236</ele>
        <time>2022-01-21T12:41:12.000Z</time>
      </trkpt>
      <trkpt lat="43.50076" lon="6.37357">
        <ele>236</ele>
        <time>2022-01-21T12:41:13.000Z</time>
      </trkpt>
      <trkpt lat="43.50076" lon="6.37357">
        <ele>236</ele>
        <time>2022-01-21T12:41:14.000Z</time>
      </trkpt>
      <trkpt lat="43.50076" lon="6.37357">
        <ele>236</ele>
        <time>2022-01-21T12:41:15.000Z</time>
      </trkpt>
      <trkpt lat="43.50076" lon="6.37357">
        <ele>236</ele>
        <time>2022-01-21T12:41:16.000Z</time>
      </trkpt>
      <trkpt lat="43.50076" lon="6.37357">
        <ele>236</ele>
        <time>2022-01-21T12:41:17.000Z</time>
      </trkpt>
      <trkpt lat="43.50076" lon="6.37357">
        <ele>236</ele>
        <time>2022-01-21T12:41:18.000Z</time>
      </trkpt>
      <trkpt lat="43.50076" lon="6.37357">
        <ele>236</ele>
        <time>2022-01-21T12:41:19.000Z</time>
      </trkpt>
      <trkpt lat="43.50076" lon="6.37357">
        <ele>236</ele>
        <time>2022-01-21T12:41:20.000Z</time>
      </trkpt>
      <trkpt lat="43.50076" lon="6.37356">
        <ele>236</ele>
        <time>2022-01-21T12:41:21.000Z</time>
      </trkpt>
      <trkpt lat="43.50076" lon="6.37356">
        <ele>236</ele>
        <time>2022-01-21T12:41:22.000Z</time>
      </trkpt>
      <trkpt lat="43.50076" lon="6.37356">
        <ele>236</ele>
        <time>2022-01-21T12:41:23.000Z</time>
      </trkpt>
      <trkpt lat="43.50075" lon="6.37355">
        <ele>236</ele>
        <time>2022-01-21T12:41:24.000Z</time>
      </trkpt>
      <trkpt lat="43.50075" lon="6.37355">
        <ele>236</ele>
        <time>2022-01-21T12:41:25.000Z</time>
      </trkpt>
      <trkpt lat="43.50075" lon="6.37354">
        <ele>236</ele>
        <time>2022-01-21T12:41:26.000Z</time>
      </trkpt>
      <trkpt lat="43.50075" lon="6.37354">
        <ele>237</ele>
        <time>2022-01-21T12:41:27.000Z</time>
      </trkpt>
      <trkpt lat="43.50074" lon="6.37353">
        <ele>237</ele>
        <time>2022-01-21T12:41:28.000Z</time>
      </trkpt>
      <trkpt lat="43.50074" lon="6.37353">
        <ele>237</ele>
        <time>2022-01-21T12:41:29.000Z</time>
      </trkpt>
      <trkpt lat="43.50074" lon="6.37352">
        <ele>237</ele>
        <time>2022-01-21T12:41:30.000Z</time>
      </trkpt>
      <trkpt lat="43.50074" lon="6.37352">
        <ele>237</ele>
        <time>2022-01-21T12:41:31.000Z</time>
      </trkpt>
      <trkpt lat="43.50073" lon="6.37351">
        <ele>237</ele>
        <time>2022-01-21T12:41:32.000Z</time>
      </trkpt>
      <trkpt lat="43.50073" lon="6.37351">
        <ele>237</ele>
        <time>2022-01-21T12:41:33.000Z</time>
      </trkpt>
      <trkpt lat="43.50073" lon="6.3735">
        <ele>237</ele>
        <time>2022-01-21T12:41:34.000Z</time>
      </trkpt>
      <trkpt lat="43.50073" lon="6.3735">
        <ele>237</ele>
        <time>2022-01-21T12:41:35.000Z</time>
      </trkpt>
      <trkpt lat="43.50073" lon="6.3735">
        <ele>238</ele>
        <time>2022-01-21T12:41:36.000Z</time>
      </trkpt>
      <trkpt lat="43.50073" lon="6.37349">
        <ele>238</ele>
        <time>2022-01-21T12:41:37.000Z</time>
      </trkpt>
      <trkpt lat="43.50073" lon="6.37349">
        <ele>238</ele>
        <time>2022-01-21T12:41:38.000Z</time>
      </trkpt>
      <trkpt lat="43.50073" lon="6.37349">
        <ele>238</ele>
        <time>2022-01-21T12:41:39.000Z</time>
      </trkpt>
      <trkpt lat="43.50073" lon="6.37349">
        <ele>238</ele>
        <time>2022-01-21T12:41:40.000Z</time>
      </trkpt>
      <trkpt lat="43.50073" lon="6.37348">
        <ele>238</ele>
        <time>2022-01-21T12:41:41.000Z</time>
      </trkpt>
      <trkpt lat="43.50073" lon="6.37348">
        <ele>238</ele>
        <time>2022-01-21T12:41:42.000Z</time>
      </trkpt>
      <trkpt lat="43.50072" lon="6.37347">
        <ele>238</ele>
        <time>2022-01-21T12:41:43.000Z</time>
      </trkpt>
      <trkpt lat="43.50072" lon="6.37345">
        <ele>238</ele>
        <time>2022-01-21T12:41:44.000Z</time>
      </trkpt>
      <trkpt lat="43.50072" lon="6.37344">
        <ele>243</ele>
        <time>2022-01-21T12:41:45.000Z</time>
      </trkpt>
      <trkpt lat="43.50072" lon="6.37343">
        <ele>244</ele>
        <time>2022-01-21T12:41:46.000Z</time>
      </trkpt>
      <trkpt lat="43.50072" lon="6.37341">
        <ele>245</ele>
        <time>2022-01-21T12:41:47.000Z</time>
      </trkpt>
      <trkpt lat="43.50073" lon="6.37339">
        <ele>245</ele>
        <time>2022-01-21T12:41:48.000Z</time>
      </trkpt>
      <trkpt lat="43.50073" lon="6.37337">
        <ele>246</ele>
        <time>2022-01-21T12:41:49.000Z</time>
      </trkpt>
      <trkpt lat="43.50073" lon="6.37335">
        <ele>246</ele>
        <time>2022-01-21T12:41:50.000Z</time>
      </trkpt>
      <trkpt lat="43.50073" lon="6.37333">
        <ele>247</ele>
        <time>2022-01-21T12:41:51.000Z</time>
      </trkpt>
      <trkpt lat="43.50073" lon="6.37331">
        <ele>249</ele>
        <time>2022-01-21T12:41:52.000Z</time>
      </trkpt>
      <trkpt lat="43.50073" lon="6.3733">
        <ele>249</ele>
        <time>2022-01-21T12:41:53.000Z</time>
      </trkpt>
      <trkpt lat="43.50073" lon="6.37329">
        <ele>250</ele>
        <time>2022-01-21T12:41:54.000Z</time>
      </trkpt>
      <trkpt lat="43.50074" lon="6.37328">
        <ele>250</ele>
        <time>2022-01-21T12:41:55.000Z</time>
      </trkpt>
      <trkpt lat="43.50074" lon="6.37327">
        <ele>250</ele>
        <time>2022-01-21T12:41:56.000Z</time>
      </trkpt>
      <trkpt lat="43.50075" lon="6.37326">
        <ele>250</ele>
        <time>2022-01-21T12:41:57.000Z</time>
      </trkpt>
      <trkpt lat="43.50075" lon="6.37325">
        <ele>251</ele>
        <time>2022-01-21T12:41:58.000Z</time>
      </trkpt>
      <trkpt lat="43.50076" lon="6.37324">
        <ele>251</ele>
        <time>2022-01-21T12:41:59.000Z</time>
      </trkpt>
      <trkpt lat="43.50077" lon="6.37324">
        <ele>251</ele>
        <time>2022-01-21T12:42:00.000Z</time>
      </trkpt>
      <trkpt lat="43.50078" lon="6.37323">
        <ele>251</ele>
        <time>2022-01-21T12:42:01.000Z</time>
      </trkpt>
      <trkpt lat="43.50079" lon="6.37321">
        <ele>254</ele>
        <time>2022-01-21T12:42:02.000Z</time>
      </trkpt>
      <trkpt lat="43.5008" lon="6.3732">
        <ele>255</ele>
        <time>2022-01-21T12:42:03.000Z</time>
      </trkpt>
      <trkpt lat="43.5008" lon="6.37319">
        <ele>255</ele>
        <time>2022-01-21T12:42:04.000Z</time>
      </trkpt>
      <trkpt lat="43.5008" lon="6.37317">
        <ele>256</ele>
        <time>2022-01-21T12:42:05.000Z</time>
      </trkpt>
      <trkpt lat="43.5008" lon="6.37316">
        <ele>256</ele>
        <time>2022-01-21T12:42:06.000Z</time>
      </trkpt>
      <trkpt lat="43.5008" lon="6.37316">
        <ele>257</ele>
        <time>2022-01-21T12:42:07.000Z</time>
      </trkpt>
      <trkpt lat="43.5008" lon="6.37315">
        <ele>257</ele>
        <time>2022-01-21T12:42:08.000Z</time>
      </trkpt>
      <trkpt lat="43.5008" lon="6.37314">
        <ele>257</ele>
        <time>2022-01-21T12:42:09.000Z</time>
      </trkpt>
      <trkpt lat="43.5008" lon="6.37313">
        <ele>258</ele>
        <time>2022-01-21T12:42:10.000Z</time>
      </trkpt>
      <trkpt lat="43.50081" lon="6.37311">
        <ele>258</ele>
        <time>2022-01-21T12:42:11.000Z</time>
      </trkpt>
      <trkpt lat="43.50081" lon="6.37309">
        <ele>260</ele>
        <time>2022-01-21T12:42:12.000Z</time>
      </trkpt>
      <trkpt lat="43.50082" lon="6.37307">
        <ele>261</ele>
        <time>2022-01-21T12:42:13.000Z</time>
      </trkpt>
      <trkpt lat="43.50082" lon="6.37306">
        <ele>261</ele>
        <time>2022-01-21T12:42:14.000Z</time>
      </trkpt>
      <trkpt lat="43.50082" lon="6.37304">
        <ele>262</ele>
        <time>2022-01-21T12:42:15.000Z</time>
      </trkpt>
      <trkpt lat="43.50083" lon="6.37303">
        <ele>262</ele>
        <time>2022-01-21T12:42:16.000Z</time>
      </trkpt>
      <trkpt lat="43.50083" lon="6.37301">
        <ele>262</ele>
        <time>2022-01-21T12:42:17.000Z</time>
      </trkpt>
      <trkpt lat="43.50083" lon="6.373">
        <ele>262</ele>
        <time>2022-01-21T12:42:18.000Z</time>
      </trkpt>
      <trkpt lat="43.50083" lon="6.37298">
        <ele>262</ele>
        <time>2022-01-21T12:42:19.000Z</time>
      </trkpt>
      <trkpt lat="43.50083" lon="6.37296">
        <ele>264</ele>
        <time>2022-01-21T12:42:20.000Z</time>
      </trkpt>
      <trkpt lat="43.50083" lon="6.37295">
        <ele>265</ele>
        <time>2022-01-21T12:42:21.000Z</time>
      </trkpt>
      <trkpt lat="43.50083" lon="6.37294">
        <ele>265</ele>
        <time>2022-01-21T12:42:22.000Z</time>
      </trkpt>
      <trkpt lat="43.50083" lon="6.37293">
        <ele>266</ele>
        <time>2022-01-21T12:42:23.000Z</time>
      </trkpt>
      <trkpt lat="43.50083" lon="6.37293">
        <ele>266</ele>
        <time>2022-01-21T12:42:24.000Z</time>
      </trkpt>
      <trkpt lat="43.50083" lon="6.37292">
        <ele>267</ele>
        <time>2022-01-21T12:42:25.000Z</time>
      </trkpt>
      <trkpt lat="43.50083" lon="6.37292">
        <ele>267</ele>
        <time>2022-01-21T12:42:26.000Z</time>
      </trkpt>
      <trkpt lat="43.50083" lon="6.37291">
        <ele>268</ele>
        <time>2022-01-21T12:42:27.000Z</time>
      </trkpt>
      <trkpt lat="43.50083" lon="6.37291">
        <ele>268</ele>
        <time>2022-01-21T12:42:28.000Z</time>
      </trkpt>
      <trkpt lat="43.50083" lon="6.3729">
        <ele>268</ele>
        <time>2022-01-21T12:42:29.000Z</time>
      </trkpt>
      <trkpt lat="43.50083" lon="6.37289">
        <ele>268</ele>
        <time>2022-01-21T12:42:30.000Z</time>
      </trkpt>
      <trkpt lat="43.50084" lon="6.37288">
        <ele>268</ele>
        <time>2022-01-21T12:42:31.000Z</time>
      </trkpt>
      <trkpt lat="43.50084" lon="6.37286">
        <ele>268</ele>
        <time>2022-01-21T12:42:32.000Z</time>
      </trkpt>
      <trkpt lat="43.50084" lon="6.37284">
        <ele>268</ele>
        <time>2022-01-21T12:42:33.000Z</time>
      </trkpt>
      <trkpt lat="43.50084" lon="6.37283">
        <ele>269</ele>
        <time>2022-01-21T12:42:34.000Z</time>
      </trkpt>
      <trkpt lat="43.50084" lon="6.37281">
        <ele>269</ele>
        <time>2022-01-21T12:42:35.000Z</time>
      </trkpt>
      <trkpt lat="43.50085" lon="6.37279">
        <ele>269</ele>
        <time>2022-01-21T12:42:36.000Z</time>
      </trkpt>
      <trkpt lat="43.50085" lon="6.37278">
        <ele>269</ele>
        <time>2022-01-21T12:42:37.000Z</time>
      </trkpt>
      <trkpt lat="43.50085" lon="6.37276">
        <ele>269</ele>
        <time>2022-01-21T12:42:38.000Z</time>
      </trkpt>
      <trkpt lat="43.50085" lon="6.37275">
        <ele>269</ele>
        <time>2022-01-21T12:42:39.000Z</time>
      </trkpt>
      <trkpt lat="43.50085" lon="6.37273">
        <ele>269</ele>
        <time>2022-01-21T12:42:40.000Z</time>
      </trkpt>
      <trkpt lat="43.50085" lon="6.37272">
        <ele>269</ele>
        <time>2022-01-21T12:42:41.000Z</time>
      </trkpt>
      <trkpt lat="43.50086" lon="6.37271">
        <ele>269</ele>
        <time>2022-01-21T12:42:42.000Z</time>
      </trkpt>
      <trkpt lat="43.50086" lon="6.37268">
        <ele>269</ele>
        <time>2022-01-21T12:42:43.000Z</time>
      </trkpt>
      <trkpt lat="43.50086" lon="6.37266">
        <ele>269</ele>
        <time>2022-01-21T12:42:44.000Z</time>
      </trkpt>
      <trkpt lat="43.50085" lon="6.37263">
        <ele>269</ele>
        <time>2022-01-21T12:42:45.000Z</time>
      </trkpt>
      <trkpt lat="43.50085" lon="6.37261">
        <ele>269</ele>
        <time>2022-01-21T12:42:46.000Z</time>
      </trkpt>
      <trkpt lat="43.50085" lon="6.37259">
        <ele>269</ele>
        <time>2022-01-21T12:42:47.000Z</time>
      </trkpt>
      <trkpt lat="43.50085" lon="6.37258">
        <ele>269</ele>
        <time>2022-01-21T12:42:48.000Z</time>
      </trkpt>
      <trkpt lat="43.50085" lon="6.37256">
        <ele>269</ele>
        <time>2022-01-21T12:42:49.000Z</time>
      </trkpt>
      <trkpt lat="43.50084" lon="6.37254">
        <ele>269</ele>
        <time>2022-01-21T12:42:50.000Z</time>
      </trkpt>
      <trkpt lat="43.50084" lon="6.37253">
        <ele>269</ele>
        <time>2022-01-21T12:42:51.000Z</time>
      </trkpt>
      <trkpt lat="43.50084" lon="6.37251">
        <ele>269</ele>
        <time>2022-01-21T12:42:52.000Z</time>
      </trkpt>
      <trkpt lat="43.50084" lon="6.3725">
        <ele>269</ele>
        <time>2022-01-21T12:42:53.000Z</time>
      </trkpt>
      <trkpt lat="43.50084" lon="6.37248">
        <ele>269</ele>
        <time>2022-01-21T12:42:54.000Z</time>
      </trkpt>
      <trkpt lat="43.50084" lon="6.37247">
        <ele>269</ele>
        <time>2022-01-21T12:42:55.000Z</time>
      </trkpt>
      <trkpt lat="43.50084" lon="6.37246">
        <ele>269</ele>
        <time>2022-01-21T12:42:56.000Z</time>
      </trkpt>
      <trkpt lat="43.50084" lon="6.37244">
        <ele>269</ele>
        <time>2022-01-21T12:42:57.000Z</time>
      </trkpt>
      <trkpt lat="43.50084" lon="6.37243">
        <ele>269</ele>
        <time>2022-01-21T12:42:58.000Z</time>
      </trkpt>
      <trkpt lat="43.50084" lon="6.37241">
        <ele>268</ele>
        <time>2022-01-21T12:42:59.000Z</time>
      </trkpt>
      <trkpt lat="43.50084" lon="6.3724">
        <ele>268</ele>
        <time>2022-01-21T12:43:00.000Z</time>
      </trkpt>
      <trkpt lat="43.50084" lon="6.37239">
        <ele>268</ele>
        <time>2022-01-21T12:43:01.000Z</time>
      </trkpt>
      <trkpt lat="43.50084" lon="6.37238">
        <ele>268</ele>
        <time>2022-01-21T12:43:02.000Z</time>
      </trkpt>
      <trkpt lat="43.50084" lon="6.37237">
        <ele>268</ele>
        <time>2022-01-21T12:43:03.000Z</time>
      </trkpt>
      <trkpt lat="43.50084" lon="6.37236">
        <ele>269</ele>
        <time>2022-01-21T12:43:04.000Z</time>
      </trkpt>
      <trkpt lat="43.50084" lon="6.37234">
        <ele>269</ele>
        <time>2022-01-21T12:43:05.000Z</time>
      </trkpt>
      <trkpt lat="43.50085" lon="6.37233">
        <ele>269</ele>
        <time>2022-01-21T12:43:06.000Z</time>
      </trkpt>
      <trkpt lat="43.50085" lon="6.37233">
        <ele>269</ele>
        <time>2022-01-21T12:43:07.000Z</time>
      </trkpt>
      <trkpt lat="43.50085" lon="6.37232">
        <ele>269</ele>
        <time>2022-01-21T12:43:08.000Z</time>
      </trkpt>
      <trkpt lat="43.50085" lon="6.37232">
        <ele>269</ele>
        <time>2022-01-21T12:43:09.000Z</time>
      </trkpt>
      <trkpt lat="43.50085" lon="6.37232">
        <ele>269</ele>
        <time>2022-01-21T12:43:10.000Z</time>
      </trkpt>
      <trkpt lat="43.50084" lon="6.37232">
        <ele>269</ele>
        <time>2022-01-21T12:43:11.000Z</time>
      </trkpt>
      <trkpt lat="43.50083" lon="6.37232">
        <ele>269</ele>
        <time>2022-01-21T12:43:12.000Z</time>
      </trkpt>
      <trkpt lat="43.50083" lon="6.37233">
        <ele>269</ele>
        <time>2022-01-21T12:43:13.000Z</time>
      </trkpt>
      <trkpt lat="43.50082" lon="6.37234">
        <ele>270</ele>
        <time>2022-01-21T12:43:14.000Z</time>
      </trkpt>
      <trkpt lat="43.50082" lon="6.37234">
        <ele>270</ele>
        <time>2022-01-21T12:43:15.000Z</time>
      </trkpt>
      <trkpt lat="43.50081" lon="6.37234">
        <ele>270</ele>
        <time>2022-01-21T12:43:16.000Z</time>
      </trkpt>
      <trkpt lat="43.5008" lon="6.37234">
        <ele>270</ele>
        <time>2022-01-21T12:43:17.000Z</time>
      </trkpt>
      <trkpt lat="43.5008" lon="6.37233">
        <ele>270</ele>
        <time>2022-01-21T12:43:18.000Z</time>
      </trkpt>
      <trkpt lat="43.50079" lon="6.37233">
        <ele>270</ele>
        <time>2022-01-21T12:43:19.000Z</time>
      </trkpt>
      <trkpt lat="43.50079" lon="6.37233">
        <ele>270</ele>
        <time>2022-01-21T12:43:20.000Z</time>
      </trkpt>
      <trkpt lat="43.50078" lon="6.37233">
        <ele>270</ele>
        <time>2022-01-21T12:43:21.000Z</time>
      </trkpt>
      <trkpt lat="43.50078" lon="6.37232">
        <ele>271</ele>
        <time>2022-01-21T12:43:22.000Z</time>
      </trkpt>
      <trkpt lat="43.50078" lon="6.37232">
        <ele>271</ele>
        <time>2022-01-21T12:43:23.000Z</time>
      </trkpt>
      <trkpt lat="43.50078" lon="6.37231">
        <ele>271</ele>
        <time>2022-01-21T12:43:24.000Z</time>
      </trkpt>
      <trkpt lat="43.50077" lon="6.37231">
        <ele>271</ele>
        <time>2022-01-21T12:43:25.000Z</time>
      </trkpt>
      <trkpt lat="43.50077" lon="6.37232">
        <ele>272</ele>
        <time>2022-01-21T12:43:26.000Z</time>
      </trkpt>
      <trkpt lat="43.50077" lon="6.37232">
        <ele>272</ele>
        <time>2022-01-21T12:43:27.000Z</time>
      </trkpt>
      <trkpt lat="43.50076" lon="6.37233">
        <ele>272</ele>
        <time>2022-01-21T12:43:28.000Z</time>
      </trkpt>
      <trkpt lat="43.50076" lon="6.37233">
        <ele>272</ele>
        <time>2022-01-21T12:43:29.000Z</time>
      </trkpt>
      <trkpt lat="43.50076" lon="6.37234">
        <ele>272</ele>
        <time>2022-01-21T12:43:30.000Z</time>
      </trkpt>
      <trkpt lat="43.50076" lon="6.37234">
        <ele>272</ele>
        <time>2022-01-21T12:43:31.000Z</time>
      </trkpt>
      <trkpt lat="43.50075" lon="6.37235">
        <ele>272</ele>
        <time>2022-01-21T12:43:32.000Z</time>
      </trkpt>
      <trkpt lat="43.50075" lon="6.37235">
        <ele>273</ele>
        <time>2022-01-21T12:43:33.000Z</time>
      </trkpt>
      <trkpt lat="43.50074" lon="6.37235">
        <ele>273</ele>
        <time>2022-01-21T12:43:34.000Z</time>
      </trkpt>
      <trkpt lat="43.50073" lon="6.37236">
        <ele>273</ele>
        <time>2022-01-21T12:43:35.000Z</time>
      </trkpt>
      <trkpt lat="43.50073" lon="6.37236">
        <ele>273</ele>
        <time>2022-01-21T12:43:36.000Z</time>
      </trkpt>
      <trkpt lat="43.50072" lon="6.37237">
        <ele>273</ele>
        <time>2022-01-21T12:43:37.000Z</time>
      </trkpt>
      <trkpt lat="43.50071" lon="6.37237">
        <ele>273</ele>
        <time>2022-01-21T12:43:38.000Z</time>
      </trkpt>
      <trkpt lat="43.5007" lon="6.37238">
        <ele>274</ele>
        <time>2022-01-21T12:43:39.000Z</time>
      </trkpt>
      <trkpt lat="43.50069" lon="6.37238">
        <ele>275</ele>
        <time>2022-01-21T12:43:40.000Z</time>
      </trkpt>
      <trkpt lat="43.50069" lon="6.37239">
        <ele>276</ele>
        <time>2022-01-21T12:43:41.000Z</time>
      </trkpt>
      <trkpt lat="43.50068" lon="6.3724">
        <ele>276</ele>
        <time>2022-01-21T12:43:42.000Z</time>
      </trkpt>
      <trkpt lat="43.50067" lon="6.3724">
        <ele>276</ele>
        <time>2022-01-21T12:43:43.000Z</time>
      </trkpt>
      <trkpt lat="43.50066" lon="6.3724">
        <ele>277</ele>
        <time>2022-01-21T12:43:44.000Z</time>
      </trkpt>
      <trkpt lat="43.50065" lon="6.3724">
        <ele>277</ele>
        <time>2022-01-21T12:43:45.000Z</time>
      </trkpt>
      <trkpt lat="43.50065" lon="6.3724">
        <ele>277</ele>
        <time>2022-01-21T12:43:46.000Z</time>
      </trkpt>
      <trkpt lat="43.50064" lon="6.3724">
        <ele>277</ele>
        <time>2022-01-21T12:43:47.000Z</time>
      </trkpt>
      <trkpt lat="43.50063" lon="6.37239">
        <ele>277</ele>
        <time>2022-01-21T12:43:48.000Z</time>
      </trkpt>
      <trkpt lat="43.50062" lon="6.37239">
        <ele>277</ele>
        <time>2022-01-21T12:43:49.000Z</time>
      </trkpt>
      <trkpt lat="43.50061" lon="6.37239">
        <ele>277</ele>
        <time>2022-01-21T12:43:50.000Z</time>
      </trkpt>
      <trkpt lat="43.50061" lon="6.37239">
        <ele>278</ele>
        <time>2022-01-21T12:43:51.000Z</time>
      </trkpt>
      <trkpt lat="43.5006" lon="6.37239">
        <ele>278</ele>
        <time>2022-01-21T12:43:52.000Z</time>
      </trkpt>
      <trkpt lat="43.50059" lon="6.37239">
        <ele>279</ele>
        <time>2022-01-21T12:43:53.000Z</time>
      </trkpt>
      <trkpt lat="43.50058" lon="6.3724">
        <ele>280</ele>
        <time>2022-01-21T12:43:54.000Z</time>
      </trkpt>
      <trkpt lat="43.50057" lon="6.3724">
        <ele>280</ele>
        <time>2022-01-21T12:43:55.000Z</time>
      </trkpt>
      <trkpt lat="43.50056" lon="6.3724">
        <ele>280</ele>
        <time>2022-01-21T12:43:56.000Z</time>
      </trkpt>
      <trkpt lat="43.50055" lon="6.3724">
        <ele>280</ele>
        <time>2022-01-21T12:43:57.000Z</time>
      </trkpt>
      <trkpt lat="43.50054" lon="6.3724">
        <ele>280</ele>
        <time>2022-01-21T12:43:58.000Z</time>
      </trkpt>
      <trkpt lat="43.50053" lon="6.3724">
        <ele>281</ele>
        <time>2022-01-21T12:43:59.000Z</time>
      </trkpt>
      <trkpt lat="43.50053" lon="6.3724">
        <ele>281</ele>
        <time>2022-01-21T12:44:00.000Z</time>
      </trkpt>
      <trkpt lat="43.50052" lon="6.37239">
        <ele>281</ele>
        <time>2022-01-21T12:44:01.000Z</time>
      </trkpt>
      <trkpt lat="43.50052" lon="6.37239">
        <ele>281</ele>
        <time>2022-01-21T12:44:02.000Z</time>
      </trkpt>
      <trkpt lat="43.50051" lon="6.37239">
        <ele>281</ele>
        <time>2022-01-21T12:44:03.000Z</time>
      </trkpt>
      <trkpt lat="43.50051" lon="6.3724">
        <ele>281</ele>
        <time>2022-01-21T12:44:04.000Z</time>
      </trkpt>
      <trkpt lat="43.5005" lon="6.3724">
        <ele>281</ele>
        <time>2022-01-21T12:44:05.000Z</time>
      </trkpt>
      <trkpt lat="43.50049" lon="6.37239">
        <ele>283</ele>
        <time>2022-01-21T12:44:06.000Z</time>
      </trkpt>
      <trkpt lat="43.50049" lon="6.37238">
        <ele>283</ele>
        <time>2022-01-21T12:44:07.000Z</time>
      </trkpt>
      <trkpt lat="43.50049" lon="6.37237">
        <ele>283</ele>
        <time>2022-01-21T12:44:08.000Z</time>
      </trkpt>
      <trkpt lat="43.50049" lon="6.37236">
        <ele>283</ele>
        <time>2022-01-21T12:44:09.000Z</time>
      </trkpt>
      <trkpt lat="43.5005" lon="6.37235">
        <ele>283</ele>
        <time>2022-01-21T12:44:10.000Z</time>
      </trkpt>
      <trkpt lat="43.5005" lon="6.37234">
        <ele>283</ele>
        <time>2022-01-21T12:44:11.000Z</time>
      </trkpt>
      <trkpt lat="43.5005" lon="6.37233">
        <ele>283</ele>
        <time>2022-01-21T12:44:12.000Z</time>
      </trkpt>
      <trkpt lat="43.5005" lon="6.37232">
        <ele>284</ele>
        <time>2022-01-21T12:44:13.000Z</time>
      </trkpt>
      <trkpt lat="43.5005" lon="6.37231">
        <ele>284</ele>
        <time>2022-01-21T12:44:14.000Z</time>
      </trkpt>
      <trkpt lat="43.5005" lon="6.37231">
        <ele>284</ele>
        <time>2022-01-21T12:44:15.000Z</time>
      </trkpt>
      <trkpt lat="43.50051" lon="6.3723">
        <ele>284</ele>
        <time>2022-01-21T12:44:16.000Z</time>
      </trkpt>
      <trkpt lat="43.50051" lon="6.3723">
        <ele>284</ele>
        <time>2022-01-21T12:44:17.000Z</time>
      </trkpt>
      <trkpt lat="43.50051" lon="6.37229">
        <ele>284</ele>
        <time>2022-01-21T12:44:18.000Z</time>
      </trkpt>
      <trkpt lat="43.50051" lon="6.37229">
        <ele>284</ele>
        <time>2022-01-21T12:44:19.000Z</time>
      </trkpt>
      <trkpt lat="43.50051" lon="6.37228">
        <ele>284</ele>
        <time>2022-01-21T12:44:20.000Z</time>
      </trkpt>
      <trkpt lat="43.50051" lon="6.37227">
        <ele>284</ele>
        <time>2022-01-21T12:44:21.000Z</time>
      </trkpt>
      <trkpt lat="43.50051" lon="6.37226">
        <ele>284</ele>
        <time>2022-01-21T12:44:22.000Z</time>
      </trkpt>
      <trkpt lat="43.50051" lon="6.37225">
        <ele>284</ele>
        <time>2022-01-21T12:44:23.000Z</time>
      </trkpt>
      <trkpt lat="43.5005" lon="6.37224">
        <ele>284</ele>
        <time>2022-01-21T12:44:24.000Z</time>
      </trkpt>
      <trkpt lat="43.5005" lon="6.37223">
        <ele>284</ele>
        <time>2022-01-21T12:44:25.000Z</time>
      </trkpt>
      <trkpt lat="43.5005" lon="6.37221">
        <ele>284</ele>
        <time>2022-01-21T12:44:26.000Z</time>
      </trkpt>
      <trkpt lat="43.5005" lon="6.3722">
        <ele>284</ele>
        <time>2022-01-21T12:44:27.000Z</time>
      </trkpt>
      <trkpt lat="43.5005" lon="6.37219">
        <ele>284</ele>
        <time>2022-01-21T12:44:28.000Z</time>
      </trkpt>
      <trkpt lat="43.5005" lon="6.37218">
        <ele>284</ele>
        <time>2022-01-21T12:44:29.000Z</time>
      </trkpt>
      <trkpt lat="43.5005" lon="6.37216">
        <ele>284</ele>
        <time>2022-01-21T12:44:30.000Z</time>
      </trkpt>
      <trkpt lat="43.50049" lon="6.37215">
        <ele>284</ele>
        <time>2022-01-21T12:44:31.000Z</time>
      </trkpt>
      <trkpt lat="43.50049" lon="6.37214">
        <ele>284</ele>
        <time>2022-01-21T12:44:32.000Z</time>
      </trkpt>
      <trkpt lat="43.50049" lon="6.37212">
        <ele>284</ele>
        <time>2022-01-21T12:44:33.000Z</time>
      </trkpt>
      <trkpt lat="43.50049" lon="6.37211">
        <ele>284</ele>
        <time>2022-01-21T12:44:34.000Z</time>
      </trkpt>
      <trkpt lat="43.50049" lon="6.3721">
        <ele>284</ele>
        <time>2022-01-21T12:44:35.000Z</time>
      </trkpt>
      <trkpt lat="43.50049" lon="6.37208">
        <ele>284</ele>
        <time>2022-01-21T12:44:36.000Z</time>
      </trkpt>
      <trkpt lat="43.50048" lon="6.37207">
        <ele>284</ele>
        <time>2022-01-21T12:44:37.000Z</time>
      </trkpt>
      <trkpt lat="43.50048" lon="6.37205">
        <ele>284</ele>
        <time>2022-01-21T12:44:38.000Z</time>
      </trkpt>
      <trkpt lat="43.50048" lon="6.37204">
        <ele>284</ele>
        <time>2022-01-21T12:44:39.000Z</time>
      </trkpt>
      <trkpt lat="43.50047" lon="6.37202">
        <ele>285</ele>
        <time>2022-01-21T12:44:40.000Z</time>
      </trkpt>
      <trkpt lat="43.50047" lon="6.37201">
        <ele>285</ele>
        <time>2022-01-21T12:44:41.000Z</time>
      </trkpt>
      <trkpt lat="43.50047" lon="6.372">
        <ele>285</ele>
        <time>2022-01-21T12:44:42.000Z</time>
      </trkpt>
      <trkpt lat="43.50047" lon="6.37198">
        <ele>285</ele>
        <time>2022-01-21T12:44:43.000Z</time>
      </trkpt>
      <trkpt lat="43.50047" lon="6.37197">
        <ele>285</ele>
        <time>2022-01-21T12:44:44.000Z</time>
      </trkpt>
      <trkpt lat="43.50046" lon="6.37195">
        <ele>285</ele>
        <time>2022-01-21T12:44:45.000Z</time>
      </trkpt>
      <trkpt lat="43.50046" lon="6.37193">
        <ele>285</ele>
        <time>2022-01-21T12:44:46.000Z</time>
      </trkpt>
      <trkpt lat="43.50046" lon="6.37192">
        <ele>285</ele>
        <time>2022-01-21T12:44:47.000Z</time>
      </trkpt>
      <trkpt lat="43.50046" lon="6.37191">
        <ele>286</ele>
        <time>2022-01-21T12:44:48.000Z</time>
      </trkpt>
      <trkpt lat="43.50046" lon="6.37189">
        <ele>286</ele>
        <time>2022-01-21T12:44:49.000Z</time>
      </trkpt>
      <trkpt lat="43.50046" lon="6.37188">
        <ele>286</ele>
        <time>2022-01-21T12:44:50.000Z</time>
      </trkpt>
      <trkpt lat="43.50046" lon="6.37186">
        <ele>286</ele>
        <time>2022-01-21T12:44:51.000Z</time>
      </trkpt>
      <trkpt lat="43.50046" lon="6.37185">
        <ele>286</ele>
        <time>2022-01-21T12:44:52.000Z</time>
      </trkpt>
      <trkpt lat="43.50046" lon="6.37183">
        <ele>286</ele>
        <time>2022-01-21T12:44:53.000Z</time>
      </trkpt>
      <trkpt lat="43.50046" lon="6.37181">
        <ele>287</ele>
        <time>2022-01-21T12:44:54.000Z</time>
      </trkpt>
      <trkpt lat="43.50046" lon="6.3718">
        <ele>287</ele>
        <time>2022-01-21T12:44:55.000Z</time>
      </trkpt>
      <trkpt lat="43.50046" lon="6.37179">
        <ele>287</ele>
        <time>2022-01-21T12:44:56.000Z</time>
      </trkpt>
      <trkpt lat="43.50046" lon="6.37177">
        <ele>287</ele>
        <time>2022-01-21T12:44:57.000Z</time>
      </trkpt>
      <trkpt lat="43.50046" lon="6.37176">
        <ele>287</ele>
        <time>2022-01-21T12:44:58.000Z</time>
      </trkpt>
      <trkpt lat="43.50046" lon="6.37174">
        <ele>287</ele>
        <time>2022-01-21T12:44:59.000Z</time>
      </trkpt>
      <trkpt lat="43.50046" lon="6.37173">
        <ele>287</ele>
        <time>2022-01-21T12:45:00.000Z</time>
      </trkpt>
      <trkpt lat="43.50046" lon="6.37171">
        <ele>287</ele>
        <time>2022-01-21T12:45:01.000Z</time>
      </trkpt>
      <trkpt lat="43.50046" lon="6.3717">
        <ele>287</ele>
        <time>2022-01-21T12:45:02.000Z</time>
      </trkpt>
      <trkpt lat="43.50046" lon="6.37168">
        <ele>287</ele>
        <time>2022-01-21T12:45:03.000Z</time>
      </trkpt>
      <trkpt lat="43.50046" lon="6.37167">
        <ele>287</ele>
        <time>2022-01-21T12:45:04.000Z</time>
      </trkpt>
      <trkpt lat="43.50046" lon="6.37166">
        <ele>287</ele>
        <time>2022-01-21T12:45:05.000Z</time>
      </trkpt>
      <trkpt lat="43.50046" lon="6.37164">
        <ele>287</ele>
        <time>2022-01-21T12:45:06.000Z</time>
      </trkpt>
      <trkpt lat="43.50046" lon="6.37163">
        <ele>288</ele>
        <time>2022-01-21T12:45:07.000Z</time>
      </trkpt>
      <trkpt lat="43.50046" lon="6.37161">
        <ele>289</ele>
        <time>2022-01-21T12:45:08.000Z</time>
      </trkpt>
      <trkpt lat="43.50046" lon="6.3716">
        <ele>289</ele>
        <time>2022-01-21T12:45:09.000Z</time>
      </trkpt>
      <trkpt lat="43.50046" lon="6.37159">
        <ele>289</ele>
        <time>2022-01-21T12:45:10.000Z</time>
      </trkpt>
      <trkpt lat="43.50046" lon="6.37158">
        <ele>289</ele>
        <time>2022-01-21T12:45:11.000Z</time>
      </trkpt>
      <trkpt lat="43.50046" lon="6.37156">
        <ele>290</ele>
        <time>2022-01-21T12:45:12.000Z</time>
      </trkpt>
      <trkpt lat="43.50046" lon="6.37154">
        <ele>290</ele>
        <time>2022-01-21T12:45:13.000Z</time>
      </trkpt>
      <trkpt lat="43.50046" lon="6.37153">
        <ele>290</ele>
        <time>2022-01-21T12:45:14.000Z</time>
      </trkpt>
      <trkpt lat="43.50046" lon="6.37152">
        <ele>290</ele>
        <time>2022-01-21T12:45:15.000Z</time>
      </trkpt>
      <trkpt lat="43.50046" lon="6.3715">
        <ele>291</ele>
        <time>2022-01-21T12:45:16.000Z</time>
      </trkpt>
      <trkpt lat="43.50046" lon="6.37149">
        <ele>292</ele>
        <time>2022-01-21T12:45:17.000Z</time>
      </trkpt>
      <trkpt lat="43.50046" lon="6.37147">
        <ele>292</ele>
        <time>2022-01-21T12:45:18.000Z</time>
      </trkpt>
      <trkpt lat="43.50046" lon="6.37146">
        <ele>292</ele>
        <time>2022-01-21T12:45:19.000Z</time>
      </trkpt>
      <trkpt lat="43.50046" lon="6.37144">
        <ele>292</ele>
        <time>2022-01-21T12:45:20.000Z</time>
      </trkpt>
      <trkpt lat="43.50046" lon="6.37143">
        <ele>292</ele>
        <time>2022-01-21T12:45:21.000Z</time>
      </trkpt>
      <trkpt lat="43.50046" lon="6.37142">
        <ele>292</ele>
        <time>2022-01-21T12:45:22.000Z</time>
      </trkpt>
      <trkpt lat="43.50046" lon="6.37141">
        <ele>292</ele>
        <time>2022-01-21T12:45:23.000Z</time>
      </trkpt>
      <trkpt lat="43.50046" lon="6.37139">
        <ele>292</ele>
        <time>2022-01-21T12:45:24.000Z</time>
      </trkpt>
      <trkpt lat="43.50046" lon="6.37138">
        <ele>292</ele>
        <time>2022-01-21T12:45:25.000Z</time>
      </trkpt>
      <trkpt lat="43.50046" lon="6.37137">
        <ele>292</ele>
        <time>2022-01-21T12:45:26.000Z</time>
      </trkpt>
      <trkpt lat="43.50045" lon="6.37136">
        <ele>292</ele>
        <time>2022-01-21T12:45:27.000Z</time>
      </trkpt>
      <trkpt lat="43.50045" lon="6.37134">
        <ele>292</ele>
        <time>2022-01-21T12:45:28.000Z</time>
      </trkpt>
      <trkpt lat="43.50045" lon="6.37133">
        <ele>291</ele>
        <time>2022-01-21T12:45:29.000Z</time>
      </trkpt>
      <trkpt lat="43.50044" lon="6.37132">
        <ele>291</ele>
        <time>2022-01-21T12:45:30.000Z</time>
      </trkpt>
      <trkpt lat="43.50044" lon="6.37131">
        <ele>291</ele>
        <time>2022-01-21T12:45:31.000Z</time>
      </trkpt>
      <trkpt lat="43.50044" lon="6.3713">
        <ele>291</ele>
        <time>2022-01-21T12:45:32.000Z</time>
      </trkpt>
      <trkpt lat="43.50044" lon="6.37129">
        <ele>291</ele>
        <time>2022-01-21T12:45:33.000Z</time>
      </trkpt>
      <trkpt lat="43.50044" lon="6.37127">
        <ele>291</ele>
        <time>2022-01-21T12:45:34.000Z</time>
      </trkpt>
      <trkpt lat="43.50044" lon="6.37126">
        <ele>291</ele>
        <time>2022-01-21T12:45:35.000Z</time>
      </trkpt>
      <trkpt lat="43.50043" lon="6.37125">
        <ele>291</ele>
        <time>2022-01-21T12:45:36.000Z</time>
      </trkpt>
      <trkpt lat="43.50043" lon="6.37124">
        <ele>291</ele>
        <time>2022-01-21T12:45:37.000Z</time>
      </trkpt>
      <trkpt lat="43.50043" lon="6.37122">
        <ele>291</ele>
        <time>2022-01-21T12:45:38.000Z</time>
      </trkpt>
      <trkpt lat="43.50043" lon="6.37121">
        <ele>291</ele>
        <time>2022-01-21T12:45:39.000Z</time>
      </trkpt>
      <trkpt lat="43.50043" lon="6.3712">
        <ele>291</ele>
        <time>2022-01-21T12:45:40.000Z</time>
      </trkpt>
      <trkpt lat="43.50043" lon="6.37119">
        <ele>290</ele>
        <time>2022-01-21T12:45:41.000Z</time>
      </trkpt>
      <trkpt lat="43.50043" lon="6.37117">
        <ele>290</ele>
        <time>2022-01-21T12:45:42.000Z</time>
      </trkpt>
      <trkpt lat="43.50043" lon="6.37116">
        <ele>290</ele>
        <time>2022-01-21T12:45:43.000Z</time>
      </trkpt>
      <trkpt lat="43.50043" lon="6.37114">
        <ele>290</ele>
        <time>2022-01-21T12:45:44.000Z</time>
      </trkpt>
      <trkpt lat="43.50043" lon="6.37113">
        <ele>290</ele>
        <time>2022-01-21T12:45:45.000Z</time>
      </trkpt>
      <trkpt lat="43.50043" lon="6.37112">
        <ele>290</ele>
        <time>2022-01-21T12:45:46.000Z</time>
      </trkpt>
      <trkpt lat="43.50043" lon="6.3711">
        <ele>290</ele>
        <time>2022-01-21T12:45:47.000Z</time>
      </trkpt>
      <trkpt lat="43.50042" lon="6.37109">
        <ele>290</ele>
        <time>2022-01-21T12:45:48.000Z</time>
      </trkpt>
      <trkpt lat="43.50042" lon="6.37108">
        <ele>290</ele>
        <time>2022-01-21T12:45:49.000Z</time>
      </trkpt>
      <trkpt lat="43.50042" lon="6.37107">
        <ele>290</ele>
        <time>2022-01-21T12:45:50.000Z</time>
      </trkpt>
      <trkpt lat="43.50041" lon="6.37106">
        <ele>290</ele>
        <time>2022-01-21T12:45:51.000Z</time>
      </trkpt>
      <trkpt lat="43.50041" lon="6.37104">
        <ele>290</ele>
        <time>2022-01-21T12:45:52.000Z</time>
      </trkpt>
      <trkpt lat="43.50041" lon="6.37103">
        <ele>290</ele>
        <time>2022-01-21T12:45:53.000Z</time>
      </trkpt>
      <trkpt lat="43.5004" lon="6.37102">
        <ele>290</ele>
        <time>2022-01-21T12:45:54.000Z</time>
      </trkpt>
      <trkpt lat="43.5004" lon="6.37101">
        <ele>290</ele>
        <time>2022-01-21T12:45:55.000Z</time>
      </trkpt>
      <trkpt lat="43.5004" lon="6.37099">
        <ele>289</ele>
        <time>2022-01-21T12:45:56.000Z</time>
      </trkpt>
      <trkpt lat="43.50039" lon="6.37098">
        <ele>289</ele>
        <time>2022-01-21T12:45:57.000Z</time>
      </trkpt>
      <trkpt lat="43.50039" lon="6.37097">
        <ele>289</ele>
        <time>2022-01-21T12:45:58.000Z</time>
      </trkpt>
      <trkpt lat="43.50039" lon="6.37096">
        <ele>289</ele>
        <time>2022-01-21T12:45:59.000Z</time>
      </trkpt>
      <trkpt lat="43.50038" lon="6.37094">
        <ele>289</ele>
        <time>2022-01-21T12:46:00.000Z</time>
      </trkpt>
      <trkpt lat="43.50038" lon="6.37093">
        <ele>289</ele>
        <time>2022-01-21T12:46:01.000Z</time>
      </trkpt>
      <trkpt lat="43.50038" lon="6.37092">
        <ele>289</ele>
        <time>2022-01-21T12:46:02.000Z</time>
      </trkpt>
      <trkpt lat="43.50037" lon="6.37091">
        <ele>289</ele>
        <time>2022-01-21T12:46:03.000Z</time>
      </trkpt>
      <trkpt lat="43.50037" lon="6.37089">
        <ele>289</ele>
        <time>2022-01-21T12:46:04.000Z</time>
      </trkpt>
      <trkpt lat="43.50037" lon="6.37088">
        <ele>289</ele>
        <time>2022-01-21T12:46:05.000Z</time>
      </trkpt>
      <trkpt lat="43.50036" lon="6.37086">
        <ele>289</ele>
        <time>2022-01-21T12:46:06.000Z</time>
      </trkpt>
      <trkpt lat="43.50036" lon="6.37085">
        <ele>289</ele>
        <time>2022-01-21T12:46:07.000Z</time>
      </trkpt>
      <trkpt lat="43.50036" lon="6.37084">
        <ele>289</ele>
        <time>2022-01-21T12:46:08.000Z</time>
      </trkpt>
      <trkpt lat="43.50036" lon="6.37082">
        <ele>289</ele>
        <time>2022-01-21T12:46:09.000Z</time>
      </trkpt>
      <trkpt lat="43.50035" lon="6.37081">
        <ele>289</ele>
        <time>2022-01-21T12:46:10.000Z</time>
      </trkpt>
      <trkpt lat="43.50035" lon="6.3708">
        <ele>289</ele>
        <time>2022-01-21T12:46:11.000Z</time>
      </trkpt>
      <trkpt lat="43.50035" lon="6.37078">
        <ele>289</ele>
        <time>2022-01-21T12:46:12.000Z</time>
      </trkpt>
      <trkpt lat="43.50035" lon="6.37077">
        <ele>288</ele>
        <time>2022-01-21T12:46:13.000Z</time>
      </trkpt>
      <trkpt lat="43.50035" lon="6.37076">
        <ele>288</ele>
        <time>2022-01-21T12:46:14.000Z</time>
      </trkpt>
      <trkpt lat="43.50034" lon="6.37075">
        <ele>288</ele>
        <time>2022-01-21T12:46:15.000Z</time>
      </trkpt>
      <trkpt lat="43.50034" lon="6.37073">
        <ele>288</ele>
        <time>2022-01-21T12:46:16.000Z</time>
      </trkpt>
      <trkpt lat="43.50034" lon="6.37072">
        <ele>288</ele>
        <time>2022-01-21T12:46:17.000Z</time>
      </trkpt>
      <trkpt lat="43.50034" lon="6.37071">
        <ele>288</ele>
        <time>2022-01-21T12:46:18.000Z</time>
      </trkpt>
      <trkpt lat="43.50033" lon="6.37069">
        <ele>288</ele>
        <time>2022-01-21T12:46:19.000Z</time>
      </trkpt>
      <trkpt lat="43.50033" lon="6.37068">
        <ele>288</ele>
        <time>2022-01-21T12:46:20.000Z</time>
      </trkpt>
      <trkpt lat="43.50033" lon="6.37067">
        <ele>288</ele>
        <time>2022-01-21T12:46:21.000Z</time>
      </trkpt>
      <trkpt lat="43.50033" lon="6.37066">
        <ele>288</ele>
        <time>2022-01-21T12:46:22.000Z</time>
      </trkpt>
      <trkpt lat="43.50032" lon="6.37065">
        <ele>288</ele>
        <time>2022-01-21T12:46:23.000Z</time>
      </trkpt>
      <trkpt lat="43.50032" lon="6.37064">
        <ele>288</ele>
        <time>2022-01-21T12:46:24.000Z</time>
      </trkpt>
      <trkpt lat="43.50031" lon="6.37063">
        <ele>288</ele>
        <time>2022-01-21T12:46:25.000Z</time>
      </trkpt>
      <trkpt lat="43.50031" lon="6.37062">
        <ele>288</ele>
        <time>2022-01-21T12:46:26.000Z</time>
      </trkpt>
      <trkpt lat="43.50031" lon="6.37061">
        <ele>287</ele>
        <time>2022-01-21T12:46:27.000Z</time>
      </trkpt>
      <trkpt lat="43.50031" lon="6.3706">
        <ele>287</ele>
        <time>2022-01-21T12:46:28.000Z</time>
      </trkpt>
      <trkpt lat="43.50032" lon="6.3706">
        <ele>287</ele>
        <time>2022-01-21T12:46:29.000Z</time>
      </trkpt>
      <trkpt lat="43.50032" lon="6.3706">
        <ele>287</ele>
        <time>2022-01-21T12:46:30.000Z</time>
      </trkpt>
      <trkpt lat="43.50032" lon="6.3706">
        <ele>287</ele>
        <time>2022-01-21T12:46:31.000Z</time>
      </trkpt>
      <trkpt lat="43.50032" lon="6.3706">
        <ele>287</ele>
        <time>2022-01-21T12:46:32.000Z</time>
      </trkpt>
      <trkpt lat="43.50032" lon="6.3706">
        <ele>288</ele>
        <time>2022-01-21T12:46:33.000Z</time>
      </trkpt>
      <trkpt lat="43.50032" lon="6.3706">
        <ele>288</ele>
        <time>2022-01-21T12:46:34.000Z</time>
      </trkpt>
      <trkpt lat="43.50033" lon="6.3706">
        <ele>288</ele>
        <time>2022-01-21T12:46:35.000Z</time>
      </trkpt>
      <trkpt lat="43.50033" lon="6.3706">
        <ele>288</ele>
        <time>2022-01-21T12:46:36.000Z</time>
      </trkpt>
      <trkpt lat="43.50033" lon="6.3706">
        <ele>288</ele>
        <time>2022-01-21T12:46:37.000Z</time>
      </trkpt>
      <trkpt lat="43.50033" lon="6.3706">
        <ele>288</ele>
        <time>2022-01-21T12:46:38.000Z</time>
      </trkpt>
      <trkpt lat="43.50033" lon="6.3706">
        <ele>288</ele>
        <time>2022-01-21T12:46:39.000Z</time>
      </trkpt>
      <trkpt lat="43.50033" lon="6.3706">
        <ele>288</ele>
        <time>2022-01-21T12:46:40.000Z</time>
      </trkpt>
      <trkpt lat="43.50033" lon="6.3706">
        <ele>288</ele>
        <time>2022-01-21T12:46:41.000Z</time>
      </trkpt>
      <trkpt lat="43.50033" lon="6.3706">
        <ele>288</ele>
        <time>2022-01-21T12:46:42.000Z</time>
      </trkpt>
      <trkpt lat="43.50033" lon="6.3706">
        <ele>288</ele>
        <time>2022-01-21T12:46:43.000Z</time>
      </trkpt>
      <trkpt lat="43.50033" lon="6.3706">
        <ele>288</ele>
        <time>2022-01-21T12:46:44.000Z</time>
      </trkpt>
      <trkpt lat="43.50033" lon="6.37061">
        <ele>288</ele>
        <time>2022-01-21T12:46:45.000Z</time>
      </trkpt>
      <trkpt lat="43.50033" lon="6.37061">
        <ele>288</ele>
        <time>2022-01-21T12:46:46.000Z</time>
      </trkpt>
      <trkpt lat="43.50033" lon="6.37061">
        <ele>288</ele>
        <time>2022-01-21T12:46:47.000Z</time>
      </trkpt>
      <trkpt lat="43.50033" lon="6.37061">
        <ele>288</ele>
        <time>2022-01-21T12:46:48.000Z</time>
      </trkpt>
      <trkpt lat="43.50032" lon="6.3706">
        <ele>288</ele>
        <time>2022-01-21T12:46:49.000Z</time>
      </trkpt>
      <trkpt lat="43.50032" lon="6.3706">
        <ele>288</ele>
        <time>2022-01-21T12:46:50.000Z</time>
      </trkpt>
      <trkpt lat="43.50032" lon="6.3706">
        <ele>288</ele>
        <time>2022-01-21T12:46:51.000Z</time>
      </trkpt>
      <trkpt lat="43.50032" lon="6.3706">
        <ele>288</ele>
        <time>2022-01-21T12:46:52.000Z</time>
      </trkpt>
      <trkpt lat="43.50032" lon="6.3706">
        <ele>288</ele>
        <time>2022-01-21T12:46:53.000Z</time>
      </trkpt>
      <trkpt lat="43.50031" lon="6.3706">
        <ele>288</ele>
        <time>2022-01-21T12:46:54.000Z</time>
      </trkpt>
      <trkpt lat="43.50031" lon="6.3706">
        <ele>288</ele>
        <time>2022-01-21T12:46:55.000Z</time>
      </trkpt>
      <trkpt lat="43.5003" lon="6.3706">
        <ele>288</ele>
        <time>2022-01-21T12:46:56.000Z</time>
      </trkpt>
      <trkpt lat="43.5003" lon="6.37059">
        <ele>288</ele>
        <time>2022-01-21T12:46:57.000Z</time>
      </trkpt>
      <trkpt lat="43.5003" lon="6.37059">
        <ele>288</ele>
        <time>2022-01-21T12:46:58.000Z</time>
      </trkpt>
      <trkpt lat="43.50029" lon="6.37059">
        <ele>288</ele>
        <time>2022-01-21T12:46:59.000Z</time>
      </trkpt>
      <trkpt lat="43.50029" lon="6.37059">
        <ele>288</ele>
        <time>2022-01-21T12:47:00.000Z</time>
      </trkpt>
      <trkpt lat="43.50028" lon="6.37059">
        <ele>288</ele>
        <time>2022-01-21T12:47:01.000Z</time>
      </trkpt>
      <trkpt lat="43.50027" lon="6.37058">
        <ele>288</ele>
        <time>2022-01-21T12:47:02.000Z</time>
      </trkpt>
      <trkpt lat="43.50027" lon="6.37057">
        <ele>288</ele>
        <time>2022-01-21T12:47:03.000Z</time>
      </trkpt>
      <trkpt lat="43.50026" lon="6.37056">
        <ele>288</ele>
        <time>2022-01-21T12:47:04.000Z</time>
      </trkpt>
      <trkpt lat="43.50026" lon="6.37055">
        <ele>288</ele>
        <time>2022-01-21T12:47:05.000Z</time>
      </trkpt>
      <trkpt lat="43.50025" lon="6.37055">
        <ele>288</ele>
        <time>2022-01-21T12:47:06.000Z</time>
      </trkpt>
      <trkpt lat="43.50025" lon="6.37054">
        <ele>288</ele>
        <time>2022-01-21T12:47:07.000Z</time>
      </trkpt>
      <trkpt lat="43.50025" lon="6.37054">
        <ele>288</ele>
        <time>2022-01-21T12:47:08.000Z</time>
      </trkpt>
      <trkpt lat="43.50024" lon="6.37053">
        <ele>288</ele>
        <time>2022-01-21T12:47:09.000Z</time>
      </trkpt>
      <trkpt lat="43.50024" lon="6.37052">
        <ele>288</ele>
        <time>2022-01-21T12:47:10.000Z</time>
      </trkpt>
      <trkpt lat="43.50023" lon="6.3705">
        <ele>288</ele>
        <time>2022-01-21T12:47:11.000Z</time>
      </trkpt>
      <trkpt lat="43.50023" lon="6.37048">
        <ele>288</ele>
        <time>2022-01-21T12:47:12.000Z</time>
      </trkpt>
      <trkpt lat="43.50022" lon="6.37046">
        <ele>289</ele>
        <time>2022-01-21T12:47:13.000Z</time>
      </trkpt>
      <trkpt lat="43.50021" lon="6.37044">
        <ele>289</ele>
        <time>2022-01-21T12:47:14.000Z</time>
      </trkpt>
      <trkpt lat="43.50021" lon="6.37042">
        <ele>289</ele>
        <time>2022-01-21T12:47:15.000Z</time>
      </trkpt>
      <trkpt lat="43.5002" lon="6.3704">
        <ele>290</ele>
        <time>2022-01-21T12:47:16.000Z</time>
      </trkpt>
      <trkpt lat="43.5002" lon="6.37039">
        <ele>290</ele>
        <time>2022-01-21T12:47:17.000Z</time>
      </trkpt>
      <trkpt lat="43.5002" lon="6.37038">
        <ele>290</ele>
        <time>2022-01-21T12:47:18.000Z</time>
      </trkpt>
      <trkpt lat="43.50019" lon="6.37037">
        <ele>290</ele>
        <time>2022-01-21T12:47:19.000Z</time>
      </trkpt>
      <trkpt lat="43.50019" lon="6.37036">
        <ele>290</ele>
        <time>2022-01-21T12:47:20.000Z</time>
      </trkpt>
      <trkpt lat="43.50018" lon="6.37035">
        <ele>290</ele>
        <time>2022-01-21T12:47:21.000Z</time>
      </trkpt>
      <trkpt lat="43.50018" lon="6.37034">
        <ele>290</ele>
        <time>2022-01-21T12:47:22.000Z</time>
      </trkpt>
      <trkpt lat="43.50018" lon="6.37034">
        <ele>290</ele>
        <time>2022-01-21T12:47:23.000Z</time>
      </trkpt>
      <trkpt lat="43.50018" lon="6.37033">
        <ele>290</ele>
        <time>2022-01-21T12:47:24.000Z</time>
      </trkpt>
      <trkpt lat="43.50017" lon="6.37033">
        <ele>290</ele>
        <time>2022-01-21T12:47:25.000Z</time>
      </trkpt>
      <trkpt lat="43.50017" lon="6.37032">
        <ele>290</ele>
        <time>2022-01-21T12:47:26.000Z</time>
      </trkpt>
      <trkpt lat="43.50016" lon="6.37031">
        <ele>290</ele>
        <time>2022-01-21T12:47:27.000Z</time>
      </trkpt>
      <trkpt lat="43.50016" lon="6.3703">
        <ele>291</ele>
        <time>2022-01-21T12:47:28.000Z</time>
      </trkpt>
      <trkpt lat="43.50015" lon="6.3703">
        <ele>291</ele>
        <time>2022-01-21T12:47:29.000Z</time>
      </trkpt>
      <trkpt lat="43.50013" lon="6.37029">
        <ele>290</ele>
        <time>2022-01-21T12:47:30.000Z</time>
      </trkpt>
      <trkpt lat="43.50012" lon="6.37028">
        <ele>290</ele>
        <time>2022-01-21T12:47:31.000Z</time>
      </trkpt>
      <trkpt lat="43.50011" lon="6.37027">
        <ele>290</ele>
        <time>2022-01-21T12:47:32.000Z</time>
      </trkpt>
      <trkpt lat="43.5001" lon="6.37027">
        <ele>290</ele>
        <time>2022-01-21T12:47:33.000Z</time>
      </trkpt>
      <trkpt lat="43.50008" lon="6.37026">
        <ele>290</ele>
        <time>2022-01-21T12:47:34.000Z</time>
      </trkpt>
      <trkpt lat="43.50007" lon="6.37026">
        <ele>291</ele>
        <time>2022-01-21T12:47:35.000Z</time>
      </trkpt>
      <trkpt lat="43.50006" lon="6.37025">
        <ele>291</ele>
        <time>2022-01-21T12:47:36.000Z</time>
      </trkpt>
      <trkpt lat="43.50005" lon="6.37025">
        <ele>291</ele>
        <time>2022-01-21T12:47:37.000Z</time>
      </trkpt>
      <trkpt lat="43.50004" lon="6.37024">
        <ele>291</ele>
        <time>2022-01-21T12:47:38.000Z</time>
      </trkpt>
      <trkpt lat="43.50003" lon="6.37024">
        <ele>291</ele>
        <time>2022-01-21T12:47:39.000Z</time>
      </trkpt>
      <trkpt lat="43.50002" lon="6.37023">
        <ele>291</ele>
        <time>2022-01-21T12:47:40.000Z</time>
      </trkpt>
      <trkpt lat="43.50001" lon="6.37022">
        <ele>292</ele>
        <time>2022-01-21T12:47:41.000Z</time>
      </trkpt>
      <trkpt lat="43.5" lon="6.37021">
        <ele>292</ele>
        <time>2022-01-21T12:47:42.000Z</time>
      </trkpt>
      <trkpt lat="43.5" lon="6.3702">
        <ele>292</ele>
        <time>2022-01-21T12:47:43.000Z</time>
      </trkpt>
      <trkpt lat="43.49999" lon="6.3702">
        <ele>292</ele>
        <time>2022-01-21T12:47:44.000Z</time>
      </trkpt>
      <trkpt lat="43.49998" lon="6.37019">
        <ele>292</ele>
        <time>2022-01-21T12:47:45.000Z</time>
      </trkpt>
      <trkpt lat="43.49997" lon="6.37018">
        <ele>292</ele>
        <time>2022-01-21T12:47:46.000Z</time>
      </trkpt>
      <trkpt lat="43.49997" lon="6.37018">
        <ele>293</ele>
        <time>2022-01-21T12:47:47.000Z</time>
      </trkpt>
      <trkpt lat="43.49996" lon="6.37017">
        <ele>293</ele>
        <time>2022-01-21T12:47:48.000Z</time>
      </trkpt>
      <trkpt lat="43.49996" lon="6.37016">
        <ele>293</ele>
        <time>2022-01-21T12:47:49.000Z</time>
      </trkpt>
      <trkpt lat="43.49995" lon="6.37016">
        <ele>293</ele>
        <time>2022-01-21T12:47:50.000Z</time>
      </trkpt>
      <trkpt lat="43.49994" lon="6.37015">
        <ele>294</ele>
        <time>2022-01-21T12:47:51.000Z</time>
      </trkpt>
      <trkpt lat="43.49993" lon="6.37014">
        <ele>294</ele>
        <time>2022-01-21T12:47:52.000Z</time>
      </trkpt>
      <trkpt lat="43.49992" lon="6.37012">
        <ele>294</ele>
        <time>2022-01-21T12:47:53.000Z</time>
      </trkpt>
      <trkpt lat="43.49991" lon="6.37011">
        <ele>294</ele>
        <time>2022-01-21T12:47:54.000Z</time>
      </trkpt>
      <trkpt lat="43.4999" lon="6.3701">
        <ele>294</ele>
        <time>2022-01-21T12:47:55.000Z</time>
      </trkpt>
      <trkpt lat="43.49989" lon="6.37009">
        <ele>294</ele>
        <time>2022-01-21T12:47:56.000Z</time>
      </trkpt>
      <trkpt lat="43.49988" lon="6.37008">
        <ele>296</ele>
        <time>2022-01-21T12:47:57.000Z</time>
      </trkpt>
      <trkpt lat="43.49986" lon="6.37007">
        <ele>296</ele>
        <time>2022-01-21T12:47:58.000Z</time>
      </trkpt>
      <trkpt lat="43.49985" lon="6.37006">
        <ele>296</ele>
        <time>2022-01-21T12:47:59.000Z</time>
      </trkpt>
      <trkpt lat="43.49984" lon="6.37005">
        <ele>297</ele>
        <time>2022-01-21T12:48:00.000Z</time>
      </trkpt>
      <trkpt lat="43.49982" lon="6.37005">
        <ele>297</ele>
        <time>2022-01-21T12:48:01.000Z</time>
      </trkpt>
      <trkpt lat="43.49981" lon="6.37004">
        <ele>297</ele>
        <time>2022-01-21T12:48:02.000Z</time>
      </trkpt>
      <trkpt lat="43.4998" lon="6.37004">
        <ele>297</ele>
        <time>2022-01-21T12:48:03.000Z</time>
      </trkpt>
      <trkpt lat="43.49979" lon="6.37004">
        <ele>297</ele>
        <time>2022-01-21T12:48:04.000Z</time>
      </trkpt>
      <trkpt lat="43.49978" lon="6.37003">
        <ele>297</ele>
        <time>2022-01-21T12:48:05.000Z</time>
      </trkpt>
      <trkpt lat="43.49977" lon="6.37003">
        <ele>297</ele>
        <time>2022-01-21T12:48:06.000Z</time>
      </trkpt>
      <trkpt lat="43.49976" lon="6.37003">
        <ele>297</ele>
        <time>2022-01-21T12:48:07.000Z</time>
      </trkpt>
      <trkpt lat="43.49975" lon="6.37003">
        <ele>298</ele>
        <time>2022-01-21T12:48:08.000Z</time>
      </trkpt>
      <trkpt lat="43.49974" lon="6.37003">
        <ele>298</ele>
        <time>2022-01-21T12:48:09.000Z</time>
      </trkpt>
      <trkpt lat="43.49973" lon="6.37003">
        <ele>298</ele>
        <time>2022-01-21T12:48:10.000Z</time>
      </trkpt>
      <trkpt lat="43.49972" lon="6.37003">
        <ele>299</ele>
        <time>2022-01-21T12:48:11.000Z</time>
      </trkpt>
      <trkpt lat="43.49971" lon="6.37002">
        <ele>299</ele>
        <time>2022-01-21T12:48:12.000Z</time>
      </trkpt>
      <trkpt lat="43.4997" lon="6.37002">
        <ele>299</ele>
        <time>2022-01-21T12:48:13.000Z</time>
      </trkpt>
      <trkpt lat="43.49969" lon="6.37002">
        <ele>299</ele>
        <time>2022-01-21T12:48:14.000Z</time>
      </trkpt>
      <trkpt lat="43.49968" lon="6.37001">
        <ele>299</ele>
        <time>2022-01-21T12:48:15.000Z</time>
      </trkpt>
      <trkpt lat="43.49967" lon="6.37001">
        <ele>299</ele>
        <time>2022-01-21T12:48:16.000Z</time>
      </trkpt>
      <trkpt lat="43.49966" lon="6.37001">
        <ele>299</ele>
        <time>2022-01-21T12:48:17.000Z</time>
      </trkpt>
      <trkpt lat="43.49965" lon="6.37">
        <ele>299</ele>
        <time>2022-01-21T12:48:18.000Z</time>
      </trkpt>
      <trkpt lat="43.49964" lon="6.36999">
        <ele>299</ele>
        <time>2022-01-21T12:48:19.000Z</time>
      </trkpt>
      <trkpt lat="43.49963" lon="6.36999">
        <ele>299</ele>
        <time>2022-01-21T12:48:20.000Z</time>
      </trkpt>
      <trkpt lat="43.49963" lon="6.36998">
        <ele>300</ele>
        <time>2022-01-21T12:48:21.000Z</time>
      </trkpt>
      <trkpt lat="43.49962" lon="6.36997">
        <ele>300</ele>
        <time>2022-01-21T12:48:22.000Z</time>
      </trkpt>
      <trkpt lat="43.49961" lon="6.36997">
        <ele>300</ele>
        <time>2022-01-21T12:48:23.000Z</time>
      </trkpt>
      <trkpt lat="43.4996" lon="6.36996">
        <ele>300</ele>
        <time>2022-01-21T12:48:24.000Z</time>
      </trkpt>
      <trkpt lat="43.4996" lon="6.36995">
        <ele>300</ele>
        <time>2022-01-21T12:48:25.000Z</time>
      </trkpt>
      <trkpt lat="43.49959" lon="6.36994">
        <ele>300</ele>
        <time>2022-01-21T12:48:26.000Z</time>
      </trkpt>
      <trkpt lat="43.49958" lon="6.36993">
        <ele>300</ele>
        <time>2022-01-21T12:48:27.000Z</time>
      </trkpt>
      <trkpt lat="43.49957" lon="6.36993">
        <ele>300</ele>
        <time>2022-01-21T12:48:28.000Z</time>
      </trkpt>
      <trkpt lat="43.49957" lon="6.36991">
        <ele>300</ele>
        <time>2022-01-21T12:48:29.000Z</time>
      </trkpt>
      <trkpt lat="43.49956" lon="6.3699">
        <ele>300</ele>
        <time>2022-01-21T12:48:30.000Z</time>
      </trkpt>
      <trkpt lat="43.49956" lon="6.36989">
        <ele>300</ele>
        <time>2022-01-21T12:48:31.000Z</time>
      </trkpt>
      <trkpt lat="43.49955" lon="6.36989">
        <ele>299</ele>
        <time>2022-01-21T12:48:32.000Z</time>
      </trkpt>
      <trkpt lat="43.49955" lon="6.36988">
        <ele>299</ele>
        <time>2022-01-21T12:48:33.000Z</time>
      </trkpt>
      <trkpt lat="43.49954" lon="6.36987">
        <ele>299</ele>
        <time>2022-01-21T12:48:34.000Z</time>
      </trkpt>
      <trkpt lat="43.49953" lon="6.36987">
        <ele>299</ele>
        <time>2022-01-21T12:48:35.000Z</time>
      </trkpt>
      <trkpt lat="43.49952" lon="6.36986">
        <ele>299</ele>
        <time>2022-01-21T12:48:36.000Z</time>
      </trkpt>
      <trkpt lat="43.49951" lon="6.36985">
        <ele>299</ele>
        <time>2022-01-21T12:48:37.000Z</time>
      </trkpt>
      <trkpt lat="43.49951" lon="6.36984">
        <ele>298</ele>
        <time>2022-01-21T12:48:38.000Z</time>
      </trkpt>
      <trkpt lat="43.4995" lon="6.36984">
        <ele>298</ele>
        <time>2022-01-21T12:48:39.000Z</time>
      </trkpt>
      <trkpt lat="43.49949" lon="6.36983">
        <ele>298</ele>
        <time>2022-01-21T12:48:40.000Z</time>
      </trkpt>
      <trkpt lat="43.49948" lon="6.36983">
        <ele>298</ele>
        <time>2022-01-21T12:48:41.000Z</time>
      </trkpt>
      <trkpt lat="43.49947" lon="6.36982">
        <ele>298</ele>
        <time>2022-01-21T12:48:42.000Z</time>
      </trkpt>
      <trkpt lat="43.49946" lon="6.36981">
        <ele>298</ele>
        <time>2022-01-21T12:48:43.000Z</time>
      </trkpt>
      <trkpt lat="43.49945" lon="6.3698">
        <ele>298</ele>
        <time>2022-01-21T12:48:44.000Z</time>
      </trkpt>
      <trkpt lat="43.49945" lon="6.36978">
        <ele>298</ele>
        <time>2022-01-21T12:48:45.000Z</time>
      </trkpt>
      <trkpt lat="43.49944" lon="6.36977">
        <ele>298</ele>
        <time>2022-01-21T12:48:46.000Z</time>
      </trkpt>
      <trkpt lat="43.49943" lon="6.36976">
        <ele>298</ele>
        <time>2022-01-21T12:48:47.000Z</time>
      </trkpt>
      <trkpt lat="43.49943" lon="6.36976">
        <ele>298</ele>
        <time>2022-01-21T12:48:48.000Z</time>
      </trkpt>
      <trkpt lat="43.49942" lon="6.36975">
        <ele>298</ele>
        <time>2022-01-21T12:48:49.000Z</time>
      </trkpt>
      <trkpt lat="43.49941" lon="6.36975">
        <ele>298</ele>
        <time>2022-01-21T12:48:50.000Z</time>
      </trkpt>
      <trkpt lat="43.49939" lon="6.36975">
        <ele>298</ele>
        <time>2022-01-21T12:48:51.000Z</time>
      </trkpt>
      <trkpt lat="43.49938" lon="6.36975">
        <ele>298</ele>
        <time>2022-01-21T12:48:52.000Z</time>
      </trkpt>
      <trkpt lat="43.49937" lon="6.36975">
        <ele>298</ele>
        <time>2022-01-21T12:48:53.000Z</time>
      </trkpt>
      <trkpt lat="43.49936" lon="6.36975">
        <ele>298</ele>
        <time>2022-01-21T12:48:54.000Z</time>
      </trkpt>
      <trkpt lat="43.49935" lon="6.36975">
        <ele>299</ele>
        <time>2022-01-21T12:48:55.000Z</time>
      </trkpt>
      <trkpt lat="43.49934" lon="6.36975">
        <ele>299</ele>
        <time>2022-01-21T12:48:56.000Z</time>
      </trkpt>
      <trkpt lat="43.49932" lon="6.36975">
        <ele>299</ele>
        <time>2022-01-21T12:48:57.000Z</time>
      </trkpt>
      <trkpt lat="43.49931" lon="6.36975">
        <ele>299</ele>
        <time>2022-01-21T12:48:58.000Z</time>
      </trkpt>
      <trkpt lat="43.4993" lon="6.36975">
        <ele>299</ele>
        <time>2022-01-21T12:48:59.000Z</time>
      </trkpt>
      <trkpt lat="43.49929" lon="6.36975">
        <ele>299</ele>
        <time>2022-01-21T12:49:00.000Z</time>
      </trkpt>
      <trkpt lat="43.49928" lon="6.36975">
        <ele>299</ele>
        <time>2022-01-21T12:49:01.000Z</time>
      </trkpt>
      <trkpt lat="43.49927" lon="6.36975">
        <ele>299</ele>
        <time>2022-01-21T12:49:02.000Z</time>
      </trkpt>
      <trkpt lat="43.49926" lon="6.36974">
        <ele>299</ele>
        <time>2022-01-21T12:49:03.000Z</time>
      </trkpt>
      <trkpt lat="43.49925" lon="6.36974">
        <ele>298</ele>
        <time>2022-01-21T12:49:04.000Z</time>
      </trkpt>
      <trkpt lat="43.49924" lon="6.36974">
        <ele>298</ele>
        <time>2022-01-21T12:49:05.000Z</time>
      </trkpt>
      <trkpt lat="43.49923" lon="6.36973">
        <ele>298</ele>
        <time>2022-01-21T12:49:06.000Z</time>
      </trkpt>
      <trkpt lat="43.49922" lon="6.36972">
        <ele>298</ele>
        <time>2022-01-21T12:49:07.000Z</time>
      </trkpt>
      <trkpt lat="43.49921" lon="6.36972">
        <ele>298</ele>
        <time>2022-01-21T12:49:08.000Z</time>
      </trkpt>
      <trkpt lat="43.4992" lon="6.36972">
        <ele>298</ele>
        <time>2022-01-21T12:49:09.000Z</time>
      </trkpt>
      <trkpt lat="43.49919" lon="6.36971">
        <ele>298</ele>
        <time>2022-01-21T12:49:10.000Z</time>
      </trkpt>
      <trkpt lat="43.49918" lon="6.36971">
        <ele>298</ele>
        <time>2022-01-21T12:49:11.000Z</time>
      </trkpt>
      <trkpt lat="43.49916" lon="6.36971">
        <ele>298</ele>
        <time>2022-01-21T12:49:12.000Z</time>
      </trkpt>
      <trkpt lat="43.49915" lon="6.36972">
        <ele>298</ele>
        <time>2022-01-21T12:49:13.000Z</time>
      </trkpt>
      <trkpt lat="43.49914" lon="6.36972">
        <ele>298</ele>
        <time>2022-01-21T12:49:14.000Z</time>
      </trkpt>
      <trkpt lat="43.49913" lon="6.36973">
        <ele>298</ele>
        <time>2022-01-21T12:49:15.000Z</time>
      </trkpt>
      <trkpt lat="43.49912" lon="6.36973">
        <ele>298</ele>
        <time>2022-01-21T12:49:16.000Z</time>
      </trkpt>
      <trkpt lat="43.49911" lon="6.36974">
        <ele>298</ele>
        <time>2022-01-21T12:49:17.000Z</time>
      </trkpt>
      <trkpt lat="43.4991" lon="6.36974">
        <ele>298</ele>
        <time>2022-01-21T12:49:18.000Z</time>
      </trkpt>
      <trkpt lat="43.49909" lon="6.36975">
        <ele>298</ele>
        <time>2022-01-21T12:49:19.000Z</time>
      </trkpt>
      <trkpt lat="43.49908" lon="6.36975">
        <ele>298</ele>
        <time>2022-01-21T12:49:20.000Z</time>
      </trkpt>
      <trkpt lat="43.49908" lon="6.36976">
        <ele>297</ele>
        <time>2022-01-21T12:49:21.000Z</time>
      </trkpt>
      <trkpt lat="43.49907" lon="6.36977">
        <ele>297</ele>
        <time>2022-01-21T12:49:22.000Z</time>
      </trkpt>
      <trkpt lat="43.49906" lon="6.36977">
        <ele>297</ele>
        <time>2022-01-21T12:49:23.000Z</time>
      </trkpt>
      <trkpt lat="43.49905" lon="6.36978">
        <ele>298</ele>
        <time>2022-01-21T12:49:24.000Z</time>
      </trkpt>
      <trkpt lat="43.49905" lon="6.36978">
        <ele>298</ele>
        <time>2022-01-21T12:49:25.000Z</time>
      </trkpt>
      <trkpt lat="43.49904" lon="6.36979">
        <ele>298</ele>
        <time>2022-01-21T12:49:26.000Z</time>
      </trkpt>
      <trkpt lat="43.49903" lon="6.36979">
        <ele>298</ele>
        <time>2022-01-21T12:49:27.000Z</time>
      </trkpt>
      <trkpt lat="43.49902" lon="6.3698">
        <ele>298</ele>
        <time>2022-01-21T12:49:28.000Z</time>
      </trkpt>
      <trkpt lat="43.49901" lon="6.3698">
        <ele>298</ele>
        <time>2022-01-21T12:49:29.000Z</time>
      </trkpt>
      <trkpt lat="43.49901" lon="6.36981">
        <ele>298</ele>
        <time>2022-01-21T12:49:30.000Z</time>
      </trkpt>
      <trkpt lat="43.499" lon="6.36982">
        <ele>298</ele>
        <time>2022-01-21T12:49:31.000Z</time>
      </trkpt>
      <trkpt lat="43.499" lon="6.36983">
        <ele>298</ele>
        <time>2022-01-21T12:49:32.000Z</time>
      </trkpt>
      <trkpt lat="43.49899" lon="6.36984">
        <ele>298</ele>
        <time>2022-01-21T12:49:33.000Z</time>
      </trkpt>
      <trkpt lat="43.49898" lon="6.36985">
        <ele>298</ele>
        <time>2022-01-21T12:49:34.000Z</time>
      </trkpt>
      <trkpt lat="43.49897" lon="6.36985">
        <ele>298</ele>
        <time>2022-01-21T12:49:35.000Z</time>
      </trkpt>
      <trkpt lat="43.49896" lon="6.36986">
        <ele>297</ele>
        <time>2022-01-21T12:49:36.000Z</time>
      </trkpt>
      <trkpt lat="43.49896" lon="6.36987">
        <ele>297</ele>
        <time>2022-01-21T12:49:37.000Z</time>
      </trkpt>
      <trkpt lat="43.49895" lon="6.36988">
        <ele>297</ele>
        <time>2022-01-21T12:49:38.000Z</time>
      </trkpt>
      <trkpt lat="43.49894" lon="6.36988">
        <ele>297</ele>
        <time>2022-01-21T12:49:39.000Z</time>
      </trkpt>
      <trkpt lat="43.49893" lon="6.36989">
        <ele>297</ele>
        <time>2022-01-21T12:49:40.000Z</time>
      </trkpt>
      <trkpt lat="43.49892" lon="6.36989">
        <ele>297</ele>
        <time>2022-01-21T12:49:41.000Z</time>
      </trkpt>
      <trkpt lat="43.49892" lon="6.3699">
        <ele>297</ele>
        <time>2022-01-21T12:49:42.000Z</time>
      </trkpt>
      <trkpt lat="43.49891" lon="6.3699">
        <ele>297</ele>
        <time>2022-01-21T12:49:43.000Z</time>
      </trkpt>
      <trkpt lat="43.4989" lon="6.36991">
        <ele>297</ele>
        <time>2022-01-21T12:49:44.000Z</time>
      </trkpt>
      <trkpt lat="43.4989" lon="6.36992">
        <ele>297</ele>
        <time>2022-01-21T12:49:45.000Z</time>
      </trkpt>
      <trkpt lat="43.49889" lon="6.36993">
        <ele>297</ele>
        <time>2022-01-21T12:49:46.000Z</time>
      </trkpt>
      <trkpt lat="43.49889" lon="6.36994">
        <ele>298</ele>
        <time>2022-01-21T12:49:47.000Z</time>
      </trkpt>
      <trkpt lat="43.49888" lon="6.36994">
        <ele>298</ele>
        <time>2022-01-21T12:49:48.000Z</time>
      </trkpt>
      <trkpt lat="43.49888" lon="6.36995">
        <ele>298</ele>
        <time>2022-01-21T12:49:49.000Z</time>
      </trkpt>
      <trkpt lat="43.49887" lon="6.36996">
        <ele>298</ele>
        <time>2022-01-21T12:49:50.000Z</time>
      </trkpt>
      <trkpt lat="43.49886" lon="6.36997">
        <ele>298</ele>
        <time>2022-01-21T12:49:51.000Z</time>
      </trkpt>
      <trkpt lat="43.49886" lon="6.36998">
        <ele>299</ele>
        <time>2022-01-21T12:49:52.000Z</time>
      </trkpt>
      <trkpt lat="43.49885" lon="6.36999">
        <ele>299</ele>
        <time>2022-01-21T12:49:53.000Z</time>
      </trkpt>
      <trkpt lat="43.49885" lon="6.37">
        <ele>299</ele>
        <time>2022-01-21T12:49:54.000Z</time>
      </trkpt>
      <trkpt lat="43.49884" lon="6.37001">
        <ele>299</ele>
        <time>2022-01-21T12:49:55.000Z</time>
      </trkpt>
      <trkpt lat="43.49883" lon="6.37002">
        <ele>299</ele>
        <time>2022-01-21T12:49:56.000Z</time>
      </trkpt>
      <trkpt lat="43.49882" lon="6.37002">
        <ele>300</ele>
        <time>2022-01-21T12:49:57.000Z</time>
      </trkpt>
      <trkpt lat="43.49881" lon="6.37003">
        <ele>301</ele>
        <time>2022-01-21T12:49:58.000Z</time>
      </trkpt>
      <trkpt lat="43.4988" lon="6.37003">
        <ele>301</ele>
        <time>2022-01-21T12:49:59.000Z</time>
      </trkpt>
      <trkpt lat="43.49879" lon="6.37004">
        <ele>301</ele>
        <time>2022-01-21T12:50:00.000Z</time>
      </trkpt>
      <trkpt lat="43.49879" lon="6.37004">
        <ele>301</ele>
        <time>2022-01-21T12:50:01.000Z</time>
      </trkpt>
      <trkpt lat="43.49878" lon="6.37004">
        <ele>301</ele>
        <time>2022-01-21T12:50:02.000Z</time>
      </trkpt>
      <trkpt lat="43.49877" lon="6.37003">
        <ele>301</ele>
        <time>2022-01-21T12:50:03.000Z</time>
      </trkpt>
      <trkpt lat="43.49877" lon="6.37002">
        <ele>301</ele>
        <time>2022-01-21T12:50:04.000Z</time>
      </trkpt>
      <trkpt lat="43.49877" lon="6.37001">
        <ele>301</ele>
        <time>2022-01-21T12:50:05.000Z</time>
      </trkpt>
      <trkpt lat="43.49877" lon="6.37">
        <ele>301</ele>
        <time>2022-01-21T12:50:06.000Z</time>
      </trkpt>
      <trkpt lat="43.49877" lon="6.37">
        <ele>301</ele>
        <time>2022-01-21T12:50:07.000Z</time>
      </trkpt>
      <trkpt lat="43.49877" lon="6.37">
        <ele>301</ele>
        <time>2022-01-21T12:50:08.000Z</time>
      </trkpt>
      <trkpt lat="43.49877" lon="6.36999">
        <ele>301</ele>
        <time>2022-01-21T12:50:09.000Z</time>
      </trkpt>
      <trkpt lat="43.49877" lon="6.36999">
        <ele>301</ele>
        <time>2022-01-21T12:50:10.000Z</time>
      </trkpt>
      <trkpt lat="43.49877" lon="6.36999">
        <ele>301</ele>
        <time>2022-01-21T12:50:11.000Z</time>
      </trkpt>
      <trkpt lat="43.49877" lon="6.36999">
        <ele>301</ele>
        <time>2022-01-21T12:50:12.000Z</time>
      </trkpt>
      <trkpt lat="43.49877" lon="6.36999">
        <ele>301</ele>
        <time>2022-01-21T12:50:13.000Z</time>
      </trkpt>
      <trkpt lat="43.49877" lon="6.36999">
        <ele>301</ele>
        <time>2022-01-21T12:50:14.000Z</time>
      </trkpt>
      <trkpt lat="43.49877" lon="6.36999">
        <ele>301</ele>
        <time>2022-01-21T12:50:15.000Z</time>
      </trkpt>
      <trkpt lat="43.49877" lon="6.36998">
        <ele>301</ele>
        <time>2022-01-21T12:50:16.000Z</time>
      </trkpt>
      <trkpt lat="43.49877" lon="6.36998">
        <ele>301</ele>
        <time>2022-01-21T12:50:17.000Z</time>
      </trkpt>
      <trkpt lat="43.49876" lon="6.36998">
        <ele>301</ele>
        <time>2022-01-21T12:50:18.000Z</time>
      </trkpt>
      <trkpt lat="43.49876" lon="6.36998">
        <ele>301</ele>
        <time>2022-01-21T12:50:19.000Z</time>
      </trkpt>
      <trkpt lat="43.49876" lon="6.36997">
        <ele>301</ele>
        <time>2022-01-21T12:50:20.000Z</time>
      </trkpt>
      <trkpt lat="43.49875" lon="6.36997">
        <ele>301</ele>
        <time>2022-01-21T12:50:21.000Z</time>
      </trkpt>
      <trkpt lat="43.49875" lon="6.36998">
        <ele>301</ele>
        <time>2022-01-21T12:50:22.000Z</time>
      </trkpt>
      <trkpt lat="43.49875" lon="6.36997">
        <ele>301</ele>
        <time>2022-01-21T12:50:23.000Z</time>
      </trkpt>
      <trkpt lat="43.49874" lon="6.36997">
        <ele>301</ele>
        <time>2022-01-21T12:50:24.000Z</time>
      </trkpt>
      <trkpt lat="43.49874" lon="6.36997">
        <ele>300</ele>
        <time>2022-01-21T12:50:25.000Z</time>
      </trkpt>
      <trkpt lat="43.49873" lon="6.36998">
        <ele>300</ele>
        <time>2022-01-21T12:50:26.000Z</time>
      </trkpt>
      <trkpt lat="43.49873" lon="6.36998">
        <ele>300</ele>
        <time>2022-01-21T12:50:27.000Z</time>
      </trkpt>
      <trkpt lat="43.49872" lon="6.36999">
        <ele>300</ele>
        <time>2022-01-21T12:50:28.000Z</time>
      </trkpt>
      <trkpt lat="43.49871" lon="6.36999">
        <ele>300</ele>
        <time>2022-01-21T12:50:29.000Z</time>
      </trkpt>
      <trkpt lat="43.4987" lon="6.36998">
        <ele>299</ele>
        <time>2022-01-21T12:50:30.000Z</time>
      </trkpt>
      <trkpt lat="43.49869" lon="6.36998">
        <ele>299</ele>
        <time>2022-01-21T12:50:31.000Z</time>
      </trkpt>
      <trkpt lat="43.49869" lon="6.36998">
        <ele>299</ele>
        <time>2022-01-21T12:50:32.000Z</time>
      </trkpt>
      <trkpt lat="43.49868" lon="6.36998">
        <ele>299</ele>
        <time>2022-01-21T12:50:33.000Z</time>
      </trkpt>
      <trkpt lat="43.49867" lon="6.36998">
        <ele>299</ele>
        <time>2022-01-21T12:50:34.000Z</time>
      </trkpt>
      <trkpt lat="43.49866" lon="6.36998">
        <ele>299</ele>
        <time>2022-01-21T12:50:35.000Z</time>
      </trkpt>
      <trkpt lat="43.49865" lon="6.36998">
        <ele>299</ele>
        <time>2022-01-21T12:50:36.000Z</time>
      </trkpt>
      <trkpt lat="43.49864" lon="6.36998">
        <ele>300</ele>
        <time>2022-01-21T12:50:37.000Z</time>
      </trkpt>
      <trkpt lat="43.49863" lon="6.36998">
        <ele>300</ele>
        <time>2022-01-21T12:50:38.000Z</time>
      </trkpt>
      <trkpt lat="43.49862" lon="6.36998">
        <ele>300</ele>
        <time>2022-01-21T12:50:39.000Z</time>
      </trkpt>
      <trkpt lat="43.49861" lon="6.36998">
        <ele>300</ele>
        <time>2022-01-21T12:50:40.000Z</time>
      </trkpt>
      <trkpt lat="43.4986" lon="6.36998">
        <ele>300</ele>
        <time>2022-01-21T12:50:41.000Z</time>
      </trkpt>
      <trkpt lat="43.49859" lon="6.36998">
        <ele>300</ele>
        <time>2022-01-21T12:50:42.000Z</time>
      </trkpt>
      <trkpt lat="43.49858" lon="6.36997">
        <ele>300</ele>
        <time>2022-01-21T12:50:43.000Z</time>
      </trkpt>
      <trkpt lat="43.49857" lon="6.36997">
        <ele>301</ele>
        <time>2022-01-21T12:50:44.000Z</time>
      </trkpt>
      <trkpt lat="43.49856" lon="6.36997">
        <ele>301</ele>
        <time>2022-01-21T12:50:45.000Z</time>
      </trkpt>
      <trkpt lat="43.49855" lon="6.36998">
        <ele>301</ele>
        <time>2022-01-21T12:50:46.000Z</time>
      </trkpt>
      <trkpt lat="43.49854" lon="6.36998">
        <ele>301</ele>
        <time>2022-01-21T12:50:47.000Z</time>
      </trkpt>
      <trkpt lat="43.49853" lon="6.36998">
        <ele>302</ele>
        <time>2022-01-21T12:50:48.000Z</time>
      </trkpt>
      <trkpt lat="43.49852" lon="6.36998">
        <ele>302</ele>
        <time>2022-01-21T12:50:49.000Z</time>
      </trkpt>
      <trkpt lat="43.49851" lon="6.36998">
        <ele>302</ele>
        <time>2022-01-21T12:50:50.000Z</time>
      </trkpt>
      <trkpt lat="43.4985" lon="6.36999">
        <ele>302</ele>
        <time>2022-01-21T12:50:51.000Z</time>
      </trkpt>
      <trkpt lat="43.49849" lon="6.36999">
        <ele>302</ele>
        <time>2022-01-21T12:50:52.000Z</time>
      </trkpt>
      <trkpt lat="43.49848" lon="6.36999">
        <ele>302</ele>
        <time>2022-01-21T12:50:53.000Z</time>
      </trkpt>
      <trkpt lat="43.49847" lon="6.37">
        <ele>302</ele>
        <time>2022-01-21T12:50:54.000Z</time>
      </trkpt>
      <trkpt lat="43.49846" lon="6.37">
        <ele>302</ele>
        <time>2022-01-21T12:50:55.000Z</time>
      </trkpt>
      <trkpt lat="43.49846" lon="6.37001">
        <ele>302</ele>
        <time>2022-01-21T12:50:56.000Z</time>
      </trkpt>
      <trkpt lat="43.49845" lon="6.37001">
        <ele>302</ele>
        <time>2022-01-21T12:50:57.000Z</time>
      </trkpt>
      <trkpt lat="43.49844" lon="6.37001">
        <ele>302</ele>
        <time>2022-01-21T12:50:58.000Z</time>
      </trkpt>
      <trkpt lat="43.49843" lon="6.37002">
        <ele>302</ele>
        <time>2022-01-21T12:50:59.000Z</time>
      </trkpt>
      <trkpt lat="43.49842" lon="6.37002">
        <ele>302</ele>
        <time>2022-01-21T12:51:00.000Z</time>
      </trkpt>
      <trkpt lat="43.49841" lon="6.37002">
        <ele>302</ele>
        <time>2022-01-21T12:51:01.000Z</time>
      </trkpt>
      <trkpt lat="43.4984" lon="6.37002">
        <ele>302</ele>
        <time>2022-01-21T12:51:02.000Z</time>
      </trkpt>
      <trkpt lat="43.49839" lon="6.37002">
        <ele>302</ele>
        <time>2022-01-21T12:51:03.000Z</time>
      </trkpt>
      <trkpt lat="43.49838" lon="6.37002">
        <ele>302</ele>
        <time>2022-01-21T12:51:04.000Z</time>
      </trkpt>
      <trkpt lat="43.49836" lon="6.37002">
        <ele>302</ele>
        <time>2022-01-21T12:51:05.000Z</time>
      </trkpt>
      <trkpt lat="43.49835" lon="6.37002">
        <ele>302</ele>
        <time>2022-01-21T12:51:06.000Z</time>
      </trkpt>
      <trkpt lat="43.49834" lon="6.37002">
        <ele>303</ele>
        <time>2022-01-21T12:51:07.000Z</time>
      </trkpt>
      <trkpt lat="43.49833" lon="6.37003">
        <ele>303</ele>
        <time>2022-01-21T12:51:08.000Z</time>
      </trkpt>
      <trkpt lat="43.49832" lon="6.37003">
        <ele>304</ele>
        <time>2022-01-21T12:51:09.000Z</time>
      </trkpt>
      <trkpt lat="43.49831" lon="6.37003">
        <ele>304</ele>
        <time>2022-01-21T12:51:10.000Z</time>
      </trkpt>
      <trkpt lat="43.4983" lon="6.37003">
        <ele>304</ele>
        <time>2022-01-21T12:51:11.000Z</time>
      </trkpt>
      <trkpt lat="43.49829" lon="6.37003">
        <ele>304</ele>
        <time>2022-01-21T12:51:12.000Z</time>
      </trkpt>
      <trkpt lat="43.49828" lon="6.37003">
        <ele>304</ele>
        <time>2022-01-21T12:51:13.000Z</time>
      </trkpt>
      <trkpt lat="43.49827" lon="6.37003">
        <ele>304</ele>
        <time>2022-01-21T12:51:14.000Z</time>
      </trkpt>
      <trkpt lat="43.49826" lon="6.37003">
        <ele>305</ele>
        <time>2022-01-21T12:51:15.000Z</time>
      </trkpt>
      <trkpt lat="43.49825" lon="6.37003">
        <ele>305</ele>
        <time>2022-01-21T12:51:16.000Z</time>
      </trkpt>
      <trkpt lat="43.49824" lon="6.37003">
        <ele>305</ele>
        <time>2022-01-21T12:51:17.000Z</time>
      </trkpt>
      <trkpt lat="43.49823" lon="6.37003">
        <ele>305</ele>
        <time>2022-01-21T12:51:18.000Z</time>
      </trkpt>
      <trkpt lat="43.49822" lon="6.37003">
        <ele>306</ele>
        <time>2022-01-21T12:51:19.000Z</time>
      </trkpt>
      <trkpt lat="43.49821" lon="6.37004">
        <ele>306</ele>
        <time>2022-01-21T12:51:20.000Z</time>
      </trkpt>
      <trkpt lat="43.4982" lon="6.37004">
        <ele>306</ele>
        <time>2022-01-21T12:51:21.000Z</time>
      </trkpt>
      <trkpt lat="43.49819" lon="6.37004">
        <ele>306</ele>
        <time>2022-01-21T12:51:22.000Z</time>
      </trkpt>
      <trkpt lat="43.49818" lon="6.37004">
        <ele>306</ele>
        <time>2022-01-21T12:51:23.000Z</time>
      </trkpt>
      <trkpt lat="43.49817" lon="6.37004">
        <ele>306</ele>
        <time>2022-01-21T12:51:24.000Z</time>
      </trkpt>
      <trkpt lat="43.49816" lon="6.37005">
        <ele>306</ele>
        <time>2022-01-21T12:51:25.000Z</time>
      </trkpt>
      <trkpt lat="43.49815" lon="6.37005">
        <ele>306</ele>
        <time>2022-01-21T12:51:26.000Z</time>
      </trkpt>
      <trkpt lat="43.49814" lon="6.37005">
        <ele>306</ele>
        <time>2022-01-21T12:51:27.000Z</time>
      </trkpt>
      <trkpt lat="43.49813" lon="6.37005">
        <ele>306</ele>
        <time>2022-01-21T12:51:28.000Z</time>
      </trkpt>
      <trkpt lat="43.49811" lon="6.37006">
        <ele>306</ele>
        <time>2022-01-21T12:51:29.000Z</time>
      </trkpt>
      <trkpt lat="43.4981" lon="6.37006">
        <ele>306</ele>
        <time>2022-01-21T12:51:30.000Z</time>
      </trkpt>
      <trkpt lat="43.49809" lon="6.37007">
        <ele>306</ele>
        <time>2022-01-21T12:51:31.000Z</time>
      </trkpt>
      <trkpt lat="43.49807" lon="6.37007">
        <ele>306</ele>
        <time>2022-01-21T12:51:32.000Z</time>
      </trkpt>
      <trkpt lat="43.49806" lon="6.37007">
        <ele>307</ele>
        <time>2022-01-21T12:51:33.000Z</time>
      </trkpt>
      <trkpt lat="43.49805" lon="6.37008">
        <ele>307</ele>
        <time>2022-01-21T12:51:34.000Z</time>
      </trkpt>
      <trkpt lat="43.49804" lon="6.37008">
        <ele>307</ele>
        <time>2022-01-21T12:51:35.000Z</time>
      </trkpt>
      <trkpt lat="43.49803" lon="6.37009">
        <ele>307</ele>
        <time>2022-01-21T12:51:36.000Z</time>
      </trkpt>
      <trkpt lat="43.49802" lon="6.37009">
        <ele>307</ele>
        <time>2022-01-21T12:51:37.000Z</time>
      </trkpt>
      <trkpt lat="43.49801" lon="6.3701">
        <ele>307</ele>
        <time>2022-01-21T12:51:38.000Z</time>
      </trkpt>
      <trkpt lat="43.498" lon="6.3701">
        <ele>307</ele>
        <time>2022-01-21T12:51:39.000Z</time>
      </trkpt>
      <trkpt lat="43.49799" lon="6.37011">
        <ele>307</ele>
        <time>2022-01-21T12:51:40.000Z</time>
      </trkpt>
      <trkpt lat="43.49797" lon="6.37011">
        <ele>306</ele>
        <time>2022-01-21T12:51:41.000Z</time>
      </trkpt>
      <trkpt lat="43.49796" lon="6.37012">
        <ele>306</ele>
        <time>2022-01-21T12:51:42.000Z</time>
      </trkpt>
      <trkpt lat="43.49795" lon="6.37013">
        <ele>306</ele>
        <time>2022-01-21T12:51:43.000Z</time>
      </trkpt>
      <trkpt lat="43.49794" lon="6.37013">
        <ele>306</ele>
        <time>2022-01-21T12:51:44.000Z</time>
      </trkpt>
      <trkpt lat="43.49793" lon="6.37014">
        <ele>306</ele>
        <time>2022-01-21T12:51:45.000Z</time>
      </trkpt>
      <trkpt lat="43.49792" lon="6.37014">
        <ele>306</ele>
        <time>2022-01-21T12:51:46.000Z</time>
      </trkpt>
      <trkpt lat="43.49791" lon="6.37014">
        <ele>306</ele>
        <time>2022-01-21T12:51:47.000Z</time>
      </trkpt>
      <trkpt lat="43.4979" lon="6.37015">
        <ele>306</ele>
        <time>2022-01-21T12:51:48.000Z</time>
      </trkpt>
      <trkpt lat="43.49789" lon="6.37015">
        <ele>306</ele>
        <time>2022-01-21T12:51:49.000Z</time>
      </trkpt>
      <trkpt lat="43.49788" lon="6.37015">
        <ele>306</ele>
        <time>2022-01-21T12:51:50.000Z</time>
      </trkpt>
      <trkpt lat="43.49787" lon="6.37015">
        <ele>306</ele>
        <time>2022-01-21T12:51:51.000Z</time>
      </trkpt>
      <trkpt lat="43.49786" lon="6.37015">
        <ele>305</ele>
        <time>2022-01-21T12:51:52.000Z</time>
      </trkpt>
      <trkpt lat="43.49785" lon="6.37015">
        <ele>305</ele>
        <time>2022-01-21T12:51:53.000Z</time>
      </trkpt>
      <trkpt lat="43.49784" lon="6.37015">
        <ele>305</ele>
        <time>2022-01-21T12:51:54.000Z</time>
      </trkpt>
      <trkpt lat="43.49783" lon="6.37016">
        <ele>305</ele>
        <time>2022-01-21T12:51:55.000Z</time>
      </trkpt>
      <trkpt lat="43.49782" lon="6.37016">
        <ele>305</ele>
        <time>2022-01-21T12:51:56.000Z</time>
      </trkpt>
      <trkpt lat="43.49781" lon="6.37016">
        <ele>305</ele>
        <time>2022-01-21T12:51:57.000Z</time>
      </trkpt>
      <trkpt lat="43.4978" lon="6.37015">
        <ele>305</ele>
        <time>2022-01-21T12:51:58.000Z</time>
      </trkpt>
      <trkpt lat="43.49779" lon="6.37015">
        <ele>304</ele>
        <time>2022-01-21T12:51:59.000Z</time>
      </trkpt>
      <trkpt lat="43.49779" lon="6.37015">
        <ele>304</ele>
        <time>2022-01-21T12:52:00.000Z</time>
      </trkpt>
      <trkpt lat="43.49778" lon="6.37015">
        <ele>304</ele>
        <time>2022-01-21T12:52:01.000Z</time>
      </trkpt>
      <trkpt lat="43.49777" lon="6.37015">
        <ele>304</ele>
        <time>2022-01-21T12:52:02.000Z</time>
      </trkpt>
      <trkpt lat="43.49776" lon="6.37015">
        <ele>304</ele>
        <time>2022-01-21T12:52:03.000Z</time>
      </trkpt>
      <trkpt lat="43.49775" lon="6.37015">
        <ele>304</ele>
        <time>2022-01-21T12:52:04.000Z</time>
      </trkpt>
      <trkpt lat="43.49775" lon="6.37015">
        <ele>304</ele>
        <time>2022-01-21T12:52:05.000Z</time>
      </trkpt>
      <trkpt lat="43.49774" lon="6.37016">
        <ele>304</ele>
        <time>2022-01-21T12:52:06.000Z</time>
      </trkpt>
      <trkpt lat="43.49773" lon="6.37016">
        <ele>304</ele>
        <time>2022-01-21T12:52:07.000Z</time>
      </trkpt>
      <trkpt lat="43.49772" lon="6.37016">
        <ele>304</ele>
        <time>2022-01-21T12:52:08.000Z</time>
      </trkpt>
      <trkpt lat="43.49771" lon="6.37016">
        <ele>304</ele>
        <time>2022-01-21T12:52:09.000Z</time>
      </trkpt>
      <trkpt lat="43.4977" lon="6.37017">
        <ele>303</ele>
        <time>2022-01-21T12:52:10.000Z</time>
      </trkpt>
      <trkpt lat="43.49769" lon="6.37017">
        <ele>303</ele>
        <time>2022-01-21T12:52:11.000Z</time>
      </trkpt>
      <trkpt lat="43.49768" lon="6.37017">
        <ele>303</ele>
        <time>2022-01-21T12:52:12.000Z</time>
      </trkpt>
      <trkpt lat="43.49766" lon="6.37017">
        <ele>303</ele>
        <time>2022-01-21T12:52:13.000Z</time>
      </trkpt>
      <trkpt lat="43.49765" lon="6.37017">
        <ele>303</ele>
        <time>2022-01-21T12:52:14.000Z</time>
      </trkpt>
      <trkpt lat="43.49764" lon="6.37017">
        <ele>302</ele>
        <time>2022-01-21T12:52:15.000Z</time>
      </trkpt>
      <trkpt lat="43.49763" lon="6.37018">
        <ele>302</ele>
        <time>2022-01-21T12:52:16.000Z</time>
      </trkpt>
      <trkpt lat="43.49762" lon="6.37018">
        <ele>302</ele>
        <time>2022-01-21T12:52:17.000Z</time>
      </trkpt>
      <trkpt lat="43.49761" lon="6.37017">
        <ele>301</ele>
        <time>2022-01-21T12:52:18.000Z</time>
      </trkpt>
      <trkpt lat="43.4976" lon="6.37017">
        <ele>301</ele>
        <time>2022-01-21T12:52:19.000Z</time>
      </trkpt>
      <trkpt lat="43.49759" lon="6.37017">
        <ele>301</ele>
        <time>2022-01-21T12:52:20.000Z</time>
      </trkpt>
      <trkpt lat="43.49758" lon="6.37017">
        <ele>301</ele>
        <time>2022-01-21T12:52:21.000Z</time>
      </trkpt>
      <trkpt lat="43.49757" lon="6.37017">
        <ele>300</ele>
        <time>2022-01-21T12:52:22.000Z</time>
      </trkpt>
      <trkpt lat="43.49756" lon="6.37017">
        <ele>300</ele>
        <time>2022-01-21T12:52:23.000Z</time>
      </trkpt>
      <trkpt lat="43.49755" lon="6.37017">
        <ele>300</ele>
        <time>2022-01-21T12:52:24.000Z</time>
      </trkpt>
      <trkpt lat="43.49754" lon="6.37018">
        <ele>300</ele>
        <time>2022-01-21T12:52:25.000Z</time>
      </trkpt>
      <trkpt lat="43.49753" lon="6.37018">
        <ele>300</ele>
        <time>2022-01-21T12:52:26.000Z</time>
      </trkpt>
      <trkpt lat="43.49752" lon="6.37019">
        <ele>299</ele>
        <time>2022-01-21T12:52:27.000Z</time>
      </trkpt>
      <trkpt lat="43.49751" lon="6.37019">
        <ele>299</ele>
        <time>2022-01-21T12:52:28.000Z</time>
      </trkpt>
      <trkpt lat="43.4975" lon="6.3702">
        <ele>299</ele>
        <time>2022-01-21T12:52:29.000Z</time>
      </trkpt>
      <trkpt lat="43.49749" lon="6.3702">
        <ele>299</ele>
        <time>2022-01-21T12:52:30.000Z</time>
      </trkpt>
      <trkpt lat="43.49748" lon="6.37021">
        <ele>298</ele>
        <time>2022-01-21T12:52:31.000Z</time>
      </trkpt>
      <trkpt lat="43.49747" lon="6.37022">
        <ele>298</ele>
        <time>2022-01-21T12:52:32.000Z</time>
      </trkpt>
      <trkpt lat="43.49746" lon="6.37023">
        <ele>298</ele>
        <time>2022-01-21T12:52:33.000Z</time>
      </trkpt>
      <trkpt lat="43.49745" lon="6.37023">
        <ele>298</ele>
        <time>2022-01-21T12:52:34.000Z</time>
      </trkpt>
      <trkpt lat="43.49744" lon="6.37024">
        <ele>296</ele>
        <time>2022-01-21T12:52:35.000Z</time>
      </trkpt>
      <trkpt lat="43.49743" lon="6.37025">
        <ele>296</ele>
        <time>2022-01-21T12:52:36.000Z</time>
      </trkpt>
      <trkpt lat="43.49742" lon="6.37026">
        <ele>296</ele>
        <time>2022-01-21T12:52:37.000Z</time>
      </trkpt>
      <trkpt lat="43.49741" lon="6.37027">
        <ele>296</ele>
        <time>2022-01-21T12:52:38.000Z</time>
      </trkpt>
      <trkpt lat="43.4974" lon="6.37027">
        <ele>296</ele>
        <time>2022-01-21T12:52:39.000Z</time>
      </trkpt>
      <trkpt lat="43.4974" lon="6.37029">
        <ele>296</ele>
        <time>2022-01-21T12:52:40.000Z</time>
      </trkpt>
      <trkpt lat="43.49739" lon="6.3703">
        <ele>295</ele>
        <time>2022-01-21T12:52:41.000Z</time>
      </trkpt>
      <trkpt lat="43.49738" lon="6.37031">
        <ele>295</ele>
        <time>2022-01-21T12:52:42.000Z</time>
      </trkpt>
      <trkpt lat="43.49738" lon="6.37032">
        <ele>295</ele>
        <time>2022-01-21T12:52:43.000Z</time>
      </trkpt>
      <trkpt lat="43.49737" lon="6.37034">
        <ele>295</ele>
        <time>2022-01-21T12:52:44.000Z</time>
      </trkpt>
      <trkpt lat="43.49737" lon="6.37035">
        <ele>294</ele>
        <time>2022-01-21T12:52:45.000Z</time>
      </trkpt>
      <trkpt lat="43.49736" lon="6.37036">
        <ele>294</ele>
        <time>2022-01-21T12:52:46.000Z</time>
      </trkpt>
      <trkpt lat="43.49736" lon="6.37038">
        <ele>294</ele>
        <time>2022-01-21T12:52:47.000Z</time>
      </trkpt>
      <trkpt lat="43.49735" lon="6.37039">
        <ele>294</ele>
        <time>2022-01-21T12:52:48.000Z</time>
      </trkpt>
      <trkpt lat="43.49735" lon="6.3704">
        <ele>294</ele>
        <time>2022-01-21T12:52:49.000Z</time>
      </trkpt>
      <trkpt lat="43.49734" lon="6.37042">
        <ele>294</ele>
        <time>2022-01-21T12:52:50.000Z</time>
      </trkpt>
      <trkpt lat="43.49734" lon="6.37043">
        <ele>292</ele>
        <time>2022-01-21T12:52:51.000Z</time>
      </trkpt>
      <trkpt lat="43.49733" lon="6.37044">
        <ele>292</ele>
        <time>2022-01-21T12:52:52.000Z</time>
      </trkpt>
      <trkpt lat="43.49732" lon="6.37045">
        <ele>291</ele>
        <time>2022-01-21T12:52:53.000Z</time>
      </trkpt>
      <trkpt lat="43.49732" lon="6.37046">
        <ele>291</ele>
        <time>2022-01-21T12:52:54.000Z</time>
      </trkpt>
      <trkpt lat="43.49731" lon="6.37048">
        <ele>291</ele>
        <time>2022-01-21T12:52:55.000Z</time>
      </trkpt>
      <trkpt lat="43.49731" lon="6.37049">
        <ele>291</ele>
        <time>2022-01-21T12:52:56.000Z</time>
      </trkpt>
      <trkpt lat="43.4973" lon="6.3705">
        <ele>291</ele>
        <time>2022-01-21T12:52:57.000Z</time>
      </trkpt>
      <trkpt lat="43.4973" lon="6.37051">
        <ele>290</ele>
        <time>2022-01-21T12:52:58.000Z</time>
      </trkpt>
      <trkpt lat="43.49729" lon="6.37052">
        <ele>290</ele>
        <time>2022-01-21T12:52:59.000Z</time>
      </trkpt>
      <trkpt lat="43.49729" lon="6.37054">
        <ele>289</ele>
        <time>2022-01-21T12:53:00.000Z</time>
      </trkpt>
      <trkpt lat="43.49729" lon="6.37055">
        <ele>289</ele>
        <time>2022-01-21T12:53:01.000Z</time>
      </trkpt>
      <trkpt lat="43.49728" lon="6.37056">
        <ele>289</ele>
        <time>2022-01-21T12:53:02.000Z</time>
      </trkpt>
      <trkpt lat="43.49727" lon="6.37056">
        <ele>289</ele>
        <time>2022-01-21T12:53:03.000Z</time>
      </trkpt>
      <trkpt lat="43.49727" lon="6.37058">
        <ele>288</ele>
        <time>2022-01-21T12:53:04.000Z</time>
      </trkpt>
      <trkpt lat="43.49726" lon="6.37059">
        <ele>288</ele>
        <time>2022-01-21T12:53:05.000Z</time>
      </trkpt>
      <trkpt lat="43.49725" lon="6.3706">
        <ele>288</ele>
        <time>2022-01-21T12:53:06.000Z</time>
      </trkpt>
      <trkpt lat="43.49724" lon="6.37061">
        <ele>288</ele>
        <time>2022-01-21T12:53:07.000Z</time>
      </trkpt>
      <trkpt lat="43.49724" lon="6.37062">
        <ele>288</ele>
        <time>2022-01-21T12:53:08.000Z</time>
      </trkpt>
      <trkpt lat="43.49723" lon="6.37063">
        <ele>287</ele>
        <time>2022-01-21T12:53:09.000Z</time>
      </trkpt>
      <trkpt lat="43.49722" lon="6.37064">
        <ele>287</ele>
        <time>2022-01-21T12:53:10.000Z</time>
      </trkpt>
      <trkpt lat="43.49721" lon="6.37065">
        <ele>287</ele>
        <time>2022-01-21T12:53:11.000Z</time>
      </trkpt>
      <trkpt lat="43.4972" lon="6.37066">
        <ele>287</ele>
        <time>2022-01-21T12:53:12.000Z</time>
      </trkpt>
      <trkpt lat="43.49719" lon="6.37067">
        <ele>286</ele>
        <time>2022-01-21T12:53:13.000Z</time>
      </trkpt>
      <trkpt lat="43.49719" lon="6.37068">
        <ele>286</ele>
        <time>2022-01-21T12:53:14.000Z</time>
      </trkpt>
      <trkpt lat="43.49718" lon="6.37069">
        <ele>286</ele>
        <time>2022-01-21T12:53:15.000Z</time>
      </trkpt>
      <trkpt lat="43.49717" lon="6.37071">
        <ele>286</ele>
        <time>2022-01-21T12:53:16.000Z</time>
      </trkpt>
      <trkpt lat="43.49716" lon="6.37072">
        <ele>286</ele>
        <time>2022-01-21T12:53:17.000Z</time>
      </trkpt>
      <trkpt lat="43.49715" lon="6.37073">
        <ele>286</ele>
        <time>2022-01-21T12:53:18.000Z</time>
      </trkpt>
      <trkpt lat="43.49715" lon="6.37074">
        <ele>286</ele>
        <time>2022-01-21T12:53:19.000Z</time>
      </trkpt>
      <trkpt lat="43.49714" lon="6.37075">
        <ele>286</ele>
        <time>2022-01-21T12:53:20.000Z</time>
      </trkpt>
      <trkpt lat="43.49713" lon="6.37076">
        <ele>286</ele>
        <time>2022-01-21T12:53:21.000Z</time>
      </trkpt>
      <trkpt lat="43.49712" lon="6.37077">
        <ele>286</ele>
        <time>2022-01-21T12:53:22.000Z</time>
      </trkpt>
      <trkpt lat="43.49711" lon="6.37077">
        <ele>286</ele>
        <time>2022-01-21T12:53:23.000Z</time>
      </trkpt>
      <trkpt lat="43.4971" lon="6.37078">
        <ele>286</ele>
        <time>2022-01-21T12:53:24.000Z</time>
      </trkpt>
      <trkpt lat="43.4971" lon="6.37077">
        <ele>286</ele>
        <time>2022-01-21T12:53:25.000Z</time>
      </trkpt>
      <trkpt lat="43.49709" lon="6.37076">
        <ele>286</ele>
        <time>2022-01-21T12:53:26.000Z</time>
      </trkpt>
      <trkpt lat="43.49708" lon="6.37076">
        <ele>287</ele>
        <time>2022-01-21T12:53:27.000Z</time>
      </trkpt>
      <trkpt lat="43.49708" lon="6.37076">
        <ele>287</ele>
        <time>2022-01-21T12:53:28.000Z</time>
      </trkpt>
      <trkpt lat="43.49707" lon="6.37076">
        <ele>288</ele>
        <time>2022-01-21T12:53:29.000Z</time>
      </trkpt>
      <trkpt lat="43.49706" lon="6.37077">
        <ele>288</ele>
        <time>2022-01-21T12:53:30.000Z</time>
      </trkpt>
      <trkpt lat="43.49706" lon="6.37077">
        <ele>289</ele>
        <time>2022-01-21T12:53:31.000Z</time>
      </trkpt>
      <trkpt lat="43.49705" lon="6.37078">
        <ele>289</ele>
        <time>2022-01-21T12:53:32.000Z</time>
      </trkpt>
      <trkpt lat="43.49704" lon="6.37078">
        <ele>289</ele>
        <time>2022-01-21T12:53:33.000Z</time>
      </trkpt>
      <trkpt lat="43.49703" lon="6.37078">
        <ele>289</ele>
        <time>2022-01-21T12:53:34.000Z</time>
      </trkpt>
      <trkpt lat="43.49702" lon="6.37078">
        <ele>289</ele>
        <time>2022-01-21T12:53:35.000Z</time>
      </trkpt>
      <trkpt lat="43.49701" lon="6.37079">
        <ele>289</ele>
        <time>2022-01-21T12:53:36.000Z</time>
      </trkpt>
      <trkpt lat="43.497" lon="6.37079">
        <ele>289</ele>
        <time>2022-01-21T12:53:37.000Z</time>
      </trkpt>
      <trkpt lat="43.497" lon="6.37079">
        <ele>289</ele>
        <time>2022-01-21T12:53:38.000Z</time>
      </trkpt>
      <trkpt lat="43.49699" lon="6.3708">
        <ele>289</ele>
        <time>2022-01-21T12:53:39.000Z</time>
      </trkpt>
      <trkpt lat="43.49698" lon="6.3708">
        <ele>289</ele>
        <time>2022-01-21T12:53:40.000Z</time>
      </trkpt>
      <trkpt lat="43.49697" lon="6.3708">
        <ele>289</ele>
        <time>2022-01-21T12:53:41.000Z</time>
      </trkpt>
      <trkpt lat="43.49696" lon="6.3708">
        <ele>289</ele>
        <time>2022-01-21T12:53:42.000Z</time>
      </trkpt>
      <trkpt lat="43.49696" lon="6.37081">
        <ele>289</ele>
        <time>2022-01-21T12:53:43.000Z</time>
      </trkpt>
      <trkpt lat="43.49695" lon="6.37081">
        <ele>289</ele>
        <time>2022-01-21T12:53:44.000Z</time>
      </trkpt>
      <trkpt lat="43.49694" lon="6.37081">
        <ele>289</ele>
        <time>2022-01-21T12:53:45.000Z</time>
      </trkpt>
      <trkpt lat="43.49693" lon="6.37081">
        <ele>289</ele>
        <time>2022-01-21T12:53:46.000Z</time>
      </trkpt>
      <trkpt lat="43.49692" lon="6.37082">
        <ele>289</ele>
        <time>2022-01-21T12:53:47.000Z</time>
      </trkpt>
      <trkpt lat="43.49691" lon="6.37082">
        <ele>290</ele>
        <time>2022-01-21T12:53:48.000Z</time>
      </trkpt>
      <trkpt lat="43.4969" lon="6.37082">
        <ele>290</ele>
        <time>2022-01-21T12:53:49.000Z</time>
      </trkpt>
      <trkpt lat="43.49689" lon="6.37083">
        <ele>290</ele>
        <time>2022-01-21T12:53:50.000Z</time>
      </trkpt>
      <trkpt lat="43.49688" lon="6.37084">
        <ele>290</ele>
        <time>2022-01-21T12:53:51.000Z</time>
      </trkpt>
      <trkpt lat="43.49686" lon="6.37084">
        <ele>290</ele>
        <time>2022-01-21T12:53:52.000Z</time>
      </trkpt>
      <trkpt lat="43.49685" lon="6.37085">
        <ele>290</ele>
        <time>2022-01-21T12:53:53.000Z</time>
      </trkpt>
      <trkpt lat="43.49684" lon="6.37085">
        <ele>290</ele>
        <time>2022-01-21T12:53:54.000Z</time>
      </trkpt>
      <trkpt lat="43.49683" lon="6.37086">
        <ele>290</ele>
        <time>2022-01-21T12:53:55.000Z</time>
      </trkpt>
      <trkpt lat="43.49682" lon="6.37087">
        <ele>291</ele>
        <time>2022-01-21T12:53:56.000Z</time>
      </trkpt>
      <trkpt lat="43.49681" lon="6.37087">
        <ele>290</ele>
        <time>2022-01-21T12:53:57.000Z</time>
      </trkpt>
      <trkpt lat="43.4968" lon="6.37088">
        <ele>291</ele>
        <time>2022-01-21T12:53:58.000Z</time>
      </trkpt>
      <trkpt lat="43.4968" lon="6.37088">
        <ele>291</ele>
        <time>2022-01-21T12:53:59.000Z</time>
      </trkpt>
      <trkpt lat="43.49679" lon="6.37089">
        <ele>291</ele>
        <time>2022-01-21T12:54:00.000Z</time>
      </trkpt>
      <trkpt lat="43.49678" lon="6.37089">
        <ele>290</ele>
        <time>2022-01-21T12:54:01.000Z</time>
      </trkpt>
      <trkpt lat="43.49677" lon="6.3709">
        <ele>290</ele>
        <time>2022-01-21T12:54:02.000Z</time>
      </trkpt>
      <trkpt lat="43.49676" lon="6.37091">
        <ele>290</ele>
        <time>2022-01-21T12:54:03.000Z</time>
      </trkpt>
      <trkpt lat="43.49675" lon="6.37091">
        <ele>290</ele>
        <time>2022-01-21T12:54:04.000Z</time>
      </trkpt>
      <trkpt lat="43.49674" lon="6.37092">
        <ele>290</ele>
        <time>2022-01-21T12:54:05.000Z</time>
      </trkpt>
      <trkpt lat="43.49673" lon="6.37092">
        <ele>290</ele>
        <time>2022-01-21T12:54:06.000Z</time>
      </trkpt>
      <trkpt lat="43.49672" lon="6.37093">
        <ele>290</ele>
        <time>2022-01-21T12:54:07.000Z</time>
      </trkpt>
      <trkpt lat="43.49671" lon="6.37093">
        <ele>290</ele>
        <time>2022-01-21T12:54:08.000Z</time>
      </trkpt>
      <trkpt lat="43.4967" lon="6.37093">
        <ele>289</ele>
        <time>2022-01-21T12:54:09.000Z</time>
      </trkpt>
      <trkpt lat="43.49669" lon="6.37094">
        <ele>289</ele>
        <time>2022-01-21T12:54:10.000Z</time>
      </trkpt>
      <trkpt lat="43.49668" lon="6.37094">
        <ele>289</ele>
        <time>2022-01-21T12:54:11.000Z</time>
      </trkpt>
      <trkpt lat="43.49667" lon="6.37095">
        <ele>289</ele>
        <time>2022-01-21T12:54:12.000Z</time>
      </trkpt>
      <trkpt lat="43.49666" lon="6.37096">
        <ele>289</ele>
        <time>2022-01-21T12:54:13.000Z</time>
      </trkpt>
      <trkpt lat="43.49665" lon="6.37096">
        <ele>289</ele>
        <time>2022-01-21T12:54:14.000Z</time>
      </trkpt>
      <trkpt lat="43.49664" lon="6.37097">
        <ele>289</ele>
        <time>2022-01-21T12:54:15.000Z</time>
      </trkpt>
      <trkpt lat="43.49663" lon="6.37099">
        <ele>289</ele>
        <time>2022-01-21T12:54:16.000Z</time>
      </trkpt>
      <trkpt lat="43.49662" lon="6.371">
        <ele>288</ele>
        <time>2022-01-21T12:54:17.000Z</time>
      </trkpt>
      <trkpt lat="43.49661" lon="6.37101">
        <ele>288</ele>
        <time>2022-01-21T12:54:18.000Z</time>
      </trkpt>
      <trkpt lat="43.4966" lon="6.37102">
        <ele>287</ele>
        <time>2022-01-21T12:54:19.000Z</time>
      </trkpt>
      <trkpt lat="43.4966" lon="6.37103">
        <ele>287</ele>
        <time>2022-01-21T12:54:20.000Z</time>
      </trkpt>
      <trkpt lat="43.49659" lon="6.37104">
        <ele>287</ele>
        <time>2022-01-21T12:54:21.000Z</time>
      </trkpt>
      <trkpt lat="43.49658" lon="6.37105">
        <ele>287</ele>
        <time>2022-01-21T12:54:22.000Z</time>
      </trkpt>
      <trkpt lat="43.49657" lon="6.37106">
        <ele>287</ele>
        <time>2022-01-21T12:54:23.000Z</time>
      </trkpt>
      <trkpt lat="43.49656" lon="6.37106">
        <ele>287</ele>
        <time>2022-01-21T12:54:24.000Z</time>
      </trkpt>
      <trkpt lat="43.49655" lon="6.37107">
        <ele>287</ele>
        <time>2022-01-21T12:54:25.000Z</time>
      </trkpt>
      <trkpt lat="43.49654" lon="6.37107">
        <ele>287</ele>
        <time>2022-01-21T12:54:26.000Z</time>
      </trkpt>
      <trkpt lat="43.49653" lon="6.37108">
        <ele>287</ele>
        <time>2022-01-21T12:54:27.000Z</time>
      </trkpt>
      <trkpt lat="43.49652" lon="6.37108">
        <ele>287</ele>
        <time>2022-01-21T12:54:28.000Z</time>
      </trkpt>
      <trkpt lat="43.49651" lon="6.37109">
        <ele>287</ele>
        <time>2022-01-21T12:54:29.000Z</time>
      </trkpt>
      <trkpt lat="43.49651" lon="6.37109">
        <ele>287</ele>
        <time>2022-01-21T12:54:30.000Z</time>
      </trkpt>
      <trkpt lat="43.4965" lon="6.3711">
        <ele>287</ele>
        <time>2022-01-21T12:54:31.000Z</time>
      </trkpt>
      <trkpt lat="43.49648" lon="6.3711">
        <ele>287</ele>
        <time>2022-01-21T12:54:32.000Z</time>
      </trkpt>
      <trkpt lat="43.49648" lon="6.37111">
        <ele>287</ele>
        <time>2022-01-21T12:54:33.000Z</time>
      </trkpt>
      <trkpt lat="43.49647" lon="6.37111">
        <ele>287</ele>
        <time>2022-01-21T12:54:34.000Z</time>
      </trkpt>
      <trkpt lat="43.49646" lon="6.37111">
        <ele>287</ele>
        <time>2022-01-21T12:54:35.000Z</time>
      </trkpt>
      <trkpt lat="43.49645" lon="6.37112">
        <ele>287</ele>
        <time>2022-01-21T12:54:36.000Z</time>
      </trkpt>
      <trkpt lat="43.49644" lon="6.37113">
        <ele>287</ele>
        <time>2022-01-21T12:54:37.000Z</time>
      </trkpt>
      <trkpt lat="43.49644" lon="6.37113">
        <ele>286</ele>
        <time>2022-01-21T12:54:38.000Z</time>
      </trkpt>
      <trkpt lat="43.49643" lon="6.37113">
        <ele>286</ele>
        <time>2022-01-21T12:54:39.000Z</time>
      </trkpt>
      <trkpt lat="43.49643" lon="6.37113">
        <ele>286</ele>
        <time>2022-01-21T12:54:40.000Z</time>
      </trkpt>
      <trkpt lat="43.49642" lon="6.37113">
        <ele>286</ele>
        <time>2022-01-21T12:54:41.000Z</time>
      </trkpt>
      <trkpt lat="43.49642" lon="6.37113">
        <ele>286</ele>
        <time>2022-01-21T12:54:42.000Z</time>
      </trkpt>
      <trkpt lat="43.49641" lon="6.37113">
        <ele>286</ele>
        <time>2022-01-21T12:54:43.000Z</time>
      </trkpt>
      <trkpt lat="43.4964" lon="6.37114">
        <ele>286</ele>
        <time>2022-01-21T12:54:44.000Z</time>
      </trkpt>
      <trkpt lat="43.4964" lon="6.37115">
        <ele>286</ele>
        <time>2022-01-21T12:54:45.000Z</time>
      </trkpt>
      <trkpt lat="43.49639" lon="6.37115">
        <ele>286</ele>
        <time>2022-01-21T12:54:46.000Z</time>
      </trkpt>
      <trkpt lat="43.49639" lon="6.37116">
        <ele>285</ele>
        <time>2022-01-21T12:54:47.000Z</time>
      </trkpt>
      <trkpt lat="43.49638" lon="6.37118">
        <ele>285</ele>
        <time>2022-01-21T12:54:48.000Z</time>
      </trkpt>
      <trkpt lat="43.49638" lon="6.37118">
        <ele>285</ele>
        <time>2022-01-21T12:54:49.000Z</time>
      </trkpt>
      <trkpt lat="43.49637" lon="6.37119">
        <ele>284</ele>
        <time>2022-01-21T12:54:50.000Z</time>
      </trkpt>
      <trkpt lat="43.49637" lon="6.37121">
        <ele>284</ele>
        <time>2022-01-21T12:54:51.000Z</time>
      </trkpt>
      <trkpt lat="43.49636" lon="6.37122">
        <ele>283</ele>
        <time>2022-01-21T12:54:52.000Z</time>
      </trkpt>
      <trkpt lat="43.49636" lon="6.37123">
        <ele>283</ele>
        <time>2022-01-21T12:54:53.000Z</time>
      </trkpt>
      <trkpt lat="43.49635" lon="6.37124">
        <ele>283</ele>
        <time>2022-01-21T12:54:54.000Z</time>
      </trkpt>
      <trkpt lat="43.49635" lon="6.37126">
        <ele>283</ele>
        <time>2022-01-21T12:54:55.000Z</time>
      </trkpt>
      <trkpt lat="43.49634" lon="6.37127">
        <ele>282</ele>
        <time>2022-01-21T12:54:56.000Z</time>
      </trkpt>
      <trkpt lat="43.49634" lon="6.37128">
        <ele>282</ele>
        <time>2022-01-21T12:54:57.000Z</time>
      </trkpt>
      <trkpt lat="43.49633" lon="6.37129">
        <ele>282</ele>
        <time>2022-01-21T12:54:58.000Z</time>
      </trkpt>
      <trkpt lat="43.49633" lon="6.37131">
        <ele>281</ele>
        <time>2022-01-21T12:54:59.000Z</time>
      </trkpt>
      <trkpt lat="43.49632" lon="6.37132">
        <ele>281</ele>
        <time>2022-01-21T12:55:00.000Z</time>
      </trkpt>
      <trkpt lat="43.49632" lon="6.37133">
        <ele>281</ele>
        <time>2022-01-21T12:55:01.000Z</time>
      </trkpt>
      <trkpt lat="43.49631" lon="6.37134">
        <ele>280</ele>
        <time>2022-01-21T12:55:02.000Z</time>
      </trkpt>
      <trkpt lat="43.4963" lon="6.37135">
        <ele>280</ele>
        <time>2022-01-21T12:55:03.000Z</time>
      </trkpt>
      <trkpt lat="43.4963" lon="6.37136">
        <ele>280</ele>
        <time>2022-01-21T12:55:04.000Z</time>
      </trkpt>
      <trkpt lat="43.49629" lon="6.37137">
        <ele>280</ele>
        <time>2022-01-21T12:55:05.000Z</time>
      </trkpt>
      <trkpt lat="43.49628" lon="6.37137">
        <ele>280</ele>
        <time>2022-01-21T12:55:06.000Z</time>
      </trkpt>
      <trkpt lat="43.49626" lon="6.37138">
        <ele>280</ele>
        <time>2022-01-21T12:55:07.000Z</time>
      </trkpt>
      <trkpt lat="43.49626" lon="6.37138">
        <ele>280</ele>
        <time>2022-01-21T12:55:08.000Z</time>
      </trkpt>
      <trkpt lat="43.49625" lon="6.37138">
        <ele>279</ele>
        <time>2022-01-21T12:55:09.000Z</time>
      </trkpt>
      <trkpt lat="43.49624" lon="6.37138">
        <ele>279</ele>
        <time>2022-01-21T12:55:10.000Z</time>
      </trkpt>
      <trkpt lat="43.49623" lon="6.37138">
        <ele>279</ele>
        <time>2022-01-21T12:55:11.000Z</time>
      </trkpt>
      <trkpt lat="43.49622" lon="6.37138">
        <ele>279</ele>
        <time>2022-01-21T12:55:12.000Z</time>
      </trkpt>
      <trkpt lat="43.49621" lon="6.37137">
        <ele>279</ele>
        <time>2022-01-21T12:55:13.000Z</time>
      </trkpt>
      <trkpt lat="43.4962" lon="6.37137">
        <ele>279</ele>
        <time>2022-01-21T12:55:14.000Z</time>
      </trkpt>
      <trkpt lat="43.4962" lon="6.37135">
        <ele>279</ele>
        <time>2022-01-21T12:55:15.000Z</time>
      </trkpt>
      <trkpt lat="43.49619" lon="6.37134">
        <ele>279</ele>
        <time>2022-01-21T12:55:16.000Z</time>
      </trkpt>
      <trkpt lat="43.49618" lon="6.37132">
        <ele>279</ele>
        <time>2022-01-21T12:55:17.000Z</time>
      </trkpt>
      <trkpt lat="43.49618" lon="6.37131">
        <ele>279</ele>
        <time>2022-01-21T12:55:18.000Z</time>
      </trkpt>
      <trkpt lat="43.49618" lon="6.37129">
        <ele>279</ele>
        <time>2022-01-21T12:55:19.000Z</time>
      </trkpt>
      <trkpt lat="43.49617" lon="6.37128">
        <ele>278</ele>
        <time>2022-01-21T12:55:20.000Z</time>
      </trkpt>
      <trkpt lat="43.49617" lon="6.37126">
        <ele>278</ele>
        <time>2022-01-21T12:55:21.000Z</time>
      </trkpt>
      <trkpt lat="43.49617" lon="6.37125">
        <ele>278</ele>
        <time>2022-01-21T12:55:22.000Z</time>
      </trkpt>
      <trkpt lat="43.49617" lon="6.37124">
        <ele>278</ele>
        <time>2022-01-21T12:55:23.000Z</time>
      </trkpt>
      <trkpt lat="43.49617" lon="6.37123">
        <ele>278</ele>
        <time>2022-01-21T12:55:24.000Z</time>
      </trkpt>
      <trkpt lat="43.49617" lon="6.37122">
        <ele>278</ele>
        <time>2022-01-21T12:55:25.000Z</time>
      </trkpt>
      <trkpt lat="43.49617" lon="6.37121">
        <ele>278</ele>
        <time>2022-01-21T12:55:26.000Z</time>
      </trkpt>
      <trkpt lat="43.49617" lon="6.3712">
        <ele>278</ele>
        <time>2022-01-21T12:55:27.000Z</time>
      </trkpt>
      <trkpt lat="43.49617" lon="6.37118">
        <ele>278</ele>
        <time>2022-01-21T12:55:28.000Z</time>
      </trkpt>
      <trkpt lat="43.49617" lon="6.37117">
        <ele>278</ele>
        <time>2022-01-21T12:55:29.000Z</time>
      </trkpt>
      <trkpt lat="43.49617" lon="6.37115">
        <ele>277</ele>
        <time>2022-01-21T12:55:31.000Z</time>
      </trkpt>
      <trkpt lat="43.49617" lon="6.37114">
        <ele>277</ele>
        <time>2022-01-21T12:55:32.000Z</time>
      </trkpt>
      <trkpt lat="43.49616" lon="6.37113">
        <ele>276</ele>
        <time>2022-01-21T12:55:33.000Z</time>
      </trkpt>
      <trkpt lat="43.49616" lon="6.37113">
        <ele>276</ele>
        <time>2022-01-21T12:55:34.000Z</time>
      </trkpt>
      <trkpt lat="43.49615" lon="6.37113">
        <ele>276</ele>
        <time>2022-01-21T12:55:35.000Z</time>
      </trkpt>
      <trkpt lat="43.49614" lon="6.37113">
        <ele>276</ele>
        <time>2022-01-21T12:55:36.000Z</time>
      </trkpt>
      <trkpt lat="43.49613" lon="6.37113">
        <ele>276</ele>
        <time>2022-01-21T12:55:37.000Z</time>
      </trkpt>
      <trkpt lat="43.49612" lon="6.37114">
        <ele>276</ele>
        <time>2022-01-21T12:55:38.000Z</time>
      </trkpt>
      <trkpt lat="43.49612" lon="6.37115">
        <ele>276</ele>
        <time>2022-01-21T12:55:39.000Z</time>
      </trkpt>
      <trkpt lat="43.49611" lon="6.37116">
        <ele>276</ele>
        <time>2022-01-21T12:55:40.000Z</time>
      </trkpt>
      <trkpt lat="43.4961" lon="6.37117">
        <ele>276</ele>
        <time>2022-01-21T12:55:41.000Z</time>
      </trkpt>
      <trkpt lat="43.4961" lon="6.37118">
        <ele>276</ele>
        <time>2022-01-21T12:55:42.000Z</time>
      </trkpt>
      <trkpt lat="43.49609" lon="6.37119">
        <ele>276</ele>
        <time>2022-01-21T12:55:43.000Z</time>
      </trkpt>
      <trkpt lat="43.49609" lon="6.3712">
        <ele>276</ele>
        <time>2022-01-21T12:55:44.000Z</time>
      </trkpt>
      <trkpt lat="43.49608" lon="6.37121">
        <ele>276</ele>
        <time>2022-01-21T12:55:45.000Z</time>
      </trkpt>
      <trkpt lat="43.49607" lon="6.37122">
        <ele>277</ele>
        <time>2022-01-21T12:55:46.000Z</time>
      </trkpt>
      <trkpt lat="43.49607" lon="6.37123">
        <ele>277</ele>
        <time>2022-01-21T12:55:47.000Z</time>
      </trkpt>
      <trkpt lat="43.49606" lon="6.37124">
        <ele>277</ele>
        <time>2022-01-21T12:55:48.000Z</time>
      </trkpt>
      <trkpt lat="43.49606" lon="6.37125">
        <ele>277</ele>
        <time>2022-01-21T12:55:49.000Z</time>
      </trkpt>
      <trkpt lat="43.49605" lon="6.37126">
        <ele>277</ele>
        <time>2022-01-21T12:55:50.000Z</time>
      </trkpt>
      <trkpt lat="43.49604" lon="6.37127">
        <ele>277</ele>
        <time>2022-01-21T12:55:51.000Z</time>
      </trkpt>
      <trkpt lat="43.49604" lon="6.37128">
        <ele>277</ele>
        <time>2022-01-21T12:55:52.000Z</time>
      </trkpt>
      <trkpt lat="43.49604" lon="6.37129">
        <ele>277</ele>
        <time>2022-01-21T12:55:53.000Z</time>
      </trkpt>
      <trkpt lat="43.49603" lon="6.3713">
        <ele>277</ele>
        <time>2022-01-21T12:55:54.000Z</time>
      </trkpt>
      <trkpt lat="43.49603" lon="6.37131">
        <ele>277</ele>
        <time>2022-01-21T12:55:55.000Z</time>
      </trkpt>
      <trkpt lat="43.49602" lon="6.37132">
        <ele>277</ele>
        <time>2022-01-21T12:55:56.000Z</time>
      </trkpt>
      <trkpt lat="43.49602" lon="6.37133">
        <ele>276</ele>
        <time>2022-01-21T12:55:57.000Z</time>
      </trkpt>
      <trkpt lat="43.49602" lon="6.37134">
        <ele>276</ele>
        <time>2022-01-21T12:55:58.000Z</time>
      </trkpt>
      <trkpt lat="43.49601" lon="6.37134">
        <ele>275</ele>
        <time>2022-01-21T12:55:59.000Z</time>
      </trkpt>
      <trkpt lat="43.49601" lon="6.37135">
        <ele>275</ele>
        <time>2022-01-21T12:56:00.000Z</time>
      </trkpt>
      <trkpt lat="43.496" lon="6.37136">
        <ele>275</ele>
        <time>2022-01-21T12:56:01.000Z</time>
      </trkpt>
      <trkpt lat="43.496" lon="6.37138">
        <ele>275</ele>
        <time>2022-01-21T12:56:02.000Z</time>
      </trkpt>
      <trkpt lat="43.496" lon="6.37139">
        <ele>274</ele>
        <time>2022-01-21T12:56:03.000Z</time>
      </trkpt>
      <trkpt lat="43.49599" lon="6.3714">
        <ele>274</ele>
        <time>2022-01-21T12:56:04.000Z</time>
      </trkpt>
      <trkpt lat="43.49599" lon="6.37141">
        <ele>274</ele>
        <time>2022-01-21T12:56:05.000Z</time>
      </trkpt>
      <trkpt lat="43.49599" lon="6.37142">
        <ele>274</ele>
        <time>2022-01-21T12:56:06.000Z</time>
      </trkpt>
      <trkpt lat="43.49598" lon="6.37143">
        <ele>273</ele>
        <time>2022-01-21T12:56:07.000Z</time>
      </trkpt>
      <trkpt lat="43.49597" lon="6.37144">
        <ele>273</ele>
        <time>2022-01-21T12:56:08.000Z</time>
      </trkpt>
      <trkpt lat="43.49597" lon="6.37146">
        <ele>272</ele>
        <time>2022-01-21T12:56:09.000Z</time>
      </trkpt>
      <trkpt lat="43.49596" lon="6.37147">
        <ele>272</ele>
        <time>2022-01-21T12:56:10.000Z</time>
      </trkpt>
      <trkpt lat="43.49596" lon="6.37148">
        <ele>272</ele>
        <time>2022-01-21T12:56:11.000Z</time>
      </trkpt>
      <trkpt lat="43.49595" lon="6.3715">
        <ele>272</ele>
        <time>2022-01-21T12:56:12.000Z</time>
      </trkpt>
      <trkpt lat="43.49594" lon="6.37149">
        <ele>272</ele>
        <time>2022-01-21T12:56:13.000Z</time>
      </trkpt>
      <trkpt lat="43.49593" lon="6.37149">
        <ele>272</ele>
        <time>2022-01-21T12:56:14.000Z</time>
      </trkpt>
      <trkpt lat="43.49592" lon="6.37149">
        <ele>272</ele>
        <time>2022-01-21T12:56:15.000Z</time>
      </trkpt>
      <trkpt lat="43.49592" lon="6.37149">
        <ele>271</ele>
        <time>2022-01-21T12:56:16.000Z</time>
      </trkpt>
      <trkpt lat="43.49591" lon="6.3715">
        <ele>271</ele>
        <time>2022-01-21T12:56:17.000Z</time>
      </trkpt>
      <trkpt lat="43.49591" lon="6.37151">
        <ele>271</ele>
        <time>2022-01-21T12:56:18.000Z</time>
      </trkpt>
      <trkpt lat="43.4959" lon="6.37152">
        <ele>270</ele>
        <time>2022-01-21T12:56:19.000Z</time>
      </trkpt>
      <trkpt lat="43.4959" lon="6.37154">
        <ele>269</ele>
        <time>2022-01-21T12:56:20.000Z</time>
      </trkpt>
      <trkpt lat="43.49589" lon="6.37155">
        <ele>269</ele>
        <time>2022-01-21T12:56:21.000Z</time>
      </trkpt>
      <trkpt lat="43.49588" lon="6.37155">
        <ele>268</ele>
        <time>2022-01-21T12:56:22.000Z</time>
      </trkpt>
      <trkpt lat="43.49587" lon="6.37156">
        <ele>268</ele>
        <time>2022-01-21T12:56:23.000Z</time>
      </trkpt>
      <trkpt lat="43.49586" lon="6.37156">
        <ele>268</ele>
        <time>2022-01-21T12:56:24.000Z</time>
      </trkpt>
      <trkpt lat="43.49586" lon="6.37157">
        <ele>268</ele>
        <time>2022-01-21T12:56:25.000Z</time>
      </trkpt>
      <trkpt lat="43.49585" lon="6.37157">
        <ele>268</ele>
        <time>2022-01-21T12:56:26.000Z</time>
      </trkpt>
      <trkpt lat="43.49584" lon="6.37157">
        <ele>268</ele>
        <time>2022-01-21T12:56:27.000Z</time>
      </trkpt>
      <trkpt lat="43.49583" lon="6.37157">
        <ele>267</ele>
        <time>2022-01-21T12:56:28.000Z</time>
      </trkpt>
      <trkpt lat="43.49582" lon="6.37157">
        <ele>267</ele>
        <time>2022-01-21T12:56:29.000Z</time>
      </trkpt>
      <trkpt lat="43.49582" lon="6.37156">
        <ele>266</ele>
        <time>2022-01-21T12:56:30.000Z</time>
      </trkpt>
      <trkpt lat="43.49581" lon="6.37154">
        <ele>266</ele>
        <time>2022-01-21T12:56:31.000Z</time>
      </trkpt>
      <trkpt lat="43.49581" lon="6.37153">
        <ele>266</ele>
        <time>2022-01-21T12:56:32.000Z</time>
      </trkpt>
      <trkpt lat="43.49581" lon="6.37151">
        <ele>266</ele>
        <time>2022-01-21T12:56:33.000Z</time>
      </trkpt>
      <trkpt lat="43.4958" lon="6.3715">
        <ele>266</ele>
        <time>2022-01-21T12:56:34.000Z</time>
      </trkpt>
      <trkpt lat="43.4958" lon="6.37149">
        <ele>266</ele>
        <time>2022-01-21T12:56:35.000Z</time>
      </trkpt>
      <trkpt lat="43.4958" lon="6.37148">
        <ele>266</ele>
        <time>2022-01-21T12:56:36.000Z</time>
      </trkpt>
      <trkpt lat="43.49579" lon="6.37148">
        <ele>265</ele>
        <time>2022-01-21T12:56:37.000Z</time>
      </trkpt>
      <trkpt lat="43.49578" lon="6.37148">
        <ele>265</ele>
        <time>2022-01-21T12:56:38.000Z</time>
      </trkpt>
      <trkpt lat="43.49578" lon="6.37147">
        <ele>265</ele>
        <time>2022-01-21T12:56:39.000Z</time>
      </trkpt>
      <trkpt lat="43.49578" lon="6.37146">
        <ele>265</ele>
        <time>2022-01-21T12:56:40.000Z</time>
      </trkpt>
      <trkpt lat="43.49578" lon="6.37146">
        <ele>265</ele>
        <time>2022-01-21T12:56:41.000Z</time>
      </trkpt>
      <trkpt lat="43.49578" lon="6.37145">
        <ele>265</ele>
        <time>2022-01-21T12:56:42.000Z</time>
      </trkpt>
      <trkpt lat="43.49579" lon="6.37144">
        <ele>265</ele>
        <time>2022-01-21T12:56:43.000Z</time>
      </trkpt>
      <trkpt lat="43.4958" lon="6.37143">
        <ele>265</ele>
        <time>2022-01-21T12:56:44.000Z</time>
      </trkpt>
      <trkpt lat="43.49581" lon="6.37143">
        <ele>264</ele>
        <time>2022-01-21T12:56:45.000Z</time>
      </trkpt>
      <trkpt lat="43.49582" lon="6.37142">
        <ele>264</ele>
        <time>2022-01-21T12:56:46.000Z</time>
      </trkpt>
      <trkpt lat="43.49582" lon="6.37142">
        <ele>264</ele>
        <time>2022-01-21T12:56:47.000Z</time>
      </trkpt>
      <trkpt lat="43.49583" lon="6.37141">
        <ele>264</ele>
        <time>2022-01-21T12:56:48.000Z</time>
      </trkpt>
      <trkpt lat="43.49583" lon="6.37141">
        <ele>264</ele>
        <time>2022-01-21T12:56:49.000Z</time>
      </trkpt>
      <trkpt lat="43.49583" lon="6.37141">
        <ele>264</ele>
        <time>2022-01-21T12:56:50.000Z</time>
      </trkpt>
      <trkpt lat="43.49583" lon="6.37141">
        <ele>264</ele>
        <time>2022-01-21T12:56:51.000Z</time>
      </trkpt>
      <trkpt lat="43.49583" lon="6.37141">
        <ele>264</ele>
        <time>2022-01-21T12:56:52.000Z</time>
      </trkpt>
      <trkpt lat="43.49583" lon="6.37141">
        <ele>264</ele>
        <time>2022-01-21T12:56:53.000Z</time>
      </trkpt>
      <trkpt lat="43.49583" lon="6.37141">
        <ele>264</ele>
        <time>2022-01-21T12:56:54.000Z</time>
      </trkpt>
      <trkpt lat="43.49583" lon="6.37141">
        <ele>264</ele>
        <time>2022-01-21T12:56:55.000Z</time>
      </trkpt>
      <trkpt lat="43.49583" lon="6.37141">
        <ele>264</ele>
        <time>2022-01-21T12:56:56.000Z</time>
      </trkpt>
      <trkpt lat="43.49583" lon="6.37141">
        <ele>264</ele>
        <time>2022-01-21T12:56:57.000Z</time>
      </trkpt>
      <trkpt lat="43.49583" lon="6.37141">
        <ele>264</ele>
        <time>2022-01-21T12:56:58.000Z</time>
      </trkpt>
      <trkpt lat="43.49583" lon="6.37141">
        <ele>264</ele>
        <time>2022-01-21T12:56:59.000Z</time>
      </trkpt>
      <trkpt lat="43.49583" lon="6.37141">
        <ele>264</ele>
        <time>2022-01-21T12:57:00.000Z</time>
      </trkpt>
      <trkpt lat="43.49583" lon="6.37141">
        <ele>264</ele>
        <time>2022-01-21T12:57:01.000Z</time>
      </trkpt>
      <trkpt lat="43.49583" lon="6.37141">
        <ele>264</ele>
        <time>2022-01-21T12:57:02.000Z</time>
      </trkpt>
      <trkpt lat="43.49583" lon="6.37141">
        <ele>264</ele>
        <time>2022-01-21T12:57:03.000Z</time>
      </trkpt>
      <trkpt lat="43.49583" lon="6.37141">
        <ele>264</ele>
        <time>2022-01-21T12:57:04.000Z</time>
      </trkpt>
      <trkpt lat="43.49583" lon="6.37141">
        <ele>264</ele>
        <time>2022-01-21T12:57:05.000Z</time>
      </trkpt>
      <trkpt lat="43.49583" lon="6.37141">
        <ele>264</ele>
        <time>2022-01-21T12:57:06.000Z</time>
      </trkpt>
      <trkpt lat="43.49583" lon="6.37141">
        <ele>264</ele>
        <time>2022-01-21T12:57:07.000Z</time>
      </trkpt>
      <trkpt lat="43.49583" lon="6.37141">
        <ele>264</ele>
        <time>2022-01-21T12:57:08.000Z</time>
      </trkpt>
      <trkpt lat="43.49583" lon="6.37141">
        <ele>264</ele>
        <time>2022-01-21T12:57:09.000Z</time>
      </trkpt>
      <trkpt lat="43.49583" lon="6.37141">
        <ele>264</ele>
        <time>2022-01-21T12:57:10.000Z</time>
      </trkpt>
      <trkpt lat="43.49583" lon="6.37141">
        <ele>264</ele>
        <time>2022-01-21T12:57:11.000Z</time>
      </trkpt>
      <trkpt lat="43.49583" lon="6.37141">
        <ele>264</ele>
        <time>2022-01-21T12:57:12.000Z</time>
      </trkpt>
      <trkpt lat="43.49583" lon="6.37141">
        <ele>264</ele>
        <time>2022-01-21T12:57:13.000Z</time>
      </trkpt>
      <trkpt lat="43.49583" lon="6.37141">
        <ele>264</ele>
        <time>2022-01-21T12:57:14.000Z</time>
      </trkpt>
      <trkpt lat="43.49583" lon="6.37141">
        <ele>264</ele>
        <time>2022-01-21T12:57:15.000Z</time>
      </trkpt>
      <trkpt lat="43.49583" lon="6.37141">
        <ele>264</ele>
        <time>2022-01-21T12:57:16.000Z</time>
      </trkpt>
      <trkpt lat="43.49583" lon="6.37141">
        <ele>264</ele>
        <time>2022-01-21T12:57:17.000Z</time>
      </trkpt>
      <trkpt lat="43.49583" lon="6.37141">
        <ele>264</ele>
        <time>2022-01-21T12:57:18.000Z</time>
      </trkpt>
      <trkpt lat="43.49583" lon="6.37141">
        <ele>264</ele>
        <time>2022-01-21T12:57:19.000Z</time>
      </trkpt>
      <trkpt lat="43.49583" lon="6.37141">
        <ele>264</ele>
        <time>2022-01-21T12:57:20.000Z</time>
      </trkpt>
      <trkpt lat="43.49583" lon="6.37141">
        <ele>264</ele>
        <time>2022-01-21T12:57:21.000Z</time>
      </trkpt>
      <trkpt lat="43.49583" lon="6.37141">
        <ele>264</ele>
        <time>2022-01-21T12:57:22.000Z</time>
      </trkpt>
      <trkpt lat="43.49583" lon="6.37141">
        <ele>264</ele>
        <time>2022-01-21T12:57:23.000Z</time>
      </trkpt>
      <trkpt lat="43.49583" lon="6.37141">
        <ele>264</ele>
        <time>2022-01-21T12:57:24.000Z</time>
      </trkpt>
      <trkpt lat="43.49583" lon="6.37141">
        <ele>264</ele>
        <time>2022-01-21T12:57:25.000Z</time>
      </trkpt>
      <trkpt lat="43.49583" lon="6.37141">
        <ele>264</ele>
        <time>2022-01-21T12:57:26.000Z</time>
      </trkpt>
      <trkpt lat="43.49583" lon="6.37141">
        <ele>264</ele>
        <time>2022-01-21T12:57:27.000Z</time>
      </trkpt>
      <trkpt lat="43.49584" lon="6.37144">
        <ele>264</ele>
        <time>2022-01-21T12:57:28.000Z</time>
      </trkpt>
      <trkpt lat="43.49584" lon="6.37144">
        <ele>264</ele>
        <time>2022-01-21T12:57:29.000Z</time>
      </trkpt>
      <trkpt lat="43.49584" lon="6.37143">
        <ele>264</ele>
        <time>2022-01-21T12:57:30.000Z</time>
      </trkpt>
      <trkpt lat="43.49584" lon="6.37142">
        <ele>264</ele>
        <time>2022-01-21T12:57:31.000Z</time>
      </trkpt>
      <trkpt lat="43.49584" lon="6.37141">
        <ele>264</ele>
        <time>2022-01-21T12:57:32.000Z</time>
      </trkpt>
      <trkpt lat="43.49583" lon="6.3714">
        <ele>264</ele>
        <time>2022-01-21T12:57:33.000Z</time>
      </trkpt>
      <trkpt lat="43.49583" lon="6.3714">
        <ele>264</ele>
        <time>2022-01-21T12:57:34.000Z</time>
      </trkpt>
      <trkpt lat="43.49583" lon="6.37139">
        <ele>264</ele>
        <time>2022-01-21T12:57:35.000Z</time>
      </trkpt>
      <trkpt lat="43.49583" lon="6.37138">
        <ele>264</ele>
        <time>2022-01-21T12:57:36.000Z</time>
      </trkpt>
      <trkpt lat="43.49583" lon="6.37137">
        <ele>264</ele>
        <time>2022-01-21T12:57:37.000Z</time>
      </trkpt>
      <trkpt lat="43.49583" lon="6.37136">
        <ele>264</ele>
        <time>2022-01-21T12:57:38.000Z</time>
      </trkpt>
      <trkpt lat="43.49583" lon="6.37135">
        <ele>265</ele>
        <time>2022-01-21T12:57:39.000Z</time>
      </trkpt>
      <trkpt lat="43.49584" lon="6.37135">
        <ele>265</ele>
        <time>2022-01-21T12:57:40.000Z</time>
      </trkpt>
      <trkpt lat="43.49584" lon="6.37136">
        <ele>265</ele>
        <time>2022-01-21T12:57:41.000Z</time>
      </trkpt>
      <trkpt lat="43.49585" lon="6.37136">
        <ele>265</ele>
        <time>2022-01-21T12:57:42.000Z</time>
      </trkpt>
      <trkpt lat="43.49585" lon="6.37137">
        <ele>265</ele>
        <time>2022-01-21T12:57:43.000Z</time>
      </trkpt>
      <trkpt lat="43.49585" lon="6.37137">
        <ele>265</ele>
        <time>2022-01-21T12:57:44.000Z</time>
      </trkpt>
      <trkpt lat="43.49585" lon="6.37137">
        <ele>265</ele>
        <time>2022-01-21T12:57:45.000Z</time>
      </trkpt>
      <trkpt lat="43.49585" lon="6.37137">
        <ele>265</ele>
        <time>2022-01-21T12:57:46.000Z</time>
      </trkpt>
      <trkpt lat="43.49585" lon="6.37137">
        <ele>265</ele>
        <time>2022-01-21T12:57:47.000Z</time>
      </trkpt>
      <trkpt lat="43.49585" lon="6.37137">
        <ele>265</ele>
        <time>2022-01-21T12:57:48.000Z</time>
      </trkpt>
      <trkpt lat="43.49585" lon="6.37137">
        <ele>265</ele>
        <time>2022-01-21T12:57:49.000Z</time>
      </trkpt>
      <trkpt lat="43.49585" lon="6.37137">
        <ele>265</ele>
        <time>2022-01-21T12:57:50.000Z</time>
      </trkpt>
      <trkpt lat="43.49585" lon="6.37136">
        <ele>265</ele>
        <time>2022-01-21T12:57:51.000Z</time>
      </trkpt>
      <trkpt lat="43.49586" lon="6.37136">
        <ele>265</ele>
        <time>2022-01-21T12:57:52.000Z</time>
      </trkpt>
      <trkpt lat="43.49586" lon="6.37135">
        <ele>265</ele>
        <time>2022-01-21T12:57:53.000Z</time>
      </trkpt>
      <trkpt lat="43.49586" lon="6.37134">
        <ele>265</ele>
        <time>2022-01-21T12:57:54.000Z</time>
      </trkpt>
      <trkpt lat="43.49586" lon="6.37133">
        <ele>266</ele>
        <time>2022-01-21T12:57:55.000Z</time>
      </trkpt>
      <trkpt lat="43.49587" lon="6.37132">
        <ele>267</ele>
        <time>2022-01-21T12:57:56.000Z</time>
      </trkpt>
      <trkpt lat="43.49587" lon="6.37132">
        <ele>267</ele>
        <time>2022-01-21T12:57:57.000Z</time>
      </trkpt>
      <trkpt lat="43.49588" lon="6.37132">
        <ele>267</ele>
        <time>2022-01-21T12:57:58.000Z</time>
      </trkpt>
      <trkpt lat="43.49588" lon="6.37133">
        <ele>267</ele>
        <time>2022-01-21T12:57:59.000Z</time>
      </trkpt>
      <trkpt lat="43.49588" lon="6.37134">
        <ele>267</ele>
        <time>2022-01-21T12:58:00.000Z</time>
      </trkpt>
      <trkpt lat="43.49588" lon="6.37135">
        <ele>267</ele>
        <time>2022-01-21T12:58:01.000Z</time>
      </trkpt>
      <trkpt lat="43.49588" lon="6.37136">
        <ele>267</ele>
        <time>2022-01-21T12:58:02.000Z</time>
      </trkpt>
      <trkpt lat="43.49588" lon="6.37136">
        <ele>267</ele>
        <time>2022-01-21T12:58:03.000Z</time>
      </trkpt>
      <trkpt lat="43.49588" lon="6.37136">
        <ele>266</ele>
        <time>2022-01-21T12:58:04.000Z</time>
      </trkpt>
      <trkpt lat="43.49588" lon="6.37135">
        <ele>266</ele>
        <time>2022-01-21T12:58:05.000Z</time>
      </trkpt>
      <trkpt lat="43.49588" lon="6.37134">
        <ele>266</ele>
        <time>2022-01-21T12:58:06.000Z</time>
      </trkpt>
      <trkpt lat="43.49588" lon="6.37133">
        <ele>266</ele>
        <time>2022-01-21T12:58:07.000Z</time>
      </trkpt>
      <trkpt lat="43.49589" lon="6.37132">
        <ele>266</ele>
        <time>2022-01-21T12:58:08.000Z</time>
      </trkpt>
      <trkpt lat="43.4959" lon="6.37132">
        <ele>266</ele>
        <time>2022-01-21T12:58:09.000Z</time>
      </trkpt>
      <trkpt lat="43.4959" lon="6.37131">
        <ele>266</ele>
        <time>2022-01-21T12:58:10.000Z</time>
      </trkpt>
      <trkpt lat="43.4959" lon="6.3713">
        <ele>266</ele>
        <time>2022-01-21T12:58:11.000Z</time>
      </trkpt>
      <trkpt lat="43.4959" lon="6.37129">
        <ele>266</ele>
        <time>2022-01-21T12:58:12.000Z</time>
      </trkpt>
      <trkpt lat="43.4959" lon="6.37127">
        <ele>266</ele>
        <time>2022-01-21T12:58:13.000Z</time>
      </trkpt>
      <trkpt lat="43.4959" lon="6.37126">
        <ele>266</ele>
        <time>2022-01-21T12:58:14.000Z</time>
      </trkpt>
      <trkpt lat="43.4959" lon="6.37124">
        <ele>266</ele>
        <time>2022-01-21T12:58:15.000Z</time>
      </trkpt>
      <trkpt lat="43.4959" lon="6.37122">
        <ele>266</ele>
        <time>2022-01-21T12:58:16.000Z</time>
      </trkpt>
      <trkpt lat="43.4959" lon="6.3712">
        <ele>266</ele>
        <time>2022-01-21T12:58:17.000Z</time>
      </trkpt>
      <trkpt lat="43.4959" lon="6.37117">
        <ele>264</ele>
        <time>2022-01-21T12:58:18.000Z</time>
      </trkpt>
      <trkpt lat="43.4959" lon="6.37114">
        <ele>264</ele>
        <time>2022-01-21T12:58:19.000Z</time>
      </trkpt>
      <trkpt lat="43.4959" lon="6.37112">
        <ele>263</ele>
        <time>2022-01-21T12:58:20.000Z</time>
      </trkpt>
      <trkpt lat="43.4959" lon="6.3711">
        <ele>263</ele>
        <time>2022-01-21T12:58:21.000Z</time>
      </trkpt>
      <trkpt lat="43.4959" lon="6.37108">
        <ele>263</ele>
        <time>2022-01-21T12:58:22.000Z</time>
      </trkpt>
      <trkpt lat="43.4959" lon="6.37107">
        <ele>262</ele>
        <time>2022-01-21T12:58:23.000Z</time>
      </trkpt>
      <trkpt lat="43.4959" lon="6.37105">
        <ele>261</ele>
        <time>2022-01-21T12:58:24.000Z</time>
      </trkpt>
      <trkpt lat="43.4959" lon="6.37103">
        <ele>260</ele>
        <time>2022-01-21T12:58:25.000Z</time>
      </trkpt>
      <trkpt lat="43.4959" lon="6.37101">
        <ele>260</ele>
        <time>2022-01-21T12:58:26.000Z</time>
      </trkpt>
      <trkpt lat="43.49591" lon="6.37099">
        <ele>260</ele>
        <time>2022-01-21T12:58:27.000Z</time>
      </trkpt>
      <trkpt lat="43.49592" lon="6.37097">
        <ele>259</ele>
        <time>2022-01-21T12:58:28.000Z</time>
      </trkpt>
      <trkpt lat="43.49592" lon="6.37095">
        <ele>259</ele>
        <time>2022-01-21T12:58:29.000Z</time>
      </trkpt>
      <trkpt lat="43.49593" lon="6.37094">
        <ele>259</ele>
        <time>2022-01-21T12:58:30.000Z</time>
      </trkpt>
      <trkpt lat="43.49593" lon="6.37092">
        <ele>258</ele>
        <time>2022-01-21T12:58:31.000Z</time>
      </trkpt>
      <trkpt lat="43.49594" lon="6.37091">
        <ele>258</ele>
        <time>2022-01-21T12:58:32.000Z</time>
      </trkpt>
      <trkpt lat="43.49595" lon="6.3709">
        <ele>258</ele>
        <time>2022-01-21T12:58:33.000Z</time>
      </trkpt>
      <trkpt lat="43.49595" lon="6.37088">
        <ele>258</ele>
        <time>2022-01-21T12:58:34.000Z</time>
      </trkpt>
      <trkpt lat="43.49596" lon="6.37087">
        <ele>259</ele>
        <time>2022-01-21T12:58:35.000Z</time>
      </trkpt>
      <trkpt lat="43.49597" lon="6.37086">
        <ele>259</ele>
        <time>2022-01-21T12:58:36.000Z</time>
      </trkpt>
      <trkpt lat="43.49597" lon="6.37084">
        <ele>259</ele>
        <time>2022-01-21T12:58:37.000Z</time>
      </trkpt>
      <trkpt lat="43.49598" lon="6.37083">
        <ele>259</ele>
        <time>2022-01-21T12:58:38.000Z</time>
      </trkpt>
      <trkpt lat="43.49599" lon="6.37081">
        <ele>260</ele>
        <time>2022-01-21T12:58:39.000Z</time>
      </trkpt>
      <trkpt lat="43.49599" lon="6.3708">
        <ele>259</ele>
        <time>2022-01-21T12:58:40.000Z</time>
      </trkpt>
      <trkpt lat="43.496" lon="6.37079">
        <ele>259</ele>
        <time>2022-01-21T12:58:41.000Z</time>
      </trkpt>
      <trkpt lat="43.496" lon="6.37077">
        <ele>259</ele>
        <time>2022-01-21T12:58:42.000Z</time>
      </trkpt>
      <trkpt lat="43.49601" lon="6.37076">
        <ele>259</ele>
        <time>2022-01-21T12:58:43.000Z</time>
      </trkpt>
      <trkpt lat="43.49601" lon="6.37074">
        <ele>260</ele>
        <time>2022-01-21T12:58:44.000Z</time>
      </trkpt>
      <trkpt lat="43.49602" lon="6.37073">
        <ele>260</ele>
        <time>2022-01-21T12:58:45.000Z</time>
      </trkpt>
      <trkpt lat="43.49602" lon="6.37071">
        <ele>260</ele>
        <time>2022-01-21T12:58:46.000Z</time>
      </trkpt>
      <trkpt lat="43.49603" lon="6.37069">
        <ele>260</ele>
        <time>2022-01-21T12:58:47.000Z</time>
      </trkpt>
      <trkpt lat="43.49603" lon="6.37068">
        <ele>261</ele>
        <time>2022-01-21T12:58:48.000Z</time>
      </trkpt>
      <trkpt lat="43.49604" lon="6.37067">
        <ele>261</ele>
        <time>2022-01-21T12:58:49.000Z</time>
      </trkpt>
      <trkpt lat="43.49604" lon="6.37066">
        <ele>260</ele>
        <time>2022-01-21T12:58:50.000Z</time>
      </trkpt>
      <trkpt lat="43.49604" lon="6.37064">
        <ele>260</ele>
        <time>2022-01-21T12:58:51.000Z</time>
      </trkpt>
      <trkpt lat="43.49604" lon="6.37063">
        <ele>260</ele>
        <time>2022-01-21T12:58:52.000Z</time>
      </trkpt>
      <trkpt lat="43.49604" lon="6.37061">
        <ele>260</ele>
        <time>2022-01-21T12:58:53.000Z</time>
      </trkpt>
      <trkpt lat="43.49605" lon="6.3706">
        <ele>260</ele>
        <time>2022-01-21T12:58:54.000Z</time>
      </trkpt>
      <trkpt lat="43.49605" lon="6.37059">
        <ele>260</ele>
        <time>2022-01-21T12:58:55.000Z</time>
      </trkpt>
      <trkpt lat="43.49605" lon="6.37058">
        <ele>260</ele>
        <time>2022-01-21T12:58:56.000Z</time>
      </trkpt>
      <trkpt lat="43.49605" lon="6.37056">
        <ele>260</ele>
        <time>2022-01-21T12:58:57.000Z</time>
      </trkpt>
      <trkpt lat="43.49604" lon="6.37055">
        <ele>259</ele>
        <time>2022-01-21T12:58:58.000Z</time>
      </trkpt>
      <trkpt lat="43.49604" lon="6.37054">
        <ele>259</ele>
        <time>2022-01-21T12:58:59.000Z</time>
      </trkpt>
      <trkpt lat="43.49603" lon="6.37053">
        <ele>259</ele>
        <time>2022-01-21T12:59:00.000Z</time>
      </trkpt>
      <trkpt lat="43.49602" lon="6.37052">
        <ele>259</ele>
        <time>2022-01-21T12:59:01.000Z</time>
      </trkpt>
      <trkpt lat="43.49602" lon="6.37052">
        <ele>259</ele>
        <time>2022-01-21T12:59:02.000Z</time>
      </trkpt>
      <trkpt lat="43.49601" lon="6.37051">
        <ele>259</ele>
        <time>2022-01-21T12:59:03.000Z</time>
      </trkpt>
      <trkpt lat="43.49601" lon="6.37051">
        <ele>259</ele>
        <time>2022-01-21T12:59:04.000Z</time>
      </trkpt>
      <trkpt lat="43.49601" lon="6.37051">
        <ele>259</ele>
        <time>2022-01-21T12:59:05.000Z</time>
      </trkpt>
      <trkpt lat="43.49601" lon="6.37051">
        <ele>259</ele>
        <time>2022-01-21T12:59:06.000Z</time>
      </trkpt>
      <trkpt lat="43.49601" lon="6.37051">
        <ele>259</ele>
        <time>2022-01-21T12:59:07.000Z</time>
      </trkpt>
      <trkpt lat="43.49601" lon="6.37051">
        <ele>259</ele>
        <time>2022-01-21T12:59:08.000Z</time>
      </trkpt>
      <trkpt lat="43.49601" lon="6.37051">
        <ele>259</ele>
        <time>2022-01-21T12:59:09.000Z</time>
      </trkpt>
      <trkpt lat="43.49601" lon="6.37051">
        <ele>259</ele>
        <time>2022-01-21T12:59:10.000Z</time>
      </trkpt>
      <trkpt lat="43.49601" lon="6.37051">
        <ele>259</ele>
        <time>2022-01-21T12:59:11.000Z</time>
      </trkpt>
      <trkpt lat="43.49601" lon="6.37051">
        <ele>259</ele>
        <time>2022-01-21T12:59:12.000Z</time>
      </trkpt>
      <trkpt lat="43.49601" lon="6.37051">
        <ele>259</ele>
        <time>2022-01-21T12:59:13.000Z</time>
      </trkpt>
      <trkpt lat="43.49601" lon="6.37051">
        <ele>259</ele>
        <time>2022-01-21T12:59:14.000Z</time>
      </trkpt>
      <trkpt lat="43.49601" lon="6.37051">
        <ele>259</ele>
        <time>2022-01-21T12:59:15.000Z</time>
      </trkpt>
      <trkpt lat="43.49601" lon="6.37051">
        <ele>259</ele>
        <time>2022-01-21T12:59:16.000Z</time>
      </trkpt>
      <trkpt lat="43.49601" lon="6.37051">
        <ele>259</ele>
        <time>2022-01-21T12:59:17.000Z</time>
      </trkpt>
      <trkpt lat="43.49601" lon="6.37051">
        <ele>259</ele>
        <time>2022-01-21T12:59:18.000Z</time>
      </trkpt>
      <trkpt lat="43.49601" lon="6.37051">
        <ele>259</ele>
        <time>2022-01-21T12:59:19.000Z</time>
      </trkpt>
      <trkpt lat="43.49601" lon="6.37051">
        <ele>259</ele>
        <time>2022-01-21T12:59:20.000Z</time>
      </trkpt>
      <trkpt lat="43.49601" lon="6.37051">
        <ele>259</ele>
        <time>2022-01-21T12:59:21.000Z</time>
      </trkpt>
      <trkpt lat="43.49601" lon="6.37051">
        <ele>259</ele>
        <time>2022-01-21T12:59:22.000Z</time>
      </trkpt>
      <trkpt lat="43.49601" lon="6.37051">
        <ele>259</ele>
        <time>2022-01-21T12:59:23.000Z</time>
      </trkpt>
      <trkpt lat="43.49601" lon="6.37051">
        <ele>259</ele>
        <time>2022-01-21T12:59:24.000Z</time>
      </trkpt>
      <trkpt lat="43.49601" lon="6.37051">
        <ele>259</ele>
        <time>2022-01-21T12:59:25.000Z</time>
      </trkpt>
      <trkpt lat="43.49601" lon="6.37051">
        <ele>259</ele>
        <time>2022-01-21T12:59:26.000Z</time>
      </trkpt>
      <trkpt lat="43.49601" lon="6.37051">
        <ele>259</ele>
        <time>2022-01-21T12:59:27.000Z</time>
      </trkpt>
      <trkpt lat="43.49601" lon="6.37051">
        <ele>259</ele>
        <time>2022-01-21T12:59:28.000Z</time>
      </trkpt>
      <trkpt lat="43.49601" lon="6.37051">
        <ele>259</ele>
        <time>2022-01-21T12:59:29.000Z</time>
      </trkpt>
      <trkpt lat="43.49601" lon="6.37051">
        <ele>259</ele>
        <time>2022-01-21T12:59:30.000Z</time>
      </trkpt>
      <trkpt lat="43.49601" lon="6.37051">
        <ele>259</ele>
        <time>2022-01-21T12:59:31.000Z</time>
      </trkpt>
      <trkpt lat="43.49601" lon="6.37051">
        <ele>259</ele>
        <time>2022-01-21T12:59:32.000Z</time>
      </trkpt>
      <trkpt lat="43.49601" lon="6.37051">
        <ele>259</ele>
        <time>2022-01-21T12:59:33.000Z</time>
      </trkpt>
      <trkpt lat="43.49601" lon="6.37051">
        <ele>259</ele>
        <time>2022-01-21T12:59:34.000Z</time>
      </trkpt>
      <trkpt lat="43.49601" lon="6.37051">
        <ele>259</ele>
        <time>2022-01-21T12:59:35.000Z</time>
      </trkpt>
      <trkpt lat="43.49601" lon="6.37051">
        <ele>259</ele>
        <time>2022-01-21T12:59:36.000Z</time>
      </trkpt>
      <trkpt lat="43.49601" lon="6.37051">
        <ele>259</ele>
        <time>2022-01-21T12:59:37.000Z</time>
      </trkpt>
      <trkpt lat="43.49601" lon="6.37051">
        <ele>259</ele>
        <time>2022-01-21T12:59:38.000Z</time>
      </trkpt>
      <trkpt lat="43.49601" lon="6.37051">
        <ele>259</ele>
        <time>2022-01-21T12:59:39.000Z</time>
      </trkpt>
      <trkpt lat="43.49601" lon="6.37051">
        <ele>259</ele>
        <time>2022-01-21T12:59:40.000Z</time>
      </trkpt>
      <trkpt lat="43.49601" lon="6.37051">
        <ele>259</ele>
        <time>2022-01-21T12:59:41.000Z</time>
      </trkpt>
      <trkpt lat="43.49601" lon="6.37051">
        <ele>259</ele>
        <time>2022-01-21T12:59:42.000Z</time>
      </trkpt>
      <trkpt lat="43.49601" lon="6.37051">
        <ele>259</ele>
        <time>2022-01-21T12:59:43.000Z</time>
      </trkpt>
      <trkpt lat="43.49601" lon="6.37051">
        <ele>259</ele>
        <time>2022-01-21T12:59:44.000Z</time>
      </trkpt>
      <trkpt lat="43.49601" lon="6.37051">
        <ele>259</ele>
        <time>2022-01-21T12:59:45.000Z</time>
      </trkpt>
      <trkpt lat="43.49601" lon="6.37051">
        <ele>259</ele>
        <time>2022-01-21T12:59:46.000Z</time>
      </trkpt>
      <trkpt lat="43.49601" lon="6.37051">
        <ele>259</ele>
        <time>2022-01-21T12:59:47.000Z</time>
      </trkpt>
      <trkpt lat="43.49601" lon="6.37051">
        <ele>259</ele>
        <time>2022-01-21T12:59:48.000Z</time>
      </trkpt>
      <trkpt lat="43.49601" lon="6.37051">
        <ele>259</ele>
        <time>2022-01-21T12:59:49.000Z</time>
      </trkpt>
      <trkpt lat="43.49601" lon="6.37051">
        <ele>259</ele>
        <time>2022-01-21T12:59:50.000Z</time>
      </trkpt>
      <trkpt lat="43.49601" lon="6.37051">
        <ele>259</ele>
        <time>2022-01-21T12:59:51.000Z</time>
      </trkpt>
      <trkpt lat="43.49601" lon="6.37051">
        <ele>259</ele>
        <time>2022-01-21T12:59:52.000Z</time>
      </trkpt>
      <trkpt lat="43.49601" lon="6.37051">
        <ele>259</ele>
        <time>2022-01-21T12:59:53.000Z</time>
      </trkpt>
      <trkpt lat="43.49601" lon="6.37051">
        <ele>259</ele>
        <time>2022-01-21T12:59:54.000Z</time>
      </trkpt>
      <trkpt lat="43.49601" lon="6.37051">
        <ele>259</ele>
        <time>2022-01-21T12:59:55.000Z</time>
      </trkpt>
      <trkpt lat="43.49601" lon="6.37051">
        <ele>259</ele>
        <time>2022-01-21T12:59:56.000Z</time>
      </trkpt>
      <trkpt lat="43.49601" lon="6.37051">
        <ele>259</ele>
        <time>2022-01-21T12:59:57.000Z</time>
      </trkpt>
      <trkpt lat="43.49601" lon="6.37051">
        <ele>259</ele>
        <time>2022-01-21T12:59:58.000Z</time>
      </trkpt>
      <trkpt lat="43.49601" lon="6.37051">
        <ele>259</ele>
        <time>2022-01-21T12:59:59.000Z</time>
      </trkpt>
      <trkpt lat="43.49601" lon="6.37051">
        <ele>259</ele>
        <time>2022-01-21T13:00:00.000Z</time>
      </trkpt>
      <trkpt lat="43.49601" lon="6.37051">
        <ele>259</ele>
        <time>2022-01-21T13:00:01.000Z</time>
      </trkpt>
      <trkpt lat="43.49601" lon="6.37051">
        <ele>259</ele>
        <time>2022-01-21T13:00:02.000Z</time>
      </trkpt>
      <trkpt lat="43.49601" lon="6.37051">
        <ele>259</ele>
        <time>2022-01-21T13:00:03.000Z</time>
      </trkpt>
      <trkpt lat="43.49601" lon="6.37051">
        <ele>259</ele>
        <time>2022-01-21T13:00:04.000Z</time>
      </trkpt>
      <trkpt lat="43.49601" lon="6.37051">
        <ele>259</ele>
        <time>2022-01-21T13:00:05.000Z</time>
      </trkpt>
      <trkpt lat="43.49601" lon="6.37051">
        <ele>259</ele>
        <time>2022-01-21T13:00:06.000Z</time>
      </trkpt>
      <trkpt lat="43.49601" lon="6.37051">
        <ele>259</ele>
        <time>2022-01-21T13:00:07.000Z</time>
      </trkpt>
      <trkpt lat="43.49601" lon="6.37051">
        <ele>259</ele>
        <time>2022-01-21T13:00:08.000Z</time>
      </trkpt>
      <trkpt lat="43.49601" lon="6.37051">
        <ele>259</ele>
        <time>2022-01-21T13:00:09.000Z</time>
      </trkpt>
      <trkpt lat="43.49601" lon="6.37051">
        <ele>259</ele>
        <time>2022-01-21T13:00:10.000Z</time>
      </trkpt>
      <trkpt lat="43.49601" lon="6.37051">
        <ele>259</ele>
        <time>2022-01-21T13:00:11.000Z</time>
      </trkpt>
      <trkpt lat="43.49601" lon="6.37051">
        <ele>259</ele>
        <time>2022-01-21T13:00:12.000Z</time>
      </trkpt>
      <trkpt lat="43.49601" lon="6.37051">
        <ele>259</ele>
        <time>2022-01-21T13:00:13.000Z</time>
      </trkpt>
      <trkpt lat="43.49601" lon="6.37051">
        <ele>259</ele>
        <time>2022-01-21T13:00:14.000Z</time>
      </trkpt>
      <trkpt lat="43.49601" lon="6.37051">
        <ele>259</ele>
        <time>2022-01-21T13:00:15.000Z</time>
      </trkpt>
      <trkpt lat="43.49601" lon="6.37051">
        <ele>259</ele>
        <time>2022-01-21T13:00:16.000Z</time>
      </trkpt>
      <trkpt lat="43.49601" lon="6.37051">
        <ele>259</ele>
        <time>2022-01-21T13:00:17.000Z</time>
      </trkpt>
      <trkpt lat="43.49601" lon="6.37051">
        <ele>259</ele>
        <time>2022-01-21T13:00:18.000Z</time>
      </trkpt>
      <trkpt lat="43.49601" lon="6.37051">
        <ele>259</ele>
        <time>2022-01-21T13:00:19.000Z</time>
      </trkpt>
      <trkpt lat="43.49601" lon="6.37051">
        <ele>259</ele>
        <time>2022-01-21T13:00:20.000Z</time>
      </trkpt>
      <trkpt lat="43.49601" lon="6.37051">
        <ele>259</ele>
        <time>2022-01-21T13:00:21.000Z</time>
      </trkpt>
      <trkpt lat="43.49601" lon="6.37051">
        <ele>259</ele>
        <time>2022-01-21T13:00:22.000Z</time>
      </trkpt>
      <trkpt lat="43.49601" lon="6.37051">
        <ele>259</ele>
        <time>2022-01-21T13:00:23.000Z</time>
      </trkpt>
      <trkpt lat="43.49601" lon="6.37051">
        <ele>259</ele>
        <time>2022-01-21T13:00:24.000Z</time>
      </trkpt>
      <trkpt lat="43.49601" lon="6.37051">
        <ele>259</ele>
        <time>2022-01-21T13:00:25.000Z</time>
      </trkpt>
      <trkpt lat="43.49601" lon="6.37051">
        <ele>259</ele>
        <time>2022-01-21T13:00:26.000Z</time>
      </trkpt>
      <trkpt lat="43.49601" lon="6.37051">
        <ele>259</ele>
        <time>2022-01-21T13:00:27.000Z</time>
      </trkpt>
      <trkpt lat="43.49601" lon="6.37051">
        <ele>259</ele>
        <time>2022-01-21T13:00:28.000Z</time>
      </trkpt>
      <trkpt lat="43.49601" lon="6.37051">
        <ele>259</ele>
        <time>2022-01-21T13:00:29.000Z</time>
      </trkpt>
      <trkpt lat="43.49601" lon="6.37051">
        <ele>259</ele>
        <time>2022-01-21T13:00:30.000Z</time>
      </trkpt>
      <trkpt lat="43.49601" lon="6.37051">
        <ele>259</ele>
        <time>2022-01-21T13:00:31.000Z</time>
      </trkpt>
      <trkpt lat="43.49601" lon="6.37051">
        <ele>259</ele>
        <time>2022-01-21T13:00:32.000Z</time>
      </trkpt>
      <trkpt lat="43.49601" lon="6.37051">
        <ele>259</ele>
        <time>2022-01-21T13:00:33.000Z</time>
      </trkpt>
      <trkpt lat="43.49601" lon="6.37051">
        <ele>259</ele>
        <time>2022-01-21T13:00:34.000Z</time>
      </trkpt>
      <trkpt lat="43.49601" lon="6.37051">
        <ele>259</ele>
        <time>2022-01-21T13:00:35.000Z</time>
      </trkpt>
      <trkpt lat="43.49601" lon="6.37051">
        <ele>259</ele>
        <time>2022-01-21T13:00:36.000Z</time>
      </trkpt>
      <trkpt lat="43.49601" lon="6.37051">
        <ele>259</ele>
        <time>2022-01-21T13:00:37.000Z</time>
      </trkpt>
      <trkpt lat="43.49601" lon="6.37051">
        <ele>259</ele>
        <time>2022-01-21T13:00:38.000Z</time>
      </trkpt>
      <trkpt lat="43.49601" lon="6.37051">
        <ele>259</ele>
        <time>2022-01-21T13:00:39.000Z</time>
      </trkpt>
      <trkpt lat="43.49601" lon="6.37051">
        <ele>259</ele>
        <time>2022-01-21T13:00:40.000Z</time>
      </trkpt>
      <trkpt lat="43.49601" lon="6.37051">
        <ele>259</ele>
        <time>2022-01-21T13:00:41.000Z</time>
      </trkpt>
      <trkpt lat="43.49601" lon="6.37051">
        <ele>259</ele>
        <time>2022-01-21T13:00:42.000Z</time>
      </trkpt>
      <trkpt lat="43.49601" lon="6.37051">
        <ele>259</ele>
        <time>2022-01-21T13:00:43.000Z</time>
      </trkpt>
      <trkpt lat="43.49601" lon="6.37051">
        <ele>259</ele>
        <time>2022-01-21T13:00:44.000Z</time>
      </trkpt>
      <trkpt lat="43.49601" lon="6.37051">
        <ele>259</ele>
        <time>2022-01-21T13:00:45.000Z</time>
      </trkpt>
      <trkpt lat="43.49601" lon="6.37051">
        <ele>259</ele>
        <time>2022-01-21T13:00:46.000Z</time>
      </trkpt>
      <trkpt lat="43.49601" lon="6.37051">
        <ele>259</ele>
        <time>2022-01-21T13:00:47.000Z</time>
      </trkpt>
      <trkpt lat="43.49601" lon="6.37051">
        <ele>259</ele>
        <time>2022-01-21T13:00:48.000Z</time>
      </trkpt>
      <trkpt lat="43.49601" lon="6.37051">
        <ele>259</ele>
        <time>2022-01-21T13:00:49.000Z</time>
      </trkpt>
      <trkpt lat="43.49601" lon="6.37051">
        <ele>259</ele>
        <time>2022-01-21T13:00:50.000Z</time>
      </trkpt>
      <trkpt lat="43.49601" lon="6.37051">
        <ele>259</ele>
        <time>2022-01-21T13:00:51.000Z</time>
      </trkpt>
      <trkpt lat="43.49601" lon="6.37051">
        <ele>259</ele>
        <time>2022-01-21T13:00:52.000Z</time>
      </trkpt>
      <trkpt lat="43.49601" lon="6.37051">
        <ele>259</ele>
        <time>2022-01-21T13:00:53.000Z</time>
      </trkpt>
      <trkpt lat="43.49601" lon="6.37051">
        <ele>259</ele>
        <time>2022-01-21T13:00:54.000Z</time>
      </trkpt>
      <trkpt lat="43.49601" lon="6.37051">
        <ele>259</ele>
        <time>2022-01-21T13:00:55.000Z</time>
      </trkpt>
      <trkpt lat="43.49601" lon="6.37051">
        <ele>259</ele>
        <time>2022-01-21T13:00:56.000Z</time>
      </trkpt>
      <trkpt lat="43.49601" lon="6.37051">
        <ele>259</ele>
        <time>2022-01-21T13:00:57.000Z</time>
      </trkpt>
      <trkpt lat="43.49601" lon="6.37051">
        <ele>259</ele>
        <time>2022-01-21T13:00:58.000Z</time>
      </trkpt>
      <trkpt lat="43.49601" lon="6.37051">
        <ele>259</ele>
        <time>2022-01-21T13:00:59.000Z</time>
      </trkpt>
      <trkpt lat="43.49601" lon="6.37051">
        <ele>259</ele>
        <time>2022-01-21T13:01:00.000Z</time>
      </trkpt>
      <trkpt lat="43.49601" lon="6.37051">
        <ele>259</ele>
        <time>2022-01-21T13:01:01.000Z</time>
      </trkpt>
      <trkpt lat="43.49601" lon="6.37051">
        <ele>259</ele>
        <time>2022-01-21T13:01:02.000Z</time>
      </trkpt>
      <trkpt lat="43.49601" lon="6.37051">
        <ele>259</ele>
        <time>2022-01-21T13:01:03.000Z</time>
      </trkpt>
      <trkpt lat="43.49601" lon="6.37051">
        <ele>259</ele>
        <time>2022-01-21T13:01:04.000Z</time>
      </trkpt>
      <trkpt lat="43.49601" lon="6.37051">
        <ele>259</ele>
        <time>2022-01-21T13:01:05.000Z</time>
      </trkpt>
      <trkpt lat="43.49601" lon="6.37051">
        <ele>259</ele>
        <time>2022-01-21T13:01:06.000Z</time>
      </trkpt>
      <trkpt lat="43.49601" lon="6.37051">
        <ele>259</ele>
        <time>2022-01-21T13:01:07.000Z</time>
      </trkpt>
      <trkpt lat="43.49601" lon="6.37051">
        <ele>259</ele>
        <time>2022-01-21T13:01:08.000Z</time>
      </trkpt>
      <trkpt lat="43.49601" lon="6.37051">
        <ele>259</ele>
        <time>2022-01-21T13:01:09.000Z</time>
      </trkpt>
      <trkpt lat="43.49601" lon="6.37051">
        <ele>259</ele>
        <time>2022-01-21T13:01:10.000Z</time>
      </trkpt>
      <trkpt lat="43.49601" lon="6.37051">
        <ele>259</ele>
        <time>2022-01-21T13:01:11.000Z</time>
      </trkpt>
      <trkpt lat="43.49601" lon="6.37051">
        <ele>259</ele>
        <time>2022-01-21T13:01:12.000Z</time>
      </trkpt>
      <trkpt lat="43.49601" lon="6.37051">
        <ele>259</ele>
        <time>2022-01-21T13:01:13.000Z</time>
      </trkpt>
      <trkpt lat="43.49601" lon="6.37051">
        <ele>259</ele>
        <time>2022-01-21T13:01:14.000Z</time>
      </trkpt>
      <trkpt lat="43.49601" lon="6.37051">
        <ele>259</ele>
        <time>2022-01-21T13:01:15.000Z</time>
      </trkpt>
      <trkpt lat="43.49601" lon="6.37051">
        <ele>259</ele>
        <time>2022-01-21T13:01:16.000Z</time>
      </trkpt>
      <trkpt lat="43.49601" lon="6.37051">
        <ele>259</ele>
        <time>2022-01-21T13:01:17.000Z</time>
      </trkpt>
      <trkpt lat="43.49601" lon="6.37051">
        <ele>259</ele>
        <time>2022-01-21T13:01:18.000Z</time>
      </trkpt>
      <trkpt lat="43.49601" lon="6.37051">
        <ele>259</ele>
        <time>2022-01-21T13:01:19.000Z</time>
      </trkpt>
      <trkpt lat="43.49601" lon="6.37051">
        <ele>259</ele>
        <time>2022-01-21T13:01:20.000Z</time>
      </trkpt>
      <trkpt lat="43.49601" lon="6.37051">
        <ele>259</ele>
        <time>2022-01-21T13:01:21.000Z</time>
      </trkpt>
      <trkpt lat="43.49601" lon="6.37051">
        <ele>259</ele>
        <time>2022-01-21T13:01:22.000Z</time>
      </trkpt>
      <trkpt lat="43.49601" lon="6.37051">
        <ele>259</ele>
        <time>2022-01-21T13:01:23.000Z</time>
      </trkpt>
      <trkpt lat="43.49601" lon="6.37051">
        <ele>259</ele>
        <time>2022-01-21T13:01:24.000Z</time>
      </trkpt>
      <trkpt lat="43.49601" lon="6.37051">
        <ele>259</ele>
        <time>2022-01-21T13:01:25.000Z</time>
      </trkpt>
      <trkpt lat="43.49601" lon="6.37051">
        <ele>259</ele>
        <time>2022-01-21T13:01:26.000Z</time>
      </trkpt>
      <trkpt lat="43.49601" lon="6.37051">
        <ele>259</ele>
        <time>2022-01-21T13:01:27.000Z</time>
      </trkpt>
      <trkpt lat="43.49601" lon="6.37051">
        <ele>259</ele>
        <time>2022-01-21T13:01:28.000Z</time>
      </trkpt>
      <trkpt lat="43.49601" lon="6.37051">
        <ele>259</ele>
        <time>2022-01-21T13:01:29.000Z</time>
      </trkpt>
      <trkpt lat="43.49601" lon="6.37051">
        <ele>259</ele>
        <time>2022-01-21T13:01:30.000Z</time>
      </trkpt>
      <trkpt lat="43.49601" lon="6.37051">
        <ele>259</ele>
        <time>2022-01-21T13:01:31.000Z</time>
      </trkpt>
      <trkpt lat="43.49601" lon="6.37051">
        <ele>259</ele>
        <time>2022-01-21T13:01:32.000Z</time>
      </trkpt>
      <trkpt lat="43.49601" lon="6.37051">
        <ele>259</ele>
        <time>2022-01-21T13:01:33.000Z</time>
      </trkpt>
      <trkpt lat="43.49601" lon="6.37051">
        <ele>259</ele>
        <time>2022-01-21T13:01:34.000Z</time>
      </trkpt>
      <trkpt lat="43.49602" lon="6.37053">
        <ele>259</ele>
        <time>2022-01-21T13:01:35.000Z</time>
      </trkpt>
      <trkpt lat="43.49602" lon="6.37053">
        <ele>259</ele>
        <time>2022-01-21T13:01:36.000Z</time>
      </trkpt>
      <trkpt lat="43.49602" lon="6.37054">
        <ele>259</ele>
        <time>2022-01-21T13:01:37.000Z</time>
      </trkpt>
      <trkpt lat="43.49602" lon="6.37054">
        <ele>259</ele>
        <time>2022-01-21T13:01:38.000Z</time>
      </trkpt>
      <trkpt lat="43.49603" lon="6.37054">
        <ele>259</ele>
        <time>2022-01-21T13:01:39.000Z</time>
      </trkpt>
      <trkpt lat="43.49603" lon="6.37055">
        <ele>259</ele>
        <time>2022-01-21T13:01:40.000Z</time>
      </trkpt>
      <trkpt lat="43.49603" lon="6.37055">
        <ele>259</ele>
        <time>2022-01-21T13:01:41.000Z</time>
      </trkpt>
      <trkpt lat="43.49603" lon="6.37057">
        <ele>259</ele>
        <time>2022-01-21T13:01:42.000Z</time>
      </trkpt>
      <trkpt lat="43.49603" lon="6.37058">
        <ele>259</ele>
        <time>2022-01-21T13:01:43.000Z</time>
      </trkpt>
      <trkpt lat="43.49603" lon="6.37059">
        <ele>259</ele>
        <time>2022-01-21T13:01:44.000Z</time>
      </trkpt>
      <trkpt lat="43.49603" lon="6.3706">
        <ele>258</ele>
        <time>2022-01-21T13:01:45.000Z</time>
      </trkpt>
      <trkpt lat="43.49603" lon="6.37061">
        <ele>258</ele>
        <time>2022-01-21T13:01:46.000Z</time>
      </trkpt>
      <trkpt lat="43.49603" lon="6.37061">
        <ele>258</ele>
        <time>2022-01-21T13:01:47.000Z</time>
      </trkpt>
      <trkpt lat="43.49602" lon="6.37062">
        <ele>258</ele>
        <time>2022-01-21T13:01:48.000Z</time>
      </trkpt>
      <trkpt lat="43.49603" lon="6.37062">
        <ele>258</ele>
        <time>2022-01-21T13:01:49.000Z</time>
      </trkpt>
      <trkpt lat="43.49602" lon="6.37063">
        <ele>258</ele>
        <time>2022-01-21T13:01:50.000Z</time>
      </trkpt>
      <trkpt lat="43.49602" lon="6.37064">
        <ele>258</ele>
        <time>2022-01-21T13:01:51.000Z</time>
      </trkpt>
      <trkpt lat="43.49601" lon="6.37063">
        <ele>258</ele>
        <time>2022-01-21T13:01:52.000Z</time>
      </trkpt>
      <trkpt lat="43.49601" lon="6.37063">
        <ele>258</ele>
        <time>2022-01-21T13:01:53.000Z</time>
      </trkpt>
      <trkpt lat="43.496" lon="6.37062">
        <ele>258</ele>
        <time>2022-01-21T13:01:54.000Z</time>
      </trkpt>
      <trkpt lat="43.49599" lon="6.37061">
        <ele>258</ele>
        <time>2022-01-21T13:01:55.000Z</time>
      </trkpt>
      <trkpt lat="43.49599" lon="6.3706">
        <ele>258</ele>
        <time>2022-01-21T13:01:56.000Z</time>
      </trkpt>
      <trkpt lat="43.49598" lon="6.3706">
        <ele>258</ele>
        <time>2022-01-21T13:01:57.000Z</time>
      </trkpt>
      <trkpt lat="43.49598" lon="6.37059">
        <ele>258</ele>
        <time>2022-01-21T13:01:58.000Z</time>
      </trkpt>
      <trkpt lat="43.49597" lon="6.37058">
        <ele>258</ele>
        <time>2022-01-21T13:01:59.000Z</time>
      </trkpt>
      <trkpt lat="43.49597" lon="6.37058">
        <ele>258</ele>
        <time>2022-01-21T13:02:00.000Z</time>
      </trkpt>
      <trkpt lat="43.49597" lon="6.37058">
        <ele>258</ele>
        <time>2022-01-21T13:02:01.000Z</time>
      </trkpt>
      <trkpt lat="43.49597" lon="6.37058">
        <ele>258</ele>
        <time>2022-01-21T13:02:02.000Z</time>
      </trkpt>
      <trkpt lat="43.49597" lon="6.37058">
        <ele>258</ele>
        <time>2022-01-21T13:02:03.000Z</time>
      </trkpt>
      <trkpt lat="43.49597" lon="6.37058">
        <ele>258</ele>
        <time>2022-01-21T13:02:04.000Z</time>
      </trkpt>
      <trkpt lat="43.49597" lon="6.37058">
        <ele>258</ele>
        <time>2022-01-21T13:02:05.000Z</time>
      </trkpt>
      <trkpt lat="43.49597" lon="6.37058">
        <ele>258</ele>
        <time>2022-01-21T13:02:06.000Z</time>
      </trkpt>
      <trkpt lat="43.49597" lon="6.37058">
        <ele>258</ele>
        <time>2022-01-21T13:02:07.000Z</time>
      </trkpt>
      <trkpt lat="43.49597" lon="6.37058">
        <ele>258</ele>
        <time>2022-01-21T13:02:08.000Z</time>
      </trkpt>
      <trkpt lat="43.49597" lon="6.37058">
        <ele>258</ele>
        <time>2022-01-21T13:02:09.000Z</time>
      </trkpt>
      <trkpt lat="43.49597" lon="6.37058">
        <ele>258</ele>
        <time>2022-01-21T13:02:10.000Z</time>
      </trkpt>
      <trkpt lat="43.49597" lon="6.37058">
        <ele>258</ele>
        <time>2022-01-21T13:02:11.000Z</time>
      </trkpt>
      <trkpt lat="43.49597" lon="6.37058">
        <ele>258</ele>
        <time>2022-01-21T13:02:12.000Z</time>
      </trkpt>
      <trkpt lat="43.49597" lon="6.37058">
        <ele>258</ele>
        <time>2022-01-21T13:02:13.000Z</time>
      </trkpt>
      <trkpt lat="43.49597" lon="6.37058">
        <ele>258</ele>
        <time>2022-01-21T13:02:14.000Z</time>
      </trkpt>
      <trkpt lat="43.49597" lon="6.37058">
        <ele>258</ele>
        <time>2022-01-21T13:02:15.000Z</time>
      </trkpt>
      <trkpt lat="43.49597" lon="6.37058">
        <ele>258</ele>
        <time>2022-01-21T13:02:16.000Z</time>
      </trkpt>
      <trkpt lat="43.49597" lon="6.37058">
        <ele>258</ele>
        <time>2022-01-21T13:02:17.000Z</time>
      </trkpt>
      <trkpt lat="43.49597" lon="6.37058">
        <ele>258</ele>
        <time>2022-01-21T13:02:18.000Z</time>
      </trkpt>
      <trkpt lat="43.49597" lon="6.37058">
        <ele>258</ele>
        <time>2022-01-21T13:02:19.000Z</time>
      </trkpt>
      <trkpt lat="43.49597" lon="6.37058">
        <ele>258</ele>
        <time>2022-01-21T13:02:20.000Z</time>
      </trkpt>
      <trkpt lat="43.49597" lon="6.37058">
        <ele>258</ele>
        <time>2022-01-21T13:02:21.000Z</time>
      </trkpt>
      <trkpt lat="43.49595" lon="6.37058">
        <ele>258</ele>
        <time>2022-01-21T13:02:22.000Z</time>
      </trkpt>
      <trkpt lat="43.49595" lon="6.37059">
        <ele>258</ele>
        <time>2022-01-21T13:02:23.000Z</time>
      </trkpt>
      <trkpt lat="43.49595" lon="6.37059">
        <ele>258</ele>
        <time>2022-01-21T13:02:24.000Z</time>
      </trkpt>
      <trkpt lat="43.49595" lon="6.37059">
        <ele>257</ele>
        <time>2022-01-21T13:02:25.000Z</time>
      </trkpt>
      <trkpt lat="43.49595" lon="6.37059">
        <ele>257</ele>
        <time>2022-01-21T13:02:26.000Z</time>
      </trkpt>
      <trkpt lat="43.49595" lon="6.37058">
        <ele>257</ele>
        <time>2022-01-21T13:02:27.000Z</time>
      </trkpt>
      <trkpt lat="43.49595" lon="6.37058">
        <ele>257</ele>
        <time>2022-01-21T13:02:28.000Z</time>
      </trkpt>
      <trkpt lat="43.49595" lon="6.37058">
        <ele>257</ele>
        <time>2022-01-21T13:02:29.000Z</time>
      </trkpt>
      <trkpt lat="43.49596" lon="6.37058">
        <ele>256</ele>
        <time>2022-01-21T13:02:30.000Z</time>
      </trkpt>
      <trkpt lat="43.49597" lon="6.37058">
        <ele>256</ele>
        <time>2022-01-21T13:02:31.000Z</time>
      </trkpt>
      <trkpt lat="43.49596" lon="6.37059">
        <ele>256</ele>
        <time>2022-01-21T13:02:32.000Z</time>
      </trkpt>
      <trkpt lat="43.49596" lon="6.37061">
        <ele>256</ele>
        <time>2022-01-21T13:02:33.000Z</time>
      </trkpt>
      <trkpt lat="43.49596" lon="6.37063">
        <ele>256</ele>
        <time>2022-01-21T13:02:34.000Z</time>
      </trkpt>
      <trkpt lat="43.49596" lon="6.37066">
        <ele>256</ele>
        <time>2022-01-21T13:02:35.000Z</time>
      </trkpt>
      <trkpt lat="43.49595" lon="6.37068">
        <ele>256</ele>
        <time>2022-01-21T13:02:36.000Z</time>
      </trkpt>
      <trkpt lat="43.49595" lon="6.37069">
        <ele>256</ele>
        <time>2022-01-21T13:02:37.000Z</time>
      </trkpt>
      <trkpt lat="43.49595" lon="6.3707">
        <ele>256</ele>
        <time>2022-01-21T13:02:38.000Z</time>
      </trkpt>
      <trkpt lat="43.49595" lon="6.3707">
        <ele>255</ele>
        <time>2022-01-21T13:02:39.000Z</time>
      </trkpt>
      <trkpt lat="43.49595" lon="6.37071">
        <ele>255</ele>
        <time>2022-01-21T13:02:40.000Z</time>
      </trkpt>
      <trkpt lat="43.49594" lon="6.37072">
        <ele>255</ele>
        <time>2022-01-21T13:02:41.000Z</time>
      </trkpt>
      <trkpt lat="43.49594" lon="6.37072">
        <ele>255</ele>
        <time>2022-01-21T13:02:42.000Z</time>
      </trkpt>
      <trkpt lat="43.49593" lon="6.37073">
        <ele>255</ele>
        <time>2022-01-21T13:02:43.000Z</time>
      </trkpt>
      <trkpt lat="43.49593" lon="6.37074">
        <ele>255</ele>
        <time>2022-01-21T13:02:44.000Z</time>
      </trkpt>
      <trkpt lat="43.49593" lon="6.37075">
        <ele>255</ele>
        <time>2022-01-21T13:02:45.000Z</time>
      </trkpt>
      <trkpt lat="43.49593" lon="6.37075">
        <ele>254</ele>
        <time>2022-01-21T13:02:46.000Z</time>
      </trkpt>
      <trkpt lat="43.49593" lon="6.37076">
        <ele>255</ele>
        <time>2022-01-21T13:02:47.000Z</time>
      </trkpt>
      <trkpt lat="43.49592" lon="6.37076">
        <ele>254</ele>
        <time>2022-01-21T13:02:48.000Z</time>
      </trkpt>
      <trkpt lat="43.49592" lon="6.37076">
        <ele>254</ele>
        <time>2022-01-21T13:02:49.000Z</time>
      </trkpt>
      <trkpt lat="43.49592" lon="6.37078">
        <ele>254</ele>
        <time>2022-01-21T13:02:50.000Z</time>
      </trkpt>
      <trkpt lat="43.49591" lon="6.37079">
        <ele>254</ele>
        <time>2022-01-21T13:02:51.000Z</time>
      </trkpt>
      <trkpt lat="43.49591" lon="6.37081">
        <ele>254</ele>
        <time>2022-01-21T13:02:52.000Z</time>
      </trkpt>
      <trkpt lat="43.4959" lon="6.37082">
        <ele>254</ele>
        <time>2022-01-21T13:02:53.000Z</time>
      </trkpt>
      <trkpt lat="43.4959" lon="6.37084">
        <ele>254</ele>
        <time>2022-01-21T13:02:54.000Z</time>
      </trkpt>
      <trkpt lat="43.4959" lon="6.37085">
        <ele>254</ele>
        <time>2022-01-21T13:02:55.000Z</time>
      </trkpt>
      <trkpt lat="43.49589" lon="6.37086">
        <ele>254</ele>
        <time>2022-01-21T13:02:56.000Z</time>
      </trkpt>
      <trkpt lat="43.49589" lon="6.37086">
        <ele>254</ele>
        <time>2022-01-21T13:02:57.000Z</time>
      </trkpt>
      <trkpt lat="43.49589" lon="6.37087">
        <ele>254</ele>
        <time>2022-01-21T13:02:58.000Z</time>
      </trkpt>
      <trkpt lat="43.49589" lon="6.37088">
        <ele>254</ele>
        <time>2022-01-21T13:02:59.000Z</time>
      </trkpt>
      <trkpt lat="43.49588" lon="6.37089">
        <ele>254</ele>
        <time>2022-01-21T13:03:00.000Z</time>
      </trkpt>
      <trkpt lat="43.49588" lon="6.3709">
        <ele>254</ele>
        <time>2022-01-21T13:03:01.000Z</time>
      </trkpt>
      <trkpt lat="43.49588" lon="6.37091">
        <ele>254</ele>
        <time>2022-01-21T13:03:02.000Z</time>
      </trkpt>
      <trkpt lat="43.49588" lon="6.37092">
        <ele>253</ele>
        <time>2022-01-21T13:03:03.000Z</time>
      </trkpt>
      <trkpt lat="43.49587" lon="6.37093">
        <ele>252</ele>
        <time>2022-01-21T13:03:04.000Z</time>
      </trkpt>
      <trkpt lat="43.49587" lon="6.37094">
        <ele>252</ele>
        <time>2022-01-21T13:03:05.000Z</time>
      </trkpt>
      <trkpt lat="43.49586" lon="6.37095">
        <ele>252</ele>
        <time>2022-01-21T13:03:06.000Z</time>
      </trkpt>
      <trkpt lat="43.49586" lon="6.37096">
        <ele>251</ele>
        <time>2022-01-21T13:03:07.000Z</time>
      </trkpt>
      <trkpt lat="43.49585" lon="6.37099">
        <ele>251</ele>
        <time>2022-01-21T13:03:08.000Z</time>
      </trkpt>
      <trkpt lat="43.49585" lon="6.37101">
        <ele>251</ele>
        <time>2022-01-21T13:03:09.000Z</time>
      </trkpt>
      <trkpt lat="43.49585" lon="6.37103">
        <ele>251</ele>
        <time>2022-01-21T13:03:10.000Z</time>
      </trkpt>
      <trkpt lat="43.49584" lon="6.37105">
        <ele>250</ele>
        <time>2022-01-21T13:03:11.000Z</time>
      </trkpt>
      <trkpt lat="43.49584" lon="6.37106">
        <ele>250</ele>
        <time>2022-01-21T13:03:12.000Z</time>
      </trkpt>
      <trkpt lat="43.49584" lon="6.37108">
        <ele>250</ele>
        <time>2022-01-21T13:03:13.000Z</time>
      </trkpt>
      <trkpt lat="43.49583" lon="6.3711">
        <ele>250</ele>
        <time>2022-01-21T13:03:14.000Z</time>
      </trkpt>
      <trkpt lat="43.49583" lon="6.37111">
        <ele>250</ele>
        <time>2022-01-21T13:03:15.000Z</time>
      </trkpt>
      <trkpt lat="43.49583" lon="6.37112">
        <ele>250</ele>
        <time>2022-01-21T13:03:16.000Z</time>
      </trkpt>
      <trkpt lat="43.49583" lon="6.37114">
        <ele>250</ele>
        <time>2022-01-21T13:03:17.000Z</time>
      </trkpt>
      <trkpt lat="43.49582" lon="6.37115">
        <ele>250</ele>
        <time>2022-01-21T13:03:18.000Z</time>
      </trkpt>
      <trkpt lat="43.49582" lon="6.37117">
        <ele>250</ele>
        <time>2022-01-21T13:03:19.000Z</time>
      </trkpt>
      <trkpt lat="43.49581" lon="6.37119">
        <ele>250</ele>
        <time>2022-01-21T13:03:20.000Z</time>
      </trkpt>
      <trkpt lat="43.49581" lon="6.3712">
        <ele>250</ele>
        <time>2022-01-21T13:03:21.000Z</time>
      </trkpt>
      <trkpt lat="43.49581" lon="6.37122">
        <ele>250</ele>
        <time>2022-01-21T13:03:22.000Z</time>
      </trkpt>
      <trkpt lat="43.49581" lon="6.37123">
        <ele>250</ele>
        <time>2022-01-21T13:03:23.000Z</time>
      </trkpt>
      <trkpt lat="43.49581" lon="6.37124">
        <ele>250</ele>
        <time>2022-01-21T13:03:24.000Z</time>
      </trkpt>
      <trkpt lat="43.49581" lon="6.37126">
        <ele>250</ele>
        <time>2022-01-21T13:03:25.000Z</time>
      </trkpt>
      <trkpt lat="43.49581" lon="6.37128">
        <ele>250</ele>
        <time>2022-01-21T13:03:26.000Z</time>
      </trkpt>
      <trkpt lat="43.4958" lon="6.37129">
        <ele>250</ele>
        <time>2022-01-21T13:03:27.000Z</time>
      </trkpt>
      <trkpt lat="43.4958" lon="6.37131">
        <ele>251</ele>
        <time>2022-01-21T13:03:28.000Z</time>
      </trkpt>
      <trkpt lat="43.4958" lon="6.37132">
        <ele>251</ele>
        <time>2022-01-21T13:03:29.000Z</time>
      </trkpt>
      <trkpt lat="43.4958" lon="6.37134">
        <ele>251</ele>
        <time>2022-01-21T13:03:30.000Z</time>
      </trkpt>
      <trkpt lat="43.49579" lon="6.37135">
        <ele>251</ele>
        <time>2022-01-21T13:03:31.000Z</time>
      </trkpt>
      <trkpt lat="43.49579" lon="6.37137">
        <ele>251</ele>
        <time>2022-01-21T13:03:32.000Z</time>
      </trkpt>
      <trkpt lat="43.49579" lon="6.37139">
        <ele>251</ele>
        <time>2022-01-21T13:03:33.000Z</time>
      </trkpt>
      <trkpt lat="43.49578" lon="6.3714">
        <ele>251</ele>
        <time>2022-01-21T13:03:34.000Z</time>
      </trkpt>
      <trkpt lat="43.49578" lon="6.37141">
        <ele>252</ele>
        <time>2022-01-21T13:03:35.000Z</time>
      </trkpt>
      <trkpt lat="43.49578" lon="6.37143">
        <ele>253</ele>
        <time>2022-01-21T13:03:36.000Z</time>
      </trkpt>
      <trkpt lat="43.49577" lon="6.37145">
        <ele>253</ele>
        <time>2022-01-21T13:03:37.000Z</time>
      </trkpt>
      <trkpt lat="43.49577" lon="6.37146">
        <ele>253</ele>
        <time>2022-01-21T13:03:38.000Z</time>
      </trkpt>
      <trkpt lat="43.49577" lon="6.37148">
        <ele>254</ele>
        <time>2022-01-21T13:03:39.000Z</time>
      </trkpt>
      <trkpt lat="43.49577" lon="6.37149">
        <ele>254</ele>
        <time>2022-01-21T13:03:40.000Z</time>
      </trkpt>
      <trkpt lat="43.49576" lon="6.3715">
        <ele>254</ele>
        <time>2022-01-21T13:03:41.000Z</time>
      </trkpt>
      <trkpt lat="43.49576" lon="6.37151">
        <ele>254</ele>
        <time>2022-01-21T13:03:42.000Z</time>
      </trkpt>
      <trkpt lat="43.49576" lon="6.37153">
        <ele>254</ele>
        <time>2022-01-21T13:03:43.000Z</time>
      </trkpt>
      <trkpt lat="43.49575" lon="6.37154">
        <ele>255</ele>
        <time>2022-01-21T13:03:44.000Z</time>
      </trkpt>
      <trkpt lat="43.49575" lon="6.37155">
        <ele>255</ele>
        <time>2022-01-21T13:03:45.000Z</time>
      </trkpt>
      <trkpt lat="43.49575" lon="6.37156">
        <ele>255</ele>
        <time>2022-01-21T13:03:46.000Z</time>
      </trkpt>
      <trkpt lat="43.49574" lon="6.37157">
        <ele>256</ele>
        <time>2022-01-21T13:03:47.000Z</time>
      </trkpt>
      <trkpt lat="43.49574" lon="6.37159">
        <ele>256</ele>
        <time>2022-01-21T13:03:48.000Z</time>
      </trkpt>
      <trkpt lat="43.49573" lon="6.3716">
        <ele>256</ele>
        <time>2022-01-21T13:03:49.000Z</time>
      </trkpt>
      <trkpt lat="43.49573" lon="6.37161">
        <ele>256</ele>
        <time>2022-01-21T13:03:50.000Z</time>
      </trkpt>
      <trkpt lat="43.49573" lon="6.37162">
        <ele>256</ele>
        <time>2022-01-21T13:03:51.000Z</time>
      </trkpt>
      <trkpt lat="43.49573" lon="6.37163">
        <ele>256</ele>
        <time>2022-01-21T13:03:52.000Z</time>
      </trkpt>
      <trkpt lat="43.49573" lon="6.37164">
        <ele>257</ele>
        <time>2022-01-21T13:03:53.000Z</time>
      </trkpt>
      <trkpt lat="43.49573" lon="6.37166">
        <ele>257</ele>
        <time>2022-01-21T13:03:54.000Z</time>
      </trkpt>
      <trkpt lat="43.49573" lon="6.37167">
        <ele>257</ele>
        <time>2022-01-21T13:03:55.000Z</time>
      </trkpt>
      <trkpt lat="43.49573" lon="6.37168">
        <ele>257</ele>
        <time>2022-01-21T13:03:56.000Z</time>
      </trkpt>
      <trkpt lat="43.49572" lon="6.37169">
        <ele>258</ele>
        <time>2022-01-21T13:03:57.000Z</time>
      </trkpt>
      <trkpt lat="43.49571" lon="6.3717">
        <ele>258</ele>
        <time>2022-01-21T13:03:58.000Z</time>
      </trkpt>
      <trkpt lat="43.49571" lon="6.37171">
        <ele>258</ele>
        <time>2022-01-21T13:03:59.000Z</time>
      </trkpt>
      <trkpt lat="43.4957" lon="6.37171">
        <ele>258</ele>
        <time>2022-01-21T13:04:00.000Z</time>
      </trkpt>
      <trkpt lat="43.49569" lon="6.37172">
        <ele>258</ele>
        <time>2022-01-21T13:04:01.000Z</time>
      </trkpt>
      <trkpt lat="43.49569" lon="6.37174">
        <ele>258</ele>
        <time>2022-01-21T13:04:02.000Z</time>
      </trkpt>
      <trkpt lat="43.49568" lon="6.37175">
        <ele>258</ele>
        <time>2022-01-21T13:04:03.000Z</time>
      </trkpt>
      <trkpt lat="43.49568" lon="6.37176">
        <ele>258</ele>
        <time>2022-01-21T13:04:04.000Z</time>
      </trkpt>
      <trkpt lat="43.49568" lon="6.37177">
        <ele>258</ele>
        <time>2022-01-21T13:04:05.000Z</time>
      </trkpt>
      <trkpt lat="43.49568" lon="6.37179">
        <ele>258</ele>
        <time>2022-01-21T13:04:06.000Z</time>
      </trkpt>
      <trkpt lat="43.49568" lon="6.3718">
        <ele>258</ele>
        <time>2022-01-21T13:04:07.000Z</time>
      </trkpt>
      <trkpt lat="43.49568" lon="6.37181">
        <ele>258</ele>
        <time>2022-01-21T13:04:08.000Z</time>
      </trkpt>
      <trkpt lat="43.49568" lon="6.37182">
        <ele>258</ele>
        <time>2022-01-21T13:04:09.000Z</time>
      </trkpt>
      <trkpt lat="43.49568" lon="6.37184">
        <ele>258</ele>
        <time>2022-01-21T13:04:10.000Z</time>
      </trkpt>
      <trkpt lat="43.49568" lon="6.37185">
        <ele>258</ele>
        <time>2022-01-21T13:04:11.000Z</time>
      </trkpt>
      <trkpt lat="43.49568" lon="6.37186">
        <ele>258</ele>
        <time>2022-01-21T13:04:12.000Z</time>
      </trkpt>
      <trkpt lat="43.49568" lon="6.37187">
        <ele>258</ele>
        <time>2022-01-21T13:04:13.000Z</time>
      </trkpt>
      <trkpt lat="43.49569" lon="6.37189">
        <ele>258</ele>
        <time>2022-01-21T13:04:14.000Z</time>
      </trkpt>
      <trkpt lat="43.49569" lon="6.3719">
        <ele>258</ele>
        <time>2022-01-21T13:04:15.000Z</time>
      </trkpt>
      <trkpt lat="43.49569" lon="6.37191">
        <ele>258</ele>
        <time>2022-01-21T13:04:16.000Z</time>
      </trkpt>
      <trkpt lat="43.49569" lon="6.37192">
        <ele>259</ele>
        <time>2022-01-21T13:04:17.000Z</time>
      </trkpt>
      <trkpt lat="43.49569" lon="6.37193">
        <ele>259</ele>
        <time>2022-01-21T13:04:18.000Z</time>
      </trkpt>
      <trkpt lat="43.4957" lon="6.37194">
        <ele>259</ele>
        <time>2022-01-21T13:04:19.000Z</time>
      </trkpt>
      <trkpt lat="43.4957" lon="6.37195">
        <ele>259</ele>
        <time>2022-01-21T13:04:20.000Z</time>
      </trkpt>
      <trkpt lat="43.4957" lon="6.37196">
        <ele>259</ele>
        <time>2022-01-21T13:04:21.000Z</time>
      </trkpt>
      <trkpt lat="43.4957" lon="6.37198">
        <ele>260</ele>
        <time>2022-01-21T13:04:22.000Z</time>
      </trkpt>
      <trkpt lat="43.4957" lon="6.37199">
        <ele>260</ele>
        <time>2022-01-21T13:04:23.000Z</time>
      </trkpt>
      <trkpt lat="43.49571" lon="6.37201">
        <ele>260</ele>
        <time>2022-01-21T13:04:24.000Z</time>
      </trkpt>
      <trkpt lat="43.49571" lon="6.37202">
        <ele>260</ele>
        <time>2022-01-21T13:04:25.000Z</time>
      </trkpt>
      <trkpt lat="43.49572" lon="6.37203">
        <ele>260</ele>
        <time>2022-01-21T13:04:26.000Z</time>
      </trkpt>
      <trkpt lat="43.49572" lon="6.37204">
        <ele>260</ele>
        <time>2022-01-21T13:04:27.000Z</time>
      </trkpt>
      <trkpt lat="43.49572" lon="6.37205">
        <ele>260</ele>
        <time>2022-01-21T13:04:28.000Z</time>
      </trkpt>
      <trkpt lat="43.49573" lon="6.37207">
        <ele>260</ele>
        <time>2022-01-21T13:04:29.000Z</time>
      </trkpt>
      <trkpt lat="43.49573" lon="6.37208">
        <ele>260</ele>
        <time>2022-01-21T13:04:30.000Z</time>
      </trkpt>
      <trkpt lat="43.49573" lon="6.37209">
        <ele>259</ele>
        <time>2022-01-21T13:04:31.000Z</time>
      </trkpt>
      <trkpt lat="43.49574" lon="6.3721">
        <ele>259</ele>
        <time>2022-01-21T13:04:32.000Z</time>
      </trkpt>
      <trkpt lat="43.49574" lon="6.37212">
        <ele>259</ele>
        <time>2022-01-21T13:04:33.000Z</time>
      </trkpt>
      <trkpt lat="43.49574" lon="6.37213">
        <ele>259</ele>
        <time>2022-01-21T13:04:34.000Z</time>
      </trkpt>
      <trkpt lat="43.49575" lon="6.37214">
        <ele>259</ele>
        <time>2022-01-21T13:04:35.000Z</time>
      </trkpt>
      <trkpt lat="43.49575" lon="6.37215">
        <ele>259</ele>
        <time>2022-01-21T13:04:36.000Z</time>
      </trkpt>
      <trkpt lat="43.49576" lon="6.37216">
        <ele>259</ele>
        <time>2022-01-21T13:04:37.000Z</time>
      </trkpt>
      <trkpt lat="43.49576" lon="6.37217">
        <ele>259</ele>
        <time>2022-01-21T13:04:38.000Z</time>
      </trkpt>
      <trkpt lat="43.49577" lon="6.37218">
        <ele>259</ele>
        <time>2022-01-21T13:04:39.000Z</time>
      </trkpt>
      <trkpt lat="43.49577" lon="6.3722">
        <ele>259</ele>
        <time>2022-01-21T13:04:40.000Z</time>
      </trkpt>
      <trkpt lat="43.49578" lon="6.37221">
        <ele>259</ele>
        <time>2022-01-21T13:04:41.000Z</time>
      </trkpt>
      <trkpt lat="43.49578" lon="6.37222">
        <ele>259</ele>
        <time>2022-01-21T13:04:42.000Z</time>
      </trkpt>
      <trkpt lat="43.49579" lon="6.37223">
        <ele>259</ele>
        <time>2022-01-21T13:04:43.000Z</time>
      </trkpt>
      <trkpt lat="43.49579" lon="6.37224">
        <ele>259</ele>
        <time>2022-01-21T13:04:44.000Z</time>
      </trkpt>
      <trkpt lat="43.4958" lon="6.37225">
        <ele>260</ele>
        <time>2022-01-21T13:04:45.000Z</time>
      </trkpt>
      <trkpt lat="43.4958" lon="6.37227">
        <ele>260</ele>
        <time>2022-01-21T13:04:46.000Z</time>
      </trkpt>
      <trkpt lat="43.49581" lon="6.37228">
        <ele>260</ele>
        <time>2022-01-21T13:04:47.000Z</time>
      </trkpt>
      <trkpt lat="43.49581" lon="6.37229">
        <ele>260</ele>
        <time>2022-01-21T13:04:48.000Z</time>
      </trkpt>
      <trkpt lat="43.49582" lon="6.37231">
        <ele>261</ele>
        <time>2022-01-21T13:04:49.000Z</time>
      </trkpt>
      <trkpt lat="43.49582" lon="6.37232">
        <ele>261</ele>
        <time>2022-01-21T13:04:50.000Z</time>
      </trkpt>
      <trkpt lat="43.49583" lon="6.37233">
        <ele>261</ele>
        <time>2022-01-21T13:04:51.000Z</time>
      </trkpt>
      <trkpt lat="43.49583" lon="6.37234">
        <ele>261</ele>
        <time>2022-01-21T13:04:52.000Z</time>
      </trkpt>
      <trkpt lat="43.49584" lon="6.37235">
        <ele>261</ele>
        <time>2022-01-21T13:04:53.000Z</time>
      </trkpt>
      <trkpt lat="43.49584" lon="6.37236">
        <ele>262</ele>
        <time>2022-01-21T13:04:54.000Z</time>
      </trkpt>
      <trkpt lat="43.49584" lon="6.37238">
        <ele>262</ele>
        <time>2022-01-21T13:04:55.000Z</time>
      </trkpt>
      <trkpt lat="43.49585" lon="6.37239">
        <ele>263</ele>
        <time>2022-01-21T13:04:56.000Z</time>
      </trkpt>
      <trkpt lat="43.49585" lon="6.3724">
        <ele>263</ele>
        <time>2022-01-21T13:04:57.000Z</time>
      </trkpt>
      <trkpt lat="43.49586" lon="6.37241">
        <ele>264</ele>
        <time>2022-01-21T13:04:58.000Z</time>
      </trkpt>
      <trkpt lat="43.49586" lon="6.37242">
        <ele>264</ele>
        <time>2022-01-21T13:04:59.000Z</time>
      </trkpt>
      <trkpt lat="43.49587" lon="6.37244">
        <ele>264</ele>
        <time>2022-01-21T13:05:00.000Z</time>
      </trkpt>
      <trkpt lat="43.49587" lon="6.37245">
        <ele>264</ele>
        <time>2022-01-21T13:05:01.000Z</time>
      </trkpt>
      <trkpt lat="43.49587" lon="6.37246">
        <ele>264</ele>
        <time>2022-01-21T13:05:02.000Z</time>
      </trkpt>
      <trkpt lat="43.49588" lon="6.37247">
        <ele>264</ele>
        <time>2022-01-21T13:05:03.000Z</time>
      </trkpt>
      <trkpt lat="43.49588" lon="6.37248">
        <ele>264</ele>
        <time>2022-01-21T13:05:04.000Z</time>
      </trkpt>
      <trkpt lat="43.49588" lon="6.37249">
        <ele>264</ele>
        <time>2022-01-21T13:05:05.000Z</time>
      </trkpt>
      <trkpt lat="43.49589" lon="6.3725">
        <ele>264</ele>
        <time>2022-01-21T13:05:06.000Z</time>
      </trkpt>
      <trkpt lat="43.49589" lon="6.37252">
        <ele>265</ele>
        <time>2022-01-21T13:05:07.000Z</time>
      </trkpt>
      <trkpt lat="43.4959" lon="6.37253">
        <ele>265</ele>
        <time>2022-01-21T13:05:08.000Z</time>
      </trkpt>
      <trkpt lat="43.4959" lon="6.37254">
        <ele>265</ele>
        <time>2022-01-21T13:05:09.000Z</time>
      </trkpt>
      <trkpt lat="43.49591" lon="6.37256">
        <ele>265</ele>
        <time>2022-01-21T13:05:10.000Z</time>
      </trkpt>
      <trkpt lat="43.49591" lon="6.37257">
        <ele>265</ele>
        <time>2022-01-21T13:05:11.000Z</time>
      </trkpt>
      <trkpt lat="43.49592" lon="6.37258">
        <ele>265</ele>
        <time>2022-01-21T13:05:12.000Z</time>
      </trkpt>
      <trkpt lat="43.49592" lon="6.37259">
        <ele>265</ele>
        <time>2022-01-21T13:05:13.000Z</time>
      </trkpt>
      <trkpt lat="43.49593" lon="6.3726">
        <ele>265</ele>
        <time>2022-01-21T13:05:14.000Z</time>
      </trkpt>
      <trkpt lat="43.49594" lon="6.37261">
        <ele>266</ele>
        <time>2022-01-21T13:05:15.000Z</time>
      </trkpt>
      <trkpt lat="43.49594" lon="6.37262">
        <ele>266</ele>
        <time>2022-01-21T13:05:16.000Z</time>
      </trkpt>
      <trkpt lat="43.49595" lon="6.37263">
        <ele>266</ele>
        <time>2022-01-21T13:05:17.000Z</time>
      </trkpt>
      <trkpt lat="43.49595" lon="6.37264">
        <ele>266</ele>
        <time>2022-01-21T13:05:18.000Z</time>
      </trkpt>
      <trkpt lat="43.49595" lon="6.37266">
        <ele>267</ele>
        <time>2022-01-21T13:05:19.000Z</time>
      </trkpt>
      <trkpt lat="43.49596" lon="6.37267">
        <ele>268</ele>
        <time>2022-01-21T13:05:20.000Z</time>
      </trkpt>
      <trkpt lat="43.49596" lon="6.37268">
        <ele>268</ele>
        <time>2022-01-21T13:05:21.000Z</time>
      </trkpt>
      <trkpt lat="43.49596" lon="6.37269">
        <ele>268</ele>
        <time>2022-01-21T13:05:22.000Z</time>
      </trkpt>
      <trkpt lat="43.49596" lon="6.3727">
        <ele>268</ele>
        <time>2022-01-21T13:05:23.000Z</time>
      </trkpt>
      <trkpt lat="43.49597" lon="6.37271">
        <ele>268</ele>
        <time>2022-01-21T13:05:24.000Z</time>
      </trkpt>
      <trkpt lat="43.49597" lon="6.37272">
        <ele>268</ele>
        <time>2022-01-21T13:05:25.000Z</time>
      </trkpt>
      <trkpt lat="43.49598" lon="6.37273">
        <ele>269</ele>
        <time>2022-01-21T13:05:26.000Z</time>
      </trkpt>
      <trkpt lat="43.49598" lon="6.37274">
        <ele>269</ele>
        <time>2022-01-21T13:05:27.000Z</time>
      </trkpt>
      <trkpt lat="43.49599" lon="6.37276">
        <ele>269</ele>
        <time>2022-01-21T13:05:28.000Z</time>
      </trkpt>
      <trkpt lat="43.49599" lon="6.37277">
        <ele>269</ele>
        <time>2022-01-21T13:05:29.000Z</time>
      </trkpt>
      <trkpt lat="43.496" lon="6.37278">
        <ele>270</ele>
        <time>2022-01-21T13:05:30.000Z</time>
      </trkpt>
      <trkpt lat="43.496" lon="6.37279">
        <ele>270</ele>
        <time>2022-01-21T13:05:31.000Z</time>
      </trkpt>
      <trkpt lat="43.49601" lon="6.3728">
        <ele>270</ele>
        <time>2022-01-21T13:05:32.000Z</time>
      </trkpt>
      <trkpt lat="43.49601" lon="6.37281">
        <ele>270</ele>
        <time>2022-01-21T13:05:33.000Z</time>
      </trkpt>
      <trkpt lat="43.49602" lon="6.37282">
        <ele>270</ele>
        <time>2022-01-21T13:05:34.000Z</time>
      </trkpt>
      <trkpt lat="43.49603" lon="6.37283">
        <ele>270</ele>
        <time>2022-01-21T13:05:35.000Z</time>
      </trkpt>
      <trkpt lat="43.49603" lon="6.37284">
        <ele>270</ele>
        <time>2022-01-21T13:05:36.000Z</time>
      </trkpt>
      <trkpt lat="43.49604" lon="6.37285">
        <ele>270</ele>
        <time>2022-01-21T13:05:37.000Z</time>
      </trkpt>
      <trkpt lat="43.49604" lon="6.37286">
        <ele>270</ele>
        <time>2022-01-21T13:05:38.000Z</time>
      </trkpt>
      <trkpt lat="43.49605" lon="6.37287">
        <ele>270</ele>
        <time>2022-01-21T13:05:39.000Z</time>
      </trkpt>
      <trkpt lat="43.49605" lon="6.37288">
        <ele>270</ele>
        <time>2022-01-21T13:05:40.000Z</time>
      </trkpt>
      <trkpt lat="43.49606" lon="6.37289">
        <ele>270</ele>
        <time>2022-01-21T13:05:41.000Z</time>
      </trkpt>
      <trkpt lat="43.49606" lon="6.3729">
        <ele>270</ele>
        <time>2022-01-21T13:05:42.000Z</time>
      </trkpt>
      <trkpt lat="43.49607" lon="6.37292">
        <ele>271</ele>
        <time>2022-01-21T13:05:43.000Z</time>
      </trkpt>
      <trkpt lat="43.49607" lon="6.37293">
        <ele>271</ele>
        <time>2022-01-21T13:05:44.000Z</time>
      </trkpt>
      <trkpt lat="43.49608" lon="6.37294">
        <ele>271</ele>
        <time>2022-01-21T13:05:45.000Z</time>
      </trkpt>
      <trkpt lat="43.49608" lon="6.37295">
        <ele>272</ele>
        <time>2022-01-21T13:05:46.000Z</time>
      </trkpt>
      <trkpt lat="43.49609" lon="6.37296">
        <ele>272</ele>
        <time>2022-01-21T13:05:47.000Z</time>
      </trkpt>
      <trkpt lat="43.49609" lon="6.37298">
        <ele>272</ele>
        <time>2022-01-21T13:05:48.000Z</time>
      </trkpt>
      <trkpt lat="43.49609" lon="6.37299">
        <ele>272</ele>
        <time>2022-01-21T13:05:49.000Z</time>
      </trkpt>
      <trkpt lat="43.49609" lon="6.373">
        <ele>272</ele>
        <time>2022-01-21T13:05:50.000Z</time>
      </trkpt>
      <trkpt lat="43.4961" lon="6.37301">
        <ele>272</ele>
        <time>2022-01-21T13:05:51.000Z</time>
      </trkpt>
      <trkpt lat="43.4961" lon="6.37302">
        <ele>272</ele>
        <time>2022-01-21T13:05:52.000Z</time>
      </trkpt>
      <trkpt lat="43.4961" lon="6.37303">
        <ele>272</ele>
        <time>2022-01-21T13:05:53.000Z</time>
      </trkpt>
      <trkpt lat="43.4961" lon="6.37305">
        <ele>272</ele>
        <time>2022-01-21T13:05:54.000Z</time>
      </trkpt>
      <trkpt lat="43.4961" lon="6.37306">
        <ele>273</ele>
        <time>2022-01-21T13:05:55.000Z</time>
      </trkpt>
      <trkpt lat="43.49611" lon="6.37307">
        <ele>273</ele>
        <time>2022-01-21T13:05:56.000Z</time>
      </trkpt>
      <trkpt lat="43.49611" lon="6.37308">
        <ele>273</ele>
        <time>2022-01-21T13:05:57.000Z</time>
      </trkpt>
      <trkpt lat="43.49611" lon="6.37309">
        <ele>273</ele>
        <time>2022-01-21T13:05:58.000Z</time>
      </trkpt>
      <trkpt lat="43.49611" lon="6.3731">
        <ele>273</ele>
        <time>2022-01-21T13:05:59.000Z</time>
      </trkpt>
      <trkpt lat="43.49611" lon="6.37312">
        <ele>274</ele>
        <time>2022-01-21T13:06:00.000Z</time>
      </trkpt>
      <trkpt lat="43.49612" lon="6.37313">
        <ele>274</ele>
        <time>2022-01-21T13:06:01.000Z</time>
      </trkpt>
      <trkpt lat="43.49612" lon="6.37314">
        <ele>274</ele>
        <time>2022-01-21T13:06:02.000Z</time>
      </trkpt>
      <trkpt lat="43.49612" lon="6.37316">
        <ele>274</ele>
        <time>2022-01-21T13:06:03.000Z</time>
      </trkpt>
      <trkpt lat="43.49613" lon="6.37317">
        <ele>275</ele>
        <time>2022-01-21T13:06:04.000Z</time>
      </trkpt>
      <trkpt lat="43.49613" lon="6.37318">
        <ele>275</ele>
        <time>2022-01-21T13:06:05.000Z</time>
      </trkpt>
      <trkpt lat="43.49613" lon="6.3732">
        <ele>275</ele>
        <time>2022-01-21T13:06:06.000Z</time>
      </trkpt>
      <trkpt lat="43.49613" lon="6.37322">
        <ele>275</ele>
        <time>2022-01-21T13:06:07.000Z</time>
      </trkpt>
      <trkpt lat="43.49613" lon="6.37323">
        <ele>275</ele>
        <time>2022-01-21T13:06:08.000Z</time>
      </trkpt>
      <trkpt lat="43.49613" lon="6.37324">
        <ele>275</ele>
        <time>2022-01-21T13:06:09.000Z</time>
      </trkpt>
      <trkpt lat="43.49613" lon="6.37325">
        <ele>275</ele>
        <time>2022-01-21T13:06:10.000Z</time>
      </trkpt>
      <trkpt lat="43.49613" lon="6.37327">
        <ele>275</ele>
        <time>2022-01-21T13:06:11.000Z</time>
      </trkpt>
      <trkpt lat="43.49613" lon="6.37328">
        <ele>275</ele>
        <time>2022-01-21T13:06:12.000Z</time>
      </trkpt>
      <trkpt lat="43.49613" lon="6.37329">
        <ele>275</ele>
        <time>2022-01-21T13:06:13.000Z</time>
      </trkpt>
      <trkpt lat="43.49613" lon="6.3733">
        <ele>275</ele>
        <time>2022-01-21T13:06:14.000Z</time>
      </trkpt>
      <trkpt lat="43.49613" lon="6.37332">
        <ele>275</ele>
        <time>2022-01-21T13:06:15.000Z</time>
      </trkpt>
      <trkpt lat="43.49613" lon="6.37333">
        <ele>275</ele>
        <time>2022-01-21T13:06:16.000Z</time>
      </trkpt>
      <trkpt lat="43.49612" lon="6.37334">
        <ele>275</ele>
        <time>2022-01-21T13:06:17.000Z</time>
      </trkpt>
      <trkpt lat="43.49612" lon="6.37336">
        <ele>275</ele>
        <time>2022-01-21T13:06:18.000Z</time>
      </trkpt>
      <trkpt lat="43.49612" lon="6.37337">
        <ele>275</ele>
        <time>2022-01-21T13:06:19.000Z</time>
      </trkpt>
      <trkpt lat="43.49612" lon="6.37338">
        <ele>275</ele>
        <time>2022-01-21T13:06:20.000Z</time>
      </trkpt>
      <trkpt lat="43.49612" lon="6.37339">
        <ele>275</ele>
        <time>2022-01-21T13:06:21.000Z</time>
      </trkpt>
      <trkpt lat="43.49612" lon="6.3734">
        <ele>275</ele>
        <time>2022-01-21T13:06:22.000Z</time>
      </trkpt>
      <trkpt lat="43.49612" lon="6.37341">
        <ele>275</ele>
        <time>2022-01-21T13:06:23.000Z</time>
      </trkpt>
      <trkpt lat="43.49612" lon="6.37342">
        <ele>275</ele>
        <time>2022-01-21T13:06:24.000Z</time>
      </trkpt>
      <trkpt lat="43.49612" lon="6.37343">
        <ele>275</ele>
        <time>2022-01-21T13:06:25.000Z</time>
      </trkpt>
      <trkpt lat="43.49612" lon="6.37345">
        <ele>274</ele>
        <time>2022-01-21T13:06:26.000Z</time>
      </trkpt>
      <trkpt lat="43.49612" lon="6.37346">
        <ele>274</ele>
        <time>2022-01-21T13:06:27.000Z</time>
      </trkpt>
      <trkpt lat="43.49612" lon="6.37347">
        <ele>274</ele>
        <time>2022-01-21T13:06:28.000Z</time>
      </trkpt>
      <trkpt lat="43.49612" lon="6.37348">
        <ele>274</ele>
        <time>2022-01-21T13:06:29.000Z</time>
      </trkpt>
      <trkpt lat="43.49613" lon="6.3735">
        <ele>274</ele>
        <time>2022-01-21T13:06:30.000Z</time>
      </trkpt>
      <trkpt lat="43.49613" lon="6.37351">
        <ele>274</ele>
        <time>2022-01-21T13:06:31.000Z</time>
      </trkpt>
      <trkpt lat="43.49612" lon="6.37353">
        <ele>274</ele>
        <time>2022-01-21T13:06:32.000Z</time>
      </trkpt>
      <trkpt lat="43.49612" lon="6.37354">
        <ele>274</ele>
        <time>2022-01-21T13:06:33.000Z</time>
      </trkpt>
      <trkpt lat="43.49612" lon="6.37355">
        <ele>274</ele>
        <time>2022-01-21T13:06:34.000Z</time>
      </trkpt>
      <trkpt lat="43.49613" lon="6.37357">
        <ele>274</ele>
        <time>2022-01-21T13:06:35.000Z</time>
      </trkpt>
      <trkpt lat="43.49613" lon="6.37358">
        <ele>274</ele>
        <time>2022-01-21T13:06:36.000Z</time>
      </trkpt>
      <trkpt lat="43.49613" lon="6.3736">
        <ele>274</ele>
        <time>2022-01-21T13:06:37.000Z</time>
      </trkpt>
      <trkpt lat="43.49613" lon="6.37361">
        <ele>274</ele>
        <time>2022-01-21T13:06:38.000Z</time>
      </trkpt>
      <trkpt lat="43.49613" lon="6.37363">
        <ele>274</ele>
        <time>2022-01-21T13:06:39.000Z</time>
      </trkpt>
      <trkpt lat="43.49613" lon="6.37364">
        <ele>274</ele>
        <time>2022-01-21T13:06:40.000Z</time>
      </trkpt>
      <trkpt lat="43.49613" lon="6.37366">
        <ele>274</ele>
        <time>2022-01-21T13:06:41.000Z</time>
      </trkpt>
      <trkpt lat="43.49613" lon="6.37367">
        <ele>274</ele>
        <time>2022-01-21T13:06:42.000Z</time>
      </trkpt>
      <trkpt lat="43.49613" lon="6.37369">
        <ele>274</ele>
        <time>2022-01-21T13:06:43.000Z</time>
      </trkpt>
      <trkpt lat="43.49613" lon="6.3737">
        <ele>274</ele>
        <time>2022-01-21T13:06:44.000Z</time>
      </trkpt>
      <trkpt lat="43.49613" lon="6.37372">
        <ele>274</ele>
        <time>2022-01-21T13:06:45.000Z</time>
      </trkpt>
      <trkpt lat="43.49614" lon="6.37373">
        <ele>273</ele>
        <time>2022-01-21T13:06:46.000Z</time>
      </trkpt>
      <trkpt lat="43.49614" lon="6.37374">
        <ele>273</ele>
        <time>2022-01-21T13:06:47.000Z</time>
      </trkpt>
      <trkpt lat="43.49614" lon="6.37376">
        <ele>273</ele>
        <time>2022-01-21T13:06:48.000Z</time>
      </trkpt>
      <trkpt lat="43.49614" lon="6.37377">
        <ele>273</ele>
        <time>2022-01-21T13:06:49.000Z</time>
      </trkpt>
      <trkpt lat="43.49615" lon="6.37378">
        <ele>272</ele>
        <time>2022-01-21T13:06:50.000Z</time>
      </trkpt>
      <trkpt lat="43.49615" lon="6.3738">
        <ele>272</ele>
        <time>2022-01-21T13:06:51.000Z</time>
      </trkpt>
      <trkpt lat="43.49616" lon="6.37381">
        <ele>272</ele>
        <time>2022-01-21T13:06:52.000Z</time>
      </trkpt>
      <trkpt lat="43.49617" lon="6.37382">
        <ele>272</ele>
        <time>2022-01-21T13:06:53.000Z</time>
      </trkpt>
      <trkpt lat="43.49618" lon="6.37383">
        <ele>271</ele>
        <time>2022-01-21T13:06:54.000Z</time>
      </trkpt>
      <trkpt lat="43.49618" lon="6.37383">
        <ele>271</ele>
        <time>2022-01-21T13:06:55.000Z</time>
      </trkpt>
      <trkpt lat="43.49619" lon="6.37384">
        <ele>271</ele>
        <time>2022-01-21T13:06:56.000Z</time>
      </trkpt>
      <trkpt lat="43.49619" lon="6.37385">
        <ele>270</ele>
        <time>2022-01-21T13:06:57.000Z</time>
      </trkpt>
      <trkpt lat="43.4962" lon="6.37385">
        <ele>270</ele>
        <time>2022-01-21T13:06:58.000Z</time>
      </trkpt>
      <trkpt lat="43.49621" lon="6.37386">
        <ele>270</ele>
        <time>2022-01-21T13:06:59.000Z</time>
      </trkpt>
      <trkpt lat="43.49621" lon="6.37386">
        <ele>270</ele>
        <time>2022-01-21T13:07:00.000Z</time>
      </trkpt>
      <trkpt lat="43.49622" lon="6.37387">
        <ele>270</ele>
        <time>2022-01-21T13:07:01.000Z</time>
      </trkpt>
      <trkpt lat="43.49623" lon="6.37388">
        <ele>270</ele>
        <time>2022-01-21T13:07:02.000Z</time>
      </trkpt>
      <trkpt lat="43.49623" lon="6.37389">
        <ele>270</ele>
        <time>2022-01-21T13:07:03.000Z</time>
      </trkpt>
      <trkpt lat="43.49624" lon="6.3739">
        <ele>270</ele>
        <time>2022-01-21T13:07:04.000Z</time>
      </trkpt>
      <trkpt lat="43.49624" lon="6.37391">
        <ele>270</ele>
        <time>2022-01-21T13:07:05.000Z</time>
      </trkpt>
      <trkpt lat="43.49625" lon="6.37392">
        <ele>270</ele>
        <time>2022-01-21T13:07:06.000Z</time>
      </trkpt>
      <trkpt lat="43.49626" lon="6.37393">
        <ele>270</ele>
        <time>2022-01-21T13:07:07.000Z</time>
      </trkpt>
      <trkpt lat="43.49626" lon="6.37394">
        <ele>270</ele>
        <time>2022-01-21T13:07:08.000Z</time>
      </trkpt>
      <trkpt lat="43.49627" lon="6.37395">
        <ele>270</ele>
        <time>2022-01-21T13:07:09.000Z</time>
      </trkpt>
      <trkpt lat="43.49628" lon="6.37396">
        <ele>270</ele>
        <time>2022-01-21T13:07:10.000Z</time>
      </trkpt>
      <trkpt lat="43.49628" lon="6.37397">
        <ele>270</ele>
        <time>2022-01-21T13:07:11.000Z</time>
      </trkpt>
      <trkpt lat="43.49629" lon="6.37399">
        <ele>271</ele>
        <time>2022-01-21T13:07:12.000Z</time>
      </trkpt>
      <trkpt lat="43.4963" lon="6.374">
        <ele>271</ele>
        <time>2022-01-21T13:07:13.000Z</time>
      </trkpt>
      <trkpt lat="43.4963" lon="6.374">
        <ele>271</ele>
        <time>2022-01-21T13:07:14.000Z</time>
      </trkpt>
      <trkpt lat="43.49631" lon="6.37402">
        <ele>271</ele>
        <time>2022-01-21T13:07:15.000Z</time>
      </trkpt>
      <trkpt lat="43.49632" lon="6.37403">
        <ele>271</ele>
        <time>2022-01-21T13:07:16.000Z</time>
      </trkpt>
      <trkpt lat="43.49632" lon="6.37404">
        <ele>271</ele>
        <time>2022-01-21T13:07:17.000Z</time>
      </trkpt>
      <trkpt lat="43.49633" lon="6.37405">
        <ele>271</ele>
        <time>2022-01-21T13:07:18.000Z</time>
      </trkpt>
      <trkpt lat="43.49633" lon="6.37406">
        <ele>273</ele>
        <time>2022-01-21T13:07:19.000Z</time>
      </trkpt>
      <trkpt lat="43.49634" lon="6.37407">
        <ele>273</ele>
        <time>2022-01-21T13:07:20.000Z</time>
      </trkpt>
      <trkpt lat="43.49634" lon="6.37408">
        <ele>273</ele>
        <time>2022-01-21T13:07:21.000Z</time>
      </trkpt>
      <trkpt lat="43.49635" lon="6.37409">
        <ele>274</ele>
        <time>2022-01-21T13:07:22.000Z</time>
      </trkpt>
      <trkpt lat="43.49636" lon="6.3741">
        <ele>274</ele>
        <time>2022-01-21T13:07:23.000Z</time>
      </trkpt>
      <trkpt lat="43.49636" lon="6.37411">
        <ele>274</ele>
        <time>2022-01-21T13:07:24.000Z</time>
      </trkpt>
      <trkpt lat="43.49637" lon="6.37411">
        <ele>274</ele>
        <time>2022-01-21T13:07:25.000Z</time>
      </trkpt>
      <trkpt lat="43.49638" lon="6.37412">
        <ele>274</ele>
        <time>2022-01-21T13:07:26.000Z</time>
      </trkpt>
      <trkpt lat="43.49638" lon="6.37412">
        <ele>274</ele>
        <time>2022-01-21T13:07:27.000Z</time>
      </trkpt>
      <trkpt lat="43.49639" lon="6.37413">
        <ele>274</ele>
        <time>2022-01-21T13:07:28.000Z</time>
      </trkpt>
      <trkpt lat="43.49639" lon="6.37414">
        <ele>274</ele>
        <time>2022-01-21T13:07:29.000Z</time>
      </trkpt>
      <trkpt lat="43.4964" lon="6.37415">
        <ele>275</ele>
        <time>2022-01-21T13:07:30.000Z</time>
      </trkpt>
      <trkpt lat="43.4964" lon="6.37416">
        <ele>275</ele>
        <time>2022-01-21T13:07:31.000Z</time>
      </trkpt>
      <trkpt lat="43.49641" lon="6.37416">
        <ele>275</ele>
        <time>2022-01-21T13:07:32.000Z</time>
      </trkpt>
      <trkpt lat="43.49642" lon="6.37417">
        <ele>275</ele>
        <time>2022-01-21T13:07:33.000Z</time>
      </trkpt>
      <trkpt lat="43.49642" lon="6.37418">
        <ele>276</ele>
        <time>2022-01-21T13:07:34.000Z</time>
      </trkpt>
      <trkpt lat="43.49642" lon="6.3742">
        <ele>276</ele>
        <time>2022-01-21T13:07:35.000Z</time>
      </trkpt>
      <trkpt lat="43.49642" lon="6.37423">
        <ele>276</ele>
        <time>2022-01-21T13:07:36.000Z</time>
      </trkpt>
      <trkpt lat="43.49642" lon="6.37426">
        <ele>275</ele>
        <time>2022-01-21T13:07:37.000Z</time>
      </trkpt>
      <trkpt lat="43.49642" lon="6.37427">
        <ele>275</ele>
        <time>2022-01-21T13:07:38.000Z</time>
      </trkpt>
      <trkpt lat="43.49642" lon="6.37429">
        <ele>276</ele>
        <time>2022-01-21T13:07:39.000Z</time>
      </trkpt>
      <trkpt lat="43.49643" lon="6.3743">
        <ele>276</ele>
        <time>2022-01-21T13:07:40.000Z</time>
      </trkpt>
      <trkpt lat="43.49643" lon="6.37431">
        <ele>276</ele>
        <time>2022-01-21T13:07:41.000Z</time>
      </trkpt>
      <trkpt lat="43.49644" lon="6.37432">
        <ele>276</ele>
        <time>2022-01-21T13:07:42.000Z</time>
      </trkpt>
      <trkpt lat="43.49644" lon="6.37433">
        <ele>276</ele>
        <time>2022-01-21T13:07:43.000Z</time>
      </trkpt>
      <trkpt lat="43.49644" lon="6.37434">
        <ele>276</ele>
        <time>2022-01-21T13:07:44.000Z</time>
      </trkpt>
      <trkpt lat="43.49645" lon="6.37435">
        <ele>276</ele>
        <time>2022-01-21T13:07:45.000Z</time>
      </trkpt>
      <trkpt lat="43.49645" lon="6.37436">
        <ele>276</ele>
        <time>2022-01-21T13:07:46.000Z</time>
      </trkpt>
      <trkpt lat="43.49646" lon="6.37437">
        <ele>276</ele>
        <time>2022-01-21T13:07:47.000Z</time>
      </trkpt>
      <trkpt lat="43.49646" lon="6.37437">
        <ele>276</ele>
        <time>2022-01-21T13:07:48.000Z</time>
      </trkpt>
      <trkpt lat="43.49647" lon="6.37438">
        <ele>276</ele>
        <time>2022-01-21T13:07:49.000Z</time>
      </trkpt>
      <trkpt lat="43.49647" lon="6.37439">
        <ele>276</ele>
        <time>2022-01-21T13:07:50.000Z</time>
      </trkpt>
      <trkpt lat="43.49648" lon="6.37439">
        <ele>277</ele>
        <time>2022-01-21T13:07:51.000Z</time>
      </trkpt>
      <trkpt lat="43.49648" lon="6.3744">
        <ele>277</ele>
        <time>2022-01-21T13:07:52.000Z</time>
      </trkpt>
      <trkpt lat="43.49649" lon="6.3744">
        <ele>277</ele>
        <time>2022-01-21T13:07:53.000Z</time>
      </trkpt>
      <trkpt lat="43.49649" lon="6.37441">
        <ele>277</ele>
        <time>2022-01-21T13:07:54.000Z</time>
      </trkpt>
      <trkpt lat="43.4965" lon="6.37441">
        <ele>278</ele>
        <time>2022-01-21T13:07:55.000Z</time>
      </trkpt>
      <trkpt lat="43.49651" lon="6.37442">
        <ele>279</ele>
        <time>2022-01-21T13:07:56.000Z</time>
      </trkpt>
      <trkpt lat="43.49652" lon="6.37443">
        <ele>279</ele>
        <time>2022-01-21T13:07:57.000Z</time>
      </trkpt>
      <trkpt lat="43.49652" lon="6.37443">
        <ele>279</ele>
        <time>2022-01-21T13:07:58.000Z</time>
      </trkpt>
      <trkpt lat="43.49653" lon="6.37444">
        <ele>280</ele>
        <time>2022-01-21T13:07:59.000Z</time>
      </trkpt>
      <trkpt lat="43.49653" lon="6.37445">
        <ele>280</ele>
        <time>2022-01-21T13:08:00.000Z</time>
      </trkpt>
      <trkpt lat="43.49653" lon="6.37446">
        <ele>280</ele>
        <time>2022-01-21T13:08:01.000Z</time>
      </trkpt>
      <trkpt lat="43.49654" lon="6.37446">
        <ele>280</ele>
        <time>2022-01-21T13:08:02.000Z</time>
      </trkpt>
      <trkpt lat="43.49654" lon="6.37447">
        <ele>281</ele>
        <time>2022-01-21T13:08:03.000Z</time>
      </trkpt>
      <trkpt lat="43.49655" lon="6.37447">
        <ele>281</ele>
        <time>2022-01-21T13:08:04.000Z</time>
      </trkpt>
      <trkpt lat="43.49655" lon="6.37448">
        <ele>281</ele>
        <time>2022-01-21T13:08:05.000Z</time>
      </trkpt>
      <trkpt lat="43.49656" lon="6.37449">
        <ele>281</ele>
        <time>2022-01-21T13:08:06.000Z</time>
      </trkpt>
      <trkpt lat="43.49657" lon="6.3745">
        <ele>281</ele>
        <time>2022-01-21T13:08:07.000Z</time>
      </trkpt>
      <trkpt lat="43.49657" lon="6.3745">
        <ele>282</ele>
        <time>2022-01-21T13:08:08.000Z</time>
      </trkpt>
      <trkpt lat="43.49658" lon="6.37451">
        <ele>282</ele>
        <time>2022-01-21T13:08:09.000Z</time>
      </trkpt>
      <trkpt lat="43.49658" lon="6.37452">
        <ele>282</ele>
        <time>2022-01-21T13:08:10.000Z</time>
      </trkpt>
      <trkpt lat="43.49658" lon="6.37453">
        <ele>282</ele>
        <time>2022-01-21T13:08:11.000Z</time>
      </trkpt>
      <trkpt lat="43.49659" lon="6.37453">
        <ele>282</ele>
        <time>2022-01-21T13:08:12.000Z</time>
      </trkpt>
      <trkpt lat="43.4966" lon="6.37454">
        <ele>283</ele>
        <time>2022-01-21T13:08:13.000Z</time>
      </trkpt>
      <trkpt lat="43.4966" lon="6.37455">
        <ele>283</ele>
        <time>2022-01-21T13:08:14.000Z</time>
      </trkpt>
      <trkpt lat="43.49661" lon="6.37455">
        <ele>286</ele>
        <time>2022-01-21T13:08:15.000Z</time>
      </trkpt>
      <trkpt lat="43.49662" lon="6.37456">
        <ele>287</ele>
        <time>2022-01-21T13:08:16.000Z</time>
      </trkpt>
      <trkpt lat="43.49662" lon="6.37456">
        <ele>287</ele>
        <time>2022-01-21T13:08:17.000Z</time>
      </trkpt>
      <trkpt lat="43.49663" lon="6.37457">
        <ele>287</ele>
        <time>2022-01-21T13:08:18.000Z</time>
      </trkpt>
      <trkpt lat="43.49663" lon="6.37458">
        <ele>288</ele>
        <time>2022-01-21T13:08:19.000Z</time>
      </trkpt>
      <trkpt lat="43.49664" lon="6.37458">
        <ele>288</ele>
        <time>2022-01-21T13:08:20.000Z</time>
      </trkpt>
      <trkpt lat="43.49665" lon="6.37459">
        <ele>288</ele>
        <time>2022-01-21T13:08:21.000Z</time>
      </trkpt>
      <trkpt lat="43.49665" lon="6.3746">
        <ele>289</ele>
        <time>2022-01-21T13:08:22.000Z</time>
      </trkpt>
      <trkpt lat="43.49666" lon="6.37461">
        <ele>289</ele>
        <time>2022-01-21T13:08:23.000Z</time>
      </trkpt>
      <trkpt lat="43.49666" lon="6.37462">
        <ele>289</ele>
        <time>2022-01-21T13:08:24.000Z</time>
      </trkpt>
      <trkpt lat="43.49667" lon="6.37463">
        <ele>289</ele>
        <time>2022-01-21T13:08:25.000Z</time>
      </trkpt>
      <trkpt lat="43.49668" lon="6.37464">
        <ele>290</ele>
        <time>2022-01-21T13:08:26.000Z</time>
      </trkpt>
      <trkpt lat="43.49668" lon="6.37465">
        <ele>290</ele>
        <time>2022-01-21T13:08:27.000Z</time>
      </trkpt>
      <trkpt lat="43.49669" lon="6.37465">
        <ele>290</ele>
        <time>2022-01-21T13:08:28.000Z</time>
      </trkpt>
      <trkpt lat="43.4967" lon="6.37466">
        <ele>290</ele>
        <time>2022-01-21T13:08:29.000Z</time>
      </trkpt>
      <trkpt lat="43.4967" lon="6.37467">
        <ele>292</ele>
        <time>2022-01-21T13:08:30.000Z</time>
      </trkpt>
      <trkpt lat="43.49671" lon="6.37467">
        <ele>292</ele>
        <time>2022-01-21T13:08:31.000Z</time>
      </trkpt>
      <trkpt lat="43.49671" lon="6.37468">
        <ele>293</ele>
        <time>2022-01-21T13:08:32.000Z</time>
      </trkpt>
      <trkpt lat="43.49672" lon="6.37469">
        <ele>293</ele>
        <time>2022-01-21T13:08:33.000Z</time>
      </trkpt>
      <trkpt lat="43.49672" lon="6.3747">
        <ele>293</ele>
        <time>2022-01-21T13:08:34.000Z</time>
      </trkpt>
      <trkpt lat="43.49673" lon="6.37471">
        <ele>293</ele>
        <time>2022-01-21T13:08:35.000Z</time>
      </trkpt>
      <trkpt lat="43.49673" lon="6.37472">
        <ele>293</ele>
        <time>2022-01-21T13:08:36.000Z</time>
      </trkpt>
      <trkpt lat="43.49674" lon="6.37473">
        <ele>293</ele>
        <time>2022-01-21T13:08:37.000Z</time>
      </trkpt>
      <trkpt lat="43.49674" lon="6.37474">
        <ele>293</ele>
        <time>2022-01-21T13:08:38.000Z</time>
      </trkpt>
      <trkpt lat="43.49675" lon="6.37475">
        <ele>293</ele>
        <time>2022-01-21T13:08:39.000Z</time>
      </trkpt>
      <trkpt lat="43.49676" lon="6.37475">
        <ele>294</ele>
        <time>2022-01-21T13:08:40.000Z</time>
      </trkpt>
      <trkpt lat="43.49677" lon="6.37476">
        <ele>294</ele>
        <time>2022-01-21T13:08:41.000Z</time>
      </trkpt>
      <trkpt lat="43.49677" lon="6.37476">
        <ele>293</ele>
        <time>2022-01-21T13:08:42.000Z</time>
      </trkpt>
      <trkpt lat="43.49678" lon="6.37477">
        <ele>293</ele>
        <time>2022-01-21T13:08:43.000Z</time>
      </trkpt>
      <trkpt lat="43.49679" lon="6.37477">
        <ele>293</ele>
        <time>2022-01-21T13:08:44.000Z</time>
      </trkpt>
      <trkpt lat="43.49679" lon="6.37477">
        <ele>293</ele>
        <time>2022-01-21T13:08:45.000Z</time>
      </trkpt>
      <trkpt lat="43.4968" lon="6.37478">
        <ele>293</ele>
        <time>2022-01-21T13:08:46.000Z</time>
      </trkpt>
      <trkpt lat="43.49681" lon="6.37478">
        <ele>293</ele>
        <time>2022-01-21T13:08:47.000Z</time>
      </trkpt>
      <trkpt lat="43.49681" lon="6.37479">
        <ele>293</ele>
        <time>2022-01-21T13:08:48.000Z</time>
      </trkpt>
      <trkpt lat="43.49682" lon="6.37479">
        <ele>293</ele>
        <time>2022-01-21T13:08:49.000Z</time>
      </trkpt>
      <trkpt lat="43.49683" lon="6.3748">
        <ele>293</ele>
        <time>2022-01-21T13:08:50.000Z</time>
      </trkpt>
      <trkpt lat="43.49683" lon="6.37481">
        <ele>293</ele>
        <time>2022-01-21T13:08:51.000Z</time>
      </trkpt>
      <trkpt lat="43.49684" lon="6.37481">
        <ele>293</ele>
        <time>2022-01-21T13:08:52.000Z</time>
      </trkpt>
      <trkpt lat="43.49684" lon="6.37482">
        <ele>292</ele>
        <time>2022-01-21T13:08:53.000Z</time>
      </trkpt>
      <trkpt lat="43.49685" lon="6.37483">
        <ele>292</ele>
        <time>2022-01-21T13:08:54.000Z</time>
      </trkpt>
      <trkpt lat="43.49686" lon="6.37484">
        <ele>292</ele>
        <time>2022-01-21T13:08:55.000Z</time>
      </trkpt>
      <trkpt lat="43.49686" lon="6.37485">
        <ele>292</ele>
        <time>2022-01-21T13:08:56.000Z</time>
      </trkpt>
      <trkpt lat="43.49687" lon="6.37485">
        <ele>292</ele>
        <time>2022-01-21T13:08:57.000Z</time>
      </trkpt>
      <trkpt lat="43.49688" lon="6.37486">
        <ele>292</ele>
        <time>2022-01-21T13:08:58.000Z</time>
      </trkpt>
      <trkpt lat="43.49688" lon="6.37487">
        <ele>292</ele>
        <time>2022-01-21T13:08:59.000Z</time>
      </trkpt>
      <trkpt lat="43.49689" lon="6.37488">
        <ele>291</ele>
        <time>2022-01-21T13:09:00.000Z</time>
      </trkpt>
      <trkpt lat="43.49689" lon="6.37489">
        <ele>291</ele>
        <time>2022-01-21T13:09:01.000Z</time>
      </trkpt>
      <trkpt lat="43.4969" lon="6.3749">
        <ele>291</ele>
        <time>2022-01-21T13:09:02.000Z</time>
      </trkpt>
      <trkpt lat="43.4969" lon="6.37491">
        <ele>291</ele>
        <time>2022-01-21T13:09:03.000Z</time>
      </trkpt>
      <trkpt lat="43.49691" lon="6.37492">
        <ele>291</ele>
        <time>2022-01-21T13:09:04.000Z</time>
      </trkpt>
      <trkpt lat="43.49691" lon="6.37493">
        <ele>291</ele>
        <time>2022-01-21T13:09:05.000Z</time>
      </trkpt>
      <trkpt lat="43.49691" lon="6.37494">
        <ele>291</ele>
        <time>2022-01-21T13:09:06.000Z</time>
      </trkpt>
      <trkpt lat="43.49691" lon="6.37494">
        <ele>289</ele>
        <time>2022-01-21T13:09:07.000Z</time>
      </trkpt>
      <trkpt lat="43.49691" lon="6.37495">
        <ele>289</ele>
        <time>2022-01-21T13:09:08.000Z</time>
      </trkpt>
      <trkpt lat="43.49692" lon="6.37496">
        <ele>288</ele>
        <time>2022-01-21T13:09:09.000Z</time>
      </trkpt>
      <trkpt lat="43.49692" lon="6.37497">
        <ele>288</ele>
        <time>2022-01-21T13:09:10.000Z</time>
      </trkpt>
      <trkpt lat="43.49692" lon="6.37498">
        <ele>288</ele>
        <time>2022-01-21T13:09:11.000Z</time>
      </trkpt>
      <trkpt lat="43.49693" lon="6.37498">
        <ele>288</ele>
        <time>2022-01-21T13:09:12.000Z</time>
      </trkpt>
      <trkpt lat="43.49693" lon="6.37499">
        <ele>288</ele>
        <time>2022-01-21T13:09:13.000Z</time>
      </trkpt>
      <trkpt lat="43.49694" lon="6.375">
        <ele>288</ele>
        <time>2022-01-21T13:09:14.000Z</time>
      </trkpt>
      <trkpt lat="43.49694" lon="6.37501">
        <ele>288</ele>
        <time>2022-01-21T13:09:15.000Z</time>
      </trkpt>
      <trkpt lat="43.49695" lon="6.37502">
        <ele>288</ele>
        <time>2022-01-21T13:09:16.000Z</time>
      </trkpt>
      <trkpt lat="43.49695" lon="6.37503">
        <ele>288</ele>
        <time>2022-01-21T13:09:17.000Z</time>
      </trkpt>
      <trkpt lat="43.49696" lon="6.37504">
        <ele>288</ele>
        <time>2022-01-21T13:09:18.000Z</time>
      </trkpt>
      <trkpt lat="43.49697" lon="6.37505">
        <ele>288</ele>
        <time>2022-01-21T13:09:19.000Z</time>
      </trkpt>
      <trkpt lat="43.49698" lon="6.37507">
        <ele>288</ele>
        <time>2022-01-21T13:09:20.000Z</time>
      </trkpt>
      <trkpt lat="43.49699" lon="6.37508">
        <ele>288</ele>
        <time>2022-01-21T13:09:21.000Z</time>
      </trkpt>
      <trkpt lat="43.49699" lon="6.37508">
        <ele>288</ele>
        <time>2022-01-21T13:09:22.000Z</time>
      </trkpt>
      <trkpt lat="43.49699" lon="6.37508">
        <ele>288</ele>
        <time>2022-01-21T13:09:23.000Z</time>
      </trkpt>
      <trkpt lat="43.49699" lon="6.37507">
        <ele>289</ele>
        <time>2022-01-21T13:09:24.000Z</time>
      </trkpt>
      <trkpt lat="43.497" lon="6.37507">
        <ele>289</ele>
        <time>2022-01-21T13:09:25.000Z</time>
      </trkpt>
      <trkpt lat="43.497" lon="6.37507">
        <ele>289</ele>
        <time>2022-01-21T13:09:26.000Z</time>
      </trkpt>
      <trkpt lat="43.497" lon="6.37508">
        <ele>289</ele>
        <time>2022-01-21T13:09:27.000Z</time>
      </trkpt>
      <trkpt lat="43.497" lon="6.37508">
        <ele>289</ele>
        <time>2022-01-21T13:09:28.000Z</time>
      </trkpt>
      <trkpt lat="43.497" lon="6.37509">
        <ele>289</ele>
        <time>2022-01-21T13:09:29.000Z</time>
      </trkpt>
      <trkpt lat="43.497" lon="6.3751">
        <ele>289</ele>
        <time>2022-01-21T13:09:30.000Z</time>
      </trkpt>
      <trkpt lat="43.497" lon="6.37512">
        <ele>290</ele>
        <time>2022-01-21T13:09:31.000Z</time>
      </trkpt>
      <trkpt lat="43.49701" lon="6.37514">
        <ele>290</ele>
        <time>2022-01-21T13:09:32.000Z</time>
      </trkpt>
      <trkpt lat="43.49701" lon="6.37515">
        <ele>290</ele>
        <time>2022-01-21T13:09:33.000Z</time>
      </trkpt>
      <trkpt lat="43.49701" lon="6.37516">
        <ele>290</ele>
        <time>2022-01-21T13:09:34.000Z</time>
      </trkpt>
      <trkpt lat="43.49701" lon="6.37518">
        <ele>290</ele>
        <time>2022-01-21T13:09:35.000Z</time>
      </trkpt>
      <trkpt lat="43.49701" lon="6.37519">
        <ele>291</ele>
        <time>2022-01-21T13:09:36.000Z</time>
      </trkpt>
      <trkpt lat="43.49701" lon="6.3752">
        <ele>291</ele>
        <time>2022-01-21T13:09:37.000Z</time>
      </trkpt>
      <trkpt lat="43.49701" lon="6.37521">
        <ele>291</ele>
        <time>2022-01-21T13:09:38.000Z</time>
      </trkpt>
      <trkpt lat="43.49701" lon="6.37521">
        <ele>292</ele>
        <time>2022-01-21T13:09:39.000Z</time>
      </trkpt>
      <trkpt lat="43.49701" lon="6.37522">
        <ele>292</ele>
        <time>2022-01-21T13:09:40.000Z</time>
      </trkpt>
      <trkpt lat="43.49701" lon="6.37523">
        <ele>292</ele>
        <time>2022-01-21T13:09:41.000Z</time>
      </trkpt>
      <trkpt lat="43.49701" lon="6.37523">
        <ele>293</ele>
        <time>2022-01-21T13:09:42.000Z</time>
      </trkpt>
      <trkpt lat="43.49701" lon="6.37524">
        <ele>293</ele>
        <time>2022-01-21T13:09:43.000Z</time>
      </trkpt>
      <trkpt lat="43.49701" lon="6.37525">
        <ele>293</ele>
        <time>2022-01-21T13:09:44.000Z</time>
      </trkpt>
      <trkpt lat="43.49701" lon="6.37527">
        <ele>293</ele>
        <time>2022-01-21T13:09:45.000Z</time>
      </trkpt>
      <trkpt lat="43.49701" lon="6.37528">
        <ele>293</ele>
        <time>2022-01-21T13:09:46.000Z</time>
      </trkpt>
      <trkpt lat="43.49701" lon="6.37529">
        <ele>293</ele>
        <time>2022-01-21T13:09:47.000Z</time>
      </trkpt>
      <trkpt lat="43.49701" lon="6.3753">
        <ele>293</ele>
        <time>2022-01-21T13:09:48.000Z</time>
      </trkpt>
      <trkpt lat="43.49701" lon="6.37531">
        <ele>293</ele>
        <time>2022-01-21T13:09:49.000Z</time>
      </trkpt>
      <trkpt lat="43.49701" lon="6.37532">
        <ele>293</ele>
        <time>2022-01-21T13:09:50.000Z</time>
      </trkpt>
      <trkpt lat="43.49701" lon="6.37533">
        <ele>293</ele>
        <time>2022-01-21T13:09:51.000Z</time>
      </trkpt>
      <trkpt lat="43.49701" lon="6.37533">
        <ele>293</ele>
        <time>2022-01-21T13:09:52.000Z</time>
      </trkpt>
      <trkpt lat="43.49701" lon="6.37534">
        <ele>294</ele>
        <time>2022-01-21T13:09:53.000Z</time>
      </trkpt>
      <trkpt lat="43.49701" lon="6.37535">
        <ele>294</ele>
        <time>2022-01-21T13:09:54.000Z</time>
      </trkpt>
      <trkpt lat="43.49701" lon="6.37536">
        <ele>293</ele>
        <time>2022-01-21T13:09:55.000Z</time>
      </trkpt>
      <trkpt lat="43.49701" lon="6.37538">
        <ele>293</ele>
        <time>2022-01-21T13:09:56.000Z</time>
      </trkpt>
      <trkpt lat="43.49701" lon="6.37539">
        <ele>293</ele>
        <time>2022-01-21T13:09:57.000Z</time>
      </trkpt>
      <trkpt lat="43.49701" lon="6.3754">
        <ele>293</ele>
        <time>2022-01-21T13:09:58.000Z</time>
      </trkpt>
      <trkpt lat="43.49702" lon="6.37541">
        <ele>293</ele>
        <time>2022-01-21T13:09:59.000Z</time>
      </trkpt>
      <trkpt lat="43.49702" lon="6.37541">
        <ele>293</ele>
        <time>2022-01-21T13:10:00.000Z</time>
      </trkpt>
      <trkpt lat="43.49702" lon="6.37542">
        <ele>293</ele>
        <time>2022-01-21T13:10:01.000Z</time>
      </trkpt>
      <trkpt lat="43.49703" lon="6.37543">
        <ele>293</ele>
        <time>2022-01-21T13:10:02.000Z</time>
      </trkpt>
      <trkpt lat="43.49703" lon="6.37543">
        <ele>293</ele>
        <time>2022-01-21T13:10:03.000Z</time>
      </trkpt>
      <trkpt lat="43.49703" lon="6.37544">
        <ele>293</ele>
        <time>2022-01-21T13:10:04.000Z</time>
      </trkpt>
      <trkpt lat="43.49703" lon="6.37544">
        <ele>292</ele>
        <time>2022-01-21T13:10:05.000Z</time>
      </trkpt>
      <trkpt lat="43.49704" lon="6.37545">
        <ele>292</ele>
        <time>2022-01-21T13:10:06.000Z</time>
      </trkpt>
      <trkpt lat="43.49704" lon="6.37545">
        <ele>292</ele>
        <time>2022-01-21T13:10:07.000Z</time>
      </trkpt>
      <trkpt lat="43.49704" lon="6.37546">
        <ele>292</ele>
        <time>2022-01-21T13:10:08.000Z</time>
      </trkpt>
      <trkpt lat="43.49705" lon="6.37546">
        <ele>292</ele>
        <time>2022-01-21T13:10:09.000Z</time>
      </trkpt>
      <trkpt lat="43.49705" lon="6.37547">
        <ele>292</ele>
        <time>2022-01-21T13:10:10.000Z</time>
      </trkpt>
      <trkpt lat="43.49705" lon="6.37547">
        <ele>292</ele>
        <time>2022-01-21T13:10:11.000Z</time>
      </trkpt>
      <trkpt lat="43.49705" lon="6.37547">
        <ele>292</ele>
        <time>2022-01-21T13:10:12.000Z</time>
      </trkpt>
      <trkpt lat="43.49706" lon="6.37546">
        <ele>292</ele>
        <time>2022-01-21T13:10:13.000Z</time>
      </trkpt>
      <trkpt lat="43.49706" lon="6.37546">
        <ele>293</ele>
        <time>2022-01-21T13:10:14.000Z</time>
      </trkpt>
      <trkpt lat="43.49707" lon="6.37546">
        <ele>293</ele>
        <time>2022-01-21T13:10:15.000Z</time>
      </trkpt>
      <trkpt lat="43.49707" lon="6.37545">
        <ele>293</ele>
        <time>2022-01-21T13:10:16.000Z</time>
      </trkpt>
      <trkpt lat="43.49708" lon="6.37545">
        <ele>293</ele>
        <time>2022-01-21T13:10:17.000Z</time>
      </trkpt>
      <trkpt lat="43.49709" lon="6.37544">
        <ele>293</ele>
        <time>2022-01-21T13:10:18.000Z</time>
      </trkpt>
      <trkpt lat="43.4971" lon="6.37543">
        <ele>293</ele>
        <time>2022-01-21T13:10:19.000Z</time>
      </trkpt>
      <trkpt lat="43.49711" lon="6.37543">
        <ele>293</ele>
        <time>2022-01-21T13:10:20.000Z</time>
      </trkpt>
      <trkpt lat="43.49711" lon="6.37542">
        <ele>293</ele>
        <time>2022-01-21T13:10:21.000Z</time>
      </trkpt>
      <trkpt lat="43.49712" lon="6.37542">
        <ele>294</ele>
        <time>2022-01-21T13:10:22.000Z</time>
      </trkpt>
      <trkpt lat="43.49713" lon="6.37541">
        <ele>295</ele>
        <time>2022-01-21T13:10:23.000Z</time>
      </trkpt>
      <trkpt lat="43.49714" lon="6.3754">
        <ele>295</ele>
        <time>2022-01-21T13:10:24.000Z</time>
      </trkpt>
      <trkpt lat="43.49715" lon="6.3754">
        <ele>296</ele>
        <time>2022-01-21T13:10:25.000Z</time>
      </trkpt>
      <trkpt lat="43.49717" lon="6.37539">
        <ele>296</ele>
        <time>2022-01-21T13:10:26.000Z</time>
      </trkpt>
      <trkpt lat="43.49718" lon="6.37539">
        <ele>296</ele>
        <time>2022-01-21T13:10:27.000Z</time>
      </trkpt>
      <trkpt lat="43.4972" lon="6.37539">
        <ele>296</ele>
        <time>2022-01-21T13:10:28.000Z</time>
      </trkpt>
      <trkpt lat="43.49721" lon="6.37539">
        <ele>297</ele>
        <time>2022-01-21T13:10:29.000Z</time>
      </trkpt>
      <trkpt lat="43.49723" lon="6.37539">
        <ele>297</ele>
        <time>2022-01-21T13:10:31.000Z</time>
      </trkpt>
      <trkpt lat="43.49724" lon="6.37539">
        <ele>297</ele>
        <time>2022-01-21T13:10:32.000Z</time>
      </trkpt>
      <trkpt lat="43.49724" lon="6.3754">
        <ele>297</ele>
        <time>2022-01-21T13:10:33.000Z</time>
      </trkpt>
      <trkpt lat="43.49724" lon="6.3754">
        <ele>297</ele>
        <time>2022-01-21T13:10:34.000Z</time>
      </trkpt>
      <trkpt lat="43.49724" lon="6.37541">
        <ele>297</ele>
        <time>2022-01-21T13:10:35.000Z</time>
      </trkpt>
      <trkpt lat="43.49725" lon="6.37542">
        <ele>297</ele>
        <time>2022-01-21T13:10:36.000Z</time>
      </trkpt>
      <trkpt lat="43.49725" lon="6.37543">
        <ele>297</ele>
        <time>2022-01-21T13:10:37.000Z</time>
      </trkpt>
      <trkpt lat="43.49725" lon="6.37543">
        <ele>298</ele>
        <time>2022-01-21T13:10:38.000Z</time>
      </trkpt>
      <trkpt lat="43.49725" lon="6.37544">
        <ele>298</ele>
        <time>2022-01-21T13:10:39.000Z</time>
      </trkpt>
      <trkpt lat="43.49725" lon="6.37545">
        <ele>298</ele>
        <time>2022-01-21T13:10:40.000Z</time>
      </trkpt>
      <trkpt lat="43.49725" lon="6.37546">
        <ele>298</ele>
        <time>2022-01-21T13:10:41.000Z</time>
      </trkpt>
      <trkpt lat="43.49725" lon="6.37546">
        <ele>298</ele>
        <time>2022-01-21T13:10:42.000Z</time>
      </trkpt>
      <trkpt lat="43.49725" lon="6.37547">
        <ele>298</ele>
        <time>2022-01-21T13:10:43.000Z</time>
      </trkpt>
      <trkpt lat="43.49726" lon="6.37547">
        <ele>298</ele>
        <time>2022-01-21T13:10:44.000Z</time>
      </trkpt>
      <trkpt lat="43.49726" lon="6.37548">
        <ele>300</ele>
        <time>2022-01-21T13:10:45.000Z</time>
      </trkpt>
      <trkpt lat="43.49727" lon="6.37549">
        <ele>301</ele>
        <time>2022-01-21T13:10:46.000Z</time>
      </trkpt>
      <trkpt lat="43.49727" lon="6.3755">
        <ele>301</ele>
        <time>2022-01-21T13:10:47.000Z</time>
      </trkpt>
      <trkpt lat="43.49727" lon="6.37551">
        <ele>301</ele>
        <time>2022-01-21T13:10:48.000Z</time>
      </trkpt>
      <trkpt lat="43.49728" lon="6.37551">
        <ele>301</ele>
        <time>2022-01-21T13:10:49.000Z</time>
      </trkpt>
      <trkpt lat="43.49728" lon="6.37552">
        <ele>301</ele>
        <time>2022-01-21T13:10:50.000Z</time>
      </trkpt>
      <trkpt lat="43.49728" lon="6.37552">
        <ele>301</ele>
        <time>2022-01-21T13:10:51.000Z</time>
      </trkpt>
      <trkpt lat="43.49728" lon="6.37553">
        <ele>301</ele>
        <time>2022-01-21T13:10:52.000Z</time>
      </trkpt>
      <trkpt lat="43.49729" lon="6.37554">
        <ele>301</ele>
        <time>2022-01-21T13:10:53.000Z</time>
      </trkpt>
      <trkpt lat="43.49729" lon="6.37554">
        <ele>301</ele>
        <time>2022-01-21T13:10:54.000Z</time>
      </trkpt>
      <trkpt lat="43.49729" lon="6.37555">
        <ele>301</ele>
        <time>2022-01-21T13:10:55.000Z</time>
      </trkpt>
      <trkpt lat="43.4973" lon="6.37555">
        <ele>301</ele>
        <time>2022-01-21T13:10:56.000Z</time>
      </trkpt>
      <trkpt lat="43.4973" lon="6.37556">
        <ele>301</ele>
        <time>2022-01-21T13:10:57.000Z</time>
      </trkpt>
      <trkpt lat="43.4973" lon="6.37556">
        <ele>301</ele>
        <time>2022-01-21T13:10:58.000Z</time>
      </trkpt>
      <trkpt lat="43.4973" lon="6.37556">
        <ele>301</ele>
        <time>2022-01-21T13:10:59.000Z</time>
      </trkpt>
      <trkpt lat="43.49731" lon="6.37557">
        <ele>301</ele>
        <time>2022-01-21T13:11:00.000Z</time>
      </trkpt>
      <trkpt lat="43.49731" lon="6.37557">
        <ele>301</ele>
        <time>2022-01-21T13:11:01.000Z</time>
      </trkpt>
      <trkpt lat="43.49731" lon="6.37558">
        <ele>301</ele>
        <time>2022-01-21T13:11:02.000Z</time>
      </trkpt>
      <trkpt lat="43.49731" lon="6.37558">
        <ele>301</ele>
        <time>2022-01-21T13:11:03.000Z</time>
      </trkpt>
      <trkpt lat="43.49731" lon="6.37558">
        <ele>301</ele>
        <time>2022-01-21T13:11:04.000Z</time>
      </trkpt>
      <trkpt lat="43.49731" lon="6.37558">
        <ele>302</ele>
        <time>2022-01-21T13:11:05.000Z</time>
      </trkpt>
      <trkpt lat="43.49731" lon="6.37559">
        <ele>302</ele>
        <time>2022-01-21T13:11:06.000Z</time>
      </trkpt>
      <trkpt lat="43.49731" lon="6.37559">
        <ele>302</ele>
        <time>2022-01-21T13:11:07.000Z</time>
      </trkpt>
      <trkpt lat="43.49731" lon="6.37559">
        <ele>302</ele>
        <time>2022-01-21T13:11:08.000Z</time>
      </trkpt>
      <trkpt lat="43.49732" lon="6.3756">
        <ele>302</ele>
        <time>2022-01-21T13:11:09.000Z</time>
      </trkpt>
      <trkpt lat="43.49732" lon="6.3756">
        <ele>302</ele>
        <time>2022-01-21T13:11:10.000Z</time>
      </trkpt>
      <trkpt lat="43.49733" lon="6.37561">
        <ele>302</ele>
        <time>2022-01-21T13:11:11.000Z</time>
      </trkpt>
      <trkpt lat="43.49733" lon="6.37562">
        <ele>302</ele>
        <time>2022-01-21T13:11:12.000Z</time>
      </trkpt>
      <trkpt lat="43.49733" lon="6.37562">
        <ele>302</ele>
        <time>2022-01-21T13:11:13.000Z</time>
      </trkpt>
      <trkpt lat="43.49733" lon="6.37563">
        <ele>302</ele>
        <time>2022-01-21T13:11:14.000Z</time>
      </trkpt>
      <trkpt lat="43.49733" lon="6.37563">
        <ele>302</ele>
        <time>2022-01-21T13:11:15.000Z</time>
      </trkpt>
      <trkpt lat="43.49733" lon="6.37563">
        <ele>302</ele>
        <time>2022-01-21T13:11:16.000Z</time>
      </trkpt>
      <trkpt lat="43.49733" lon="6.37563">
        <ele>302</ele>
        <time>2022-01-21T13:11:17.000Z</time>
      </trkpt>
      <trkpt lat="43.49733" lon="6.37563">
        <ele>303</ele>
        <time>2022-01-21T13:11:18.000Z</time>
      </trkpt>
      <trkpt lat="43.49733" lon="6.37563">
        <ele>303</ele>
        <time>2022-01-21T13:11:19.000Z</time>
      </trkpt>
      <trkpt lat="43.49733" lon="6.37563">
        <ele>303</ele>
        <time>2022-01-21T13:11:20.000Z</time>
      </trkpt>
      <trkpt lat="43.49733" lon="6.37563">
        <ele>303</ele>
        <time>2022-01-21T13:11:21.000Z</time>
      </trkpt>
      <trkpt lat="43.49733" lon="6.37563">
        <ele>303</ele>
        <time>2022-01-21T13:11:22.000Z</time>
      </trkpt>
      <trkpt lat="43.49733" lon="6.37563">
        <ele>303</ele>
        <time>2022-01-21T13:11:23.000Z</time>
      </trkpt>
      <trkpt lat="43.49733" lon="6.37563">
        <ele>303</ele>
        <time>2022-01-21T13:11:24.000Z</time>
      </trkpt>
      <trkpt lat="43.49733" lon="6.37563">
        <ele>303</ele>
        <time>2022-01-21T13:11:25.000Z</time>
      </trkpt>
      <trkpt lat="43.49733" lon="6.37563">
        <ele>303</ele>
        <time>2022-01-21T13:11:26.000Z</time>
      </trkpt>
      <trkpt lat="43.49733" lon="6.37563">
        <ele>303</ele>
        <time>2022-01-21T13:11:27.000Z</time>
      </trkpt>
      <trkpt lat="43.49733" lon="6.37563">
        <ele>303</ele>
        <time>2022-01-21T13:11:28.000Z</time>
      </trkpt>
      <trkpt lat="43.49733" lon="6.37563">
        <ele>303</ele>
        <time>2022-01-21T13:11:29.000Z</time>
      </trkpt>
      <trkpt lat="43.49733" lon="6.37563">
        <ele>303</ele>
        <time>2022-01-21T13:11:30.000Z</time>
      </trkpt>
      <trkpt lat="43.49733" lon="6.37563">
        <ele>303</ele>
        <time>2022-01-21T13:11:31.000Z</time>
      </trkpt>
      <trkpt lat="43.49733" lon="6.37563">
        <ele>303</ele>
        <time>2022-01-21T13:11:32.000Z</time>
      </trkpt>
      <trkpt lat="43.49733" lon="6.37563">
        <ele>303</ele>
        <time>2022-01-21T13:11:33.000Z</time>
      </trkpt>
      <trkpt lat="43.49733" lon="6.37563">
        <ele>303</ele>
        <time>2022-01-21T13:11:34.000Z</time>
      </trkpt>
      <trkpt lat="43.49733" lon="6.37563">
        <ele>303</ele>
        <time>2022-01-21T13:11:35.000Z</time>
      </trkpt>
      <trkpt lat="43.49733" lon="6.37563">
        <ele>303</ele>
        <time>2022-01-21T13:11:36.000Z</time>
      </trkpt>
      <trkpt lat="43.49733" lon="6.37563">
        <ele>303</ele>
        <time>2022-01-21T13:11:37.000Z</time>
      </trkpt>
      <trkpt lat="43.49733" lon="6.37563">
        <ele>303</ele>
        <time>2022-01-21T13:11:38.000Z</time>
      </trkpt>
      <trkpt lat="43.49733" lon="6.37563">
        <ele>303</ele>
        <time>2022-01-21T13:11:39.000Z</time>
      </trkpt>
      <trkpt lat="43.49733" lon="6.37563">
        <ele>303</ele>
        <time>2022-01-21T13:11:40.000Z</time>
      </trkpt>
      <trkpt lat="43.49733" lon="6.37563">
        <ele>303</ele>
        <time>2022-01-21T13:11:41.000Z</time>
      </trkpt>
      <trkpt lat="43.49733" lon="6.37563">
        <ele>303</ele>
        <time>2022-01-21T13:11:42.000Z</time>
      </trkpt>
      <trkpt lat="43.49733" lon="6.37563">
        <ele>303</ele>
        <time>2022-01-21T13:11:43.000Z</time>
      </trkpt>
      <trkpt lat="43.49733" lon="6.37563">
        <ele>303</ele>
        <time>2022-01-21T13:11:44.000Z</time>
      </trkpt>
      <trkpt lat="43.49733" lon="6.37563">
        <ele>303</ele>
        <time>2022-01-21T13:11:45.000Z</time>
      </trkpt>
      <trkpt lat="43.49733" lon="6.37563">
        <ele>303</ele>
        <time>2022-01-21T13:11:46.000Z</time>
      </trkpt>
      <trkpt lat="43.49733" lon="6.37563">
        <ele>303</ele>
        <time>2022-01-21T13:11:47.000Z</time>
      </trkpt>
      <trkpt lat="43.49733" lon="6.37567">
        <ele>303</ele>
        <time>2022-01-21T13:11:48.000Z</time>
      </trkpt>
      <trkpt lat="43.49733" lon="6.37567">
        <ele>303</ele>
        <time>2022-01-21T13:11:49.000Z</time>
      </trkpt>
      <trkpt lat="43.49733" lon="6.37567">
        <ele>303</ele>
        <time>2022-01-21T13:11:50.000Z</time>
      </trkpt>
      <trkpt lat="43.49733" lon="6.37567">
        <ele>303</ele>
        <time>2022-01-21T13:11:51.000Z</time>
      </trkpt>
      <trkpt lat="43.49733" lon="6.37568">
        <ele>303</ele>
        <time>2022-01-21T13:11:52.000Z</time>
      </trkpt>
      <trkpt lat="43.49733" lon="6.37568">
        <ele>303</ele>
        <time>2022-01-21T13:11:53.000Z</time>
      </trkpt>
      <trkpt lat="43.49734" lon="6.37568">
        <ele>303</ele>
        <time>2022-01-21T13:11:54.000Z</time>
      </trkpt>
      <trkpt lat="43.49734" lon="6.37568">
        <ele>303</ele>
        <time>2022-01-21T13:11:55.000Z</time>
      </trkpt>
      <trkpt lat="43.49734" lon="6.37569">
        <ele>303</ele>
        <time>2022-01-21T13:11:56.000Z</time>
      </trkpt>
      <trkpt lat="43.49734" lon="6.37569">
        <ele>303</ele>
        <time>2022-01-21T13:11:57.000Z</time>
      </trkpt>
      <trkpt lat="43.49734" lon="6.37569">
        <ele>303</ele>
        <time>2022-01-21T13:11:58.000Z</time>
      </trkpt>
      <trkpt lat="43.49734" lon="6.37569">
        <ele>303</ele>
        <time>2022-01-21T13:11:59.000Z</time>
      </trkpt>
      <trkpt lat="43.49734" lon="6.37569">
        <ele>303</ele>
        <time>2022-01-21T13:12:00.000Z</time>
      </trkpt>
      <trkpt lat="43.49734" lon="6.37569">
        <ele>303</ele>
        <time>2022-01-21T13:12:01.000Z</time>
      </trkpt>
      <trkpt lat="43.49734" lon="6.37569">
        <ele>303</ele>
        <time>2022-01-21T13:12:02.000Z</time>
      </trkpt>
      <trkpt lat="43.49734" lon="6.37569">
        <ele>303</ele>
        <time>2022-01-21T13:12:03.000Z</time>
      </trkpt>
      <trkpt lat="43.49734" lon="6.37569">
        <ele>304</ele>
        <time>2022-01-21T13:12:04.000Z</time>
      </trkpt>
      <trkpt lat="43.49734" lon="6.37569">
        <ele>304</ele>
        <time>2022-01-21T13:12:05.000Z</time>
      </trkpt>
      <trkpt lat="43.49734" lon="6.37569">
        <ele>304</ele>
        <time>2022-01-21T13:12:06.000Z</time>
      </trkpt>
      <trkpt lat="43.49734" lon="6.37568">
        <ele>304</ele>
        <time>2022-01-21T13:12:07.000Z</time>
      </trkpt>
      <trkpt lat="43.49734" lon="6.37568">
        <ele>304</ele>
        <time>2022-01-21T13:12:08.000Z</time>
      </trkpt>
      <trkpt lat="43.49734" lon="6.37568">
        <ele>304</ele>
        <time>2022-01-21T13:12:09.000Z</time>
      </trkpt>
      <trkpt lat="43.49734" lon="6.37568">
        <ele>304</ele>
        <time>2022-01-21T13:12:10.000Z</time>
      </trkpt>
      <trkpt lat="43.49734" lon="6.37568">
        <ele>304</ele>
        <time>2022-01-21T13:12:11.000Z</time>
      </trkpt>
      <trkpt lat="43.49734" lon="6.37568">
        <ele>304</ele>
        <time>2022-01-21T13:12:12.000Z</time>
      </trkpt>
      <trkpt lat="43.49734" lon="6.37568">
        <ele>304</ele>
        <time>2022-01-21T13:12:13.000Z</time>
      </trkpt>
      <trkpt lat="43.49734" lon="6.37568">
        <ele>304</ele>
        <time>2022-01-21T13:12:14.000Z</time>
      </trkpt>
      <trkpt lat="43.49734" lon="6.37568">
        <ele>304</ele>
        <time>2022-01-21T13:12:15.000Z</time>
      </trkpt>
      <trkpt lat="43.49734" lon="6.37568">
        <ele>304</ele>
        <time>2022-01-21T13:12:16.000Z</time>
      </trkpt>
      <trkpt lat="43.49734" lon="6.37568">
        <ele>304</ele>
        <time>2022-01-21T13:12:17.000Z</time>
      </trkpt>
      <trkpt lat="43.49734" lon="6.37568">
        <ele>304</ele>
        <time>2022-01-21T13:12:18.000Z</time>
      </trkpt>
      <trkpt lat="43.49734" lon="6.37568">
        <ele>304</ele>
        <time>2022-01-21T13:12:19.000Z</time>
      </trkpt>
      <trkpt lat="43.49734" lon="6.37568">
        <ele>304</ele>
        <time>2022-01-21T13:12:20.000Z</time>
      </trkpt>
      <trkpt lat="43.49734" lon="6.37568">
        <ele>304</ele>
        <time>2022-01-21T13:12:21.000Z</time>
      </trkpt>
      <trkpt lat="43.49734" lon="6.37568">
        <ele>304</ele>
        <time>2022-01-21T13:12:22.000Z</time>
      </trkpt>
      <trkpt lat="43.49734" lon="6.37568">
        <ele>304</ele>
        <time>2022-01-21T13:12:23.000Z</time>
      </trkpt>
      <trkpt lat="43.49734" lon="6.37568">
        <ele>304</ele>
        <time>2022-01-21T13:12:24.000Z</time>
      </trkpt>
      <trkpt lat="43.49734" lon="6.37568">
        <ele>304</ele>
        <time>2022-01-21T13:12:25.000Z</time>
      </trkpt>
      <trkpt lat="43.49734" lon="6.37569">
        <ele>304</ele>
        <time>2022-01-21T13:12:26.000Z</time>
      </trkpt>
      <trkpt lat="43.49734" lon="6.37569">
        <ele>304</ele>
        <time>2022-01-21T13:12:27.000Z</time>
      </trkpt>
      <trkpt lat="43.49733" lon="6.3757">
        <ele>304</ele>
        <time>2022-01-21T13:12:28.000Z</time>
      </trkpt>
      <trkpt lat="43.49733" lon="6.3757">
        <ele>304</ele>
        <time>2022-01-21T13:12:29.000Z</time>
      </trkpt>
      <trkpt lat="43.49733" lon="6.3757">
        <ele>305</ele>
        <time>2022-01-21T13:12:30.000Z</time>
      </trkpt>
      <trkpt lat="43.49733" lon="6.3757">
        <ele>305</ele>
        <time>2022-01-21T13:12:31.000Z</time>
      </trkpt>
      <trkpt lat="43.49733" lon="6.3757">
        <ele>305</ele>
        <time>2022-01-21T13:12:32.000Z</time>
      </trkpt>
      <trkpt lat="43.49733" lon="6.3757">
        <ele>305</ele>
        <time>2022-01-21T13:12:33.000Z</time>
      </trkpt>
      <trkpt lat="43.49733" lon="6.3757">
        <ele>305</ele>
        <time>2022-01-21T13:12:34.000Z</time>
      </trkpt>
      <trkpt lat="43.49733" lon="6.3757">
        <ele>305</ele>
        <time>2022-01-21T13:12:35.000Z</time>
      </trkpt>
      <trkpt lat="43.49733" lon="6.3757">
        <ele>305</ele>
        <time>2022-01-21T13:12:36.000Z</time>
      </trkpt>
      <trkpt lat="43.49733" lon="6.3757">
        <ele>305</ele>
        <time>2022-01-21T13:12:37.000Z</time>
      </trkpt>
      <trkpt lat="43.49733" lon="6.3757">
        <ele>305</ele>
        <time>2022-01-21T13:12:38.000Z</time>
      </trkpt>
      <trkpt lat="43.49733" lon="6.3757">
        <ele>305</ele>
        <time>2022-01-21T13:12:39.000Z</time>
      </trkpt>
      <trkpt lat="43.49733" lon="6.3757">
        <ele>305</ele>
        <time>2022-01-21T13:12:40.000Z</time>
      </trkpt>
      <trkpt lat="43.49733" lon="6.3757">
        <ele>305</ele>
        <time>2022-01-21T13:12:41.000Z</time>
      </trkpt>
      <trkpt lat="43.49733" lon="6.3757">
        <ele>305</ele>
        <time>2022-01-21T13:12:42.000Z</time>
      </trkpt>
      <trkpt lat="43.49733" lon="6.3757">
        <ele>305</ele>
        <time>2022-01-21T13:12:43.000Z</time>
      </trkpt>
      <trkpt lat="43.49733" lon="6.3757">
        <ele>305</ele>
        <time>2022-01-21T13:12:44.000Z</time>
      </trkpt>
      <trkpt lat="43.49733" lon="6.3757">
        <ele>305</ele>
        <time>2022-01-21T13:12:45.000Z</time>
      </trkpt>
      <trkpt lat="43.49733" lon="6.3757">
        <ele>305</ele>
        <time>2022-01-21T13:12:46.000Z</time>
      </trkpt>
      <trkpt lat="43.49733" lon="6.3757">
        <ele>305</ele>
        <time>2022-01-21T13:12:47.000Z</time>
      </trkpt>
      <trkpt lat="43.49733" lon="6.3757">
        <ele>305</ele>
        <time>2022-01-21T13:12:48.000Z</time>
      </trkpt>
      <trkpt lat="43.49733" lon="6.3757">
        <ele>305</ele>
        <time>2022-01-21T13:12:49.000Z</time>
      </trkpt>
      <trkpt lat="43.49733" lon="6.3757">
        <ele>305</ele>
        <time>2022-01-21T13:12:50.000Z</time>
      </trkpt>
      <trkpt lat="43.49733" lon="6.3757">
        <ele>305</ele>
        <time>2022-01-21T13:12:51.000Z</time>
      </trkpt>
      <trkpt lat="43.49733" lon="6.3757">
        <ele>305</ele>
        <time>2022-01-21T13:12:52.000Z</time>
      </trkpt>
      <trkpt lat="43.49733" lon="6.3757">
        <ele>305</ele>
        <time>2022-01-21T13:12:53.000Z</time>
      </trkpt>
      <trkpt lat="43.49733" lon="6.37571">
        <ele>305</ele>
        <time>2022-01-21T13:12:54.000Z</time>
      </trkpt>
      <trkpt lat="43.49733" lon="6.37571">
        <ele>305</ele>
        <time>2022-01-21T13:12:55.000Z</time>
      </trkpt>
      <trkpt lat="43.49732" lon="6.37571">
        <ele>305</ele>
        <time>2022-01-21T13:12:56.000Z</time>
      </trkpt>
      <trkpt lat="43.49732" lon="6.37571">
        <ele>305</ele>
        <time>2022-01-21T13:12:57.000Z</time>
      </trkpt>
      <trkpt lat="43.49732" lon="6.37571">
        <ele>305</ele>
        <time>2022-01-21T13:12:58.000Z</time>
      </trkpt>
      <trkpt lat="43.49732" lon="6.37572">
        <ele>305</ele>
        <time>2022-01-21T13:12:59.000Z</time>
      </trkpt>
      <trkpt lat="43.49732" lon="6.37572">
        <ele>305</ele>
        <time>2022-01-21T13:13:00.000Z</time>
      </trkpt>
      <trkpt lat="43.49732" lon="6.37572">
        <ele>305</ele>
        <time>2022-01-21T13:13:01.000Z</time>
      </trkpt>
      <trkpt lat="43.49732" lon="6.37572">
        <ele>305</ele>
        <time>2022-01-21T13:13:02.000Z</time>
      </trkpt>
      <trkpt lat="43.49732" lon="6.37572">
        <ele>305</ele>
        <time>2022-01-21T13:13:03.000Z</time>
      </trkpt>
      <trkpt lat="43.49732" lon="6.37572">
        <ele>305</ele>
        <time>2022-01-21T13:13:04.000Z</time>
      </trkpt>
      <trkpt lat="43.49732" lon="6.37572">
        <ele>305</ele>
        <time>2022-01-21T13:13:05.000Z</time>
      </trkpt>
      <trkpt lat="43.49732" lon="6.37572">
        <ele>305</ele>
        <time>2022-01-21T13:13:06.000Z</time>
      </trkpt>
      <trkpt lat="43.49732" lon="6.37572">
        <ele>305</ele>
        <time>2022-01-21T13:13:07.000Z</time>
      </trkpt>
      <trkpt lat="43.49732" lon="6.37572">
        <ele>305</ele>
        <time>2022-01-21T13:13:08.000Z</time>
      </trkpt>
      <trkpt lat="43.49732" lon="6.37572">
        <ele>305</ele>
        <time>2022-01-21T13:13:09.000Z</time>
      </trkpt>
      <trkpt lat="43.49732" lon="6.37573">
        <ele>305</ele>
        <time>2022-01-21T13:13:10.000Z</time>
      </trkpt>
      <trkpt lat="43.49732" lon="6.37573">
        <ele>305</ele>
        <time>2022-01-21T13:13:11.000Z</time>
      </trkpt>
      <trkpt lat="43.49732" lon="6.37574">
        <ele>304</ele>
        <time>2022-01-21T13:13:12.000Z</time>
      </trkpt>
      <trkpt lat="43.49731" lon="6.37575">
        <ele>304</ele>
        <time>2022-01-21T13:13:13.000Z</time>
      </trkpt>
      <trkpt lat="43.49731" lon="6.37576">
        <ele>304</ele>
        <time>2022-01-21T13:13:14.000Z</time>
      </trkpt>
      <trkpt lat="43.49731" lon="6.37577">
        <ele>304</ele>
        <time>2022-01-21T13:13:15.000Z</time>
      </trkpt>
      <trkpt lat="43.4973" lon="6.37578">
        <ele>304</ele>
        <time>2022-01-21T13:13:16.000Z</time>
      </trkpt>
      <trkpt lat="43.4973" lon="6.37579">
        <ele>304</ele>
        <time>2022-01-21T13:13:17.000Z</time>
      </trkpt>
      <trkpt lat="43.4973" lon="6.37579">
        <ele>304</ele>
        <time>2022-01-21T13:13:18.000Z</time>
      </trkpt>
      <trkpt lat="43.4973" lon="6.3758">
        <ele>304</ele>
        <time>2022-01-21T13:13:19.000Z</time>
      </trkpt>
      <trkpt lat="43.4973" lon="6.37581">
        <ele>304</ele>
        <time>2022-01-21T13:13:20.000Z</time>
      </trkpt>
      <trkpt lat="43.4973" lon="6.37582">
        <ele>304</ele>
        <time>2022-01-21T13:13:21.000Z</time>
      </trkpt>
      <trkpt lat="43.4973" lon="6.37583">
        <ele>304</ele>
        <time>2022-01-21T13:13:22.000Z</time>
      </trkpt>
      <trkpt lat="43.49729" lon="6.37584">
        <ele>304</ele>
        <time>2022-01-21T13:13:23.000Z</time>
      </trkpt>
      <trkpt lat="43.49729" lon="6.37585">
        <ele>304</ele>
        <time>2022-01-21T13:13:24.000Z</time>
      </trkpt>
      <trkpt lat="43.49729" lon="6.37586">
        <ele>304</ele>
        <time>2022-01-21T13:13:25.000Z</time>
      </trkpt>
      <trkpt lat="43.49728" lon="6.37587">
        <ele>304</ele>
        <time>2022-01-21T13:13:26.000Z</time>
      </trkpt>
      <trkpt lat="43.49728" lon="6.37587">
        <ele>304</ele>
        <time>2022-01-21T13:13:27.000Z</time>
      </trkpt>
      <trkpt lat="43.49728" lon="6.37588">
        <ele>304</ele>
        <time>2022-01-21T13:13:28.000Z</time>
      </trkpt>
      <trkpt lat="43.49728" lon="6.37589">
        <ele>304</ele>
        <time>2022-01-21T13:13:29.000Z</time>
      </trkpt>
      <trkpt lat="43.49728" lon="6.37589">
        <ele>304</ele>
        <time>2022-01-21T13:13:30.000Z</time>
      </trkpt>
      <trkpt lat="43.49728" lon="6.3759">
        <ele>304</ele>
        <time>2022-01-21T13:13:31.000Z</time>
      </trkpt>
      <trkpt lat="43.49727" lon="6.37591">
        <ele>304</ele>
        <time>2022-01-21T13:13:32.000Z</time>
      </trkpt>
      <trkpt lat="43.49727" lon="6.37592">
        <ele>304</ele>
        <time>2022-01-21T13:13:33.000Z</time>
      </trkpt>
      <trkpt lat="43.49727" lon="6.37593">
        <ele>304</ele>
        <time>2022-01-21T13:13:34.000Z</time>
      </trkpt>
      <trkpt lat="43.49727" lon="6.37594">
        <ele>304</ele>
        <time>2022-01-21T13:13:35.000Z</time>
      </trkpt>
      <trkpt lat="43.49727" lon="6.37594">
        <ele>304</ele>
        <time>2022-01-21T13:13:36.000Z</time>
      </trkpt>
      <trkpt lat="43.49727" lon="6.37595">
        <ele>304</ele>
        <time>2022-01-21T13:13:37.000Z</time>
      </trkpt>
      <trkpt lat="43.49728" lon="6.37597">
        <ele>304</ele>
        <time>2022-01-21T13:13:38.000Z</time>
      </trkpt>
      <trkpt lat="43.49728" lon="6.37599">
        <ele>304</ele>
        <time>2022-01-21T13:13:39.000Z</time>
      </trkpt>
      <trkpt lat="43.49728" lon="6.37602">
        <ele>304</ele>
        <time>2022-01-21T13:13:40.000Z</time>
      </trkpt>
      <trkpt lat="43.49728" lon="6.37604">
        <ele>303</ele>
        <time>2022-01-21T13:13:41.000Z</time>
      </trkpt>
      <trkpt lat="43.49728" lon="6.37606">
        <ele>303</ele>
        <time>2022-01-21T13:13:42.000Z</time>
      </trkpt>
      <trkpt lat="43.49728" lon="6.37607">
        <ele>303</ele>
        <time>2022-01-21T13:13:43.000Z</time>
      </trkpt>
      <trkpt lat="43.49728" lon="6.37608">
        <ele>303</ele>
        <time>2022-01-21T13:13:44.000Z</time>
      </trkpt>
      <trkpt lat="43.49728" lon="6.3761">
        <ele>303</ele>
        <time>2022-01-21T13:13:45.000Z</time>
      </trkpt>
      <trkpt lat="43.49728" lon="6.37611">
        <ele>303</ele>
        <time>2022-01-21T13:13:46.000Z</time>
      </trkpt>
      <trkpt lat="43.49728" lon="6.37613">
        <ele>303</ele>
        <time>2022-01-21T13:13:47.000Z</time>
      </trkpt>
      <trkpt lat="43.49728" lon="6.37615">
        <ele>303</ele>
        <time>2022-01-21T13:13:48.000Z</time>
      </trkpt>
      <trkpt lat="43.49729" lon="6.37617">
        <ele>303</ele>
        <time>2022-01-21T13:13:49.000Z</time>
      </trkpt>
      <trkpt lat="43.49729" lon="6.37619">
        <ele>303</ele>
        <time>2022-01-21T13:13:50.000Z</time>
      </trkpt>
      <trkpt lat="43.4973" lon="6.37621">
        <ele>303</ele>
        <time>2022-01-21T13:13:51.000Z</time>
      </trkpt>
      <trkpt lat="43.49729" lon="6.37623">
        <ele>303</ele>
        <time>2022-01-21T13:13:52.000Z</time>
      </trkpt>
      <trkpt lat="43.49729" lon="6.37625">
        <ele>303</ele>
        <time>2022-01-21T13:13:53.000Z</time>
      </trkpt>
      <trkpt lat="43.49729" lon="6.37626">
        <ele>303</ele>
        <time>2022-01-21T13:13:54.000Z</time>
      </trkpt>
      <trkpt lat="43.49729" lon="6.37628">
        <ele>303</ele>
        <time>2022-01-21T13:13:55.000Z</time>
      </trkpt>
      <trkpt lat="43.49729" lon="6.3763">
        <ele>303</ele>
        <time>2022-01-21T13:13:56.000Z</time>
      </trkpt>
      <trkpt lat="43.49729" lon="6.37632">
        <ele>303</ele>
        <time>2022-01-21T13:13:57.000Z</time>
      </trkpt>
      <trkpt lat="43.49728" lon="6.37633">
        <ele>303</ele>
        <time>2022-01-21T13:13:58.000Z</time>
      </trkpt>
      <trkpt lat="43.49728" lon="6.37635">
        <ele>303</ele>
        <time>2022-01-21T13:13:59.000Z</time>
      </trkpt>
      <trkpt lat="43.49728" lon="6.37636">
        <ele>303</ele>
        <time>2022-01-21T13:14:00.000Z</time>
      </trkpt>
      <trkpt lat="43.49728" lon="6.37637">
        <ele>302</ele>
        <time>2022-01-21T13:14:01.000Z</time>
      </trkpt>
      <trkpt lat="43.49728" lon="6.37639">
        <ele>302</ele>
        <time>2022-01-21T13:14:02.000Z</time>
      </trkpt>
      <trkpt lat="43.49728" lon="6.3764">
        <ele>302</ele>
        <time>2022-01-21T13:14:03.000Z</time>
      </trkpt>
      <trkpt lat="43.49728" lon="6.37641">
        <ele>302</ele>
        <time>2022-01-21T13:14:04.000Z</time>
      </trkpt>
      <trkpt lat="43.49728" lon="6.37642">
        <ele>302</ele>
        <time>2022-01-21T13:14:05.000Z</time>
      </trkpt>
      <trkpt lat="43.49728" lon="6.37643">
        <ele>302</ele>
        <time>2022-01-21T13:14:06.000Z</time>
      </trkpt>
      <trkpt lat="43.49729" lon="6.37645">
        <ele>302</ele>
        <time>2022-01-21T13:14:07.000Z</time>
      </trkpt>
      <trkpt lat="43.49729" lon="6.37646">
        <ele>302</ele>
        <time>2022-01-21T13:14:08.000Z</time>
      </trkpt>
      <trkpt lat="43.49729" lon="6.37647">
        <ele>303</ele>
        <time>2022-01-21T13:14:09.000Z</time>
      </trkpt>
      <trkpt lat="43.49729" lon="6.37648">
        <ele>303</ele>
        <time>2022-01-21T13:14:10.000Z</time>
      </trkpt>
      <trkpt lat="43.4973" lon="6.37649">
        <ele>303</ele>
        <time>2022-01-21T13:14:11.000Z</time>
      </trkpt>
      <trkpt lat="43.4973" lon="6.37651">
        <ele>303</ele>
        <time>2022-01-21T13:14:12.000Z</time>
      </trkpt>
      <trkpt lat="43.4973" lon="6.37652">
        <ele>303</ele>
        <time>2022-01-21T13:14:13.000Z</time>
      </trkpt>
      <trkpt lat="43.49731" lon="6.37653">
        <ele>303</ele>
        <time>2022-01-21T13:14:14.000Z</time>
      </trkpt>
      <trkpt lat="43.49731" lon="6.37655">
        <ele>303</ele>
        <time>2022-01-21T13:14:15.000Z</time>
      </trkpt>
      <trkpt lat="43.49731" lon="6.37656">
        <ele>303</ele>
        <time>2022-01-21T13:14:16.000Z</time>
      </trkpt>
      <trkpt lat="43.49732" lon="6.37658">
        <ele>303</ele>
        <time>2022-01-21T13:14:17.000Z</time>
      </trkpt>
      <trkpt lat="43.49732" lon="6.37659">
        <ele>303</ele>
        <time>2022-01-21T13:14:18.000Z</time>
      </trkpt>
      <trkpt lat="43.49733" lon="6.3766">
        <ele>303</ele>
        <time>2022-01-21T13:14:19.000Z</time>
      </trkpt>
      <trkpt lat="43.49733" lon="6.37661">
        <ele>303</ele>
        <time>2022-01-21T13:14:20.000Z</time>
      </trkpt>
      <trkpt lat="43.49734" lon="6.37663">
        <ele>303</ele>
        <time>2022-01-21T13:14:21.000Z</time>
      </trkpt>
      <trkpt lat="43.49734" lon="6.37664">
        <ele>303</ele>
        <time>2022-01-21T13:14:22.000Z</time>
      </trkpt>
      <trkpt lat="43.49735" lon="6.37665">
        <ele>303</ele>
        <time>2022-01-21T13:14:23.000Z</time>
      </trkpt>
      <trkpt lat="43.49735" lon="6.37666">
        <ele>303</ele>
        <time>2022-01-21T13:14:24.000Z</time>
      </trkpt>
      <trkpt lat="43.49736" lon="6.37667">
        <ele>303</ele>
        <time>2022-01-21T13:14:25.000Z</time>
      </trkpt>
      <trkpt lat="43.49736" lon="6.37668">
        <ele>303</ele>
        <time>2022-01-21T13:14:26.000Z</time>
      </trkpt>
      <trkpt lat="43.49737" lon="6.37669">
        <ele>303</ele>
        <time>2022-01-21T13:14:27.000Z</time>
      </trkpt>
      <trkpt lat="43.49737" lon="6.37671">
        <ele>303</ele>
        <time>2022-01-21T13:14:28.000Z</time>
      </trkpt>
      <trkpt lat="43.49737" lon="6.37672">
        <ele>303</ele>
        <time>2022-01-21T13:14:29.000Z</time>
      </trkpt>
      <trkpt lat="43.49738" lon="6.37673">
        <ele>303</ele>
        <time>2022-01-21T13:14:30.000Z</time>
      </trkpt>
      <trkpt lat="43.49738" lon="6.37674">
        <ele>303</ele>
        <time>2022-01-21T13:14:31.000Z</time>
      </trkpt>
      <trkpt lat="43.49739" lon="6.37675">
        <ele>303</ele>
        <time>2022-01-21T13:14:32.000Z</time>
      </trkpt>
      <trkpt lat="43.49739" lon="6.37677">
        <ele>303</ele>
        <time>2022-01-21T13:14:33.000Z</time>
      </trkpt>
      <trkpt lat="43.4974" lon="6.37678">
        <ele>303</ele>
        <time>2022-01-21T13:14:34.000Z</time>
      </trkpt>
      <trkpt lat="43.4974" lon="6.37679">
        <ele>303</ele>
        <time>2022-01-21T13:14:35.000Z</time>
      </trkpt>
      <trkpt lat="43.4974" lon="6.3768">
        <ele>303</ele>
        <time>2022-01-21T13:14:36.000Z</time>
      </trkpt>
      <trkpt lat="43.49741" lon="6.37682">
        <ele>303</ele>
        <time>2022-01-21T13:14:37.000Z</time>
      </trkpt>
      <trkpt lat="43.49742" lon="6.37682">
        <ele>303</ele>
        <time>2022-01-21T13:14:38.000Z</time>
      </trkpt>
      <trkpt lat="43.49742" lon="6.37684">
        <ele>303</ele>
        <time>2022-01-21T13:14:39.000Z</time>
      </trkpt>
      <trkpt lat="43.49743" lon="6.37685">
        <ele>303</ele>
        <time>2022-01-21T13:14:40.000Z</time>
      </trkpt>
      <trkpt lat="43.49743" lon="6.37687">
        <ele>303</ele>
        <time>2022-01-21T13:14:41.000Z</time>
      </trkpt>
      <trkpt lat="43.49743" lon="6.37688">
        <ele>303</ele>
        <time>2022-01-21T13:14:42.000Z</time>
      </trkpt>
      <trkpt lat="43.49743" lon="6.37689">
        <ele>303</ele>
        <time>2022-01-21T13:14:43.000Z</time>
      </trkpt>
      <trkpt lat="43.49743" lon="6.37691">
        <ele>303</ele>
        <time>2022-01-21T13:14:44.000Z</time>
      </trkpt>
      <trkpt lat="43.49744" lon="6.37692">
        <ele>303</ele>
        <time>2022-01-21T13:14:45.000Z</time>
      </trkpt>
      <trkpt lat="43.49744" lon="6.37694">
        <ele>303</ele>
        <time>2022-01-21T13:14:46.000Z</time>
      </trkpt>
      <trkpt lat="43.49744" lon="6.37695">
        <ele>303</ele>
        <time>2022-01-21T13:14:47.000Z</time>
      </trkpt>
      <trkpt lat="43.49745" lon="6.37696">
        <ele>303</ele>
        <time>2022-01-21T13:14:48.000Z</time>
      </trkpt>
      <trkpt lat="43.49745" lon="6.37697">
        <ele>303</ele>
        <time>2022-01-21T13:14:49.000Z</time>
      </trkpt>
      <trkpt lat="43.49745" lon="6.37699">
        <ele>303</ele>
        <time>2022-01-21T13:14:50.000Z</time>
      </trkpt>
      <trkpt lat="43.49745" lon="6.377">
        <ele>303</ele>
        <time>2022-01-21T13:14:51.000Z</time>
      </trkpt>
      <trkpt lat="43.49746" lon="6.37701">
        <ele>303</ele>
        <time>2022-01-21T13:14:52.000Z</time>
      </trkpt>
      <trkpt lat="43.49746" lon="6.37702">
        <ele>303</ele>
        <time>2022-01-21T13:14:53.000Z</time>
      </trkpt>
      <trkpt lat="43.49746" lon="6.37704">
        <ele>303</ele>
        <time>2022-01-21T13:14:54.000Z</time>
      </trkpt>
      <trkpt lat="43.49747" lon="6.37705">
        <ele>303</ele>
        <time>2022-01-21T13:14:55.000Z</time>
      </trkpt>
      <trkpt lat="43.49747" lon="6.37706">
        <ele>303</ele>
        <time>2022-01-21T13:14:56.000Z</time>
      </trkpt>
      <trkpt lat="43.49747" lon="6.37707">
        <ele>303</ele>
        <time>2022-01-21T13:14:57.000Z</time>
      </trkpt>
      <trkpt lat="43.49748" lon="6.37708">
        <ele>302</ele>
        <time>2022-01-21T13:14:58.000Z</time>
      </trkpt>
      <trkpt lat="43.49748" lon="6.37709">
        <ele>302</ele>
        <time>2022-01-21T13:14:59.000Z</time>
      </trkpt>
      <trkpt lat="43.49748" lon="6.3771">
        <ele>302</ele>
        <time>2022-01-21T13:15:00.000Z</time>
      </trkpt>
      <trkpt lat="43.49748" lon="6.37711">
        <ele>301</ele>
        <time>2022-01-21T13:15:01.000Z</time>
      </trkpt>
      <trkpt lat="43.49749" lon="6.37712">
        <ele>301</ele>
        <time>2022-01-21T13:15:02.000Z</time>
      </trkpt>
      <trkpt lat="43.49749" lon="6.37713">
        <ele>301</ele>
        <time>2022-01-21T13:15:03.000Z</time>
      </trkpt>
      <trkpt lat="43.49749" lon="6.37714">
        <ele>301</ele>
        <time>2022-01-21T13:15:04.000Z</time>
      </trkpt>
      <trkpt lat="43.4975" lon="6.37715">
        <ele>301</ele>
        <time>2022-01-21T13:15:05.000Z</time>
      </trkpt>
      <trkpt lat="43.49751" lon="6.37716">
        <ele>301</ele>
        <time>2022-01-21T13:15:06.000Z</time>
      </trkpt>
      <trkpt lat="43.49751" lon="6.37718">
        <ele>300</ele>
        <time>2022-01-21T13:15:07.000Z</time>
      </trkpt>
      <trkpt lat="43.49752" lon="6.37719">
        <ele>300</ele>
        <time>2022-01-21T13:15:08.000Z</time>
      </trkpt>
      <trkpt lat="43.49752" lon="6.3772">
        <ele>300</ele>
        <time>2022-01-21T13:15:09.000Z</time>
      </trkpt>
      <trkpt lat="43.49753" lon="6.37721">
        <ele>300</ele>
        <time>2022-01-21T13:15:10.000Z</time>
      </trkpt>
      <trkpt lat="43.49753" lon="6.37722">
        <ele>300</ele>
        <time>2022-01-21T13:15:11.000Z</time>
      </trkpt>
      <trkpt lat="43.49754" lon="6.37723">
        <ele>300</ele>
        <time>2022-01-21T13:15:12.000Z</time>
      </trkpt>
      <trkpt lat="43.49755" lon="6.37724">
        <ele>300</ele>
        <time>2022-01-21T13:15:13.000Z</time>
      </trkpt>
      <trkpt lat="43.49755" lon="6.37725">
        <ele>300</ele>
        <time>2022-01-21T13:15:14.000Z</time>
      </trkpt>
      <trkpt lat="43.49756" lon="6.37726">
        <ele>300</ele>
        <time>2022-01-21T13:15:15.000Z</time>
      </trkpt>
      <trkpt lat="43.49757" lon="6.37727">
        <ele>300</ele>
        <time>2022-01-21T13:15:16.000Z</time>
      </trkpt>
      <trkpt lat="43.49758" lon="6.37727">
        <ele>300</ele>
        <time>2022-01-21T13:15:17.000Z</time>
      </trkpt>
      <trkpt lat="43.49759" lon="6.37728">
        <ele>300</ele>
        <time>2022-01-21T13:15:18.000Z</time>
      </trkpt>
      <trkpt lat="43.49759" lon="6.37729">
        <ele>300</ele>
        <time>2022-01-21T13:15:19.000Z</time>
      </trkpt>
      <trkpt lat="43.4976" lon="6.37729">
        <ele>300</ele>
        <time>2022-01-21T13:15:20.000Z</time>
      </trkpt>
      <trkpt lat="43.49761" lon="6.37729">
        <ele>301</ele>
        <time>2022-01-21T13:15:21.000Z</time>
      </trkpt>
      <trkpt lat="43.49762" lon="6.37729">
        <ele>301</ele>
        <time>2022-01-21T13:15:22.000Z</time>
      </trkpt>
      <trkpt lat="43.49763" lon="6.37729">
        <ele>301</ele>
        <time>2022-01-21T13:15:23.000Z</time>
      </trkpt>
      <trkpt lat="43.49763" lon="6.37729">
        <ele>301</ele>
        <time>2022-01-21T13:15:24.000Z</time>
      </trkpt>
      <trkpt lat="43.49764" lon="6.3773">
        <ele>301</ele>
        <time>2022-01-21T13:15:25.000Z</time>
      </trkpt>
      <trkpt lat="43.49765" lon="6.3773">
        <ele>301</ele>
        <time>2022-01-21T13:15:26.000Z</time>
      </trkpt>
      <trkpt lat="43.49766" lon="6.3773">
        <ele>301</ele>
        <time>2022-01-21T13:15:27.000Z</time>
      </trkpt>
      <trkpt lat="43.49767" lon="6.3773">
        <ele>301</ele>
        <time>2022-01-21T13:15:28.000Z</time>
      </trkpt>
      <trkpt lat="43.49768" lon="6.37731">
        <ele>301</ele>
        <time>2022-01-21T13:15:29.000Z</time>
      </trkpt>
      <trkpt lat="43.49769" lon="6.37731">
        <ele>300</ele>
        <time>2022-01-21T13:15:30.000Z</time>
      </trkpt>
      <trkpt lat="43.49769" lon="6.37731">
        <ele>300</ele>
        <time>2022-01-21T13:15:31.000Z</time>
      </trkpt>
      <trkpt lat="43.4977" lon="6.37731">
        <ele>300</ele>
        <time>2022-01-21T13:15:32.000Z</time>
      </trkpt>
      <trkpt lat="43.49771" lon="6.37731">
        <ele>300</ele>
        <time>2022-01-21T13:15:33.000Z</time>
      </trkpt>
      <trkpt lat="43.49771" lon="6.37731">
        <ele>300</ele>
        <time>2022-01-21T13:15:34.000Z</time>
      </trkpt>
      <trkpt lat="43.49772" lon="6.37732">
        <ele>300</ele>
        <time>2022-01-21T13:15:35.000Z</time>
      </trkpt>
      <trkpt lat="43.49772" lon="6.37732">
        <ele>300</ele>
        <time>2022-01-21T13:15:36.000Z</time>
      </trkpt>
      <trkpt lat="43.49773" lon="6.37733">
        <ele>300</ele>
        <time>2022-01-21T13:15:37.000Z</time>
      </trkpt>
      <trkpt lat="43.49774" lon="6.37734">
        <ele>300</ele>
        <time>2022-01-21T13:15:38.000Z</time>
      </trkpt>
      <trkpt lat="43.49775" lon="6.37734">
        <ele>300</ele>
        <time>2022-01-21T13:15:39.000Z</time>
      </trkpt>
      <trkpt lat="43.49776" lon="6.37735">
        <ele>300</ele>
        <time>2022-01-21T13:15:40.000Z</time>
      </trkpt>
      <trkpt lat="43.49777" lon="6.37735">
        <ele>299</ele>
        <time>2022-01-21T13:15:41.000Z</time>
      </trkpt>
      <trkpt lat="43.49778" lon="6.37736">
        <ele>299</ele>
        <time>2022-01-21T13:15:42.000Z</time>
      </trkpt>
      <trkpt lat="43.49779" lon="6.37736">
        <ele>299</ele>
        <time>2022-01-21T13:15:43.000Z</time>
      </trkpt>
      <trkpt lat="43.49779" lon="6.37736">
        <ele>299</ele>
        <time>2022-01-21T13:15:44.000Z</time>
      </trkpt>
      <trkpt lat="43.4978" lon="6.37736">
        <ele>299</ele>
        <time>2022-01-21T13:15:45.000Z</time>
      </trkpt>
      <trkpt lat="43.49781" lon="6.37736">
        <ele>299</ele>
        <time>2022-01-21T13:15:46.000Z</time>
      </trkpt>
      <trkpt lat="43.49782" lon="6.37736">
        <ele>299</ele>
        <time>2022-01-21T13:15:47.000Z</time>
      </trkpt>
      <trkpt lat="43.49784" lon="6.37736">
        <ele>299</ele>
        <time>2022-01-21T13:15:48.000Z</time>
      </trkpt>
      <trkpt lat="43.49785" lon="6.37735">
        <ele>299</ele>
        <time>2022-01-21T13:15:49.000Z</time>
      </trkpt>
      <trkpt lat="43.49785" lon="6.37735">
        <ele>299</ele>
        <time>2022-01-21T13:15:50.000Z</time>
      </trkpt>
      <trkpt lat="43.49786" lon="6.37735">
        <ele>299</ele>
        <time>2022-01-21T13:15:51.000Z</time>
      </trkpt>
      <trkpt lat="43.49788" lon="6.37735">
        <ele>299</ele>
        <time>2022-01-21T13:15:52.000Z</time>
      </trkpt>
      <trkpt lat="43.49789" lon="6.37735">
        <ele>300</ele>
        <time>2022-01-21T13:15:53.000Z</time>
      </trkpt>
      <trkpt lat="43.4979" lon="6.37735">
        <ele>300</ele>
        <time>2022-01-21T13:15:54.000Z</time>
      </trkpt>
      <trkpt lat="43.49791" lon="6.37734">
        <ele>300</ele>
        <time>2022-01-21T13:15:55.000Z</time>
      </trkpt>
      <trkpt lat="43.49792" lon="6.37734">
        <ele>300</ele>
        <time>2022-01-21T13:15:56.000Z</time>
      </trkpt>
      <trkpt lat="43.49793" lon="6.37733">
        <ele>300</ele>
        <time>2022-01-21T13:15:57.000Z</time>
      </trkpt>
      <trkpt lat="43.49794" lon="6.37732">
        <ele>300</ele>
        <time>2022-01-21T13:15:58.000Z</time>
      </trkpt>
      <trkpt lat="43.49795" lon="6.37731">
        <ele>300</ele>
        <time>2022-01-21T13:15:59.000Z</time>
      </trkpt>
      <trkpt lat="43.49795" lon="6.3773">
        <ele>299</ele>
        <time>2022-01-21T13:16:00.000Z</time>
      </trkpt>
      <trkpt lat="43.49796" lon="6.37729">
        <ele>299</ele>
        <time>2022-01-21T13:16:01.000Z</time>
      </trkpt>
      <trkpt lat="43.49797" lon="6.37728">
        <ele>299</ele>
        <time>2022-01-21T13:16:02.000Z</time>
      </trkpt>
      <trkpt lat="43.49798" lon="6.37727">
        <ele>299</ele>
        <time>2022-01-21T13:16:03.000Z</time>
      </trkpt>
      <trkpt lat="43.49799" lon="6.37727">
        <ele>299</ele>
        <time>2022-01-21T13:16:04.000Z</time>
      </trkpt>
      <trkpt lat="43.498" lon="6.37726">
        <ele>299</ele>
        <time>2022-01-21T13:16:05.000Z</time>
      </trkpt>
      <trkpt lat="43.49801" lon="6.37725">
        <ele>300</ele>
        <time>2022-01-21T13:16:06.000Z</time>
      </trkpt>
      <trkpt lat="43.49803" lon="6.37725">
        <ele>300</ele>
        <time>2022-01-21T13:16:07.000Z</time>
      </trkpt>
      <trkpt lat="43.49804" lon="6.37724">
        <ele>300</ele>
        <time>2022-01-21T13:16:08.000Z</time>
      </trkpt>
      <trkpt lat="43.49805" lon="6.37723">
        <ele>300</ele>
        <time>2022-01-21T13:16:09.000Z</time>
      </trkpt>
      <trkpt lat="43.49806" lon="6.37723">
        <ele>300</ele>
        <time>2022-01-21T13:16:10.000Z</time>
      </trkpt>
      <trkpt lat="43.49807" lon="6.37722">
        <ele>300</ele>
        <time>2022-01-21T13:16:11.000Z</time>
      </trkpt>
      <trkpt lat="43.49808" lon="6.37721">
        <ele>300</ele>
        <time>2022-01-21T13:16:12.000Z</time>
      </trkpt>
      <trkpt lat="43.49809" lon="6.3772">
        <ele>301</ele>
        <time>2022-01-21T13:16:13.000Z</time>
      </trkpt>
      <trkpt lat="43.4981" lon="6.37719">
        <ele>301</ele>
        <time>2022-01-21T13:16:14.000Z</time>
      </trkpt>
      <trkpt lat="43.49811" lon="6.37719">
        <ele>301</ele>
        <time>2022-01-21T13:16:15.000Z</time>
      </trkpt>
      <trkpt lat="43.49813" lon="6.37719">
        <ele>301</ele>
        <time>2022-01-21T13:16:16.000Z</time>
      </trkpt>
      <trkpt lat="43.49814" lon="6.37718">
        <ele>301</ele>
        <time>2022-01-21T13:16:17.000Z</time>
      </trkpt>
      <trkpt lat="43.49815" lon="6.37718">
        <ele>301</ele>
        <time>2022-01-21T13:16:18.000Z</time>
      </trkpt>
      <trkpt lat="43.49817" lon="6.37717">
        <ele>301</ele>
        <time>2022-01-21T13:16:19.000Z</time>
      </trkpt>
      <trkpt lat="43.49818" lon="6.37717">
        <ele>302</ele>
        <time>2022-01-21T13:16:20.000Z</time>
      </trkpt>
      <trkpt lat="43.49819" lon="6.37717">
        <ele>302</ele>
        <time>2022-01-21T13:16:21.000Z</time>
      </trkpt>
      <trkpt lat="43.4982" lon="6.37716">
        <ele>302</ele>
        <time>2022-01-21T13:16:22.000Z</time>
      </trkpt>
      <trkpt lat="43.49821" lon="6.37716">
        <ele>302</ele>
        <time>2022-01-21T13:16:23.000Z</time>
      </trkpt>
      <trkpt lat="43.49822" lon="6.37715">
        <ele>302</ele>
        <time>2022-01-21T13:16:24.000Z</time>
      </trkpt>
      <trkpt lat="43.49823" lon="6.37714">
        <ele>302</ele>
        <time>2022-01-21T13:16:25.000Z</time>
      </trkpt>
      <trkpt lat="43.49824" lon="6.37714">
        <ele>302</ele>
        <time>2022-01-21T13:16:26.000Z</time>
      </trkpt>
      <trkpt lat="43.49825" lon="6.37713">
        <ele>302</ele>
        <time>2022-01-21T13:16:27.000Z</time>
      </trkpt>
      <trkpt lat="43.49826" lon="6.37713">
        <ele>302</ele>
        <time>2022-01-21T13:16:28.000Z</time>
      </trkpt>
      <trkpt lat="43.49827" lon="6.37712">
        <ele>302</ele>
        <time>2022-01-21T13:16:29.000Z</time>
      </trkpt>
      <trkpt lat="43.49828" lon="6.37711">
        <ele>301</ele>
        <time>2022-01-21T13:16:30.000Z</time>
      </trkpt>
      <trkpt lat="43.49829" lon="6.3771">
        <ele>301</ele>
        <time>2022-01-21T13:16:31.000Z</time>
      </trkpt>
      <trkpt lat="43.4983" lon="6.3771">
        <ele>301</ele>
        <time>2022-01-21T13:16:32.000Z</time>
      </trkpt>
      <trkpt lat="43.49831" lon="6.37709">
        <ele>301</ele>
        <time>2022-01-21T13:16:33.000Z</time>
      </trkpt>
      <trkpt lat="43.49832" lon="6.37709">
        <ele>301</ele>
        <time>2022-01-21T13:16:34.000Z</time>
      </trkpt>
      <trkpt lat="43.49833" lon="6.37708">
        <ele>301</ele>
        <time>2022-01-21T13:16:35.000Z</time>
      </trkpt>
      <trkpt lat="43.49834" lon="6.37707">
        <ele>301</ele>
        <time>2022-01-21T13:16:36.000Z</time>
      </trkpt>
      <trkpt lat="43.49835" lon="6.37707">
        <ele>301</ele>
        <time>2022-01-21T13:16:37.000Z</time>
      </trkpt>
      <trkpt lat="43.49837" lon="6.37706">
        <ele>301</ele>
        <time>2022-01-21T13:16:38.000Z</time>
      </trkpt>
      <trkpt lat="43.49838" lon="6.37706">
        <ele>301</ele>
        <time>2022-01-21T13:16:39.000Z</time>
      </trkpt>
      <trkpt lat="43.49839" lon="6.37705">
        <ele>301</ele>
        <time>2022-01-21T13:16:40.000Z</time>
      </trkpt>
      <trkpt lat="43.49839" lon="6.37705">
        <ele>301</ele>
        <time>2022-01-21T13:16:41.000Z</time>
      </trkpt>
      <trkpt lat="43.4984" lon="6.37704">
        <ele>301</ele>
        <time>2022-01-21T13:16:42.000Z</time>
      </trkpt>
      <trkpt lat="43.49841" lon="6.37704">
        <ele>301</ele>
        <time>2022-01-21T13:16:43.000Z</time>
      </trkpt>
      <trkpt lat="43.49842" lon="6.37704">
        <ele>301</ele>
        <time>2022-01-21T13:16:44.000Z</time>
      </trkpt>
      <trkpt lat="43.49843" lon="6.37703">
        <ele>302</ele>
        <time>2022-01-21T13:16:45.000Z</time>
      </trkpt>
      <trkpt lat="43.49844" lon="6.37703">
        <ele>302</ele>
        <time>2022-01-21T13:16:46.000Z</time>
      </trkpt>
      <trkpt lat="43.49845" lon="6.37702">
        <ele>302</ele>
        <time>2022-01-21T13:16:47.000Z</time>
      </trkpt>
      <trkpt lat="43.49846" lon="6.37702">
        <ele>302</ele>
        <time>2022-01-21T13:16:48.000Z</time>
      </trkpt>
      <trkpt lat="43.49846" lon="6.37701">
        <ele>302</ele>
        <time>2022-01-21T13:16:49.000Z</time>
      </trkpt>
      <trkpt lat="43.49847" lon="6.37701">
        <ele>302</ele>
        <time>2022-01-21T13:16:50.000Z</time>
      </trkpt>
      <trkpt lat="43.49848" lon="6.377">
        <ele>302</ele>
        <time>2022-01-21T13:16:51.000Z</time>
      </trkpt>
      <trkpt lat="43.49849" lon="6.377">
        <ele>302</ele>
        <time>2022-01-21T13:16:52.000Z</time>
      </trkpt>
      <trkpt lat="43.49849" lon="6.37698">
        <ele>302</ele>
        <time>2022-01-21T13:16:53.000Z</time>
      </trkpt>
      <trkpt lat="43.4985" lon="6.37697">
        <ele>302</ele>
        <time>2022-01-21T13:16:54.000Z</time>
      </trkpt>
      <trkpt lat="43.49851" lon="6.37696">
        <ele>302</ele>
        <time>2022-01-21T13:16:55.000Z</time>
      </trkpt>
      <trkpt lat="43.49852" lon="6.37695">
        <ele>302</ele>
        <time>2022-01-21T13:16:56.000Z</time>
      </trkpt>
      <trkpt lat="43.49853" lon="6.37695">
        <ele>302</ele>
        <time>2022-01-21T13:16:57.000Z</time>
      </trkpt>
      <trkpt lat="43.49854" lon="6.37694">
        <ele>302</ele>
        <time>2022-01-21T13:16:58.000Z</time>
      </trkpt>
      <trkpt lat="43.49855" lon="6.37694">
        <ele>302</ele>
        <time>2022-01-21T13:16:59.000Z</time>
      </trkpt>
      <trkpt lat="43.49856" lon="6.37694">
        <ele>302</ele>
        <time>2022-01-21T13:17:00.000Z</time>
      </trkpt>
      <trkpt lat="43.49857" lon="6.37693">
        <ele>302</ele>
        <time>2022-01-21T13:17:01.000Z</time>
      </trkpt>
      <trkpt lat="43.49858" lon="6.37692">
        <ele>302</ele>
        <time>2022-01-21T13:17:02.000Z</time>
      </trkpt>
      <trkpt lat="43.49859" lon="6.37691">
        <ele>302</ele>
        <time>2022-01-21T13:17:03.000Z</time>
      </trkpt>
      <trkpt lat="43.4986" lon="6.37691">
        <ele>302</ele>
        <time>2022-01-21T13:17:04.000Z</time>
      </trkpt>
      <trkpt lat="43.49861" lon="6.37691">
        <ele>302</ele>
        <time>2022-01-21T13:17:05.000Z</time>
      </trkpt>
      <trkpt lat="43.49862" lon="6.3769">
        <ele>302</ele>
        <time>2022-01-21T13:17:06.000Z</time>
      </trkpt>
      <trkpt lat="43.49863" lon="6.3769">
        <ele>302</ele>
        <time>2022-01-21T13:17:07.000Z</time>
      </trkpt>
      <trkpt lat="43.49864" lon="6.3769">
        <ele>302</ele>
        <time>2022-01-21T13:17:08.000Z</time>
      </trkpt>
      <trkpt lat="43.49865" lon="6.37689">
        <ele>302</ele>
        <time>2022-01-21T13:17:09.000Z</time>
      </trkpt>
      <trkpt lat="43.49866" lon="6.37689">
        <ele>302</ele>
        <time>2022-01-21T13:17:10.000Z</time>
      </trkpt>
      <trkpt lat="43.49867" lon="6.37689">
        <ele>302</ele>
        <time>2022-01-21T13:17:11.000Z</time>
      </trkpt>
      <trkpt lat="43.49868" lon="6.37688">
        <ele>302</ele>
        <time>2022-01-21T13:17:12.000Z</time>
      </trkpt>
      <trkpt lat="43.49869" lon="6.37688">
        <ele>302</ele>
        <time>2022-01-21T13:17:13.000Z</time>
      </trkpt>
      <trkpt lat="43.4987" lon="6.37687">
        <ele>302</ele>
        <time>2022-01-21T13:17:14.000Z</time>
      </trkpt>
      <trkpt lat="43.49871" lon="6.37687">
        <ele>302</ele>
        <time>2022-01-21T13:17:15.000Z</time>
      </trkpt>
      <trkpt lat="43.49872" lon="6.37687">
        <ele>302</ele>
        <time>2022-01-21T13:17:16.000Z</time>
      </trkpt>
      <trkpt lat="43.49873" lon="6.37687">
        <ele>302</ele>
        <time>2022-01-21T13:17:17.000Z</time>
      </trkpt>
      <trkpt lat="43.49874" lon="6.37687">
        <ele>302</ele>
        <time>2022-01-21T13:17:18.000Z</time>
      </trkpt>
      <trkpt lat="43.49874" lon="6.37687">
        <ele>303</ele>
        <time>2022-01-21T13:17:19.000Z</time>
      </trkpt>
      <trkpt lat="43.49875" lon="6.37686">
        <ele>303</ele>
        <time>2022-01-21T13:17:20.000Z</time>
      </trkpt>
      <trkpt lat="43.49876" lon="6.37686">
        <ele>303</ele>
        <time>2022-01-21T13:17:21.000Z</time>
      </trkpt>
      <trkpt lat="43.49877" lon="6.37685">
        <ele>303</ele>
        <time>2022-01-21T13:17:22.000Z</time>
      </trkpt>
      <trkpt lat="43.49878" lon="6.37685">
        <ele>303</ele>
        <time>2022-01-21T13:17:23.000Z</time>
      </trkpt>
      <trkpt lat="43.49879" lon="6.37684">
        <ele>303</ele>
        <time>2022-01-21T13:17:24.000Z</time>
      </trkpt>
      <trkpt lat="43.4988" lon="6.37684">
        <ele>303</ele>
        <time>2022-01-21T13:17:25.000Z</time>
      </trkpt>
      <trkpt lat="43.4988" lon="6.37684">
        <ele>303</ele>
        <time>2022-01-21T13:17:26.000Z</time>
      </trkpt>
      <trkpt lat="43.49881" lon="6.37683">
        <ele>303</ele>
        <time>2022-01-21T13:17:27.000Z</time>
      </trkpt>
      <trkpt lat="43.49882" lon="6.37683">
        <ele>303</ele>
        <time>2022-01-21T13:17:28.000Z</time>
      </trkpt>
      <trkpt lat="43.49883" lon="6.37682">
        <ele>303</ele>
        <time>2022-01-21T13:17:29.000Z</time>
      </trkpt>
      <trkpt lat="43.49884" lon="6.37681">
        <ele>303</ele>
        <time>2022-01-21T13:17:30.000Z</time>
      </trkpt>
      <trkpt lat="43.49885" lon="6.3768">
        <ele>303</ele>
        <time>2022-01-21T13:17:31.000Z</time>
      </trkpt>
      <trkpt lat="43.49886" lon="6.3768">
        <ele>303</ele>
        <time>2022-01-21T13:17:32.000Z</time>
      </trkpt>
      <trkpt lat="43.49887" lon="6.37679">
        <ele>303</ele>
        <time>2022-01-21T13:17:33.000Z</time>
      </trkpt>
      <trkpt lat="43.49888" lon="6.37679">
        <ele>303</ele>
        <time>2022-01-21T13:17:34.000Z</time>
      </trkpt>
      <trkpt lat="43.49889" lon="6.37678">
        <ele>303</ele>
        <time>2022-01-21T13:17:35.000Z</time>
      </trkpt>
      <trkpt lat="43.4989" lon="6.37677">
        <ele>303</ele>
        <time>2022-01-21T13:17:36.000Z</time>
      </trkpt>
      <trkpt lat="43.49891" lon="6.37676">
        <ele>303</ele>
        <time>2022-01-21T13:17:37.000Z</time>
      </trkpt>
      <trkpt lat="43.49892" lon="6.37676">
        <ele>303</ele>
        <time>2022-01-21T13:17:38.000Z</time>
      </trkpt>
      <trkpt lat="43.49893" lon="6.37675">
        <ele>303</ele>
        <time>2022-01-21T13:17:39.000Z</time>
      </trkpt>
      <trkpt lat="43.49894" lon="6.37674">
        <ele>303</ele>
        <time>2022-01-21T13:17:40.000Z</time>
      </trkpt>
      <trkpt lat="43.49895" lon="6.37674">
        <ele>303</ele>
        <time>2022-01-21T13:17:41.000Z</time>
      </trkpt>
      <trkpt lat="43.49896" lon="6.37673">
        <ele>303</ele>
        <time>2022-01-21T13:17:42.000Z</time>
      </trkpt>
      <trkpt lat="43.49898" lon="6.37673">
        <ele>303</ele>
        <time>2022-01-21T13:17:43.000Z</time>
      </trkpt>
      <trkpt lat="43.499" lon="6.37672">
        <ele>303</ele>
        <time>2022-01-21T13:17:44.000Z</time>
      </trkpt>
      <trkpt lat="43.49901" lon="6.37672">
        <ele>303</ele>
        <time>2022-01-21T13:17:45.000Z</time>
      </trkpt>
      <trkpt lat="43.49902" lon="6.37672">
        <ele>303</ele>
        <time>2022-01-21T13:17:46.000Z</time>
      </trkpt>
      <trkpt lat="43.49903" lon="6.37671">
        <ele>303</ele>
        <time>2022-01-21T13:17:47.000Z</time>
      </trkpt>
      <trkpt lat="43.49905" lon="6.37671">
        <ele>303</ele>
        <time>2022-01-21T13:17:48.000Z</time>
      </trkpt>
      <trkpt lat="43.49906" lon="6.3767">
        <ele>303</ele>
        <time>2022-01-21T13:17:49.000Z</time>
      </trkpt>
      <trkpt lat="43.49907" lon="6.3767">
        <ele>303</ele>
        <time>2022-01-21T13:17:50.000Z</time>
      </trkpt>
      <trkpt lat="43.49908" lon="6.37669">
        <ele>303</ele>
        <time>2022-01-21T13:17:51.000Z</time>
      </trkpt>
      <trkpt lat="43.4991" lon="6.37668">
        <ele>303</ele>
        <time>2022-01-21T13:17:52.000Z</time>
      </trkpt>
      <trkpt lat="43.49911" lon="6.37668">
        <ele>303</ele>
        <time>2022-01-21T13:17:53.000Z</time>
      </trkpt>
      <trkpt lat="43.49912" lon="6.37667">
        <ele>302</ele>
        <time>2022-01-21T13:17:54.000Z</time>
      </trkpt>
      <trkpt lat="43.49912" lon="6.37666">
        <ele>302</ele>
        <time>2022-01-21T13:17:55.000Z</time>
      </trkpt>
      <trkpt lat="43.49913" lon="6.37666">
        <ele>302</ele>
        <time>2022-01-21T13:17:56.000Z</time>
      </trkpt>
      <trkpt lat="43.49914" lon="6.37665">
        <ele>302</ele>
        <time>2022-01-21T13:17:57.000Z</time>
      </trkpt>
      <trkpt lat="43.49915" lon="6.37664">
        <ele>302</ele>
        <time>2022-01-21T13:17:58.000Z</time>
      </trkpt>
      <trkpt lat="43.49915" lon="6.37663">
        <ele>302</ele>
        <time>2022-01-21T13:17:59.000Z</time>
      </trkpt>
      <trkpt lat="43.49916" lon="6.37662">
        <ele>302</ele>
        <time>2022-01-21T13:18:00.000Z</time>
      </trkpt>
      <trkpt lat="43.49917" lon="6.37662">
        <ele>302</ele>
        <time>2022-01-21T13:18:01.000Z</time>
      </trkpt>
      <trkpt lat="43.49917" lon="6.37661">
        <ele>302</ele>
        <time>2022-01-21T13:18:02.000Z</time>
      </trkpt>
      <trkpt lat="43.49918" lon="6.3766">
        <ele>302</ele>
        <time>2022-01-21T13:18:03.000Z</time>
      </trkpt>
      <trkpt lat="43.49919" lon="6.3766">
        <ele>302</ele>
        <time>2022-01-21T13:18:04.000Z</time>
      </trkpt>
      <trkpt lat="43.49919" lon="6.37659">
        <ele>302</ele>
        <time>2022-01-21T13:18:05.000Z</time>
      </trkpt>
      <trkpt lat="43.4992" lon="6.37658">
        <ele>302</ele>
        <time>2022-01-21T13:18:06.000Z</time>
      </trkpt>
      <trkpt lat="43.49921" lon="6.37658">
        <ele>302</ele>
        <time>2022-01-21T13:18:07.000Z</time>
      </trkpt>
      <trkpt lat="43.49922" lon="6.37657">
        <ele>302</ele>
        <time>2022-01-21T13:18:08.000Z</time>
      </trkpt>
      <trkpt lat="43.49922" lon="6.37657">
        <ele>302</ele>
        <time>2022-01-21T13:18:09.000Z</time>
      </trkpt>
      <trkpt lat="43.49923" lon="6.37656">
        <ele>302</ele>
        <time>2022-01-21T13:18:10.000Z</time>
      </trkpt>
      <trkpt lat="43.49924" lon="6.37655">
        <ele>302</ele>
        <time>2022-01-21T13:18:11.000Z</time>
      </trkpt>
      <trkpt lat="43.49924" lon="6.37655">
        <ele>302</ele>
        <time>2022-01-21T13:18:12.000Z</time>
      </trkpt>
      <trkpt lat="43.49925" lon="6.37654">
        <ele>302</ele>
        <time>2022-01-21T13:18:13.000Z</time>
      </trkpt>
      <trkpt lat="43.49925" lon="6.37653">
        <ele>302</ele>
        <time>2022-01-21T13:18:14.000Z</time>
      </trkpt>
      <trkpt lat="43.49926" lon="6.37653">
        <ele>302</ele>
        <time>2022-01-21T13:18:15.000Z</time>
      </trkpt>
      <trkpt lat="43.49926" lon="6.37652">
        <ele>302</ele>
        <time>2022-01-21T13:18:16.000Z</time>
      </trkpt>
      <trkpt lat="43.49927" lon="6.37652">
        <ele>302</ele>
        <time>2022-01-21T13:18:17.000Z</time>
      </trkpt>
      <trkpt lat="43.49927" lon="6.37652">
        <ele>302</ele>
        <time>2022-01-21T13:18:18.000Z</time>
      </trkpt>
      <trkpt lat="43.49928" lon="6.37652">
        <ele>302</ele>
        <time>2022-01-21T13:18:19.000Z</time>
      </trkpt>
      <trkpt lat="43.49929" lon="6.37651">
        <ele>302</ele>
        <time>2022-01-21T13:18:20.000Z</time>
      </trkpt>
      <trkpt lat="43.49929" lon="6.37651">
        <ele>302</ele>
        <time>2022-01-21T13:18:21.000Z</time>
      </trkpt>
      <trkpt lat="43.4993" lon="6.3765">
        <ele>302</ele>
        <time>2022-01-21T13:18:22.000Z</time>
      </trkpt>
      <trkpt lat="43.4993" lon="6.3765">
        <ele>302</ele>
        <time>2022-01-21T13:18:23.000Z</time>
      </trkpt>
      <trkpt lat="43.49931" lon="6.37649">
        <ele>302</ele>
        <time>2022-01-21T13:18:24.000Z</time>
      </trkpt>
      <trkpt lat="43.49932" lon="6.37648">
        <ele>302</ele>
        <time>2022-01-21T13:18:25.000Z</time>
      </trkpt>
      <trkpt lat="43.49932" lon="6.37647">
        <ele>302</ele>
        <time>2022-01-21T13:18:26.000Z</time>
      </trkpt>
      <trkpt lat="43.49933" lon="6.37646">
        <ele>302</ele>
        <time>2022-01-21T13:18:27.000Z</time>
      </trkpt>
      <trkpt lat="43.49933" lon="6.37645">
        <ele>302</ele>
        <time>2022-01-21T13:18:28.000Z</time>
      </trkpt>
      <trkpt lat="43.49934" lon="6.37645">
        <ele>302</ele>
        <time>2022-01-21T13:18:29.000Z</time>
      </trkpt>
      <trkpt lat="43.49935" lon="6.37644">
        <ele>302</ele>
        <time>2022-01-21T13:18:30.000Z</time>
      </trkpt>
      <trkpt lat="43.49935" lon="6.37643">
        <ele>302</ele>
        <time>2022-01-21T13:18:31.000Z</time>
      </trkpt>
      <trkpt lat="43.49936" lon="6.37642">
        <ele>302</ele>
        <time>2022-01-21T13:18:32.000Z</time>
      </trkpt>
      <trkpt lat="43.49936" lon="6.37642">
        <ele>302</ele>
        <time>2022-01-21T13:18:33.000Z</time>
      </trkpt>
      <trkpt lat="43.49936" lon="6.37641">
        <ele>302</ele>
        <time>2022-01-21T13:18:34.000Z</time>
      </trkpt>
      <trkpt lat="43.49937" lon="6.37641">
        <ele>301</ele>
        <time>2022-01-21T13:18:35.000Z</time>
      </trkpt>
      <trkpt lat="43.49937" lon="6.3764">
        <ele>301</ele>
        <time>2022-01-21T13:18:36.000Z</time>
      </trkpt>
      <trkpt lat="43.49938" lon="6.37639">
        <ele>301</ele>
        <time>2022-01-21T13:18:37.000Z</time>
      </trkpt>
      <trkpt lat="43.49938" lon="6.37639">
        <ele>301</ele>
        <time>2022-01-21T13:18:38.000Z</time>
      </trkpt>
      <trkpt lat="43.49939" lon="6.37638">
        <ele>301</ele>
        <time>2022-01-21T13:18:39.000Z</time>
      </trkpt>
      <trkpt lat="43.49939" lon="6.37638">
        <ele>301</ele>
        <time>2022-01-21T13:18:40.000Z</time>
      </trkpt>
      <trkpt lat="43.4994" lon="6.37637">
        <ele>301</ele>
        <time>2022-01-21T13:18:41.000Z</time>
      </trkpt>
      <trkpt lat="43.4994" lon="6.37636">
        <ele>300</ele>
        <time>2022-01-21T13:18:42.000Z</time>
      </trkpt>
      <trkpt lat="43.49941" lon="6.37635">
        <ele>300</ele>
        <time>2022-01-21T13:18:43.000Z</time>
      </trkpt>
      <trkpt lat="43.49942" lon="6.37634">
        <ele>300</ele>
        <time>2022-01-21T13:18:44.000Z</time>
      </trkpt>
      <trkpt lat="43.49943" lon="6.37633">
        <ele>300</ele>
        <time>2022-01-21T13:18:45.000Z</time>
      </trkpt>
      <trkpt lat="43.49943" lon="6.37632">
        <ele>300</ele>
        <time>2022-01-21T13:18:46.000Z</time>
      </trkpt>
      <trkpt lat="43.49944" lon="6.37632">
        <ele>300</ele>
        <time>2022-01-21T13:18:47.000Z</time>
      </trkpt>
      <trkpt lat="43.49945" lon="6.37631">
        <ele>300</ele>
        <time>2022-01-21T13:18:48.000Z</time>
      </trkpt>
      <trkpt lat="43.49946" lon="6.3763">
        <ele>298</ele>
        <time>2022-01-21T13:18:49.000Z</time>
      </trkpt>
      <trkpt lat="43.49948" lon="6.3763">
        <ele>298</ele>
        <time>2022-01-21T13:18:50.000Z</time>
      </trkpt>
      <trkpt lat="43.49949" lon="6.37629">
        <ele>298</ele>
        <time>2022-01-21T13:18:51.000Z</time>
      </trkpt>
      <trkpt lat="43.4995" lon="6.37628">
        <ele>298</ele>
        <time>2022-01-21T13:18:52.000Z</time>
      </trkpt>
      <trkpt lat="43.4995" lon="6.37627">
        <ele>297</ele>
        <time>2022-01-21T13:18:53.000Z</time>
      </trkpt>
      <trkpt lat="43.49951" lon="6.37626">
        <ele>297</ele>
        <time>2022-01-21T13:18:54.000Z</time>
      </trkpt>
      <trkpt lat="43.49952" lon="6.37626">
        <ele>297</ele>
        <time>2022-01-21T13:18:55.000Z</time>
      </trkpt>
      <trkpt lat="43.49953" lon="6.37625">
        <ele>297</ele>
        <time>2022-01-21T13:18:56.000Z</time>
      </trkpt>
      <trkpt lat="43.49955" lon="6.37624">
        <ele>297</ele>
        <time>2022-01-21T13:18:57.000Z</time>
      </trkpt>
      <trkpt lat="43.49956" lon="6.37623">
        <ele>297</ele>
        <time>2022-01-21T13:18:58.000Z</time>
      </trkpt>
      <trkpt lat="43.49956" lon="6.37622">
        <ele>297</ele>
        <time>2022-01-21T13:18:59.000Z</time>
      </trkpt>
      <trkpt lat="43.49957" lon="6.37621">
        <ele>297</ele>
        <time>2022-01-21T13:19:00.000Z</time>
      </trkpt>
      <trkpt lat="43.49958" lon="6.3762">
        <ele>297</ele>
        <time>2022-01-21T13:19:01.000Z</time>
      </trkpt>
      <trkpt lat="43.49959" lon="6.37618">
        <ele>297</ele>
        <time>2022-01-21T13:19:02.000Z</time>
      </trkpt>
      <trkpt lat="43.4996" lon="6.37618">
        <ele>297</ele>
        <time>2022-01-21T13:19:03.000Z</time>
      </trkpt>
      <trkpt lat="43.49961" lon="6.37617">
        <ele>297</ele>
        <time>2022-01-21T13:19:04.000Z</time>
      </trkpt>
      <trkpt lat="43.49963" lon="6.37617">
        <ele>297</ele>
        <time>2022-01-21T13:19:05.000Z</time>
      </trkpt>
      <trkpt lat="43.49964" lon="6.37616">
        <ele>298</ele>
        <time>2022-01-21T13:19:06.000Z</time>
      </trkpt>
      <trkpt lat="43.49965" lon="6.37615">
        <ele>298</ele>
        <time>2022-01-21T13:19:07.000Z</time>
      </trkpt>
      <trkpt lat="43.49966" lon="6.37615">
        <ele>298</ele>
        <time>2022-01-21T13:19:08.000Z</time>
      </trkpt>
      <trkpt lat="43.49967" lon="6.37614">
        <ele>298</ele>
        <time>2022-01-21T13:19:09.000Z</time>
      </trkpt>
      <trkpt lat="43.49968" lon="6.37612">
        <ele>298</ele>
        <time>2022-01-21T13:19:10.000Z</time>
      </trkpt>
      <trkpt lat="43.49968" lon="6.37611">
        <ele>298</ele>
        <time>2022-01-21T13:19:11.000Z</time>
      </trkpt>
      <trkpt lat="43.49969" lon="6.3761">
        <ele>298</ele>
        <time>2022-01-21T13:19:12.000Z</time>
      </trkpt>
      <trkpt lat="43.4997" lon="6.37608">
        <ele>298</ele>
        <time>2022-01-21T13:19:13.000Z</time>
      </trkpt>
      <trkpt lat="43.4997" lon="6.37607">
        <ele>298</ele>
        <time>2022-01-21T13:19:14.000Z</time>
      </trkpt>
      <trkpt lat="43.49971" lon="6.37606">
        <ele>298</ele>
        <time>2022-01-21T13:19:15.000Z</time>
      </trkpt>
      <trkpt lat="43.49972" lon="6.37604">
        <ele>298</ele>
        <time>2022-01-21T13:19:16.000Z</time>
      </trkpt>
      <trkpt lat="43.49972" lon="6.37603">
        <ele>298</ele>
        <time>2022-01-21T13:19:17.000Z</time>
      </trkpt>
      <trkpt lat="43.49973" lon="6.37602">
        <ele>297</ele>
        <time>2022-01-21T13:19:18.000Z</time>
      </trkpt>
      <trkpt lat="43.49973" lon="6.37601">
        <ele>297</ele>
        <time>2022-01-21T13:19:19.000Z</time>
      </trkpt>
      <trkpt lat="43.49974" lon="6.37599">
        <ele>297</ele>
        <time>2022-01-21T13:19:20.000Z</time>
      </trkpt>
      <trkpt lat="43.49975" lon="6.37597">
        <ele>297</ele>
        <time>2022-01-21T13:19:21.000Z</time>
      </trkpt>
      <trkpt lat="43.49976" lon="6.37596">
        <ele>296</ele>
        <time>2022-01-21T13:19:22.000Z</time>
      </trkpt>
      <trkpt lat="43.49977" lon="6.37595">
        <ele>296</ele>
        <time>2022-01-21T13:19:23.000Z</time>
      </trkpt>
      <trkpt lat="43.49977" lon="6.37593">
        <ele>296</ele>
        <time>2022-01-21T13:19:24.000Z</time>
      </trkpt>
      <trkpt lat="43.49978" lon="6.37592">
        <ele>296</ele>
        <time>2022-01-21T13:19:25.000Z</time>
      </trkpt>
      <trkpt lat="43.49979" lon="6.3759">
        <ele>296</ele>
        <time>2022-01-21T13:19:26.000Z</time>
      </trkpt>
      <trkpt lat="43.49979" lon="6.37589">
        <ele>296</ele>
        <time>2022-01-21T13:19:27.000Z</time>
      </trkpt>
      <trkpt lat="43.4998" lon="6.37587">
        <ele>295</ele>
        <time>2022-01-21T13:19:28.000Z</time>
      </trkpt>
      <trkpt lat="43.49981" lon="6.37586">
        <ele>294</ele>
        <time>2022-01-21T13:19:28.000Z</time>
      </trkpt>
      <trkpt lat="43.49981" lon="6.37585">
        <ele>294</ele>
        <time>2022-01-21T13:19:29.000Z</time>
      </trkpt>
      <trkpt lat="43.49982" lon="6.37583">
        <ele>293</ele>
        <time>2022-01-21T13:19:30.000Z</time>
      </trkpt>
      <trkpt lat="43.49983" lon="6.37582">
        <ele>293</ele>
        <time>2022-01-21T13:19:31.000Z</time>
      </trkpt>
      <trkpt lat="43.49983" lon="6.3758">
        <ele>293</ele>
        <time>2022-01-21T13:19:32.000Z</time>
      </trkpt>
      <trkpt lat="43.49984" lon="6.37579">
        <ele>293</ele>
        <time>2022-01-21T13:19:33.000Z</time>
      </trkpt>
      <trkpt lat="43.49984" lon="6.37578">
        <ele>293</ele>
        <time>2022-01-21T13:19:34.000Z</time>
      </trkpt>
      <trkpt lat="43.49985" lon="6.37576">
        <ele>293</ele>
        <time>2022-01-21T13:19:35.000Z</time>
      </trkpt>
      <trkpt lat="43.49985" lon="6.37575">
        <ele>292</ele>
        <time>2022-01-21T13:19:36.000Z</time>
      </trkpt>
      <trkpt lat="43.49986" lon="6.37573">
        <ele>292</ele>
        <time>2022-01-21T13:19:37.000Z</time>
      </trkpt>
      <trkpt lat="43.49986" lon="6.37572">
        <ele>292</ele>
        <time>2022-01-21T13:19:38.000Z</time>
      </trkpt>
      <trkpt lat="43.49986" lon="6.3757">
        <ele>292</ele>
        <time>2022-01-21T13:19:39.000Z</time>
      </trkpt>
      <trkpt lat="43.49987" lon="6.37569">
        <ele>291</ele>
        <time>2022-01-21T13:19:40.000Z</time>
      </trkpt>
      <trkpt lat="43.49987" lon="6.37567">
        <ele>291</ele>
        <time>2022-01-21T13:19:41.000Z</time>
      </trkpt>
      <trkpt lat="43.49987" lon="6.37565">
        <ele>291</ele>
        <time>2022-01-21T13:19:42.000Z</time>
      </trkpt>
      <trkpt lat="43.49988" lon="6.37563">
        <ele>291</ele>
        <time>2022-01-21T13:19:43.000Z</time>
      </trkpt>
      <trkpt lat="43.49988" lon="6.37562">
        <ele>291</ele>
        <time>2022-01-21T13:19:44.000Z</time>
      </trkpt>
      <trkpt lat="43.49989" lon="6.3756">
        <ele>291</ele>
        <time>2022-01-21T13:19:45.000Z</time>
      </trkpt>
      <trkpt lat="43.49989" lon="6.37559">
        <ele>291</ele>
        <time>2022-01-21T13:19:46.000Z</time>
      </trkpt>
      <trkpt lat="43.49989" lon="6.37557">
        <ele>291</ele>
        <time>2022-01-21T13:19:47.000Z</time>
      </trkpt>
      <trkpt lat="43.4999" lon="6.37556">
        <ele>290</ele>
        <time>2022-01-21T13:19:48.000Z</time>
      </trkpt>
      <trkpt lat="43.4999" lon="6.37555">
        <ele>290</ele>
        <time>2022-01-21T13:19:49.000Z</time>
      </trkpt>
      <trkpt lat="43.49991" lon="6.37553">
        <ele>290</ele>
        <time>2022-01-21T13:19:50.000Z</time>
      </trkpt>
      <trkpt lat="43.49991" lon="6.37552">
        <ele>290</ele>
        <time>2022-01-21T13:19:51.000Z</time>
      </trkpt>
      <trkpt lat="43.49992" lon="6.37551">
        <ele>290</ele>
        <time>2022-01-21T13:19:52.000Z</time>
      </trkpt>
      <trkpt lat="43.49992" lon="6.37549">
        <ele>290</ele>
        <time>2022-01-21T13:19:53.000Z</time>
      </trkpt>
      <trkpt lat="43.49993" lon="6.37548">
        <ele>290</ele>
        <time>2022-01-21T13:19:54.000Z</time>
      </trkpt>
      <trkpt lat="43.49993" lon="6.37547">
        <ele>290</ele>
        <time>2022-01-21T13:19:55.000Z</time>
      </trkpt>
      <trkpt lat="43.49994" lon="6.37546">
        <ele>290</ele>
        <time>2022-01-21T13:19:56.000Z</time>
      </trkpt>
      <trkpt lat="43.49994" lon="6.37545">
        <ele>290</ele>
        <time>2022-01-21T13:19:57.000Z</time>
      </trkpt>
      <trkpt lat="43.49994" lon="6.37544">
        <ele>290</ele>
        <time>2022-01-21T13:19:58.000Z</time>
      </trkpt>
      <trkpt lat="43.49995" lon="6.37543">
        <ele>290</ele>
        <time>2022-01-21T13:19:59.000Z</time>
      </trkpt>
      <trkpt lat="43.49995" lon="6.37541">
        <ele>290</ele>
        <time>2022-01-21T13:20:00.000Z</time>
      </trkpt>
      <trkpt lat="43.49996" lon="6.3754">
        <ele>290</ele>
        <time>2022-01-21T13:20:01.000Z</time>
      </trkpt>
      <trkpt lat="43.49996" lon="6.37539">
        <ele>291</ele>
        <time>2022-01-21T13:20:02.000Z</time>
      </trkpt>
      <trkpt lat="43.49997" lon="6.37538">
        <ele>291</ele>
        <time>2022-01-21T13:20:03.000Z</time>
      </trkpt>
      <trkpt lat="43.49997" lon="6.37537">
        <ele>291</ele>
        <time>2022-01-21T13:20:04.000Z</time>
      </trkpt>
      <trkpt lat="43.49998" lon="6.37535">
        <ele>291</ele>
        <time>2022-01-21T13:20:05.000Z</time>
      </trkpt>
      <trkpt lat="43.49999" lon="6.37534">
        <ele>291</ele>
        <time>2022-01-21T13:20:06.000Z</time>
      </trkpt>
      <trkpt lat="43.49999" lon="6.37532">
        <ele>291</ele>
        <time>2022-01-21T13:20:07.000Z</time>
      </trkpt>
      <trkpt lat="43.49999" lon="6.37531">
        <ele>291</ele>
        <time>2022-01-21T13:20:08.000Z</time>
      </trkpt>
      <trkpt lat="43.5" lon="6.3753">
        <ele>291</ele>
        <time>2022-01-21T13:20:09.000Z</time>
      </trkpt>
      <trkpt lat="43.5" lon="6.37529">
        <ele>291</ele>
        <time>2022-01-21T13:20:10.000Z</time>
      </trkpt>
      <trkpt lat="43.5" lon="6.37528">
        <ele>291</ele>
        <time>2022-01-21T13:20:11.000Z</time>
      </trkpt>
      <trkpt lat="43.5" lon="6.37526">
        <ele>291</ele>
        <time>2022-01-21T13:20:12.000Z</time>
      </trkpt>
      <trkpt lat="43.5" lon="6.37525">
        <ele>290</ele>
        <time>2022-01-21T13:20:13.000Z</time>
      </trkpt>
      <trkpt lat="43.50001" lon="6.37524">
        <ele>290</ele>
        <time>2022-01-21T13:20:14.000Z</time>
      </trkpt>
      <trkpt lat="43.50001" lon="6.37523">
        <ele>290</ele>
        <time>2022-01-21T13:20:15.000Z</time>
      </trkpt>
      <trkpt lat="43.50001" lon="6.37521">
        <ele>290</ele>
        <time>2022-01-21T13:20:16.000Z</time>
      </trkpt>
      <trkpt lat="43.50001" lon="6.3752">
        <ele>290</ele>
        <time>2022-01-21T13:20:17.000Z</time>
      </trkpt>
      <trkpt lat="43.50002" lon="6.37519">
        <ele>290</ele>
        <time>2022-01-21T13:20:18.000Z</time>
      </trkpt>
      <trkpt lat="43.50002" lon="6.37518">
        <ele>290</ele>
        <time>2022-01-21T13:20:19.000Z</time>
      </trkpt>
      <trkpt lat="43.50002" lon="6.37517">
        <ele>290</ele>
        <time>2022-01-21T13:20:20.000Z</time>
      </trkpt>
      <trkpt lat="43.50003" lon="6.37516">
        <ele>290</ele>
        <time>2022-01-21T13:20:21.000Z</time>
      </trkpt>
      <trkpt lat="43.50003" lon="6.37514">
        <ele>290</ele>
        <time>2022-01-21T13:20:22.000Z</time>
      </trkpt>
      <trkpt lat="43.50003" lon="6.37513">
        <ele>290</ele>
        <time>2022-01-21T13:20:23.000Z</time>
      </trkpt>
      <trkpt lat="43.50004" lon="6.37512">
        <ele>290</ele>
        <time>2022-01-21T13:20:24.000Z</time>
      </trkpt>
      <trkpt lat="43.50004" lon="6.3751">
        <ele>289</ele>
        <time>2022-01-21T13:20:25.000Z</time>
      </trkpt>
      <trkpt lat="43.50004" lon="6.37509">
        <ele>289</ele>
        <time>2022-01-21T13:20:26.000Z</time>
      </trkpt>
      <trkpt lat="43.50004" lon="6.37508">
        <ele>289</ele>
        <time>2022-01-21T13:20:27.000Z</time>
      </trkpt>
      <trkpt lat="43.50004" lon="6.37507">
        <ele>289</ele>
        <time>2022-01-21T13:20:28.000Z</time>
      </trkpt>
      <trkpt lat="43.50005" lon="6.37506">
        <ele>289</ele>
        <time>2022-01-21T13:20:29.000Z</time>
      </trkpt>
      <trkpt lat="43.50005" lon="6.37505">
        <ele>289</ele>
        <time>2022-01-21T13:20:30.000Z</time>
      </trkpt>
      <trkpt lat="43.50005" lon="6.37504">
        <ele>289</ele>
        <time>2022-01-21T13:20:31.000Z</time>
      </trkpt>
      <trkpt lat="43.50005" lon="6.37503">
        <ele>289</ele>
        <time>2022-01-21T13:20:32.000Z</time>
      </trkpt>
      <trkpt lat="43.50005" lon="6.37502">
        <ele>288</ele>
        <time>2022-01-21T13:20:33.000Z</time>
      </trkpt>
      <trkpt lat="43.50005" lon="6.37501">
        <ele>288</ele>
        <time>2022-01-21T13:20:34.000Z</time>
      </trkpt>
      <trkpt lat="43.50005" lon="6.375">
        <ele>288</ele>
        <time>2022-01-21T13:20:35.000Z</time>
      </trkpt>
      <trkpt lat="43.50004" lon="6.37499">
        <ele>288</ele>
        <time>2022-01-21T13:20:36.000Z</time>
      </trkpt>
      <trkpt lat="43.50004" lon="6.37497">
        <ele>288</ele>
        <time>2022-01-21T13:20:37.000Z</time>
      </trkpt>
      <trkpt lat="43.50004" lon="6.37496">
        <ele>288</ele>
        <time>2022-01-21T13:20:38.000Z</time>
      </trkpt>
      <trkpt lat="43.50004" lon="6.37494">
        <ele>288</ele>
        <time>2022-01-21T13:20:39.000Z</time>
      </trkpt>
      <trkpt lat="43.50004" lon="6.37493">
        <ele>288</ele>
        <time>2022-01-21T13:20:40.000Z</time>
      </trkpt>
      <trkpt lat="43.50004" lon="6.37491">
        <ele>288</ele>
        <time>2022-01-21T13:20:41.000Z</time>
      </trkpt>
      <trkpt lat="43.50004" lon="6.3749">
        <ele>288</ele>
        <time>2022-01-21T13:20:42.000Z</time>
      </trkpt>
      <trkpt lat="43.50003" lon="6.37488">
        <ele>287</ele>
        <time>2022-01-21T13:20:43.000Z</time>
      </trkpt>
      <trkpt lat="43.50003" lon="6.37487">
        <ele>287</ele>
        <time>2022-01-21T13:20:44.000Z</time>
      </trkpt>
      <trkpt lat="43.50002" lon="6.37485">
        <ele>287</ele>
        <time>2022-01-21T13:20:45.000Z</time>
      </trkpt>
      <trkpt lat="43.50003" lon="6.37484">
        <ele>287</ele>
        <time>2022-01-21T13:20:46.000Z</time>
      </trkpt>
      <trkpt lat="43.50004" lon="6.37482">
        <ele>287</ele>
        <time>2022-01-21T13:20:47.000Z</time>
      </trkpt>
      <trkpt lat="43.50004" lon="6.37481">
        <ele>287</ele>
        <time>2022-01-21T13:20:48.000Z</time>
      </trkpt>
      <trkpt lat="43.50005" lon="6.3748">
        <ele>287</ele>
        <time>2022-01-21T13:20:49.000Z</time>
      </trkpt>
      <trkpt lat="43.50005" lon="6.37479">
        <ele>287</ele>
        <time>2022-01-21T13:20:50.000Z</time>
      </trkpt>
      <trkpt lat="43.50005" lon="6.37478">
        <ele>287</ele>
        <time>2022-01-21T13:20:51.000Z</time>
      </trkpt>
      <trkpt lat="43.50006" lon="6.37477">
        <ele>288</ele>
        <time>2022-01-21T13:20:52.000Z</time>
      </trkpt>
      <trkpt lat="43.50006" lon="6.37476">
        <ele>288</ele>
        <time>2022-01-21T13:20:53.000Z</time>
      </trkpt>
      <trkpt lat="43.50006" lon="6.37475">
        <ele>288</ele>
        <time>2022-01-21T13:20:54.000Z</time>
      </trkpt>
      <trkpt lat="43.50006" lon="6.37474">
        <ele>288</ele>
        <time>2022-01-21T13:20:55.000Z</time>
      </trkpt>
      <trkpt lat="43.50006" lon="6.37473">
        <ele>288</ele>
        <time>2022-01-21T13:20:56.000Z</time>
      </trkpt>
      <trkpt lat="43.50007" lon="6.37472">
        <ele>288</ele>
        <time>2022-01-21T13:20:57.000Z</time>
      </trkpt>
      <trkpt lat="43.50007" lon="6.37471">
        <ele>288</ele>
        <time>2022-01-21T13:20:58.000Z</time>
      </trkpt>
      <trkpt lat="43.50008" lon="6.3747">
        <ele>289</ele>
        <time>2022-01-21T13:20:59.000Z</time>
      </trkpt>
      <trkpt lat="43.50008" lon="6.37469">
        <ele>290</ele>
        <time>2022-01-21T13:21:00.000Z</time>
      </trkpt>
      <trkpt lat="43.50009" lon="6.37468">
        <ele>291</ele>
        <time>2022-01-21T13:21:01.000Z</time>
      </trkpt>
      <trkpt lat="43.50009" lon="6.37466">
        <ele>291</ele>
        <time>2022-01-21T13:21:02.000Z</time>
      </trkpt>
      <trkpt lat="43.5001" lon="6.37465">
        <ele>291</ele>
        <time>2022-01-21T13:21:03.000Z</time>
      </trkpt>
      <trkpt lat="43.5001" lon="6.37464">
        <ele>292</ele>
        <time>2022-01-21T13:21:04.000Z</time>
      </trkpt>
      <trkpt lat="43.50011" lon="6.37463">
        <ele>292</ele>
        <time>2022-01-21T13:21:05.000Z</time>
      </trkpt>
      <trkpt lat="43.50011" lon="6.37462">
        <ele>292</ele>
        <time>2022-01-21T13:21:06.000Z</time>
      </trkpt>
      <trkpt lat="43.50012" lon="6.37461">
        <ele>292</ele>
        <time>2022-01-21T13:21:07.000Z</time>
      </trkpt>
      <trkpt lat="43.50012" lon="6.3746">
        <ele>292</ele>
        <time>2022-01-21T13:21:08.000Z</time>
      </trkpt>
      <trkpt lat="43.50013" lon="6.37459">
        <ele>292</ele>
        <time>2022-01-21T13:21:09.000Z</time>
      </trkpt>
      <trkpt lat="43.50013" lon="6.37458">
        <ele>292</ele>
        <time>2022-01-21T13:21:10.000Z</time>
      </trkpt>
      <trkpt lat="43.50013" lon="6.37457">
        <ele>292</ele>
        <time>2022-01-21T13:21:11.000Z</time>
      </trkpt>
      <trkpt lat="43.50013" lon="6.37456">
        <ele>292</ele>
        <time>2022-01-21T13:21:12.000Z</time>
      </trkpt>
      <trkpt lat="43.50014" lon="6.37455">
        <ele>292</ele>
        <time>2022-01-21T13:21:13.000Z</time>
      </trkpt>
      <trkpt lat="43.50014" lon="6.37454">
        <ele>292</ele>
        <time>2022-01-21T13:21:14.000Z</time>
      </trkpt>
      <trkpt lat="43.50014" lon="6.37453">
        <ele>293</ele>
        <time>2022-01-21T13:21:15.000Z</time>
      </trkpt>
      <trkpt lat="43.50014" lon="6.37452">
        <ele>293</ele>
        <time>2022-01-21T13:21:16.000Z</time>
      </trkpt>
      <trkpt lat="43.50015" lon="6.37451">
        <ele>293</ele>
        <time>2022-01-21T13:21:17.000Z</time>
      </trkpt>
      <trkpt lat="43.50015" lon="6.3745">
        <ele>293</ele>
        <time>2022-01-21T13:21:18.000Z</time>
      </trkpt>
      <trkpt lat="43.50016" lon="6.37449">
        <ele>293</ele>
        <time>2022-01-21T13:21:19.000Z</time>
      </trkpt>
      <trkpt lat="43.50016" lon="6.37447">
        <ele>293</ele>
        <time>2022-01-21T13:21:20.000Z</time>
      </trkpt>
      <trkpt lat="43.50016" lon="6.37446">
        <ele>293</ele>
        <time>2022-01-21T13:21:21.000Z</time>
      </trkpt>
      <trkpt lat="43.50016" lon="6.37445">
        <ele>293</ele>
        <time>2022-01-21T13:21:22.000Z</time>
      </trkpt>
      <trkpt lat="43.50017" lon="6.37444">
        <ele>293</ele>
        <time>2022-01-21T13:21:23.000Z</time>
      </trkpt>
      <trkpt lat="43.50017" lon="6.37443">
        <ele>293</ele>
        <time>2022-01-21T13:21:24.000Z</time>
      </trkpt>
      <trkpt lat="43.50017" lon="6.37442">
        <ele>293</ele>
        <time>2022-01-21T13:21:25.000Z</time>
      </trkpt>
      <trkpt lat="43.50017" lon="6.37441">
        <ele>293</ele>
        <time>2022-01-21T13:21:26.000Z</time>
      </trkpt>
      <trkpt lat="43.50018" lon="6.3744">
        <ele>293</ele>
        <time>2022-01-21T13:21:27.000Z</time>
      </trkpt>
      <trkpt lat="43.50018" lon="6.37439">
        <ele>293</ele>
        <time>2022-01-21T13:21:28.000Z</time>
      </trkpt>
      <trkpt lat="43.50018" lon="6.37438">
        <ele>293</ele>
        <time>2022-01-21T13:21:29.000Z</time>
      </trkpt>
      <trkpt lat="43.50019" lon="6.37437">
        <ele>293</ele>
        <time>2022-01-21T13:21:30.000Z</time>
      </trkpt>
      <trkpt lat="43.50019" lon="6.37435">
        <ele>293</ele>
        <time>2022-01-21T13:21:31.000Z</time>
      </trkpt>
      <trkpt lat="43.50019" lon="6.37434">
        <ele>293</ele>
        <time>2022-01-21T13:21:32.000Z</time>
      </trkpt>
      <trkpt lat="43.5002" lon="6.37433">
        <ele>293</ele>
        <time>2022-01-21T13:21:33.000Z</time>
      </trkpt>
      <trkpt lat="43.5002" lon="6.37432">
        <ele>293</ele>
        <time>2022-01-21T13:21:34.000Z</time>
      </trkpt>
      <trkpt lat="43.5002" lon="6.37431">
        <ele>293</ele>
        <time>2022-01-21T13:21:35.000Z</time>
      </trkpt>
      <trkpt lat="43.50021" lon="6.37429">
        <ele>293</ele>
        <time>2022-01-21T13:21:36.000Z</time>
      </trkpt>
      <trkpt lat="43.50021" lon="6.37428">
        <ele>293</ele>
        <time>2022-01-21T13:21:37.000Z</time>
      </trkpt>
      <trkpt lat="43.50022" lon="6.37427">
        <ele>293</ele>
        <time>2022-01-21T13:21:38.000Z</time>
      </trkpt>
      <trkpt lat="43.50023" lon="6.37426">
        <ele>293</ele>
        <time>2022-01-21T13:21:39.000Z</time>
      </trkpt>
      <trkpt lat="43.50023" lon="6.37424">
        <ele>293</ele>
        <time>2022-01-21T13:21:40.000Z</time>
      </trkpt>
      <trkpt lat="43.50024" lon="6.37423">
        <ele>293</ele>
        <time>2022-01-21T13:21:41.000Z</time>
      </trkpt>
      <trkpt lat="43.50024" lon="6.37422">
        <ele>293</ele>
        <time>2022-01-21T13:21:42.000Z</time>
      </trkpt>
      <trkpt lat="43.50025" lon="6.37421">
        <ele>293</ele>
        <time>2022-01-21T13:21:43.000Z</time>
      </trkpt>
      <trkpt lat="43.50025" lon="6.3742">
        <ele>292</ele>
        <time>2022-01-21T13:21:44.000Z</time>
      </trkpt>
      <trkpt lat="43.50025" lon="6.37418">
        <ele>292</ele>
        <time>2022-01-21T13:21:45.000Z</time>
      </trkpt>
      <trkpt lat="43.50026" lon="6.37417">
        <ele>292</ele>
        <time>2022-01-21T13:21:46.000Z</time>
      </trkpt>
      <trkpt lat="43.50027" lon="6.37416">
        <ele>292</ele>
        <time>2022-01-21T13:21:47.000Z</time>
      </trkpt>
      <trkpt lat="43.50027" lon="6.37415">
        <ele>291</ele>
        <time>2022-01-21T13:21:48.000Z</time>
      </trkpt>
      <trkpt lat="43.50028" lon="6.37413">
        <ele>291</ele>
        <time>2022-01-21T13:21:49.000Z</time>
      </trkpt>
      <trkpt lat="43.50029" lon="6.37412">
        <ele>291</ele>
        <time>2022-01-21T13:21:50.000Z</time>
      </trkpt>
      <trkpt lat="43.50029" lon="6.37411">
        <ele>291</ele>
        <time>2022-01-21T13:21:51.000Z</time>
      </trkpt>
      <trkpt lat="43.5003" lon="6.3741">
        <ele>291</ele>
        <time>2022-01-21T13:21:52.000Z</time>
      </trkpt>
      <trkpt lat="43.5003" lon="6.37409">
        <ele>291</ele>
        <time>2022-01-21T13:21:53.000Z</time>
      </trkpt>
      <trkpt lat="43.50031" lon="6.37408">
        <ele>291</ele>
        <time>2022-01-21T13:21:54.000Z</time>
      </trkpt>
      <trkpt lat="43.50032" lon="6.37407">
        <ele>290</ele>
        <time>2022-01-21T13:21:55.000Z</time>
      </trkpt>
      <trkpt lat="43.50032" lon="6.37405">
        <ele>290</ele>
        <time>2022-01-21T13:21:56.000Z</time>
      </trkpt>
      <trkpt lat="43.50033" lon="6.37404">
        <ele>290</ele>
        <time>2022-01-21T13:21:57.000Z</time>
      </trkpt>
      <trkpt lat="43.50034" lon="6.37403">
        <ele>290</ele>
        <time>2022-01-21T13:21:58.000Z</time>
      </trkpt>
      <trkpt lat="43.50035" lon="6.37402">
        <ele>290</ele>
        <time>2022-01-21T13:21:59.000Z</time>
      </trkpt>
      <trkpt lat="43.50035" lon="6.37401">
        <ele>290</ele>
        <time>2022-01-21T13:22:00.000Z</time>
      </trkpt>
      <trkpt lat="43.50036" lon="6.374">
        <ele>290</ele>
        <time>2022-01-21T13:22:01.000Z</time>
      </trkpt>
      <trkpt lat="43.50037" lon="6.37399">
        <ele>290</ele>
        <time>2022-01-21T13:22:02.000Z</time>
      </trkpt>
      <trkpt lat="43.50037" lon="6.37398">
        <ele>290</ele>
        <time>2022-01-21T13:22:03.000Z</time>
      </trkpt>
      <trkpt lat="43.50038" lon="6.37398">
        <ele>289</ele>
        <time>2022-01-21T13:22:04.000Z</time>
      </trkpt>
      <trkpt lat="43.5004" lon="6.37397">
        <ele>288</ele>
        <time>2022-01-21T13:22:05.000Z</time>
      </trkpt>
      <trkpt lat="43.50041" lon="6.37397">
        <ele>288</ele>
        <time>2022-01-21T13:22:06.000Z</time>
      </trkpt>
      <trkpt lat="43.50042" lon="6.37396">
        <ele>288</ele>
        <time>2022-01-21T13:22:07.000Z</time>
      </trkpt>
      <trkpt lat="43.50043" lon="6.37396">
        <ele>288</ele>
        <time>2022-01-21T13:22:08.000Z</time>
      </trkpt>
      <trkpt lat="43.50044" lon="6.37396">
        <ele>288</ele>
        <time>2022-01-21T13:22:09.000Z</time>
      </trkpt>
      <trkpt lat="43.50046" lon="6.37396">
        <ele>288</ele>
        <time>2022-01-21T13:22:10.000Z</time>
      </trkpt>
      <trkpt lat="43.50047" lon="6.37396">
        <ele>288</ele>
        <time>2022-01-21T13:22:11.000Z</time>
      </trkpt>
      <trkpt lat="43.50048" lon="6.37396">
        <ele>287</ele>
        <time>2022-01-21T13:22:12.000Z</time>
      </trkpt>
      <trkpt lat="43.50049" lon="6.37396">
        <ele>286</ele>
        <time>2022-01-21T13:22:13.000Z</time>
      </trkpt>
      <trkpt lat="43.5005" lon="6.37396">
        <ele>286</ele>
        <time>2022-01-21T13:22:14.000Z</time>
      </trkpt>
      <trkpt lat="43.50051" lon="6.37396">
        <ele>286</ele>
        <time>2022-01-21T13:22:15.000Z</time>
      </trkpt>
      <trkpt lat="43.50052" lon="6.37396">
        <ele>286</ele>
        <time>2022-01-21T13:22:16.000Z</time>
      </trkpt>
      <trkpt lat="43.50053" lon="6.37396">
        <ele>286</ele>
        <time>2022-01-21T13:22:17.000Z</time>
      </trkpt>
      <trkpt lat="43.50054" lon="6.37395">
        <ele>286</ele>
        <time>2022-01-21T13:22:18.000Z</time>
      </trkpt>
      <trkpt lat="43.50055" lon="6.37395">
        <ele>286</ele>
        <time>2022-01-21T13:22:19.000Z</time>
      </trkpt>
      <trkpt lat="43.50056" lon="6.37396">
        <ele>285</ele>
        <time>2022-01-21T13:22:20.000Z</time>
      </trkpt>
      <trkpt lat="43.50057" lon="6.37397">
        <ele>285</ele>
        <time>2022-01-21T13:22:21.000Z</time>
      </trkpt>
      <trkpt lat="43.50058" lon="6.37397">
        <ele>285</ele>
        <time>2022-01-21T13:22:22.000Z</time>
      </trkpt>
      <trkpt lat="43.50059" lon="6.37397">
        <ele>285</ele>
        <time>2022-01-21T13:22:23.000Z</time>
      </trkpt>
      <trkpt lat="43.5006" lon="6.37396">
        <ele>285</ele>
        <time>2022-01-21T13:22:24.000Z</time>
      </trkpt>
      <trkpt lat="43.5006" lon="6.37395">
        <ele>285</ele>
        <time>2022-01-21T13:22:25.000Z</time>
      </trkpt>
      <trkpt lat="43.50061" lon="6.37395">
        <ele>285</ele>
        <time>2022-01-21T13:22:26.000Z</time>
      </trkpt>
      <trkpt lat="43.50062" lon="6.37395">
        <ele>285</ele>
        <time>2022-01-21T13:22:27.000Z</time>
      </trkpt>
      <trkpt lat="43.50063" lon="6.37395">
        <ele>285</ele>
        <time>2022-01-21T13:22:28.000Z</time>
      </trkpt>
      <trkpt lat="43.50064" lon="6.37395">
        <ele>284</ele>
        <time>2022-01-21T13:22:29.000Z</time>
      </trkpt>
      <trkpt lat="43.50065" lon="6.37394">
        <ele>284</ele>
        <time>2022-01-21T13:22:30.000Z</time>
      </trkpt>
      <trkpt lat="43.50066" lon="6.37394">
        <ele>284</ele>
        <time>2022-01-21T13:22:31.000Z</time>
      </trkpt>
      <trkpt lat="43.50067" lon="6.37394">
        <ele>284</ele>
        <time>2022-01-21T13:22:32.000Z</time>
      </trkpt>
      <trkpt lat="43.50069" lon="6.37394">
        <ele>284</ele>
        <time>2022-01-21T13:22:33.000Z</time>
      </trkpt>
      <trkpt lat="43.5007" lon="6.37394">
        <ele>283</ele>
        <time>2022-01-21T13:22:34.000Z</time>
      </trkpt>
      <trkpt lat="43.50071" lon="6.37393">
        <ele>283</ele>
        <time>2022-01-21T13:22:35.000Z</time>
      </trkpt>
      <trkpt lat="43.50072" lon="6.37393">
        <ele>283</ele>
        <time>2022-01-21T13:22:36.000Z</time>
      </trkpt>
      <trkpt lat="43.50073" lon="6.37393">
        <ele>283</ele>
        <time>2022-01-21T13:22:37.000Z</time>
      </trkpt>
      <trkpt lat="43.50074" lon="6.37393">
        <ele>283</ele>
        <time>2022-01-21T13:22:38.000Z</time>
      </trkpt>
      <trkpt lat="43.50075" lon="6.37392">
        <ele>283</ele>
        <time>2022-01-21T13:22:39.000Z</time>
      </trkpt>
      <trkpt lat="43.50076" lon="6.37392">
        <ele>283</ele>
        <time>2022-01-21T13:22:40.000Z</time>
      </trkpt>
      <trkpt lat="43.50077" lon="6.37392">
        <ele>283</ele>
        <time>2022-01-21T13:22:41.000Z</time>
      </trkpt>
      <trkpt lat="43.50078" lon="6.37392">
        <ele>283</ele>
        <time>2022-01-21T13:22:42.000Z</time>
      </trkpt>
      <trkpt lat="43.50079" lon="6.37391">
        <ele>283</ele>
        <time>2022-01-21T13:22:43.000Z</time>
      </trkpt>
      <trkpt lat="43.50081" lon="6.37391">
        <ele>283</ele>
        <time>2022-01-21T13:22:44.000Z</time>
      </trkpt>
      <trkpt lat="43.50082" lon="6.3739">
        <ele>282</ele>
        <time>2022-01-21T13:22:45.000Z</time>
      </trkpt>
      <trkpt lat="43.50083" lon="6.3739">
        <ele>282</ele>
        <time>2022-01-21T13:22:46.000Z</time>
      </trkpt>
      <trkpt lat="43.50084" lon="6.3739">
        <ele>282</ele>
        <time>2022-01-21T13:22:47.000Z</time>
      </trkpt>
      <trkpt lat="43.50085" lon="6.37391">
        <ele>282</ele>
        <time>2022-01-21T13:22:48.000Z</time>
      </trkpt>
      <trkpt lat="43.50086" lon="6.37392">
        <ele>282</ele>
        <time>2022-01-21T13:22:49.000Z</time>
      </trkpt>
      <trkpt lat="43.50087" lon="6.37392">
        <ele>282</ele>
        <time>2022-01-21T13:22:50.000Z</time>
      </trkpt>
      <trkpt lat="43.50089" lon="6.37393">
        <ele>282</ele>
        <time>2022-01-21T13:22:51.000Z</time>
      </trkpt>
      <trkpt lat="43.5009" lon="6.37395">
        <ele>281</ele>
        <time>2022-01-21T13:22:52.000Z</time>
      </trkpt>
      <trkpt lat="43.50091" lon="6.37396">
        <ele>281</ele>
        <time>2022-01-21T13:22:53.000Z</time>
      </trkpt>
      <trkpt lat="43.50091" lon="6.37398">
        <ele>281</ele>
        <time>2022-01-21T13:22:54.000Z</time>
      </trkpt>
      <trkpt lat="43.50091" lon="6.37399">
        <ele>281</ele>
        <time>2022-01-21T13:22:55.000Z</time>
      </trkpt>
      <trkpt lat="43.5009" lon="6.374">
        <ele>281</ele>
        <time>2022-01-21T13:22:56.000Z</time>
      </trkpt>
      <trkpt lat="43.5009" lon="6.37401">
        <ele>280</ele>
        <time>2022-01-21T13:22:57.000Z</time>
      </trkpt>
      <trkpt lat="43.5009" lon="6.37402">
        <ele>280</ele>
        <time>2022-01-21T13:22:58.000Z</time>
      </trkpt>
      <trkpt lat="43.5009" lon="6.37402">
        <ele>280</ele>
        <time>2022-01-21T13:22:59.000Z</time>
      </trkpt>
      <trkpt lat="43.5009" lon="6.37403">
        <ele>280</ele>
        <time>2022-01-21T13:23:00.000Z</time>
      </trkpt>
      <trkpt lat="43.5009" lon="6.37404">
        <ele>280</ele>
        <time>2022-01-21T13:23:01.000Z</time>
      </trkpt>
      <trkpt lat="43.5009" lon="6.37405">
        <ele>280</ele>
        <time>2022-01-21T13:23:02.000Z</time>
      </trkpt>
      <trkpt lat="43.5009" lon="6.37406">
        <ele>280</ele>
        <time>2022-01-21T13:23:03.000Z</time>
      </trkpt>
      <trkpt lat="43.5009" lon="6.37407">
        <ele>280</ele>
        <time>2022-01-21T13:23:04.000Z</time>
      </trkpt>
      <trkpt lat="43.5009" lon="6.37408">
        <ele>280</ele>
        <time>2022-01-21T13:23:05.000Z</time>
      </trkpt>
      <trkpt lat="43.5009" lon="6.37409">
        <ele>280</ele>
        <time>2022-01-21T13:23:06.000Z</time>
      </trkpt>
      <trkpt lat="43.5009" lon="6.3741">
        <ele>279</ele>
        <time>2022-01-21T13:23:07.000Z</time>
      </trkpt>
      <trkpt lat="43.5009" lon="6.37411">
        <ele>279</ele>
        <time>2022-01-21T13:23:08.000Z</time>
      </trkpt>
      <trkpt lat="43.5009" lon="6.37411">
        <ele>279</ele>
        <time>2022-01-21T13:23:09.000Z</time>
      </trkpt>
      <trkpt lat="43.5009" lon="6.37411">
        <ele>278</ele>
        <time>2022-01-21T13:23:10.000Z</time>
      </trkpt>
      <trkpt lat="43.5009" lon="6.37412">
        <ele>278</ele>
        <time>2022-01-21T13:23:11.000Z</time>
      </trkpt>
      <trkpt lat="43.5009" lon="6.37412">
        <ele>278</ele>
        <time>2022-01-21T13:23:12.000Z</time>
      </trkpt>
      <trkpt lat="43.5009" lon="6.37412">
        <ele>278</ele>
        <time>2022-01-21T13:23:13.000Z</time>
      </trkpt>
      <trkpt lat="43.5009" lon="6.37412">
        <ele>278</ele>
        <time>2022-01-21T13:23:14.000Z</time>
      </trkpt>
      <trkpt lat="43.5009" lon="6.37412">
        <ele>278</ele>
        <time>2022-01-21T13:23:15.000Z</time>
      </trkpt>
      <trkpt lat="43.5009" lon="6.37412">
        <ele>278</ele>
        <time>2022-01-21T13:23:16.000Z</time>
      </trkpt>
      <trkpt lat="43.5009" lon="6.37412">
        <ele>278</ele>
        <time>2022-01-21T13:23:17.000Z</time>
      </trkpt>
      <trkpt lat="43.5009" lon="6.37412">
        <ele>278</ele>
        <time>2022-01-21T13:23:18.000Z</time>
      </trkpt>
      <trkpt lat="43.5009" lon="6.37412">
        <ele>278</ele>
        <time>2022-01-21T13:23:19.000Z</time>
      </trkpt>
      <trkpt lat="43.5009" lon="6.37412">
        <ele>278</ele>
        <time>2022-01-21T13:23:20.000Z</time>
      </trkpt>
      <trkpt lat="43.5009" lon="6.37412">
        <ele>278</ele>
        <time>2022-01-21T13:23:21.000Z</time>
      </trkpt>
      <trkpt lat="43.5009" lon="6.37412">
        <ele>278</ele>
        <time>2022-01-21T13:23:22.000Z</time>
      </trkpt>
      <trkpt lat="43.5009" lon="6.37412">
        <ele>278</ele>
        <time>2022-01-21T13:23:23.000Z</time>
      </trkpt>
      <trkpt lat="43.5009" lon="6.37412">
        <ele>278</ele>
        <time>2022-01-21T13:23:24.000Z</time>
      </trkpt>
      <trkpt lat="43.5009" lon="6.37412">
        <ele>278</ele>
        <time>2022-01-21T13:23:25.000Z</time>
      </trkpt>
      <trkpt lat="43.5009" lon="6.37412">
        <ele>278</ele>
        <time>2022-01-21T13:23:26.000Z</time>
      </trkpt>
      <trkpt lat="43.5009" lon="6.37412">
        <ele>278</ele>
        <time>2022-01-21T13:23:27.000Z</time>
      </trkpt>
      <trkpt lat="43.5009" lon="6.37412">
        <ele>278</ele>
        <time>2022-01-21T13:23:28.000Z</time>
      </trkpt>
      <trkpt lat="43.5009" lon="6.37412">
        <ele>278</ele>
        <time>2022-01-21T13:23:29.000Z</time>
      </trkpt>
      <trkpt lat="43.5009" lon="6.37412">
        <ele>278</ele>
        <time>2022-01-21T13:23:30.000Z</time>
      </trkpt>
      <trkpt lat="43.5009" lon="6.37412">
        <ele>278</ele>
        <time>2022-01-21T13:23:31.000Z</time>
      </trkpt>
      <trkpt lat="43.5009" lon="6.37412">
        <ele>278</ele>
        <time>2022-01-21T13:23:32.000Z</time>
      </trkpt>
      <trkpt lat="43.5009" lon="6.37412">
        <ele>278</ele>
        <time>2022-01-21T13:23:33.000Z</time>
      </trkpt>
      <trkpt lat="43.5009" lon="6.37412">
        <ele>278</ele>
        <time>2022-01-21T13:23:34.000Z</time>
      </trkpt>
      <trkpt lat="43.5009" lon="6.37412">
        <ele>278</ele>
        <time>2022-01-21T13:23:35.000Z</time>
      </trkpt>
      <trkpt lat="43.5009" lon="6.37412">
        <ele>278</ele>
        <time>2022-01-21T13:23:36.000Z</time>
      </trkpt>
      <trkpt lat="43.5009" lon="6.37412">
        <ele>278</ele>
        <time>2022-01-21T13:23:37.000Z</time>
      </trkpt>
      <trkpt lat="43.5009" lon="6.37412">
        <ele>278</ele>
        <time>2022-01-21T13:23:38.000Z</time>
      </trkpt>
      <trkpt lat="43.5009" lon="6.37412">
        <ele>278</ele>
        <time>2022-01-21T13:23:39.000Z</time>
      </trkpt>
      <trkpt lat="43.5009" lon="6.37412">
        <ele>278</ele>
        <time>2022-01-21T13:23:40.000Z</time>
      </trkpt>
      <trkpt lat="43.5009" lon="6.37412">
        <ele>278</ele>
        <time>2022-01-21T13:23:41.000Z</time>
      </trkpt>
      <trkpt lat="43.5009" lon="6.37412">
        <ele>278</ele>
        <time>2022-01-21T13:23:42.000Z</time>
      </trkpt>
      <trkpt lat="43.5009" lon="6.37412">
        <ele>278</ele>
        <time>2022-01-21T13:23:43.000Z</time>
      </trkpt>
      <trkpt lat="43.5009" lon="6.37412">
        <ele>278</ele>
        <time>2022-01-21T13:23:44.000Z</time>
      </trkpt>
      <trkpt lat="43.5009" lon="6.37412">
        <ele>278</ele>
        <time>2022-01-21T13:23:45.000Z</time>
      </trkpt>
      <trkpt lat="43.5009" lon="6.37412">
        <ele>278</ele>
        <time>2022-01-21T13:23:46.000Z</time>
      </trkpt>
      <trkpt lat="43.5009" lon="6.37412">
        <ele>278</ele>
        <time>2022-01-21T13:23:47.000Z</time>
      </trkpt>
      <trkpt lat="43.5009" lon="6.37412">
        <ele>278</ele>
        <time>2022-01-21T13:23:48.000Z</time>
      </trkpt>
      <trkpt lat="43.5009" lon="6.37412">
        <ele>278</ele>
        <time>2022-01-21T13:23:49.000Z</time>
      </trkpt>
      <trkpt lat="43.5009" lon="6.37412">
        <ele>278</ele>
        <time>2022-01-21T13:23:50.000Z</time>
      </trkpt>
      <trkpt lat="43.5009" lon="6.37412">
        <ele>278</ele>
        <time>2022-01-21T13:23:51.000Z</time>
      </trkpt>
      <trkpt lat="43.5009" lon="6.37412">
        <ele>278</ele>
        <time>2022-01-21T13:23:52.000Z</time>
      </trkpt>
      <trkpt lat="43.5009" lon="6.37412">
        <ele>278</ele>
        <time>2022-01-21T13:23:53.000Z</time>
      </trkpt>
      <trkpt lat="43.5009" lon="6.37412">
        <ele>278</ele>
        <time>2022-01-21T13:23:54.000Z</time>
      </trkpt>
      <trkpt lat="43.5009" lon="6.37412">
        <ele>278</ele>
        <time>2022-01-21T13:23:55.000Z</time>
      </trkpt>
      <trkpt lat="43.5009" lon="6.37412">
        <ele>278</ele>
        <time>2022-01-21T13:23:56.000Z</time>
      </trkpt>
      <trkpt lat="43.5009" lon="6.37412">
        <ele>278</ele>
        <time>2022-01-21T13:23:57.000Z</time>
      </trkpt>
      <trkpt lat="43.5009" lon="6.37412">
        <ele>278</ele>
        <time>2022-01-21T13:23:58.000Z</time>
      </trkpt>
      <trkpt lat="43.5009" lon="6.37412">
        <ele>278</ele>
        <time>2022-01-21T13:23:59.000Z</time>
      </trkpt>
      <trkpt lat="43.5009" lon="6.37412">
        <ele>278</ele>
        <time>2022-01-21T13:24:00.000Z</time>
      </trkpt>
      <trkpt lat="43.5009" lon="6.37412">
        <ele>278</ele>
        <time>2022-01-21T13:24:01.000Z</time>
      </trkpt>
      <trkpt lat="43.5009" lon="6.37412">
        <ele>278</ele>
        <time>2022-01-21T13:24:02.000Z</time>
      </trkpt>
      <trkpt lat="43.5009" lon="6.37412">
        <ele>278</ele>
        <time>2022-01-21T13:24:03.000Z</time>
      </trkpt>
      <trkpt lat="43.5009" lon="6.37412">
        <ele>278</ele>
        <time>2022-01-21T13:24:04.000Z</time>
      </trkpt>
      <trkpt lat="43.5009" lon="6.37412">
        <ele>278</ele>
        <time>2022-01-21T13:24:05.000Z</time>
      </trkpt>
      <trkpt lat="43.5009" lon="6.37412">
        <ele>278</ele>
        <time>2022-01-21T13:24:06.000Z</time>
      </trkpt>
      <trkpt lat="43.5009" lon="6.37412">
        <ele>278</ele>
        <time>2022-01-21T13:24:07.000Z</time>
      </trkpt>
      <trkpt lat="43.5009" lon="6.37412">
        <ele>278</ele>
        <time>2022-01-21T13:24:08.000Z</time>
      </trkpt>
      <trkpt lat="43.5009" lon="6.37412">
        <ele>278</ele>
        <time>2022-01-21T13:24:09.000Z</time>
      </trkpt>
      <trkpt lat="43.5009" lon="6.37412">
        <ele>278</ele>
        <time>2022-01-21T13:24:10.000Z</time>
      </trkpt>
      <trkpt lat="43.5009" lon="6.37412">
        <ele>278</ele>
        <time>2022-01-21T13:24:11.000Z</time>
      </trkpt>
      <trkpt lat="43.5009" lon="6.37412">
        <ele>278</ele>
        <time>2022-01-21T13:24:12.000Z</time>
      </trkpt>
      <trkpt lat="43.5009" lon="6.37412">
        <ele>278</ele>
        <time>2022-01-21T13:24:13.000Z</time>
      </trkpt>
      <trkpt lat="43.5009" lon="6.37412">
        <ele>278</ele>
        <time>2022-01-21T13:24:14.000Z</time>
      </trkpt>
      <trkpt lat="43.5009" lon="6.37412">
        <ele>278</ele>
        <time>2022-01-21T13:24:15.000Z</time>
      </trkpt>
      <trkpt lat="43.5009" lon="6.37412">
        <ele>278</ele>
        <time>2022-01-21T13:24:16.000Z</time>
      </trkpt>
      <trkpt lat="43.5009" lon="6.37412">
        <ele>278</ele>
        <time>2022-01-21T13:24:17.000Z</time>
      </trkpt>
      <trkpt lat="43.5009" lon="6.37412">
        <ele>278</ele>
        <time>2022-01-21T13:24:18.000Z</time>
      </trkpt>
      <trkpt lat="43.5009" lon="6.37412">
        <ele>278</ele>
        <time>2022-01-21T13:24:19.000Z</time>
      </trkpt>
      <trkpt lat="43.5009" lon="6.37412">
        <ele>278</ele>
        <time>2022-01-21T13:24:20.000Z</time>
      </trkpt>
      <trkpt lat="43.5009" lon="6.37412">
        <ele>278</ele>
        <time>2022-01-21T13:24:21.000Z</time>
      </trkpt>
      <trkpt lat="43.5009" lon="6.37412">
        <ele>278</ele>
        <time>2022-01-21T13:24:22.000Z</time>
      </trkpt>
      <trkpt lat="43.5009" lon="6.37412">
        <ele>278</ele>
        <time>2022-01-21T13:24:23.000Z</time>
      </trkpt>
      <trkpt lat="43.5009" lon="6.37412">
        <ele>278</ele>
        <time>2022-01-21T13:24:24.000Z</time>
      </trkpt>
      <trkpt lat="43.5009" lon="6.37412">
        <ele>278</ele>
        <time>2022-01-21T13:24:25.000Z</time>
      </trkpt>
      <trkpt lat="43.5009" lon="6.37412">
        <ele>278</ele>
        <time>2022-01-21T13:24:26.000Z</time>
      </trkpt>
      <trkpt lat="43.5009" lon="6.37412">
        <ele>278</ele>
        <time>2022-01-21T13:24:27.000Z</time>
      </trkpt>
      <trkpt lat="43.50091" lon="6.37413">
        <ele>278</ele>
        <time>2022-01-21T13:24:28.000Z</time>
      </trkpt>
      <trkpt lat="43.50091" lon="6.37414">
        <ele>278</ele>
        <time>2022-01-21T13:24:29.000Z</time>
      </trkpt>
      <trkpt lat="43.50091" lon="6.37415">
        <ele>278</ele>
        <time>2022-01-21T13:24:30.000Z</time>
      </trkpt>
      <trkpt lat="43.50091" lon="6.37417">
        <ele>278</ele>
        <time>2022-01-21T13:24:31.000Z</time>
      </trkpt>
      <trkpt lat="43.5009" lon="6.37419">
        <ele>278</ele>
        <time>2022-01-21T13:24:32.000Z</time>
      </trkpt>
      <trkpt lat="43.50089" lon="6.37421">
        <ele>278</ele>
        <time>2022-01-21T13:24:33.000Z</time>
      </trkpt>
      <trkpt lat="43.50088" lon="6.37423">
        <ele>278</ele>
        <time>2022-01-21T13:24:34.000Z</time>
      </trkpt>
      <trkpt lat="43.50088" lon="6.37424">
        <ele>277</ele>
        <time>2022-01-21T13:24:35.000Z</time>
      </trkpt>
      <trkpt lat="43.50088" lon="6.37426">
        <ele>277</ele>
        <time>2022-01-21T13:24:36.000Z</time>
      </trkpt>
      <trkpt lat="43.50087" lon="6.37426">
        <ele>277</ele>
        <time>2022-01-21T13:24:37.000Z</time>
      </trkpt>
      <trkpt lat="43.50087" lon="6.37427">
        <ele>277</ele>
        <time>2022-01-21T13:24:38.000Z</time>
      </trkpt>
      <trkpt lat="43.50087" lon="6.37428">
        <ele>277</ele>
        <time>2022-01-21T13:24:39.000Z</time>
      </trkpt>
      <trkpt lat="43.50087" lon="6.37429">
        <ele>277</ele>
        <time>2022-01-21T13:24:40.000Z</time>
      </trkpt>
      <trkpt lat="43.50086" lon="6.37431">
        <ele>277</ele>
        <time>2022-01-21T13:24:41.000Z</time>
      </trkpt>
      <trkpt lat="43.50086" lon="6.37433">
        <ele>278</ele>
        <time>2022-01-21T13:24:42.000Z</time>
      </trkpt>
      <trkpt lat="43.50086" lon="6.37434">
        <ele>278</ele>
        <time>2022-01-21T13:24:43.000Z</time>
      </trkpt>
      <trkpt lat="43.50085" lon="6.37435">
        <ele>278</ele>
        <time>2022-01-21T13:24:44.000Z</time>
      </trkpt>
      <trkpt lat="43.50085" lon="6.37437">
        <ele>278</ele>
        <time>2022-01-21T13:24:45.000Z</time>
      </trkpt>
      <trkpt lat="43.50085" lon="6.37438">
        <ele>278</ele>
        <time>2022-01-21T13:24:46.000Z</time>
      </trkpt>
      <trkpt lat="43.50085" lon="6.37439">
        <ele>278</ele>
        <time>2022-01-21T13:24:47.000Z</time>
      </trkpt>
      <trkpt lat="43.50085" lon="6.37441">
        <ele>278</ele>
        <time>2022-01-21T13:24:48.000Z</time>
      </trkpt>
      <trkpt lat="43.50085" lon="6.37442">
        <ele>278</ele>
        <time>2022-01-21T13:24:49.000Z</time>
      </trkpt>
      <trkpt lat="43.50085" lon="6.37443">
        <ele>278</ele>
        <time>2022-01-21T13:24:50.000Z</time>
      </trkpt>
      <trkpt lat="43.50085" lon="6.37445">
        <ele>278</ele>
        <time>2022-01-21T13:24:51.000Z</time>
      </trkpt>
      <trkpt lat="43.50085" lon="6.37447">
        <ele>277</ele>
        <time>2022-01-21T13:24:52.000Z</time>
      </trkpt>
      <trkpt lat="43.50086" lon="6.3745">
        <ele>277</ele>
        <time>2022-01-21T13:24:53.000Z</time>
      </trkpt>
      <trkpt lat="43.50086" lon="6.37452">
        <ele>277</ele>
        <time>2022-01-21T13:24:54.000Z</time>
      </trkpt>
      <trkpt lat="43.50086" lon="6.37454">
        <ele>277</ele>
        <time>2022-01-21T13:24:55.000Z</time>
      </trkpt>
      <trkpt lat="43.50086" lon="6.37455">
        <ele>276</ele>
        <time>2022-01-21T13:24:56.000Z</time>
      </trkpt>
      <trkpt lat="43.50086" lon="6.37457">
        <ele>276</ele>
        <time>2022-01-21T13:24:57.000Z</time>
      </trkpt>
      <trkpt lat="43.50087" lon="6.37459">
        <ele>276</ele>
        <time>2022-01-21T13:24:58.000Z</time>
      </trkpt>
      <trkpt lat="43.50087" lon="6.37461">
        <ele>276</ele>
        <time>2022-01-21T13:24:59.000Z</time>
      </trkpt>
      <trkpt lat="43.50087" lon="6.37462">
        <ele>276</ele>
        <time>2022-01-21T13:25:00.000Z</time>
      </trkpt>
      <trkpt lat="43.50088" lon="6.37463">
        <ele>276</ele>
        <time>2022-01-21T13:25:01.000Z</time>
      </trkpt>
      <trkpt lat="43.50088" lon="6.37464">
        <ele>276</ele>
        <time>2022-01-21T13:25:02.000Z</time>
      </trkpt>
      <trkpt lat="43.50088" lon="6.37466">
        <ele>276</ele>
        <time>2022-01-21T13:25:03.000Z</time>
      </trkpt>
      <trkpt lat="43.50089" lon="6.37467">
        <ele>276</ele>
        <time>2022-01-21T13:25:04.000Z</time>
      </trkpt>
      <trkpt lat="43.50089" lon="6.37468">
        <ele>276</ele>
        <time>2022-01-21T13:25:05.000Z</time>
      </trkpt>
      <trkpt lat="43.50089" lon="6.3747">
        <ele>276</ele>
        <time>2022-01-21T13:25:06.000Z</time>
      </trkpt>
      <trkpt lat="43.5009" lon="6.37471">
        <ele>275</ele>
        <time>2022-01-21T13:25:07.000Z</time>
      </trkpt>
      <trkpt lat="43.5009" lon="6.37472">
        <ele>275</ele>
        <time>2022-01-21T13:25:08.000Z</time>
      </trkpt>
      <trkpt lat="43.5009" lon="6.37473">
        <ele>275</ele>
        <time>2022-01-21T13:25:09.000Z</time>
      </trkpt>
      <trkpt lat="43.5009" lon="6.37475">
        <ele>275</ele>
        <time>2022-01-21T13:25:10.000Z</time>
      </trkpt>
      <trkpt lat="43.50091" lon="6.37476">
        <ele>274</ele>
        <time>2022-01-21T13:25:11.000Z</time>
      </trkpt>
      <trkpt lat="43.50091" lon="6.37478">
        <ele>274</ele>
        <time>2022-01-21T13:25:12.000Z</time>
      </trkpt>
      <trkpt lat="43.50091" lon="6.37479">
        <ele>274</ele>
        <time>2022-01-21T13:25:13.000Z</time>
      </trkpt>
      <trkpt lat="43.50091" lon="6.3748">
        <ele>274</ele>
        <time>2022-01-21T13:25:14.000Z</time>
      </trkpt>
      <trkpt lat="43.50092" lon="6.37482">
        <ele>274</ele>
        <time>2022-01-21T13:25:15.000Z</time>
      </trkpt>
      <trkpt lat="43.50092" lon="6.37483">
        <ele>274</ele>
        <time>2022-01-21T13:25:16.000Z</time>
      </trkpt>
      <trkpt lat="43.50092" lon="6.37483">
        <ele>274</ele>
        <time>2022-01-21T13:25:17.000Z</time>
      </trkpt>
      <trkpt lat="43.50092" lon="6.37484">
        <ele>274</ele>
        <time>2022-01-21T13:25:18.000Z</time>
      </trkpt>
      <trkpt lat="43.50092" lon="6.37485">
        <ele>274</ele>
        <time>2022-01-21T13:25:19.000Z</time>
      </trkpt>
      <trkpt lat="43.50093" lon="6.37486">
        <ele>274</ele>
        <time>2022-01-21T13:25:20.000Z</time>
      </trkpt>
      <trkpt lat="43.50093" lon="6.37487">
        <ele>274</ele>
        <time>2022-01-21T13:25:21.000Z</time>
      </trkpt>
      <trkpt lat="43.50093" lon="6.37489">
        <ele>274</ele>
        <time>2022-01-21T13:25:22.000Z</time>
      </trkpt>
      <trkpt lat="43.50093" lon="6.3749">
        <ele>274</ele>
        <time>2022-01-21T13:25:23.000Z</time>
      </trkpt>
      <trkpt lat="43.50094" lon="6.37491">
        <ele>274</ele>
        <time>2022-01-21T13:25:24.000Z</time>
      </trkpt>
      <trkpt lat="43.50094" lon="6.37492">
        <ele>273</ele>
        <time>2022-01-21T13:25:25.000Z</time>
      </trkpt>
      <trkpt lat="43.50094" lon="6.37493">
        <ele>273</ele>
        <time>2022-01-21T13:25:26.000Z</time>
      </trkpt>
      <trkpt lat="43.50095" lon="6.37494">
        <ele>272</ele>
        <time>2022-01-21T13:25:27.000Z</time>
      </trkpt>
      <trkpt lat="43.50095" lon="6.37495">
        <ele>272</ele>
        <time>2022-01-21T13:25:28.000Z</time>
      </trkpt>
      <trkpt lat="43.50096" lon="6.37496">
        <ele>271</ele>
        <time>2022-01-21T13:25:29.000Z</time>
      </trkpt>
      <trkpt lat="43.50096" lon="6.37498">
        <ele>271</ele>
        <time>2022-01-21T13:25:30.000Z</time>
      </trkpt>
      <trkpt lat="43.50096" lon="6.37499">
        <ele>271</ele>
        <time>2022-01-21T13:25:31.000Z</time>
      </trkpt>
      <trkpt lat="43.50097" lon="6.37499">
        <ele>271</ele>
        <time>2022-01-21T13:25:32.000Z</time>
      </trkpt>
      <trkpt lat="43.50097" lon="6.375">
        <ele>270</ele>
        <time>2022-01-21T13:25:33.000Z</time>
      </trkpt>
      <trkpt lat="43.50098" lon="6.37502">
        <ele>270</ele>
        <time>2022-01-21T13:25:34.000Z</time>
      </trkpt>
      <trkpt lat="43.50098" lon="6.37503">
        <ele>270</ele>
        <time>2022-01-21T13:25:35.000Z</time>
      </trkpt>
      <trkpt lat="43.50099" lon="6.37504">
        <ele>270</ele>
        <time>2022-01-21T13:25:36.000Z</time>
      </trkpt>
      <trkpt lat="43.50099" lon="6.37505">
        <ele>268</ele>
        <time>2022-01-21T13:25:37.000Z</time>
      </trkpt>
      <trkpt lat="43.501" lon="6.37506">
        <ele>268</ele>
        <time>2022-01-21T13:25:38.000Z</time>
      </trkpt>
      <trkpt lat="43.501" lon="6.37507">
        <ele>267</ele>
        <time>2022-01-21T13:25:39.000Z</time>
      </trkpt>
      <trkpt lat="43.50101" lon="6.37508">
        <ele>267</ele>
        <time>2022-01-21T13:25:40.000Z</time>
      </trkpt>
      <trkpt lat="43.50101" lon="6.37509">
        <ele>266</ele>
        <time>2022-01-21T13:25:41.000Z</time>
      </trkpt>
      <trkpt lat="43.50102" lon="6.3751">
        <ele>266</ele>
        <time>2022-01-21T13:25:42.000Z</time>
      </trkpt>
      <trkpt lat="43.50102" lon="6.37512">
        <ele>266</ele>
        <time>2022-01-21T13:25:43.000Z</time>
      </trkpt>
      <trkpt lat="43.50103" lon="6.37513">
        <ele>266</ele>
        <time>2022-01-21T13:25:44.000Z</time>
      </trkpt>
      <trkpt lat="43.50103" lon="6.37513">
        <ele>266</ele>
        <time>2022-01-21T13:25:45.000Z</time>
      </trkpt>
      <trkpt lat="43.50104" lon="6.37514">
        <ele>266</ele>
        <time>2022-01-21T13:25:46.000Z</time>
      </trkpt>
      <trkpt lat="43.50104" lon="6.37515">
        <ele>265</ele>
        <time>2022-01-21T13:25:47.000Z</time>
      </trkpt>
      <trkpt lat="43.50105" lon="6.37516">
        <ele>265</ele>
        <time>2022-01-21T13:25:48.000Z</time>
      </trkpt>
      <trkpt lat="43.50105" lon="6.37517">
        <ele>265</ele>
        <time>2022-01-21T13:25:49.000Z</time>
      </trkpt>
      <trkpt lat="43.50106" lon="6.37518">
        <ele>265</ele>
        <time>2022-01-21T13:25:50.000Z</time>
      </trkpt>
      <trkpt lat="43.50106" lon="6.37519">
        <ele>265</ele>
        <time>2022-01-21T13:25:51.000Z</time>
      </trkpt>
      <trkpt lat="43.50107" lon="6.3752">
        <ele>265</ele>
        <time>2022-01-21T13:25:52.000Z</time>
      </trkpt>
      <trkpt lat="43.50108" lon="6.37521">
        <ele>265</ele>
        <time>2022-01-21T13:25:53.000Z</time>
      </trkpt>
      <trkpt lat="43.50108" lon="6.37521">
        <ele>265</ele>
        <time>2022-01-21T13:25:54.000Z</time>
      </trkpt>
      <trkpt lat="43.50109" lon="6.37522">
        <ele>265</ele>
        <time>2022-01-21T13:25:55.000Z</time>
      </trkpt>
      <trkpt lat="43.5011" lon="6.37523">
        <ele>265</ele>
        <time>2022-01-21T13:25:56.000Z</time>
      </trkpt>
      <trkpt lat="43.5011" lon="6.37525">
        <ele>264</ele>
        <time>2022-01-21T13:25:57.000Z</time>
      </trkpt>
      <trkpt lat="43.50111" lon="6.37526">
        <ele>264</ele>
        <time>2022-01-21T13:25:58.000Z</time>
      </trkpt>
      <trkpt lat="43.50112" lon="6.37527">
        <ele>264</ele>
        <time>2022-01-21T13:25:59.000Z</time>
      </trkpt>
      <trkpt lat="43.50112" lon="6.37528">
        <ele>263</ele>
        <time>2022-01-21T13:26:00.000Z</time>
      </trkpt>
      <trkpt lat="43.50112" lon="6.37529">
        <ele>263</ele>
        <time>2022-01-21T13:26:01.000Z</time>
      </trkpt>
      <trkpt lat="43.50113" lon="6.3753">
        <ele>263</ele>
        <time>2022-01-21T13:26:02.000Z</time>
      </trkpt>
      <trkpt lat="43.50114" lon="6.37531">
        <ele>263</ele>
        <time>2022-01-21T13:26:03.000Z</time>
      </trkpt>
      <trkpt lat="43.50114" lon="6.37533">
        <ele>263</ele>
        <time>2022-01-21T13:26:04.000Z</time>
      </trkpt>
      <trkpt lat="43.50115" lon="6.37534">
        <ele>263</ele>
        <time>2022-01-21T13:26:05.000Z</time>
      </trkpt>
      <trkpt lat="43.50115" lon="6.37536">
        <ele>264</ele>
        <time>2022-01-21T13:26:06.000Z</time>
      </trkpt>
      <trkpt lat="43.50116" lon="6.37537">
        <ele>264</ele>
        <time>2022-01-21T13:26:07.000Z</time>
      </trkpt>
      <trkpt lat="43.50117" lon="6.37538">
        <ele>264</ele>
        <time>2022-01-21T13:26:08.000Z</time>
      </trkpt>
      <trkpt lat="43.50117" lon="6.37539">
        <ele>264</ele>
        <time>2022-01-21T13:26:09.000Z</time>
      </trkpt>
      <trkpt lat="43.50118" lon="6.3754">
        <ele>264</ele>
        <time>2022-01-21T13:26:10.000Z</time>
      </trkpt>
      <trkpt lat="43.50118" lon="6.37541">
        <ele>264</ele>
        <time>2022-01-21T13:26:11.000Z</time>
      </trkpt>
      <trkpt lat="43.50119" lon="6.37543">
        <ele>264</ele>
        <time>2022-01-21T13:26:12.000Z</time>
      </trkpt>
      <trkpt lat="43.50119" lon="6.37544">
        <ele>265</ele>
        <time>2022-01-21T13:26:13.000Z</time>
      </trkpt>
      <trkpt lat="43.5012" lon="6.37545">
        <ele>265</ele>
        <time>2022-01-21T13:26:14.000Z</time>
      </trkpt>
      <trkpt lat="43.5012" lon="6.37547">
        <ele>265</ele>
        <time>2022-01-21T13:26:15.000Z</time>
      </trkpt>
      <trkpt lat="43.50121" lon="6.37548">
        <ele>265</ele>
        <time>2022-01-21T13:26:16.000Z</time>
      </trkpt>
      <trkpt lat="43.50121" lon="6.37549">
        <ele>265</ele>
        <time>2022-01-21T13:26:17.000Z</time>
      </trkpt>
      <trkpt lat="43.50122" lon="6.3755">
        <ele>265</ele>
        <time>2022-01-21T13:26:18.000Z</time>
      </trkpt>
      <trkpt lat="43.50122" lon="6.37551">
        <ele>265</ele>
        <time>2022-01-21T13:26:19.000Z</time>
      </trkpt>
      <trkpt lat="43.50123" lon="6.37552">
        <ele>264</ele>
        <time>2022-01-21T13:26:20.000Z</time>
      </trkpt>
      <trkpt lat="43.50123" lon="6.37553">
        <ele>264</ele>
        <time>2022-01-21T13:26:21.000Z</time>
      </trkpt>
      <trkpt lat="43.50124" lon="6.37554">
        <ele>264</ele>
        <time>2022-01-21T13:26:22.000Z</time>
      </trkpt>
      <trkpt lat="43.50125" lon="6.37556">
        <ele>263</ele>
        <time>2022-01-21T13:26:23.000Z</time>
      </trkpt>
      <trkpt lat="43.50125" lon="6.37557">
        <ele>263</ele>
        <time>2022-01-21T13:26:24.000Z</time>
      </trkpt>
      <trkpt lat="43.50126" lon="6.37558">
        <ele>263</ele>
        <time>2022-01-21T13:26:25.000Z</time>
      </trkpt>
      <trkpt lat="43.50126" lon="6.37559">
        <ele>263</ele>
        <time>2022-01-21T13:26:26.000Z</time>
      </trkpt>
      <trkpt lat="43.50127" lon="6.3756">
        <ele>263</ele>
        <time>2022-01-21T13:26:27.000Z</time>
      </trkpt>
      <trkpt lat="43.50127" lon="6.37561">
        <ele>263</ele>
        <time>2022-01-21T13:26:28.000Z</time>
      </trkpt>
      <trkpt lat="43.50128" lon="6.37562">
        <ele>263</ele>
        <time>2022-01-21T13:26:29.000Z</time>
      </trkpt>
      <trkpt lat="43.50129" lon="6.37563">
        <ele>262</ele>
        <time>2022-01-21T13:26:30.000Z</time>
      </trkpt>
      <trkpt lat="43.50129" lon="6.37564">
        <ele>262</ele>
        <time>2022-01-21T13:26:31.000Z</time>
      </trkpt>
      <trkpt lat="43.5013" lon="6.37565">
        <ele>262</ele>
        <time>2022-01-21T13:26:32.000Z</time>
      </trkpt>
      <trkpt lat="43.5013" lon="6.37566">
        <ele>261</ele>
        <time>2022-01-21T13:26:33.000Z</time>
      </trkpt>
      <trkpt lat="43.50131" lon="6.37567">
        <ele>261</ele>
        <time>2022-01-21T13:26:34.000Z</time>
      </trkpt>
      <trkpt lat="43.50132" lon="6.37568">
        <ele>261</ele>
        <time>2022-01-21T13:26:35.000Z</time>
      </trkpt>
      <trkpt lat="43.50133" lon="6.3757">
        <ele>261</ele>
        <time>2022-01-21T13:26:36.000Z</time>
      </trkpt>
      <trkpt lat="43.50133" lon="6.37571">
        <ele>261</ele>
        <time>2022-01-21T13:26:37.000Z</time>
      </trkpt>
      <trkpt lat="43.50134" lon="6.37571">
        <ele>261</ele>
        <time>2022-01-21T13:26:38.000Z</time>
      </trkpt>
      <trkpt lat="43.50135" lon="6.37572">
        <ele>261</ele>
        <time>2022-01-21T13:26:39.000Z</time>
      </trkpt>
      <trkpt lat="43.50135" lon="6.37573">
        <ele>261</ele>
        <time>2022-01-21T13:26:40.000Z</time>
      </trkpt>
      <trkpt lat="43.50136" lon="6.37574">
        <ele>260</ele>
        <time>2022-01-21T13:26:41.000Z</time>
      </trkpt>
      <trkpt lat="43.50136" lon="6.37575">
        <ele>260</ele>
        <time>2022-01-21T13:26:42.000Z</time>
      </trkpt>
      <trkpt lat="43.50137" lon="6.37576">
        <ele>260</ele>
        <time>2022-01-21T13:26:43.000Z</time>
      </trkpt>
      <trkpt lat="43.50138" lon="6.37578">
        <ele>260</ele>
        <time>2022-01-21T13:26:44.000Z</time>
      </trkpt>
      <trkpt lat="43.50139" lon="6.37579">
        <ele>260</ele>
        <time>2022-01-21T13:26:45.000Z</time>
      </trkpt>
      <trkpt lat="43.50139" lon="6.3758">
        <ele>259</ele>
        <time>2022-01-21T13:26:46.000Z</time>
      </trkpt>
      <trkpt lat="43.5014" lon="6.37581">
        <ele>259</ele>
        <time>2022-01-21T13:26:47.000Z</time>
      </trkpt>
      <trkpt lat="43.50141" lon="6.37582">
        <ele>259</ele>
        <time>2022-01-21T13:26:48.000Z</time>
      </trkpt>
      <trkpt lat="43.50141" lon="6.37583">
        <ele>259</ele>
        <time>2022-01-21T13:26:49.000Z</time>
      </trkpt>
      <trkpt lat="43.50142" lon="6.37584">
        <ele>259</ele>
        <time>2022-01-21T13:26:50.000Z</time>
      </trkpt>
      <trkpt lat="43.50143" lon="6.37585">
        <ele>259</ele>
        <time>2022-01-21T13:26:51.000Z</time>
      </trkpt>
      <trkpt lat="43.50144" lon="6.37586">
        <ele>259</ele>
        <time>2022-01-21T13:26:52.000Z</time>
      </trkpt>
      <trkpt lat="43.50144" lon="6.37587">
        <ele>259</ele>
        <time>2022-01-21T13:26:53.000Z</time>
      </trkpt>
      <trkpt lat="43.50145" lon="6.37589">
        <ele>259</ele>
        <time>2022-01-21T13:26:54.000Z</time>
      </trkpt>
      <trkpt lat="43.50146" lon="6.3759">
        <ele>258</ele>
        <time>2022-01-21T13:26:55.000Z</time>
      </trkpt>
      <trkpt lat="43.50147" lon="6.37591">
        <ele>258</ele>
        <time>2022-01-21T13:26:56.000Z</time>
      </trkpt>
      <trkpt lat="43.50148" lon="6.37593">
        <ele>258</ele>
        <time>2022-01-21T13:26:57.000Z</time>
      </trkpt>
      <trkpt lat="43.50148" lon="6.37594">
        <ele>258</ele>
        <time>2022-01-21T13:26:58.000Z</time>
      </trkpt>
      <trkpt lat="43.50149" lon="6.37595">
        <ele>258</ele>
        <time>2022-01-21T13:26:59.000Z</time>
      </trkpt>
      <trkpt lat="43.5015" lon="6.37597">
        <ele>258</ele>
        <time>2022-01-21T13:27:00.000Z</time>
      </trkpt>
      <trkpt lat="43.5015" lon="6.37598">
        <ele>258</ele>
        <time>2022-01-21T13:27:01.000Z</time>
      </trkpt>
      <trkpt lat="43.50151" lon="6.376">
        <ele>258</ele>
        <time>2022-01-21T13:27:02.000Z</time>
      </trkpt>
      <trkpt lat="43.50152" lon="6.37602">
        <ele>258</ele>
        <time>2022-01-21T13:27:03.000Z</time>
      </trkpt>
      <trkpt lat="43.50152" lon="6.37603">
        <ele>258</ele>
        <time>2022-01-21T13:27:04.000Z</time>
      </trkpt>
      <trkpt lat="43.50153" lon="6.37604">
        <ele>258</ele>
        <time>2022-01-21T13:27:05.000Z</time>
      </trkpt>
      <trkpt lat="43.50154" lon="6.37606">
        <ele>258</ele>
        <time>2022-01-21T13:27:06.000Z</time>
      </trkpt>
      <trkpt lat="43.50155" lon="6.37607">
        <ele>258</ele>
        <time>2022-01-21T13:27:07.000Z</time>
      </trkpt>
      <trkpt lat="43.50155" lon="6.37608">
        <ele>258</ele>
        <time>2022-01-21T13:27:08.000Z</time>
      </trkpt>
      <trkpt lat="43.50156" lon="6.37609">
        <ele>258</ele>
        <time>2022-01-21T13:27:09.000Z</time>
      </trkpt>
      <trkpt lat="43.50157" lon="6.3761">
        <ele>258</ele>
        <time>2022-01-21T13:27:10.000Z</time>
      </trkpt>
      <trkpt lat="43.50157" lon="6.37612">
        <ele>258</ele>
        <time>2022-01-21T13:27:11.000Z</time>
      </trkpt>
      <trkpt lat="43.50158" lon="6.37613">
        <ele>257</ele>
        <time>2022-01-21T13:27:12.000Z</time>
      </trkpt>
      <trkpt lat="43.50159" lon="6.37614">
        <ele>257</ele>
        <time>2022-01-21T13:27:13.000Z</time>
      </trkpt>
      <trkpt lat="43.5016" lon="6.37615">
        <ele>257</ele>
        <time>2022-01-21T13:27:14.000Z</time>
      </trkpt>
      <trkpt lat="43.5016" lon="6.37616">
        <ele>257</ele>
        <time>2022-01-21T13:27:15.000Z</time>
      </trkpt>
      <trkpt lat="43.50161" lon="6.37617">
        <ele>257</ele>
        <time>2022-01-21T13:27:16.000Z</time>
      </trkpt>
      <trkpt lat="43.50161" lon="6.37618">
        <ele>256</ele>
        <time>2022-01-21T13:27:17.000Z</time>
      </trkpt>
      <trkpt lat="43.50162" lon="6.3762">
        <ele>256</ele>
        <time>2022-01-21T13:27:18.000Z</time>
      </trkpt>
      <trkpt lat="43.50163" lon="6.37621">
        <ele>256</ele>
        <time>2022-01-21T13:27:19.000Z</time>
      </trkpt>
      <trkpt lat="43.50163" lon="6.37622">
        <ele>256</ele>
        <time>2022-01-21T13:27:20.000Z</time>
      </trkpt>
      <trkpt lat="43.50164" lon="6.37623">
        <ele>256</ele>
        <time>2022-01-21T13:27:21.000Z</time>
      </trkpt>
      <trkpt lat="43.50165" lon="6.37624">
        <ele>256</ele>
        <time>2022-01-21T13:27:22.000Z</time>
      </trkpt>
      <trkpt lat="43.50165" lon="6.37625">
        <ele>256</ele>
        <time>2022-01-21T13:27:23.000Z</time>
      </trkpt>
      <trkpt lat="43.50166" lon="6.37626">
        <ele>256</ele>
        <time>2022-01-21T13:27:24.000Z</time>
      </trkpt>
      <trkpt lat="43.50166" lon="6.37626">
        <ele>256</ele>
        <time>2022-01-21T13:27:25.000Z</time>
      </trkpt>
      <trkpt lat="43.50167" lon="6.37627">
        <ele>256</ele>
        <time>2022-01-21T13:27:26.000Z</time>
      </trkpt>
      <trkpt lat="43.50168" lon="6.37628">
        <ele>256</ele>
        <time>2022-01-21T13:27:27.000Z</time>
      </trkpt>
      <trkpt lat="43.50168" lon="6.37629">
        <ele>256</ele>
        <time>2022-01-21T13:27:28.000Z</time>
      </trkpt>
      <trkpt lat="43.50169" lon="6.3763">
        <ele>256</ele>
        <time>2022-01-21T13:27:29.000Z</time>
      </trkpt>
      <trkpt lat="43.5017" lon="6.37631">
        <ele>256</ele>
        <time>2022-01-21T13:27:30.000Z</time>
      </trkpt>
      <trkpt lat="43.50171" lon="6.37632">
        <ele>256</ele>
        <time>2022-01-21T13:27:31.000Z</time>
      </trkpt>
      <trkpt lat="43.50171" lon="6.37633">
        <ele>256</ele>
        <time>2022-01-21T13:27:32.000Z</time>
      </trkpt>
      <trkpt lat="43.50172" lon="6.37634">
        <ele>256</ele>
        <time>2022-01-21T13:27:33.000Z</time>
      </trkpt>
      <trkpt lat="43.50172" lon="6.37635">
        <ele>256</ele>
        <time>2022-01-21T13:27:34.000Z</time>
      </trkpt>
      <trkpt lat="43.50173" lon="6.37636">
        <ele>256</ele>
        <time>2022-01-21T13:27:35.000Z</time>
      </trkpt>
      <trkpt lat="43.50174" lon="6.37637">
        <ele>256</ele>
        <time>2022-01-21T13:27:36.000Z</time>
      </trkpt>
      <trkpt lat="43.50174" lon="6.37638">
        <ele>256</ele>
        <time>2022-01-21T13:27:37.000Z</time>
      </trkpt>
      <trkpt lat="43.50175" lon="6.37639">
        <ele>256</ele>
        <time>2022-01-21T13:27:38.000Z</time>
      </trkpt>
      <trkpt lat="43.50175" lon="6.3764">
        <ele>256</ele>
        <time>2022-01-21T13:27:39.000Z</time>
      </trkpt>
      <trkpt lat="43.50176" lon="6.37641">
        <ele>256</ele>
        <time>2022-01-21T13:27:40.000Z</time>
      </trkpt>
      <trkpt lat="43.50177" lon="6.37642">
        <ele>256</ele>
        <time>2022-01-21T13:27:41.000Z</time>
      </trkpt>
      <trkpt lat="43.50178" lon="6.37643">
        <ele>256</ele>
        <time>2022-01-21T13:27:42.000Z</time>
      </trkpt>
      <trkpt lat="43.50178" lon="6.37644">
        <ele>256</ele>
        <time>2022-01-21T13:27:43.000Z</time>
      </trkpt>
      <trkpt lat="43.50179" lon="6.37644">
        <ele>256</ele>
        <time>2022-01-21T13:27:44.000Z</time>
      </trkpt>
      <trkpt lat="43.50179" lon="6.37645">
        <ele>256</ele>
        <time>2022-01-21T13:27:45.000Z</time>
      </trkpt>
      <trkpt lat="43.5018" lon="6.37647">
        <ele>255</ele>
        <time>2022-01-21T13:27:46.000Z</time>
      </trkpt>
      <trkpt lat="43.50181" lon="6.37648">
        <ele>255</ele>
        <time>2022-01-21T13:27:47.000Z</time>
      </trkpt>
      <trkpt lat="43.50181" lon="6.37648">
        <ele>255</ele>
        <time>2022-01-21T13:27:48.000Z</time>
      </trkpt>
      <trkpt lat="43.50182" lon="6.37649">
        <ele>255</ele>
        <time>2022-01-21T13:27:49.000Z</time>
      </trkpt>
      <trkpt lat="43.50183" lon="6.3765">
        <ele>255</ele>
        <time>2022-01-21T13:27:50.000Z</time>
      </trkpt>
      <trkpt lat="43.50184" lon="6.37651">
        <ele>255</ele>
        <time>2022-01-21T13:27:51.000Z</time>
      </trkpt>
      <trkpt lat="43.50184" lon="6.37652">
        <ele>255</ele>
        <time>2022-01-21T13:27:52.000Z</time>
      </trkpt>
      <trkpt lat="43.50185" lon="6.37653">
        <ele>254</ele>
        <time>2022-01-21T13:27:53.000Z</time>
      </trkpt>
      <trkpt lat="43.50185" lon="6.37654">
        <ele>254</ele>
        <time>2022-01-21T13:27:54.000Z</time>
      </trkpt>
      <trkpt lat="43.50186" lon="6.37655">
        <ele>254</ele>
        <time>2022-01-21T13:27:55.000Z</time>
      </trkpt>
      <trkpt lat="43.50186" lon="6.37657">
        <ele>254</ele>
        <time>2022-01-21T13:27:56.000Z</time>
      </trkpt>
      <trkpt lat="43.50187" lon="6.37659">
        <ele>253</ele>
        <time>2022-01-21T13:27:57.000Z</time>
      </trkpt>
      <trkpt lat="43.50187" lon="6.3766">
        <ele>253</ele>
        <time>2022-01-21T13:27:58.000Z</time>
      </trkpt>
      <trkpt lat="43.50188" lon="6.37662">
        <ele>253</ele>
        <time>2022-01-21T13:27:59.000Z</time>
      </trkpt>
      <trkpt lat="43.50189" lon="6.37663">
        <ele>252</ele>
        <time>2022-01-21T13:28:00.000Z</time>
      </trkpt>
      <trkpt lat="43.50189" lon="6.37665">
        <ele>252</ele>
        <time>2022-01-21T13:28:01.000Z</time>
      </trkpt>
      <trkpt lat="43.50189" lon="6.37666">
        <ele>252</ele>
        <time>2022-01-21T13:28:02.000Z</time>
      </trkpt>
      <trkpt lat="43.5019" lon="6.37668">
        <ele>252</ele>
        <time>2022-01-21T13:28:03.000Z</time>
      </trkpt>
      <trkpt lat="43.5019" lon="6.3767">
        <ele>252</ele>
        <time>2022-01-21T13:28:04.000Z</time>
      </trkpt>
      <trkpt lat="43.5019" lon="6.37672">
        <ele>251</ele>
        <time>2022-01-21T13:28:05.000Z</time>
      </trkpt>
      <trkpt lat="43.50191" lon="6.37673">
        <ele>251</ele>
        <time>2022-01-21T13:28:06.000Z</time>
      </trkpt>
      <trkpt lat="43.50191" lon="6.37674">
        <ele>251</ele>
        <time>2022-01-21T13:28:07.000Z</time>
      </trkpt>
      <trkpt lat="43.50191" lon="6.37676">
        <ele>251</ele>
        <time>2022-01-21T13:28:08.000Z</time>
      </trkpt>
      <trkpt lat="43.50191" lon="6.37677">
        <ele>251</ele>
        <time>2022-01-21T13:28:09.000Z</time>
      </trkpt>
      <trkpt lat="43.50191" lon="6.37678">
        <ele>251</ele>
        <time>2022-01-21T13:28:10.000Z</time>
      </trkpt>
      <trkpt lat="43.50191" lon="6.37679">
        <ele>251</ele>
        <time>2022-01-21T13:28:11.000Z</time>
      </trkpt>
      <trkpt lat="43.50191" lon="6.3768">
        <ele>251</ele>
        <time>2022-01-21T13:28:12.000Z</time>
      </trkpt>
      <trkpt lat="43.50191" lon="6.37682">
        <ele>251</ele>
        <time>2022-01-21T13:28:13.000Z</time>
      </trkpt>
      <trkpt lat="43.50192" lon="6.37683">
        <ele>251</ele>
        <time>2022-01-21T13:28:14.000Z</time>
      </trkpt>
      <trkpt lat="43.50192" lon="6.37685">
        <ele>251</ele>
        <time>2022-01-21T13:28:15.000Z</time>
      </trkpt>
      <trkpt lat="43.50192" lon="6.37686">
        <ele>251</ele>
        <time>2022-01-21T13:28:16.000Z</time>
      </trkpt>
      <trkpt lat="43.50192" lon="6.37687">
        <ele>251</ele>
        <time>2022-01-21T13:28:17.000Z</time>
      </trkpt>
      <trkpt lat="43.50192" lon="6.37689">
        <ele>251</ele>
        <time>2022-01-21T13:28:18.000Z</time>
      </trkpt>
      <trkpt lat="43.50192" lon="6.3769">
        <ele>251</ele>
        <time>2022-01-21T13:28:19.000Z</time>
      </trkpt>
      <trkpt lat="43.50192" lon="6.37691">
        <ele>251</ele>
        <time>2022-01-21T13:28:20.000Z</time>
      </trkpt>
      <trkpt lat="43.50192" lon="6.37692">
        <ele>250</ele>
        <time>2022-01-21T13:28:21.000Z</time>
      </trkpt>
      <trkpt lat="43.50192" lon="6.37693">
        <ele>250</ele>
        <time>2022-01-21T13:28:22.000Z</time>
      </trkpt>
      <trkpt lat="43.50193" lon="6.37695">
        <ele>250</ele>
        <time>2022-01-21T13:28:23.000Z</time>
      </trkpt>
      <trkpt lat="43.50193" lon="6.37696">
        <ele>250</ele>
        <time>2022-01-21T13:28:24.000Z</time>
      </trkpt>
      <trkpt lat="43.50193" lon="6.37697">
        <ele>250</ele>
        <time>2022-01-21T13:28:25.000Z</time>
      </trkpt>
      <trkpt lat="43.50193" lon="6.37698">
        <ele>250</ele>
        <time>2022-01-21T13:28:26.000Z</time>
      </trkpt>
      <trkpt lat="43.50193" lon="6.37699">
        <ele>250</ele>
        <time>2022-01-21T13:28:27.000Z</time>
      </trkpt>
      <trkpt lat="43.50193" lon="6.377">
        <ele>249</ele>
        <time>2022-01-21T13:28:28.000Z</time>
      </trkpt>
      <trkpt lat="43.50193" lon="6.37701">
        <ele>249</ele>
        <time>2022-01-21T13:28:29.000Z</time>
      </trkpt>
      <trkpt lat="43.50193" lon="6.37702">
        <ele>249</ele>
        <time>2022-01-21T13:28:30.000Z</time>
      </trkpt>
      <trkpt lat="43.50193" lon="6.37703">
        <ele>249</ele>
        <time>2022-01-21T13:28:31.000Z</time>
      </trkpt>
      <trkpt lat="43.50193" lon="6.37704">
        <ele>249</ele>
        <time>2022-01-21T13:28:32.000Z</time>
      </trkpt>
      <trkpt lat="43.50194" lon="6.37705">
        <ele>248</ele>
        <time>2022-01-21T13:28:33.000Z</time>
      </trkpt>
      <trkpt lat="43.50194" lon="6.37706">
        <ele>248</ele>
        <time>2022-01-21T13:28:34.000Z</time>
      </trkpt>
      <trkpt lat="43.50194" lon="6.37707">
        <ele>248</ele>
        <time>2022-01-21T13:28:35.000Z</time>
      </trkpt>
      <trkpt lat="43.50194" lon="6.37708">
        <ele>248</ele>
        <time>2022-01-21T13:28:36.000Z</time>
      </trkpt>
      <trkpt lat="43.50194" lon="6.3771">
        <ele>248</ele>
        <time>2022-01-21T13:28:37.000Z</time>
      </trkpt>
      <trkpt lat="43.50194" lon="6.37711">
        <ele>247</ele>
        <time>2022-01-21T13:28:38.000Z</time>
      </trkpt>
      <trkpt lat="43.50195" lon="6.37712">
        <ele>247</ele>
        <time>2022-01-21T13:28:39.000Z</time>
      </trkpt>
      <trkpt lat="43.50195" lon="6.37714">
        <ele>247</ele>
        <time>2022-01-21T13:28:40.000Z</time>
      </trkpt>
      <trkpt lat="43.50195" lon="6.37715">
        <ele>247</ele>
        <time>2022-01-21T13:28:41.000Z</time>
      </trkpt>
      <trkpt lat="43.50195" lon="6.37716">
        <ele>247</ele>
        <time>2022-01-21T13:28:42.000Z</time>
      </trkpt>
      <trkpt lat="43.50195" lon="6.37718">
        <ele>247</ele>
        <time>2022-01-21T13:28:43.000Z</time>
      </trkpt>
      <trkpt lat="43.50195" lon="6.37719">
        <ele>247</ele>
        <time>2022-01-21T13:28:44.000Z</time>
      </trkpt>
      <trkpt lat="43.50196" lon="6.37721">
        <ele>247</ele>
        <time>2022-01-21T13:28:45.000Z</time>
      </trkpt>
      <trkpt lat="43.50196" lon="6.37722">
        <ele>247</ele>
        <time>2022-01-21T13:28:46.000Z</time>
      </trkpt>
      <trkpt lat="43.50196" lon="6.37724">
        <ele>247</ele>
        <time>2022-01-21T13:28:47.000Z</time>
      </trkpt>
      <trkpt lat="43.50196" lon="6.37725">
        <ele>247</ele>
        <time>2022-01-21T13:28:48.000Z</time>
      </trkpt>
      <trkpt lat="43.50197" lon="6.37727">
        <ele>246</ele>
        <time>2022-01-21T13:28:49.000Z</time>
      </trkpt>
      <trkpt lat="43.50197" lon="6.37729">
        <ele>246</ele>
        <time>2022-01-21T13:28:50.000Z</time>
      </trkpt>
      <trkpt lat="43.50197" lon="6.37731">
        <ele>246</ele>
        <time>2022-01-21T13:28:51.000Z</time>
      </trkpt>
      <trkpt lat="43.50198" lon="6.37733">
        <ele>246</ele>
        <time>2022-01-21T13:28:52.000Z</time>
      </trkpt>
      <trkpt lat="43.50198" lon="6.37734">
        <ele>246</ele>
        <time>2022-01-21T13:28:53.000Z</time>
      </trkpt>
      <trkpt lat="43.50198" lon="6.37736">
        <ele>246</ele>
        <time>2022-01-21T13:28:54.000Z</time>
      </trkpt>
      <trkpt lat="43.50199" lon="6.37737">
        <ele>246</ele>
        <time>2022-01-21T13:28:55.000Z</time>
      </trkpt>
      <trkpt lat="43.50199" lon="6.37739">
        <ele>246</ele>
        <time>2022-01-21T13:28:56.000Z</time>
      </trkpt>
      <trkpt lat="43.50199" lon="6.37741">
        <ele>247</ele>
        <time>2022-01-21T13:28:57.000Z</time>
      </trkpt>
      <trkpt lat="43.50199" lon="6.37742">
        <ele>247</ele>
        <time>2022-01-21T13:28:58.000Z</time>
      </trkpt>
      <trkpt lat="43.50199" lon="6.37744">
        <ele>247</ele>
        <time>2022-01-21T13:28:59.000Z</time>
      </trkpt>
      <trkpt lat="43.50199" lon="6.37745">
        <ele>247</ele>
        <time>2022-01-21T13:29:00.000Z</time>
      </trkpt>
      <trkpt lat="43.50199" lon="6.37747">
        <ele>247</ele>
        <time>2022-01-21T13:29:01.000Z</time>
      </trkpt>
      <trkpt lat="43.502" lon="6.37748">
        <ele>247</ele>
        <time>2022-01-21T13:29:02.000Z</time>
      </trkpt>
      <trkpt lat="43.502" lon="6.37749">
        <ele>247</ele>
        <time>2022-01-21T13:29:03.000Z</time>
      </trkpt>
      <trkpt lat="43.502" lon="6.37751">
        <ele>247</ele>
        <time>2022-01-21T13:29:04.000Z</time>
      </trkpt>
      <trkpt lat="43.502" lon="6.37752">
        <ele>247</ele>
        <time>2022-01-21T13:29:05.000Z</time>
      </trkpt>
      <trkpt lat="43.50201" lon="6.37753">
        <ele>247</ele>
        <time>2022-01-21T13:29:06.000Z</time>
      </trkpt>
      <trkpt lat="43.50201" lon="6.37755">
        <ele>247</ele>
        <time>2022-01-21T13:29:07.000Z</time>
      </trkpt>
      <trkpt lat="43.50201" lon="6.37756">
        <ele>247</ele>
        <time>2022-01-21T13:29:08.000Z</time>
      </trkpt>
      <trkpt lat="43.50201" lon="6.37758">
        <ele>247</ele>
        <time>2022-01-21T13:29:09.000Z</time>
      </trkpt>
      <trkpt lat="43.50201" lon="6.37759">
        <ele>247</ele>
        <time>2022-01-21T13:29:10.000Z</time>
      </trkpt>
      <trkpt lat="43.50202" lon="6.3776">
        <ele>247</ele>
        <time>2022-01-21T13:29:11.000Z</time>
      </trkpt>
      <trkpt lat="43.50202" lon="6.37761">
        <ele>247</ele>
        <time>2022-01-21T13:29:12.000Z</time>
      </trkpt>
      <trkpt lat="43.50202" lon="6.37762">
        <ele>247</ele>
        <time>2022-01-21T13:29:13.000Z</time>
      </trkpt>
      <trkpt lat="43.50203" lon="6.37764">
        <ele>247</ele>
        <time>2022-01-21T13:29:14.000Z</time>
      </trkpt>
      <trkpt lat="43.50203" lon="6.37765">
        <ele>247</ele>
        <time>2022-01-21T13:29:15.000Z</time>
      </trkpt>
      <trkpt lat="43.50203" lon="6.37766">
        <ele>246</ele>
        <time>2022-01-21T13:29:16.000Z</time>
      </trkpt>
      <trkpt lat="43.50204" lon="6.37767">
        <ele>246</ele>
        <time>2022-01-21T13:29:17.000Z</time>
      </trkpt>
      <trkpt lat="43.50204" lon="6.37768">
        <ele>246</ele>
        <time>2022-01-21T13:29:18.000Z</time>
      </trkpt>
      <trkpt lat="43.50205" lon="6.3777">
        <ele>246</ele>
        <time>2022-01-21T13:29:19.000Z</time>
      </trkpt>
      <trkpt lat="43.50205" lon="6.37771">
        <ele>245</ele>
        <time>2022-01-21T13:29:20.000Z</time>
      </trkpt>
      <trkpt lat="43.50206" lon="6.37773">
        <ele>245</ele>
        <time>2022-01-21T13:29:21.000Z</time>
      </trkpt>
      <trkpt lat="43.50206" lon="6.37774">
        <ele>245</ele>
        <time>2022-01-21T13:29:22.000Z</time>
      </trkpt>
      <trkpt lat="43.50207" lon="6.37775">
        <ele>245</ele>
        <time>2022-01-21T13:29:23.000Z</time>
      </trkpt>
      <trkpt lat="43.50207" lon="6.37776">
        <ele>245</ele>
        <time>2022-01-21T13:29:24.000Z</time>
      </trkpt>
      <trkpt lat="43.50208" lon="6.37777">
        <ele>245</ele>
        <time>2022-01-21T13:29:25.000Z</time>
      </trkpt>
      <trkpt lat="43.50208" lon="6.37778">
        <ele>245</ele>
        <time>2022-01-21T13:29:26.000Z</time>
      </trkpt>
      <trkpt lat="43.50209" lon="6.3778">
        <ele>245</ele>
        <time>2022-01-21T13:29:27.000Z</time>
      </trkpt>
      <trkpt lat="43.50208" lon="6.37781">
        <ele>245</ele>
        <time>2022-01-21T13:29:28.000Z</time>
      </trkpt>
      <trkpt lat="43.50208" lon="6.37783">
        <ele>245</ele>
        <time>2022-01-21T13:29:29.000Z</time>
      </trkpt>
      <trkpt lat="43.50208" lon="6.37784">
        <ele>245</ele>
        <time>2022-01-21T13:29:30.000Z</time>
      </trkpt>
      <trkpt lat="43.50208" lon="6.37785">
        <ele>245</ele>
        <time>2022-01-21T13:29:31.000Z</time>
      </trkpt>
      <trkpt lat="43.50208" lon="6.37785">
        <ele>245</ele>
        <time>2022-01-21T13:29:32.000Z</time>
      </trkpt>
      <trkpt lat="43.50208" lon="6.37786">
        <ele>245</ele>
        <time>2022-01-21T13:29:33.000Z</time>
      </trkpt>
      <trkpt lat="43.50208" lon="6.37787">
        <ele>245</ele>
        <time>2022-01-21T13:29:34.000Z</time>
      </trkpt>
      <trkpt lat="43.50209" lon="6.37787">
        <ele>245</ele>
        <time>2022-01-21T13:29:35.000Z</time>
      </trkpt>
      <trkpt lat="43.50209" lon="6.37787">
        <ele>245</ele>
        <time>2022-01-21T13:29:36.000Z</time>
      </trkpt>
      <trkpt lat="43.50209" lon="6.37788">
        <ele>245</ele>
        <time>2022-01-21T13:29:37.000Z</time>
      </trkpt>
      <trkpt lat="43.5021" lon="6.37789">
        <ele>245</ele>
        <time>2022-01-21T13:29:38.000Z</time>
      </trkpt>
      <trkpt lat="43.5021" lon="6.37789">
        <ele>245</ele>
        <time>2022-01-21T13:29:39.000Z</time>
      </trkpt>
      <trkpt lat="43.50211" lon="6.37791">
        <ele>245</ele>
        <time>2022-01-21T13:29:40.000Z</time>
      </trkpt>
      <trkpt lat="43.50211" lon="6.37792">
        <ele>245</ele>
        <time>2022-01-21T13:29:41.000Z</time>
      </trkpt>
      <trkpt lat="43.50212" lon="6.37793">
        <ele>245</ele>
        <time>2022-01-21T13:29:42.000Z</time>
      </trkpt>
      <trkpt lat="43.50212" lon="6.37794">
        <ele>245</ele>
        <time>2022-01-21T13:29:43.000Z</time>
      </trkpt>
      <trkpt lat="43.50213" lon="6.37795">
        <ele>245</ele>
        <time>2022-01-21T13:29:44.000Z</time>
      </trkpt>
      <trkpt lat="43.50213" lon="6.37796">
        <ele>245</ele>
        <time>2022-01-21T13:29:45.000Z</time>
      </trkpt>
      <trkpt lat="43.50214" lon="6.37797">
        <ele>245</ele>
        <time>2022-01-21T13:29:46.000Z</time>
      </trkpt>
      <trkpt lat="43.50214" lon="6.37798">
        <ele>245</ele>
        <time>2022-01-21T13:29:47.000Z</time>
      </trkpt>
      <trkpt lat="43.50215" lon="6.37799">
        <ele>244</ele>
        <time>2022-01-21T13:29:48.000Z</time>
      </trkpt>
      <trkpt lat="43.50215" lon="6.37801">
        <ele>244</ele>
        <time>2022-01-21T13:29:49.000Z</time>
      </trkpt>
      <trkpt lat="43.50215" lon="6.37802">
        <ele>244</ele>
        <time>2022-01-21T13:29:50.000Z</time>
      </trkpt>
      <trkpt lat="43.50215" lon="6.37803">
        <ele>244</ele>
        <time>2022-01-21T13:29:51.000Z</time>
      </trkpt>
      <trkpt lat="43.50215" lon="6.37804">
        <ele>244</ele>
        <time>2022-01-21T13:29:52.000Z</time>
      </trkpt>
      <trkpt lat="43.50215" lon="6.37806">
        <ele>244</ele>
        <time>2022-01-21T13:29:53.000Z</time>
      </trkpt>
      <trkpt lat="43.50216" lon="6.37807">
        <ele>244</ele>
        <time>2022-01-21T13:29:54.000Z</time>
      </trkpt>
      <trkpt lat="43.50216" lon="6.37808">
        <ele>244</ele>
        <time>2022-01-21T13:29:55.000Z</time>
      </trkpt>
      <trkpt lat="43.50216" lon="6.3781">
        <ele>243</ele>
        <time>2022-01-21T13:29:56.000Z</time>
      </trkpt>
      <trkpt lat="43.50216" lon="6.37811">
        <ele>243</ele>
        <time>2022-01-21T13:29:57.000Z</time>
      </trkpt>
      <trkpt lat="43.50216" lon="6.37813">
        <ele>243</ele>
        <time>2022-01-21T13:29:58.000Z</time>
      </trkpt>
      <trkpt lat="43.50216" lon="6.37814">
        <ele>243</ele>
        <time>2022-01-21T13:29:59.000Z</time>
      </trkpt>
      <trkpt lat="43.50217" lon="6.37815">
        <ele>243</ele>
        <time>2022-01-21T13:30:00.000Z</time>
      </trkpt>
      <trkpt lat="43.50217" lon="6.37816">
        <ele>243</ele>
        <time>2022-01-21T13:30:01.000Z</time>
      </trkpt>
      <trkpt lat="43.50217" lon="6.37817">
        <ele>243</ele>
        <time>2022-01-21T13:30:02.000Z</time>
      </trkpt>
      <trkpt lat="43.50217" lon="6.37819">
        <ele>243</ele>
        <time>2022-01-21T13:30:03.000Z</time>
      </trkpt>
      <trkpt lat="43.50217" lon="6.3782">
        <ele>243</ele>
        <time>2022-01-21T13:30:04.000Z</time>
      </trkpt>
      <trkpt lat="43.50217" lon="6.37821">
        <ele>243</ele>
        <time>2022-01-21T13:30:05.000Z</time>
      </trkpt>
      <trkpt lat="43.50216" lon="6.37822">
        <ele>243</ele>
        <time>2022-01-21T13:30:06.000Z</time>
      </trkpt>
      <trkpt lat="43.50216" lon="6.37824">
        <ele>243</ele>
        <time>2022-01-21T13:30:07.000Z</time>
      </trkpt>
      <trkpt lat="43.50216" lon="6.37825">
        <ele>243</ele>
        <time>2022-01-21T13:30:08.000Z</time>
      </trkpt>
      <trkpt lat="43.50216" lon="6.37826">
        <ele>243</ele>
        <time>2022-01-21T13:30:09.000Z</time>
      </trkpt>
      <trkpt lat="43.50216" lon="6.37828">
        <ele>243</ele>
        <time>2022-01-21T13:30:10.000Z</time>
      </trkpt>
      <trkpt lat="43.50217" lon="6.37829">
        <ele>243</ele>
        <time>2022-01-21T13:30:11.000Z</time>
      </trkpt>
      <trkpt lat="43.50217" lon="6.37831">
        <ele>243</ele>
        <time>2022-01-21T13:30:12.000Z</time>
      </trkpt>
      <trkpt lat="43.50217" lon="6.37832">
        <ele>243</ele>
        <time>2022-01-21T13:30:13.000Z</time>
      </trkpt>
      <trkpt lat="43.50216" lon="6.37834">
        <ele>243</ele>
        <time>2022-01-21T13:30:14.000Z</time>
      </trkpt>
      <trkpt lat="43.50216" lon="6.37835">
        <ele>243</ele>
        <time>2022-01-21T13:30:15.000Z</time>
      </trkpt>
      <trkpt lat="43.50216" lon="6.37836">
        <ele>243</ele>
        <time>2022-01-21T13:30:16.000Z</time>
      </trkpt>
      <trkpt lat="43.50216" lon="6.37837">
        <ele>243</ele>
        <time>2022-01-21T13:30:17.000Z</time>
      </trkpt>
      <trkpt lat="43.50216" lon="6.37839">
        <ele>243</ele>
        <time>2022-01-21T13:30:18.000Z</time>
      </trkpt>
      <trkpt lat="43.50217" lon="6.3784">
        <ele>243</ele>
        <time>2022-01-21T13:30:19.000Z</time>
      </trkpt>
      <trkpt lat="43.50217" lon="6.37842">
        <ele>243</ele>
        <time>2022-01-21T13:30:20.000Z</time>
      </trkpt>
      <trkpt lat="43.50217" lon="6.37843">
        <ele>243</ele>
        <time>2022-01-21T13:30:21.000Z</time>
      </trkpt>
      <trkpt lat="43.50216" lon="6.37844">
        <ele>243</ele>
        <time>2022-01-21T13:30:22.000Z</time>
      </trkpt>
      <trkpt lat="43.50216" lon="6.37846">
        <ele>243</ele>
        <time>2022-01-21T13:30:23.000Z</time>
      </trkpt>
      <trkpt lat="43.50217" lon="6.37847">
        <ele>244</ele>
        <time>2022-01-21T13:30:24.000Z</time>
      </trkpt>
      <trkpt lat="43.50217" lon="6.37848">
        <ele>244</ele>
        <time>2022-01-21T13:30:25.000Z</time>
      </trkpt>
      <trkpt lat="43.50217" lon="6.3785">
        <ele>244</ele>
        <time>2022-01-21T13:30:26.000Z</time>
      </trkpt>
      <trkpt lat="43.50217" lon="6.37851">
        <ele>244</ele>
        <time>2022-01-21T13:30:27.000Z</time>
      </trkpt>
      <trkpt lat="43.50217" lon="6.37852">
        <ele>244</ele>
        <time>2022-01-21T13:30:28.000Z</time>
      </trkpt>
      <trkpt lat="43.50217" lon="6.37853">
        <ele>245</ele>
        <time>2022-01-21T13:30:29.000Z</time>
      </trkpt>
      <trkpt lat="43.50217" lon="6.37855">
        <ele>245</ele>
        <time>2022-01-21T13:30:30.000Z</time>
      </trkpt>
      <trkpt lat="43.50217" lon="6.37856">
        <ele>245</ele>
        <time>2022-01-21T13:30:31.000Z</time>
      </trkpt>
      <trkpt lat="43.50217" lon="6.37857">
        <ele>245</ele>
        <time>2022-01-21T13:30:32.000Z</time>
      </trkpt>
      <trkpt lat="43.50216" lon="6.37858">
        <ele>245</ele>
        <time>2022-01-21T13:30:33.000Z</time>
      </trkpt>
      <trkpt lat="43.50216" lon="6.3786">
        <ele>245</ele>
        <time>2022-01-21T13:30:34.000Z</time>
      </trkpt>
      <trkpt lat="43.50216" lon="6.37861">
        <ele>246</ele>
        <time>2022-01-21T13:30:35.000Z</time>
      </trkpt>
      <trkpt lat="43.50216" lon="6.37862">
        <ele>246</ele>
        <time>2022-01-21T13:30:36.000Z</time>
      </trkpt>
      <trkpt lat="43.50216" lon="6.37864">
        <ele>246</ele>
        <time>2022-01-21T13:30:37.000Z</time>
      </trkpt>
      <trkpt lat="43.50216" lon="6.37865">
        <ele>246</ele>
        <time>2022-01-21T13:30:38.000Z</time>
      </trkpt>
      <trkpt lat="43.50216" lon="6.37867">
        <ele>246</ele>
        <time>2022-01-21T13:30:39.000Z</time>
      </trkpt>
      <trkpt lat="43.50216" lon="6.37869">
        <ele>246</ele>
        <time>2022-01-21T13:30:40.000Z</time>
      </trkpt>
      <trkpt lat="43.50216" lon="6.3787">
        <ele>247</ele>
        <time>2022-01-21T13:30:41.000Z</time>
      </trkpt>
      <trkpt lat="43.50216" lon="6.37872">
        <ele>247</ele>
        <time>2022-01-21T13:30:42.000Z</time>
      </trkpt>
      <trkpt lat="43.50216" lon="6.37873">
        <ele>247</ele>
        <time>2022-01-21T13:30:43.000Z</time>
      </trkpt>
      <trkpt lat="43.50217" lon="6.37874">
        <ele>248</ele>
        <time>2022-01-21T13:30:44.000Z</time>
      </trkpt>
      <trkpt lat="43.50217" lon="6.37875">
        <ele>248</ele>
        <time>2022-01-21T13:30:45.000Z</time>
      </trkpt>
      <trkpt lat="43.50216" lon="6.37877">
        <ele>248</ele>
        <time>2022-01-21T13:30:46.000Z</time>
      </trkpt>
      <trkpt lat="43.50216" lon="6.37878">
        <ele>248</ele>
        <time>2022-01-21T13:30:47.000Z</time>
      </trkpt>
      <trkpt lat="43.50216" lon="6.37879">
        <ele>248</ele>
        <time>2022-01-21T13:30:48.000Z</time>
      </trkpt>
      <trkpt lat="43.50216" lon="6.37881">
        <ele>248</ele>
        <time>2022-01-21T13:30:49.000Z</time>
      </trkpt>
      <trkpt lat="43.50216" lon="6.37882">
        <ele>248</ele>
        <time>2022-01-21T13:30:50.000Z</time>
      </trkpt>
      <trkpt lat="43.50217" lon="6.37884">
        <ele>248</ele>
        <time>2022-01-21T13:30:51.000Z</time>
      </trkpt>
      <trkpt lat="43.50217" lon="6.37885">
        <ele>248</ele>
        <time>2022-01-21T13:30:52.000Z</time>
      </trkpt>
      <trkpt lat="43.50218" lon="6.37885">
        <ele>248</ele>
        <time>2022-01-21T13:30:53.000Z</time>
      </trkpt>
      <trkpt lat="43.50219" lon="6.37885">
        <ele>248</ele>
        <time>2022-01-21T13:30:54.000Z</time>
      </trkpt>
      <trkpt lat="43.50219" lon="6.37886">
        <ele>248</ele>
        <time>2022-01-21T13:30:55.000Z</time>
      </trkpt>
      <trkpt lat="43.50219" lon="6.37887">
        <ele>248</ele>
        <time>2022-01-21T13:30:56.000Z</time>
      </trkpt>
      <trkpt lat="43.5022" lon="6.37888">
        <ele>248</ele>
        <time>2022-01-21T13:30:57.000Z</time>
      </trkpt>
      <trkpt lat="43.5022" lon="6.37889">
        <ele>248</ele>
        <time>2022-01-21T13:30:58.000Z</time>
      </trkpt>
      <trkpt lat="43.5022" lon="6.37891">
        <ele>248</ele>
        <time>2022-01-21T13:30:59.000Z</time>
      </trkpt>
      <trkpt lat="43.5022" lon="6.37892">
        <ele>248</ele>
        <time>2022-01-21T13:31:00.000Z</time>
      </trkpt>
      <trkpt lat="43.5022" lon="6.37893">
        <ele>248</ele>
        <time>2022-01-21T13:31:01.000Z</time>
      </trkpt>
      <trkpt lat="43.5022" lon="6.37894">
        <ele>248</ele>
        <time>2022-01-21T13:31:02.000Z</time>
      </trkpt>
      <trkpt lat="43.5022" lon="6.37896">
        <ele>249</ele>
        <time>2022-01-21T13:31:03.000Z</time>
      </trkpt>
      <trkpt lat="43.5022" lon="6.37897">
        <ele>249</ele>
        <time>2022-01-21T13:31:04.000Z</time>
      </trkpt>
      <trkpt lat="43.5022" lon="6.37899">
        <ele>249</ele>
        <time>2022-01-21T13:31:05.000Z</time>
      </trkpt>
      <trkpt lat="43.50219" lon="6.37901">
        <ele>249</ele>
        <time>2022-01-21T13:31:06.000Z</time>
      </trkpt>
      <trkpt lat="43.50219" lon="6.37902">
        <ele>249</ele>
        <time>2022-01-21T13:31:07.000Z</time>
      </trkpt>
      <trkpt lat="43.50219" lon="6.37904">
        <ele>249</ele>
        <time>2022-01-21T13:31:08.000Z</time>
      </trkpt>
      <trkpt lat="43.50219" lon="6.37905">
        <ele>249</ele>
        <time>2022-01-21T13:31:09.000Z</time>
      </trkpt>
      <trkpt lat="43.50218" lon="6.37906">
        <ele>249</ele>
        <time>2022-01-21T13:31:10.000Z</time>
      </trkpt>
      <trkpt lat="43.50218" lon="6.37907">
        <ele>249</ele>
        <time>2022-01-21T13:31:11.000Z</time>
      </trkpt>
      <trkpt lat="43.50217" lon="6.37907">
        <ele>248</ele>
        <time>2022-01-21T13:31:12.000Z</time>
      </trkpt>
      <trkpt lat="43.50218" lon="6.37908">
        <ele>248</ele>
        <time>2022-01-21T13:31:13.000Z</time>
      </trkpt>
      <trkpt lat="43.50218" lon="6.3791">
        <ele>248</ele>
        <time>2022-01-21T13:31:14.000Z</time>
      </trkpt>
      <trkpt lat="43.50218" lon="6.37911">
        <ele>248</ele>
        <time>2022-01-21T13:31:15.000Z</time>
      </trkpt>
      <trkpt lat="43.50219" lon="6.37911">
        <ele>248</ele>
        <time>2022-01-21T13:31:16.000Z</time>
      </trkpt>
      <trkpt lat="43.50219" lon="6.37911">
        <ele>247</ele>
        <time>2022-01-21T13:31:17.000Z</time>
      </trkpt>
      <trkpt lat="43.50219" lon="6.37912">
        <ele>247</ele>
        <time>2022-01-21T13:31:18.000Z</time>
      </trkpt>
      <trkpt lat="43.50219" lon="6.37912">
        <ele>247</ele>
        <time>2022-01-21T13:31:19.000Z</time>
      </trkpt>
      <trkpt lat="43.50219" lon="6.37913">
        <ele>247</ele>
        <time>2022-01-21T13:31:20.000Z</time>
      </trkpt>
      <trkpt lat="43.50219" lon="6.37913">
        <ele>247</ele>
        <time>2022-01-21T13:31:21.000Z</time>
      </trkpt>
      <trkpt lat="43.50219" lon="6.37914">
        <ele>247</ele>
        <time>2022-01-21T13:31:22.000Z</time>
      </trkpt>
      <trkpt lat="43.50219" lon="6.37915">
        <ele>247</ele>
        <time>2022-01-21T13:31:23.000Z</time>
      </trkpt>
      <trkpt lat="43.5022" lon="6.37916">
        <ele>247</ele>
        <time>2022-01-21T13:31:24.000Z</time>
      </trkpt>
      <trkpt lat="43.5022" lon="6.37918">
        <ele>247</ele>
        <time>2022-01-21T13:31:25.000Z</time>
      </trkpt>
      <trkpt lat="43.5022" lon="6.37919">
        <ele>246</ele>
        <time>2022-01-21T13:31:26.000Z</time>
      </trkpt>
      <trkpt lat="43.50221" lon="6.3792">
        <ele>246</ele>
        <time>2022-01-21T13:31:27.000Z</time>
      </trkpt>
      <trkpt lat="43.50221" lon="6.37921">
        <ele>246</ele>
        <time>2022-01-21T13:31:28.000Z</time>
      </trkpt>
      <trkpt lat="43.50222" lon="6.37922">
        <ele>246</ele>
        <time>2022-01-21T13:31:29.000Z</time>
      </trkpt>
      <trkpt lat="43.50222" lon="6.37923">
        <ele>246</ele>
        <time>2022-01-21T13:31:30.000Z</time>
      </trkpt>
      <trkpt lat="43.50222" lon="6.37923">
        <ele>246</ele>
        <time>2022-01-21T13:31:31.000Z</time>
      </trkpt>
      <trkpt lat="43.50223" lon="6.37924">
        <ele>246</ele>
        <time>2022-01-21T13:31:32.000Z</time>
      </trkpt>
      <trkpt lat="43.50223" lon="6.37924">
        <ele>246</ele>
        <time>2022-01-21T13:31:33.000Z</time>
      </trkpt>
      <trkpt lat="43.50223" lon="6.37925">
        <ele>246</ele>
        <time>2022-01-21T13:31:34.000Z</time>
      </trkpt>
      <trkpt lat="43.50223" lon="6.37925">
        <ele>246</ele>
        <time>2022-01-21T13:31:35.000Z</time>
      </trkpt>
      <trkpt lat="43.50223" lon="6.37926">
        <ele>246</ele>
        <time>2022-01-21T13:31:36.000Z</time>
      </trkpt>
      <trkpt lat="43.50224" lon="6.37927">
        <ele>246</ele>
        <time>2022-01-21T13:31:37.000Z</time>
      </trkpt>
      <trkpt lat="43.50225" lon="6.37928">
        <ele>246</ele>
        <time>2022-01-21T13:31:38.000Z</time>
      </trkpt>
      <trkpt lat="43.50225" lon="6.37929">
        <ele>246</ele>
        <time>2022-01-21T13:31:39.000Z</time>
      </trkpt>
      <trkpt lat="43.50226" lon="6.3793">
        <ele>247</ele>
        <time>2022-01-21T13:31:40.000Z</time>
      </trkpt>
      <trkpt lat="43.50226" lon="6.3793">
        <ele>247</ele>
        <time>2022-01-21T13:31:41.000Z</time>
      </trkpt>
      <trkpt lat="43.50227" lon="6.37931">
        <ele>248</ele>
        <time>2022-01-21T13:31:42.000Z</time>
      </trkpt>
      <trkpt lat="43.50227" lon="6.37932">
        <ele>248</ele>
        <time>2022-01-21T13:31:43.000Z</time>
      </trkpt>
      <trkpt lat="43.50229" lon="6.37934">
        <ele>248</ele>
        <time>2022-01-21T13:31:44.000Z</time>
      </trkpt>
      <trkpt lat="43.50231" lon="6.37937">
        <ele>248</ele>
        <time>2022-01-21T13:31:45.000Z</time>
      </trkpt>
      <trkpt lat="43.50232" lon="6.37939">
        <ele>247</ele>
        <time>2022-01-21T13:31:46.000Z</time>
      </trkpt>
      <trkpt lat="43.50234" lon="6.3794">
        <ele>247</ele>
        <time>2022-01-21T13:31:47.000Z</time>
      </trkpt>
      <trkpt lat="43.50234" lon="6.37941">
        <ele>247</ele>
        <time>2022-01-21T13:31:48.000Z</time>
      </trkpt>
      <trkpt lat="43.50235" lon="6.37942">
        <ele>247</ele>
        <time>2022-01-21T13:31:49.000Z</time>
      </trkpt>
      <trkpt lat="43.50236" lon="6.37943">
        <ele>247</ele>
        <time>2022-01-21T13:31:50.000Z</time>
      </trkpt>
      <trkpt lat="43.50237" lon="6.37944">
        <ele>247</ele>
        <time>2022-01-21T13:31:51.000Z</time>
      </trkpt>
      <trkpt lat="43.50237" lon="6.37945">
        <ele>247</ele>
        <time>2022-01-21T13:31:52.000Z</time>
      </trkpt>
      <trkpt lat="43.50238" lon="6.37945">
        <ele>247</ele>
        <time>2022-01-21T13:31:53.000Z</time>
      </trkpt>
      <trkpt lat="43.50239" lon="6.37946">
        <ele>247</ele>
        <time>2022-01-21T13:31:54.000Z</time>
      </trkpt>
      <trkpt lat="43.5024" lon="6.37947">
        <ele>246</ele>
        <time>2022-01-21T13:31:55.000Z</time>
      </trkpt>
      <trkpt lat="43.50241" lon="6.37948">
        <ele>246</ele>
        <time>2022-01-21T13:31:56.000Z</time>
      </trkpt>
      <trkpt lat="43.50242" lon="6.37949">
        <ele>246</ele>
        <time>2022-01-21T13:31:57.000Z</time>
      </trkpt>
      <trkpt lat="43.50243" lon="6.3795">
        <ele>246</ele>
        <time>2022-01-21T13:31:58.000Z</time>
      </trkpt>
      <trkpt lat="43.50244" lon="6.37951">
        <ele>246</ele>
        <time>2022-01-21T13:31:59.000Z</time>
      </trkpt>
      <trkpt lat="43.50244" lon="6.37951">
        <ele>246</ele>
        <time>2022-01-21T13:32:00.000Z</time>
      </trkpt>
      <trkpt lat="43.50245" lon="6.37952">
        <ele>246</ele>
        <time>2022-01-21T13:32:01.000Z</time>
      </trkpt>
      <trkpt lat="43.50246" lon="6.37953">
        <ele>246</ele>
        <time>2022-01-21T13:32:02.000Z</time>
      </trkpt>
      <trkpt lat="43.50246" lon="6.37954">
        <ele>246</ele>
        <time>2022-01-21T13:32:03.000Z</time>
      </trkpt>
      <trkpt lat="43.50246" lon="6.37954">
        <ele>246</ele>
        <time>2022-01-21T13:32:04.000Z</time>
      </trkpt>
      <trkpt lat="43.50247" lon="6.37955">
        <ele>246</ele>
        <time>2022-01-21T13:32:05.000Z</time>
      </trkpt>
      <trkpt lat="43.50247" lon="6.37956">
        <ele>246</ele>
        <time>2022-01-21T13:32:06.000Z</time>
      </trkpt>
      <trkpt lat="43.50248" lon="6.37956">
        <ele>246</ele>
        <time>2022-01-21T13:32:07.000Z</time>
      </trkpt>
      <trkpt lat="43.50248" lon="6.37957">
        <ele>246</ele>
        <time>2022-01-21T13:32:08.000Z</time>
      </trkpt>
      <trkpt lat="43.50248" lon="6.37957">
        <ele>246</ele>
        <time>2022-01-21T13:32:09.000Z</time>
      </trkpt>
      <trkpt lat="43.50249" lon="6.37958">
        <ele>246</ele>
        <time>2022-01-21T13:32:10.000Z</time>
      </trkpt>
      <trkpt lat="43.50249" lon="6.37958">
        <ele>246</ele>
        <time>2022-01-21T13:32:11.000Z</time>
      </trkpt>
      <trkpt lat="43.50249" lon="6.37959">
        <ele>246</ele>
        <time>2022-01-21T13:32:12.000Z</time>
      </trkpt>
      <trkpt lat="43.50249" lon="6.37959">
        <ele>246</ele>
        <time>2022-01-21T13:32:13.000Z</time>
      </trkpt>
      <trkpt lat="43.50249" lon="6.3796">
        <ele>246</ele>
        <time>2022-01-21T13:32:14.000Z</time>
      </trkpt>
      <trkpt lat="43.5025" lon="6.3796">
        <ele>246</ele>
        <time>2022-01-21T13:32:15.000Z</time>
      </trkpt>
      <trkpt lat="43.5025" lon="6.37961">
        <ele>247</ele>
        <time>2022-01-21T13:32:16.000Z</time>
      </trkpt>
      <trkpt lat="43.50251" lon="6.37962">
        <ele>247</ele>
        <time>2022-01-21T13:32:17.000Z</time>
      </trkpt>
      <trkpt lat="43.50252" lon="6.37963">
        <ele>247</ele>
        <time>2022-01-21T13:32:18.000Z</time>
      </trkpt>
      <trkpt lat="43.50252" lon="6.37964">
        <ele>247</ele>
        <time>2022-01-21T13:32:19.000Z</time>
      </trkpt>
      <trkpt lat="43.50254" lon="6.37965">
        <ele>247</ele>
        <time>2022-01-21T13:32:20.000Z</time>
      </trkpt>
      <trkpt lat="43.50255" lon="6.37967">
        <ele>247</ele>
        <time>2022-01-21T13:32:21.000Z</time>
      </trkpt>
      <trkpt lat="43.50256" lon="6.37968">
        <ele>246</ele>
        <time>2022-01-21T13:32:22.000Z</time>
      </trkpt>
      <trkpt lat="43.50256" lon="6.37969">
        <ele>246</ele>
        <time>2022-01-21T13:32:23.000Z</time>
      </trkpt>
      <trkpt lat="43.50256" lon="6.3797">
        <ele>246</ele>
        <time>2022-01-21T13:32:24.000Z</time>
      </trkpt>
      <trkpt lat="43.50256" lon="6.37971">
        <ele>246</ele>
        <time>2022-01-21T13:32:25.000Z</time>
      </trkpt>
      <trkpt lat="43.50257" lon="6.37972">
        <ele>246</ele>
        <time>2022-01-21T13:32:26.000Z</time>
      </trkpt>
      <trkpt lat="43.50258" lon="6.37972">
        <ele>246</ele>
        <time>2022-01-21T13:32:27.000Z</time>
      </trkpt>
      <trkpt lat="43.50258" lon="6.37972">
        <ele>246</ele>
        <time>2022-01-21T13:32:28.000Z</time>
      </trkpt>
      <trkpt lat="43.50259" lon="6.37973">
        <ele>246</ele>
        <time>2022-01-21T13:32:29.000Z</time>
      </trkpt>
      <trkpt lat="43.5026" lon="6.37973">
        <ele>247</ele>
        <time>2022-01-21T13:32:30.000Z</time>
      </trkpt>
      <trkpt lat="43.50261" lon="6.37974">
        <ele>247</ele>
        <time>2022-01-21T13:32:31.000Z</time>
      </trkpt>
      <trkpt lat="43.50262" lon="6.37974">
        <ele>247</ele>
        <time>2022-01-21T13:32:32.000Z</time>
      </trkpt>
      <trkpt lat="43.50263" lon="6.37975">
        <ele>247</ele>
        <time>2022-01-21T13:32:33.000Z</time>
      </trkpt>
      <trkpt lat="43.50264" lon="6.37976">
        <ele>247</ele>
        <time>2022-01-21T13:32:34.000Z</time>
      </trkpt>
      <trkpt lat="43.50264" lon="6.37976">
        <ele>247</ele>
        <time>2022-01-21T13:32:35.000Z</time>
      </trkpt>
      <trkpt lat="43.50265" lon="6.37977">
        <ele>247</ele>
        <time>2022-01-21T13:32:36.000Z</time>
      </trkpt>
      <trkpt lat="43.50266" lon="6.37978">
        <ele>247</ele>
        <time>2022-01-21T13:32:37.000Z</time>
      </trkpt>
      <trkpt lat="43.50266" lon="6.37979">
        <ele>247</ele>
        <time>2022-01-21T13:32:38.000Z</time>
      </trkpt>
      <trkpt lat="43.50267" lon="6.3798">
        <ele>247</ele>
        <time>2022-01-21T13:32:39.000Z</time>
      </trkpt>
      <trkpt lat="43.50267" lon="6.37981">
        <ele>247</ele>
        <time>2022-01-21T13:32:40.000Z</time>
      </trkpt>
      <trkpt lat="43.50267" lon="6.37982">
        <ele>247</ele>
        <time>2022-01-21T13:32:41.000Z</time>
      </trkpt>
      <trkpt lat="43.50268" lon="6.37983">
        <ele>247</ele>
        <time>2022-01-21T13:32:42.000Z</time>
      </trkpt>
      <trkpt lat="43.50268" lon="6.37984">
        <ele>248</ele>
        <time>2022-01-21T13:32:43.000Z</time>
      </trkpt>
      <trkpt lat="43.50268" lon="6.37985">
        <ele>248</ele>
        <time>2022-01-21T13:32:44.000Z</time>
      </trkpt>
      <trkpt lat="43.50268" lon="6.37986">
        <ele>248</ele>
        <time>2022-01-21T13:32:45.000Z</time>
      </trkpt>
      <trkpt lat="43.50269" lon="6.37987">
        <ele>248</ele>
        <time>2022-01-21T13:32:46.000Z</time>
      </trkpt>
      <trkpt lat="43.50269" lon="6.37988">
        <ele>248</ele>
        <time>2022-01-21T13:32:47.000Z</time>
      </trkpt>
      <trkpt lat="43.50269" lon="6.37989">
        <ele>248</ele>
        <time>2022-01-21T13:32:48.000Z</time>
      </trkpt>
      <trkpt lat="43.50269" lon="6.3799">
        <ele>248</ele>
        <time>2022-01-21T13:32:49.000Z</time>
      </trkpt>
      <trkpt lat="43.50269" lon="6.37991">
        <ele>248</ele>
        <time>2022-01-21T13:32:50.000Z</time>
      </trkpt>
      <trkpt lat="43.5027" lon="6.37992">
        <ele>248</ele>
        <time>2022-01-21T13:32:51.000Z</time>
      </trkpt>
      <trkpt lat="43.5027" lon="6.37993">
        <ele>248</ele>
        <time>2022-01-21T13:32:52.000Z</time>
      </trkpt>
      <trkpt lat="43.5027" lon="6.37993">
        <ele>248</ele>
        <time>2022-01-21T13:32:53.000Z</time>
      </trkpt>
      <trkpt lat="43.5027" lon="6.37994">
        <ele>248</ele>
        <time>2022-01-21T13:32:54.000Z</time>
      </trkpt>
      <trkpt lat="43.5027" lon="6.37994">
        <ele>248</ele>
        <time>2022-01-21T13:32:55.000Z</time>
      </trkpt>
      <trkpt lat="43.5027" lon="6.37995">
        <ele>248</ele>
        <time>2022-01-21T13:32:56.000Z</time>
      </trkpt>
      <trkpt lat="43.5027" lon="6.37995">
        <ele>248</ele>
        <time>2022-01-21T13:32:57.000Z</time>
      </trkpt>
      <trkpt lat="43.5027" lon="6.37995">
        <ele>248</ele>
        <time>2022-01-21T13:32:58.000Z</time>
      </trkpt>
      <trkpt lat="43.5027" lon="6.37995">
        <ele>248</ele>
        <time>2022-01-21T13:32:59.000Z</time>
      </trkpt>
      <trkpt lat="43.5027" lon="6.37995">
        <ele>248</ele>
        <time>2022-01-21T13:33:00.000Z</time>
      </trkpt>
      <trkpt lat="43.5027" lon="6.37995">
        <ele>248</ele>
        <time>2022-01-21T13:33:01.000Z</time>
      </trkpt>
      <trkpt lat="43.5027" lon="6.37995">
        <ele>248</ele>
        <time>2022-01-21T13:33:02.000Z</time>
      </trkpt>
      <trkpt lat="43.5027" lon="6.37995">
        <ele>248</ele>
        <time>2022-01-21T13:33:03.000Z</time>
      </trkpt>
      <trkpt lat="43.5027" lon="6.37995">
        <ele>248</ele>
        <time>2022-01-21T13:33:04.000Z</time>
      </trkpt>
      <trkpt lat="43.5027" lon="6.37995">
        <ele>248</ele>
        <time>2022-01-21T13:33:05.000Z</time>
      </trkpt>
      <trkpt lat="43.5027" lon="6.37995">
        <ele>248</ele>
        <time>2022-01-21T13:33:06.000Z</time>
      </trkpt>
      <trkpt lat="43.50269" lon="6.37994">
        <ele>248</ele>
        <time>2022-01-21T13:33:07.000Z</time>
      </trkpt>
      <trkpt lat="43.50269" lon="6.37993">
        <ele>248</ele>
        <time>2022-01-21T13:33:08.000Z</time>
      </trkpt>
      <trkpt lat="43.50269" lon="6.37994">
        <ele>248</ele>
        <time>2022-01-21T13:33:09.000Z</time>
      </trkpt>
      <trkpt lat="43.50269" lon="6.37994">
        <ele>248</ele>
        <time>2022-01-21T13:33:10.000Z</time>
      </trkpt>
      <trkpt lat="43.50269" lon="6.37995">
        <ele>248</ele>
        <time>2022-01-21T13:33:11.000Z</time>
      </trkpt>
      <trkpt lat="43.50269" lon="6.37996">
        <ele>248</ele>
        <time>2022-01-21T13:33:12.000Z</time>
      </trkpt>
      <trkpt lat="43.50269" lon="6.37997">
        <ele>248</ele>
        <time>2022-01-21T13:33:13.000Z</time>
      </trkpt>
      <trkpt lat="43.50269" lon="6.37998">
        <ele>248</ele>
        <time>2022-01-21T13:33:14.000Z</time>
      </trkpt>
      <trkpt lat="43.50269" lon="6.37999">
        <ele>248</ele>
        <time>2022-01-21T13:33:15.000Z</time>
      </trkpt>
      <trkpt lat="43.5027" lon="6.38">
        <ele>248</ele>
        <time>2022-01-21T13:33:16.000Z</time>
      </trkpt>
      <trkpt lat="43.5027" lon="6.38002">
        <ele>248</ele>
        <time>2022-01-21T13:33:17.000Z</time>
      </trkpt>
      <trkpt lat="43.5027" lon="6.38003">
        <ele>248</ele>
        <time>2022-01-21T13:33:18.000Z</time>
      </trkpt>
      <trkpt lat="43.50269" lon="6.38004">
        <ele>248</ele>
        <time>2022-01-21T13:33:19.000Z</time>
      </trkpt>
      <trkpt lat="43.50269" lon="6.38006">
        <ele>246</ele>
        <time>2022-01-21T13:33:20.000Z</time>
      </trkpt>
      <trkpt lat="43.50268" lon="6.38007">
        <ele>246</ele>
        <time>2022-01-21T13:33:21.000Z</time>
      </trkpt>
      <trkpt lat="43.50269" lon="6.38008">
        <ele>245</ele>
        <time>2022-01-21T13:33:22.000Z</time>
      </trkpt>
      <trkpt lat="43.50269" lon="6.38009">
        <ele>245</ele>
        <time>2022-01-21T13:33:23.000Z</time>
      </trkpt>
      <trkpt lat="43.50269" lon="6.3801">
        <ele>245</ele>
        <time>2022-01-21T13:33:24.000Z</time>
      </trkpt>
      <trkpt lat="43.5027" lon="6.38011">
        <ele>245</ele>
        <time>2022-01-21T13:33:25.000Z</time>
      </trkpt>
      <trkpt lat="43.5027" lon="6.38012">
        <ele>245</ele>
        <time>2022-01-21T13:33:26.000Z</time>
      </trkpt>
      <trkpt lat="43.5027" lon="6.38012">
        <ele>244</ele>
        <time>2022-01-21T13:33:27.000Z</time>
      </trkpt>
      <trkpt lat="43.50271" lon="6.38012">
        <ele>244</ele>
        <time>2022-01-21T13:33:28.000Z</time>
      </trkpt>
      <trkpt lat="43.50271" lon="6.38012">
        <ele>244</ele>
        <time>2022-01-21T13:33:29.000Z</time>
      </trkpt>
      <trkpt lat="43.50271" lon="6.38012">
        <ele>244</ele>
        <time>2022-01-21T13:33:30.000Z</time>
      </trkpt>
      <trkpt lat="43.50272" lon="6.38012">
        <ele>244</ele>
        <time>2022-01-21T13:33:31.000Z</time>
      </trkpt>
      <trkpt lat="43.50272" lon="6.38013">
        <ele>244</ele>
        <time>2022-01-21T13:33:32.000Z</time>
      </trkpt>
      <trkpt lat="43.50272" lon="6.38014">
        <ele>244</ele>
        <time>2022-01-21T13:33:33.000Z</time>
      </trkpt>
      <trkpt lat="43.50271" lon="6.38015">
        <ele>244</ele>
        <time>2022-01-21T13:33:34.000Z</time>
      </trkpt>
      <trkpt lat="43.5027" lon="6.38017">
        <ele>244</ele>
        <time>2022-01-21T13:33:35.000Z</time>
      </trkpt>
      <trkpt lat="43.5027" lon="6.38017">
        <ele>244</ele>
        <time>2022-01-21T13:33:36.000Z</time>
      </trkpt>
      <trkpt lat="43.5027" lon="6.38018">
        <ele>244</ele>
        <time>2022-01-21T13:33:37.000Z</time>
      </trkpt>
      <trkpt lat="43.5027" lon="6.38019">
        <ele>244</ele>
        <time>2022-01-21T13:33:38.000Z</time>
      </trkpt>
      <trkpt lat="43.5027" lon="6.3802">
        <ele>244</ele>
        <time>2022-01-21T13:33:39.000Z</time>
      </trkpt>
      <trkpt lat="43.5027" lon="6.38021">
        <ele>245</ele>
        <time>2022-01-21T13:33:40.000Z</time>
      </trkpt>
      <trkpt lat="43.5027" lon="6.38022">
        <ele>245</ele>
        <time>2022-01-21T13:33:41.000Z</time>
      </trkpt>
      <trkpt lat="43.5027" lon="6.38024">
        <ele>245</ele>
        <time>2022-01-21T13:33:42.000Z</time>
      </trkpt>
      <trkpt lat="43.5027" lon="6.38025">
        <ele>245</ele>
        <time>2022-01-21T13:33:43.000Z</time>
      </trkpt>
      <trkpt lat="43.5027" lon="6.38027">
        <ele>245</ele>
        <time>2022-01-21T13:33:44.000Z</time>
      </trkpt>
      <trkpt lat="43.5027" lon="6.38028">
        <ele>245</ele>
        <time>2022-01-21T13:33:45.000Z</time>
      </trkpt>
      <trkpt lat="43.50271" lon="6.38029">
        <ele>245</ele>
        <time>2022-01-21T13:33:46.000Z</time>
      </trkpt>
      <trkpt lat="43.50271" lon="6.38031">
        <ele>246</ele>
        <time>2022-01-21T13:33:47.000Z</time>
      </trkpt>
      <trkpt lat="43.50271" lon="6.38033">
        <ele>246</ele>
        <time>2022-01-21T13:33:48.000Z</time>
      </trkpt>
      <trkpt lat="43.50271" lon="6.38034">
        <ele>246</ele>
        <time>2022-01-21T13:33:49.000Z</time>
      </trkpt>
      <trkpt lat="43.50271" lon="6.38036">
        <ele>246</ele>
        <time>2022-01-21T13:33:50.000Z</time>
      </trkpt>
      <trkpt lat="43.50271" lon="6.38037">
        <ele>246</ele>
        <time>2022-01-21T13:33:51.000Z</time>
      </trkpt>
      <trkpt lat="43.50272" lon="6.38039">
        <ele>246</ele>
        <time>2022-01-21T13:33:52.000Z</time>
      </trkpt>
      <trkpt lat="43.50272" lon="6.38041">
        <ele>246</ele>
        <time>2022-01-21T13:33:53.000Z</time>
      </trkpt>
      <trkpt lat="43.50272" lon="6.38042">
        <ele>246</ele>
        <time>2022-01-21T13:33:54.000Z</time>
      </trkpt>
      <trkpt lat="43.50273" lon="6.38045">
        <ele>246</ele>
        <time>2022-01-21T13:33:55.000Z</time>
      </trkpt>
      <trkpt lat="43.50273" lon="6.38048">
        <ele>246</ele>
        <time>2022-01-21T13:33:56.000Z</time>
      </trkpt>
      <trkpt lat="43.50274" lon="6.3805">
        <ele>246</ele>
        <time>2022-01-21T13:33:57.000Z</time>
      </trkpt>
      <trkpt lat="43.50274" lon="6.38053">
        <ele>246</ele>
        <time>2022-01-21T13:33:58.000Z</time>
      </trkpt>
      <trkpt lat="43.50275" lon="6.38055">
        <ele>246</ele>
        <time>2022-01-21T13:33:59.000Z</time>
      </trkpt>
      <trkpt lat="43.50275" lon="6.38057">
        <ele>246</ele>
        <time>2022-01-21T13:34:00.000Z</time>
      </trkpt>
      <trkpt lat="43.50275" lon="6.38059">
        <ele>246</ele>
        <time>2022-01-21T13:34:01.000Z</time>
      </trkpt>
      <trkpt lat="43.50275" lon="6.38061">
        <ele>246</ele>
        <time>2022-01-21T13:34:02.000Z</time>
      </trkpt>
      <trkpt lat="43.50276" lon="6.38062">
        <ele>246</ele>
        <time>2022-01-21T13:34:03.000Z</time>
      </trkpt>
      <trkpt lat="43.50276" lon="6.38064">
        <ele>246</ele>
        <time>2022-01-21T13:34:04.000Z</time>
      </trkpt>
      <trkpt lat="43.50276" lon="6.38066">
        <ele>246</ele>
        <time>2022-01-21T13:34:05.000Z</time>
      </trkpt>
      <trkpt lat="43.50276" lon="6.38067">
        <ele>245</ele>
        <time>2022-01-21T13:34:06.000Z</time>
      </trkpt>
      <trkpt lat="43.50277" lon="6.38069">
        <ele>245</ele>
        <time>2022-01-21T13:34:07.000Z</time>
      </trkpt>
      <trkpt lat="43.50277" lon="6.3807">
        <ele>245</ele>
        <time>2022-01-21T13:34:08.000Z</time>
      </trkpt>
      <trkpt lat="43.50277" lon="6.38071">
        <ele>245</ele>
        <time>2022-01-21T13:34:09.000Z</time>
      </trkpt>
      <trkpt lat="43.50277" lon="6.38073">
        <ele>245</ele>
        <time>2022-01-21T13:34:10.000Z</time>
      </trkpt>
      <trkpt lat="43.50277" lon="6.38074">
        <ele>245</ele>
        <time>2022-01-21T13:34:11.000Z</time>
      </trkpt>
      <trkpt lat="43.50277" lon="6.38076">
        <ele>245</ele>
        <time>2022-01-21T13:34:12.000Z</time>
      </trkpt>
      <trkpt lat="43.50277" lon="6.38077">
        <ele>245</ele>
        <time>2022-01-21T13:34:13.000Z</time>
      </trkpt>
      <trkpt lat="43.50277" lon="6.38079">
        <ele>245</ele>
        <time>2022-01-21T13:34:14.000Z</time>
      </trkpt>
      <trkpt lat="43.50277" lon="6.3808">
        <ele>245</ele>
        <time>2022-01-21T13:34:15.000Z</time>
      </trkpt>
      <trkpt lat="43.50277" lon="6.38082">
        <ele>245</ele>
        <time>2022-01-21T13:34:16.000Z</time>
      </trkpt>
      <trkpt lat="43.50277" lon="6.38083">
        <ele>245</ele>
        <time>2022-01-21T13:34:17.000Z</time>
      </trkpt>
      <trkpt lat="43.50277" lon="6.38085">
        <ele>245</ele>
        <time>2022-01-21T13:34:18.000Z</time>
      </trkpt>
      <trkpt lat="43.50278" lon="6.38086">
        <ele>244</ele>
        <time>2022-01-21T13:34:19.000Z</time>
      </trkpt>
      <trkpt lat="43.50278" lon="6.38088">
        <ele>244</ele>
        <time>2022-01-21T13:34:20.000Z</time>
      </trkpt>
      <trkpt lat="43.50278" lon="6.38089">
        <ele>244</ele>
        <time>2022-01-21T13:34:21.000Z</time>
      </trkpt>
      <trkpt lat="43.50278" lon="6.38091">
        <ele>244</ele>
        <time>2022-01-21T13:34:22.000Z</time>
      </trkpt>
      <trkpt lat="43.50278" lon="6.38092">
        <ele>244</ele>
        <time>2022-01-21T13:34:23.000Z</time>
      </trkpt>
      <trkpt lat="43.50279" lon="6.38094">
        <ele>244</ele>
        <time>2022-01-21T13:34:24.000Z</time>
      </trkpt>
      <trkpt lat="43.50279" lon="6.38095">
        <ele>244</ele>
        <time>2022-01-21T13:34:25.000Z</time>
      </trkpt>
      <trkpt lat="43.50279" lon="6.38096">
        <ele>244</ele>
        <time>2022-01-21T13:34:26.000Z</time>
      </trkpt>
      <trkpt lat="43.5028" lon="6.38098">
        <ele>244</ele>
        <time>2022-01-21T13:34:27.000Z</time>
      </trkpt>
      <trkpt lat="43.5028" lon="6.38099">
        <ele>244</ele>
        <time>2022-01-21T13:34:28.000Z</time>
      </trkpt>
      <trkpt lat="43.5028" lon="6.381">
        <ele>243</ele>
        <time>2022-01-21T13:34:29.000Z</time>
      </trkpt>
      <trkpt lat="43.5028" lon="6.38101">
        <ele>243</ele>
        <time>2022-01-21T13:34:30.000Z</time>
      </trkpt>
      <trkpt lat="43.5028" lon="6.38103">
        <ele>243</ele>
        <time>2022-01-21T13:34:31.000Z</time>
      </trkpt>
      <trkpt lat="43.50281" lon="6.38104">
        <ele>243</ele>
        <time>2022-01-21T13:34:32.000Z</time>
      </trkpt>
      <trkpt lat="43.50281" lon="6.38105">
        <ele>243</ele>
        <time>2022-01-21T13:34:33.000Z</time>
      </trkpt>
      <trkpt lat="43.50281" lon="6.38107">
        <ele>243</ele>
        <time>2022-01-21T13:34:34.000Z</time>
      </trkpt>
      <trkpt lat="43.50282" lon="6.38108">
        <ele>243</ele>
        <time>2022-01-21T13:34:35.000Z</time>
      </trkpt>
      <trkpt lat="43.50282" lon="6.38109">
        <ele>243</ele>
        <time>2022-01-21T13:34:36.000Z</time>
      </trkpt>
      <trkpt lat="43.50282" lon="6.38111">
        <ele>243</ele>
        <time>2022-01-21T13:34:37.000Z</time>
      </trkpt>
      <trkpt lat="43.50283" lon="6.38112">
        <ele>243</ele>
        <time>2022-01-21T13:34:38.000Z</time>
      </trkpt>
      <trkpt lat="43.50283" lon="6.38113">
        <ele>242</ele>
        <time>2022-01-21T13:34:39.000Z</time>
      </trkpt>
      <trkpt lat="43.50283" lon="6.38115">
        <ele>242</ele>
        <time>2022-01-21T13:34:40.000Z</time>
      </trkpt>
      <trkpt lat="43.50283" lon="6.38116">
        <ele>242</ele>
        <time>2022-01-21T13:34:41.000Z</time>
      </trkpt>
      <trkpt lat="43.50283" lon="6.38117">
        <ele>242</ele>
        <time>2022-01-21T13:34:42.000Z</time>
      </trkpt>
      <trkpt lat="43.50283" lon="6.38118">
        <ele>242</ele>
        <time>2022-01-21T13:34:43.000Z</time>
      </trkpt>
      <trkpt lat="43.50283" lon="6.38119">
        <ele>242</ele>
        <time>2022-01-21T13:34:44.000Z</time>
      </trkpt>
      <trkpt lat="43.50284" lon="6.3812">
        <ele>242</ele>
        <time>2022-01-21T13:34:45.000Z</time>
      </trkpt>
      <trkpt lat="43.50284" lon="6.38121">
        <ele>242</ele>
        <time>2022-01-21T13:34:46.000Z</time>
      </trkpt>
      <trkpt lat="43.50285" lon="6.38121">
        <ele>242</ele>
        <time>2022-01-21T13:34:47.000Z</time>
      </trkpt>
      <trkpt lat="43.50285" lon="6.38122">
        <ele>242</ele>
        <time>2022-01-21T13:34:48.000Z</time>
      </trkpt>
      <trkpt lat="43.50286" lon="6.38123">
        <ele>242</ele>
        <time>2022-01-21T13:34:49.000Z</time>
      </trkpt>
      <trkpt lat="43.50286" lon="6.38124">
        <ele>242</ele>
        <time>2022-01-21T13:34:50.000Z</time>
      </trkpt>
      <trkpt lat="43.50287" lon="6.38126">
        <ele>242</ele>
        <time>2022-01-21T13:34:51.000Z</time>
      </trkpt>
      <trkpt lat="43.50287" lon="6.38127">
        <ele>242</ele>
        <time>2022-01-21T13:34:52.000Z</time>
      </trkpt>
      <trkpt lat="43.50287" lon="6.38128">
        <ele>242</ele>
        <time>2022-01-21T13:34:53.000Z</time>
      </trkpt>
      <trkpt lat="43.50288" lon="6.38129">
        <ele>242</ele>
        <time>2022-01-21T13:34:54.000Z</time>
      </trkpt>
      <trkpt lat="43.50288" lon="6.3813">
        <ele>242</ele>
        <time>2022-01-21T13:34:55.000Z</time>
      </trkpt>
      <trkpt lat="43.50288" lon="6.38132">
        <ele>243</ele>
        <time>2022-01-21T13:34:56.000Z</time>
      </trkpt>
      <trkpt lat="43.50289" lon="6.38134">
        <ele>243</ele>
        <time>2022-01-21T13:34:57.000Z</time>
      </trkpt>
      <trkpt lat="43.50289" lon="6.38135">
        <ele>243</ele>
        <time>2022-01-21T13:34:58.000Z</time>
      </trkpt>
      <trkpt lat="43.50289" lon="6.38137">
        <ele>243</ele>
        <time>2022-01-21T13:34:59.000Z</time>
      </trkpt>
      <trkpt lat="43.50289" lon="6.38138">
        <ele>243</ele>
        <time>2022-01-21T13:35:00.000Z</time>
      </trkpt>
      <trkpt lat="43.5029" lon="6.3814">
        <ele>243</ele>
        <time>2022-01-21T13:35:01.000Z</time>
      </trkpt>
      <trkpt lat="43.5029" lon="6.38142">
        <ele>243</ele>
        <time>2022-01-21T13:35:02.000Z</time>
      </trkpt>
      <trkpt lat="43.5029" lon="6.38144">
        <ele>243</ele>
        <time>2022-01-21T13:35:03.000Z</time>
      </trkpt>
      <trkpt lat="43.5029" lon="6.38145">
        <ele>243</ele>
        <time>2022-01-21T13:35:04.000Z</time>
      </trkpt>
      <trkpt lat="43.5029" lon="6.38147">
        <ele>243</ele>
        <time>2022-01-21T13:35:05.000Z</time>
      </trkpt>
      <trkpt lat="43.5029" lon="6.38148">
        <ele>243</ele>
        <time>2022-01-21T13:35:06.000Z</time>
      </trkpt>
      <trkpt lat="43.50291" lon="6.38149">
        <ele>243</ele>
        <time>2022-01-21T13:35:07.000Z</time>
      </trkpt>
      <trkpt lat="43.50291" lon="6.38149">
        <ele>243</ele>
        <time>2022-01-21T13:35:08.000Z</time>
      </trkpt>
      <trkpt lat="43.50291" lon="6.38149">
        <ele>243</ele>
        <time>2022-01-21T13:35:09.000Z</time>
      </trkpt>
      <trkpt lat="43.50291" lon="6.38149">
        <ele>243</ele>
        <time>2022-01-21T13:35:10.000Z</time>
      </trkpt>
      <trkpt lat="43.50292" lon="6.3815">
        <ele>242</ele>
        <time>2022-01-21T13:35:11.000Z</time>
      </trkpt>
      <trkpt lat="43.50293" lon="6.3815">
        <ele>241</ele>
        <time>2022-01-21T13:35:12.000Z</time>
      </trkpt>
      <trkpt lat="43.50293" lon="6.38151">
        <ele>241</ele>
        <time>2022-01-21T13:35:13.000Z</time>
      </trkpt>
      <trkpt lat="43.50294" lon="6.38152">
        <ele>241</ele>
        <time>2022-01-21T13:35:14.000Z</time>
      </trkpt>
      <trkpt lat="43.50294" lon="6.38154">
        <ele>241</ele>
        <time>2022-01-21T13:35:15.000Z</time>
      </trkpt>
      <trkpt lat="43.50295" lon="6.38156">
        <ele>240</ele>
        <time>2022-01-21T13:35:16.000Z</time>
      </trkpt>
      <trkpt lat="43.50295" lon="6.38158">
        <ele>240</ele>
        <time>2022-01-21T13:35:17.000Z</time>
      </trkpt>
      <trkpt lat="43.50296" lon="6.3816">
        <ele>241</ele>
        <time>2022-01-21T13:35:18.000Z</time>
      </trkpt>
      <trkpt lat="43.50296" lon="6.38161">
        <ele>241</ele>
        <time>2022-01-21T13:35:19.000Z</time>
      </trkpt>
      <trkpt lat="43.50297" lon="6.38163">
        <ele>240</ele>
        <time>2022-01-21T13:35:20.000Z</time>
      </trkpt>
      <trkpt lat="43.50297" lon="6.38164">
        <ele>240</ele>
        <time>2022-01-21T13:35:21.000Z</time>
      </trkpt>
      <trkpt lat="43.50298" lon="6.38165">
        <ele>240</ele>
        <time>2022-01-21T13:35:22.000Z</time>
      </trkpt>
      <trkpt lat="43.50298" lon="6.38166">
        <ele>240</ele>
        <time>2022-01-21T13:35:23.000Z</time>
      </trkpt>
      <trkpt lat="43.50299" lon="6.38166">
        <ele>240</ele>
        <time>2022-01-21T13:35:24.000Z</time>
      </trkpt>
      <trkpt lat="43.50299" lon="6.38167">
        <ele>239</ele>
        <time>2022-01-21T13:35:25.000Z</time>
      </trkpt>
      <trkpt lat="43.503" lon="6.38168">
        <ele>239</ele>
        <time>2022-01-21T13:35:26.000Z</time>
      </trkpt>
      <trkpt lat="43.50301" lon="6.38169">
        <ele>239</ele>
        <time>2022-01-21T13:35:27.000Z</time>
      </trkpt>
      <trkpt lat="43.50302" lon="6.38171">
        <ele>239</ele>
        <time>2022-01-21T13:35:28.000Z</time>
      </trkpt>
      <trkpt lat="43.50302" lon="6.38172">
        <ele>239</ele>
        <time>2022-01-21T13:35:29.000Z</time>
      </trkpt>
      <trkpt lat="43.50303" lon="6.38174">
        <ele>239</ele>
        <time>2022-01-21T13:35:30.000Z</time>
      </trkpt>
      <trkpt lat="43.50304" lon="6.38175">
        <ele>239</ele>
        <time>2022-01-21T13:35:31.000Z</time>
      </trkpt>
      <trkpt lat="43.50304" lon="6.38176">
        <ele>239</ele>
        <time>2022-01-21T13:35:32.000Z</time>
      </trkpt>
      <trkpt lat="43.50305" lon="6.38176">
        <ele>239</ele>
        <time>2022-01-21T13:35:33.000Z</time>
      </trkpt>
      <trkpt lat="43.50305" lon="6.38177">
        <ele>239</ele>
        <time>2022-01-21T13:35:34.000Z</time>
      </trkpt>
      <trkpt lat="43.50305" lon="6.38177">
        <ele>239</ele>
        <time>2022-01-21T13:35:35.000Z</time>
      </trkpt>
      <trkpt lat="43.50305" lon="6.38177">
        <ele>239</ele>
        <time>2022-01-21T13:35:36.000Z</time>
      </trkpt>
      <trkpt lat="43.50305" lon="6.38177">
        <ele>239</ele>
        <time>2022-01-21T13:35:37.000Z</time>
      </trkpt>
      <trkpt lat="43.50305" lon="6.38178">
        <ele>239</ele>
        <time>2022-01-21T13:35:38.000Z</time>
      </trkpt>
      <trkpt lat="43.50306" lon="6.38178">
        <ele>239</ele>
        <time>2022-01-21T13:35:39.000Z</time>
      </trkpt>
      <trkpt lat="43.50306" lon="6.38179">
        <ele>239</ele>
        <time>2022-01-21T13:35:40.000Z</time>
      </trkpt>
      <trkpt lat="43.50306" lon="6.3818">
        <ele>239</ele>
        <time>2022-01-21T13:35:41.000Z</time>
      </trkpt>
      <trkpt lat="43.50307" lon="6.38182">
        <ele>239</ele>
        <time>2022-01-21T13:35:42.000Z</time>
      </trkpt>
      <trkpt lat="43.50307" lon="6.38185">
        <ele>240</ele>
        <time>2022-01-21T13:35:43.000Z</time>
      </trkpt>
      <trkpt lat="43.50308" lon="6.38187">
        <ele>240</ele>
        <time>2022-01-21T13:35:44.000Z</time>
      </trkpt>
      <trkpt lat="43.50308" lon="6.3819">
        <ele>240</ele>
        <time>2022-01-21T13:35:45.000Z</time>
      </trkpt>
      <trkpt lat="43.50309" lon="6.38192">
        <ele>240</ele>
        <time>2022-01-21T13:35:46.000Z</time>
      </trkpt>
      <trkpt lat="43.5031" lon="6.38194">
        <ele>240</ele>
        <time>2022-01-21T13:35:47.000Z</time>
      </trkpt>
      <trkpt lat="43.5031" lon="6.38195">
        <ele>240</ele>
        <time>2022-01-21T13:35:48.000Z</time>
      </trkpt>
      <trkpt lat="43.50311" lon="6.38197">
        <ele>240</ele>
        <time>2022-01-21T13:35:49.000Z</time>
      </trkpt>
      <trkpt lat="43.50312" lon="6.38198">
        <ele>240</ele>
        <time>2022-01-21T13:35:50.000Z</time>
      </trkpt>
      <trkpt lat="43.50312" lon="6.382">
        <ele>240</ele>
        <time>2022-01-21T13:35:51.000Z</time>
      </trkpt>
      <trkpt lat="43.50313" lon="6.38202">
        <ele>240</ele>
        <time>2022-01-21T13:35:52.000Z</time>
      </trkpt>
      <trkpt lat="43.50313" lon="6.38203">
        <ele>240</ele>
        <time>2022-01-21T13:35:53.000Z</time>
      </trkpt>
      <trkpt lat="43.50314" lon="6.38203">
        <ele>240</ele>
        <time>2022-01-21T13:35:54.000Z</time>
      </trkpt>
      <trkpt lat="43.50314" lon="6.38203">
        <ele>240</ele>
        <time>2022-01-21T13:35:55.000Z</time>
      </trkpt>
      <trkpt lat="43.50314" lon="6.38204">
        <ele>239</ele>
        <time>2022-01-21T13:35:56.000Z</time>
      </trkpt>
      <trkpt lat="43.50315" lon="6.38204">
        <ele>239</ele>
        <time>2022-01-21T13:35:57.000Z</time>
      </trkpt>
      <trkpt lat="43.50315" lon="6.38204">
        <ele>239</ele>
        <time>2022-01-21T13:35:58.000Z</time>
      </trkpt>
      <trkpt lat="43.50316" lon="6.38205">
        <ele>239</ele>
        <time>2022-01-21T13:35:59.000Z</time>
      </trkpt>
      <trkpt lat="43.50316" lon="6.38205">
        <ele>239</ele>
        <time>2022-01-21T13:36:00.000Z</time>
      </trkpt>
      <trkpt lat="43.50317" lon="6.38206">
        <ele>239</ele>
        <time>2022-01-21T13:36:01.000Z</time>
      </trkpt>
      <trkpt lat="43.50317" lon="6.38207">
        <ele>239</ele>
        <time>2022-01-21T13:36:02.000Z</time>
      </trkpt>
      <trkpt lat="43.50317" lon="6.38208">
        <ele>239</ele>
        <time>2022-01-21T13:36:03.000Z</time>
      </trkpt>
      <trkpt lat="43.50318" lon="6.38208">
        <ele>239</ele>
        <time>2022-01-21T13:36:04.000Z</time>
      </trkpt>
      <trkpt lat="43.50318" lon="6.38209">
        <ele>239</ele>
        <time>2022-01-21T13:36:05.000Z</time>
      </trkpt>
      <trkpt lat="43.50318" lon="6.3821">
        <ele>239</ele>
        <time>2022-01-21T13:36:06.000Z</time>
      </trkpt>
      <trkpt lat="43.50319" lon="6.38212">
        <ele>239</ele>
        <time>2022-01-21T13:36:07.000Z</time>
      </trkpt>
      <trkpt lat="43.50321" lon="6.38215">
        <ele>240</ele>
        <time>2022-01-21T13:36:08.000Z</time>
      </trkpt>
      <trkpt lat="43.50321" lon="6.38217">
        <ele>240</ele>
        <time>2022-01-21T13:36:09.000Z</time>
      </trkpt>
      <trkpt lat="43.50322" lon="6.38218">
        <ele>240</ele>
        <time>2022-01-21T13:36:10.000Z</time>
      </trkpt>
      <trkpt lat="43.50322" lon="6.38219">
        <ele>240</ele>
        <time>2022-01-21T13:36:11.000Z</time>
      </trkpt>
      <trkpt lat="43.50323" lon="6.3822">
        <ele>240</ele>
        <time>2022-01-21T13:36:12.000Z</time>
      </trkpt>
      <trkpt lat="43.50324" lon="6.38221">
        <ele>240</ele>
        <time>2022-01-21T13:36:13.000Z</time>
      </trkpt>
      <trkpt lat="43.50324" lon="6.38222">
        <ele>241</ele>
        <time>2022-01-21T13:36:14.000Z</time>
      </trkpt>
      <trkpt lat="43.50325" lon="6.38222">
        <ele>241</ele>
        <time>2022-01-21T13:36:15.000Z</time>
      </trkpt>
      <trkpt lat="43.50325" lon="6.38223">
        <ele>241</ele>
        <time>2022-01-21T13:36:16.000Z</time>
      </trkpt>
      <trkpt lat="43.50326" lon="6.38223">
        <ele>241</ele>
        <time>2022-01-21T13:36:17.000Z</time>
      </trkpt>
      <trkpt lat="43.50326" lon="6.38223">
        <ele>241</ele>
        <time>2022-01-21T13:36:18.000Z</time>
      </trkpt>
      <trkpt lat="43.50327" lon="6.38224">
        <ele>241</ele>
        <time>2022-01-21T13:36:19.000Z</time>
      </trkpt>
      <trkpt lat="43.50328" lon="6.38225">
        <ele>241</ele>
        <time>2022-01-21T13:36:20.000Z</time>
      </trkpt>
      <trkpt lat="43.50329" lon="6.38226">
        <ele>241</ele>
        <time>2022-01-21T13:36:21.000Z</time>
      </trkpt>
      <trkpt lat="43.5033" lon="6.38228">
        <ele>241</ele>
        <time>2022-01-21T13:36:22.000Z</time>
      </trkpt>
      <trkpt lat="43.50331" lon="6.38229">
        <ele>242</ele>
        <time>2022-01-21T13:36:23.000Z</time>
      </trkpt>
      <trkpt lat="43.50331" lon="6.3823">
        <ele>242</ele>
        <time>2022-01-21T13:36:24.000Z</time>
      </trkpt>
      <trkpt lat="43.50332" lon="6.38231">
        <ele>242</ele>
        <time>2022-01-21T13:36:25.000Z</time>
      </trkpt>
      <trkpt lat="43.50332" lon="6.38232">
        <ele>242</ele>
        <time>2022-01-21T13:36:26.000Z</time>
      </trkpt>
      <trkpt lat="43.50333" lon="6.38234">
        <ele>242</ele>
        <time>2022-01-21T13:36:27.000Z</time>
      </trkpt>
      <trkpt lat="43.50333" lon="6.38236">
        <ele>243</ele>
        <time>2022-01-21T13:36:28.000Z</time>
      </trkpt>
      <trkpt lat="43.50334" lon="6.38237">
        <ele>243</ele>
        <time>2022-01-21T13:36:29.000Z</time>
      </trkpt>
      <trkpt lat="43.50334" lon="6.38238">
        <ele>243</ele>
        <time>2022-01-21T13:36:30.000Z</time>
      </trkpt>
      <trkpt lat="43.50335" lon="6.38239">
        <ele>243</ele>
        <time>2022-01-21T13:36:31.000Z</time>
      </trkpt>
      <trkpt lat="43.50335" lon="6.3824">
        <ele>243</ele>
        <time>2022-01-21T13:36:32.000Z</time>
      </trkpt>
      <trkpt lat="43.50336" lon="6.3824">
        <ele>243</ele>
        <time>2022-01-21T13:36:33.000Z</time>
      </trkpt>
      <trkpt lat="43.50337" lon="6.38241">
        <ele>243</ele>
        <time>2022-01-21T13:36:34.000Z</time>
      </trkpt>
      <trkpt lat="43.50338" lon="6.38242">
        <ele>243</ele>
        <time>2022-01-21T13:36:35.000Z</time>
      </trkpt>
      <trkpt lat="43.50338" lon="6.38243">
        <ele>243</ele>
        <time>2022-01-21T13:36:36.000Z</time>
      </trkpt>
      <trkpt lat="43.50338" lon="6.38243">
        <ele>243</ele>
        <time>2022-01-21T13:36:37.000Z</time>
      </trkpt>
      <trkpt lat="43.50339" lon="6.38244">
        <ele>243</ele>
        <time>2022-01-21T13:36:38.000Z</time>
      </trkpt>
      <trkpt lat="43.5034" lon="6.38245">
        <ele>243</ele>
        <time>2022-01-21T13:36:39.000Z</time>
      </trkpt>
      <trkpt lat="43.50341" lon="6.38247">
        <ele>243</ele>
        <time>2022-01-21T13:36:40.000Z</time>
      </trkpt>
      <trkpt lat="43.50342" lon="6.38248">
        <ele>243</ele>
        <time>2022-01-21T13:36:41.000Z</time>
      </trkpt>
      <trkpt lat="43.50342" lon="6.38249">
        <ele>243</ele>
        <time>2022-01-21T13:36:42.000Z</time>
      </trkpt>
      <trkpt lat="43.50343" lon="6.3825">
        <ele>243</ele>
        <time>2022-01-21T13:36:43.000Z</time>
      </trkpt>
      <trkpt lat="43.50344" lon="6.38251">
        <ele>243</ele>
        <time>2022-01-21T13:36:44.000Z</time>
      </trkpt>
      <trkpt lat="43.50345" lon="6.38252">
        <ele>243</ele>
        <time>2022-01-21T13:36:45.000Z</time>
      </trkpt>
      <trkpt lat="43.50345" lon="6.38253">
        <ele>243</ele>
        <time>2022-01-21T13:36:46.000Z</time>
      </trkpt>
      <trkpt lat="43.50346" lon="6.38255">
        <ele>243</ele>
        <time>2022-01-21T13:36:47.000Z</time>
      </trkpt>
      <trkpt lat="43.50347" lon="6.38256">
        <ele>243</ele>
        <time>2022-01-21T13:36:48.000Z</time>
      </trkpt>
      <trkpt lat="43.50348" lon="6.38257">
        <ele>243</ele>
        <time>2022-01-21T13:36:49.000Z</time>
      </trkpt>
      <trkpt lat="43.50349" lon="6.38258">
        <ele>243</ele>
        <time>2022-01-21T13:36:50.000Z</time>
      </trkpt>
      <trkpt lat="43.50349" lon="6.38259">
        <ele>243</ele>
        <time>2022-01-21T13:36:51.000Z</time>
      </trkpt>
      <trkpt lat="43.5035" lon="6.3826">
        <ele>242</ele>
        <time>2022-01-21T13:36:52.000Z</time>
      </trkpt>
      <trkpt lat="43.50351" lon="6.3826">
        <ele>242</ele>
        <time>2022-01-21T13:36:53.000Z</time>
      </trkpt>
      <trkpt lat="43.50351" lon="6.38261">
        <ele>242</ele>
        <time>2022-01-21T13:36:54.000Z</time>
      </trkpt>
      <trkpt lat="43.50352" lon="6.38262">
        <ele>242</ele>
        <time>2022-01-21T13:36:55.000Z</time>
      </trkpt>
      <trkpt lat="43.50353" lon="6.38264">
        <ele>242</ele>
        <time>2022-01-21T13:36:56.000Z</time>
      </trkpt>
      <trkpt lat="43.50354" lon="6.38265">
        <ele>242</ele>
        <time>2022-01-21T13:36:57.000Z</time>
      </trkpt>
      <trkpt lat="43.50354" lon="6.38266">
        <ele>242</ele>
        <time>2022-01-21T13:36:58.000Z</time>
      </trkpt>
      <trkpt lat="43.50356" lon="6.38268">
        <ele>242</ele>
        <time>2022-01-21T13:36:59.000Z</time>
      </trkpt>
      <trkpt lat="43.50357" lon="6.38269">
        <ele>242</ele>
        <time>2022-01-21T13:37:00.000Z</time>
      </trkpt>
      <trkpt lat="43.50358" lon="6.38271">
        <ele>242</ele>
        <time>2022-01-21T13:37:01.000Z</time>
      </trkpt>
      <trkpt lat="43.50359" lon="6.38272">
        <ele>242</ele>
        <time>2022-01-21T13:37:02.000Z</time>
      </trkpt>
      <trkpt lat="43.5036" lon="6.38273">
        <ele>241</ele>
        <time>2022-01-21T13:37:03.000Z</time>
      </trkpt>
      <trkpt lat="43.50361" lon="6.38274">
        <ele>241</ele>
        <time>2022-01-21T13:37:04.000Z</time>
      </trkpt>
      <trkpt lat="43.50361" lon="6.38275">
        <ele>241</ele>
        <time>2022-01-21T13:37:05.000Z</time>
      </trkpt>
      <trkpt lat="43.50362" lon="6.38276">
        <ele>242</ele>
        <time>2022-01-21T13:37:06.000Z</time>
      </trkpt>
      <trkpt lat="43.50362" lon="6.38278">
        <ele>242</ele>
        <time>2022-01-21T13:37:07.000Z</time>
      </trkpt>
      <trkpt lat="43.50363" lon="6.38279">
        <ele>242</ele>
        <time>2022-01-21T13:37:08.000Z</time>
      </trkpt>
      <trkpt lat="43.50363" lon="6.3828">
        <ele>242</ele>
        <time>2022-01-21T13:37:09.000Z</time>
      </trkpt>
      <trkpt lat="43.50364" lon="6.38281">
        <ele>242</ele>
        <time>2022-01-21T13:37:10.000Z</time>
      </trkpt>
      <trkpt lat="43.50364" lon="6.38282">
        <ele>242</ele>
        <time>2022-01-21T13:37:11.000Z</time>
      </trkpt>
      <trkpt lat="43.50365" lon="6.38283">
        <ele>242</ele>
        <time>2022-01-21T13:37:12.000Z</time>
      </trkpt>
      <trkpt lat="43.50365" lon="6.38283">
        <ele>242</ele>
        <time>2022-01-21T13:37:13.000Z</time>
      </trkpt>
      <trkpt lat="43.50365" lon="6.38283">
        <ele>242</ele>
        <time>2022-01-21T13:37:14.000Z</time>
      </trkpt>
      <trkpt lat="43.50365" lon="6.38284">
        <ele>242</ele>
        <time>2022-01-21T13:37:15.000Z</time>
      </trkpt>
      <trkpt lat="43.50366" lon="6.38284">
        <ele>242</ele>
        <time>2022-01-21T13:37:16.000Z</time>
      </trkpt>
      <trkpt lat="43.50366" lon="6.38284">
        <ele>242</ele>
        <time>2022-01-21T13:37:17.000Z</time>
      </trkpt>
      <trkpt lat="43.50367" lon="6.38284">
        <ele>242</ele>
        <time>2022-01-21T13:37:18.000Z</time>
      </trkpt>
      <trkpt lat="43.50369" lon="6.38283">
        <ele>242</ele>
        <time>2022-01-21T13:37:19.000Z</time>
      </trkpt>
      <trkpt lat="43.5037" lon="6.38282">
        <ele>242</ele>
        <time>2022-01-21T13:37:20.000Z</time>
      </trkpt>
      <trkpt lat="43.50372" lon="6.38282">
        <ele>242</ele>
        <time>2022-01-21T13:37:21.000Z</time>
      </trkpt>
      <trkpt lat="43.50373" lon="6.38281">
        <ele>242</ele>
        <time>2022-01-21T13:37:22.000Z</time>
      </trkpt>
      <trkpt lat="43.50374" lon="6.3828">
        <ele>243</ele>
        <time>2022-01-21T13:37:23.000Z</time>
      </trkpt>
      <trkpt lat="43.50375" lon="6.38279">
        <ele>243</ele>
        <time>2022-01-21T13:37:24.000Z</time>
      </trkpt>
      <trkpt lat="43.50376" lon="6.38277">
        <ele>243</ele>
        <time>2022-01-21T13:37:25.000Z</time>
      </trkpt>
      <trkpt lat="43.50376" lon="6.38276">
        <ele>243</ele>
        <time>2022-01-21T13:37:26.000Z</time>
      </trkpt>
      <trkpt lat="43.50377" lon="6.38275">
        <ele>243</ele>
        <time>2022-01-21T13:37:27.000Z</time>
      </trkpt>
      <trkpt lat="43.50378" lon="6.38274">
        <ele>243</ele>
        <time>2022-01-21T13:37:28.000Z</time>
      </trkpt>
      <trkpt lat="43.50379" lon="6.38273">
        <ele>243</ele>
        <time>2022-01-21T13:37:29.000Z</time>
      </trkpt>
      <trkpt lat="43.5038" lon="6.38272">
        <ele>243</ele>
        <time>2022-01-21T13:37:30.000Z</time>
      </trkpt>
      <trkpt lat="43.50381" lon="6.38271">
        <ele>243</ele>
        <time>2022-01-21T13:37:31.000Z</time>
      </trkpt>
      <trkpt lat="43.50381" lon="6.3827">
        <ele>242</ele>
        <time>2022-01-21T13:37:32.000Z</time>
      </trkpt>
      <trkpt lat="43.50382" lon="6.38269">
        <ele>242</ele>
        <time>2022-01-21T13:37:33.000Z</time>
      </trkpt>
      <trkpt lat="43.50383" lon="6.38268">
        <ele>242</ele>
        <time>2022-01-21T13:37:34.000Z</time>
      </trkpt>
      <trkpt lat="43.50384" lon="6.38266">
        <ele>242</ele>
        <time>2022-01-21T13:37:35.000Z</time>
      </trkpt>
      <trkpt lat="43.50385" lon="6.38265">
        <ele>242</ele>
        <time>2022-01-21T13:37:36.000Z</time>
      </trkpt>
      <trkpt lat="43.50386" lon="6.38264">
        <ele>242</ele>
        <time>2022-01-21T13:37:37.000Z</time>
      </trkpt>
      <trkpt lat="43.50387" lon="6.38263">
        <ele>242</ele>
        <time>2022-01-21T13:37:38.000Z</time>
      </trkpt>
      <trkpt lat="43.50387" lon="6.38262">
        <ele>242</ele>
        <time>2022-01-21T13:37:39.000Z</time>
      </trkpt>
      <trkpt lat="43.50388" lon="6.38261">
        <ele>242</ele>
        <time>2022-01-21T13:37:40.000Z</time>
      </trkpt>
      <trkpt lat="43.50389" lon="6.38259">
        <ele>242</ele>
        <time>2022-01-21T13:37:41.000Z</time>
      </trkpt>
      <trkpt lat="43.50389" lon="6.38258">
        <ele>242</ele>
        <time>2022-01-21T13:37:42.000Z</time>
      </trkpt>
      <trkpt lat="43.5039" lon="6.38257">
        <ele>242</ele>
        <time>2022-01-21T13:37:43.000Z</time>
      </trkpt>
      <trkpt lat="43.50391" lon="6.38256">
        <ele>242</ele>
        <time>2022-01-21T13:37:44.000Z</time>
      </trkpt>
      <trkpt lat="43.50391" lon="6.38255">
        <ele>242</ele>
        <time>2022-01-21T13:37:45.000Z</time>
      </trkpt>
      <trkpt lat="43.50392" lon="6.38253">
        <ele>241</ele>
        <time>2022-01-21T13:37:46.000Z</time>
      </trkpt>
      <trkpt lat="43.50393" lon="6.38252">
        <ele>241</ele>
        <time>2022-01-21T13:37:47.000Z</time>
      </trkpt>
      <trkpt lat="43.50393" lon="6.38251">
        <ele>241</ele>
        <time>2022-01-21T13:37:48.000Z</time>
      </trkpt>
      <trkpt lat="43.50394" lon="6.3825">
        <ele>241</ele>
        <time>2022-01-21T13:37:49.000Z</time>
      </trkpt>
      <trkpt lat="43.50395" lon="6.38249">
        <ele>241</ele>
        <time>2022-01-21T13:37:50.000Z</time>
      </trkpt>
      <trkpt lat="43.50396" lon="6.38248">
        <ele>241</ele>
        <time>2022-01-21T13:37:51.000Z</time>
      </trkpt>
      <trkpt lat="43.50397" lon="6.38247">
        <ele>241</ele>
        <time>2022-01-21T13:37:52.000Z</time>
      </trkpt>
      <trkpt lat="43.50397" lon="6.38245">
        <ele>241</ele>
        <time>2022-01-21T13:37:53.000Z</time>
      </trkpt>
      <trkpt lat="43.50398" lon="6.38244">
        <ele>241</ele>
        <time>2022-01-21T13:37:54.000Z</time>
      </trkpt>
      <trkpt lat="43.50399" lon="6.38243">
        <ele>242</ele>
        <time>2022-01-21T13:37:55.000Z</time>
      </trkpt>
      <trkpt lat="43.504" lon="6.38242">
        <ele>242</ele>
        <time>2022-01-21T13:37:56.000Z</time>
      </trkpt>
      <trkpt lat="43.504" lon="6.38241">
        <ele>242</ele>
        <time>2022-01-21T13:37:57.000Z</time>
      </trkpt>
      <trkpt lat="43.50401" lon="6.3824">
        <ele>242</ele>
        <time>2022-01-21T13:37:58.000Z</time>
      </trkpt>
      <trkpt lat="43.50401" lon="6.38239">
        <ele>242</ele>
        <time>2022-01-21T13:37:59.000Z</time>
      </trkpt>
      <trkpt lat="43.50402" lon="6.38238">
        <ele>242</ele>
        <time>2022-01-21T13:38:00.000Z</time>
      </trkpt>
      <trkpt lat="43.50402" lon="6.38237">
        <ele>242</ele>
        <time>2022-01-21T13:38:01.000Z</time>
      </trkpt>
      <trkpt lat="43.50403" lon="6.38236">
        <ele>242</ele>
        <time>2022-01-21T13:38:02.000Z</time>
      </trkpt>
      <trkpt lat="43.50403" lon="6.38235">
        <ele>242</ele>
        <time>2022-01-21T13:38:03.000Z</time>
      </trkpt>
      <trkpt lat="43.50403" lon="6.38235">
        <ele>242</ele>
        <time>2022-01-21T13:38:04.000Z</time>
      </trkpt>
      <trkpt lat="43.50404" lon="6.38234">
        <ele>242</ele>
        <time>2022-01-21T13:38:05.000Z</time>
      </trkpt>
      <trkpt lat="43.50404" lon="6.38233">
        <ele>243</ele>
        <time>2022-01-21T13:38:06.000Z</time>
      </trkpt>
      <trkpt lat="43.50404" lon="6.38233">
        <ele>243</ele>
        <time>2022-01-21T13:38:07.000Z</time>
      </trkpt>
      <trkpt lat="43.50404" lon="6.38232">
        <ele>244</ele>
        <time>2022-01-21T13:38:08.000Z</time>
      </trkpt>
      <trkpt lat="43.50405" lon="6.38232">
        <ele>244</ele>
        <time>2022-01-21T13:38:09.000Z</time>
      </trkpt>
      <trkpt lat="43.50405" lon="6.38231">
        <ele>244</ele>
        <time>2022-01-21T13:38:10.000Z</time>
      </trkpt>
      <trkpt lat="43.50405" lon="6.38231">
        <ele>244</ele>
        <time>2022-01-21T13:38:11.000Z</time>
      </trkpt>
      <trkpt lat="43.50406" lon="6.3823">
        <ele>244</ele>
        <time>2022-01-21T13:38:12.000Z</time>
      </trkpt>
      <trkpt lat="43.50406" lon="6.38229">
        <ele>244</ele>
        <time>2022-01-21T13:38:13.000Z</time>
      </trkpt>
      <trkpt lat="43.50406" lon="6.38229">
        <ele>244</ele>
        <time>2022-01-21T13:38:14.000Z</time>
      </trkpt>
      <trkpt lat="43.50407" lon="6.38228">
        <ele>244</ele>
        <time>2022-01-21T13:38:15.000Z</time>
      </trkpt>
      <trkpt lat="43.50407" lon="6.38227">
        <ele>244</ele>
        <time>2022-01-21T13:38:16.000Z</time>
      </trkpt>
      <trkpt lat="43.50408" lon="6.38226">
        <ele>244</ele>
        <time>2022-01-21T13:38:17.000Z</time>
      </trkpt>
      <trkpt lat="43.50409" lon="6.38226">
        <ele>245</ele>
        <time>2022-01-21T13:38:18.000Z</time>
      </trkpt>
      <trkpt lat="43.50409" lon="6.38225">
        <ele>245</ele>
        <time>2022-01-21T13:38:19.000Z</time>
      </trkpt>
      <trkpt lat="43.5041" lon="6.38224">
        <ele>245</ele>
        <time>2022-01-21T13:38:20.000Z</time>
      </trkpt>
      <trkpt lat="43.50411" lon="6.38224">
        <ele>245</ele>
        <time>2022-01-21T13:38:21.000Z</time>
      </trkpt>
      <trkpt lat="43.50411" lon="6.38223">
        <ele>245</ele>
        <time>2022-01-21T13:38:22.000Z</time>
      </trkpt>
      <trkpt lat="43.50412" lon="6.38222">
        <ele>245</ele>
        <time>2022-01-21T13:38:23.000Z</time>
      </trkpt>
      <trkpt lat="43.50412" lon="6.38221">
        <ele>245</ele>
        <time>2022-01-21T13:38:24.000Z</time>
      </trkpt>
      <trkpt lat="43.50413" lon="6.3822">
        <ele>245</ele>
        <time>2022-01-21T13:38:25.000Z</time>
      </trkpt>
      <trkpt lat="43.50413" lon="6.38219">
        <ele>245</ele>
        <time>2022-01-21T13:38:26.000Z</time>
      </trkpt>
      <trkpt lat="43.50414" lon="6.38219">
        <ele>245</ele>
        <time>2022-01-21T13:38:27.000Z</time>
      </trkpt>
      <trkpt lat="43.50415" lon="6.38218">
        <ele>245</ele>
        <time>2022-01-21T13:38:28.000Z</time>
      </trkpt>
      <trkpt lat="43.50415" lon="6.38217">
        <ele>245</ele>
        <time>2022-01-21T13:38:29.000Z</time>
      </trkpt>
      <trkpt lat="43.50415" lon="6.38216">
        <ele>245</ele>
        <time>2022-01-21T13:38:30.000Z</time>
      </trkpt>
      <trkpt lat="43.50416" lon="6.38215">
        <ele>245</ele>
        <time>2022-01-21T13:38:31.000Z</time>
      </trkpt>
      <trkpt lat="43.50416" lon="6.38214">
        <ele>245</ele>
        <time>2022-01-21T13:38:32.000Z</time>
      </trkpt>
      <trkpt lat="43.50416" lon="6.38213">
        <ele>245</ele>
        <time>2022-01-21T13:38:33.000Z</time>
      </trkpt>
      <trkpt lat="43.50416" lon="6.38213">
        <ele>245</ele>
        <time>2022-01-21T13:38:34.000Z</time>
      </trkpt>
      <trkpt lat="43.50416" lon="6.38213">
        <ele>245</ele>
        <time>2022-01-21T13:38:35.000Z</time>
      </trkpt>
      <trkpt lat="43.50416" lon="6.38213">
        <ele>245</ele>
        <time>2022-01-21T13:38:36.000Z</time>
      </trkpt>
      <trkpt lat="43.50416" lon="6.38213">
        <ele>245</ele>
        <time>2022-01-21T13:38:37.000Z</time>
      </trkpt>
      <trkpt lat="43.50416" lon="6.38213">
        <ele>245</ele>
        <time>2022-01-21T13:38:38.000Z</time>
      </trkpt>
      <trkpt lat="43.50417" lon="6.38214">
        <ele>245</ele>
        <time>2022-01-21T13:38:39.000Z</time>
      </trkpt>
      <trkpt lat="43.50417" lon="6.38214">
        <ele>245</ele>
        <time>2022-01-21T13:38:40.000Z</time>
      </trkpt>
      <trkpt lat="43.50418" lon="6.38215">
        <ele>245</ele>
        <time>2022-01-21T13:38:41.000Z</time>
      </trkpt>
      <trkpt lat="43.50418" lon="6.38216">
        <ele>245</ele>
        <time>2022-01-21T13:38:42.000Z</time>
      </trkpt>
      <trkpt lat="43.50419" lon="6.38216">
        <ele>245</ele>
        <time>2022-01-21T13:38:43.000Z</time>
      </trkpt>
      <trkpt lat="43.50419" lon="6.38216">
        <ele>245</ele>
        <time>2022-01-21T13:38:44.000Z</time>
      </trkpt>
      <trkpt lat="43.5042" lon="6.38215">
        <ele>246</ele>
        <time>2022-01-21T13:38:45.000Z</time>
      </trkpt>
      <trkpt lat="43.5042" lon="6.38214">
        <ele>246</ele>
        <time>2022-01-21T13:38:46.000Z</time>
      </trkpt>
      <trkpt lat="43.50421" lon="6.38213">
        <ele>246</ele>
        <time>2022-01-21T13:38:47.000Z</time>
      </trkpt>
      <trkpt lat="43.50421" lon="6.38212">
        <ele>246</ele>
        <time>2022-01-21T13:38:48.000Z</time>
      </trkpt>
      <trkpt lat="43.50421" lon="6.38211">
        <ele>246</ele>
        <time>2022-01-21T13:38:49.000Z</time>
      </trkpt>
      <trkpt lat="43.50422" lon="6.3821">
        <ele>246</ele>
        <time>2022-01-21T13:38:50.000Z</time>
      </trkpt>
      <trkpt lat="43.50422" lon="6.3821">
        <ele>246</ele>
        <time>2022-01-21T13:38:51.000Z</time>
      </trkpt>
      <trkpt lat="43.50423" lon="6.38209">
        <ele>246</ele>
        <time>2022-01-21T13:38:52.000Z</time>
      </trkpt>
      <trkpt lat="43.50423" lon="6.38209">
        <ele>246</ele>
        <time>2022-01-21T13:38:53.000Z</time>
      </trkpt>
      <trkpt lat="43.50424" lon="6.38208">
        <ele>246</ele>
        <time>2022-01-21T13:38:54.000Z</time>
      </trkpt>
      <trkpt lat="43.50424" lon="6.38207">
        <ele>246</ele>
        <time>2022-01-21T13:38:55.000Z</time>
      </trkpt>
      <trkpt lat="43.50425" lon="6.38207">
        <ele>246</ele>
        <time>2022-01-21T13:38:56.000Z</time>
      </trkpt>
      <trkpt lat="43.50425" lon="6.38206">
        <ele>246</ele>
        <time>2022-01-21T13:38:57.000Z</time>
      </trkpt>
      <trkpt lat="43.50426" lon="6.38204">
        <ele>246</ele>
        <time>2022-01-21T13:38:58.000Z</time>
      </trkpt>
      <trkpt lat="43.50427" lon="6.38203">
        <ele>247</ele>
        <time>2022-01-21T13:38:59.000Z</time>
      </trkpt>
      <trkpt lat="43.50427" lon="6.38203">
        <ele>247</ele>
        <time>2022-01-21T13:39:00.000Z</time>
      </trkpt>
      <trkpt lat="43.50427" lon="6.38202">
        <ele>247</ele>
        <time>2022-01-21T13:39:01.000Z</time>
      </trkpt>
      <trkpt lat="43.50427" lon="6.38202">
        <ele>247</ele>
        <time>2022-01-21T13:39:02.000Z</time>
      </trkpt>
      <trkpt lat="43.50428" lon="6.38202">
        <ele>247</ele>
        <time>2022-01-21T13:39:03.000Z</time>
      </trkpt>
      <trkpt lat="43.50428" lon="6.38201">
        <ele>247</ele>
        <time>2022-01-21T13:39:04.000Z</time>
      </trkpt>
      <trkpt lat="43.50428" lon="6.38201">
        <ele>247</ele>
        <time>2022-01-21T13:39:05.000Z</time>
      </trkpt>
      <trkpt lat="43.50429" lon="6.382">
        <ele>247</ele>
        <time>2022-01-21T13:39:06.000Z</time>
      </trkpt>
      <trkpt lat="43.50431" lon="6.38198">
        <ele>247</ele>
        <time>2022-01-21T13:39:07.000Z</time>
      </trkpt>
      <trkpt lat="43.50433" lon="6.38197">
        <ele>248</ele>
        <time>2022-01-21T13:39:08.000Z</time>
      </trkpt>
      <trkpt lat="43.50434" lon="6.38197">
        <ele>248</ele>
        <time>2022-01-21T13:39:09.000Z</time>
      </trkpt>
      <trkpt lat="43.50435" lon="6.38197">
        <ele>248</ele>
        <time>2022-01-21T13:39:10.000Z</time>
      </trkpt>
      <trkpt lat="43.50436" lon="6.38197">
        <ele>248</ele>
        <time>2022-01-21T13:39:11.000Z</time>
      </trkpt>
      <trkpt lat="43.50436" lon="6.38197">
        <ele>248</ele>
        <time>2022-01-21T13:39:12.000Z</time>
      </trkpt>
      <trkpt lat="43.50437" lon="6.38197">
        <ele>247</ele>
        <time>2022-01-21T13:39:13.000Z</time>
      </trkpt>
      <trkpt lat="43.50438" lon="6.38197">
        <ele>247</ele>
        <time>2022-01-21T13:39:14.000Z</time>
      </trkpt>
      <trkpt lat="43.50438" lon="6.38198">
        <ele>247</ele>
        <time>2022-01-21T13:39:15.000Z</time>
      </trkpt>
      <trkpt lat="43.5044" lon="6.38198">
        <ele>247</ele>
        <time>2022-01-21T13:39:16.000Z</time>
      </trkpt>
      <trkpt lat="43.50442" lon="6.38199">
        <ele>247</ele>
        <time>2022-01-21T13:39:17.000Z</time>
      </trkpt>
      <trkpt lat="43.50443" lon="6.38199">
        <ele>247</ele>
        <time>2022-01-21T13:39:18.000Z</time>
      </trkpt>
      <trkpt lat="43.50444" lon="6.382">
        <ele>247</ele>
        <time>2022-01-21T13:39:19.000Z</time>
      </trkpt>
      <trkpt lat="43.50445" lon="6.382">
        <ele>247</ele>
        <time>2022-01-21T13:39:20.000Z</time>
      </trkpt>
      <trkpt lat="43.50446" lon="6.38201">
        <ele>246</ele>
        <time>2022-01-21T13:39:21.000Z</time>
      </trkpt>
      <trkpt lat="43.50447" lon="6.38201">
        <ele>246</ele>
        <time>2022-01-21T13:39:22.000Z</time>
      </trkpt>
      <trkpt lat="43.50448" lon="6.38201">
        <ele>246</ele>
        <time>2022-01-21T13:39:23.000Z</time>
      </trkpt>
      <trkpt lat="43.50448" lon="6.38202">
        <ele>246</ele>
        <time>2022-01-21T13:39:24.000Z</time>
      </trkpt>
      <trkpt lat="43.50449" lon="6.38202">
        <ele>246</ele>
        <time>2022-01-21T13:39:25.000Z</time>
      </trkpt>
      <trkpt lat="43.5045" lon="6.38203">
        <ele>246</ele>
        <time>2022-01-21T13:39:26.000Z</time>
      </trkpt>
      <trkpt lat="43.5045" lon="6.38203">
        <ele>246</ele>
        <time>2022-01-21T13:39:27.000Z</time>
      </trkpt>
      <trkpt lat="43.50451" lon="6.38203">
        <ele>246</ele>
        <time>2022-01-21T13:39:28.000Z</time>
      </trkpt>
      <trkpt lat="43.50452" lon="6.38203">
        <ele>246</ele>
        <time>2022-01-21T13:39:29.000Z</time>
      </trkpt>
      <trkpt lat="43.50453" lon="6.38203">
        <ele>246</ele>
        <time>2022-01-21T13:39:30.000Z</time>
      </trkpt>
      <trkpt lat="43.50454" lon="6.38203">
        <ele>246</ele>
        <time>2022-01-21T13:39:31.000Z</time>
      </trkpt>
      <trkpt lat="43.50455" lon="6.38203">
        <ele>246</ele>
        <time>2022-01-21T13:39:32.000Z</time>
      </trkpt>
      <trkpt lat="43.50456" lon="6.38204">
        <ele>246</ele>
        <time>2022-01-21T13:39:33.000Z</time>
      </trkpt>
      <trkpt lat="43.50456" lon="6.38204">
        <ele>246</ele>
        <time>2022-01-21T13:39:34.000Z</time>
      </trkpt>
      <trkpt lat="43.50457" lon="6.38204">
        <ele>246</ele>
        <time>2022-01-21T13:39:35.000Z</time>
      </trkpt>
      <trkpt lat="43.50458" lon="6.38204">
        <ele>246</ele>
        <time>2022-01-21T13:39:36.000Z</time>
      </trkpt>
      <trkpt lat="43.50459" lon="6.38204">
        <ele>246</ele>
        <time>2022-01-21T13:39:37.000Z</time>
      </trkpt>
      <trkpt lat="43.5046" lon="6.38205">
        <ele>246</ele>
        <time>2022-01-21T13:39:38.000Z</time>
      </trkpt>
      <trkpt lat="43.50461" lon="6.38205">
        <ele>246</ele>
        <time>2022-01-21T13:39:39.000Z</time>
      </trkpt>
      <trkpt lat="43.50462" lon="6.38205">
        <ele>246</ele>
        <time>2022-01-21T13:39:40.000Z</time>
      </trkpt>
      <trkpt lat="43.50463" lon="6.38205">
        <ele>247</ele>
        <time>2022-01-21T13:39:41.000Z</time>
      </trkpt>
      <trkpt lat="43.50464" lon="6.38206">
        <ele>247</ele>
        <time>2022-01-21T13:39:42.000Z</time>
      </trkpt>
      <trkpt lat="43.50465" lon="6.38206">
        <ele>247</ele>
        <time>2022-01-21T13:39:43.000Z</time>
      </trkpt>
      <trkpt lat="43.50466" lon="6.38207">
        <ele>248</ele>
        <time>2022-01-21T13:39:44.000Z</time>
      </trkpt>
      <trkpt lat="43.50467" lon="6.38207">
        <ele>248</ele>
        <time>2022-01-21T13:39:45.000Z</time>
      </trkpt>
      <trkpt lat="43.50468" lon="6.38208">
        <ele>248</ele>
        <time>2022-01-21T13:39:46.000Z</time>
      </trkpt>
      <trkpt lat="43.50469" lon="6.38208">
        <ele>248</ele>
        <time>2022-01-21T13:39:47.000Z</time>
      </trkpt>
      <trkpt lat="43.5047" lon="6.38209">
        <ele>248</ele>
        <time>2022-01-21T13:39:48.000Z</time>
      </trkpt>
      <trkpt lat="43.50471" lon="6.38209">
        <ele>248</ele>
        <time>2022-01-21T13:39:49.000Z</time>
      </trkpt>
      <trkpt lat="43.50472" lon="6.38209">
        <ele>248</ele>
        <time>2022-01-21T13:39:50.000Z</time>
      </trkpt>
      <trkpt lat="43.50473" lon="6.3821">
        <ele>248</ele>
        <time>2022-01-21T13:39:51.000Z</time>
      </trkpt>
      <trkpt lat="43.50474" lon="6.3821">
        <ele>248</ele>
        <time>2022-01-21T13:39:52.000Z</time>
      </trkpt>
      <trkpt lat="43.50476" lon="6.3821">
        <ele>248</ele>
        <time>2022-01-21T13:39:53.000Z</time>
      </trkpt>
      <trkpt lat="43.50477" lon="6.3821">
        <ele>248</ele>
        <time>2022-01-21T13:39:54.000Z</time>
      </trkpt>
      <trkpt lat="43.50478" lon="6.3821">
        <ele>249</ele>
        <time>2022-01-21T13:39:55.000Z</time>
      </trkpt>
      <trkpt lat="43.50479" lon="6.3821">
        <ele>249</ele>
        <time>2022-01-21T13:39:56.000Z</time>
      </trkpt>
      <trkpt lat="43.5048" lon="6.3821">
        <ele>248</ele>
        <time>2022-01-21T13:39:57.000Z</time>
      </trkpt>
      <trkpt lat="43.50481" lon="6.3821">
        <ele>248</ele>
        <time>2022-01-21T13:39:58.000Z</time>
      </trkpt>
      <trkpt lat="43.50482" lon="6.3821">
        <ele>248</ele>
        <time>2022-01-21T13:39:59.000Z</time>
      </trkpt>
      <trkpt lat="43.50483" lon="6.3821">
        <ele>248</ele>
        <time>2022-01-21T13:40:00.000Z</time>
      </trkpt>
      <trkpt lat="43.50484" lon="6.3821">
        <ele>248</ele>
        <time>2022-01-21T13:40:01.000Z</time>
      </trkpt>
      <trkpt lat="43.50485" lon="6.38211">
        <ele>247</ele>
        <time>2022-01-21T13:40:02.000Z</time>
      </trkpt>
      <trkpt lat="43.50486" lon="6.38211">
        <ele>247</ele>
        <time>2022-01-21T13:40:03.000Z</time>
      </trkpt>
      <trkpt lat="43.50488" lon="6.38211">
        <ele>247</ele>
        <time>2022-01-21T13:40:04.000Z</time>
      </trkpt>
      <trkpt lat="43.50489" lon="6.38211">
        <ele>245</ele>
        <time>2022-01-21T13:40:05.000Z</time>
      </trkpt>
      <trkpt lat="43.5049" lon="6.38211">
        <ele>245</ele>
        <time>2022-01-21T13:40:06.000Z</time>
      </trkpt>
      <trkpt lat="43.50491" lon="6.38211">
        <ele>244</ele>
        <time>2022-01-21T13:40:07.000Z</time>
      </trkpt>
      <trkpt lat="43.50492" lon="6.38212">
        <ele>244</ele>
        <time>2022-01-21T13:40:08.000Z</time>
      </trkpt>
      <trkpt lat="43.50493" lon="6.38212">
        <ele>244</ele>
        <time>2022-01-21T13:40:09.000Z</time>
      </trkpt>
      <trkpt lat="43.50494" lon="6.38212">
        <ele>244</ele>
        <time>2022-01-21T13:40:10.000Z</time>
      </trkpt>
      <trkpt lat="43.50496" lon="6.38212">
        <ele>243</ele>
        <time>2022-01-21T13:40:11.000Z</time>
      </trkpt>
      <trkpt lat="43.50497" lon="6.38213">
        <ele>243</ele>
        <time>2022-01-21T13:40:12.000Z</time>
      </trkpt>
      <trkpt lat="43.50498" lon="6.38213">
        <ele>243</ele>
        <time>2022-01-21T13:40:13.000Z</time>
      </trkpt>
      <trkpt lat="43.50499" lon="6.38213">
        <ele>243</ele>
        <time>2022-01-21T13:40:14.000Z</time>
      </trkpt>
      <trkpt lat="43.505" lon="6.38214">
        <ele>243</ele>
        <time>2022-01-21T13:40:15.000Z</time>
      </trkpt>
      <trkpt lat="43.50502" lon="6.38214">
        <ele>243</ele>
        <time>2022-01-21T13:40:16.000Z</time>
      </trkpt>
      <trkpt lat="43.50503" lon="6.38214">
        <ele>243</ele>
        <time>2022-01-21T13:40:17.000Z</time>
      </trkpt>
      <trkpt lat="43.50504" lon="6.38215">
        <ele>243</ele>
        <time>2022-01-21T13:40:18.000Z</time>
      </trkpt>
      <trkpt lat="43.50505" lon="6.38215">
        <ele>243</ele>
        <time>2022-01-21T13:40:19.000Z</time>
      </trkpt>
      <trkpt lat="43.50506" lon="6.38215">
        <ele>243</ele>
        <time>2022-01-21T13:40:20.000Z</time>
      </trkpt>
      <trkpt lat="43.50507" lon="6.38215">
        <ele>243</ele>
        <time>2022-01-21T13:40:21.000Z</time>
      </trkpt>
      <trkpt lat="43.50508" lon="6.38214">
        <ele>243</ele>
        <time>2022-01-21T13:40:22.000Z</time>
      </trkpt>
      <trkpt lat="43.50509" lon="6.38214">
        <ele>243</ele>
        <time>2022-01-21T13:40:23.000Z</time>
      </trkpt>
      <trkpt lat="43.5051" lon="6.38214">
        <ele>243</ele>
        <time>2022-01-21T13:40:24.000Z</time>
      </trkpt>
      <trkpt lat="43.50511" lon="6.38214">
        <ele>243</ele>
        <time>2022-01-21T13:40:25.000Z</time>
      </trkpt>
      <trkpt lat="43.50512" lon="6.38214">
        <ele>243</ele>
        <time>2022-01-21T13:40:26.000Z</time>
      </trkpt>
      <trkpt lat="43.50514" lon="6.38214">
        <ele>243</ele>
        <time>2022-01-21T13:40:27.000Z</time>
      </trkpt>
      <trkpt lat="43.50515" lon="6.38214">
        <ele>243</ele>
        <time>2022-01-21T13:40:28.000Z</time>
      </trkpt>
      <trkpt lat="43.50516" lon="6.38214">
        <ele>243</ele>
        <time>2022-01-21T13:40:29.000Z</time>
      </trkpt>
      <trkpt lat="43.50517" lon="6.38214">
        <ele>243</ele>
        <time>2022-01-21T13:40:30.000Z</time>
      </trkpt>
      <trkpt lat="43.50518" lon="6.38214">
        <ele>243</ele>
        <time>2022-01-21T13:40:31.000Z</time>
      </trkpt>
      <trkpt lat="43.50519" lon="6.38214">
        <ele>243</ele>
        <time>2022-01-21T13:40:32.000Z</time>
      </trkpt>
      <trkpt lat="43.5052" lon="6.38214">
        <ele>243</ele>
        <time>2022-01-21T13:40:33.000Z</time>
      </trkpt>
      <trkpt lat="43.50522" lon="6.38214">
        <ele>243</ele>
        <time>2022-01-21T13:40:34.000Z</time>
      </trkpt>
      <trkpt lat="43.50523" lon="6.38215">
        <ele>243</ele>
        <time>2022-01-21T13:40:35.000Z</time>
      </trkpt>
      <trkpt lat="43.50524" lon="6.38215">
        <ele>243</ele>
        <time>2022-01-21T13:40:36.000Z</time>
      </trkpt>
      <trkpt lat="43.50525" lon="6.38215">
        <ele>243</ele>
        <time>2022-01-21T13:40:37.000Z</time>
      </trkpt>
      <trkpt lat="43.50525" lon="6.38215">
        <ele>243</ele>
        <time>2022-01-21T13:40:38.000Z</time>
      </trkpt>
      <trkpt lat="43.50526" lon="6.38215">
        <ele>243</ele>
        <time>2022-01-21T13:40:39.000Z</time>
      </trkpt>
      <trkpt lat="43.50526" lon="6.38214">
        <ele>243</ele>
        <time>2022-01-21T13:40:40.000Z</time>
      </trkpt>
      <trkpt lat="43.50527" lon="6.38214">
        <ele>243</ele>
        <time>2022-01-21T13:40:41.000Z</time>
      </trkpt>
      <trkpt lat="43.50526" lon="6.38215">
        <ele>243</ele>
        <time>2022-01-21T13:40:42.000Z</time>
      </trkpt>
      <trkpt lat="43.50527" lon="6.38215">
        <ele>243</ele>
        <time>2022-01-21T13:40:43.000Z</time>
      </trkpt>
      <trkpt lat="43.50527" lon="6.38216">
        <ele>243</ele>
        <time>2022-01-21T13:40:44.000Z</time>
      </trkpt>
      <trkpt lat="43.50527" lon="6.38217">
        <ele>243</ele>
        <time>2022-01-21T13:40:45.000Z</time>
      </trkpt>
      <trkpt lat="43.50527" lon="6.38217">
        <ele>243</ele>
        <time>2022-01-21T13:40:46.000Z</time>
      </trkpt>
      <trkpt lat="43.50527" lon="6.38218">
        <ele>243</ele>
        <time>2022-01-21T13:40:47.000Z</time>
      </trkpt>
      <trkpt lat="43.50527" lon="6.38218">
        <ele>243</ele>
        <time>2022-01-21T13:40:48.000Z</time>
      </trkpt>
      <trkpt lat="43.50527" lon="6.38218">
        <ele>243</ele>
        <time>2022-01-21T13:40:49.000Z</time>
      </trkpt>
      <trkpt lat="43.50527" lon="6.38218">
        <ele>243</ele>
        <time>2022-01-21T13:40:50.000Z</time>
      </trkpt>
      <trkpt lat="43.50527" lon="6.38219">
        <ele>243</ele>
        <time>2022-01-21T13:40:51.000Z</time>
      </trkpt>
      <trkpt lat="43.50528" lon="6.38219">
        <ele>243</ele>
        <time>2022-01-21T13:40:52.000Z</time>
      </trkpt>
      <trkpt lat="43.50529" lon="6.38219">
        <ele>243</ele>
        <time>2022-01-21T13:40:53.000Z</time>
      </trkpt>
      <trkpt lat="43.5053" lon="6.38219">
        <ele>243</ele>
        <time>2022-01-21T13:40:54.000Z</time>
      </trkpt>
      <trkpt lat="43.50531" lon="6.38219">
        <ele>243</ele>
        <time>2022-01-21T13:40:55.000Z</time>
      </trkpt>
      <trkpt lat="43.50532" lon="6.38219">
        <ele>242</ele>
        <time>2022-01-21T13:40:56.000Z</time>
      </trkpt>
      <trkpt lat="43.50532" lon="6.38219">
        <ele>242</ele>
        <time>2022-01-21T13:40:57.000Z</time>
      </trkpt>
      <trkpt lat="43.50533" lon="6.38219">
        <ele>242</ele>
        <time>2022-01-21T13:40:58.000Z</time>
      </trkpt>
      <trkpt lat="43.50534" lon="6.38219">
        <ele>242</ele>
        <time>2022-01-21T13:40:59.000Z</time>
      </trkpt>
      <trkpt lat="43.50535" lon="6.38219">
        <ele>242</ele>
        <time>2022-01-21T13:41:00.000Z</time>
      </trkpt>
      <trkpt lat="43.50536" lon="6.38219">
        <ele>242</ele>
        <time>2022-01-21T13:41:01.000Z</time>
      </trkpt>
      <trkpt lat="43.50537" lon="6.3822">
        <ele>242</ele>
        <time>2022-01-21T13:41:02.000Z</time>
      </trkpt>
      <trkpt lat="43.50538" lon="6.3822">
        <ele>242</ele>
        <time>2022-01-21T13:41:03.000Z</time>
      </trkpt>
      <trkpt lat="43.50539" lon="6.3822">
        <ele>242</ele>
        <time>2022-01-21T13:41:04.000Z</time>
      </trkpt>
      <trkpt lat="43.5054" lon="6.38221">
        <ele>242</ele>
        <time>2022-01-21T13:41:05.000Z</time>
      </trkpt>
      <trkpt lat="43.5054" lon="6.38221">
        <ele>242</ele>
        <time>2022-01-21T13:41:06.000Z</time>
      </trkpt>
      <trkpt lat="43.50541" lon="6.38221">
        <ele>242</ele>
        <time>2022-01-21T13:41:07.000Z</time>
      </trkpt>
      <trkpt lat="43.50541" lon="6.38221">
        <ele>242</ele>
        <time>2022-01-21T13:41:08.000Z</time>
      </trkpt>
      <trkpt lat="43.50542" lon="6.3822">
        <ele>243</ele>
        <time>2022-01-21T13:41:09.000Z</time>
      </trkpt>
      <trkpt lat="43.50542" lon="6.3822">
        <ele>243</ele>
        <time>2022-01-21T13:41:10.000Z</time>
      </trkpt>
      <trkpt lat="43.50543" lon="6.3822">
        <ele>243</ele>
        <time>2022-01-21T13:41:11.000Z</time>
      </trkpt>
      <trkpt lat="43.50545" lon="6.3822">
        <ele>243</ele>
        <time>2022-01-21T13:41:12.000Z</time>
      </trkpt>
      <trkpt lat="43.50547" lon="6.3822">
        <ele>243</ele>
        <time>2022-01-21T13:41:13.000Z</time>
      </trkpt>
      <trkpt lat="43.5055" lon="6.3822">
        <ele>243</ele>
        <time>2022-01-21T13:41:14.000Z</time>
      </trkpt>
      <trkpt lat="43.50552" lon="6.3822">
        <ele>243</ele>
        <time>2022-01-21T13:41:15.000Z</time>
      </trkpt>
      <trkpt lat="43.50554" lon="6.3822">
        <ele>243</ele>
        <time>2022-01-21T13:41:16.000Z</time>
      </trkpt>
      <trkpt lat="43.50556" lon="6.38219">
        <ele>243</ele>
        <time>2022-01-21T13:41:17.000Z</time>
      </trkpt>
      <trkpt lat="43.50557" lon="6.38219">
        <ele>243</ele>
        <time>2022-01-21T13:41:18.000Z</time>
      </trkpt>
      <trkpt lat="43.50559" lon="6.38219">
        <ele>243</ele>
        <time>2022-01-21T13:41:19.000Z</time>
      </trkpt>
      <trkpt lat="43.5056" lon="6.38218">
        <ele>243</ele>
        <time>2022-01-21T13:41:20.000Z</time>
      </trkpt>
      <trkpt lat="43.50562" lon="6.38218">
        <ele>243</ele>
        <time>2022-01-21T13:41:21.000Z</time>
      </trkpt>
      <trkpt lat="43.50563" lon="6.38217">
        <ele>243</ele>
        <time>2022-01-21T13:41:22.000Z</time>
      </trkpt>
      <trkpt lat="43.50565" lon="6.38217">
        <ele>243</ele>
        <time>2022-01-21T13:41:23.000Z</time>
      </trkpt>
      <trkpt lat="43.50566" lon="6.38216">
        <ele>243</ele>
        <time>2022-01-21T13:41:24.000Z</time>
      </trkpt>
      <trkpt lat="43.50567" lon="6.38216">
        <ele>243</ele>
        <time>2022-01-21T13:41:25.000Z</time>
      </trkpt>
      <trkpt lat="43.50568" lon="6.38215">
        <ele>242</ele>
        <time>2022-01-21T13:41:26.000Z</time>
      </trkpt>
      <trkpt lat="43.50569" lon="6.38214">
        <ele>242</ele>
        <time>2022-01-21T13:41:27.000Z</time>
      </trkpt>
      <trkpt lat="43.5057" lon="6.38214">
        <ele>242</ele>
        <time>2022-01-21T13:41:28.000Z</time>
      </trkpt>
      <trkpt lat="43.50571" lon="6.38213">
        <ele>242</ele>
        <time>2022-01-21T13:41:29.000Z</time>
      </trkpt>
      <trkpt lat="43.50572" lon="6.38212">
        <ele>242</ele>
        <time>2022-01-21T13:41:30.000Z</time>
      </trkpt>
      <trkpt lat="43.50573" lon="6.38212">
        <ele>242</ele>
        <time>2022-01-21T13:41:31.000Z</time>
      </trkpt>
      <trkpt lat="43.50575" lon="6.38211">
        <ele>242</ele>
        <time>2022-01-21T13:41:32.000Z</time>
      </trkpt>
      <trkpt lat="43.50576" lon="6.38211">
        <ele>242</ele>
        <time>2022-01-21T13:41:33.000Z</time>
      </trkpt>
      <trkpt lat="43.50577" lon="6.3821">
        <ele>242</ele>
        <time>2022-01-21T13:41:34.000Z</time>
      </trkpt>
      <trkpt lat="43.50578" lon="6.38209">
        <ele>243</ele>
        <time>2022-01-21T13:41:35.000Z</time>
      </trkpt>
      <trkpt lat="43.5058" lon="6.38209">
        <ele>243</ele>
        <time>2022-01-21T13:41:36.000Z</time>
      </trkpt>
      <trkpt lat="43.50581" lon="6.38208">
        <ele>242</ele>
        <time>2022-01-21T13:41:37.000Z</time>
      </trkpt>
      <trkpt lat="43.50582" lon="6.38207">
        <ele>242</ele>
        <time>2022-01-21T13:41:38.000Z</time>
      </trkpt>
      <trkpt lat="43.50583" lon="6.38206">
        <ele>242</ele>
        <time>2022-01-21T13:41:39.000Z</time>
      </trkpt>
      <trkpt lat="43.50585" lon="6.38205">
        <ele>242</ele>
        <time>2022-01-21T13:41:40.000Z</time>
      </trkpt>
      <trkpt lat="43.50586" lon="6.38204">
        <ele>242</ele>
        <time>2022-01-21T13:41:41.000Z</time>
      </trkpt>
      <trkpt lat="43.50587" lon="6.38203">
        <ele>242</ele>
        <time>2022-01-21T13:41:42.000Z</time>
      </trkpt>
      <trkpt lat="43.50588" lon="6.38202">
        <ele>242</ele>
        <time>2022-01-21T13:41:43.000Z</time>
      </trkpt>
      <trkpt lat="43.50589" lon="6.38202">
        <ele>242</ele>
        <time>2022-01-21T13:41:44.000Z</time>
      </trkpt>
      <trkpt lat="43.5059" lon="6.38201">
        <ele>242</ele>
        <time>2022-01-21T13:41:45.000Z</time>
      </trkpt>
      <trkpt lat="43.50591" lon="6.382">
        <ele>242</ele>
        <time>2022-01-21T13:41:46.000Z</time>
      </trkpt>
      <trkpt lat="43.50592" lon="6.38199">
        <ele>241</ele>
        <time>2022-01-21T13:41:47.000Z</time>
      </trkpt>
      <trkpt lat="43.50593" lon="6.38199">
        <ele>241</ele>
        <time>2022-01-21T13:41:48.000Z</time>
      </trkpt>
      <trkpt lat="43.50594" lon="6.38198">
        <ele>241</ele>
        <time>2022-01-21T13:41:49.000Z</time>
      </trkpt>
      <trkpt lat="43.50595" lon="6.38197">
        <ele>241</ele>
        <time>2022-01-21T13:41:50.000Z</time>
      </trkpt>
      <trkpt lat="43.50596" lon="6.38196">
        <ele>241</ele>
        <time>2022-01-21T13:41:51.000Z</time>
      </trkpt>
      <trkpt lat="43.50598" lon="6.38195">
        <ele>241</ele>
        <time>2022-01-21T13:41:52.000Z</time>
      </trkpt>
      <trkpt lat="43.50599" lon="6.38194">
        <ele>241</ele>
        <time>2022-01-21T13:41:53.000Z</time>
      </trkpt>
      <trkpt lat="43.506" lon="6.38193">
        <ele>241</ele>
        <time>2022-01-21T13:41:54.000Z</time>
      </trkpt>
      <trkpt lat="43.50601" lon="6.38193">
        <ele>241</ele>
        <time>2022-01-21T13:41:55.000Z</time>
      </trkpt>
      <trkpt lat="43.50602" lon="6.38192">
        <ele>241</ele>
        <time>2022-01-21T13:41:56.000Z</time>
      </trkpt>
      <trkpt lat="43.50603" lon="6.38191">
        <ele>241</ele>
        <time>2022-01-21T13:41:57.000Z</time>
      </trkpt>
      <trkpt lat="43.50604" lon="6.38191">
        <ele>241</ele>
        <time>2022-01-21T13:41:58.000Z</time>
      </trkpt>
      <trkpt lat="43.50605" lon="6.3819">
        <ele>241</ele>
        <time>2022-01-21T13:41:59.000Z</time>
      </trkpt>
      <trkpt lat="43.50606" lon="6.38189">
        <ele>241</ele>
        <time>2022-01-21T13:42:00.000Z</time>
      </trkpt>
      <trkpt lat="43.50607" lon="6.38188">
        <ele>241</ele>
        <time>2022-01-21T13:42:01.000Z</time>
      </trkpt>
      <trkpt lat="43.50608" lon="6.38187">
        <ele>241</ele>
        <time>2022-01-21T13:42:02.000Z</time>
      </trkpt>
      <trkpt lat="43.50609" lon="6.38186">
        <ele>241</ele>
        <time>2022-01-21T13:42:03.000Z</time>
      </trkpt>
      <trkpt lat="43.5061" lon="6.38185">
        <ele>241</ele>
        <time>2022-01-21T13:42:04.000Z</time>
      </trkpt>
      <trkpt lat="43.50611" lon="6.38184">
        <ele>241</ele>
        <time>2022-01-21T13:42:05.000Z</time>
      </trkpt>
      <trkpt lat="43.50612" lon="6.38182">
        <ele>241</ele>
        <time>2022-01-21T13:42:06.000Z</time>
      </trkpt>
      <trkpt lat="43.50612" lon="6.38181">
        <ele>240</ele>
        <time>2022-01-21T13:42:07.000Z</time>
      </trkpt>
      <trkpt lat="43.50613" lon="6.3818">
        <ele>240</ele>
        <time>2022-01-21T13:42:08.000Z</time>
      </trkpt>
      <trkpt lat="43.50614" lon="6.3818">
        <ele>240</ele>
        <time>2022-01-21T13:42:09.000Z</time>
      </trkpt>
      <trkpt lat="43.50615" lon="6.38179">
        <ele>240</ele>
        <time>2022-01-21T13:42:10.000Z</time>
      </trkpt>
      <trkpt lat="43.50616" lon="6.38178">
        <ele>240</ele>
        <time>2022-01-21T13:42:11.000Z</time>
      </trkpt>
      <trkpt lat="43.50617" lon="6.38177">
        <ele>240</ele>
        <time>2022-01-21T13:42:12.000Z</time>
      </trkpt>
      <trkpt lat="43.50618" lon="6.38176">
        <ele>240</ele>
        <time>2022-01-21T13:42:13.000Z</time>
      </trkpt>
      <trkpt lat="43.50619" lon="6.38175">
        <ele>240</ele>
        <time>2022-01-21T13:42:14.000Z</time>
      </trkpt>
      <trkpt lat="43.50621" lon="6.38174">
        <ele>241</ele>
        <time>2022-01-21T13:42:15.000Z</time>
      </trkpt>
      <trkpt lat="43.50622" lon="6.38173">
        <ele>241</ele>
        <time>2022-01-21T13:42:16.000Z</time>
      </trkpt>
      <trkpt lat="43.50623" lon="6.38172">
        <ele>241</ele>
        <time>2022-01-21T13:42:17.000Z</time>
      </trkpt>
      <trkpt lat="43.50625" lon="6.3817">
        <ele>242</ele>
        <time>2022-01-21T13:42:18.000Z</time>
      </trkpt>
      <trkpt lat="43.50626" lon="6.38169">
        <ele>242</ele>
        <time>2022-01-21T13:42:19.000Z</time>
      </trkpt>
      <trkpt lat="43.50627" lon="6.38167">
        <ele>242</ele>
        <time>2022-01-21T13:42:20.000Z</time>
      </trkpt>
      <trkpt lat="43.50628" lon="6.38166">
        <ele>242</ele>
        <time>2022-01-21T13:42:21.000Z</time>
      </trkpt>
      <trkpt lat="43.50629" lon="6.38165">
        <ele>242</ele>
        <time>2022-01-21T13:42:22.000Z</time>
      </trkpt>
      <trkpt lat="43.5063" lon="6.38164">
        <ele>243</ele>
        <time>2022-01-21T13:42:23.000Z</time>
      </trkpt>
      <trkpt lat="43.50631" lon="6.38163">
        <ele>243</ele>
        <time>2022-01-21T13:42:24.000Z</time>
      </trkpt>
      <trkpt lat="43.50632" lon="6.38161">
        <ele>243</ele>
        <time>2022-01-21T13:42:25.000Z</time>
      </trkpt>
      <trkpt lat="43.50633" lon="6.3816">
        <ele>243</ele>
        <time>2022-01-21T13:42:26.000Z</time>
      </trkpt>
      <trkpt lat="43.50634" lon="6.38159">
        <ele>243</ele>
        <time>2022-01-21T13:42:27.000Z</time>
      </trkpt>
      <trkpt lat="43.50635" lon="6.38157">
        <ele>244</ele>
        <time>2022-01-21T13:42:28.000Z</time>
      </trkpt>
      <trkpt lat="43.50636" lon="6.38156">
        <ele>244</ele>
        <time>2022-01-21T13:42:29.000Z</time>
      </trkpt>
      <trkpt lat="43.50637" lon="6.38154">
        <ele>244</ele>
        <time>2022-01-21T13:42:30.000Z</time>
      </trkpt>
      <trkpt lat="43.50638" lon="6.38153">
        <ele>244</ele>
        <time>2022-01-21T13:42:31.000Z</time>
      </trkpt>
      <trkpt lat="43.50639" lon="6.38152">
        <ele>244</ele>
        <time>2022-01-21T13:42:32.000Z</time>
      </trkpt>
      <trkpt lat="43.50639" lon="6.38151">
        <ele>244</ele>
        <time>2022-01-21T13:42:33.000Z</time>
      </trkpt>
      <trkpt lat="43.5064" lon="6.3815">
        <ele>245</ele>
        <time>2022-01-21T13:42:34.000Z</time>
      </trkpt>
      <trkpt lat="43.50641" lon="6.38149">
        <ele>244</ele>
        <time>2022-01-21T13:42:35.000Z</time>
      </trkpt>
      <trkpt lat="43.50641" lon="6.38148">
        <ele>244</ele>
        <time>2022-01-21T13:42:36.000Z</time>
      </trkpt>
      <trkpt lat="43.50642" lon="6.38147">
        <ele>244</ele>
        <time>2022-01-21T13:42:37.000Z</time>
      </trkpt>
      <trkpt lat="43.50643" lon="6.38146">
        <ele>244</ele>
        <time>2022-01-21T13:42:38.000Z</time>
      </trkpt>
      <trkpt lat="43.50644" lon="6.38145">
        <ele>244</ele>
        <time>2022-01-21T13:42:39.000Z</time>
      </trkpt>
      <trkpt lat="43.50644" lon="6.38144">
        <ele>244</ele>
        <time>2022-01-21T13:42:40.000Z</time>
      </trkpt>
      <trkpt lat="43.50645" lon="6.38142">
        <ele>244</ele>
        <time>2022-01-21T13:42:41.000Z</time>
      </trkpt>
      <trkpt lat="43.50645" lon="6.38141">
        <ele>244</ele>
        <time>2022-01-21T13:42:42.000Z</time>
      </trkpt>
      <trkpt lat="43.50646" lon="6.3814">
        <ele>244</ele>
        <time>2022-01-21T13:42:43.000Z</time>
      </trkpt>
      <trkpt lat="43.50647" lon="6.38138">
        <ele>244</ele>
        <time>2022-01-21T13:42:44.000Z</time>
      </trkpt>
      <trkpt lat="43.50648" lon="6.38137">
        <ele>244</ele>
        <time>2022-01-21T13:42:45.000Z</time>
      </trkpt>
      <trkpt lat="43.50648" lon="6.38136">
        <ele>244</ele>
        <time>2022-01-21T13:42:46.000Z</time>
      </trkpt>
      <trkpt lat="43.50649" lon="6.38134">
        <ele>244</ele>
        <time>2022-01-21T13:42:47.000Z</time>
      </trkpt>
      <trkpt lat="43.5065" lon="6.38133">
        <ele>244</ele>
        <time>2022-01-21T13:42:48.000Z</time>
      </trkpt>
      <trkpt lat="43.50651" lon="6.38132">
        <ele>244</ele>
        <time>2022-01-21T13:42:49.000Z</time>
      </trkpt>
      <trkpt lat="43.50651" lon="6.3813">
        <ele>244</ele>
        <time>2022-01-21T13:42:50.000Z</time>
      </trkpt>
      <trkpt lat="43.50652" lon="6.38129">
        <ele>244</ele>
        <time>2022-01-21T13:42:51.000Z</time>
      </trkpt>
      <trkpt lat="43.50653" lon="6.38128">
        <ele>243</ele>
        <time>2022-01-21T13:42:52.000Z</time>
      </trkpt>
      <trkpt lat="43.50653" lon="6.38127">
        <ele>243</ele>
        <time>2022-01-21T13:42:53.000Z</time>
      </trkpt>
      <trkpt lat="43.50654" lon="6.38126">
        <ele>243</ele>
        <time>2022-01-21T13:42:54.000Z</time>
      </trkpt>
      <trkpt lat="43.50654" lon="6.38124">
        <ele>242</ele>
        <time>2022-01-21T13:42:55.000Z</time>
      </trkpt>
      <trkpt lat="43.50655" lon="6.38123">
        <ele>242</ele>
        <time>2022-01-21T13:42:56.000Z</time>
      </trkpt>
      <trkpt lat="43.50656" lon="6.38121">
        <ele>242</ele>
        <time>2022-01-21T13:42:57.000Z</time>
      </trkpt>
      <trkpt lat="43.50656" lon="6.3812">
        <ele>242</ele>
        <time>2022-01-21T13:42:58.000Z</time>
      </trkpt>
      <trkpt lat="43.50657" lon="6.38118">
        <ele>242</ele>
        <time>2022-01-21T13:42:59.000Z</time>
      </trkpt>
      <trkpt lat="43.50657" lon="6.38117">
        <ele>242</ele>
        <time>2022-01-21T13:43:00.000Z</time>
      </trkpt>
      <trkpt lat="43.50658" lon="6.38115">
        <ele>241</ele>
        <time>2022-01-21T13:43:01.000Z</time>
      </trkpt>
      <trkpt lat="43.50659" lon="6.38114">
        <ele>241</ele>
        <time>2022-01-21T13:43:02.000Z</time>
      </trkpt>
      <trkpt lat="43.5066" lon="6.38113">
        <ele>241</ele>
        <time>2022-01-21T13:43:03.000Z</time>
      </trkpt>
      <trkpt lat="43.50661" lon="6.38112">
        <ele>241</ele>
        <time>2022-01-21T13:43:04.000Z</time>
      </trkpt>
      <trkpt lat="43.50661" lon="6.38111">
        <ele>241</ele>
        <time>2022-01-21T13:43:05.000Z</time>
      </trkpt>
      <trkpt lat="43.50662" lon="6.3811">
        <ele>241</ele>
        <time>2022-01-21T13:43:06.000Z</time>
      </trkpt>
      <trkpt lat="43.50662" lon="6.38108">
        <ele>241</ele>
        <time>2022-01-21T13:43:07.000Z</time>
      </trkpt>
      <trkpt lat="43.50663" lon="6.38107">
        <ele>241</ele>
        <time>2022-01-21T13:43:08.000Z</time>
      </trkpt>
      <trkpt lat="43.50664" lon="6.38106">
        <ele>241</ele>
        <time>2022-01-21T13:43:09.000Z</time>
      </trkpt>
      <trkpt lat="43.50664" lon="6.38105">
        <ele>240</ele>
        <time>2022-01-21T13:43:10.000Z</time>
      </trkpt>
      <trkpt lat="43.50665" lon="6.38103">
        <ele>240</ele>
        <time>2022-01-21T13:43:11.000Z</time>
      </trkpt>
      <trkpt lat="43.50665" lon="6.38102">
        <ele>240</ele>
        <time>2022-01-21T13:43:12.000Z</time>
      </trkpt>
      <trkpt lat="43.50666" lon="6.38101">
        <ele>241</ele>
        <time>2022-01-21T13:43:13.000Z</time>
      </trkpt>
      <trkpt lat="43.50666" lon="6.38099">
        <ele>241</ele>
        <time>2022-01-21T13:43:14.000Z</time>
      </trkpt>
      <trkpt lat="43.50667" lon="6.38097">
        <ele>241</ele>
        <time>2022-01-21T13:43:15.000Z</time>
      </trkpt>
      <trkpt lat="43.50667" lon="6.38096">
        <ele>241</ele>
        <time>2022-01-21T13:43:16.000Z</time>
      </trkpt>
      <trkpt lat="43.50668" lon="6.38094">
        <ele>242</ele>
        <time>2022-01-21T13:43:17.000Z</time>
      </trkpt>
      <trkpt lat="43.50669" lon="6.38092">
        <ele>242</ele>
        <time>2022-01-21T13:43:18.000Z</time>
      </trkpt>
      <trkpt lat="43.5067" lon="6.38091">
        <ele>242</ele>
        <time>2022-01-21T13:43:19.000Z</time>
      </trkpt>
      <trkpt lat="43.5067" lon="6.38089">
        <ele>242</ele>
        <time>2022-01-21T13:43:20.000Z</time>
      </trkpt>
      <trkpt lat="43.50671" lon="6.38088">
        <ele>242</ele>
        <time>2022-01-21T13:43:21.000Z</time>
      </trkpt>
      <trkpt lat="43.50672" lon="6.38086">
        <ele>242</ele>
        <time>2022-01-21T13:43:22.000Z</time>
      </trkpt>
      <trkpt lat="43.50673" lon="6.38085">
        <ele>242</ele>
        <time>2022-01-21T13:43:23.000Z</time>
      </trkpt>
      <trkpt lat="43.50673" lon="6.38084">
        <ele>243</ele>
        <time>2022-01-21T13:43:24.000Z</time>
      </trkpt>
      <trkpt lat="43.50674" lon="6.38082">
        <ele>243</ele>
        <time>2022-01-21T13:43:25.000Z</time>
      </trkpt>
      <trkpt lat="43.50674" lon="6.38081">
        <ele>243</ele>
        <time>2022-01-21T13:43:26.000Z</time>
      </trkpt>
      <trkpt lat="43.50675" lon="6.38079">
        <ele>243</ele>
        <time>2022-01-21T13:43:27.000Z</time>
      </trkpt>
      <trkpt lat="43.50676" lon="6.38077">
        <ele>243</ele>
        <time>2022-01-21T13:43:28.000Z</time>
      </trkpt>
      <trkpt lat="43.50677" lon="6.38076">
        <ele>243</ele>
        <time>2022-01-21T13:43:29.000Z</time>
      </trkpt>
      <trkpt lat="43.50677" lon="6.38074">
        <ele>243</ele>
        <time>2022-01-21T13:43:30.000Z</time>
      </trkpt>
      <trkpt lat="43.50678" lon="6.38073">
        <ele>243</ele>
        <time>2022-01-21T13:43:31.000Z</time>
      </trkpt>
      <trkpt lat="43.50679" lon="6.38071">
        <ele>243</ele>
        <time>2022-01-21T13:43:32.000Z</time>
      </trkpt>
      <trkpt lat="43.50679" lon="6.3807">
        <ele>243</ele>
        <time>2022-01-21T13:43:33.000Z</time>
      </trkpt>
      <trkpt lat="43.5068" lon="6.38068">
        <ele>243</ele>
        <time>2022-01-21T13:43:34.000Z</time>
      </trkpt>
      <trkpt lat="43.50681" lon="6.38067">
        <ele>243</ele>
        <time>2022-01-21T13:43:35.000Z</time>
      </trkpt>
      <trkpt lat="43.50682" lon="6.38065">
        <ele>242</ele>
        <time>2022-01-21T13:43:36.000Z</time>
      </trkpt>
      <trkpt lat="43.50683" lon="6.38064">
        <ele>242</ele>
        <time>2022-01-21T13:43:37.000Z</time>
      </trkpt>
      <trkpt lat="43.50683" lon="6.38063">
        <ele>242</ele>
        <time>2022-01-21T13:43:38.000Z</time>
      </trkpt>
      <trkpt lat="43.50684" lon="6.38062">
        <ele>242</ele>
        <time>2022-01-21T13:43:39.000Z</time>
      </trkpt>
      <trkpt lat="43.50684" lon="6.3806">
        <ele>242</ele>
        <time>2022-01-21T13:43:40.000Z</time>
      </trkpt>
      <trkpt lat="43.50685" lon="6.38059">
        <ele>242</ele>
        <time>2022-01-21T13:43:41.000Z</time>
      </trkpt>
      <trkpt lat="43.50685" lon="6.38058">
        <ele>242</ele>
        <time>2022-01-21T13:43:42.000Z</time>
      </trkpt>
      <trkpt lat="43.50685" lon="6.38057">
        <ele>242</ele>
        <time>2022-01-21T13:43:43.000Z</time>
      </trkpt>
      <trkpt lat="43.50686" lon="6.38056">
        <ele>242</ele>
        <time>2022-01-21T13:43:44.000Z</time>
      </trkpt>
      <trkpt lat="43.50687" lon="6.38055">
        <ele>242</ele>
        <time>2022-01-21T13:43:45.000Z</time>
      </trkpt>
      <trkpt lat="43.50688" lon="6.38053">
        <ele>242</ele>
        <time>2022-01-21T13:43:46.000Z</time>
      </trkpt>
      <trkpt lat="43.50689" lon="6.38052">
        <ele>241</ele>
        <time>2022-01-21T13:43:47.000Z</time>
      </trkpt>
      <trkpt lat="43.5069" lon="6.38051">
        <ele>241</ele>
        <time>2022-01-21T13:43:48.000Z</time>
      </trkpt>
      <trkpt lat="43.50691" lon="6.38049">
        <ele>242</ele>
        <time>2022-01-21T13:43:49.000Z</time>
      </trkpt>
      <trkpt lat="43.50692" lon="6.38048">
        <ele>242</ele>
        <time>2022-01-21T13:43:50.000Z</time>
      </trkpt>
      <trkpt lat="43.50693" lon="6.38046">
        <ele>242</ele>
        <time>2022-01-21T13:43:51.000Z</time>
      </trkpt>
      <trkpt lat="43.50694" lon="6.38045">
        <ele>242</ele>
        <time>2022-01-21T13:43:52.000Z</time>
      </trkpt>
      <trkpt lat="43.50696" lon="6.38044">
        <ele>242</ele>
        <time>2022-01-21T13:43:53.000Z</time>
      </trkpt>
      <trkpt lat="43.50697" lon="6.38043">
        <ele>242</ele>
        <time>2022-01-21T13:43:54.000Z</time>
      </trkpt>
      <trkpt lat="43.50698" lon="6.38041">
        <ele>243</ele>
        <time>2022-01-21T13:43:55.000Z</time>
      </trkpt>
      <trkpt lat="43.50699" lon="6.3804">
        <ele>243</ele>
        <time>2022-01-21T13:43:56.000Z</time>
      </trkpt>
      <trkpt lat="43.507" lon="6.38038">
        <ele>243</ele>
        <time>2022-01-21T13:43:57.000Z</time>
      </trkpt>
      <trkpt lat="43.50702" lon="6.38037">
        <ele>243</ele>
        <time>2022-01-21T13:43:58.000Z</time>
      </trkpt>
      <trkpt lat="43.50703" lon="6.38036">
        <ele>244</ele>
        <time>2022-01-21T13:43:59.000Z</time>
      </trkpt>
      <trkpt lat="43.50704" lon="6.38035">
        <ele>244</ele>
        <time>2022-01-21T13:44:00.000Z</time>
      </trkpt>
      <trkpt lat="43.50705" lon="6.38033">
        <ele>244</ele>
        <time>2022-01-21T13:44:01.000Z</time>
      </trkpt>
      <trkpt lat="43.50707" lon="6.38032">
        <ele>244</ele>
        <time>2022-01-21T13:44:02.000Z</time>
      </trkpt>
      <trkpt lat="43.50708" lon="6.38031">
        <ele>244</ele>
        <time>2022-01-21T13:44:03.000Z</time>
      </trkpt>
      <trkpt lat="43.50709" lon="6.3803">
        <ele>244</ele>
        <time>2022-01-21T13:44:04.000Z</time>
      </trkpt>
      <trkpt lat="43.5071" lon="6.38029">
        <ele>244</ele>
        <time>2022-01-21T13:44:05.000Z</time>
      </trkpt>
      <trkpt lat="43.50711" lon="6.38028">
        <ele>245</ele>
        <time>2022-01-21T13:44:06.000Z</time>
      </trkpt>
      <trkpt lat="43.50712" lon="6.38027">
        <ele>245</ele>
        <time>2022-01-21T13:44:07.000Z</time>
      </trkpt>
      <trkpt lat="43.50713" lon="6.38026">
        <ele>245</ele>
        <time>2022-01-21T13:44:08.000Z</time>
      </trkpt>
      <trkpt lat="43.50714" lon="6.38026">
        <ele>245</ele>
        <time>2022-01-21T13:44:09.000Z</time>
      </trkpt>
      <trkpt lat="43.50715" lon="6.38025">
        <ele>245</ele>
        <time>2022-01-21T13:44:10.000Z</time>
      </trkpt>
      <trkpt lat="43.50716" lon="6.38024">
        <ele>245</ele>
        <time>2022-01-21T13:44:11.000Z</time>
      </trkpt>
      <trkpt lat="43.50717" lon="6.38023">
        <ele>245</ele>
        <time>2022-01-21T13:44:12.000Z</time>
      </trkpt>
      <trkpt lat="43.50719" lon="6.38022">
        <ele>246</ele>
        <time>2022-01-21T13:44:13.000Z</time>
      </trkpt>
      <trkpt lat="43.5072" lon="6.38021">
        <ele>246</ele>
        <time>2022-01-21T13:44:14.000Z</time>
      </trkpt>
      <trkpt lat="43.50721" lon="6.3802">
        <ele>246</ele>
        <time>2022-01-21T13:44:15.000Z</time>
      </trkpt>
      <trkpt lat="43.50722" lon="6.38019">
        <ele>246</ele>
        <time>2022-01-21T13:44:16.000Z</time>
      </trkpt>
      <trkpt lat="43.50723" lon="6.38018">
        <ele>246</ele>
        <time>2022-01-21T13:44:17.000Z</time>
      </trkpt>
      <trkpt lat="43.50724" lon="6.38017">
        <ele>246</ele>
        <time>2022-01-21T13:44:18.000Z</time>
      </trkpt>
      <trkpt lat="43.50725" lon="6.38016">
        <ele>246</ele>
        <time>2022-01-21T13:44:19.000Z</time>
      </trkpt>
      <trkpt lat="43.50726" lon="6.38015">
        <ele>246</ele>
        <time>2022-01-21T13:44:20.000Z</time>
      </trkpt>
      <trkpt lat="43.50727" lon="6.38014">
        <ele>246</ele>
        <time>2022-01-21T13:44:21.000Z</time>
      </trkpt>
      <trkpt lat="43.50728" lon="6.38013">
        <ele>246</ele>
        <time>2022-01-21T13:44:22.000Z</time>
      </trkpt>
      <trkpt lat="43.50729" lon="6.38012">
        <ele>246</ele>
        <time>2022-01-21T13:44:23.000Z</time>
      </trkpt>
      <trkpt lat="43.5073" lon="6.38011">
        <ele>247</ele>
        <time>2022-01-21T13:44:24.000Z</time>
      </trkpt>
      <trkpt lat="43.50731" lon="6.3801">
        <ele>247</ele>
        <time>2022-01-21T13:44:25.000Z</time>
      </trkpt>
      <trkpt lat="43.50732" lon="6.38009">
        <ele>247</ele>
        <time>2022-01-21T13:44:26.000Z</time>
      </trkpt>
      <trkpt lat="43.50733" lon="6.38008">
        <ele>247</ele>
        <time>2022-01-21T13:44:27.000Z</time>
      </trkpt>
      <trkpt lat="43.50734" lon="6.38007">
        <ele>247</ele>
        <time>2022-01-21T13:44:28.000Z</time>
      </trkpt>
      <trkpt lat="43.50735" lon="6.38007">
        <ele>247</ele>
        <time>2022-01-21T13:44:29.000Z</time>
      </trkpt>
      <trkpt lat="43.50736" lon="6.38006">
        <ele>247</ele>
        <time>2022-01-21T13:44:30.000Z</time>
      </trkpt>
      <trkpt lat="43.50737" lon="6.38005">
        <ele>247</ele>
        <time>2022-01-21T13:44:31.000Z</time>
      </trkpt>
      <trkpt lat="43.50738" lon="6.38005">
        <ele>247</ele>
        <time>2022-01-21T13:44:32.000Z</time>
      </trkpt>
      <trkpt lat="43.50739" lon="6.38004">
        <ele>247</ele>
        <time>2022-01-21T13:44:33.000Z</time>
      </trkpt>
      <trkpt lat="43.50739" lon="6.38004">
        <ele>247</ele>
        <time>2022-01-21T13:44:34.000Z</time>
      </trkpt>
      <trkpt lat="43.50741" lon="6.38003">
        <ele>247</ele>
        <time>2022-01-21T13:44:35.000Z</time>
      </trkpt>
      <trkpt lat="43.50742" lon="6.38003">
        <ele>247</ele>
        <time>2022-01-21T13:44:36.000Z</time>
      </trkpt>
      <trkpt lat="43.50743" lon="6.38002">
        <ele>247</ele>
        <time>2022-01-21T13:44:37.000Z</time>
      </trkpt>
      <trkpt lat="43.50744" lon="6.38001">
        <ele>247</ele>
        <time>2022-01-21T13:44:38.000Z</time>
      </trkpt>
      <trkpt lat="43.50745" lon="6.38001">
        <ele>247</ele>
        <time>2022-01-21T13:44:39.000Z</time>
      </trkpt>
      <trkpt lat="43.50746" lon="6.38">
        <ele>247</ele>
        <time>2022-01-21T13:44:40.000Z</time>
      </trkpt>
      <trkpt lat="43.50747" lon="6.38">
        <ele>247</ele>
        <time>2022-01-21T13:44:41.000Z</time>
      </trkpt>
      <trkpt lat="43.50748" lon="6.37999">
        <ele>247</ele>
        <time>2022-01-21T13:44:42.000Z</time>
      </trkpt>
      <trkpt lat="43.50749" lon="6.37999">
        <ele>247</ele>
        <time>2022-01-21T13:44:43.000Z</time>
      </trkpt>
      <trkpt lat="43.5075" lon="6.37998">
        <ele>246</ele>
        <time>2022-01-21T13:44:44.000Z</time>
      </trkpt>
      <trkpt lat="43.50751" lon="6.37997">
        <ele>246</ele>
        <time>2022-01-21T13:44:45.000Z</time>
      </trkpt>
      <trkpt lat="43.50752" lon="6.37996">
        <ele>246</ele>
        <time>2022-01-21T13:44:46.000Z</time>
      </trkpt>
      <trkpt lat="43.50753" lon="6.37996">
        <ele>245</ele>
        <time>2022-01-21T13:44:47.000Z</time>
      </trkpt>
      <trkpt lat="43.50754" lon="6.37995">
        <ele>245</ele>
        <time>2022-01-21T13:44:48.000Z</time>
      </trkpt>
      <trkpt lat="43.50755" lon="6.37995">
        <ele>245</ele>
        <time>2022-01-21T13:44:49.000Z</time>
      </trkpt>
      <trkpt lat="43.50756" lon="6.37995">
        <ele>245</ele>
        <time>2022-01-21T13:44:50.000Z</time>
      </trkpt>
      <trkpt lat="43.50757" lon="6.37994">
        <ele>245</ele>
        <time>2022-01-21T13:44:51.000Z</time>
      </trkpt>
      <trkpt lat="43.50758" lon="6.37994">
        <ele>245</ele>
        <time>2022-01-21T13:44:52.000Z</time>
      </trkpt>
      <trkpt lat="43.50759" lon="6.37994">
        <ele>244</ele>
        <time>2022-01-21T13:44:53.000Z</time>
      </trkpt>
      <trkpt lat="43.5076" lon="6.37993">
        <ele>244</ele>
        <time>2022-01-21T13:44:54.000Z</time>
      </trkpt>
      <trkpt lat="43.50761" lon="6.37993">
        <ele>244</ele>
        <time>2022-01-21T13:44:55.000Z</time>
      </trkpt>
      <trkpt lat="43.50762" lon="6.37992">
        <ele>244</ele>
        <time>2022-01-21T13:44:56.000Z</time>
      </trkpt>
      <trkpt lat="43.50763" lon="6.37992">
        <ele>244</ele>
        <time>2022-01-21T13:44:57.000Z</time>
      </trkpt>
      <trkpt lat="43.50764" lon="6.37992">
        <ele>244</ele>
        <time>2022-01-21T13:44:58.000Z</time>
      </trkpt>
      <trkpt lat="43.50765" lon="6.37991">
        <ele>244</ele>
        <time>2022-01-21T13:44:59.000Z</time>
      </trkpt>
      <trkpt lat="43.50766" lon="6.37991">
        <ele>243</ele>
        <time>2022-01-21T13:45:00.000Z</time>
      </trkpt>
      <trkpt lat="43.50767" lon="6.3799">
        <ele>243</ele>
        <time>2022-01-21T13:45:01.000Z</time>
      </trkpt>
      <trkpt lat="43.50768" lon="6.3799">
        <ele>243</ele>
        <time>2022-01-21T13:45:02.000Z</time>
      </trkpt>
      <trkpt lat="43.50769" lon="6.37989">
        <ele>242</ele>
        <time>2022-01-21T13:45:03.000Z</time>
      </trkpt>
      <trkpt lat="43.50771" lon="6.37989">
        <ele>242</ele>
        <time>2022-01-21T13:45:04.000Z</time>
      </trkpt>
      <trkpt lat="43.50772" lon="6.37988">
        <ele>242</ele>
        <time>2022-01-21T13:45:05.000Z</time>
      </trkpt>
      <trkpt lat="43.50773" lon="6.37988">
        <ele>242</ele>
        <time>2022-01-21T13:45:06.000Z</time>
      </trkpt>
      <trkpt lat="43.50775" lon="6.37988">
        <ele>242</ele>
        <time>2022-01-21T13:45:07.000Z</time>
      </trkpt>
      <trkpt lat="43.50776" lon="6.37987">
        <ele>242</ele>
        <time>2022-01-21T13:45:08.000Z</time>
      </trkpt>
      <trkpt lat="43.50777" lon="6.37987">
        <ele>242</ele>
        <time>2022-01-21T13:45:09.000Z</time>
      </trkpt>
      <trkpt lat="43.50779" lon="6.37986">
        <ele>242</ele>
        <time>2022-01-21T13:45:10.000Z</time>
      </trkpt>
      <trkpt lat="43.5078" lon="6.37986">
        <ele>242</ele>
        <time>2022-01-21T13:45:11.000Z</time>
      </trkpt>
      <trkpt lat="43.50782" lon="6.37985">
        <ele>242</ele>
        <time>2022-01-21T13:45:12.000Z</time>
      </trkpt>
      <trkpt lat="43.50783" lon="6.37985">
        <ele>242</ele>
        <time>2022-01-21T13:45:13.000Z</time>
      </trkpt>
      <trkpt lat="43.50784" lon="6.37985">
        <ele>242</ele>
        <time>2022-01-21T13:45:14.000Z</time>
      </trkpt>
      <trkpt lat="43.50786" lon="6.37985">
        <ele>242</ele>
        <time>2022-01-21T13:45:15.000Z</time>
      </trkpt>
      <trkpt lat="43.50787" lon="6.37984">
        <ele>243</ele>
        <time>2022-01-21T13:45:16.000Z</time>
      </trkpt>
      <trkpt lat="43.50789" lon="6.37984">
        <ele>243</ele>
        <time>2022-01-21T13:45:17.000Z</time>
      </trkpt>
      <trkpt lat="43.5079" lon="6.37984">
        <ele>243</ele>
        <time>2022-01-21T13:45:18.000Z</time>
      </trkpt>
      <trkpt lat="43.50792" lon="6.37984">
        <ele>244</ele>
        <time>2022-01-21T13:45:19.000Z</time>
      </trkpt>
      <trkpt lat="43.50794" lon="6.37984">
        <ele>244</ele>
        <time>2022-01-21T13:45:20.000Z</time>
      </trkpt>
      <trkpt lat="43.50795" lon="6.37985">
        <ele>244</ele>
        <time>2022-01-21T13:45:21.000Z</time>
      </trkpt>
      <trkpt lat="43.50797" lon="6.37985">
        <ele>243</ele>
        <time>2022-01-21T13:45:22.000Z</time>
      </trkpt>
      <trkpt lat="43.50798" lon="6.37985">
        <ele>243</ele>
        <time>2022-01-21T13:45:23.000Z</time>
      </trkpt>
      <trkpt lat="43.50799" lon="6.37985">
        <ele>243</ele>
        <time>2022-01-21T13:45:24.000Z</time>
      </trkpt>
      <trkpt lat="43.50801" lon="6.37985">
        <ele>243</ele>
        <time>2022-01-21T13:45:25.000Z</time>
      </trkpt>
      <trkpt lat="43.50802" lon="6.37985">
        <ele>243</ele>
        <time>2022-01-21T13:45:26.000Z</time>
      </trkpt>
      <trkpt lat="43.50803" lon="6.37985">
        <ele>243</ele>
        <time>2022-01-21T13:45:27.000Z</time>
      </trkpt>
      <trkpt lat="43.50805" lon="6.37985">
        <ele>243</ele>
        <time>2022-01-21T13:45:28.000Z</time>
      </trkpt>
      <trkpt lat="43.50806" lon="6.37985">
        <ele>243</ele>
        <time>2022-01-21T13:45:29.000Z</time>
      </trkpt>
      <trkpt lat="43.50807" lon="6.37985">
        <ele>242</ele>
        <time>2022-01-21T13:45:30.000Z</time>
      </trkpt>
      <trkpt lat="43.50808" lon="6.37986">
        <ele>242</ele>
        <time>2022-01-21T13:45:31.000Z</time>
      </trkpt>
      <trkpt lat="43.50809" lon="6.37986">
        <ele>242</ele>
        <time>2022-01-21T13:45:32.000Z</time>
      </trkpt>
      <trkpt lat="43.5081" lon="6.37987">
        <ele>242</ele>
        <time>2022-01-21T13:45:33.000Z</time>
      </trkpt>
      <trkpt lat="43.50811" lon="6.37987">
        <ele>241</ele>
        <time>2022-01-21T13:45:34.000Z</time>
      </trkpt>
      <trkpt lat="43.50812" lon="6.37988">
        <ele>241</ele>
        <time>2022-01-21T13:45:35.000Z</time>
      </trkpt>
      <trkpt lat="43.50813" lon="6.37988">
        <ele>241</ele>
        <time>2022-01-21T13:45:36.000Z</time>
      </trkpt>
      <trkpt lat="43.50814" lon="6.37989">
        <ele>241</ele>
        <time>2022-01-21T13:45:37.000Z</time>
      </trkpt>
      <trkpt lat="43.50815" lon="6.37989">
        <ele>241</ele>
        <time>2022-01-21T13:45:38.000Z</time>
      </trkpt>
      <trkpt lat="43.50816" lon="6.37988">
        <ele>241</ele>
        <time>2022-01-21T13:45:39.000Z</time>
      </trkpt>
      <trkpt lat="43.50817" lon="6.37988">
        <ele>240</ele>
        <time>2022-01-21T13:45:40.000Z</time>
      </trkpt>
      <trkpt lat="43.50818" lon="6.37988">
        <ele>239</ele>
        <time>2022-01-21T13:45:41.000Z</time>
      </trkpt>
      <trkpt lat="43.50819" lon="6.37988">
        <ele>239</ele>
        <time>2022-01-21T13:45:42.000Z</time>
      </trkpt>
      <trkpt lat="43.5082" lon="6.37988">
        <ele>239</ele>
        <time>2022-01-21T13:45:43.000Z</time>
      </trkpt>
      <trkpt lat="43.50821" lon="6.37988">
        <ele>239</ele>
        <time>2022-01-21T13:45:44.000Z</time>
      </trkpt>
      <trkpt lat="43.50822" lon="6.37988">
        <ele>239</ele>
        <time>2022-01-21T13:45:45.000Z</time>
      </trkpt>
      <trkpt lat="43.50823" lon="6.37989">
        <ele>239</ele>
        <time>2022-01-21T13:45:46.000Z</time>
      </trkpt>
      <trkpt lat="43.50824" lon="6.3799">
        <ele>239</ele>
        <time>2022-01-21T13:45:47.000Z</time>
      </trkpt>
      <trkpt lat="43.50825" lon="6.3799">
        <ele>239</ele>
        <time>2022-01-21T13:45:48.000Z</time>
      </trkpt>
      <trkpt lat="43.50826" lon="6.37991">
        <ele>239</ele>
        <time>2022-01-21T13:45:49.000Z</time>
      </trkpt>
      <trkpt lat="43.50827" lon="6.37992">
        <ele>239</ele>
        <time>2022-01-21T13:45:50.000Z</time>
      </trkpt>
      <trkpt lat="43.50828" lon="6.37992">
        <ele>239</ele>
        <time>2022-01-21T13:45:51.000Z</time>
      </trkpt>
      <trkpt lat="43.50829" lon="6.37993">
        <ele>239</ele>
        <time>2022-01-21T13:45:52.000Z</time>
      </trkpt>
      <trkpt lat="43.5083" lon="6.37993">
        <ele>239</ele>
        <time>2022-01-21T13:45:53.000Z</time>
      </trkpt>
      <trkpt lat="43.50831" lon="6.37994">
        <ele>239</ele>
        <time>2022-01-21T13:45:54.000Z</time>
      </trkpt>
      <trkpt lat="43.50832" lon="6.37994">
        <ele>239</ele>
        <time>2022-01-21T13:45:55.000Z</time>
      </trkpt>
      <trkpt lat="43.50833" lon="6.37994">
        <ele>239</ele>
        <time>2022-01-21T13:45:56.000Z</time>
      </trkpt>
      <trkpt lat="43.50834" lon="6.37994">
        <ele>239</ele>
        <time>2022-01-21T13:45:57.000Z</time>
      </trkpt>
      <trkpt lat="43.50835" lon="6.37995">
        <ele>239</ele>
        <time>2022-01-21T13:45:58.000Z</time>
      </trkpt>
      <trkpt lat="43.50835" lon="6.37995">
        <ele>239</ele>
        <time>2022-01-21T13:45:59.000Z</time>
      </trkpt>
      <trkpt lat="43.50836" lon="6.37995">
        <ele>239</ele>
        <time>2022-01-21T13:46:00.000Z</time>
      </trkpt>
      <trkpt lat="43.50836" lon="6.37995">
        <ele>239</ele>
        <time>2022-01-21T13:46:01.000Z</time>
      </trkpt>
      <trkpt lat="43.50836" lon="6.37996">
        <ele>239</ele>
        <time>2022-01-21T13:46:02.000Z</time>
      </trkpt>
      <trkpt lat="43.50836" lon="6.37996">
        <ele>239</ele>
        <time>2022-01-21T13:46:03.000Z</time>
      </trkpt>
      <trkpt lat="43.50836" lon="6.37997">
        <ele>239</ele>
        <time>2022-01-21T13:46:04.000Z</time>
      </trkpt>
      <trkpt lat="43.50837" lon="6.37998">
        <ele>239</ele>
        <time>2022-01-21T13:46:05.000Z</time>
      </trkpt>
      <trkpt lat="43.50837" lon="6.37999">
        <ele>239</ele>
        <time>2022-01-21T13:46:06.000Z</time>
      </trkpt>
      <trkpt lat="43.50838" lon="6.37999">
        <ele>239</ele>
        <time>2022-01-21T13:46:07.000Z</time>
      </trkpt>
      <trkpt lat="43.50838" lon="6.37999">
        <ele>239</ele>
        <time>2022-01-21T13:46:08.000Z</time>
      </trkpt>
      <trkpt lat="43.50838" lon="6.37999">
        <ele>239</ele>
        <time>2022-01-21T13:46:09.000Z</time>
      </trkpt>
      <trkpt lat="43.50838" lon="6.37999">
        <ele>239</ele>
        <time>2022-01-21T13:46:10.000Z</time>
      </trkpt>
      <trkpt lat="43.50838" lon="6.37999">
        <ele>239</ele>
        <time>2022-01-21T13:46:11.000Z</time>
      </trkpt>
      <trkpt lat="43.50838" lon="6.37999">
        <ele>239</ele>
        <time>2022-01-21T13:46:12.000Z</time>
      </trkpt>
      <trkpt lat="43.50838" lon="6.37999">
        <ele>239</ele>
        <time>2022-01-21T13:46:13.000Z</time>
      </trkpt>
      <trkpt lat="43.50838" lon="6.37999">
        <ele>239</ele>
        <time>2022-01-21T13:46:14.000Z</time>
      </trkpt>
      <trkpt lat="43.50838" lon="6.37999">
        <ele>239</ele>
        <time>2022-01-21T13:46:15.000Z</time>
      </trkpt>
      <trkpt lat="43.50838" lon="6.37999">
        <ele>239</ele>
        <time>2022-01-21T13:46:16.000Z</time>
      </trkpt>
      <trkpt lat="43.50839" lon="6.37999">
        <ele>239</ele>
        <time>2022-01-21T13:46:17.000Z</time>
      </trkpt>
      <trkpt lat="43.50839" lon="6.37999">
        <ele>239</ele>
        <time>2022-01-21T13:46:18.000Z</time>
      </trkpt>
      <trkpt lat="43.5084" lon="6.37999">
        <ele>239</ele>
        <time>2022-01-21T13:46:19.000Z</time>
      </trkpt>
      <trkpt lat="43.5084" lon="6.37999">
        <ele>239</ele>
        <time>2022-01-21T13:46:20.000Z</time>
      </trkpt>
      <trkpt lat="43.50841" lon="6.37999">
        <ele>239</ele>
        <time>2022-01-21T13:46:21.000Z</time>
      </trkpt>
      <trkpt lat="43.50841" lon="6.37999">
        <ele>239</ele>
        <time>2022-01-21T13:46:22.000Z</time>
      </trkpt>
      <trkpt lat="43.50841" lon="6.37999">
        <ele>239</ele>
        <time>2022-01-21T13:46:23.000Z</time>
      </trkpt>
      <trkpt lat="43.50842" lon="6.37999">
        <ele>239</ele>
        <time>2022-01-21T13:46:24.000Z</time>
      </trkpt>
      <trkpt lat="43.50842" lon="6.37998">
        <ele>239</ele>
        <time>2022-01-21T13:46:25.000Z</time>
      </trkpt>
      <trkpt lat="43.50843" lon="6.37998">
        <ele>239</ele>
        <time>2022-01-21T13:46:26.000Z</time>
      </trkpt>
      <trkpt lat="43.50844" lon="6.37998">
        <ele>240</ele>
        <time>2022-01-21T13:46:27.000Z</time>
      </trkpt>
      <trkpt lat="43.50845" lon="6.37999">
        <ele>240</ele>
        <time>2022-01-21T13:46:28.000Z</time>
      </trkpt>
      <trkpt lat="43.50847" lon="6.37999">
        <ele>240</ele>
        <time>2022-01-21T13:46:29.000Z</time>
      </trkpt>
      <trkpt lat="43.50848" lon="6.38">
        <ele>240</ele>
        <time>2022-01-21T13:46:30.000Z</time>
      </trkpt>
      <trkpt lat="43.50849" lon="6.38001">
        <ele>240</ele>
        <time>2022-01-21T13:46:31.000Z</time>
      </trkpt>
      <trkpt lat="43.50849" lon="6.38002">
        <ele>240</ele>
        <time>2022-01-21T13:46:32.000Z</time>
      </trkpt>
      <trkpt lat="43.5085" lon="6.38002">
        <ele>240</ele>
        <time>2022-01-21T13:46:33.000Z</time>
      </trkpt>
      <trkpt lat="43.50851" lon="6.38003">
        <ele>240</ele>
        <time>2022-01-21T13:46:34.000Z</time>
      </trkpt>
      <trkpt lat="43.50851" lon="6.38003">
        <ele>240</ele>
        <time>2022-01-21T13:46:35.000Z</time>
      </trkpt>
      <trkpt lat="43.50852" lon="6.38004">
        <ele>241</ele>
        <time>2022-01-21T13:46:36.000Z</time>
      </trkpt>
      <trkpt lat="43.50853" lon="6.38004">
        <ele>241</ele>
        <time>2022-01-21T13:46:37.000Z</time>
      </trkpt>
      <trkpt lat="43.50854" lon="6.38004">
        <ele>241</ele>
        <time>2022-01-21T13:46:38.000Z</time>
      </trkpt>
      <trkpt lat="43.50855" lon="6.38005">
        <ele>241</ele>
        <time>2022-01-21T13:46:39.000Z</time>
      </trkpt>
      <trkpt lat="43.50855" lon="6.38005">
        <ele>241</ele>
        <time>2022-01-21T13:46:40.000Z</time>
      </trkpt>
      <trkpt lat="43.50856" lon="6.38006">
        <ele>241</ele>
        <time>2022-01-21T13:46:41.000Z</time>
      </trkpt>
      <trkpt lat="43.50856" lon="6.38006">
        <ele>241</ele>
        <time>2022-01-21T13:46:42.000Z</time>
      </trkpt>
      <trkpt lat="43.50857" lon="6.38006">
        <ele>241</ele>
        <time>2022-01-21T13:46:43.000Z</time>
      </trkpt>
      <trkpt lat="43.50857" lon="6.38007">
        <ele>241</ele>
        <time>2022-01-21T13:46:44.000Z</time>
      </trkpt>
      <trkpt lat="43.50858" lon="6.38007">
        <ele>241</ele>
        <time>2022-01-21T13:46:45.000Z</time>
      </trkpt>
      <trkpt lat="43.50859" lon="6.38007">
        <ele>241</ele>
        <time>2022-01-21T13:46:46.000Z</time>
      </trkpt>
      <trkpt lat="43.50859" lon="6.38008">
        <ele>242</ele>
        <time>2022-01-21T13:46:47.000Z</time>
      </trkpt>
      <trkpt lat="43.50859" lon="6.38008">
        <ele>242</ele>
        <time>2022-01-21T13:46:48.000Z</time>
      </trkpt>
      <trkpt lat="43.50859" lon="6.38008">
        <ele>242</ele>
        <time>2022-01-21T13:46:49.000Z</time>
      </trkpt>
      <trkpt lat="43.5086" lon="6.38008">
        <ele>242</ele>
        <time>2022-01-21T13:46:50.000Z</time>
      </trkpt>
      <trkpt lat="43.5086" lon="6.38008">
        <ele>242</ele>
        <time>2022-01-21T13:46:51.000Z</time>
      </trkpt>
      <trkpt lat="43.5086" lon="6.38008">
        <ele>242</ele>
        <time>2022-01-21T13:46:52.000Z</time>
      </trkpt>
      <trkpt lat="43.50861" lon="6.38009">
        <ele>242</ele>
        <time>2022-01-21T13:46:53.000Z</time>
      </trkpt>
      <trkpt lat="43.50861" lon="6.38009">
        <ele>242</ele>
        <time>2022-01-21T13:46:54.000Z</time>
      </trkpt>
      <trkpt lat="43.50862" lon="6.38009">
        <ele>242</ele>
        <time>2022-01-21T13:46:55.000Z</time>
      </trkpt>
      <trkpt lat="43.50862" lon="6.3801">
        <ele>242</ele>
        <time>2022-01-21T13:46:56.000Z</time>
      </trkpt>
      <trkpt lat="43.50863" lon="6.38011">
        <ele>242</ele>
        <time>2022-01-21T13:46:57.000Z</time>
      </trkpt>
      <trkpt lat="43.50864" lon="6.38012">
        <ele>242</ele>
        <time>2022-01-21T13:46:58.000Z</time>
      </trkpt>
      <trkpt lat="43.50865" lon="6.38013">
        <ele>242</ele>
        <time>2022-01-21T13:46:59.000Z</time>
      </trkpt>
      <trkpt lat="43.50867" lon="6.38015">
        <ele>242</ele>
        <time>2022-01-21T13:47:00.000Z</time>
      </trkpt>
      <trkpt lat="43.50869" lon="6.38016">
        <ele>242</ele>
        <time>2022-01-21T13:47:01.000Z</time>
      </trkpt>
      <trkpt lat="43.5087" lon="6.38017">
        <ele>242</ele>
        <time>2022-01-21T13:47:02.000Z</time>
      </trkpt>
      <trkpt lat="43.50871" lon="6.38018">
        <ele>242</ele>
        <time>2022-01-21T13:47:03.000Z</time>
      </trkpt>
      <trkpt lat="43.50872" lon="6.38018">
        <ele>242</ele>
        <time>2022-01-21T13:47:04.000Z</time>
      </trkpt>
      <trkpt lat="43.50873" lon="6.38019">
        <ele>242</ele>
        <time>2022-01-21T13:47:05.000Z</time>
      </trkpt>
      <trkpt lat="43.50874" lon="6.3802">
        <ele>242</ele>
        <time>2022-01-21T13:47:06.000Z</time>
      </trkpt>
      <trkpt lat="43.50875" lon="6.3802">
        <ele>241</ele>
        <time>2022-01-21T13:47:07.000Z</time>
      </trkpt>
      <trkpt lat="43.50876" lon="6.3802">
        <ele>241</ele>
        <time>2022-01-21T13:47:08.000Z</time>
      </trkpt>
      <trkpt lat="43.50878" lon="6.38021">
        <ele>241</ele>
        <time>2022-01-21T13:47:09.000Z</time>
      </trkpt>
      <trkpt lat="43.50879" lon="6.38021">
        <ele>241</ele>
        <time>2022-01-21T13:47:10.000Z</time>
      </trkpt>
      <trkpt lat="43.5088" lon="6.38021">
        <ele>241</ele>
        <time>2022-01-21T13:47:11.000Z</time>
      </trkpt>
      <trkpt lat="43.50881" lon="6.38022">
        <ele>241</ele>
        <time>2022-01-21T13:47:12.000Z</time>
      </trkpt>
      <trkpt lat="43.50881" lon="6.38022">
        <ele>241</ele>
        <time>2022-01-21T13:47:13.000Z</time>
      </trkpt>
      <trkpt lat="43.50882" lon="6.38022">
        <ele>241</ele>
        <time>2022-01-21T13:47:14.000Z</time>
      </trkpt>
      <trkpt lat="43.50883" lon="6.38022">
        <ele>242</ele>
        <time>2022-01-21T13:47:15.000Z</time>
      </trkpt>
      <trkpt lat="43.50885" lon="6.38022">
        <ele>242</ele>
        <time>2022-01-21T13:47:16.000Z</time>
      </trkpt>
      <trkpt lat="43.50886" lon="6.38021">
        <ele>242</ele>
        <time>2022-01-21T13:47:17.000Z</time>
      </trkpt>
      <trkpt lat="43.50887" lon="6.38021">
        <ele>242</ele>
        <time>2022-01-21T13:47:18.000Z</time>
      </trkpt>
      <trkpt lat="43.50888" lon="6.3802">
        <ele>242</ele>
        <time>2022-01-21T13:47:19.000Z</time>
      </trkpt>
      <trkpt lat="43.50889" lon="6.3802">
        <ele>242</ele>
        <time>2022-01-21T13:47:20.000Z</time>
      </trkpt>
      <trkpt lat="43.5089" lon="6.38019">
        <ele>243</ele>
        <time>2022-01-21T13:47:21.000Z</time>
      </trkpt>
      <trkpt lat="43.50891" lon="6.38019">
        <ele>243</ele>
        <time>2022-01-21T13:47:22.000Z</time>
      </trkpt>
      <trkpt lat="43.50893" lon="6.38019">
        <ele>243</ele>
        <time>2022-01-21T13:47:23.000Z</time>
      </trkpt>
      <trkpt lat="43.50894" lon="6.38019">
        <ele>243</ele>
        <time>2022-01-21T13:47:24.000Z</time>
      </trkpt>
      <trkpt lat="43.50895" lon="6.38019">
        <ele>243</ele>
        <time>2022-01-21T13:47:25.000Z</time>
      </trkpt>
      <trkpt lat="43.50896" lon="6.38018">
        <ele>243</ele>
        <time>2022-01-21T13:47:26.000Z</time>
      </trkpt>
      <trkpt lat="43.50897" lon="6.38018">
        <ele>243</ele>
        <time>2022-01-21T13:47:27.000Z</time>
      </trkpt>
      <trkpt lat="43.50899" lon="6.38018">
        <ele>243</ele>
        <time>2022-01-21T13:47:28.000Z</time>
      </trkpt>
      <trkpt lat="43.509" lon="6.38017">
        <ele>243</ele>
        <time>2022-01-21T13:47:29.000Z</time>
      </trkpt>
      <trkpt lat="43.50901" lon="6.38017">
        <ele>243</ele>
        <time>2022-01-21T13:47:30.000Z</time>
      </trkpt>
      <trkpt lat="43.50902" lon="6.38017">
        <ele>243</ele>
        <time>2022-01-21T13:47:31.000Z</time>
      </trkpt>
      <trkpt lat="43.50904" lon="6.38017">
        <ele>243</ele>
        <time>2022-01-21T13:47:32.000Z</time>
      </trkpt>
      <trkpt lat="43.50905" lon="6.38016">
        <ele>243</ele>
        <time>2022-01-21T13:47:33.000Z</time>
      </trkpt>
      <trkpt lat="43.50906" lon="6.38016">
        <ele>243</ele>
        <time>2022-01-21T13:47:34.000Z</time>
      </trkpt>
      <trkpt lat="43.50907" lon="6.38016">
        <ele>243</ele>
        <time>2022-01-21T13:47:35.000Z</time>
      </trkpt>
      <trkpt lat="43.50908" lon="6.38015">
        <ele>243</ele>
        <time>2022-01-21T13:47:36.000Z</time>
      </trkpt>
      <trkpt lat="43.5091" lon="6.38015">
        <ele>243</ele>
        <time>2022-01-21T13:47:37.000Z</time>
      </trkpt>
      <trkpt lat="43.50911" lon="6.38014">
        <ele>243</ele>
        <time>2022-01-21T13:47:38.000Z</time>
      </trkpt>
      <trkpt lat="43.50912" lon="6.38014">
        <ele>243</ele>
        <time>2022-01-21T13:47:39.000Z</time>
      </trkpt>
      <trkpt lat="43.50913" lon="6.38013">
        <ele>243</ele>
        <time>2022-01-21T13:47:40.000Z</time>
      </trkpt>
      <trkpt lat="43.50913" lon="6.38012">
        <ele>243</ele>
        <time>2022-01-21T13:47:41.000Z</time>
      </trkpt>
      <trkpt lat="43.50914" lon="6.38011">
        <ele>243</ele>
        <time>2022-01-21T13:47:42.000Z</time>
      </trkpt>
      <trkpt lat="43.50914" lon="6.38011">
        <ele>243</ele>
        <time>2022-01-21T13:47:43.000Z</time>
      </trkpt>
      <trkpt lat="43.50915" lon="6.38012">
        <ele>243</ele>
        <time>2022-01-21T13:47:44.000Z</time>
      </trkpt>
      <trkpt lat="43.50916" lon="6.38012">
        <ele>243</ele>
        <time>2022-01-21T13:47:45.000Z</time>
      </trkpt>
      <trkpt lat="43.50916" lon="6.38013">
        <ele>243</ele>
        <time>2022-01-21T13:47:46.000Z</time>
      </trkpt>
      <trkpt lat="43.50916" lon="6.38013">
        <ele>243</ele>
        <time>2022-01-21T13:47:47.000Z</time>
      </trkpt>
      <trkpt lat="43.50916" lon="6.38013">
        <ele>243</ele>
        <time>2022-01-21T13:47:48.000Z</time>
      </trkpt>
      <trkpt lat="43.50916" lon="6.38013">
        <ele>243</ele>
        <time>2022-01-21T13:47:49.000Z</time>
      </trkpt>
      <trkpt lat="43.50916" lon="6.38013">
        <ele>243</ele>
        <time>2022-01-21T13:47:50.000Z</time>
      </trkpt>
      <trkpt lat="43.50917" lon="6.38013">
        <ele>243</ele>
        <time>2022-01-21T13:47:51.000Z</time>
      </trkpt>
      <trkpt lat="43.50917" lon="6.38012">
        <ele>243</ele>
        <time>2022-01-21T13:47:52.000Z</time>
      </trkpt>
      <trkpt lat="43.50917" lon="6.38012">
        <ele>243</ele>
        <time>2022-01-21T13:47:53.000Z</time>
      </trkpt>
      <trkpt lat="43.50917" lon="6.38012">
        <ele>243</ele>
        <time>2022-01-21T13:47:54.000Z</time>
      </trkpt>
      <trkpt lat="43.50917" lon="6.38012">
        <ele>243</ele>
        <time>2022-01-21T13:47:55.000Z</time>
      </trkpt>
      <trkpt lat="43.50917" lon="6.38012">
        <ele>243</ele>
        <time>2022-01-21T13:47:56.000Z</time>
      </trkpt>
      <trkpt lat="43.50917" lon="6.38012">
        <ele>243</ele>
        <time>2022-01-21T13:47:57.000Z</time>
      </trkpt>
      <trkpt lat="43.50918" lon="6.38012">
        <ele>243</ele>
        <time>2022-01-21T13:47:58.000Z</time>
      </trkpt>
      <trkpt lat="43.50918" lon="6.38012">
        <ele>243</ele>
        <time>2022-01-21T13:47:59.000Z</time>
      </trkpt>
      <trkpt lat="43.50918" lon="6.38012">
        <ele>243</ele>
        <time>2022-01-21T13:48:00.000Z</time>
      </trkpt>
      <trkpt lat="43.50918" lon="6.38012">
        <ele>243</ele>
        <time>2022-01-21T13:48:01.000Z</time>
      </trkpt>
      <trkpt lat="43.50918" lon="6.38012">
        <ele>243</ele>
        <time>2022-01-21T13:48:02.000Z</time>
      </trkpt>
      <trkpt lat="43.50918" lon="6.38012">
        <ele>243</ele>
        <time>2022-01-21T13:48:03.000Z</time>
      </trkpt>
      <trkpt lat="43.50918" lon="6.38012">
        <ele>243</ele>
        <time>2022-01-21T13:48:04.000Z</time>
      </trkpt>
      <trkpt lat="43.50918" lon="6.38012">
        <ele>243</ele>
        <time>2022-01-21T13:48:05.000Z</time>
      </trkpt>
      <trkpt lat="43.50918" lon="6.38012">
        <ele>243</ele>
        <time>2022-01-21T13:48:06.000Z</time>
      </trkpt>
      <trkpt lat="43.50918" lon="6.38012">
        <ele>243</ele>
        <time>2022-01-21T13:48:07.000Z</time>
      </trkpt>
      <trkpt lat="43.50918" lon="6.38012">
        <ele>243</ele>
        <time>2022-01-21T13:48:08.000Z</time>
      </trkpt>
      <trkpt lat="43.50918" lon="6.38012">
        <ele>243</ele>
        <time>2022-01-21T13:48:09.000Z</time>
      </trkpt>
      <trkpt lat="43.50918" lon="6.38012">
        <ele>243</ele>
        <time>2022-01-21T13:48:10.000Z</time>
      </trkpt>
      <trkpt lat="43.50918" lon="6.38012">
        <ele>243</ele>
        <time>2022-01-21T13:48:11.000Z</time>
      </trkpt>
      <trkpt lat="43.50918" lon="6.38012">
        <ele>243</ele>
        <time>2022-01-21T13:48:12.000Z</time>
      </trkpt>
      <trkpt lat="43.50918" lon="6.38012">
        <ele>243</ele>
        <time>2022-01-21T13:48:13.000Z</time>
      </trkpt>
      <trkpt lat="43.50918" lon="6.38012">
        <ele>243</ele>
        <time>2022-01-21T13:48:14.000Z</time>
      </trkpt>
      <trkpt lat="43.50918" lon="6.38012">
        <ele>243</ele>
        <time>2022-01-21T13:48:15.000Z</time>
      </trkpt>
      <trkpt lat="43.50918" lon="6.38012">
        <ele>243</ele>
        <time>2022-01-21T13:48:16.000Z</time>
      </trkpt>
      <trkpt lat="43.50918" lon="6.38012">
        <ele>243</ele>
        <time>2022-01-21T13:48:17.000Z</time>
      </trkpt>
      <trkpt lat="43.50918" lon="6.38012">
        <ele>243</ele>
        <time>2022-01-21T13:48:18.000Z</time>
      </trkpt>
      <trkpt lat="43.50918" lon="6.38012">
        <ele>243</ele>
        <time>2022-01-21T13:48:19.000Z</time>
      </trkpt>
      <trkpt lat="43.50918" lon="6.38012">
        <ele>243</ele>
        <time>2022-01-21T13:48:20.000Z</time>
      </trkpt>
      <trkpt lat="43.50918" lon="6.38012">
        <ele>243</ele>
        <time>2022-01-21T13:48:21.000Z</time>
      </trkpt>
      <trkpt lat="43.50918" lon="6.38012">
        <ele>243</ele>
        <time>2022-01-21T13:48:22.000Z</time>
      </trkpt>
      <trkpt lat="43.50918" lon="6.38012">
        <ele>243</ele>
        <time>2022-01-21T13:48:23.000Z</time>
      </trkpt>
      <trkpt lat="43.50918" lon="6.38012">
        <ele>243</ele>
        <time>2022-01-21T13:48:24.000Z</time>
      </trkpt>
      <trkpt lat="43.50918" lon="6.38012">
        <ele>243</ele>
        <time>2022-01-21T13:48:25.000Z</time>
      </trkpt>
      <trkpt lat="43.50918" lon="6.38012">
        <ele>243</ele>
        <time>2022-01-21T13:48:26.000Z</time>
      </trkpt>
      <trkpt lat="43.50918" lon="6.38012">
        <ele>243</ele>
        <time>2022-01-21T13:48:27.000Z</time>
      </trkpt>
      <trkpt lat="43.50918" lon="6.38012">
        <ele>243</ele>
        <time>2022-01-21T13:48:28.000Z</time>
      </trkpt>
      <trkpt lat="43.50918" lon="6.38012">
        <ele>243</ele>
        <time>2022-01-21T13:48:29.000Z</time>
      </trkpt>
      <trkpt lat="43.50918" lon="6.38012">
        <ele>243</ele>
        <time>2022-01-21T13:48:30.000Z</time>
      </trkpt>
      <trkpt lat="43.50918" lon="6.38012">
        <ele>243</ele>
        <time>2022-01-21T13:48:31.000Z</time>
      </trkpt>
      <trkpt lat="43.50918" lon="6.38012">
        <ele>243</ele>
        <time>2022-01-21T13:48:32.000Z</time>
      </trkpt>
      <trkpt lat="43.50918" lon="6.38012">
        <ele>243</ele>
        <time>2022-01-21T13:48:33.000Z</time>
      </trkpt>
      <trkpt lat="43.50918" lon="6.38012">
        <ele>243</ele>
        <time>2022-01-21T13:48:34.000Z</time>
      </trkpt>
      <trkpt lat="43.50918" lon="6.38012">
        <ele>243</ele>
        <time>2022-01-21T13:48:35.000Z</time>
      </trkpt>
      <trkpt lat="43.50918" lon="6.38012">
        <ele>243</ele>
        <time>2022-01-21T13:48:36.000Z</time>
      </trkpt>
      <trkpt lat="43.50918" lon="6.38012">
        <ele>243</ele>
        <time>2022-01-21T13:48:37.000Z</time>
      </trkpt>
      <trkpt lat="43.50918" lon="6.38012">
        <ele>243</ele>
        <time>2022-01-21T13:48:38.000Z</time>
      </trkpt>
      <trkpt lat="43.50918" lon="6.38012">
        <ele>243</ele>
        <time>2022-01-21T13:48:39.000Z</time>
      </trkpt>
      <trkpt lat="43.50918" lon="6.38012">
        <ele>243</ele>
        <time>2022-01-21T13:48:40.000Z</time>
      </trkpt>
      <trkpt lat="43.50918" lon="6.38012">
        <ele>243</ele>
        <time>2022-01-21T13:48:41.000Z</time>
      </trkpt>
      <trkpt lat="43.50918" lon="6.38012">
        <ele>243</ele>
        <time>2022-01-21T13:48:42.000Z</time>
      </trkpt>
      <trkpt lat="43.50918" lon="6.38012">
        <ele>243</ele>
        <time>2022-01-21T13:48:43.000Z</time>
      </trkpt>
      <trkpt lat="43.50918" lon="6.38012">
        <ele>243</ele>
        <time>2022-01-21T13:48:44.000Z</time>
      </trkpt>
      <trkpt lat="43.50918" lon="6.38012">
        <ele>243</ele>
        <time>2022-01-21T13:48:45.000Z</time>
      </trkpt>
      <trkpt lat="43.50918" lon="6.38012">
        <ele>243</ele>
        <time>2022-01-21T13:48:46.000Z</time>
      </trkpt>
      <trkpt lat="43.50918" lon="6.38012">
        <ele>243</ele>
        <time>2022-01-21T13:48:47.000Z</time>
      </trkpt>
      <trkpt lat="43.50918" lon="6.38012">
        <ele>243</ele>
        <time>2022-01-21T13:48:48.000Z</time>
      </trkpt>
      <trkpt lat="43.50918" lon="6.38012">
        <ele>243</ele>
        <time>2022-01-21T13:48:49.000Z</time>
      </trkpt>
      <trkpt lat="43.50918" lon="6.38012">
        <ele>243</ele>
        <time>2022-01-21T13:48:50.000Z</time>
      </trkpt>
      <trkpt lat="43.50918" lon="6.38012">
        <ele>243</ele>
        <time>2022-01-21T13:48:51.000Z</time>
      </trkpt>
      <trkpt lat="43.50918" lon="6.38012">
        <ele>243</ele>
        <time>2022-01-21T13:48:52.000Z</time>
      </trkpt>
      <trkpt lat="43.50918" lon="6.38012">
        <ele>243</ele>
        <time>2022-01-21T13:48:53.000Z</time>
      </trkpt>
      <trkpt lat="43.50918" lon="6.38012">
        <ele>243</ele>
        <time>2022-01-21T13:48:54.000Z</time>
      </trkpt>
      <trkpt lat="43.50918" lon="6.38012">
        <ele>243</ele>
        <time>2022-01-21T13:48:55.000Z</time>
      </trkpt>
      <trkpt lat="43.50918" lon="6.38012">
        <ele>243</ele>
        <time>2022-01-21T13:48:56.000Z</time>
      </trkpt>
      <trkpt lat="43.50918" lon="6.38012">
        <ele>243</ele>
        <time>2022-01-21T13:48:57.000Z</time>
      </trkpt>
      <trkpt lat="43.50918" lon="6.38012">
        <ele>243</ele>
        <time>2022-01-21T13:48:58.000Z</time>
      </trkpt>
      <trkpt lat="43.50918" lon="6.38012">
        <ele>243</ele>
        <time>2022-01-21T13:48:59.000Z</time>
      </trkpt>
      <trkpt lat="43.50918" lon="6.38012">
        <ele>243</ele>
        <time>2022-01-21T13:49:00.000Z</time>
      </trkpt>
      <trkpt lat="43.50918" lon="6.38012">
        <ele>243</ele>
        <time>2022-01-21T13:49:01.000Z</time>
      </trkpt>
      <trkpt lat="43.50918" lon="6.38012">
        <ele>243</ele>
        <time>2022-01-21T13:49:02.000Z</time>
      </trkpt>
      <trkpt lat="43.50918" lon="6.38012">
        <ele>243</ele>
        <time>2022-01-21T13:49:03.000Z</time>
      </trkpt>
      <trkpt lat="43.50918" lon="6.38012">
        <ele>243</ele>
        <time>2022-01-21T13:49:04.000Z</time>
      </trkpt>
      <trkpt lat="43.50918" lon="6.38012">
        <ele>243</ele>
        <time>2022-01-21T13:49:05.000Z</time>
      </trkpt>
      <trkpt lat="43.50918" lon="6.38012">
        <ele>243</ele>
        <time>2022-01-21T13:49:06.000Z</time>
      </trkpt>
      <trkpt lat="43.50918" lon="6.38012">
        <ele>243</ele>
        <time>2022-01-21T13:49:07.000Z</time>
      </trkpt>
      <trkpt lat="43.50918" lon="6.38012">
        <ele>243</ele>
        <time>2022-01-21T13:49:08.000Z</time>
      </trkpt>
      <trkpt lat="43.50918" lon="6.38012">
        <ele>243</ele>
        <time>2022-01-21T13:49:09.000Z</time>
      </trkpt>
      <trkpt lat="43.50918" lon="6.38012">
        <ele>243</ele>
        <time>2022-01-21T13:49:10.000Z</time>
      </trkpt>
      <trkpt lat="43.50918" lon="6.38012">
        <ele>243</ele>
        <time>2022-01-21T13:49:11.000Z</time>
      </trkpt>
      <trkpt lat="43.50918" lon="6.38012">
        <ele>243</ele>
        <time>2022-01-21T13:49:12.000Z</time>
      </trkpt>
      <trkpt lat="43.50918" lon="6.38012">
        <ele>243</ele>
        <time>2022-01-21T13:49:13.000Z</time>
      </trkpt>
      <trkpt lat="43.50918" lon="6.38012">
        <ele>243</ele>
        <time>2022-01-21T13:49:14.000Z</time>
      </trkpt>
      <trkpt lat="43.50918" lon="6.38012">
        <ele>243</ele>
        <time>2022-01-21T13:49:15.000Z</time>
      </trkpt>
      <trkpt lat="43.50918" lon="6.38012">
        <ele>243</ele>
        <time>2022-01-21T13:49:16.000Z</time>
      </trkpt>
      <trkpt lat="43.50918" lon="6.38012">
        <ele>243</ele>
        <time>2022-01-21T13:49:17.000Z</time>
      </trkpt>
      <trkpt lat="43.50918" lon="6.38012">
        <ele>243</ele>
        <time>2022-01-21T13:49:18.000Z</time>
      </trkpt>
      <trkpt lat="43.50918" lon="6.38012">
        <ele>243</ele>
        <time>2022-01-21T13:49:19.000Z</time>
      </trkpt>
      <trkpt lat="43.50918" lon="6.38012">
        <ele>243</ele>
        <time>2022-01-21T13:49:20.000Z</time>
      </trkpt>
      <trkpt lat="43.50918" lon="6.38012">
        <ele>243</ele>
        <time>2022-01-21T13:49:21.000Z</time>
      </trkpt>
      <trkpt lat="43.50918" lon="6.38012">
        <ele>243</ele>
        <time>2022-01-21T13:49:22.000Z</time>
      </trkpt>
      <trkpt lat="43.50918" lon="6.38012">
        <ele>243</ele>
        <time>2022-01-21T13:49:23.000Z</time>
      </trkpt>
      <trkpt lat="43.50918" lon="6.38012">
        <ele>243</ele>
        <time>2022-01-21T13:49:24.000Z</time>
      </trkpt>
      <trkpt lat="43.50918" lon="6.38012">
        <ele>243</ele>
        <time>2022-01-21T13:49:25.000Z</time>
      </trkpt>
      <trkpt lat="43.50918" lon="6.38012">
        <ele>243</ele>
        <time>2022-01-21T13:49:26.000Z</time>
      </trkpt>
      <trkpt lat="43.50918" lon="6.38012">
        <ele>243</ele>
        <time>2022-01-21T13:49:27.000Z</time>
      </trkpt>
      <trkpt lat="43.50918" lon="6.38012">
        <ele>243</ele>
        <time>2022-01-21T13:49:28.000Z</time>
      </trkpt>
      <trkpt lat="43.50918" lon="6.38012">
        <ele>243</ele>
        <time>2022-01-21T13:49:29.000Z</time>
      </trkpt>
      <trkpt lat="43.50918" lon="6.38012">
        <ele>243</ele>
        <time>2022-01-21T13:49:30.000Z</time>
      </trkpt>
      <trkpt lat="43.50918" lon="6.38012">
        <ele>243</ele>
        <time>2022-01-21T13:49:31.000Z</time>
      </trkpt>
      <trkpt lat="43.50918" lon="6.38012">
        <ele>243</ele>
        <time>2022-01-21T13:49:32.000Z</time>
      </trkpt>
      <trkpt lat="43.50918" lon="6.38012">
        <ele>243</ele>
        <time>2022-01-21T13:49:33.000Z</time>
      </trkpt>
      <trkpt lat="43.50918" lon="6.38012">
        <ele>243</ele>
        <time>2022-01-21T13:49:34.000Z</time>
      </trkpt>
      <trkpt lat="43.50918" lon="6.38012">
        <ele>243</ele>
        <time>2022-01-21T13:49:35.000Z</time>
      </trkpt>
      <trkpt lat="43.50918" lon="6.38012">
        <ele>243</ele>
        <time>2022-01-21T13:49:36.000Z</time>
      </trkpt>
      <trkpt lat="43.50918" lon="6.38012">
        <ele>243</ele>
        <time>2022-01-21T13:49:37.000Z</time>
      </trkpt>
      <trkpt lat="43.50918" lon="6.38012">
        <ele>243</ele>
        <time>2022-01-21T13:49:38.000Z</time>
      </trkpt>
      <trkpt lat="43.50918" lon="6.38012">
        <ele>243</ele>
        <time>2022-01-21T13:49:39.000Z</time>
      </trkpt>
      <trkpt lat="43.50918" lon="6.38012">
        <ele>243</ele>
        <time>2022-01-21T13:49:40.000Z</time>
      </trkpt>
      <trkpt lat="43.50918" lon="6.38012">
        <ele>243</ele>
        <time>2022-01-21T13:49:41.000Z</time>
      </trkpt>
      <trkpt lat="43.50918" lon="6.38012">
        <ele>243</ele>
        <time>2022-01-21T13:49:42.000Z</time>
      </trkpt>
      <trkpt lat="43.50918" lon="6.38012">
        <ele>243</ele>
        <time>2022-01-21T13:49:43.000Z</time>
      </trkpt>
      <trkpt lat="43.50918" lon="6.38012">
        <ele>243</ele>
        <time>2022-01-21T13:49:44.000Z</time>
      </trkpt>
      <trkpt lat="43.50918" lon="6.38012">
        <ele>243</ele>
        <time>2022-01-21T13:49:45.000Z</time>
      </trkpt>
      <trkpt lat="43.50918" lon="6.38012">
        <ele>243</ele>
        <time>2022-01-21T13:49:46.000Z</time>
      </trkpt>
      <trkpt lat="43.50918" lon="6.38012">
        <ele>243</ele>
        <time>2022-01-21T13:49:47.000Z</time>
      </trkpt>
      <trkpt lat="43.50918" lon="6.38012">
        <ele>243</ele>
        <time>2022-01-21T13:49:48.000Z</time>
      </trkpt>
      <trkpt lat="43.50918" lon="6.38012">
        <ele>243</ele>
        <time>2022-01-21T13:49:49.000Z</time>
      </trkpt>
      <trkpt lat="43.50918" lon="6.38012">
        <ele>243</ele>
        <time>2022-01-21T13:49:50.000Z</time>
      </trkpt>
      <trkpt lat="43.50918" lon="6.38012">
        <ele>243</ele>
        <time>2022-01-21T13:49:51.000Z</time>
      </trkpt>
      <trkpt lat="43.50918" lon="6.38012">
        <ele>243</ele>
        <time>2022-01-21T13:49:52.000Z</time>
      </trkpt>
      <trkpt lat="43.50918" lon="6.38012">
        <ele>243</ele>
        <time>2022-01-21T13:49:53.000Z</time>
      </trkpt>
      <trkpt lat="43.50918" lon="6.38012">
        <ele>243</ele>
        <time>2022-01-21T13:49:54.000Z</time>
      </trkpt>
      <trkpt lat="43.50918" lon="6.38012">
        <ele>243</ele>
        <time>2022-01-21T13:49:55.000Z</time>
      </trkpt>
      <trkpt lat="43.50918" lon="6.38012">
        <ele>243</ele>
        <time>2022-01-21T13:49:56.000Z</time>
      </trkpt>
      <trkpt lat="43.50918" lon="6.38012">
        <ele>243</ele>
        <time>2022-01-21T13:49:57.000Z</time>
      </trkpt>
      <trkpt lat="43.50918" lon="6.38012">
        <ele>243</ele>
        <time>2022-01-21T13:49:58.000Z</time>
      </trkpt>
      <trkpt lat="43.50918" lon="6.38012">
        <ele>243</ele>
        <time>2022-01-21T13:49:59.000Z</time>
      </trkpt>
      <trkpt lat="43.50918" lon="6.38012">
        <ele>243</ele>
        <time>2022-01-21T13:50:00.000Z</time>
      </trkpt>
      <trkpt lat="43.50918" lon="6.38012">
        <ele>243</ele>
        <time>2022-01-21T13:50:01.000Z</time>
      </trkpt>
      <trkpt lat="43.50918" lon="6.38012">
        <ele>243</ele>
        <time>2022-01-21T13:50:02.000Z</time>
      </trkpt>
      <trkpt lat="43.50918" lon="6.38012">
        <ele>243</ele>
        <time>2022-01-21T13:50:03.000Z</time>
      </trkpt>
      <trkpt lat="43.50918" lon="6.38012">
        <ele>243</ele>
        <time>2022-01-21T13:50:04.000Z</time>
      </trkpt>
      <trkpt lat="43.50918" lon="6.38012">
        <ele>243</ele>
        <time>2022-01-21T13:50:05.000Z</time>
      </trkpt>
      <trkpt lat="43.50918" lon="6.38012">
        <ele>243</ele>
        <time>2022-01-21T13:50:06.000Z</time>
      </trkpt>
      <trkpt lat="43.50918" lon="6.38012">
        <ele>243</ele>
        <time>2022-01-21T13:50:07.000Z</time>
      </trkpt>
      <trkpt lat="43.50918" lon="6.38012">
        <ele>243</ele>
        <time>2022-01-21T13:50:08.000Z</time>
      </trkpt>
      <trkpt lat="43.50918" lon="6.38012">
        <ele>243</ele>
        <time>2022-01-21T13:50:09.000Z</time>
      </trkpt>
      <trkpt lat="43.50918" lon="6.38012">
        <ele>243</ele>
        <time>2022-01-21T13:50:10.000Z</time>
      </trkpt>
      <trkpt lat="43.50918" lon="6.38012">
        <ele>243</ele>
        <time>2022-01-21T13:50:11.000Z</time>
      </trkpt>
      <trkpt lat="43.50918" lon="6.38012">
        <ele>243</ele>
        <time>2022-01-21T13:50:12.000Z</time>
      </trkpt>
      <trkpt lat="43.50918" lon="6.38012">
        <ele>243</ele>
        <time>2022-01-21T13:50:13.000Z</time>
      </trkpt>
      <trkpt lat="43.50918" lon="6.38012">
        <ele>243</ele>
        <time>2022-01-21T13:50:14.000Z</time>
      </trkpt>
      <trkpt lat="43.50918" lon="6.38012">
        <ele>243</ele>
        <time>2022-01-21T13:50:15.000Z</time>
      </trkpt>
      <trkpt lat="43.50918" lon="6.38012">
        <ele>243</ele>
        <time>2022-01-21T13:50:16.000Z</time>
      </trkpt>
      <trkpt lat="43.50918" lon="6.38012">
        <ele>243</ele>
        <time>2022-01-21T13:50:17.000Z</time>
      </trkpt>
      <trkpt lat="43.50918" lon="6.38012">
        <ele>243</ele>
        <time>2022-01-21T13:50:18.000Z</time>
      </trkpt>
      <trkpt lat="43.50918" lon="6.38012">
        <ele>243</ele>
        <time>2022-01-21T13:50:19.000Z</time>
      </trkpt>
      <trkpt lat="43.50918" lon="6.38012">
        <ele>243</ele>
        <time>2022-01-21T13:50:20.000Z</time>
      </trkpt>
      <trkpt lat="43.50918" lon="6.38012">
        <ele>243</ele>
        <time>2022-01-21T13:50:21.000Z</time>
      </trkpt>
      <trkpt lat="43.50918" lon="6.38012">
        <ele>243</ele>
        <time>2022-01-21T13:50:22.000Z</time>
      </trkpt>
      <trkpt lat="43.50918" lon="6.38012">
        <ele>243</ele>
        <time>2022-01-21T13:50:23.000Z</time>
      </trkpt>
      <trkpt lat="43.50918" lon="6.38012">
        <ele>243</ele>
        <time>2022-01-21T13:50:24.000Z</time>
      </trkpt>
      <trkpt lat="43.50918" lon="6.38012">
        <ele>243</ele>
        <time>2022-01-21T13:50:25.000Z</time>
      </trkpt>
      <trkpt lat="43.50918" lon="6.38012">
        <ele>243</ele>
        <time>2022-01-21T13:50:26.000Z</time>
      </trkpt>
      <trkpt lat="43.50918" lon="6.38012">
        <ele>243</ele>
        <time>2022-01-21T13:50:27.000Z</time>
      </trkpt>
      <trkpt lat="43.50918" lon="6.38012">
        <ele>243</ele>
        <time>2022-01-21T13:50:28.000Z</time>
      </trkpt>
      <trkpt lat="43.50918" lon="6.38012">
        <ele>243</ele>
        <time>2022-01-21T13:50:29.000Z</time>
      </trkpt>
      <trkpt lat="43.50918" lon="6.38012">
        <ele>243</ele>
        <time>2022-01-21T13:50:30.000Z</time>
      </trkpt>
      <trkpt lat="43.50918" lon="6.38012">
        <ele>243</ele>
        <time>2022-01-21T13:50:31.000Z</time>
      </trkpt>
      <trkpt lat="43.50918" lon="6.38012">
        <ele>243</ele>
        <time>2022-01-21T13:50:32.000Z</time>
      </trkpt>
      <trkpt lat="43.50917" lon="6.38013">
        <ele>243</ele>
        <time>2022-01-21T13:50:38.000Z</time>
      </trkpt>
      <trkpt lat="43.50917" lon="6.38013">
        <ele>243</ele>
        <time>2022-01-21T13:50:39.000Z</time>
      </trkpt>
      <trkpt lat="43.50917" lon="6.38013">
        <ele>243</ele>
        <time>2022-01-21T13:50:40.000Z</time>
      </trkpt>
      <trkpt lat="43.50917" lon="6.38013">
        <ele>243</ele>
        <time>2022-01-21T13:50:41.000Z</time>
      </trkpt>
      <trkpt lat="43.50917" lon="6.38013">
        <ele>243</ele>
        <time>2022-01-21T13:50:42.000Z</time>
      </trkpt>
      <trkpt lat="43.50917" lon="6.38013">
        <ele>243</ele>
        <time>2022-01-21T13:50:43.000Z</time>
      </trkpt>
      <trkpt lat="43.50917" lon="6.38013">
        <ele>243</ele>
        <time>2022-01-21T13:50:44.000Z</time>
      </trkpt>
      <trkpt lat="43.50917" lon="6.38013">
        <ele>243</ele>
        <time>2022-01-21T13:50:45.000Z</time>
      </trkpt>
      <trkpt lat="43.50917" lon="6.38013">
        <ele>243</ele>
        <time>2022-01-21T13:50:46.000Z</time>
      </trkpt>
      <trkpt lat="43.50917" lon="6.38013">
        <ele>243</ele>
        <time>2022-01-21T13:50:47.000Z</time>
      </trkpt>
      <trkpt lat="43.50917" lon="6.38013">
        <ele>243</ele>
        <time>2022-01-21T13:50:48.000Z</time>
      </trkpt>
      <trkpt lat="43.50917" lon="6.38013">
        <ele>243</ele>
        <time>2022-01-21T13:50:49.000Z</time>
      </trkpt>
      <trkpt lat="43.50917" lon="6.38013">
        <ele>243</ele>
        <time>2022-01-21T13:50:50.000Z</time>
      </trkpt>
      <trkpt lat="43.50917" lon="6.38013">
        <ele>243</ele>
        <time>2022-01-21T13:50:51.000Z</time>
      </trkpt>
      <trkpt lat="43.50917" lon="6.38013">
        <ele>243</ele>
        <time>2022-01-21T13:50:52.000Z</time>
      </trkpt>
      <trkpt lat="43.50917" lon="6.38013">
        <ele>243</ele>
        <time>2022-01-21T13:50:53.000Z</time>
      </trkpt>
      <trkpt lat="43.50917" lon="6.38013">
        <ele>243</ele>
        <time>2022-01-21T13:50:54.000Z</time>
      </trkpt>
      <trkpt lat="43.50917" lon="6.38013">
        <ele>243</ele>
        <time>2022-01-21T13:50:55.000Z</time>
      </trkpt>
      <trkpt lat="43.50917" lon="6.38013">
        <ele>243</ele>
        <time>2022-01-21T13:50:56.000Z</time>
      </trkpt>
      <trkpt lat="43.50917" lon="6.38013">
        <ele>243</ele>
        <time>2022-01-21T13:50:57.000Z</time>
      </trkpt>
      <trkpt lat="43.50917" lon="6.38013">
        <ele>243</ele>
        <time>2022-01-21T13:50:58.000Z</time>
      </trkpt>
      <trkpt lat="43.50917" lon="6.38013">
        <ele>243</ele>
        <time>2022-01-21T13:50:59.000Z</time>
      </trkpt>
      <trkpt lat="43.50917" lon="6.38013">
        <ele>243</ele>
        <time>2022-01-21T13:51:00.000Z</time>
      </trkpt>
      <trkpt lat="43.50917" lon="6.38013">
        <ele>243</ele>
        <time>2022-01-21T13:51:01.000Z</time>
      </trkpt>
      <trkpt lat="43.50917" lon="6.38013">
        <ele>243</ele>
        <time>2022-01-21T13:51:02.000Z</time>
      </trkpt>
      <trkpt lat="43.50917" lon="6.38013">
        <ele>243</ele>
        <time>2022-01-21T13:51:03.000Z</time>
      </trkpt>
      <trkpt lat="43.50917" lon="6.38013">
        <ele>243</ele>
        <time>2022-01-21T13:51:04.000Z</time>
      </trkpt>
      <trkpt lat="43.50917" lon="6.38013">
        <ele>243</ele>
        <time>2022-01-21T13:51:05.000Z</time>
      </trkpt>
      <trkpt lat="43.50917" lon="6.38013">
        <ele>243</ele>
        <time>2022-01-21T13:51:06.000Z</time>
      </trkpt>
      <trkpt lat="43.50917" lon="6.38013">
        <ele>243</ele>
        <time>2022-01-21T13:51:07.000Z</time>
      </trkpt>
      <trkpt lat="43.50917" lon="6.38013">
        <ele>243</ele>
        <time>2022-01-21T13:51:08.000Z</time>
      </trkpt>
      <trkpt lat="43.50917" lon="6.38013">
        <ele>243</ele>
        <time>2022-01-21T13:51:09.000Z</time>
      </trkpt>
      <trkpt lat="43.50917" lon="6.38013">
        <ele>243</ele>
        <time>2022-01-21T13:51:10.000Z</time>
      </trkpt>
      <trkpt lat="43.50917" lon="6.38013">
        <ele>243</ele>
        <time>2022-01-21T13:51:11.000Z</time>
      </trkpt>
      <trkpt lat="43.50917" lon="6.38013">
        <ele>243</ele>
        <time>2022-01-21T13:51:12.000Z</time>
      </trkpt>
      <trkpt lat="43.50917" lon="6.38013">
        <ele>243</ele>
        <time>2022-01-21T13:51:13.000Z</time>
      </trkpt>
      <trkpt lat="43.50917" lon="6.38013">
        <ele>243</ele>
        <time>2022-01-21T13:51:14.000Z</time>
      </trkpt>
      <trkpt lat="43.50917" lon="6.38013">
        <ele>243</ele>
        <time>2022-01-21T13:51:15.000Z</time>
      </trkpt>
      <trkpt lat="43.50917" lon="6.38013">
        <ele>243</ele>
        <time>2022-01-21T13:51:16.000Z</time>
      </trkpt>
      <trkpt lat="43.50917" lon="6.38013">
        <ele>243</ele>
        <time>2022-01-21T13:51:17.000Z</time>
      </trkpt>
      <trkpt lat="43.50917" lon="6.38013">
        <ele>243</ele>
        <time>2022-01-21T13:51:18.000Z</time>
      </trkpt>
      <trkpt lat="43.50917" lon="6.38013">
        <ele>243</ele>
        <time>2022-01-21T13:51:19.000Z</time>
      </trkpt>
      <trkpt lat="43.50917" lon="6.38013">
        <ele>243</ele>
        <time>2022-01-21T13:51:20.000Z</time>
      </trkpt>
      <trkpt lat="43.50917" lon="6.38013">
        <ele>243</ele>
        <time>2022-01-21T13:51:21.000Z</time>
      </trkpt>
      <trkpt lat="43.50917" lon="6.38013">
        <ele>243</ele>
        <time>2022-01-21T13:51:22.000Z</time>
      </trkpt>
      <trkpt lat="43.50917" lon="6.38013">
        <ele>243</ele>
        <time>2022-01-21T13:51:23.000Z</time>
      </trkpt>
      <trkpt lat="43.50917" lon="6.38013">
        <ele>243</ele>
        <time>2022-01-21T13:51:24.000Z</time>
      </trkpt>
      <trkpt lat="43.50923" lon="6.38014">
        <ele>243</ele>
        <time>2022-01-21T13:51:25.000Z</time>
      </trkpt>
      <trkpt lat="43.50925" lon="6.38013">
        <ele>244</ele>
        <time>2022-01-21T13:51:26.000Z</time>
      </trkpt>
      <trkpt lat="43.50927" lon="6.38013">
        <ele>244</ele>
        <time>2022-01-21T13:51:27.000Z</time>
      </trkpt>
      <trkpt lat="43.50929" lon="6.38013">
        <ele>244</ele>
        <time>2022-01-21T13:51:28.000Z</time>
      </trkpt>
      <trkpt lat="43.5093" lon="6.38013">
        <ele>244</ele>
        <time>2022-01-21T13:51:29.000Z</time>
      </trkpt>
      <trkpt lat="43.50931" lon="6.38013">
        <ele>244</ele>
        <time>2022-01-21T13:51:30.000Z</time>
      </trkpt>
      <trkpt lat="43.50932" lon="6.38013">
        <ele>244</ele>
        <time>2022-01-21T13:51:31.000Z</time>
      </trkpt>
      <trkpt lat="43.50932" lon="6.38013">
        <ele>245</ele>
        <time>2022-01-21T13:51:32.000Z</time>
      </trkpt>
      <trkpt lat="43.50933" lon="6.38013">
        <ele>245</ele>
        <time>2022-01-21T13:51:33.000Z</time>
      </trkpt>
      <trkpt lat="43.50933" lon="6.38013">
        <ele>245</ele>
        <time>2022-01-21T13:51:34.000Z</time>
      </trkpt>
      <trkpt lat="43.50934" lon="6.38013">
        <ele>245</ele>
        <time>2022-01-21T13:51:35.000Z</time>
      </trkpt>
      <trkpt lat="43.50935" lon="6.38012">
        <ele>245</ele>
        <time>2022-01-21T13:51:36.000Z</time>
      </trkpt>
      <trkpt lat="43.50937" lon="6.38012">
        <ele>245</ele>
        <time>2022-01-21T13:51:37.000Z</time>
      </trkpt>
      <trkpt lat="43.50938" lon="6.38011">
        <ele>245</ele>
        <time>2022-01-21T13:51:38.000Z</time>
      </trkpt>
      <trkpt lat="43.50939" lon="6.38011">
        <ele>245</ele>
        <time>2022-01-21T13:51:39.000Z</time>
      </trkpt>
      <trkpt lat="43.50939" lon="6.38011">
        <ele>245</ele>
        <time>2022-01-21T13:51:40.000Z</time>
      </trkpt>
      <trkpt lat="43.5094" lon="6.3801">
        <ele>245</ele>
        <time>2022-01-21T13:51:41.000Z</time>
      </trkpt>
      <trkpt lat="43.50941" lon="6.3801">
        <ele>246</ele>
        <time>2022-01-21T13:51:42.000Z</time>
      </trkpt>
      <trkpt lat="43.50941" lon="6.3801">
        <ele>247</ele>
        <time>2022-01-21T13:51:43.000Z</time>
      </trkpt>
      <trkpt lat="43.50942" lon="6.3801">
        <ele>247</ele>
        <time>2022-01-21T13:51:44.000Z</time>
      </trkpt>
      <trkpt lat="43.50943" lon="6.38009">
        <ele>247</ele>
        <time>2022-01-21T13:51:45.000Z</time>
      </trkpt>
      <trkpt lat="43.50944" lon="6.38009">
        <ele>248</ele>
        <time>2022-01-21T13:51:46.000Z</time>
      </trkpt>
      <trkpt lat="43.50945" lon="6.38009">
        <ele>248</ele>
        <time>2022-01-21T13:51:47.000Z</time>
      </trkpt>
      <trkpt lat="43.50946" lon="6.38008">
        <ele>248</ele>
        <time>2022-01-21T13:51:48.000Z</time>
      </trkpt>
      <trkpt lat="43.50947" lon="6.38008">
        <ele>248</ele>
        <time>2022-01-21T13:51:49.000Z</time>
      </trkpt>
      <trkpt lat="43.50948" lon="6.38008">
        <ele>248</ele>
        <time>2022-01-21T13:51:50.000Z</time>
      </trkpt>
      <trkpt lat="43.50949" lon="6.38007">
        <ele>248</ele>
        <time>2022-01-21T13:51:51.000Z</time>
      </trkpt>
      <trkpt lat="43.5095" lon="6.38007">
        <ele>248</ele>
        <time>2022-01-21T13:51:52.000Z</time>
      </trkpt>
      <trkpt lat="43.50951" lon="6.38007">
        <ele>249</ele>
        <time>2022-01-21T13:51:53.000Z</time>
      </trkpt>
      <trkpt lat="43.50952" lon="6.38007">
        <ele>249</ele>
        <time>2022-01-21T13:51:54.000Z</time>
      </trkpt>
      <trkpt lat="43.50953" lon="6.38007">
        <ele>249</ele>
        <time>2022-01-21T13:51:55.000Z</time>
      </trkpt>
      <trkpt lat="43.50954" lon="6.38007">
        <ele>249</ele>
        <time>2022-01-21T13:51:56.000Z</time>
      </trkpt>
      <trkpt lat="43.50955" lon="6.38006">
        <ele>249</ele>
        <time>2022-01-21T13:51:57.000Z</time>
      </trkpt>
      <trkpt lat="43.50957" lon="6.38006">
        <ele>249</ele>
        <time>2022-01-21T13:51:58.000Z</time>
      </trkpt>
      <trkpt lat="43.50958" lon="6.38006">
        <ele>249</ele>
        <time>2022-01-21T13:51:59.000Z</time>
      </trkpt>
      <trkpt lat="43.5096" lon="6.38005">
        <ele>250</ele>
        <time>2022-01-21T13:52:00.000Z</time>
      </trkpt>
      <trkpt lat="43.50962" lon="6.38004">
        <ele>250</ele>
        <time>2022-01-21T13:52:01.000Z</time>
      </trkpt>
      <trkpt lat="43.50964" lon="6.38004">
        <ele>250</ele>
        <time>2022-01-21T13:52:02.000Z</time>
      </trkpt>
      <trkpt lat="43.50965" lon="6.38003">
        <ele>250</ele>
        <time>2022-01-21T13:52:03.000Z</time>
      </trkpt>
      <trkpt lat="43.50966" lon="6.38002">
        <ele>250</ele>
        <time>2022-01-21T13:52:04.000Z</time>
      </trkpt>
      <trkpt lat="43.50967" lon="6.38002">
        <ele>250</ele>
        <time>2022-01-21T13:52:05.000Z</time>
      </trkpt>
      <trkpt lat="43.50967" lon="6.38001">
        <ele>250</ele>
        <time>2022-01-21T13:52:06.000Z</time>
      </trkpt>
      <trkpt lat="43.50967" lon="6.38001">
        <ele>250</ele>
        <time>2022-01-21T13:52:07.000Z</time>
      </trkpt>
      <trkpt lat="43.50968" lon="6.38001">
        <ele>250</ele>
        <time>2022-01-21T13:52:08.000Z</time>
      </trkpt>
      <trkpt lat="43.50968" lon="6.38001">
        <ele>250</ele>
        <time>2022-01-21T13:52:09.000Z</time>
      </trkpt>
      <trkpt lat="43.50969" lon="6.38">
        <ele>250</ele>
        <time>2022-01-21T13:52:10.000Z</time>
      </trkpt>
      <trkpt lat="43.5097" lon="6.38">
        <ele>250</ele>
        <time>2022-01-21T13:52:11.000Z</time>
      </trkpt>
      <trkpt lat="43.50971" lon="6.37999">
        <ele>250</ele>
        <time>2022-01-21T13:52:12.000Z</time>
      </trkpt>
      <trkpt lat="43.50973" lon="6.37998">
        <ele>250</ele>
        <time>2022-01-21T13:52:13.000Z</time>
      </trkpt>
      <trkpt lat="43.50976" lon="6.37997">
        <ele>251</ele>
        <time>2022-01-21T13:52:14.000Z</time>
      </trkpt>
      <trkpt lat="43.50978" lon="6.37996">
        <ele>251</ele>
        <time>2022-01-21T13:52:15.000Z</time>
      </trkpt>
      <trkpt lat="43.50979" lon="6.37996">
        <ele>251</ele>
        <time>2022-01-21T13:52:16.000Z</time>
      </trkpt>
      <trkpt lat="43.50979" lon="6.37995">
        <ele>251</ele>
        <time>2022-01-21T13:52:17.000Z</time>
      </trkpt>
      <trkpt lat="43.5098" lon="6.37995">
        <ele>251</ele>
        <time>2022-01-21T13:52:18.000Z</time>
      </trkpt>
      <trkpt lat="43.5098" lon="6.37995">
        <ele>251</ele>
        <time>2022-01-21T13:52:19.000Z</time>
      </trkpt>
      <trkpt lat="43.5098" lon="6.37995">
        <ele>251</ele>
        <time>2022-01-21T13:52:20.000Z</time>
      </trkpt>
      <trkpt lat="43.50981" lon="6.37995">
        <ele>251</ele>
        <time>2022-01-21T13:52:21.000Z</time>
      </trkpt>
      <trkpt lat="43.50981" lon="6.37995">
        <ele>251</ele>
        <time>2022-01-21T13:52:22.000Z</time>
      </trkpt>
      <trkpt lat="43.50982" lon="6.37995">
        <ele>251</ele>
        <time>2022-01-21T13:52:23.000Z</time>
      </trkpt>
      <trkpt lat="43.50982" lon="6.37995">
        <ele>251</ele>
        <time>2022-01-21T13:52:24.000Z</time>
      </trkpt>
      <trkpt lat="43.50983" lon="6.37995">
        <ele>250</ele>
        <time>2022-01-21T13:52:25.000Z</time>
      </trkpt>
      <trkpt lat="43.50983" lon="6.37995">
        <ele>250</ele>
        <time>2022-01-21T13:52:26.000Z</time>
      </trkpt>
      <trkpt lat="43.50984" lon="6.37995">
        <ele>250</ele>
        <time>2022-01-21T13:52:27.000Z</time>
      </trkpt>
      <trkpt lat="43.50985" lon="6.37996">
        <ele>250</ele>
        <time>2022-01-21T13:52:28.000Z</time>
      </trkpt>
      <trkpt lat="43.50986" lon="6.37996">
        <ele>250</ele>
        <time>2022-01-21T13:52:29.000Z</time>
      </trkpt>
      <trkpt lat="43.50988" lon="6.37996">
        <ele>250</ele>
        <time>2022-01-21T13:52:30.000Z</time>
      </trkpt>
      <trkpt lat="43.50989" lon="6.37997">
        <ele>250</ele>
        <time>2022-01-21T13:52:31.000Z</time>
      </trkpt>
      <trkpt lat="43.50991" lon="6.37998">
        <ele>251</ele>
        <time>2022-01-21T13:52:32.000Z</time>
      </trkpt>
      <trkpt lat="43.50993" lon="6.37998">
        <ele>251</ele>
        <time>2022-01-21T13:52:33.000Z</time>
      </trkpt>
      <trkpt lat="43.50994" lon="6.37998">
        <ele>251</ele>
        <time>2022-01-21T13:52:34.000Z</time>
      </trkpt>
      <trkpt lat="43.50995" lon="6.37998">
        <ele>251</ele>
        <time>2022-01-21T13:52:35.000Z</time>
      </trkpt>
      <trkpt lat="43.50995" lon="6.37998">
        <ele>251</ele>
        <time>2022-01-21T13:52:36.000Z</time>
      </trkpt>
      <trkpt lat="43.50995" lon="6.37998">
        <ele>251</ele>
        <time>2022-01-21T13:52:37.000Z</time>
      </trkpt>
      <trkpt lat="43.50995" lon="6.37998">
        <ele>251</ele>
        <time>2022-01-21T13:52:38.000Z</time>
      </trkpt>
      <trkpt lat="43.50995" lon="6.37998">
        <ele>251</ele>
        <time>2022-01-21T13:52:39.000Z</time>
      </trkpt>
      <trkpt lat="43.50996" lon="6.37998">
        <ele>251</ele>
        <time>2022-01-21T13:52:40.000Z</time>
      </trkpt>
      <trkpt lat="43.50996" lon="6.37998">
        <ele>250</ele>
        <time>2022-01-21T13:52:41.000Z</time>
      </trkpt>
      <trkpt lat="43.50997" lon="6.37999">
        <ele>250</ele>
        <time>2022-01-21T13:52:42.000Z</time>
      </trkpt>
      <trkpt lat="43.50998" lon="6.37999">
        <ele>250</ele>
        <time>2022-01-21T13:52:43.000Z</time>
      </trkpt>
      <trkpt lat="43.50999" lon="6.37999">
        <ele>250</ele>
        <time>2022-01-21T13:52:44.000Z</time>
      </trkpt>
      <trkpt lat="43.51001" lon="6.37999">
        <ele>250</ele>
        <time>2022-01-21T13:52:45.000Z</time>
      </trkpt>
      <trkpt lat="43.51002" lon="6.37999">
        <ele>250</ele>
        <time>2022-01-21T13:52:46.000Z</time>
      </trkpt>
      <trkpt lat="43.51003" lon="6.38">
        <ele>250</ele>
        <time>2022-01-21T13:52:47.000Z</time>
      </trkpt>
      <trkpt lat="43.51004" lon="6.38">
        <ele>250</ele>
        <time>2022-01-21T13:52:48.000Z</time>
      </trkpt>
      <trkpt lat="43.51005" lon="6.38">
        <ele>250</ele>
        <time>2022-01-21T13:52:49.000Z</time>
      </trkpt>
      <trkpt lat="43.51007" lon="6.38">
        <ele>250</ele>
        <time>2022-01-21T13:52:50.000Z</time>
      </trkpt>
      <trkpt lat="43.5101" lon="6.38001">
        <ele>250</ele>
        <time>2022-01-21T13:52:51.000Z</time>
      </trkpt>
      <trkpt lat="43.51012" lon="6.38001">
        <ele>249</ele>
        <time>2022-01-21T13:52:52.000Z</time>
      </trkpt>
      <trkpt lat="43.51014" lon="6.38001">
        <ele>249</ele>
        <time>2022-01-21T13:52:53.000Z</time>
      </trkpt>
      <trkpt lat="43.51016" lon="6.38001">
        <ele>249</ele>
        <time>2022-01-21T13:52:54.000Z</time>
      </trkpt>
      <trkpt lat="43.51018" lon="6.38002">
        <ele>248</ele>
        <time>2022-01-21T13:52:55.000Z</time>
      </trkpt>
      <trkpt lat="43.51019" lon="6.38002">
        <ele>248</ele>
        <time>2022-01-21T13:52:56.000Z</time>
      </trkpt>
      <trkpt lat="43.5102" lon="6.38002">
        <ele>248</ele>
        <time>2022-01-21T13:52:57.000Z</time>
      </trkpt>
      <trkpt lat="43.51022" lon="6.38002">
        <ele>248</ele>
        <time>2022-01-21T13:52:58.000Z</time>
      </trkpt>
      <trkpt lat="43.51023" lon="6.38002">
        <ele>248</ele>
        <time>2022-01-21T13:52:59.000Z</time>
      </trkpt>
      <trkpt lat="43.51024" lon="6.38002">
        <ele>248</ele>
        <time>2022-01-21T13:53:00.000Z</time>
      </trkpt>
      <trkpt lat="43.51025" lon="6.38002">
        <ele>248</ele>
        <time>2022-01-21T13:53:01.000Z</time>
      </trkpt>
      <trkpt lat="43.51026" lon="6.38003">
        <ele>248</ele>
        <time>2022-01-21T13:53:02.000Z</time>
      </trkpt>
      <trkpt lat="43.51027" lon="6.38003">
        <ele>248</ele>
        <time>2022-01-21T13:53:03.000Z</time>
      </trkpt>
      <trkpt lat="43.51028" lon="6.38003">
        <ele>248</ele>
        <time>2022-01-21T13:53:04.000Z</time>
      </trkpt>
      <trkpt lat="43.51029" lon="6.38003">
        <ele>248</ele>
        <time>2022-01-21T13:53:05.000Z</time>
      </trkpt>
      <trkpt lat="43.5103" lon="6.38003">
        <ele>248</ele>
        <time>2022-01-21T13:53:06.000Z</time>
      </trkpt>
      <trkpt lat="43.5103" lon="6.38003">
        <ele>248</ele>
        <time>2022-01-21T13:53:07.000Z</time>
      </trkpt>
      <trkpt lat="43.51031" lon="6.38003">
        <ele>248</ele>
        <time>2022-01-21T13:53:08.000Z</time>
      </trkpt>
      <trkpt lat="43.51032" lon="6.38004">
        <ele>248</ele>
        <time>2022-01-21T13:53:09.000Z</time>
      </trkpt>
      <trkpt lat="43.51033" lon="6.38004">
        <ele>249</ele>
        <time>2022-01-21T13:53:10.000Z</time>
      </trkpt>
      <trkpt lat="43.51034" lon="6.38004">
        <ele>249</ele>
        <time>2022-01-21T13:53:11.000Z</time>
      </trkpt>
      <trkpt lat="43.51035" lon="6.38004">
        <ele>249</ele>
        <time>2022-01-21T13:53:12.000Z</time>
      </trkpt>
      <trkpt lat="43.51036" lon="6.38004">
        <ele>249</ele>
        <time>2022-01-21T13:53:13.000Z</time>
      </trkpt>
      <trkpt lat="43.51037" lon="6.38005">
        <ele>249</ele>
        <time>2022-01-21T13:53:14.000Z</time>
      </trkpt>
      <trkpt lat="43.51038" lon="6.38005">
        <ele>249</ele>
        <time>2022-01-21T13:53:15.000Z</time>
      </trkpt>
      <trkpt lat="43.51039" lon="6.38005">
        <ele>249</ele>
        <time>2022-01-21T13:53:16.000Z</time>
      </trkpt>
      <trkpt lat="43.5104" lon="6.38005">
        <ele>249</ele>
        <time>2022-01-21T13:53:17.000Z</time>
      </trkpt>
      <trkpt lat="43.5104" lon="6.38005">
        <ele>249</ele>
        <time>2022-01-21T13:53:18.000Z</time>
      </trkpt>
      <trkpt lat="43.51041" lon="6.38006">
        <ele>249</ele>
        <time>2022-01-21T13:53:19.000Z</time>
      </trkpt>
      <trkpt lat="43.51042" lon="6.38006">
        <ele>249</ele>
        <time>2022-01-21T13:53:20.000Z</time>
      </trkpt>
      <trkpt lat="43.51043" lon="6.38007">
        <ele>250</ele>
        <time>2022-01-21T13:53:21.000Z</time>
      </trkpt>
      <trkpt lat="43.51044" lon="6.38007">
        <ele>250</ele>
        <time>2022-01-21T13:53:22.000Z</time>
      </trkpt>
      <trkpt lat="43.51045" lon="6.38007">
        <ele>250</ele>
        <time>2022-01-21T13:53:23.000Z</time>
      </trkpt>
      <trkpt lat="43.51046" lon="6.38007">
        <ele>250</ele>
        <time>2022-01-21T13:53:24.000Z</time>
      </trkpt>
      <trkpt lat="43.51047" lon="6.38007">
        <ele>250</ele>
        <time>2022-01-21T13:53:25.000Z</time>
      </trkpt>
      <trkpt lat="43.51048" lon="6.38007">
        <ele>250</ele>
        <time>2022-01-21T13:53:26.000Z</time>
      </trkpt>
      <trkpt lat="43.51049" lon="6.38008">
        <ele>250</ele>
        <time>2022-01-21T13:53:27.000Z</time>
      </trkpt>
      <trkpt lat="43.5105" lon="6.38008">
        <ele>250</ele>
        <time>2022-01-21T13:53:28.000Z</time>
      </trkpt>
      <trkpt lat="43.51051" lon="6.38008">
        <ele>250</ele>
        <time>2022-01-21T13:53:29.000Z</time>
      </trkpt>
      <trkpt lat="43.51052" lon="6.38009">
        <ele>250</ele>
        <time>2022-01-21T13:53:30.000Z</time>
      </trkpt>
      <trkpt lat="43.51053" lon="6.38009">
        <ele>250</ele>
        <time>2022-01-21T13:53:31.000Z</time>
      </trkpt>
      <trkpt lat="43.51054" lon="6.3801">
        <ele>250</ele>
        <time>2022-01-21T13:53:32.000Z</time>
      </trkpt>
      <trkpt lat="43.51055" lon="6.38011">
        <ele>250</ele>
        <time>2022-01-21T13:53:33.000Z</time>
      </trkpt>
      <trkpt lat="43.51056" lon="6.38011">
        <ele>250</ele>
        <time>2022-01-21T13:53:34.000Z</time>
      </trkpt>
      <trkpt lat="43.51057" lon="6.38011">
        <ele>251</ele>
        <time>2022-01-21T13:53:35.000Z</time>
      </trkpt>
      <trkpt lat="43.51058" lon="6.38011">
        <ele>251</ele>
        <time>2022-01-21T13:53:36.000Z</time>
      </trkpt>
      <trkpt lat="43.51059" lon="6.38011">
        <ele>251</ele>
        <time>2022-01-21T13:53:37.000Z</time>
      </trkpt>
      <trkpt lat="43.5106" lon="6.38011">
        <ele>251</ele>
        <time>2022-01-21T13:53:38.000Z</time>
      </trkpt>
      <trkpt lat="43.51061" lon="6.38011">
        <ele>251</ele>
        <time>2022-01-21T13:53:39.000Z</time>
      </trkpt>
      <trkpt lat="43.51062" lon="6.38012">
        <ele>251</ele>
        <time>2022-01-21T13:53:40.000Z</time>
      </trkpt>
      <trkpt lat="43.51063" lon="6.38011">
        <ele>251</ele>
        <time>2022-01-21T13:53:41.000Z</time>
      </trkpt>
      <trkpt lat="43.51064" lon="6.38011">
        <ele>251</ele>
        <time>2022-01-21T13:53:42.000Z</time>
      </trkpt>
      <trkpt lat="43.51065" lon="6.38011">
        <ele>251</ele>
        <time>2022-01-21T13:53:43.000Z</time>
      </trkpt>
      <trkpt lat="43.51066" lon="6.38011">
        <ele>251</ele>
        <time>2022-01-21T13:53:44.000Z</time>
      </trkpt>
      <trkpt lat="43.51066" lon="6.38011">
        <ele>251</ele>
        <time>2022-01-21T13:53:45.000Z</time>
      </trkpt>
      <trkpt lat="43.51067" lon="6.38011">
        <ele>251</ele>
        <time>2022-01-21T13:53:46.000Z</time>
      </trkpt>
      <trkpt lat="43.51068" lon="6.38011">
        <ele>251</ele>
        <time>2022-01-21T13:53:47.000Z</time>
      </trkpt>
      <trkpt lat="43.51068" lon="6.38011">
        <ele>251</ele>
        <time>2022-01-21T13:53:48.000Z</time>
      </trkpt>
      <trkpt lat="43.51069" lon="6.38012">
        <ele>251</ele>
        <time>2022-01-21T13:53:49.000Z</time>
      </trkpt>
      <trkpt lat="43.5107" lon="6.38012">
        <ele>251</ele>
        <time>2022-01-21T13:53:50.000Z</time>
      </trkpt>
      <trkpt lat="43.5107" lon="6.38013">
        <ele>251</ele>
        <time>2022-01-21T13:53:51.000Z</time>
      </trkpt>
      <trkpt lat="43.51071" lon="6.38013">
        <ele>251</ele>
        <time>2022-01-21T13:53:52.000Z</time>
      </trkpt>
      <trkpt lat="43.51072" lon="6.38014">
        <ele>251</ele>
        <time>2022-01-21T13:53:53.000Z</time>
      </trkpt>
      <trkpt lat="43.51073" lon="6.38014">
        <ele>251</ele>
        <time>2022-01-21T13:53:54.000Z</time>
      </trkpt>
      <trkpt lat="43.51074" lon="6.38014">
        <ele>251</ele>
        <time>2022-01-21T13:53:55.000Z</time>
      </trkpt>
      <trkpt lat="43.51074" lon="6.38015">
        <ele>251</ele>
        <time>2022-01-21T13:53:56.000Z</time>
      </trkpt>
      <trkpt lat="43.51075" lon="6.38015">
        <ele>251</ele>
        <time>2022-01-21T13:53:57.000Z</time>
      </trkpt>
      <trkpt lat="43.51076" lon="6.38015">
        <ele>250</ele>
        <time>2022-01-21T13:53:58.000Z</time>
      </trkpt>
      <trkpt lat="43.51076" lon="6.38015">
        <ele>250</ele>
        <time>2022-01-21T13:53:59.000Z</time>
      </trkpt>
      <trkpt lat="43.51077" lon="6.38015">
        <ele>250</ele>
        <time>2022-01-21T13:54:00.000Z</time>
      </trkpt>
      <trkpt lat="43.51078" lon="6.38015">
        <ele>250</ele>
        <time>2022-01-21T13:54:01.000Z</time>
      </trkpt>
      <trkpt lat="43.51079" lon="6.38016">
        <ele>250</ele>
        <time>2022-01-21T13:54:02.000Z</time>
      </trkpt>
      <trkpt lat="43.51079" lon="6.38016">
        <ele>249</ele>
        <time>2022-01-21T13:54:03.000Z</time>
      </trkpt>
      <trkpt lat="43.5108" lon="6.38016">
        <ele>249</ele>
        <time>2022-01-21T13:54:04.000Z</time>
      </trkpt>
      <trkpt lat="43.51081" lon="6.38017">
        <ele>249</ele>
        <time>2022-01-21T13:54:05.000Z</time>
      </trkpt>
      <trkpt lat="43.51082" lon="6.38017">
        <ele>249</ele>
        <time>2022-01-21T13:54:06.000Z</time>
      </trkpt>
      <trkpt lat="43.51083" lon="6.38017">
        <ele>249</ele>
        <time>2022-01-21T13:54:07.000Z</time>
      </trkpt>
      <trkpt lat="43.51084" lon="6.38017">
        <ele>248</ele>
        <time>2022-01-21T13:54:08.000Z</time>
      </trkpt>
      <trkpt lat="43.51085" lon="6.38017">
        <ele>248</ele>
        <time>2022-01-21T13:54:09.000Z</time>
      </trkpt>
      <trkpt lat="43.51085" lon="6.38018">
        <ele>248</ele>
        <time>2022-01-21T13:54:10.000Z</time>
      </trkpt>
      <trkpt lat="43.51086" lon="6.38018">
        <ele>248</ele>
        <time>2022-01-21T13:54:11.000Z</time>
      </trkpt>
      <trkpt lat="43.51087" lon="6.38018">
        <ele>248</ele>
        <time>2022-01-21T13:54:12.000Z</time>
      </trkpt>
      <trkpt lat="43.51087" lon="6.38018">
        <ele>248</ele>
        <time>2022-01-21T13:54:13.000Z</time>
      </trkpt>
      <trkpt lat="43.51088" lon="6.38018">
        <ele>248</ele>
        <time>2022-01-21T13:54:14.000Z</time>
      </trkpt>
      <trkpt lat="43.51088" lon="6.38018">
        <ele>248</ele>
        <time>2022-01-21T13:54:15.000Z</time>
      </trkpt>
      <trkpt lat="43.51089" lon="6.38018">
        <ele>248</ele>
        <time>2022-01-21T13:54:16.000Z</time>
      </trkpt>
      <trkpt lat="43.5109" lon="6.38018">
        <ele>248</ele>
        <time>2022-01-21T13:54:17.000Z</time>
      </trkpt>
      <trkpt lat="43.5109" lon="6.38018">
        <ele>248</ele>
        <time>2022-01-21T13:54:18.000Z</time>
      </trkpt>
      <trkpt lat="43.51091" lon="6.38018">
        <ele>247</ele>
        <time>2022-01-21T13:54:19.000Z</time>
      </trkpt>
      <trkpt lat="43.51091" lon="6.38019">
        <ele>247</ele>
        <time>2022-01-21T13:54:20.000Z</time>
      </trkpt>
      <trkpt lat="43.51092" lon="6.38019">
        <ele>247</ele>
        <time>2022-01-21T13:54:21.000Z</time>
      </trkpt>
      <trkpt lat="43.51093" lon="6.38019">
        <ele>247</ele>
        <time>2022-01-21T13:54:22.000Z</time>
      </trkpt>
      <trkpt lat="43.51093" lon="6.3802">
        <ele>246</ele>
        <time>2022-01-21T13:54:23.000Z</time>
      </trkpt>
      <trkpt lat="43.51094" lon="6.3802">
        <ele>246</ele>
        <time>2022-01-21T13:54:24.000Z</time>
      </trkpt>
      <trkpt lat="43.51095" lon="6.3802">
        <ele>246</ele>
        <time>2022-01-21T13:54:25.000Z</time>
      </trkpt>
      <trkpt lat="43.51096" lon="6.3802">
        <ele>246</ele>
        <time>2022-01-21T13:54:26.000Z</time>
      </trkpt>
      <trkpt lat="43.51097" lon="6.3802">
        <ele>246</ele>
        <time>2022-01-21T13:54:27.000Z</time>
      </trkpt>
      <trkpt lat="43.51097" lon="6.3802">
        <ele>246</ele>
        <time>2022-01-21T13:54:28.000Z</time>
      </trkpt>
      <trkpt lat="43.51098" lon="6.3802">
        <ele>246</ele>
        <time>2022-01-21T13:54:29.000Z</time>
      </trkpt>
      <trkpt lat="43.51098" lon="6.3802">
        <ele>246</ele>
        <time>2022-01-21T13:54:30.000Z</time>
      </trkpt>
      <trkpt lat="43.51099" lon="6.3802">
        <ele>246</ele>
        <time>2022-01-21T13:54:31.000Z</time>
      </trkpt>
      <trkpt lat="43.511" lon="6.3802">
        <ele>246</ele>
        <time>2022-01-21T13:54:32.000Z</time>
      </trkpt>
      <trkpt lat="43.511" lon="6.3802">
        <ele>246</ele>
        <time>2022-01-21T13:54:33.000Z</time>
      </trkpt>
      <trkpt lat="43.51101" lon="6.38019">
        <ele>246</ele>
        <time>2022-01-21T13:54:34.000Z</time>
      </trkpt>
      <trkpt lat="43.51102" lon="6.38019">
        <ele>246</ele>
        <time>2022-01-21T13:54:35.000Z</time>
      </trkpt>
      <trkpt lat="43.51103" lon="6.38019">
        <ele>246</ele>
        <time>2022-01-21T13:54:36.000Z</time>
      </trkpt>
      <trkpt lat="43.51104" lon="6.3802">
        <ele>246</ele>
        <time>2022-01-21T13:54:37.000Z</time>
      </trkpt>
      <trkpt lat="43.51104" lon="6.3802">
        <ele>246</ele>
        <time>2022-01-21T13:54:38.000Z</time>
      </trkpt>
      <trkpt lat="43.51105" lon="6.38021">
        <ele>246</ele>
        <time>2022-01-21T13:54:39.000Z</time>
      </trkpt>
      <trkpt lat="43.51105" lon="6.38022">
        <ele>246</ele>
        <time>2022-01-21T13:54:40.000Z</time>
      </trkpt>
      <trkpt lat="43.51105" lon="6.38023">
        <ele>246</ele>
        <time>2022-01-21T13:54:41.000Z</time>
      </trkpt>
      <trkpt lat="43.51105" lon="6.38024">
        <ele>246</ele>
        <time>2022-01-21T13:54:42.000Z</time>
      </trkpt>
      <trkpt lat="43.51104" lon="6.38025">
        <ele>246</ele>
        <time>2022-01-21T13:54:43.000Z</time>
      </trkpt>
      <trkpt lat="43.51104" lon="6.38025">
        <ele>246</ele>
        <time>2022-01-21T13:54:44.000Z</time>
      </trkpt>
      <trkpt lat="43.51104" lon="6.38026">
        <ele>246</ele>
        <time>2022-01-21T13:54:45.000Z</time>
      </trkpt>
      <trkpt lat="43.51104" lon="6.38026">
        <ele>246</ele>
        <time>2022-01-21T13:54:46.000Z</time>
      </trkpt>
      <trkpt lat="43.51105" lon="6.38026">
        <ele>246</ele>
        <time>2022-01-21T13:54:47.000Z</time>
      </trkpt>
      <trkpt lat="43.51105" lon="6.38026">
        <ele>246</ele>
        <time>2022-01-21T13:54:48.000Z</time>
      </trkpt>
      <trkpt lat="43.51106" lon="6.38025">
        <ele>246</ele>
        <time>2022-01-21T13:54:49.000Z</time>
      </trkpt>
      <trkpt lat="43.51107" lon="6.38025">
        <ele>246</ele>
        <time>2022-01-21T13:54:50.000Z</time>
      </trkpt>
      <trkpt lat="43.51109" lon="6.38025">
        <ele>245</ele>
        <time>2022-01-21T13:54:51.000Z</time>
      </trkpt>
      <trkpt lat="43.5111" lon="6.38025">
        <ele>245</ele>
        <time>2022-01-21T13:54:52.000Z</time>
      </trkpt>
      <trkpt lat="43.51111" lon="6.38025">
        <ele>245</ele>
        <time>2022-01-21T13:54:53.000Z</time>
      </trkpt>
      <trkpt lat="43.51111" lon="6.38025">
        <ele>245</ele>
        <time>2022-01-21T13:54:54.000Z</time>
      </trkpt>
      <trkpt lat="43.51112" lon="6.38025">
        <ele>245</ele>
        <time>2022-01-21T13:54:55.000Z</time>
      </trkpt>
      <trkpt lat="43.51113" lon="6.38025">
        <ele>245</ele>
        <time>2022-01-21T13:54:56.000Z</time>
      </trkpt>
      <trkpt lat="43.51113" lon="6.38025">
        <ele>245</ele>
        <time>2022-01-21T13:54:57.000Z</time>
      </trkpt>
      <trkpt lat="43.51114" lon="6.38024">
        <ele>245</ele>
        <time>2022-01-21T13:54:58.000Z</time>
      </trkpt>
      <trkpt lat="43.51116" lon="6.38023">
        <ele>245</ele>
        <time>2022-01-21T13:54:59.000Z</time>
      </trkpt>
      <trkpt lat="43.51118" lon="6.38023">
        <ele>245</ele>
        <time>2022-01-21T13:55:00.000Z</time>
      </trkpt>
      <trkpt lat="43.51118" lon="6.38022">
        <ele>244</ele>
        <time>2022-01-21T13:55:01.000Z</time>
      </trkpt>
      <trkpt lat="43.51119" lon="6.38022">
        <ele>244</ele>
        <time>2022-01-21T13:55:02.000Z</time>
      </trkpt>
      <trkpt lat="43.5112" lon="6.38021">
        <ele>244</ele>
        <time>2022-01-21T13:55:03.000Z</time>
      </trkpt>
      <trkpt lat="43.5112" lon="6.38021">
        <ele>243</ele>
        <time>2022-01-21T13:55:04.000Z</time>
      </trkpt>
      <trkpt lat="43.51121" lon="6.3802">
        <ele>243</ele>
        <time>2022-01-21T13:55:05.000Z</time>
      </trkpt>
      <trkpt lat="43.51123" lon="6.3802">
        <ele>243</ele>
        <time>2022-01-21T13:55:06.000Z</time>
      </trkpt>
      <trkpt lat="43.51125" lon="6.38018">
        <ele>243</ele>
        <time>2022-01-21T13:55:07.000Z</time>
      </trkpt>
      <trkpt lat="43.51128" lon="6.38017">
        <ele>242</ele>
        <time>2022-01-21T13:55:08.000Z</time>
      </trkpt>
      <trkpt lat="43.51129" lon="6.38015">
        <ele>242</ele>
        <time>2022-01-21T13:55:09.000Z</time>
      </trkpt>
      <trkpt lat="43.5113" lon="6.38014">
        <ele>242</ele>
        <time>2022-01-21T13:55:10.000Z</time>
      </trkpt>
      <trkpt lat="43.51132" lon="6.38014">
        <ele>242</ele>
        <time>2022-01-21T13:55:11.000Z</time>
      </trkpt>
      <trkpt lat="43.51133" lon="6.38012">
        <ele>242</ele>
        <time>2022-01-21T13:55:12.000Z</time>
      </trkpt>
      <trkpt lat="43.51135" lon="6.38011">
        <ele>242</ele>
        <time>2022-01-21T13:55:13.000Z</time>
      </trkpt>
      <trkpt lat="43.51136" lon="6.3801">
        <ele>242</ele>
        <time>2022-01-21T13:55:14.000Z</time>
      </trkpt>
      <trkpt lat="43.51137" lon="6.38009">
        <ele>242</ele>
        <time>2022-01-21T13:55:15.000Z</time>
      </trkpt>
      <trkpt lat="43.51138" lon="6.38008">
        <ele>241</ele>
        <time>2022-01-21T13:55:16.000Z</time>
      </trkpt>
      <trkpt lat="43.51139" lon="6.38007">
        <ele>241</ele>
        <time>2022-01-21T13:55:17.000Z</time>
      </trkpt>
      <trkpt lat="43.51139" lon="6.38007">
        <ele>241</ele>
        <time>2022-01-21T13:55:18.000Z</time>
      </trkpt>
      <trkpt lat="43.51139" lon="6.38007">
        <ele>241</ele>
        <time>2022-01-21T13:55:19.000Z</time>
      </trkpt>
      <trkpt lat="43.51139" lon="6.38007">
        <ele>241</ele>
        <time>2022-01-21T13:55:20.000Z</time>
      </trkpt>
      <trkpt lat="43.5114" lon="6.38006">
        <ele>241</ele>
        <time>2022-01-21T13:55:21.000Z</time>
      </trkpt>
      <trkpt lat="43.5114" lon="6.38006">
        <ele>241</ele>
        <time>2022-01-21T13:55:22.000Z</time>
      </trkpt>
      <trkpt lat="43.5114" lon="6.38006">
        <ele>241</ele>
        <time>2022-01-21T13:55:23.000Z</time>
      </trkpt>
      <trkpt lat="43.5114" lon="6.38006">
        <ele>241</ele>
        <time>2022-01-21T13:55:24.000Z</time>
      </trkpt>
      <trkpt lat="43.5114" lon="6.38006">
        <ele>241</ele>
        <time>2022-01-21T13:55:25.000Z</time>
      </trkpt>
      <trkpt lat="43.5114" lon="6.38006">
        <ele>241</ele>
        <time>2022-01-21T13:55:26.000Z</time>
      </trkpt>
      <trkpt lat="43.51141" lon="6.38006">
        <ele>241</ele>
        <time>2022-01-21T13:55:27.000Z</time>
      </trkpt>
      <trkpt lat="43.51141" lon="6.38005">
        <ele>241</ele>
        <time>2022-01-21T13:55:28.000Z</time>
      </trkpt>
      <trkpt lat="43.51142" lon="6.38004">
        <ele>241</ele>
        <time>2022-01-21T13:55:29.000Z</time>
      </trkpt>
      <trkpt lat="43.51143" lon="6.38003">
        <ele>241</ele>
        <time>2022-01-21T13:55:30.000Z</time>
      </trkpt>
      <trkpt lat="43.51144" lon="6.38002">
        <ele>242</ele>
        <time>2022-01-21T13:55:31.000Z</time>
      </trkpt>
      <trkpt lat="43.51145" lon="6.38002">
        <ele>242</ele>
        <time>2022-01-21T13:55:32.000Z</time>
      </trkpt>
      <trkpt lat="43.51145" lon="6.38001">
        <ele>242</ele>
        <time>2022-01-21T13:55:33.000Z</time>
      </trkpt>
      <trkpt lat="43.51145" lon="6.38001">
        <ele>242</ele>
        <time>2022-01-21T13:55:34.000Z</time>
      </trkpt>
      <trkpt lat="43.51146" lon="6.38">
        <ele>242</ele>
        <time>2022-01-21T13:55:35.000Z</time>
      </trkpt>
      <trkpt lat="43.51146" lon="6.38">
        <ele>242</ele>
        <time>2022-01-21T13:55:36.000Z</time>
      </trkpt>
      <trkpt lat="43.51147" lon="6.37999">
        <ele>242</ele>
        <time>2022-01-21T13:55:37.000Z</time>
      </trkpt>
      <trkpt lat="43.51148" lon="6.37998">
        <ele>242</ele>
        <time>2022-01-21T13:55:38.000Z</time>
      </trkpt>
      <trkpt lat="43.51148" lon="6.37998">
        <ele>242</ele>
        <time>2022-01-21T13:55:39.000Z</time>
      </trkpt>
      <trkpt lat="43.51149" lon="6.37997">
        <ele>242</ele>
        <time>2022-01-21T13:55:40.000Z</time>
      </trkpt>
      <trkpt lat="43.5115" lon="6.37996">
        <ele>242</ele>
        <time>2022-01-21T13:55:41.000Z</time>
      </trkpt>
      <trkpt lat="43.5115" lon="6.37995">
        <ele>242</ele>
        <time>2022-01-21T13:55:42.000Z</time>
      </trkpt>
      <trkpt lat="43.51151" lon="6.37994">
        <ele>241</ele>
        <time>2022-01-21T13:55:43.000Z</time>
      </trkpt>
      <trkpt lat="43.51152" lon="6.37993">
        <ele>241</ele>
        <time>2022-01-21T13:55:44.000Z</time>
      </trkpt>
      <trkpt lat="43.51153" lon="6.37991">
        <ele>241</ele>
        <time>2022-01-21T13:55:45.000Z</time>
      </trkpt>
      <trkpt lat="43.51153" lon="6.3799">
        <ele>241</ele>
        <time>2022-01-21T13:55:46.000Z</time>
      </trkpt>
      <trkpt lat="43.51154" lon="6.37988">
        <ele>240</ele>
        <time>2022-01-21T13:55:47.000Z</time>
      </trkpt>
      <trkpt lat="43.51155" lon="6.37986">
        <ele>240</ele>
        <time>2022-01-21T13:55:48.000Z</time>
      </trkpt>
      <trkpt lat="43.51157" lon="6.37983">
        <ele>239</ele>
        <time>2022-01-21T13:55:49.000Z</time>
      </trkpt>
      <trkpt lat="43.51158" lon="6.37981">
        <ele>239</ele>
        <time>2022-01-21T13:55:50.000Z</time>
      </trkpt>
      <trkpt lat="43.51158" lon="6.3798">
        <ele>238</ele>
        <time>2022-01-21T13:55:51.000Z</time>
      </trkpt>
      <trkpt lat="43.51159" lon="6.37979">
        <ele>238</ele>
        <time>2022-01-21T13:55:52.000Z</time>
      </trkpt>
      <trkpt lat="43.5116" lon="6.37978">
        <ele>238</ele>
        <time>2022-01-21T13:55:53.000Z</time>
      </trkpt>
      <trkpt lat="43.5116" lon="6.37977">
        <ele>238</ele>
        <time>2022-01-21T13:55:54.000Z</time>
      </trkpt>
      <trkpt lat="43.5116" lon="6.37976">
        <ele>238</ele>
        <time>2022-01-21T13:55:55.000Z</time>
      </trkpt>
      <trkpt lat="43.51161" lon="6.37975">
        <ele>237</ele>
        <time>2022-01-21T13:55:56.000Z</time>
      </trkpt>
      <trkpt lat="43.51161" lon="6.37974">
        <ele>237</ele>
        <time>2022-01-21T13:55:57.000Z</time>
      </trkpt>
      <trkpt lat="43.51162" lon="6.37972">
        <ele>237</ele>
        <time>2022-01-21T13:55:58.000Z</time>
      </trkpt>
      <trkpt lat="43.51163" lon="6.37971">
        <ele>236</ele>
        <time>2022-01-21T13:55:59.000Z</time>
      </trkpt>
      <trkpt lat="43.51163" lon="6.3797">
        <ele>236</ele>
        <time>2022-01-21T13:56:00.000Z</time>
      </trkpt>
      <trkpt lat="43.51164" lon="6.37969">
        <ele>236</ele>
        <time>2022-01-21T13:56:01.000Z</time>
      </trkpt>
      <trkpt lat="43.51164" lon="6.37967">
        <ele>236</ele>
        <time>2022-01-21T13:56:02.000Z</time>
      </trkpt>
      <trkpt lat="43.51165" lon="6.37966">
        <ele>236</ele>
        <time>2022-01-21T13:56:03.000Z</time>
      </trkpt>
      <trkpt lat="43.51166" lon="6.37964">
        <ele>236</ele>
        <time>2022-01-21T13:56:04.000Z</time>
      </trkpt>
      <trkpt lat="43.51166" lon="6.37963">
        <ele>235</ele>
        <time>2022-01-21T13:56:05.000Z</time>
      </trkpt>
      <trkpt lat="43.51167" lon="6.37962">
        <ele>235</ele>
        <time>2022-01-21T13:56:06.000Z</time>
      </trkpt>
      <trkpt lat="43.51167" lon="6.37961">
        <ele>235</ele>
        <time>2022-01-21T13:56:07.000Z</time>
      </trkpt>
      <trkpt lat="43.51167" lon="6.37961">
        <ele>235</ele>
        <time>2022-01-21T13:56:08.000Z</time>
      </trkpt>
      <trkpt lat="43.51168" lon="6.3796">
        <ele>234</ele>
        <time>2022-01-21T13:56:09.000Z</time>
      </trkpt>
      <trkpt lat="43.51169" lon="6.37959">
        <ele>234</ele>
        <time>2022-01-21T13:56:10.000Z</time>
      </trkpt>
      <trkpt lat="43.5117" lon="6.37957">
        <ele>234</ele>
        <time>2022-01-21T13:56:11.000Z</time>
      </trkpt>
      <trkpt lat="43.51171" lon="6.37954">
        <ele>234</ele>
        <time>2022-01-21T13:56:12.000Z</time>
      </trkpt>
      <trkpt lat="43.51172" lon="6.37951">
        <ele>234</ele>
        <time>2022-01-21T13:56:13.000Z</time>
      </trkpt>
      <trkpt lat="43.51173" lon="6.3795">
        <ele>233</ele>
        <time>2022-01-21T13:56:14.000Z</time>
      </trkpt>
      <trkpt lat="43.51173" lon="6.37948">
        <ele>233</ele>
        <time>2022-01-21T13:56:15.000Z</time>
      </trkpt>
      <trkpt lat="43.51174" lon="6.37948">
        <ele>233</ele>
        <time>2022-01-21T13:56:16.000Z</time>
      </trkpt>
      <trkpt lat="43.51174" lon="6.37947">
        <ele>233</ele>
        <time>2022-01-21T13:56:17.000Z</time>
      </trkpt>
      <trkpt lat="43.51174" lon="6.37947">
        <ele>233</ele>
        <time>2022-01-21T13:56:18.000Z</time>
      </trkpt>
      <trkpt lat="43.51174" lon="6.37946">
        <ele>233</ele>
        <time>2022-01-21T13:56:19.000Z</time>
      </trkpt>
      <trkpt lat="43.51175" lon="6.37945">
        <ele>233</ele>
        <time>2022-01-21T13:56:20.000Z</time>
      </trkpt>
      <trkpt lat="43.51175" lon="6.37944">
        <ele>233</ele>
        <time>2022-01-21T13:56:21.000Z</time>
      </trkpt>
      <trkpt lat="43.51176" lon="6.37943">
        <ele>233</ele>
        <time>2022-01-21T13:56:22.000Z</time>
      </trkpt>
      <trkpt lat="43.51176" lon="6.37942">
        <ele>233</ele>
        <time>2022-01-21T13:56:23.000Z</time>
      </trkpt>
      <trkpt lat="43.51176" lon="6.37942">
        <ele>233</ele>
        <time>2022-01-21T13:56:24.000Z</time>
      </trkpt>
      <trkpt lat="43.51177" lon="6.37941">
        <ele>233</ele>
        <time>2022-01-21T13:56:25.000Z</time>
      </trkpt>
      <trkpt lat="43.51177" lon="6.37941">
        <ele>233</ele>
        <time>2022-01-21T13:56:26.000Z</time>
      </trkpt>
      <trkpt lat="43.51178" lon="6.37939">
        <ele>233</ele>
        <time>2022-01-21T13:56:27.000Z</time>
      </trkpt>
      <trkpt lat="43.51178" lon="6.37938">
        <ele>233</ele>
        <time>2022-01-21T13:56:28.000Z</time>
      </trkpt>
      <trkpt lat="43.51178" lon="6.37938">
        <ele>233</ele>
        <time>2022-01-21T13:56:29.000Z</time>
      </trkpt>
      <trkpt lat="43.51178" lon="6.37937">
        <ele>233</ele>
        <time>2022-01-21T13:56:30.000Z</time>
      </trkpt>
      <trkpt lat="43.51179" lon="6.37936">
        <ele>233</ele>
        <time>2022-01-21T13:56:31.000Z</time>
      </trkpt>
      <trkpt lat="43.51179" lon="6.37936">
        <ele>233</ele>
        <time>2022-01-21T13:56:32.000Z</time>
      </trkpt>
      <trkpt lat="43.51179" lon="6.37935">
        <ele>233</ele>
        <time>2022-01-21T13:56:33.000Z</time>
      </trkpt>
      <trkpt lat="43.51179" lon="6.37934">
        <ele>233</ele>
        <time>2022-01-21T13:56:34.000Z</time>
      </trkpt>
      <trkpt lat="43.51179" lon="6.37933">
        <ele>233</ele>
        <time>2022-01-21T13:56:35.000Z</time>
      </trkpt>
      <trkpt lat="43.5118" lon="6.3793">
        <ele>233</ele>
        <time>2022-01-21T13:56:36.000Z</time>
      </trkpt>
      <trkpt lat="43.5118" lon="6.37929">
        <ele>233</ele>
        <time>2022-01-21T13:56:37.000Z</time>
      </trkpt>
      <trkpt lat="43.5118" lon="6.37928">
        <ele>233</ele>
        <time>2022-01-21T13:56:38.000Z</time>
      </trkpt>
      <trkpt lat="43.5118" lon="6.37927">
        <ele>234</ele>
        <time>2022-01-21T13:56:39.000Z</time>
      </trkpt>
      <trkpt lat="43.5118" lon="6.37927">
        <ele>234</ele>
        <time>2022-01-21T13:56:40.000Z</time>
      </trkpt>
      <trkpt lat="43.5118" lon="6.37927">
        <ele>234</ele>
        <time>2022-01-21T13:56:41.000Z</time>
      </trkpt>
      <trkpt lat="43.5118" lon="6.37927">
        <ele>234</ele>
        <time>2022-01-21T13:56:42.000Z</time>
      </trkpt>
      <trkpt lat="43.5118" lon="6.37927">
        <ele>234</ele>
        <time>2022-01-21T13:56:43.000Z</time>
      </trkpt>
      <trkpt lat="43.5118" lon="6.37927">
        <ele>234</ele>
        <time>2022-01-21T13:56:44.000Z</time>
      </trkpt>
      <trkpt lat="43.5118" lon="6.37925">
        <ele>234</ele>
        <time>2022-01-21T13:56:45.000Z</time>
      </trkpt>
      <trkpt lat="43.5118" lon="6.37925">
        <ele>234</ele>
        <time>2022-01-21T13:56:46.000Z</time>
      </trkpt>
      <trkpt lat="43.5118" lon="6.37923">
        <ele>234</ele>
        <time>2022-01-21T13:56:47.000Z</time>
      </trkpt>
      <trkpt lat="43.5118" lon="6.37922">
        <ele>234</ele>
        <time>2022-01-21T13:56:48.000Z</time>
      </trkpt>
      <trkpt lat="43.51179" lon="6.3792">
        <ele>234</ele>
        <time>2022-01-21T13:56:49.000Z</time>
      </trkpt>
      <trkpt lat="43.51179" lon="6.37918">
        <ele>234</ele>
        <time>2022-01-21T13:56:50.000Z</time>
      </trkpt>
      <trkpt lat="43.51179" lon="6.37917">
        <ele>233</ele>
        <time>2022-01-21T13:56:51.000Z</time>
      </trkpt>
      <trkpt lat="43.51179" lon="6.37916">
        <ele>233</ele>
        <time>2022-01-21T13:56:52.000Z</time>
      </trkpt>
      <trkpt lat="43.51179" lon="6.37916">
        <ele>232</ele>
        <time>2022-01-21T13:56:53.000Z</time>
      </trkpt>
      <trkpt lat="43.51179" lon="6.37915">
        <ele>232</ele>
        <time>2022-01-21T13:56:54.000Z</time>
      </trkpt>
      <trkpt lat="43.51179" lon="6.37914">
        <ele>232</ele>
        <time>2022-01-21T13:56:55.000Z</time>
      </trkpt>
      <trkpt lat="43.51179" lon="6.37913">
        <ele>232</ele>
        <time>2022-01-21T13:56:56.000Z</time>
      </trkpt>
      <trkpt lat="43.51178" lon="6.37912">
        <ele>232</ele>
        <time>2022-01-21T13:56:57.000Z</time>
      </trkpt>
      <trkpt lat="43.51178" lon="6.37912">
        <ele>231</ele>
        <time>2022-01-21T13:56:58.000Z</time>
      </trkpt>
      <trkpt lat="43.51178" lon="6.37911">
        <ele>231</ele>
        <time>2022-01-21T13:56:59.000Z</time>
      </trkpt>
      <trkpt lat="43.51178" lon="6.3791">
        <ele>231</ele>
        <time>2022-01-21T13:57:00.000Z</time>
      </trkpt>
      <trkpt lat="43.51178" lon="6.37908">
        <ele>231</ele>
        <time>2022-01-21T13:57:01.000Z</time>
      </trkpt>
      <trkpt lat="43.51179" lon="6.37906">
        <ele>231</ele>
        <time>2022-01-21T13:57:02.000Z</time>
      </trkpt>
      <trkpt lat="43.51179" lon="6.37904">
        <ele>231</ele>
        <time>2022-01-21T13:57:03.000Z</time>
      </trkpt>
      <trkpt lat="43.5118" lon="6.37903">
        <ele>231</ele>
        <time>2022-01-21T13:57:04.000Z</time>
      </trkpt>
      <trkpt lat="43.5118" lon="6.37902">
        <ele>230</ele>
        <time>2022-01-21T13:57:05.000Z</time>
      </trkpt>
      <trkpt lat="43.51181" lon="6.37901">
        <ele>230</ele>
        <time>2022-01-21T13:57:06.000Z</time>
      </trkpt>
      <trkpt lat="43.51181" lon="6.379">
        <ele>230</ele>
        <time>2022-01-21T13:57:07.000Z</time>
      </trkpt>
      <trkpt lat="43.51182" lon="6.379">
        <ele>230</ele>
        <time>2022-01-21T13:57:08.000Z</time>
      </trkpt>
      <trkpt lat="43.51182" lon="6.379">
        <ele>230</ele>
        <time>2022-01-21T13:57:09.000Z</time>
      </trkpt>
      <trkpt lat="43.51182" lon="6.37899">
        <ele>230</ele>
        <time>2022-01-21T13:57:10.000Z</time>
      </trkpt>
      <trkpt lat="43.51182" lon="6.37899">
        <ele>230</ele>
        <time>2022-01-21T13:57:11.000Z</time>
      </trkpt>
      <trkpt lat="43.51183" lon="6.37899">
        <ele>230</ele>
        <time>2022-01-21T13:57:12.000Z</time>
      </trkpt>
      <trkpt lat="43.51183" lon="6.37899">
        <ele>230</ele>
        <time>2022-01-21T13:57:13.000Z</time>
      </trkpt>
      <trkpt lat="43.51184" lon="6.37899">
        <ele>231</ele>
        <time>2022-01-21T13:57:14.000Z</time>
      </trkpt>
      <trkpt lat="43.51185" lon="6.379">
        <ele>231</ele>
        <time>2022-01-21T13:57:15.000Z</time>
      </trkpt>
      <trkpt lat="43.51186" lon="6.379">
        <ele>231</ele>
        <time>2022-01-21T13:57:16.000Z</time>
      </trkpt>
      <trkpt lat="43.51186" lon="6.379">
        <ele>231</ele>
        <time>2022-01-21T13:57:17.000Z</time>
      </trkpt>
      <trkpt lat="43.51186" lon="6.379">
        <ele>231</ele>
        <time>2022-01-21T13:57:18.000Z</time>
      </trkpt>
      <trkpt lat="43.51187" lon="6.379">
        <ele>231</ele>
        <time>2022-01-21T13:57:19.000Z</time>
      </trkpt>
      <trkpt lat="43.51187" lon="6.379">
        <ele>231</ele>
        <time>2022-01-21T13:57:20.000Z</time>
      </trkpt>
      <trkpt lat="43.51187" lon="6.379">
        <ele>231</ele>
        <time>2022-01-21T13:57:21.000Z</time>
      </trkpt>
      <trkpt lat="43.51187" lon="6.379">
        <ele>231</ele>
        <time>2022-01-21T13:57:22.000Z</time>
      </trkpt>
      <trkpt lat="43.51187" lon="6.379">
        <ele>231</ele>
        <time>2022-01-21T13:57:23.000Z</time>
      </trkpt>
      <trkpt lat="43.51188" lon="6.379">
        <ele>231</ele>
        <time>2022-01-21T13:57:24.000Z</time>
      </trkpt>
      <trkpt lat="43.51188" lon="6.37901">
        <ele>231</ele>
        <time>2022-01-21T13:57:25.000Z</time>
      </trkpt>
      <trkpt lat="43.51189" lon="6.37901">
        <ele>231</ele>
        <time>2022-01-21T13:57:26.000Z</time>
      </trkpt>
      <trkpt lat="43.51189" lon="6.37901">
        <ele>231</ele>
        <time>2022-01-21T13:57:27.000Z</time>
      </trkpt>
      <trkpt lat="43.5119" lon="6.37902">
        <ele>231</ele>
        <time>2022-01-21T13:57:28.000Z</time>
      </trkpt>
      <trkpt lat="43.5119" lon="6.37902">
        <ele>231</ele>
        <time>2022-01-21T13:57:29.000Z</time>
      </trkpt>
      <trkpt lat="43.51191" lon="6.37903">
        <ele>231</ele>
        <time>2022-01-21T13:57:30.000Z</time>
      </trkpt>
      <trkpt lat="43.51192" lon="6.37903">
        <ele>231</ele>
        <time>2022-01-21T13:57:31.000Z</time>
      </trkpt>
      <trkpt lat="43.51192" lon="6.37904">
        <ele>231</ele>
        <time>2022-01-21T13:57:32.000Z</time>
      </trkpt>
      <trkpt lat="43.51193" lon="6.37904">
        <ele>231</ele>
        <time>2022-01-21T13:57:33.000Z</time>
      </trkpt>
      <trkpt lat="43.51193" lon="6.37905">
        <ele>231</ele>
        <time>2022-01-21T13:57:34.000Z</time>
      </trkpt>
      <trkpt lat="43.51194" lon="6.37905">
        <ele>231</ele>
        <time>2022-01-21T13:57:35.000Z</time>
      </trkpt>
      <trkpt lat="43.51194" lon="6.37905">
        <ele>231</ele>
        <time>2022-01-21T13:57:36.000Z</time>
      </trkpt>
      <trkpt lat="43.51195" lon="6.37906">
        <ele>231</ele>
        <time>2022-01-21T13:57:37.000Z</time>
      </trkpt>
      <trkpt lat="43.51195" lon="6.37906">
        <ele>232</ele>
        <time>2022-01-21T13:57:38.000Z</time>
      </trkpt>
      <trkpt lat="43.51196" lon="6.37907">
        <ele>232</ele>
        <time>2022-01-21T13:57:39.000Z</time>
      </trkpt>
      <trkpt lat="43.51196" lon="6.37907">
        <ele>232</ele>
        <time>2022-01-21T13:57:40.000Z</time>
      </trkpt>
      <trkpt lat="43.51196" lon="6.37908">
        <ele>232</ele>
        <time>2022-01-21T13:57:41.000Z</time>
      </trkpt>
      <trkpt lat="43.51197" lon="6.37908">
        <ele>232</ele>
        <time>2022-01-21T13:57:42.000Z</time>
      </trkpt>
      <trkpt lat="43.51197" lon="6.37908">
        <ele>232</ele>
        <time>2022-01-21T13:57:43.000Z</time>
      </trkpt>
      <trkpt lat="43.51197" lon="6.37909">
        <ele>232</ele>
        <time>2022-01-21T13:57:44.000Z</time>
      </trkpt>
      <trkpt lat="43.51197" lon="6.37909">
        <ele>232</ele>
        <time>2022-01-21T13:57:45.000Z</time>
      </trkpt>
      <trkpt lat="43.51198" lon="6.37909">
        <ele>232</ele>
        <time>2022-01-21T13:57:46.000Z</time>
      </trkpt>
      <trkpt lat="43.51198" lon="6.37909">
        <ele>232</ele>
        <time>2022-01-21T13:57:47.000Z</time>
      </trkpt>
      <trkpt lat="43.51198" lon="6.37909">
        <ele>232</ele>
        <time>2022-01-21T13:57:48.000Z</time>
      </trkpt>
      <trkpt lat="43.51198" lon="6.37909">
        <ele>232</ele>
        <time>2022-01-21T13:57:49.000Z</time>
      </trkpt>
      <trkpt lat="43.51198" lon="6.37909">
        <ele>232</ele>
        <time>2022-01-21T13:57:50.000Z</time>
      </trkpt>
      <trkpt lat="43.51198" lon="6.37909">
        <ele>232</ele>
        <time>2022-01-21T13:57:51.000Z</time>
      </trkpt>
      <trkpt lat="43.51198" lon="6.3791">
        <ele>232</ele>
        <time>2022-01-21T13:57:52.000Z</time>
      </trkpt>
      <trkpt lat="43.51198" lon="6.3791">
        <ele>233</ele>
        <time>2022-01-21T13:57:53.000Z</time>
      </trkpt>
      <trkpt lat="43.51198" lon="6.3791">
        <ele>233</ele>
        <time>2022-01-21T13:57:54.000Z</time>
      </trkpt>
      <trkpt lat="43.51198" lon="6.3791">
        <ele>233</ele>
        <time>2022-01-21T13:57:55.000Z</time>
      </trkpt>
      <trkpt lat="43.51198" lon="6.3791">
        <ele>233</ele>
        <time>2022-01-21T13:57:56.000Z</time>
      </trkpt>
      <trkpt lat="43.51199" lon="6.3791">
        <ele>233</ele>
        <time>2022-01-21T13:57:57.000Z</time>
      </trkpt>
      <trkpt lat="43.51199" lon="6.3791">
        <ele>233</ele>
        <time>2022-01-21T13:57:58.000Z</time>
      </trkpt>
      <trkpt lat="43.512" lon="6.3791">
        <ele>233</ele>
        <time>2022-01-21T13:57:59.000Z</time>
      </trkpt>
      <trkpt lat="43.51201" lon="6.3791">
        <ele>233</ele>
        <time>2022-01-21T13:58:00.000Z</time>
      </trkpt>
      <trkpt lat="43.51201" lon="6.3791">
        <ele>233</ele>
        <time>2022-01-21T13:58:01.000Z</time>
      </trkpt>
      <trkpt lat="43.51202" lon="6.3791">
        <ele>233</ele>
        <time>2022-01-21T13:58:02.000Z</time>
      </trkpt>
      <trkpt lat="43.51202" lon="6.3791">
        <ele>233</ele>
        <time>2022-01-21T13:58:03.000Z</time>
      </trkpt>
      <trkpt lat="43.51202" lon="6.3791">
        <ele>233</ele>
        <time>2022-01-21T13:58:04.000Z</time>
      </trkpt>
      <trkpt lat="43.51203" lon="6.3791">
        <ele>233</ele>
        <time>2022-01-21T13:58:05.000Z</time>
      </trkpt>
      <trkpt lat="43.51203" lon="6.3791">
        <ele>233</ele>
        <time>2022-01-21T13:58:06.000Z</time>
      </trkpt>
      <trkpt lat="43.51203" lon="6.3791">
        <ele>233</ele>
        <time>2022-01-21T13:58:07.000Z</time>
      </trkpt>
      <trkpt lat="43.51203" lon="6.37909">
        <ele>233</ele>
        <time>2022-01-21T13:58:08.000Z</time>
      </trkpt>
      <trkpt lat="43.51204" lon="6.37909">
        <ele>233</ele>
        <time>2022-01-21T13:58:09.000Z</time>
      </trkpt>
      <trkpt lat="43.51204" lon="6.37909">
        <ele>233</ele>
        <time>2022-01-21T13:58:10.000Z</time>
      </trkpt>
      <trkpt lat="43.51205" lon="6.37909">
        <ele>233</ele>
        <time>2022-01-21T13:58:11.000Z</time>
      </trkpt>
      <trkpt lat="43.51205" lon="6.37908">
        <ele>233</ele>
        <time>2022-01-21T13:58:12.000Z</time>
      </trkpt>
      <trkpt lat="43.51206" lon="6.37907">
        <ele>233</ele>
        <time>2022-01-21T13:58:13.000Z</time>
      </trkpt>
      <trkpt lat="43.51207" lon="6.37906">
        <ele>233</ele>
        <time>2022-01-21T13:58:14.000Z</time>
      </trkpt>
      <trkpt lat="43.51208" lon="6.37904">
        <ele>233</ele>
        <time>2022-01-21T13:58:15.000Z</time>
      </trkpt>
      <trkpt lat="43.51209" lon="6.37903">
        <ele>233</ele>
        <time>2022-01-21T13:58:16.000Z</time>
      </trkpt>
      <trkpt lat="43.51211" lon="6.37901">
        <ele>233</ele>
        <time>2022-01-21T13:58:17.000Z</time>
      </trkpt>
      <trkpt lat="43.51212" lon="6.37899">
        <ele>232</ele>
        <time>2022-01-21T13:58:18.000Z</time>
      </trkpt>
      <trkpt lat="43.51213" lon="6.37898">
        <ele>232</ele>
        <time>2022-01-21T13:58:19.000Z</time>
      </trkpt>
      <trkpt lat="43.51214" lon="6.37896">
        <ele>232</ele>
        <time>2022-01-21T13:58:20.000Z</time>
      </trkpt>
      <trkpt lat="43.51215" lon="6.37895">
        <ele>232</ele>
        <time>2022-01-21T13:58:21.000Z</time>
      </trkpt>
      <trkpt lat="43.51216" lon="6.37893">
        <ele>232</ele>
        <time>2022-01-21T13:58:22.000Z</time>
      </trkpt>
      <trkpt lat="43.51216" lon="6.37892">
        <ele>232</ele>
        <time>2022-01-21T13:58:23.000Z</time>
      </trkpt>
      <trkpt lat="43.51217" lon="6.37891">
        <ele>232</ele>
        <time>2022-01-21T13:58:24.000Z</time>
      </trkpt>
      <trkpt lat="43.51217" lon="6.37889">
        <ele>232</ele>
        <time>2022-01-21T13:58:25.000Z</time>
      </trkpt>
      <trkpt lat="43.51218" lon="6.37888">
        <ele>232</ele>
        <time>2022-01-21T13:58:26.000Z</time>
      </trkpt>
      <trkpt lat="43.51218" lon="6.37886">
        <ele>232</ele>
        <time>2022-01-21T13:58:27.000Z</time>
      </trkpt>
      <trkpt lat="43.51218" lon="6.37885">
        <ele>232</ele>
        <time>2022-01-21T13:58:28.000Z</time>
      </trkpt>
      <trkpt lat="43.51219" lon="6.37884">
        <ele>232</ele>
        <time>2022-01-21T13:58:29.000Z</time>
      </trkpt>
      <trkpt lat="43.51219" lon="6.37883">
        <ele>232</ele>
        <time>2022-01-21T13:58:30.000Z</time>
      </trkpt>
      <trkpt lat="43.51219" lon="6.37882">
        <ele>232</ele>
        <time>2022-01-21T13:58:31.000Z</time>
      </trkpt>
      <trkpt lat="43.5122" lon="6.37882">
        <ele>232</ele>
        <time>2022-01-21T13:58:32.000Z</time>
      </trkpt>
      <trkpt lat="43.5122" lon="6.37881">
        <ele>232</ele>
        <time>2022-01-21T13:58:33.000Z</time>
      </trkpt>
      <trkpt lat="43.5122" lon="6.37881">
        <ele>232</ele>
        <time>2022-01-21T13:58:34.000Z</time>
      </trkpt>
      <trkpt lat="43.5122" lon="6.3788">
        <ele>232</ele>
        <time>2022-01-21T13:58:35.000Z</time>
      </trkpt>
      <trkpt lat="43.5122" lon="6.37879">
        <ele>232</ele>
        <time>2022-01-21T13:58:36.000Z</time>
      </trkpt>
      <trkpt lat="43.5122" lon="6.37877">
        <ele>232</ele>
        <time>2022-01-21T13:58:37.000Z</time>
      </trkpt>
      <trkpt lat="43.5122" lon="6.37875">
        <ele>232</ele>
        <time>2022-01-21T13:58:38.000Z</time>
      </trkpt>
      <trkpt lat="43.5122" lon="6.37873">
        <ele>232</ele>
        <time>2022-01-21T13:58:39.000Z</time>
      </trkpt>
      <trkpt lat="43.5122" lon="6.37872">
        <ele>232</ele>
        <time>2022-01-21T13:58:40.000Z</time>
      </trkpt>
      <trkpt lat="43.5122" lon="6.37871">
        <ele>232</ele>
        <time>2022-01-21T13:58:41.000Z</time>
      </trkpt>
      <trkpt lat="43.5122" lon="6.37871">
        <ele>232</ele>
        <time>2022-01-21T13:58:42.000Z</time>
      </trkpt>
      <trkpt lat="43.5122" lon="6.37871">
        <ele>232</ele>
        <time>2022-01-21T13:58:43.000Z</time>
      </trkpt>
      <trkpt lat="43.5122" lon="6.37871">
        <ele>232</ele>
        <time>2022-01-21T13:58:44.000Z</time>
      </trkpt>
      <trkpt lat="43.5122" lon="6.37871">
        <ele>232</ele>
        <time>2022-01-21T13:58:45.000Z</time>
      </trkpt>
      <trkpt lat="43.5122" lon="6.37871">
        <ele>232</ele>
        <time>2022-01-21T13:58:46.000Z</time>
      </trkpt>
      <trkpt lat="43.5122" lon="6.37871">
        <ele>232</ele>
        <time>2022-01-21T13:58:47.000Z</time>
      </trkpt>
      <trkpt lat="43.5122" lon="6.37868">
        <ele>232</ele>
        <time>2022-01-21T13:58:48.000Z</time>
      </trkpt>
      <trkpt lat="43.5122" lon="6.37867">
        <ele>232</ele>
        <time>2022-01-21T13:58:49.000Z</time>
      </trkpt>
      <trkpt lat="43.5122" lon="6.37867">
        <ele>233</ele>
        <time>2022-01-21T13:58:50.000Z</time>
      </trkpt>
      <trkpt lat="43.5122" lon="6.37866">
        <ele>233</ele>
        <time>2022-01-21T13:58:51.000Z</time>
      </trkpt>
      <trkpt lat="43.5122" lon="6.37866">
        <ele>233</ele>
        <time>2022-01-21T13:58:52.000Z</time>
      </trkpt>
      <trkpt lat="43.5122" lon="6.37866">
        <ele>233</ele>
        <time>2022-01-21T13:58:53.000Z</time>
      </trkpt>
      <trkpt lat="43.5122" lon="6.37865">
        <ele>233</ele>
        <time>2022-01-21T13:58:54.000Z</time>
      </trkpt>
      <trkpt lat="43.5122" lon="6.37865">
        <ele>233</ele>
        <time>2022-01-21T13:58:55.000Z</time>
      </trkpt>
      <trkpt lat="43.5122" lon="6.37864">
        <ele>233</ele>
        <time>2022-01-21T13:58:56.000Z</time>
      </trkpt>
      <trkpt lat="43.5122" lon="6.37863">
        <ele>233</ele>
        <time>2022-01-21T13:58:57.000Z</time>
      </trkpt>
      <trkpt lat="43.5122" lon="6.37862">
        <ele>233</ele>
        <time>2022-01-21T13:58:58.000Z</time>
      </trkpt>
      <trkpt lat="43.5122" lon="6.37861">
        <ele>233</ele>
        <time>2022-01-21T13:58:59.000Z</time>
      </trkpt>
      <trkpt lat="43.5122" lon="6.3786">
        <ele>233</ele>
        <time>2022-01-21T13:59:00.000Z</time>
      </trkpt>
      <trkpt lat="43.5122" lon="6.37859">
        <ele>233</ele>
        <time>2022-01-21T13:59:01.000Z</time>
      </trkpt>
      <trkpt lat="43.5122" lon="6.37858">
        <ele>233</ele>
        <time>2022-01-21T13:59:02.000Z</time>
      </trkpt>
      <trkpt lat="43.5122" lon="6.37857">
        <ele>233</ele>
        <time>2022-01-21T13:59:03.000Z</time>
      </trkpt>
      <trkpt lat="43.51219" lon="6.37856">
        <ele>233</ele>
        <time>2022-01-21T13:59:04.000Z</time>
      </trkpt>
      <trkpt lat="43.51219" lon="6.37855">
        <ele>233</ele>
        <time>2022-01-21T13:59:05.000Z</time>
      </trkpt>
      <trkpt lat="43.51219" lon="6.37855">
        <ele>233</ele>
        <time>2022-01-21T13:59:06.000Z</time>
      </trkpt>
      <trkpt lat="43.51219" lon="6.37854">
        <ele>233</ele>
        <time>2022-01-21T13:59:07.000Z</time>
      </trkpt>
      <trkpt lat="43.51219" lon="6.37854">
        <ele>233</ele>
        <time>2022-01-21T13:59:08.000Z</time>
      </trkpt>
      <trkpt lat="43.51219" lon="6.37853">
        <ele>233</ele>
        <time>2022-01-21T13:59:09.000Z</time>
      </trkpt>
      <trkpt lat="43.51218" lon="6.37851">
        <ele>233</ele>
        <time>2022-01-21T13:59:10.000Z</time>
      </trkpt>
      <trkpt lat="43.51218" lon="6.37849">
        <ele>233</ele>
        <time>2022-01-21T13:59:11.000Z</time>
      </trkpt>
      <trkpt lat="43.51217" lon="6.37847">
        <ele>233</ele>
        <time>2022-01-21T13:59:12.000Z</time>
      </trkpt>
      <trkpt lat="43.51217" lon="6.37846">
        <ele>233</ele>
        <time>2022-01-21T13:59:13.000Z</time>
      </trkpt>
      <trkpt lat="43.51217" lon="6.37845">
        <ele>233</ele>
        <time>2022-01-21T13:59:14.000Z</time>
      </trkpt>
      <trkpt lat="43.51216" lon="6.37845">
        <ele>233</ele>
        <time>2022-01-21T13:59:15.000Z</time>
      </trkpt>
      <trkpt lat="43.51216" lon="6.37845">
        <ele>234</ele>
        <time>2022-01-21T13:59:16.000Z</time>
      </trkpt>
      <trkpt lat="43.51216" lon="6.37844">
        <ele>234</ele>
        <time>2022-01-21T13:59:17.000Z</time>
      </trkpt>
      <trkpt lat="43.51216" lon="6.37844">
        <ele>234</ele>
        <time>2022-01-21T13:59:18.000Z</time>
      </trkpt>
      <trkpt lat="43.51216" lon="6.37843">
        <ele>234</ele>
        <time>2022-01-21T13:59:19.000Z</time>
      </trkpt>
      <trkpt lat="43.51216" lon="6.37843">
        <ele>234</ele>
        <time>2022-01-21T13:59:20.000Z</time>
      </trkpt>
      <trkpt lat="43.51215" lon="6.37841">
        <ele>234</ele>
        <time>2022-01-21T13:59:21.000Z</time>
      </trkpt>
      <trkpt lat="43.51215" lon="6.37839">
        <ele>234</ele>
        <time>2022-01-21T13:59:22.000Z</time>
      </trkpt>
      <trkpt lat="43.51215" lon="6.37838">
        <ele>234</ele>
        <time>2022-01-21T13:59:23.000Z</time>
      </trkpt>
      <trkpt lat="43.51214" lon="6.37835">
        <ele>234</ele>
        <time>2022-01-21T13:59:24.000Z</time>
      </trkpt>
      <trkpt lat="43.51214" lon="6.37834">
        <ele>234</ele>
        <time>2022-01-21T13:59:25.000Z</time>
      </trkpt>
      <trkpt lat="43.51214" lon="6.37833">
        <ele>233</ele>
        <time>2022-01-21T13:59:26.000Z</time>
      </trkpt>
      <trkpt lat="43.51214" lon="6.37833">
        <ele>233</ele>
        <time>2022-01-21T13:59:27.000Z</time>
      </trkpt>
      <trkpt lat="43.51214" lon="6.37833">
        <ele>233</ele>
        <time>2022-01-21T13:59:28.000Z</time>
      </trkpt>
      <trkpt lat="43.51214" lon="6.37832">
        <ele>233</ele>
        <time>2022-01-21T13:59:29.000Z</time>
      </trkpt>
      <trkpt lat="43.51214" lon="6.37831">
        <ele>233</ele>
        <time>2022-01-21T13:59:30.000Z</time>
      </trkpt>
      <trkpt lat="43.51214" lon="6.37829">
        <ele>234</ele>
        <time>2022-01-21T13:59:31.000Z</time>
      </trkpt>
      <trkpt lat="43.51214" lon="6.37828">
        <ele>234</ele>
        <time>2022-01-21T13:59:32.000Z</time>
      </trkpt>
      <trkpt lat="43.51213" lon="6.37826">
        <ele>234</ele>
        <time>2022-01-21T13:59:33.000Z</time>
      </trkpt>
      <trkpt lat="43.51213" lon="6.37824">
        <ele>234</ele>
        <time>2022-01-21T13:59:34.000Z</time>
      </trkpt>
      <trkpt lat="43.51213" lon="6.37823">
        <ele>234</ele>
        <time>2022-01-21T13:59:35.000Z</time>
      </trkpt>
      <trkpt lat="43.51212" lon="6.3782">
        <ele>234</ele>
        <time>2022-01-21T13:59:36.000Z</time>
      </trkpt>
      <trkpt lat="43.51212" lon="6.37817">
        <ele>235</ele>
        <time>2022-01-21T13:59:37.000Z</time>
      </trkpt>
      <trkpt lat="43.51211" lon="6.37815">
        <ele>236</ele>
        <time>2022-01-21T13:59:38.000Z</time>
      </trkpt>
      <trkpt lat="43.51211" lon="6.37813">
        <ele>236</ele>
        <time>2022-01-21T13:59:39.000Z</time>
      </trkpt>
      <trkpt lat="43.51211" lon="6.37811">
        <ele>236</ele>
        <time>2022-01-21T13:59:40.000Z</time>
      </trkpt>
      <trkpt lat="43.51211" lon="6.3781">
        <ele>237</ele>
        <time>2022-01-21T13:59:41.000Z</time>
      </trkpt>
      <trkpt lat="43.51211" lon="6.37809">
        <ele>237</ele>
        <time>2022-01-21T13:59:42.000Z</time>
      </trkpt>
      <trkpt lat="43.51211" lon="6.37808">
        <ele>237</ele>
        <time>2022-01-21T13:59:43.000Z</time>
      </trkpt>
      <trkpt lat="43.51211" lon="6.37808">
        <ele>237</ele>
        <time>2022-01-21T13:59:44.000Z</time>
      </trkpt>
      <trkpt lat="43.5121" lon="6.37808">
        <ele>237</ele>
        <time>2022-01-21T13:59:45.000Z</time>
      </trkpt>
      <trkpt lat="43.5121" lon="6.37807">
        <ele>237</ele>
        <time>2022-01-21T13:59:46.000Z</time>
      </trkpt>
      <trkpt lat="43.5121" lon="6.37807">
        <ele>237</ele>
        <time>2022-01-21T13:59:47.000Z</time>
      </trkpt>
      <trkpt lat="43.5121" lon="6.37806">
        <ele>237</ele>
        <time>2022-01-21T13:59:48.000Z</time>
      </trkpt>
      <trkpt lat="43.5121" lon="6.37805">
        <ele>238</ele>
        <time>2022-01-21T13:59:49.000Z</time>
      </trkpt>
      <trkpt lat="43.5121" lon="6.37805">
        <ele>238</ele>
        <time>2022-01-21T13:59:50.000Z</time>
      </trkpt>
      <trkpt lat="43.5121" lon="6.37805">
        <ele>238</ele>
        <time>2022-01-21T13:59:51.000Z</time>
      </trkpt>
      <trkpt lat="43.5121" lon="6.37805">
        <ele>238</ele>
        <time>2022-01-21T13:59:52.000Z</time>
      </trkpt>
      <trkpt lat="43.5121" lon="6.37804">
        <ele>238</ele>
        <time>2022-01-21T13:59:53.000Z</time>
      </trkpt>
      <trkpt lat="43.5121" lon="6.37804">
        <ele>238</ele>
        <time>2022-01-21T13:59:54.000Z</time>
      </trkpt>
      <trkpt lat="43.5121" lon="6.37804">
        <ele>238</ele>
        <time>2022-01-21T13:59:55.000Z</time>
      </trkpt>
      <trkpt lat="43.5121" lon="6.37804">
        <ele>238</ele>
        <time>2022-01-21T13:59:56.000Z</time>
      </trkpt>
      <trkpt lat="43.5121" lon="6.37804">
        <ele>238</ele>
        <time>2022-01-21T13:59:57.000Z</time>
      </trkpt>
      <trkpt lat="43.51209" lon="6.37803">
        <ele>239</ele>
        <time>2022-01-21T13:59:58.000Z</time>
      </trkpt>
      <trkpt lat="43.51209" lon="6.37802">
        <ele>239</ele>
        <time>2022-01-21T13:59:59.000Z</time>
      </trkpt>
      <trkpt lat="43.51209" lon="6.378">
        <ele>239</ele>
        <time>2022-01-21T14:00:00.000Z</time>
      </trkpt>
      <trkpt lat="43.51209" lon="6.37799">
        <ele>239</ele>
        <time>2022-01-21T14:00:01.000Z</time>
      </trkpt>
      <trkpt lat="43.51208" lon="6.37798">
        <ele>239</ele>
        <time>2022-01-21T14:00:02.000Z</time>
      </trkpt>
      <trkpt lat="43.51208" lon="6.37797">
        <ele>239</ele>
        <time>2022-01-21T14:00:03.000Z</time>
      </trkpt>
      <trkpt lat="43.51208" lon="6.37795">
        <ele>239</ele>
        <time>2022-01-21T14:00:04.000Z</time>
      </trkpt>
      <trkpt lat="43.51208" lon="6.37794">
        <ele>239</ele>
        <time>2022-01-21T14:00:05.000Z</time>
      </trkpt>
      <trkpt lat="43.51207" lon="6.37793">
        <ele>239</ele>
        <time>2022-01-21T14:00:06.000Z</time>
      </trkpt>
      <trkpt lat="43.51207" lon="6.37792">
        <ele>239</ele>
        <time>2022-01-21T14:00:07.000Z</time>
      </trkpt>
      <trkpt lat="43.51207" lon="6.37791">
        <ele>239</ele>
        <time>2022-01-21T14:00:08.000Z</time>
      </trkpt>
      <trkpt lat="43.51207" lon="6.3779">
        <ele>239</ele>
        <time>2022-01-21T14:00:09.000Z</time>
      </trkpt>
      <trkpt lat="43.51206" lon="6.3779">
        <ele>240</ele>
        <time>2022-01-21T14:00:10.000Z</time>
      </trkpt>
      <trkpt lat="43.51206" lon="6.37789">
        <ele>240</ele>
        <time>2022-01-21T14:00:11.000Z</time>
      </trkpt>
      <trkpt lat="43.51206" lon="6.37788">
        <ele>240</ele>
        <time>2022-01-21T14:00:12.000Z</time>
      </trkpt>
      <trkpt lat="43.51206" lon="6.37786">
        <ele>240</ele>
        <time>2022-01-21T14:00:13.000Z</time>
      </trkpt>
      <trkpt lat="43.51205" lon="6.37784">
        <ele>240</ele>
        <time>2022-01-21T14:00:14.000Z</time>
      </trkpt>
      <trkpt lat="43.51204" lon="6.37782">
        <ele>240</ele>
        <time>2022-01-21T14:00:15.000Z</time>
      </trkpt>
      <trkpt lat="43.51204" lon="6.3778">
        <ele>241</ele>
        <time>2022-01-21T14:00:16.000Z</time>
      </trkpt>
      <trkpt lat="43.51204" lon="6.37779">
        <ele>241</ele>
        <time>2022-01-21T14:00:17.000Z</time>
      </trkpt>
      <trkpt lat="43.51203" lon="6.37777">
        <ele>241</ele>
        <time>2022-01-21T14:00:18.000Z</time>
      </trkpt>
      <trkpt lat="43.51203" lon="6.37776">
        <ele>242</ele>
        <time>2022-01-21T14:00:19.000Z</time>
      </trkpt>
      <trkpt lat="43.51203" lon="6.37774">
        <ele>242</ele>
        <time>2022-01-21T14:00:20.000Z</time>
      </trkpt>
      <trkpt lat="43.51203" lon="6.37773">
        <ele>242</ele>
        <time>2022-01-21T14:00:21.000Z</time>
      </trkpt>
      <trkpt lat="43.51203" lon="6.37772">
        <ele>242</ele>
        <time>2022-01-21T14:00:22.000Z</time>
      </trkpt>
      <trkpt lat="43.51202" lon="6.37771">
        <ele>242</ele>
        <time>2022-01-21T14:00:23.000Z</time>
      </trkpt>
      <trkpt lat="43.51202" lon="6.3777">
        <ele>242</ele>
        <time>2022-01-21T14:00:24.000Z</time>
      </trkpt>
      <trkpt lat="43.51202" lon="6.37769">
        <ele>243</ele>
        <time>2022-01-21T14:00:25.000Z</time>
      </trkpt>
      <trkpt lat="43.51202" lon="6.37769">
        <ele>244</ele>
        <time>2022-01-21T14:00:26.000Z</time>
      </trkpt>
      <trkpt lat="43.51202" lon="6.37768">
        <ele>244</ele>
        <time>2022-01-21T14:00:27.000Z</time>
      </trkpt>
      <trkpt lat="43.51202" lon="6.37767">
        <ele>244</ele>
        <time>2022-01-21T14:00:28.000Z</time>
      </trkpt>
      <trkpt lat="43.51201" lon="6.37767">
        <ele>245</ele>
        <time>2022-01-21T14:00:29.000Z</time>
      </trkpt>
      <trkpt lat="43.51201" lon="6.37766">
        <ele>245</ele>
        <time>2022-01-21T14:00:30.000Z</time>
      </trkpt>
      <trkpt lat="43.51201" lon="6.37765">
        <ele>245</ele>
        <time>2022-01-21T14:00:31.000Z</time>
      </trkpt>
      <trkpt lat="43.51201" lon="6.37764">
        <ele>245</ele>
        <time>2022-01-21T14:00:32.000Z</time>
      </trkpt>
      <trkpt lat="43.51201" lon="6.37763">
        <ele>246</ele>
        <time>2022-01-21T14:00:33.000Z</time>
      </trkpt>
      <trkpt lat="43.512" lon="6.3776">
        <ele>246</ele>
        <time>2022-01-21T14:00:34.000Z</time>
      </trkpt>
      <trkpt lat="43.51199" lon="6.37757">
        <ele>247</ele>
        <time>2022-01-21T14:00:35.000Z</time>
      </trkpt>
      <trkpt lat="43.51199" lon="6.37756">
        <ele>247</ele>
        <time>2022-01-21T14:00:36.000Z</time>
      </trkpt>
      <trkpt lat="43.51199" lon="6.37754">
        <ele>247</ele>
        <time>2022-01-21T14:00:37.000Z</time>
      </trkpt>
      <trkpt lat="43.51198" lon="6.37752">
        <ele>247</ele>
        <time>2022-01-21T14:00:38.000Z</time>
      </trkpt>
      <trkpt lat="43.51198" lon="6.37751">
        <ele>248</ele>
        <time>2022-01-21T14:00:39.000Z</time>
      </trkpt>
      <trkpt lat="43.51197" lon="6.3775">
        <ele>248</ele>
        <time>2022-01-21T14:00:40.000Z</time>
      </trkpt>
      <trkpt lat="43.51197" lon="6.37749">
        <ele>248</ele>
        <time>2022-01-21T14:00:41.000Z</time>
      </trkpt>
      <trkpt lat="43.51197" lon="6.37747">
        <ele>248</ele>
        <time>2022-01-21T14:00:42.000Z</time>
      </trkpt>
      <trkpt lat="43.51196" lon="6.37746">
        <ele>248</ele>
        <time>2022-01-21T14:00:43.000Z</time>
      </trkpt>
      <trkpt lat="43.51196" lon="6.37744">
        <ele>249</ele>
        <time>2022-01-21T14:00:44.000Z</time>
      </trkpt>
      <trkpt lat="43.51195" lon="6.37743">
        <ele>249</ele>
        <time>2022-01-21T14:00:45.000Z</time>
      </trkpt>
      <trkpt lat="43.51195" lon="6.37742">
        <ele>249</ele>
        <time>2022-01-21T14:00:46.000Z</time>
      </trkpt>
      <trkpt lat="43.51195" lon="6.3774">
        <ele>249</ele>
        <time>2022-01-21T14:00:47.000Z</time>
      </trkpt>
      <trkpt lat="43.51194" lon="6.37739">
        <ele>249</ele>
        <time>2022-01-21T14:00:48.000Z</time>
      </trkpt>
      <trkpt lat="43.51194" lon="6.37738">
        <ele>249</ele>
        <time>2022-01-21T14:00:49.000Z</time>
      </trkpt>
      <trkpt lat="43.51194" lon="6.37737">
        <ele>249</ele>
        <time>2022-01-21T14:00:50.000Z</time>
      </trkpt>
      <trkpt lat="43.51194" lon="6.37736">
        <ele>249</ele>
        <time>2022-01-21T14:00:51.000Z</time>
      </trkpt>
      <trkpt lat="43.51194" lon="6.37735">
        <ele>249</ele>
        <time>2022-01-21T14:00:52.000Z</time>
      </trkpt>
      <trkpt lat="43.51194" lon="6.37734">
        <ele>249</ele>
        <time>2022-01-21T14:00:53.000Z</time>
      </trkpt>
      <trkpt lat="43.51194" lon="6.37734">
        <ele>249</ele>
        <time>2022-01-21T14:00:54.000Z</time>
      </trkpt>
      <trkpt lat="43.51194" lon="6.37733">
        <ele>249</ele>
        <time>2022-01-21T14:00:55.000Z</time>
      </trkpt>
      <trkpt lat="43.51193" lon="6.37733">
        <ele>250</ele>
        <time>2022-01-21T14:00:56.000Z</time>
      </trkpt>
      <trkpt lat="43.51193" lon="6.37733">
        <ele>250</ele>
        <time>2022-01-21T14:00:57.000Z</time>
      </trkpt>
      <trkpt lat="43.51192" lon="6.37732">
        <ele>250</ele>
        <time>2022-01-21T14:00:58.000Z</time>
      </trkpt>
      <trkpt lat="43.51191" lon="6.37732">
        <ele>250</ele>
        <time>2022-01-21T14:00:59.000Z</time>
      </trkpt>
      <trkpt lat="43.51191" lon="6.37732">
        <ele>250</ele>
        <time>2022-01-21T14:01:00.000Z</time>
      </trkpt>
      <trkpt lat="43.51191" lon="6.37732">
        <ele>250</ele>
        <time>2022-01-21T14:01:01.000Z</time>
      </trkpt>
      <trkpt lat="43.51191" lon="6.37731">
        <ele>250</ele>
        <time>2022-01-21T14:01:02.000Z</time>
      </trkpt>
      <trkpt lat="43.51191" lon="6.37731">
        <ele>250</ele>
        <time>2022-01-21T14:01:03.000Z</time>
      </trkpt>
      <trkpt lat="43.51191" lon="6.3773">
        <ele>250</ele>
        <time>2022-01-21T14:01:04.000Z</time>
      </trkpt>
      <trkpt lat="43.51191" lon="6.3773">
        <ele>250</ele>
        <time>2022-01-21T14:01:05.000Z</time>
      </trkpt>
      <trkpt lat="43.51191" lon="6.37729">
        <ele>250</ele>
        <time>2022-01-21T14:01:06.000Z</time>
      </trkpt>
      <trkpt lat="43.51191" lon="6.37729">
        <ele>250</ele>
        <time>2022-01-21T14:01:07.000Z</time>
      </trkpt>
      <trkpt lat="43.5119" lon="6.37728">
        <ele>250</ele>
        <time>2022-01-21T14:01:08.000Z</time>
      </trkpt>
      <trkpt lat="43.5119" lon="6.37728">
        <ele>250</ele>
        <time>2022-01-21T14:01:09.000Z</time>
      </trkpt>
      <trkpt lat="43.5119" lon="6.37727">
        <ele>250</ele>
        <time>2022-01-21T14:01:10.000Z</time>
      </trkpt>
      <trkpt lat="43.5119" lon="6.37727">
        <ele>250</ele>
        <time>2022-01-21T14:01:11.000Z</time>
      </trkpt>
      <trkpt lat="43.51189" lon="6.37726">
        <ele>250</ele>
        <time>2022-01-21T14:01:12.000Z</time>
      </trkpt>
      <trkpt lat="43.51189" lon="6.37726">
        <ele>250</ele>
        <time>2022-01-21T14:01:13.000Z</time>
      </trkpt>
      <trkpt lat="43.51189" lon="6.37725">
        <ele>250</ele>
        <time>2022-01-21T14:01:14.000Z</time>
      </trkpt>
      <trkpt lat="43.51189" lon="6.37725">
        <ele>250</ele>
        <time>2022-01-21T14:01:15.000Z</time>
      </trkpt>
      <trkpt lat="43.51189" lon="6.37724">
        <ele>250</ele>
        <time>2022-01-21T14:01:16.000Z</time>
      </trkpt>
      <trkpt lat="43.51188" lon="6.37723">
        <ele>251</ele>
        <time>2022-01-21T14:01:17.000Z</time>
      </trkpt>
      <trkpt lat="43.51188" lon="6.37722">
        <ele>252</ele>
        <time>2022-01-21T14:01:18.000Z</time>
      </trkpt>
      <trkpt lat="43.51188" lon="6.37722">
        <ele>252</ele>
        <time>2022-01-21T14:01:19.000Z</time>
      </trkpt>
      <trkpt lat="43.51188" lon="6.37721">
        <ele>252</ele>
        <time>2022-01-21T14:01:20.000Z</time>
      </trkpt>
      <trkpt lat="43.51188" lon="6.3772">
        <ele>252</ele>
        <time>2022-01-21T14:01:21.000Z</time>
      </trkpt>
      <trkpt lat="43.51188" lon="6.3772">
        <ele>252</ele>
        <time>2022-01-21T14:01:22.000Z</time>
      </trkpt>
      <trkpt lat="43.51187" lon="6.37719">
        <ele>252</ele>
        <time>2022-01-21T14:01:23.000Z</time>
      </trkpt>
      <trkpt lat="43.51186" lon="6.37718">
        <ele>253</ele>
        <time>2022-01-21T14:01:24.000Z</time>
      </trkpt>
      <trkpt lat="43.51185" lon="6.37718">
        <ele>253</ele>
        <time>2022-01-21T14:01:25.000Z</time>
      </trkpt>
      <trkpt lat="43.51185" lon="6.37717">
        <ele>253</ele>
        <time>2022-01-21T14:01:26.000Z</time>
      </trkpt>
      <trkpt lat="43.51184" lon="6.37717">
        <ele>253</ele>
        <time>2022-01-21T14:01:27.000Z</time>
      </trkpt>
      <trkpt lat="43.51184" lon="6.37716">
        <ele>253</ele>
        <time>2022-01-21T14:01:28.000Z</time>
      </trkpt>
      <trkpt lat="43.51183" lon="6.37715">
        <ele>253</ele>
        <time>2022-01-21T14:01:29.000Z</time>
      </trkpt>
      <trkpt lat="43.51183" lon="6.37715">
        <ele>253</ele>
        <time>2022-01-21T14:01:30.000Z</time>
      </trkpt>
      <trkpt lat="43.51183" lon="6.37715">
        <ele>253</ele>
        <time>2022-01-21T14:01:31.000Z</time>
      </trkpt>
      <trkpt lat="43.51183" lon="6.37714">
        <ele>253</ele>
        <time>2022-01-21T14:01:32.000Z</time>
      </trkpt>
      <trkpt lat="43.51183" lon="6.37714">
        <ele>254</ele>
        <time>2022-01-21T14:01:33.000Z</time>
      </trkpt>
      <trkpt lat="43.51183" lon="6.37714">
        <ele>254</ele>
        <time>2022-01-21T14:01:34.000Z</time>
      </trkpt>
      <trkpt lat="43.51183" lon="6.37714">
        <ele>254</ele>
        <time>2022-01-21T14:01:35.000Z</time>
      </trkpt>
      <trkpt lat="43.51183" lon="6.37714">
        <ele>254</ele>
        <time>2022-01-21T14:01:36.000Z</time>
      </trkpt>
      <trkpt lat="43.51183" lon="6.37713">
        <ele>254</ele>
        <time>2022-01-21T14:01:37.000Z</time>
      </trkpt>
      <trkpt lat="43.51183" lon="6.37713">
        <ele>254</ele>
        <time>2022-01-21T14:01:38.000Z</time>
      </trkpt>
      <trkpt lat="43.51184" lon="6.37713">
        <ele>254</ele>
        <time>2022-01-21T14:01:39.000Z</time>
      </trkpt>
      <trkpt lat="43.51184" lon="6.37712">
        <ele>254</ele>
        <time>2022-01-21T14:01:40.000Z</time>
      </trkpt>
      <trkpt lat="43.51185" lon="6.37712">
        <ele>254</ele>
        <time>2022-01-21T14:01:41.000Z</time>
      </trkpt>
      <trkpt lat="43.51186" lon="6.37712">
        <ele>254</ele>
        <time>2022-01-21T14:01:42.000Z</time>
      </trkpt>
      <trkpt lat="43.51187" lon="6.37711">
        <ele>254</ele>
        <time>2022-01-21T14:01:43.000Z</time>
      </trkpt>
      <trkpt lat="43.51187" lon="6.37711">
        <ele>254</ele>
        <time>2022-01-21T14:01:44.000Z</time>
      </trkpt>
      <trkpt lat="43.51187" lon="6.37711">
        <ele>254</ele>
        <time>2022-01-21T14:01:45.000Z</time>
      </trkpt>
      <trkpt lat="43.51186" lon="6.3771">
        <ele>254</ele>
        <time>2022-01-21T14:01:46.000Z</time>
      </trkpt>
      <trkpt lat="43.51185" lon="6.3771">
        <ele>254</ele>
        <time>2022-01-21T14:01:47.000Z</time>
      </trkpt>
      <trkpt lat="43.51184" lon="6.37709">
        <ele>254</ele>
        <time>2022-01-21T14:01:48.000Z</time>
      </trkpt>
      <trkpt lat="43.51184" lon="6.37709">
        <ele>254</ele>
        <time>2022-01-21T14:01:49.000Z</time>
      </trkpt>
      <trkpt lat="43.51184" lon="6.37708">
        <ele>254</ele>
        <time>2022-01-21T14:01:50.000Z</time>
      </trkpt>
      <trkpt lat="43.51184" lon="6.37708">
        <ele>254</ele>
        <time>2022-01-21T14:01:51.000Z</time>
      </trkpt>
      <trkpt lat="43.51183" lon="6.37708">
        <ele>254</ele>
        <time>2022-01-21T14:01:52.000Z</time>
      </trkpt>
      <trkpt lat="43.51183" lon="6.37708">
        <ele>254</ele>
        <time>2022-01-21T14:01:53.000Z</time>
      </trkpt>
      <trkpt lat="43.51183" lon="6.37708">
        <ele>254</ele>
        <time>2022-01-21T14:01:54.000Z</time>
      </trkpt>
      <trkpt lat="43.51183" lon="6.37707">
        <ele>254</ele>
        <time>2022-01-21T14:01:55.000Z</time>
      </trkpt>
      <trkpt lat="43.51183" lon="6.37707">
        <ele>254</ele>
        <time>2022-01-21T14:01:56.000Z</time>
      </trkpt>
      <trkpt lat="43.51183" lon="6.37707">
        <ele>254</ele>
        <time>2022-01-21T14:01:57.000Z</time>
      </trkpt>
      <trkpt lat="43.51183" lon="6.37707">
        <ele>254</ele>
        <time>2022-01-21T14:01:58.000Z</time>
      </trkpt>
      <trkpt lat="43.51183" lon="6.37707">
        <ele>254</ele>
        <time>2022-01-21T14:01:59.000Z</time>
      </trkpt>
      <trkpt lat="43.51183" lon="6.37707">
        <ele>254</ele>
        <time>2022-01-21T14:02:00.000Z</time>
      </trkpt>
      <trkpt lat="43.51183" lon="6.37707">
        <ele>253</ele>
        <time>2022-01-21T14:02:01.000Z</time>
      </trkpt>
      <trkpt lat="43.51183" lon="6.37707">
        <ele>253</ele>
        <time>2022-01-21T14:02:02.000Z</time>
      </trkpt>
      <trkpt lat="43.51183" lon="6.37707">
        <ele>253</ele>
        <time>2022-01-21T14:02:03.000Z</time>
      </trkpt>
      <trkpt lat="43.51183" lon="6.37707">
        <ele>253</ele>
        <time>2022-01-21T14:02:04.000Z</time>
      </trkpt>
      <trkpt lat="43.51183" lon="6.37707">
        <ele>253</ele>
        <time>2022-01-21T14:02:05.000Z</time>
      </trkpt>
      <trkpt lat="43.51183" lon="6.37707">
        <ele>253</ele>
        <time>2022-01-21T14:02:06.000Z</time>
      </trkpt>
      <trkpt lat="43.51183" lon="6.37707">
        <ele>253</ele>
        <time>2022-01-21T14:02:07.000Z</time>
      </trkpt>
      <trkpt lat="43.51183" lon="6.37707">
        <ele>253</ele>
        <time>2022-01-21T14:02:08.000Z</time>
      </trkpt>
      <trkpt lat="43.51183" lon="6.37707">
        <ele>253</ele>
        <time>2022-01-21T14:02:09.000Z</time>
      </trkpt>
      <trkpt lat="43.51183" lon="6.37706">
        <ele>253</ele>
        <time>2022-01-21T14:02:10.000Z</time>
      </trkpt>
      <trkpt lat="43.51183" lon="6.37705">
        <ele>253</ele>
        <time>2022-01-21T14:02:11.000Z</time>
      </trkpt>
      <trkpt lat="43.51183" lon="6.37705">
        <ele>253</ele>
        <time>2022-01-21T14:02:12.000Z</time>
      </trkpt>
      <trkpt lat="43.51183" lon="6.37705">
        <ele>253</ele>
        <time>2022-01-21T14:02:13.000Z</time>
      </trkpt>
      <trkpt lat="43.51183" lon="6.37705">
        <ele>253</ele>
        <time>2022-01-21T14:02:14.000Z</time>
      </trkpt>
      <trkpt lat="43.51183" lon="6.37705">
        <ele>253</ele>
        <time>2022-01-21T14:02:15.000Z</time>
      </trkpt>
      <trkpt lat="43.51183" lon="6.37705">
        <ele>253</ele>
        <time>2022-01-21T14:02:16.000Z</time>
      </trkpt>
      <trkpt lat="43.51183" lon="6.37705">
        <ele>253</ele>
        <time>2022-01-21T14:02:17.000Z</time>
      </trkpt>
      <trkpt lat="43.51183" lon="6.37705">
        <ele>253</ele>
        <time>2022-01-21T14:02:18.000Z</time>
      </trkpt>
      <trkpt lat="43.51183" lon="6.37705">
        <ele>253</ele>
        <time>2022-01-21T14:02:19.000Z</time>
      </trkpt>
      <trkpt lat="43.51183" lon="6.37705">
        <ele>253</ele>
        <time>2022-01-21T14:02:20.000Z</time>
      </trkpt>
      <trkpt lat="43.51183" lon="6.37705">
        <ele>253</ele>
        <time>2022-01-21T14:02:21.000Z</time>
      </trkpt>
      <trkpt lat="43.51183" lon="6.37705">
        <ele>253</ele>
        <time>2022-01-21T14:02:22.000Z</time>
      </trkpt>
      <trkpt lat="43.51183" lon="6.37705">
        <ele>253</ele>
        <time>2022-01-21T14:02:23.000Z</time>
      </trkpt>
      <trkpt lat="43.51183" lon="6.37705">
        <ele>253</ele>
        <time>2022-01-21T14:02:24.000Z</time>
      </trkpt>
      <trkpt lat="43.51183" lon="6.37705">
        <ele>253</ele>
        <time>2022-01-21T14:02:25.000Z</time>
      </trkpt>
      <trkpt lat="43.51183" lon="6.37705">
        <ele>253</ele>
        <time>2022-01-21T14:02:26.000Z</time>
      </trkpt>
      <trkpt lat="43.51183" lon="6.37705">
        <ele>253</ele>
        <time>2022-01-21T14:02:27.000Z</time>
      </trkpt>
      <trkpt lat="43.51183" lon="6.37705">
        <ele>253</ele>
        <time>2022-01-21T14:02:28.000Z</time>
      </trkpt>
      <trkpt lat="43.51183" lon="6.37705">
        <ele>253</ele>
        <time>2022-01-21T14:02:29.000Z</time>
      </trkpt>
      <trkpt lat="43.51183" lon="6.37705">
        <ele>253</ele>
        <time>2022-01-21T14:02:30.000Z</time>
      </trkpt>
      <trkpt lat="43.51183" lon="6.37705">
        <ele>253</ele>
        <time>2022-01-21T14:02:31.000Z</time>
      </trkpt>
      <trkpt lat="43.51183" lon="6.37705">
        <ele>253</ele>
        <time>2022-01-21T14:02:32.000Z</time>
      </trkpt>
      <trkpt lat="43.51183" lon="6.37705">
        <ele>253</ele>
        <time>2022-01-21T14:02:33.000Z</time>
      </trkpt>
      <trkpt lat="43.51183" lon="6.37705">
        <ele>253</ele>
        <time>2022-01-21T14:02:34.000Z</time>
      </trkpt>
      <trkpt lat="43.51183" lon="6.37705">
        <ele>253</ele>
        <time>2022-01-21T14:02:35.000Z</time>
      </trkpt>
      <trkpt lat="43.51183" lon="6.37705">
        <ele>253</ele>
        <time>2022-01-21T14:02:36.000Z</time>
      </trkpt>
      <trkpt lat="43.51183" lon="6.37705">
        <ele>253</ele>
        <time>2022-01-21T14:02:37.000Z</time>
      </trkpt>
      <trkpt lat="43.51183" lon="6.37705">
        <ele>253</ele>
        <time>2022-01-21T14:02:38.000Z</time>
      </trkpt>
      <trkpt lat="43.51183" lon="6.37705">
        <ele>253</ele>
        <time>2022-01-21T14:02:39.000Z</time>
      </trkpt>
      <trkpt lat="43.51183" lon="6.37705">
        <ele>253</ele>
        <time>2022-01-21T14:02:40.000Z</time>
      </trkpt>
      <trkpt lat="43.51183" lon="6.37705">
        <ele>253</ele>
        <time>2022-01-21T14:02:41.000Z</time>
      </trkpt>
      <trkpt lat="43.51183" lon="6.37705">
        <ele>253</ele>
        <time>2022-01-21T14:02:42.000Z</time>
      </trkpt>
      <trkpt lat="43.51183" lon="6.37705">
        <ele>253</ele>
        <time>2022-01-21T14:02:43.000Z</time>
      </trkpt>
      <trkpt lat="43.51183" lon="6.37705">
        <ele>253</ele>
        <time>2022-01-21T14:02:44.000Z</time>
      </trkpt>
      <trkpt lat="43.51183" lon="6.37705">
        <ele>253</ele>
        <time>2022-01-21T14:02:45.000Z</time>
      </trkpt>
      <trkpt lat="43.51183" lon="6.37705">
        <ele>253</ele>
        <time>2022-01-21T14:02:46.000Z</time>
      </trkpt>
      <trkpt lat="43.51183" lon="6.37705">
        <ele>253</ele>
        <time>2022-01-21T14:02:47.000Z</time>
      </trkpt>
      <trkpt lat="43.51183" lon="6.37705">
        <ele>253</ele>
        <time>2022-01-21T14:02:48.000Z</time>
      </trkpt>
      <trkpt lat="43.51183" lon="6.37705">
        <ele>253</ele>
        <time>2022-01-21T14:02:49.000Z</time>
      </trkpt>
      <trkpt lat="43.51183" lon="6.37705">
        <ele>253</ele>
        <time>2022-01-21T14:02:50.000Z</time>
      </trkpt>
      <trkpt lat="43.51183" lon="6.37705">
        <ele>253</ele>
        <time>2022-01-21T14:02:51.000Z</time>
      </trkpt>
      <trkpt lat="43.51183" lon="6.37705">
        <ele>253</ele>
        <time>2022-01-21T14:02:52.000Z</time>
      </trkpt>
      <trkpt lat="43.51183" lon="6.37705">
        <ele>253</ele>
        <time>2022-01-21T14:02:53.000Z</time>
      </trkpt>
      <trkpt lat="43.51183" lon="6.37705">
        <ele>253</ele>
        <time>2022-01-21T14:02:54.000Z</time>
      </trkpt>
      <trkpt lat="43.51183" lon="6.37705">
        <ele>253</ele>
        <time>2022-01-21T14:02:55.000Z</time>
      </trkpt>
      <trkpt lat="43.51183" lon="6.37705">
        <ele>253</ele>
        <time>2022-01-21T14:02:56.000Z</time>
      </trkpt>
      <trkpt lat="43.51183" lon="6.37705">
        <ele>253</ele>
        <time>2022-01-21T14:02:57.000Z</time>
      </trkpt>
      <trkpt lat="43.51183" lon="6.37705">
        <ele>253</ele>
        <time>2022-01-21T14:02:58.000Z</time>
      </trkpt>
      <trkpt lat="43.51183" lon="6.37705">
        <ele>253</ele>
        <time>2022-01-21T14:02:59.000Z</time>
      </trkpt>
      <trkpt lat="43.51183" lon="6.37705">
        <ele>253</ele>
        <time>2022-01-21T14:03:00.000Z</time>
      </trkpt>
      <trkpt lat="43.51183" lon="6.37705">
        <ele>253</ele>
        <time>2022-01-21T14:03:01.000Z</time>
      </trkpt>
      <trkpt lat="43.51183" lon="6.37705">
        <ele>253</ele>
        <time>2022-01-21T14:03:02.000Z</time>
      </trkpt>
      <trkpt lat="43.51183" lon="6.37705">
        <ele>253</ele>
        <time>2022-01-21T14:03:03.000Z</time>
      </trkpt>
      <trkpt lat="43.51183" lon="6.37705">
        <ele>253</ele>
        <time>2022-01-21T14:03:04.000Z</time>
      </trkpt>
      <trkpt lat="43.51183" lon="6.37705">
        <ele>253</ele>
        <time>2022-01-21T14:03:05.000Z</time>
      </trkpt>
      <trkpt lat="43.51183" lon="6.37705">
        <ele>253</ele>
        <time>2022-01-21T14:03:06.000Z</time>
      </trkpt>
      <trkpt lat="43.51183" lon="6.37705">
        <ele>253</ele>
        <time>2022-01-21T14:03:07.000Z</time>
      </trkpt>
      <trkpt lat="43.51183" lon="6.37705">
        <ele>253</ele>
        <time>2022-01-21T14:03:08.000Z</time>
      </trkpt>
      <trkpt lat="43.51183" lon="6.37705">
        <ele>253</ele>
        <time>2022-01-21T14:03:09.000Z</time>
      </trkpt>
      <trkpt lat="43.51183" lon="6.37705">
        <ele>253</ele>
        <time>2022-01-21T14:03:10.000Z</time>
      </trkpt>
      <trkpt lat="43.51183" lon="6.37705">
        <ele>253</ele>
        <time>2022-01-21T14:03:11.000Z</time>
      </trkpt>
      <trkpt lat="43.51183" lon="6.37705">
        <ele>253</ele>
        <time>2022-01-21T14:03:12.000Z</time>
      </trkpt>
      <trkpt lat="43.51183" lon="6.37705">
        <ele>253</ele>
        <time>2022-01-21T14:03:13.000Z</time>
      </trkpt>
      <trkpt lat="43.51183" lon="6.37705">
        <ele>253</ele>
        <time>2022-01-21T14:03:14.000Z</time>
      </trkpt>
      <trkpt lat="43.51183" lon="6.37705">
        <ele>253</ele>
        <time>2022-01-21T14:03:15.000Z</time>
      </trkpt>
      <trkpt lat="43.51183" lon="6.37705">
        <ele>253</ele>
        <time>2022-01-21T14:03:16.000Z</time>
      </trkpt>
      <trkpt lat="43.51183" lon="6.37705">
        <ele>253</ele>
        <time>2022-01-21T14:03:17.000Z</time>
      </trkpt>
      <trkpt lat="43.51183" lon="6.37705">
        <ele>253</ele>
        <time>2022-01-21T14:03:18.000Z</time>
      </trkpt>
      <trkpt lat="43.51183" lon="6.37705">
        <ele>253</ele>
        <time>2022-01-21T14:03:19.000Z</time>
      </trkpt>
      <trkpt lat="43.51183" lon="6.37705">
        <ele>253</ele>
        <time>2022-01-21T14:03:20.000Z</time>
      </trkpt>
      <trkpt lat="43.51183" lon="6.37705">
        <ele>253</ele>
        <time>2022-01-21T14:03:21.000Z</time>
      </trkpt>
      <trkpt lat="43.51183" lon="6.37705">
        <ele>253</ele>
        <time>2022-01-21T14:03:22.000Z</time>
      </trkpt>
      <trkpt lat="43.51183" lon="6.37704">
        <ele>253</ele>
        <time>2022-01-21T14:03:23.000Z</time>
      </trkpt>
      <trkpt lat="43.51183" lon="6.37703">
        <ele>253</ele>
        <time>2022-01-21T14:03:24.000Z</time>
      </trkpt>
      <trkpt lat="43.51184" lon="6.37702">
        <ele>254</ele>
        <time>2022-01-21T14:03:25.000Z</time>
      </trkpt>
      <trkpt lat="43.51184" lon="6.37701">
        <ele>254</ele>
        <time>2022-01-21T14:03:26.000Z</time>
      </trkpt>
      <trkpt lat="43.51185" lon="6.37699">
        <ele>254</ele>
        <time>2022-01-21T14:03:27.000Z</time>
      </trkpt>
      <trkpt lat="43.51185" lon="6.37697">
        <ele>254</ele>
        <time>2022-01-21T14:03:28.000Z</time>
      </trkpt>
      <trkpt lat="43.51186" lon="6.37696">
        <ele>254</ele>
        <time>2022-01-21T14:03:29.000Z</time>
      </trkpt>
      <trkpt lat="43.51186" lon="6.37694">
        <ele>254</ele>
        <time>2022-01-21T14:03:30.000Z</time>
      </trkpt>
      <trkpt lat="43.51186" lon="6.37693">
        <ele>254</ele>
        <time>2022-01-21T14:03:31.000Z</time>
      </trkpt>
      <trkpt lat="43.51186" lon="6.37692">
        <ele>254</ele>
        <time>2022-01-21T14:03:32.000Z</time>
      </trkpt>
      <trkpt lat="43.51186" lon="6.37692">
        <ele>255</ele>
        <time>2022-01-21T14:03:33.000Z</time>
      </trkpt>
      <trkpt lat="43.51186" lon="6.37691">
        <ele>255</ele>
        <time>2022-01-21T14:03:34.000Z</time>
      </trkpt>
      <trkpt lat="43.51187" lon="6.37691">
        <ele>255</ele>
        <time>2022-01-21T14:03:35.000Z</time>
      </trkpt>
      <trkpt lat="43.51187" lon="6.3769">
        <ele>255</ele>
        <time>2022-01-21T14:03:36.000Z</time>
      </trkpt>
      <trkpt lat="43.51187" lon="6.37689">
        <ele>255</ele>
        <time>2022-01-21T14:03:37.000Z</time>
      </trkpt>
      <trkpt lat="43.51186" lon="6.37687">
        <ele>256</ele>
        <time>2022-01-21T14:03:38.000Z</time>
      </trkpt>
      <trkpt lat="43.51186" lon="6.37685">
        <ele>256</ele>
        <time>2022-01-21T14:03:39.000Z</time>
      </trkpt>
      <trkpt lat="43.51186" lon="6.37684">
        <ele>256</ele>
        <time>2022-01-21T14:03:40.000Z</time>
      </trkpt>
      <trkpt lat="43.51186" lon="6.37683">
        <ele>256</ele>
        <time>2022-01-21T14:03:41.000Z</time>
      </trkpt>
      <trkpt lat="43.51186" lon="6.37683">
        <ele>256</ele>
        <time>2022-01-21T14:03:42.000Z</time>
      </trkpt>
      <trkpt lat="43.51186" lon="6.37683">
        <ele>256</ele>
        <time>2022-01-21T14:03:43.000Z</time>
      </trkpt>
      <trkpt lat="43.51186" lon="6.37682">
        <ele>256</ele>
        <time>2022-01-21T14:03:44.000Z</time>
      </trkpt>
      <trkpt lat="43.51186" lon="6.37682">
        <ele>256</ele>
        <time>2022-01-21T14:03:45.000Z</time>
      </trkpt>
      <trkpt lat="43.51186" lon="6.37682">
        <ele>256</ele>
        <time>2022-01-21T14:03:46.000Z</time>
      </trkpt>
      <trkpt lat="43.51186" lon="6.37681">
        <ele>256</ele>
        <time>2022-01-21T14:03:47.000Z</time>
      </trkpt>
      <trkpt lat="43.51186" lon="6.37681">
        <ele>256</ele>
        <time>2022-01-21T14:03:48.000Z</time>
      </trkpt>
      <trkpt lat="43.51186" lon="6.3768">
        <ele>256</ele>
        <time>2022-01-21T14:03:49.000Z</time>
      </trkpt>
      <trkpt lat="43.51186" lon="6.37679">
        <ele>257</ele>
        <time>2022-01-21T14:03:50.000Z</time>
      </trkpt>
      <trkpt lat="43.51186" lon="6.37677">
        <ele>257</ele>
        <time>2022-01-21T14:03:51.000Z</time>
      </trkpt>
      <trkpt lat="43.51186" lon="6.37676">
        <ele>258</ele>
        <time>2022-01-21T14:03:52.000Z</time>
      </trkpt>
      <trkpt lat="43.51186" lon="6.37675">
        <ele>258</ele>
        <time>2022-01-21T14:03:53.000Z</time>
      </trkpt>
      <trkpt lat="43.51186" lon="6.37674">
        <ele>258</ele>
        <time>2022-01-21T14:03:54.000Z</time>
      </trkpt>
      <trkpt lat="43.51186" lon="6.37672">
        <ele>258</ele>
        <time>2022-01-21T14:03:55.000Z</time>
      </trkpt>
      <trkpt lat="43.51186" lon="6.37671">
        <ele>258</ele>
        <time>2022-01-21T14:03:56.000Z</time>
      </trkpt>
      <trkpt lat="43.51187" lon="6.3767">
        <ele>258</ele>
        <time>2022-01-21T14:03:57.000Z</time>
      </trkpt>
      <trkpt lat="43.51187" lon="6.37669">
        <ele>259</ele>
        <time>2022-01-21T14:03:58.000Z</time>
      </trkpt>
      <trkpt lat="43.51187" lon="6.37668">
        <ele>259</ele>
        <time>2022-01-21T14:03:59.000Z</time>
      </trkpt>
      <trkpt lat="43.51187" lon="6.37667">
        <ele>259</ele>
        <time>2022-01-21T14:04:00.000Z</time>
      </trkpt>
      <trkpt lat="43.51187" lon="6.37666">
        <ele>259</ele>
        <time>2022-01-21T14:04:01.000Z</time>
      </trkpt>
      <trkpt lat="43.51187" lon="6.37666">
        <ele>259</ele>
        <time>2022-01-21T14:04:02.000Z</time>
      </trkpt>
      <trkpt lat="43.51187" lon="6.37666">
        <ele>259</ele>
        <time>2022-01-21T14:04:03.000Z</time>
      </trkpt>
      <trkpt lat="43.51187" lon="6.37666">
        <ele>259</ele>
        <time>2022-01-21T14:04:04.000Z</time>
      </trkpt>
      <trkpt lat="43.51187" lon="6.37665">
        <ele>259</ele>
        <time>2022-01-21T14:04:05.000Z</time>
      </trkpt>
      <trkpt lat="43.51187" lon="6.37665">
        <ele>259</ele>
        <time>2022-01-21T14:04:06.000Z</time>
      </trkpt>
      <trkpt lat="43.51187" lon="6.37665">
        <ele>259</ele>
        <time>2022-01-21T14:04:07.000Z</time>
      </trkpt>
      <trkpt lat="43.51187" lon="6.37665">
        <ele>259</ele>
        <time>2022-01-21T14:04:08.000Z</time>
      </trkpt>
      <trkpt lat="43.51188" lon="6.37665">
        <ele>260</ele>
        <time>2022-01-21T14:04:09.000Z</time>
      </trkpt>
      <trkpt lat="43.51188" lon="6.37664">
        <ele>260</ele>
        <time>2022-01-21T14:04:10.000Z</time>
      </trkpt>
      <trkpt lat="43.51188" lon="6.37664">
        <ele>260</ele>
        <time>2022-01-21T14:04:11.000Z</time>
      </trkpt>
      <trkpt lat="43.51188" lon="6.37664">
        <ele>260</ele>
        <time>2022-01-21T14:04:12.000Z</time>
      </trkpt>
      <trkpt lat="43.51188" lon="6.37664">
        <ele>260</ele>
        <time>2022-01-21T14:04:13.000Z</time>
      </trkpt>
      <trkpt lat="43.51188" lon="6.37664">
        <ele>260</ele>
        <time>2022-01-21T14:04:14.000Z</time>
      </trkpt>
      <trkpt lat="43.51188" lon="6.37664">
        <ele>260</ele>
        <time>2022-01-21T14:04:15.000Z</time>
      </trkpt>
      <trkpt lat="43.51188" lon="6.37664">
        <ele>260</ele>
        <time>2022-01-21T14:04:16.000Z</time>
      </trkpt>
      <trkpt lat="43.51188" lon="6.37664">
        <ele>260</ele>
        <time>2022-01-21T14:04:17.000Z</time>
      </trkpt>
      <trkpt lat="43.51188" lon="6.37664">
        <ele>260</ele>
        <time>2022-01-21T14:04:18.000Z</time>
      </trkpt>
      <trkpt lat="43.51188" lon="6.37664">
        <ele>260</ele>
        <time>2022-01-21T14:04:19.000Z</time>
      </trkpt>
      <trkpt lat="43.51188" lon="6.37664">
        <ele>260</ele>
        <time>2022-01-21T14:04:20.000Z</time>
      </trkpt>
      <trkpt lat="43.51188" lon="6.37663">
        <ele>260</ele>
        <time>2022-01-21T14:04:21.000Z</time>
      </trkpt>
      <trkpt lat="43.51188" lon="6.37662">
        <ele>260</ele>
        <time>2022-01-21T14:04:22.000Z</time>
      </trkpt>
      <trkpt lat="43.51188" lon="6.37661">
        <ele>260</ele>
        <time>2022-01-21T14:04:23.000Z</time>
      </trkpt>
      <trkpt lat="43.51187" lon="6.37659">
        <ele>260</ele>
        <time>2022-01-21T14:04:24.000Z</time>
      </trkpt>
      <trkpt lat="43.51187" lon="6.37658">
        <ele>260</ele>
        <time>2022-01-21T14:04:25.000Z</time>
      </trkpt>
      <trkpt lat="43.51187" lon="6.37657">
        <ele>260</ele>
        <time>2022-01-21T14:04:26.000Z</time>
      </trkpt>
      <trkpt lat="43.51186" lon="6.37656">
        <ele>260</ele>
        <time>2022-01-21T14:04:27.000Z</time>
      </trkpt>
      <trkpt lat="43.51186" lon="6.37655">
        <ele>260</ele>
        <time>2022-01-21T14:04:28.000Z</time>
      </trkpt>
      <trkpt lat="43.51186" lon="6.37654">
        <ele>260</ele>
        <time>2022-01-21T14:04:29.000Z</time>
      </trkpt>
      <trkpt lat="43.51185" lon="6.37653">
        <ele>260</ele>
        <time>2022-01-21T14:04:30.000Z</time>
      </trkpt>
      <trkpt lat="43.51185" lon="6.37652">
        <ele>260</ele>
        <time>2022-01-21T14:04:31.000Z</time>
      </trkpt>
      <trkpt lat="43.51185" lon="6.37651">
        <ele>261</ele>
        <time>2022-01-21T14:04:32.000Z</time>
      </trkpt>
      <trkpt lat="43.51184" lon="6.37649">
        <ele>261</ele>
        <time>2022-01-21T14:04:33.000Z</time>
      </trkpt>
      <trkpt lat="43.51184" lon="6.37647">
        <ele>261</ele>
        <time>2022-01-21T14:04:34.000Z</time>
      </trkpt>
      <trkpt lat="43.51183" lon="6.37645">
        <ele>261</ele>
        <time>2022-01-21T14:04:35.000Z</time>
      </trkpt>
      <trkpt lat="43.51183" lon="6.37644">
        <ele>262</ele>
        <time>2022-01-21T14:04:36.000Z</time>
      </trkpt>
      <trkpt lat="43.51183" lon="6.37643">
        <ele>262</ele>
        <time>2022-01-21T14:04:37.000Z</time>
      </trkpt>
      <trkpt lat="43.51183" lon="6.37643">
        <ele>262</ele>
        <time>2022-01-21T14:04:38.000Z</time>
      </trkpt>
      <trkpt lat="43.51183" lon="6.37642">
        <ele>262</ele>
        <time>2022-01-21T14:04:39.000Z</time>
      </trkpt>
      <trkpt lat="43.51182" lon="6.37641">
        <ele>262</ele>
        <time>2022-01-21T14:04:40.000Z</time>
      </trkpt>
      <trkpt lat="43.51182" lon="6.37641">
        <ele>262</ele>
        <time>2022-01-21T14:04:41.000Z</time>
      </trkpt>
      <trkpt lat="43.51182" lon="6.3764">
        <ele>262</ele>
        <time>2022-01-21T14:04:42.000Z</time>
      </trkpt>
      <trkpt lat="43.51182" lon="6.37639">
        <ele>263</ele>
        <time>2022-01-21T14:04:43.000Z</time>
      </trkpt>
      <trkpt lat="43.51182" lon="6.37638">
        <ele>263</ele>
        <time>2022-01-21T14:04:44.000Z</time>
      </trkpt>
      <trkpt lat="43.51182" lon="6.37637">
        <ele>263</ele>
        <time>2022-01-21T14:04:45.000Z</time>
      </trkpt>
      <trkpt lat="43.51181" lon="6.37636">
        <ele>263</ele>
        <time>2022-01-21T14:04:46.000Z</time>
      </trkpt>
      <trkpt lat="43.51181" lon="6.37635">
        <ele>263</ele>
        <time>2022-01-21T14:04:47.000Z</time>
      </trkpt>
      <trkpt lat="43.5118" lon="6.37634">
        <ele>264</ele>
        <time>2022-01-21T14:04:48.000Z</time>
      </trkpt>
      <trkpt lat="43.5118" lon="6.37633">
        <ele>264</ele>
        <time>2022-01-21T14:04:49.000Z</time>
      </trkpt>
      <trkpt lat="43.5118" lon="6.37632">
        <ele>264</ele>
        <time>2022-01-21T14:04:50.000Z</time>
      </trkpt>
      <trkpt lat="43.51179" lon="6.37632">
        <ele>264</ele>
        <time>2022-01-21T14:04:51.000Z</time>
      </trkpt>
      <trkpt lat="43.51179" lon="6.37632">
        <ele>264</ele>
        <time>2022-01-21T14:04:52.000Z</time>
      </trkpt>
      <trkpt lat="43.51179" lon="6.37631">
        <ele>265</ele>
        <time>2022-01-21T14:04:53.000Z</time>
      </trkpt>
      <trkpt lat="43.51179" lon="6.37631">
        <ele>265</ele>
        <time>2022-01-21T14:04:54.000Z</time>
      </trkpt>
      <trkpt lat="43.51179" lon="6.37631">
        <ele>265</ele>
        <time>2022-01-21T14:04:55.000Z</time>
      </trkpt>
      <trkpt lat="43.51179" lon="6.37631">
        <ele>265</ele>
        <time>2022-01-21T14:04:56.000Z</time>
      </trkpt>
      <trkpt lat="43.51179" lon="6.3763">
        <ele>265</ele>
        <time>2022-01-21T14:04:57.000Z</time>
      </trkpt>
      <trkpt lat="43.51179" lon="6.3763">
        <ele>265</ele>
        <time>2022-01-21T14:04:58.000Z</time>
      </trkpt>
      <trkpt lat="43.51179" lon="6.3763">
        <ele>265</ele>
        <time>2022-01-21T14:04:59.000Z</time>
      </trkpt>
      <trkpt lat="43.51179" lon="6.3763">
        <ele>265</ele>
        <time>2022-01-21T14:05:00.000Z</time>
      </trkpt>
      <trkpt lat="43.51179" lon="6.3763">
        <ele>265</ele>
        <time>2022-01-21T14:05:01.000Z</time>
      </trkpt>
      <trkpt lat="43.51178" lon="6.3763">
        <ele>265</ele>
        <time>2022-01-21T14:05:02.000Z</time>
      </trkpt>
      <trkpt lat="43.51178" lon="6.37629">
        <ele>266</ele>
        <time>2022-01-21T14:05:03.000Z</time>
      </trkpt>
      <trkpt lat="43.51178" lon="6.37629">
        <ele>266</ele>
        <time>2022-01-21T14:05:04.000Z</time>
      </trkpt>
      <trkpt lat="43.51178" lon="6.37628">
        <ele>267</ele>
        <time>2022-01-21T14:05:05.000Z</time>
      </trkpt>
      <trkpt lat="43.51178" lon="6.37628">
        <ele>267</ele>
        <time>2022-01-21T14:05:06.000Z</time>
      </trkpt>
      <trkpt lat="43.51178" lon="6.37627">
        <ele>267</ele>
        <time>2022-01-21T14:05:07.000Z</time>
      </trkpt>
      <trkpt lat="43.51178" lon="6.37626">
        <ele>268</ele>
        <time>2022-01-21T14:05:08.000Z</time>
      </trkpt>
      <trkpt lat="43.51178" lon="6.37625">
        <ele>268</ele>
        <time>2022-01-21T14:05:09.000Z</time>
      </trkpt>
      <trkpt lat="43.51178" lon="6.37624">
        <ele>268</ele>
        <time>2022-01-21T14:05:10.000Z</time>
      </trkpt>
      <trkpt lat="43.51178" lon="6.37623">
        <ele>268</ele>
        <time>2022-01-21T14:05:11.000Z</time>
      </trkpt>
      <trkpt lat="43.51178" lon="6.37621">
        <ele>269</ele>
        <time>2022-01-21T14:05:12.000Z</time>
      </trkpt>
      <trkpt lat="43.51178" lon="6.3762">
        <ele>269</ele>
        <time>2022-01-21T14:05:13.000Z</time>
      </trkpt>
      <trkpt lat="43.51178" lon="6.37618">
        <ele>269</ele>
        <time>2022-01-21T14:05:14.000Z</time>
      </trkpt>
      <trkpt lat="43.51178" lon="6.37617">
        <ele>269</ele>
        <time>2022-01-21T14:05:15.000Z</time>
      </trkpt>
      <trkpt lat="43.51178" lon="6.37616">
        <ele>270</ele>
        <time>2022-01-21T14:05:16.000Z</time>
      </trkpt>
      <trkpt lat="43.51178" lon="6.37616">
        <ele>270</ele>
        <time>2022-01-21T14:05:17.000Z</time>
      </trkpt>
      <trkpt lat="43.51178" lon="6.37615">
        <ele>271</ele>
        <time>2022-01-21T14:05:18.000Z</time>
      </trkpt>
      <trkpt lat="43.51177" lon="6.37614">
        <ele>271</ele>
        <time>2022-01-21T14:05:19.000Z</time>
      </trkpt>
      <trkpt lat="43.51177" lon="6.37613">
        <ele>271</ele>
        <time>2022-01-21T14:05:20.000Z</time>
      </trkpt>
      <trkpt lat="43.51177" lon="6.37612">
        <ele>272</ele>
        <time>2022-01-21T14:05:21.000Z</time>
      </trkpt>
      <trkpt lat="43.51177" lon="6.37611">
        <ele>272</ele>
        <time>2022-01-21T14:05:22.000Z</time>
      </trkpt>
      <trkpt lat="43.51177" lon="6.3761">
        <ele>272</ele>
        <time>2022-01-21T14:05:23.000Z</time>
      </trkpt>
      <trkpt lat="43.51177" lon="6.37608">
        <ele>272</ele>
        <time>2022-01-21T14:05:24.000Z</time>
      </trkpt>
      <trkpt lat="43.51177" lon="6.37607">
        <ele>273</ele>
        <time>2022-01-21T14:05:25.000Z</time>
      </trkpt>
      <trkpt lat="43.51177" lon="6.37605">
        <ele>273</ele>
        <time>2022-01-21T14:05:26.000Z</time>
      </trkpt>
      <trkpt lat="43.51178" lon="6.37604">
        <ele>273</ele>
        <time>2022-01-21T14:05:27.000Z</time>
      </trkpt>
      <trkpt lat="43.51178" lon="6.37603">
        <ele>275</ele>
        <time>2022-01-21T14:05:28.000Z</time>
      </trkpt>
      <trkpt lat="43.51178" lon="6.37602">
        <ele>276</ele>
        <time>2022-01-21T14:05:29.000Z</time>
      </trkpt>
      <trkpt lat="43.51178" lon="6.37602">
        <ele>276</ele>
        <time>2022-01-21T14:05:30.000Z</time>
      </trkpt>
      <trkpt lat="43.51178" lon="6.37601">
        <ele>276</ele>
        <time>2022-01-21T14:05:31.000Z</time>
      </trkpt>
      <trkpt lat="43.51178" lon="6.37601">
        <ele>276</ele>
        <time>2022-01-21T14:05:32.000Z</time>
      </trkpt>
      <trkpt lat="43.51178" lon="6.37601">
        <ele>276</ele>
        <time>2022-01-21T14:05:33.000Z</time>
      </trkpt>
      <trkpt lat="43.51178" lon="6.37601">
        <ele>276</ele>
        <time>2022-01-21T14:05:34.000Z</time>
      </trkpt>
      <trkpt lat="43.51178" lon="6.376">
        <ele>276</ele>
        <time>2022-01-21T14:05:35.000Z</time>
      </trkpt>
      <trkpt lat="43.51178" lon="6.376">
        <ele>276</ele>
        <time>2022-01-21T14:05:36.000Z</time>
      </trkpt>
      <trkpt lat="43.51179" lon="6.37599">
        <ele>276</ele>
        <time>2022-01-21T14:05:37.000Z</time>
      </trkpt>
      <trkpt lat="43.51179" lon="6.37599">
        <ele>277</ele>
        <time>2022-01-21T14:05:38.000Z</time>
      </trkpt>
      <trkpt lat="43.51179" lon="6.37598">
        <ele>277</ele>
        <time>2022-01-21T14:05:39.000Z</time>
      </trkpt>
      <trkpt lat="43.51179" lon="6.37598">
        <ele>277</ele>
        <time>2022-01-21T14:05:40.000Z</time>
      </trkpt>
      <trkpt lat="43.5118" lon="6.37597">
        <ele>277</ele>
        <time>2022-01-21T14:05:41.000Z</time>
      </trkpt>
      <trkpt lat="43.5118" lon="6.37597">
        <ele>277</ele>
        <time>2022-01-21T14:05:42.000Z</time>
      </trkpt>
      <trkpt lat="43.51181" lon="6.37596">
        <ele>277</ele>
        <time>2022-01-21T14:05:43.000Z</time>
      </trkpt>
      <trkpt lat="43.51182" lon="6.37596">
        <ele>277</ele>
        <time>2022-01-21T14:05:44.000Z</time>
      </trkpt>
      <trkpt lat="43.51182" lon="6.37595">
        <ele>278</ele>
        <time>2022-01-21T14:05:45.000Z</time>
      </trkpt>
      <trkpt lat="43.51183" lon="6.37594">
        <ele>278</ele>
        <time>2022-01-21T14:05:46.000Z</time>
      </trkpt>
      <trkpt lat="43.51183" lon="6.37593">
        <ele>278</ele>
        <time>2022-01-21T14:05:47.000Z</time>
      </trkpt>
      <trkpt lat="43.51184" lon="6.37593">
        <ele>278</ele>
        <time>2022-01-21T14:05:48.000Z</time>
      </trkpt>
      <trkpt lat="43.51184" lon="6.37592">
        <ele>279</ele>
        <time>2022-01-21T14:05:49.000Z</time>
      </trkpt>
      <trkpt lat="43.51184" lon="6.37591">
        <ele>280</ele>
        <time>2022-01-21T14:05:50.000Z</time>
      </trkpt>
      <trkpt lat="43.51184" lon="6.3759">
        <ele>280</ele>
        <time>2022-01-21T14:05:51.000Z</time>
      </trkpt>
      <trkpt lat="43.51185" lon="6.37589">
        <ele>280</ele>
        <time>2022-01-21T14:05:52.000Z</time>
      </trkpt>
      <trkpt lat="43.51185" lon="6.37589">
        <ele>280</ele>
        <time>2022-01-21T14:05:53.000Z</time>
      </trkpt>
      <trkpt lat="43.51185" lon="6.37588">
        <ele>280</ele>
        <time>2022-01-21T14:05:54.000Z</time>
      </trkpt>
      <trkpt lat="43.51186" lon="6.37587">
        <ele>280</ele>
        <time>2022-01-21T14:05:55.000Z</time>
      </trkpt>
      <trkpt lat="43.51186" lon="6.37586">
        <ele>280</ele>
        <time>2022-01-21T14:05:56.000Z</time>
      </trkpt>
      <trkpt lat="43.51186" lon="6.37586">
        <ele>280</ele>
        <time>2022-01-21T14:05:57.000Z</time>
      </trkpt>
      <trkpt lat="43.51186" lon="6.37586">
        <ele>280</ele>
        <time>2022-01-21T14:05:58.000Z</time>
      </trkpt>
      <trkpt lat="43.51186" lon="6.37586">
        <ele>280</ele>
        <time>2022-01-21T14:05:59.000Z</time>
      </trkpt>
      <trkpt lat="43.51186" lon="6.37585">
        <ele>281</ele>
        <time>2022-01-21T14:06:00.000Z</time>
      </trkpt>
      <trkpt lat="43.51186" lon="6.37585">
        <ele>281</ele>
        <time>2022-01-21T14:06:01.000Z</time>
      </trkpt>
      <trkpt lat="43.51186" lon="6.37585">
        <ele>281</ele>
        <time>2022-01-21T14:06:02.000Z</time>
      </trkpt>
      <trkpt lat="43.51186" lon="6.37585">
        <ele>281</ele>
        <time>2022-01-21T14:06:03.000Z</time>
      </trkpt>
      <trkpt lat="43.51186" lon="6.37584">
        <ele>281</ele>
        <time>2022-01-21T14:06:04.000Z</time>
      </trkpt>
      <trkpt lat="43.51187" lon="6.37584">
        <ele>281</ele>
        <time>2022-01-21T14:06:05.000Z</time>
      </trkpt>
      <trkpt lat="43.51187" lon="6.37583">
        <ele>281</ele>
        <time>2022-01-21T14:06:06.000Z</time>
      </trkpt>
      <trkpt lat="43.51187" lon="6.37583">
        <ele>281</ele>
        <time>2022-01-21T14:06:07.000Z</time>
      </trkpt>
      <trkpt lat="43.51187" lon="6.37583">
        <ele>281</ele>
        <time>2022-01-21T14:06:08.000Z</time>
      </trkpt>
      <trkpt lat="43.51187" lon="6.37583">
        <ele>281</ele>
        <time>2022-01-21T14:06:09.000Z</time>
      </trkpt>
      <trkpt lat="43.51188" lon="6.37583">
        <ele>281</ele>
        <time>2022-01-21T14:06:10.000Z</time>
      </trkpt>
      <trkpt lat="43.51188" lon="6.37583">
        <ele>281</ele>
        <time>2022-01-21T14:06:11.000Z</time>
      </trkpt>
      <trkpt lat="43.51188" lon="6.37582">
        <ele>281</ele>
        <time>2022-01-21T14:06:12.000Z</time>
      </trkpt>
      <trkpt lat="43.51188" lon="6.37582">
        <ele>281</ele>
        <time>2022-01-21T14:06:13.000Z</time>
      </trkpt>
      <trkpt lat="43.51189" lon="6.37581">
        <ele>281</ele>
        <time>2022-01-21T14:06:14.000Z</time>
      </trkpt>
      <trkpt lat="43.51189" lon="6.37581">
        <ele>281</ele>
        <time>2022-01-21T14:06:15.000Z</time>
      </trkpt>
      <trkpt lat="43.51189" lon="6.37581">
        <ele>282</ele>
        <time>2022-01-21T14:06:16.000Z</time>
      </trkpt>
      <trkpt lat="43.51189" lon="6.37581">
        <ele>282</ele>
        <time>2022-01-21T14:06:17.000Z</time>
      </trkpt>
      <trkpt lat="43.5119" lon="6.37581">
        <ele>282</ele>
        <time>2022-01-21T14:06:18.000Z</time>
      </trkpt>
      <trkpt lat="43.5119" lon="6.37581">
        <ele>282</ele>
        <time>2022-01-21T14:06:19.000Z</time>
      </trkpt>
      <trkpt lat="43.5119" lon="6.37581">
        <ele>282</ele>
        <time>2022-01-21T14:06:20.000Z</time>
      </trkpt>
      <trkpt lat="43.5119" lon="6.37581">
        <ele>282</ele>
        <time>2022-01-21T14:06:21.000Z</time>
      </trkpt>
      <trkpt lat="43.5119" lon="6.37581">
        <ele>282</ele>
        <time>2022-01-21T14:06:22.000Z</time>
      </trkpt>
      <trkpt lat="43.5119" lon="6.3758">
        <ele>282</ele>
        <time>2022-01-21T14:06:23.000Z</time>
      </trkpt>
      <trkpt lat="43.51191" lon="6.3758">
        <ele>282</ele>
        <time>2022-01-21T14:06:24.000Z</time>
      </trkpt>
      <trkpt lat="43.51191" lon="6.3758">
        <ele>282</ele>
        <time>2022-01-21T14:06:25.000Z</time>
      </trkpt>
      <trkpt lat="43.51192" lon="6.37579">
        <ele>282</ele>
        <time>2022-01-21T14:06:26.000Z</time>
      </trkpt>
      <trkpt lat="43.51192" lon="6.37579">
        <ele>282</ele>
        <time>2022-01-21T14:06:27.000Z</time>
      </trkpt>
      <trkpt lat="43.51193" lon="6.37579">
        <ele>282</ele>
        <time>2022-01-21T14:06:28.000Z</time>
      </trkpt>
      <trkpt lat="43.51193" lon="6.37578">
        <ele>282</ele>
        <time>2022-01-21T14:06:29.000Z</time>
      </trkpt>
      <trkpt lat="43.51194" lon="6.37578">
        <ele>282</ele>
        <time>2022-01-21T14:06:30.000Z</time>
      </trkpt>
      <trkpt lat="43.51195" lon="6.37578">
        <ele>282</ele>
        <time>2022-01-21T14:06:31.000Z</time>
      </trkpt>
      <trkpt lat="43.51195" lon="6.37577">
        <ele>282</ele>
        <time>2022-01-21T14:06:32.000Z</time>
      </trkpt>
      <trkpt lat="43.51196" lon="6.37577">
        <ele>282</ele>
        <time>2022-01-21T14:06:33.000Z</time>
      </trkpt>
      <trkpt lat="43.51196" lon="6.37576">
        <ele>282</ele>
        <time>2022-01-21T14:06:34.000Z</time>
      </trkpt>
      <trkpt lat="43.51197" lon="6.37575">
        <ele>281</ele>
        <time>2022-01-21T14:06:35.000Z</time>
      </trkpt>
      <trkpt lat="43.51197" lon="6.37574">
        <ele>281</ele>
        <time>2022-01-21T14:06:36.000Z</time>
      </trkpt>
      <trkpt lat="43.51197" lon="6.37574">
        <ele>281</ele>
        <time>2022-01-21T14:06:37.000Z</time>
      </trkpt>
      <trkpt lat="43.51197" lon="6.37574">
        <ele>281</ele>
        <time>2022-01-21T14:06:38.000Z</time>
      </trkpt>
      <trkpt lat="43.51198" lon="6.37573">
        <ele>281</ele>
        <time>2022-01-21T14:06:39.000Z</time>
      </trkpt>
      <trkpt lat="43.51198" lon="6.37573">
        <ele>280</ele>
        <time>2022-01-21T14:06:40.000Z</time>
      </trkpt>
      <trkpt lat="43.51198" lon="6.37573">
        <ele>280</ele>
        <time>2022-01-21T14:06:41.000Z</time>
      </trkpt>
      <trkpt lat="43.51198" lon="6.37573">
        <ele>280</ele>
        <time>2022-01-21T14:06:42.000Z</time>
      </trkpt>
      <trkpt lat="43.51198" lon="6.37573">
        <ele>280</ele>
        <time>2022-01-21T14:06:43.000Z</time>
      </trkpt>
      <trkpt lat="43.51198" lon="6.37573">
        <ele>280</ele>
        <time>2022-01-21T14:06:44.000Z</time>
      </trkpt>
      <trkpt lat="43.51198" lon="6.37572">
        <ele>280</ele>
        <time>2022-01-21T14:06:45.000Z</time>
      </trkpt>
      <trkpt lat="43.51198" lon="6.37572">
        <ele>280</ele>
        <time>2022-01-21T14:06:46.000Z</time>
      </trkpt>
      <trkpt lat="43.51198" lon="6.37572">
        <ele>280</ele>
        <time>2022-01-21T14:06:47.000Z</time>
      </trkpt>
      <trkpt lat="43.51198" lon="6.37572">
        <ele>280</ele>
        <time>2022-01-21T14:06:48.000Z</time>
      </trkpt>
      <trkpt lat="43.51198" lon="6.37572">
        <ele>280</ele>
        <time>2022-01-21T14:06:49.000Z</time>
      </trkpt>
      <trkpt lat="43.51198" lon="6.37572">
        <ele>280</ele>
        <time>2022-01-21T14:06:50.000Z</time>
      </trkpt>
      <trkpt lat="43.51198" lon="6.37572">
        <ele>280</ele>
        <time>2022-01-21T14:06:51.000Z</time>
      </trkpt>
      <trkpt lat="43.51198" lon="6.37572">
        <ele>280</ele>
        <time>2022-01-21T14:06:52.000Z</time>
      </trkpt>
      <trkpt lat="43.51198" lon="6.37572">
        <ele>280</ele>
        <time>2022-01-21T14:06:53.000Z</time>
      </trkpt>
      <trkpt lat="43.51198" lon="6.37572">
        <ele>280</ele>
        <time>2022-01-21T14:06:54.000Z</time>
      </trkpt>
      <trkpt lat="43.51198" lon="6.37572">
        <ele>280</ele>
        <time>2022-01-21T14:06:55.000Z</time>
      </trkpt>
      <trkpt lat="43.51199" lon="6.37572">
        <ele>280</ele>
        <time>2022-01-21T14:06:56.000Z</time>
      </trkpt>
      <trkpt lat="43.51199" lon="6.37572">
        <ele>280</ele>
        <time>2022-01-21T14:06:57.000Z</time>
      </trkpt>
      <trkpt lat="43.512" lon="6.37572">
        <ele>280</ele>
        <time>2022-01-21T14:06:58.000Z</time>
      </trkpt>
      <trkpt lat="43.512" lon="6.37572">
        <ele>280</ele>
        <time>2022-01-21T14:06:59.000Z</time>
      </trkpt>
      <trkpt lat="43.51201" lon="6.37572">
        <ele>280</ele>
        <time>2022-01-21T14:07:00.000Z</time>
      </trkpt>
      <trkpt lat="43.51202" lon="6.37572">
        <ele>280</ele>
        <time>2022-01-21T14:07:01.000Z</time>
      </trkpt>
      <trkpt lat="43.51203" lon="6.37572">
        <ele>280</ele>
        <time>2022-01-21T14:07:02.000Z</time>
      </trkpt>
      <trkpt lat="43.51204" lon="6.37572">
        <ele>280</ele>
        <time>2022-01-21T14:07:03.000Z</time>
      </trkpt>
      <trkpt lat="43.51205" lon="6.37572">
        <ele>280</ele>
        <time>2022-01-21T14:07:04.000Z</time>
      </trkpt>
      <trkpt lat="43.51205" lon="6.37572">
        <ele>280</ele>
        <time>2022-01-21T14:07:05.000Z</time>
      </trkpt>
      <trkpt lat="43.51206" lon="6.37571">
        <ele>280</ele>
        <time>2022-01-21T14:07:06.000Z</time>
      </trkpt>
      <trkpt lat="43.51206" lon="6.37571">
        <ele>280</ele>
        <time>2022-01-21T14:07:07.000Z</time>
      </trkpt>
      <trkpt lat="43.51206" lon="6.37571">
        <ele>280</ele>
        <time>2022-01-21T14:07:08.000Z</time>
      </trkpt>
      <trkpt lat="43.51207" lon="6.37571">
        <ele>280</ele>
        <time>2022-01-21T14:07:09.000Z</time>
      </trkpt>
      <trkpt lat="43.51208" lon="6.3757">
        <ele>280</ele>
        <time>2022-01-21T14:07:10.000Z</time>
      </trkpt>
      <trkpt lat="43.51208" lon="6.3757">
        <ele>279</ele>
        <time>2022-01-21T14:07:11.000Z</time>
      </trkpt>
      <trkpt lat="43.51209" lon="6.3757">
        <ele>279</ele>
        <time>2022-01-21T14:07:12.000Z</time>
      </trkpt>
      <trkpt lat="43.5121" lon="6.37569">
        <ele>279</ele>
        <time>2022-01-21T14:07:13.000Z</time>
      </trkpt>
      <trkpt lat="43.5121" lon="6.37569">
        <ele>279</ele>
        <time>2022-01-21T14:07:14.000Z</time>
      </trkpt>
      <trkpt lat="43.51211" lon="6.37568">
        <ele>279</ele>
        <time>2022-01-21T14:07:15.000Z</time>
      </trkpt>
      <trkpt lat="43.51213" lon="6.37568">
        <ele>279</ele>
        <time>2022-01-21T14:07:16.000Z</time>
      </trkpt>
      <trkpt lat="43.51214" lon="6.37568">
        <ele>279</ele>
        <time>2022-01-21T14:07:17.000Z</time>
      </trkpt>
      <trkpt lat="43.51215" lon="6.37568">
        <ele>279</ele>
        <time>2022-01-21T14:07:18.000Z</time>
      </trkpt>
      <trkpt lat="43.51216" lon="6.37567">
        <ele>279</ele>
        <time>2022-01-21T14:07:19.000Z</time>
      </trkpt>
      <trkpt lat="43.51216" lon="6.37567">
        <ele>279</ele>
        <time>2022-01-21T14:07:20.000Z</time>
      </trkpt>
      <trkpt lat="43.51217" lon="6.37567">
        <ele>279</ele>
        <time>2022-01-21T14:07:21.000Z</time>
      </trkpt>
      <trkpt lat="43.51217" lon="6.37566">
        <ele>279</ele>
        <time>2022-01-21T14:07:22.000Z</time>
      </trkpt>
      <trkpt lat="43.51218" lon="6.37566">
        <ele>279</ele>
        <time>2022-01-21T14:07:23.000Z</time>
      </trkpt>
      <trkpt lat="43.51219" lon="6.37565">
        <ele>279</ele>
        <time>2022-01-21T14:07:24.000Z</time>
      </trkpt>
      <trkpt lat="43.51219" lon="6.37564">
        <ele>279</ele>
        <time>2022-01-21T14:07:25.000Z</time>
      </trkpt>
      <trkpt lat="43.5122" lon="6.37564">
        <ele>279</ele>
        <time>2022-01-21T14:07:26.000Z</time>
      </trkpt>
      <trkpt lat="43.51221" lon="6.37563">
        <ele>279</ele>
        <time>2022-01-21T14:07:27.000Z</time>
      </trkpt>
      <trkpt lat="43.51221" lon="6.37563">
        <ele>279</ele>
        <time>2022-01-21T14:07:28.000Z</time>
      </trkpt>
      <trkpt lat="43.51222" lon="6.37562">
        <ele>279</ele>
        <time>2022-01-21T14:07:29.000Z</time>
      </trkpt>
      <trkpt lat="43.51223" lon="6.37561">
        <ele>279</ele>
        <time>2022-01-21T14:07:30.000Z</time>
      </trkpt>
      <trkpt lat="43.51223" lon="6.37561">
        <ele>280</ele>
        <time>2022-01-21T14:07:31.000Z</time>
      </trkpt>
      <trkpt lat="43.51224" lon="6.37561">
        <ele>280</ele>
        <time>2022-01-21T14:07:32.000Z</time>
      </trkpt>
      <trkpt lat="43.51224" lon="6.3756">
        <ele>280</ele>
        <time>2022-01-21T14:07:33.000Z</time>
      </trkpt>
      <trkpt lat="43.51224" lon="6.3756">
        <ele>280</ele>
        <time>2022-01-21T14:07:34.000Z</time>
      </trkpt>
      <trkpt lat="43.51224" lon="6.3756">
        <ele>280</ele>
        <time>2022-01-21T14:07:35.000Z</time>
      </trkpt>
      <trkpt lat="43.51224" lon="6.3756">
        <ele>280</ele>
        <time>2022-01-21T14:07:36.000Z</time>
      </trkpt>
      <trkpt lat="43.51224" lon="6.3756">
        <ele>280</ele>
        <time>2022-01-21T14:07:37.000Z</time>
      </trkpt>
      <trkpt lat="43.51224" lon="6.3756">
        <ele>280</ele>
        <time>2022-01-21T14:07:38.000Z</time>
      </trkpt>
      <trkpt lat="43.51224" lon="6.3756">
        <ele>280</ele>
        <time>2022-01-21T14:07:39.000Z</time>
      </trkpt>
      <trkpt lat="43.51224" lon="6.3756">
        <ele>280</ele>
        <time>2022-01-21T14:07:40.000Z</time>
      </trkpt>
      <trkpt lat="43.51224" lon="6.3756">
        <ele>280</ele>
        <time>2022-01-21T14:07:41.000Z</time>
      </trkpt>
      <trkpt lat="43.51224" lon="6.3756">
        <ele>280</ele>
        <time>2022-01-21T14:07:42.000Z</time>
      </trkpt>
      <trkpt lat="43.51224" lon="6.3756">
        <ele>280</ele>
        <time>2022-01-21T14:07:43.000Z</time>
      </trkpt>
      <trkpt lat="43.51224" lon="6.3756">
        <ele>280</ele>
        <time>2022-01-21T14:07:44.000Z</time>
      </trkpt>
      <trkpt lat="43.51224" lon="6.3756">
        <ele>280</ele>
        <time>2022-01-21T14:07:45.000Z</time>
      </trkpt>
      <trkpt lat="43.51224" lon="6.3756">
        <ele>280</ele>
        <time>2022-01-21T14:07:46.000Z</time>
      </trkpt>
      <trkpt lat="43.51224" lon="6.3756">
        <ele>280</ele>
        <time>2022-01-21T14:07:47.000Z</time>
      </trkpt>
      <trkpt lat="43.51227" lon="6.37559">
        <ele>280</ele>
        <time>2022-01-21T14:07:48.000Z</time>
      </trkpt>
      <trkpt lat="43.51227" lon="6.37559">
        <ele>280</ele>
        <time>2022-01-21T14:07:49.000Z</time>
      </trkpt>
      <trkpt lat="43.51227" lon="6.37559">
        <ele>280</ele>
        <time>2022-01-21T14:07:50.000Z</time>
      </trkpt>
      <trkpt lat="43.51227" lon="6.37558">
        <ele>280</ele>
        <time>2022-01-21T14:07:51.000Z</time>
      </trkpt>
      <trkpt lat="43.51227" lon="6.37558">
        <ele>280</ele>
        <time>2022-01-21T14:07:52.000Z</time>
      </trkpt>
      <trkpt lat="43.51227" lon="6.37558">
        <ele>280</ele>
        <time>2022-01-21T14:07:53.000Z</time>
      </trkpt>
      <trkpt lat="43.51227" lon="6.37558">
        <ele>280</ele>
        <time>2022-01-21T14:07:54.000Z</time>
      </trkpt>
      <trkpt lat="43.51227" lon="6.37558">
        <ele>280</ele>
        <time>2022-01-21T14:07:55.000Z</time>
      </trkpt>
      <trkpt lat="43.51227" lon="6.37558">
        <ele>280</ele>
        <time>2022-01-21T14:07:56.000Z</time>
      </trkpt>
      <trkpt lat="43.51227" lon="6.37558">
        <ele>280</ele>
        <time>2022-01-21T14:07:57.000Z</time>
      </trkpt>
      <trkpt lat="43.51227" lon="6.37559">
        <ele>280</ele>
        <time>2022-01-21T14:07:58.000Z</time>
      </trkpt>
      <trkpt lat="43.51228" lon="6.37559">
        <ele>280</ele>
        <time>2022-01-21T14:07:59.000Z</time>
      </trkpt>
      <trkpt lat="43.51228" lon="6.3756">
        <ele>280</ele>
        <time>2022-01-21T14:08:00.000Z</time>
      </trkpt>
      <trkpt lat="43.51229" lon="6.37559">
        <ele>280</ele>
        <time>2022-01-21T14:08:01.000Z</time>
      </trkpt>
      <trkpt lat="43.51229" lon="6.37559">
        <ele>280</ele>
        <time>2022-01-21T14:08:02.000Z</time>
      </trkpt>
      <trkpt lat="43.51229" lon="6.37559">
        <ele>280</ele>
        <time>2022-01-21T14:08:03.000Z</time>
      </trkpt>
      <trkpt lat="43.5123" lon="6.37559">
        <ele>280</ele>
        <time>2022-01-21T14:08:04.000Z</time>
      </trkpt>
      <trkpt lat="43.5123" lon="6.37559">
        <ele>280</ele>
        <time>2022-01-21T14:08:05.000Z</time>
      </trkpt>
      <trkpt lat="43.5123" lon="6.37559">
        <ele>280</ele>
        <time>2022-01-21T14:08:06.000Z</time>
      </trkpt>
      <trkpt lat="43.5123" lon="6.37559">
        <ele>280</ele>
        <time>2022-01-21T14:08:07.000Z</time>
      </trkpt>
      <trkpt lat="43.5123" lon="6.37559">
        <ele>280</ele>
        <time>2022-01-21T14:08:08.000Z</time>
      </trkpt>
      <trkpt lat="43.5123" lon="6.37559">
        <ele>280</ele>
        <time>2022-01-21T14:08:09.000Z</time>
      </trkpt>
      <trkpt lat="43.5123" lon="6.37559">
        <ele>280</ele>
        <time>2022-01-21T14:08:10.000Z</time>
      </trkpt>
      <trkpt lat="43.5123" lon="6.37559">
        <ele>280</ele>
        <time>2022-01-21T14:08:11.000Z</time>
      </trkpt>
      <trkpt lat="43.5123" lon="6.37559">
        <ele>280</ele>
        <time>2022-01-21T14:08:12.000Z</time>
      </trkpt>
      <trkpt lat="43.5123" lon="6.37559">
        <ele>280</ele>
        <time>2022-01-21T14:08:13.000Z</time>
      </trkpt>
      <trkpt lat="43.5123" lon="6.37559">
        <ele>280</ele>
        <time>2022-01-21T14:08:14.000Z</time>
      </trkpt>
      <trkpt lat="43.5123" lon="6.37559">
        <ele>280</ele>
        <time>2022-01-21T14:08:15.000Z</time>
      </trkpt>
      <trkpt lat="43.5123" lon="6.37559">
        <ele>280</ele>
        <time>2022-01-21T14:08:16.000Z</time>
      </trkpt>
      <trkpt lat="43.5123" lon="6.37559">
        <ele>280</ele>
        <time>2022-01-21T14:08:17.000Z</time>
      </trkpt>
      <trkpt lat="43.5123" lon="6.37559">
        <ele>280</ele>
        <time>2022-01-21T14:08:18.000Z</time>
      </trkpt>
      <trkpt lat="43.5123" lon="6.37559">
        <ele>280</ele>
        <time>2022-01-21T14:08:19.000Z</time>
      </trkpt>
      <trkpt lat="43.5123" lon="6.37559">
        <ele>280</ele>
        <time>2022-01-21T14:08:20.000Z</time>
      </trkpt>
      <trkpt lat="43.5123" lon="6.37559">
        <ele>280</ele>
        <time>2022-01-21T14:08:21.000Z</time>
      </trkpt>
      <trkpt lat="43.5123" lon="6.37559">
        <ele>280</ele>
        <time>2022-01-21T14:08:22.000Z</time>
      </trkpt>
      <trkpt lat="43.5123" lon="6.37559">
        <ele>280</ele>
        <time>2022-01-21T14:08:23.000Z</time>
      </trkpt>
      <trkpt lat="43.5123" lon="6.37559">
        <ele>280</ele>
        <time>2022-01-21T14:08:24.000Z</time>
      </trkpt>
      <trkpt lat="43.5123" lon="6.37559">
        <ele>280</ele>
        <time>2022-01-21T14:08:25.000Z</time>
      </trkpt>
      <trkpt lat="43.5123" lon="6.37559">
        <ele>280</ele>
        <time>2022-01-21T14:08:26.000Z</time>
      </trkpt>
      <trkpt lat="43.5123" lon="6.37559">
        <ele>280</ele>
        <time>2022-01-21T14:08:27.000Z</time>
      </trkpt>
      <trkpt lat="43.5123" lon="6.37559">
        <ele>280</ele>
        <time>2022-01-21T14:08:28.000Z</time>
      </trkpt>
      <trkpt lat="43.5123" lon="6.37559">
        <ele>280</ele>
        <time>2022-01-21T14:08:29.000Z</time>
      </trkpt>
      <trkpt lat="43.5123" lon="6.37559">
        <ele>280</ele>
        <time>2022-01-21T14:08:30.000Z</time>
      </trkpt>
      <trkpt lat="43.51231" lon="6.37559">
        <ele>280</ele>
        <time>2022-01-21T14:08:31.000Z</time>
      </trkpt>
      <trkpt lat="43.51231" lon="6.37558">
        <ele>280</ele>
        <time>2022-01-21T14:08:32.000Z</time>
      </trkpt>
      <trkpt lat="43.51231" lon="6.37558">
        <ele>280</ele>
        <time>2022-01-21T14:08:33.000Z</time>
      </trkpt>
      <trkpt lat="43.51232" lon="6.37558">
        <ele>280</ele>
        <time>2022-01-21T14:08:34.000Z</time>
      </trkpt>
      <trkpt lat="43.51234" lon="6.37557">
        <ele>280</ele>
        <time>2022-01-21T14:08:35.000Z</time>
      </trkpt>
      <trkpt lat="43.51236" lon="6.37556">
        <ele>279</ele>
        <time>2022-01-21T14:08:36.000Z</time>
      </trkpt>
      <trkpt lat="43.51237" lon="6.37555">
        <ele>279</ele>
        <time>2022-01-21T14:08:37.000Z</time>
      </trkpt>
      <trkpt lat="43.51238" lon="6.37554">
        <ele>279</ele>
        <time>2022-01-21T14:08:38.000Z</time>
      </trkpt>
      <trkpt lat="43.51239" lon="6.37553">
        <ele>279</ele>
        <time>2022-01-21T14:08:39.000Z</time>
      </trkpt>
      <trkpt lat="43.5124" lon="6.37553">
        <ele>279</ele>
        <time>2022-01-21T14:08:40.000Z</time>
      </trkpt>
      <trkpt lat="43.51241" lon="6.37552">
        <ele>279</ele>
        <time>2022-01-21T14:08:41.000Z</time>
      </trkpt>
      <trkpt lat="43.51241" lon="6.37552">
        <ele>279</ele>
        <time>2022-01-21T14:08:42.000Z</time>
      </trkpt>
      <trkpt lat="43.51241" lon="6.37551">
        <ele>279</ele>
        <time>2022-01-21T14:08:43.000Z</time>
      </trkpt>
      <trkpt lat="43.51242" lon="6.37551">
        <ele>279</ele>
        <time>2022-01-21T14:08:44.000Z</time>
      </trkpt>
      <trkpt lat="43.51242" lon="6.37551">
        <ele>279</ele>
        <time>2022-01-21T14:08:45.000Z</time>
      </trkpt>
      <trkpt lat="43.51242" lon="6.37551">
        <ele>279</ele>
        <time>2022-01-21T14:08:46.000Z</time>
      </trkpt>
      <trkpt lat="43.51242" lon="6.37551">
        <ele>279</ele>
        <time>2022-01-21T14:08:47.000Z</time>
      </trkpt>
      <trkpt lat="43.51242" lon="6.37551">
        <ele>279</ele>
        <time>2022-01-21T14:08:48.000Z</time>
      </trkpt>
      <trkpt lat="43.51242" lon="6.37551">
        <ele>279</ele>
        <time>2022-01-21T14:08:49.000Z</time>
      </trkpt>
      <trkpt lat="43.51242" lon="6.37551">
        <ele>279</ele>
        <time>2022-01-21T14:08:50.000Z</time>
      </trkpt>
      <trkpt lat="43.51242" lon="6.37551">
        <ele>279</ele>
        <time>2022-01-21T14:08:51.000Z</time>
      </trkpt>
      <trkpt lat="43.51242" lon="6.37551">
        <ele>279</ele>
        <time>2022-01-21T14:08:52.000Z</time>
      </trkpt>
      <trkpt lat="43.51242" lon="6.37551">
        <ele>279</ele>
        <time>2022-01-21T14:08:53.000Z</time>
      </trkpt>
      <trkpt lat="43.51242" lon="6.37551">
        <ele>279</ele>
        <time>2022-01-21T14:08:54.000Z</time>
      </trkpt>
      <trkpt lat="43.51242" lon="6.37551">
        <ele>279</ele>
        <time>2022-01-21T14:08:55.000Z</time>
      </trkpt>
      <trkpt lat="43.51242" lon="6.37551">
        <ele>279</ele>
        <time>2022-01-21T14:08:56.000Z</time>
      </trkpt>
      <trkpt lat="43.51242" lon="6.37551">
        <ele>279</ele>
        <time>2022-01-21T14:08:57.000Z</time>
      </trkpt>
      <trkpt lat="43.51245" lon="6.3755">
        <ele>279</ele>
        <time>2022-01-21T14:08:58.000Z</time>
      </trkpt>
      <trkpt lat="43.51246" lon="6.37549">
        <ele>278</ele>
        <time>2022-01-21T14:08:59.000Z</time>
      </trkpt>
      <trkpt lat="43.51246" lon="6.37549">
        <ele>278</ele>
        <time>2022-01-21T14:09:00.000Z</time>
      </trkpt>
      <trkpt lat="43.51247" lon="6.37549">
        <ele>278</ele>
        <time>2022-01-21T14:09:01.000Z</time>
      </trkpt>
      <trkpt lat="43.51247" lon="6.37549">
        <ele>278</ele>
        <time>2022-01-21T14:09:02.000Z</time>
      </trkpt>
      <trkpt lat="43.51247" lon="6.37549">
        <ele>278</ele>
        <time>2022-01-21T14:09:03.000Z</time>
      </trkpt>
      <trkpt lat="43.51247" lon="6.37549">
        <ele>278</ele>
        <time>2022-01-21T14:09:04.000Z</time>
      </trkpt>
      <trkpt lat="43.51247" lon="6.37549">
        <ele>278</ele>
        <time>2022-01-21T14:09:05.000Z</time>
      </trkpt>
      <trkpt lat="43.51247" lon="6.37549">
        <ele>278</ele>
        <time>2022-01-21T14:09:06.000Z</time>
      </trkpt>
      <trkpt lat="43.51247" lon="6.37549">
        <ele>278</ele>
        <time>2022-01-21T14:09:07.000Z</time>
      </trkpt>
      <trkpt lat="43.51247" lon="6.37549">
        <ele>278</ele>
        <time>2022-01-21T14:09:08.000Z</time>
      </trkpt>
      <trkpt lat="43.51247" lon="6.37549">
        <ele>278</ele>
        <time>2022-01-21T14:09:09.000Z</time>
      </trkpt>
      <trkpt lat="43.51247" lon="6.37549">
        <ele>278</ele>
        <time>2022-01-21T14:09:10.000Z</time>
      </trkpt>
      <trkpt lat="43.51247" lon="6.37549">
        <ele>278</ele>
        <time>2022-01-21T14:09:11.000Z</time>
      </trkpt>
      <trkpt lat="43.51247" lon="6.37549">
        <ele>278</ele>
        <time>2022-01-21T14:09:12.000Z</time>
      </trkpt>
      <trkpt lat="43.51247" lon="6.37549">
        <ele>278</ele>
        <time>2022-01-21T14:09:13.000Z</time>
      </trkpt>
      <trkpt lat="43.51247" lon="6.37549">
        <ele>278</ele>
        <time>2022-01-21T14:09:14.000Z</time>
      </trkpt>
      <trkpt lat="43.51247" lon="6.37549">
        <ele>278</ele>
        <time>2022-01-21T14:09:15.000Z</time>
      </trkpt>
      <trkpt lat="43.51247" lon="6.37549">
        <ele>278</ele>
        <time>2022-01-21T14:09:16.000Z</time>
      </trkpt>
      <trkpt lat="43.51247" lon="6.37549">
        <ele>278</ele>
        <time>2022-01-21T14:09:17.000Z</time>
      </trkpt>
      <trkpt lat="43.51247" lon="6.37549">
        <ele>278</ele>
        <time>2022-01-21T14:09:18.000Z</time>
      </trkpt>
      <trkpt lat="43.51247" lon="6.37549">
        <ele>278</ele>
        <time>2022-01-21T14:09:19.000Z</time>
      </trkpt>
      <trkpt lat="43.51247" lon="6.37549">
        <ele>278</ele>
        <time>2022-01-21T14:09:20.000Z</time>
      </trkpt>
      <trkpt lat="43.51247" lon="6.37549">
        <ele>278</ele>
        <time>2022-01-21T14:09:21.000Z</time>
      </trkpt>
      <trkpt lat="43.51247" lon="6.37549">
        <ele>278</ele>
        <time>2022-01-21T14:09:22.000Z</time>
      </trkpt>
      <trkpt lat="43.51247" lon="6.37549">
        <ele>278</ele>
        <time>2022-01-21T14:09:23.000Z</time>
      </trkpt>
      <trkpt lat="43.51249" lon="6.37549">
        <ele>278</ele>
        <time>2022-01-21T14:09:24.000Z</time>
      </trkpt>
      <trkpt lat="43.51249" lon="6.37549">
        <ele>278</ele>
        <time>2022-01-21T14:09:25.000Z</time>
      </trkpt>
      <trkpt lat="43.5125" lon="6.37548">
        <ele>278</ele>
        <time>2022-01-21T14:09:26.000Z</time>
      </trkpt>
      <trkpt lat="43.51251" lon="6.37548">
        <ele>278</ele>
        <time>2022-01-21T14:09:27.000Z</time>
      </trkpt>
      <trkpt lat="43.51251" lon="6.37547">
        <ele>278</ele>
        <time>2022-01-21T14:09:28.000Z</time>
      </trkpt>
      <trkpt lat="43.51252" lon="6.37547">
        <ele>278</ele>
        <time>2022-01-21T14:09:29.000Z</time>
      </trkpt>
      <trkpt lat="43.51252" lon="6.37547">
        <ele>278</ele>
        <time>2022-01-21T14:09:30.000Z</time>
      </trkpt>
      <trkpt lat="43.51253" lon="6.37546">
        <ele>278</ele>
        <time>2022-01-21T14:09:31.000Z</time>
      </trkpt>
      <trkpt lat="43.51254" lon="6.37545">
        <ele>278</ele>
        <time>2022-01-21T14:09:32.000Z</time>
      </trkpt>
      <trkpt lat="43.51255" lon="6.37544">
        <ele>278</ele>
        <time>2022-01-21T14:09:33.000Z</time>
      </trkpt>
      <trkpt lat="43.51255" lon="6.37543">
        <ele>278</ele>
        <time>2022-01-21T14:09:34.000Z</time>
      </trkpt>
      <trkpt lat="43.51255" lon="6.37542">
        <ele>278</ele>
        <time>2022-01-21T14:09:35.000Z</time>
      </trkpt>
      <trkpt lat="43.51256" lon="6.37542">
        <ele>278</ele>
        <time>2022-01-21T14:09:36.000Z</time>
      </trkpt>
      <trkpt lat="43.51256" lon="6.37541">
        <ele>278</ele>
        <time>2022-01-21T14:09:37.000Z</time>
      </trkpt>
      <trkpt lat="43.51257" lon="6.3754">
        <ele>278</ele>
        <time>2022-01-21T14:09:38.000Z</time>
      </trkpt>
      <trkpt lat="43.51257" lon="6.37539">
        <ele>278</ele>
        <time>2022-01-21T14:09:39.000Z</time>
      </trkpt>
      <trkpt lat="43.51258" lon="6.37538">
        <ele>278</ele>
        <time>2022-01-21T14:09:40.000Z</time>
      </trkpt>
      <trkpt lat="43.51259" lon="6.37537">
        <ele>278</ele>
        <time>2022-01-21T14:09:41.000Z</time>
      </trkpt>
      <trkpt lat="43.51259" lon="6.37536">
        <ele>278</ele>
        <time>2022-01-21T14:09:42.000Z</time>
      </trkpt>
      <trkpt lat="43.5126" lon="6.37535">
        <ele>278</ele>
        <time>2022-01-21T14:09:43.000Z</time>
      </trkpt>
      <trkpt lat="43.51261" lon="6.37534">
        <ele>278</ele>
        <time>2022-01-21T14:09:44.000Z</time>
      </trkpt>
      <trkpt lat="43.51262" lon="6.37534">
        <ele>278</ele>
        <time>2022-01-21T14:09:45.000Z</time>
      </trkpt>
      <trkpt lat="43.51263" lon="6.37533">
        <ele>278</ele>
        <time>2022-01-21T14:09:46.000Z</time>
      </trkpt>
      <trkpt lat="43.51264" lon="6.37533">
        <ele>279</ele>
        <time>2022-01-21T14:09:47.000Z</time>
      </trkpt>
      <trkpt lat="43.51265" lon="6.37532">
        <ele>279</ele>
        <time>2022-01-21T14:09:48.000Z</time>
      </trkpt>
      <trkpt lat="43.51265" lon="6.37531">
        <ele>279</ele>
        <time>2022-01-21T14:09:49.000Z</time>
      </trkpt>
      <trkpt lat="43.51266" lon="6.3753">
        <ele>279</ele>
        <time>2022-01-21T14:09:50.000Z</time>
      </trkpt>
      <trkpt lat="43.51267" lon="6.3753">
        <ele>279</ele>
        <time>2022-01-21T14:09:51.000Z</time>
      </trkpt>
      <trkpt lat="43.51268" lon="6.37529">
        <ele>279</ele>
        <time>2022-01-21T14:09:52.000Z</time>
      </trkpt>
      <trkpt lat="43.51268" lon="6.37528">
        <ele>279</ele>
        <time>2022-01-21T14:09:53.000Z</time>
      </trkpt>
      <trkpt lat="43.51269" lon="6.37527">
        <ele>279</ele>
        <time>2022-01-21T14:09:54.000Z</time>
      </trkpt>
      <trkpt lat="43.51269" lon="6.37527">
        <ele>279</ele>
        <time>2022-01-21T14:09:55.000Z</time>
      </trkpt>
      <trkpt lat="43.5127" lon="6.37526">
        <ele>279</ele>
        <time>2022-01-21T14:09:56.000Z</time>
      </trkpt>
      <trkpt lat="43.5127" lon="6.37526">
        <ele>279</ele>
        <time>2022-01-21T14:09:57.000Z</time>
      </trkpt>
      <trkpt lat="43.5127" lon="6.37526">
        <ele>279</ele>
        <time>2022-01-21T14:09:58.000Z</time>
      </trkpt>
      <trkpt lat="43.5127" lon="6.37526">
        <ele>279</ele>
        <time>2022-01-21T14:09:59.000Z</time>
      </trkpt>
      <trkpt lat="43.51271" lon="6.37526">
        <ele>279</ele>
        <time>2022-01-21T14:10:00.000Z</time>
      </trkpt>
      <trkpt lat="43.51271" lon="6.37526">
        <ele>279</ele>
        <time>2022-01-21T14:10:01.000Z</time>
      </trkpt>
      <trkpt lat="43.51271" lon="6.37525">
        <ele>280</ele>
        <time>2022-01-21T14:10:02.000Z</time>
      </trkpt>
      <trkpt lat="43.51271" lon="6.37525">
        <ele>280</ele>
        <time>2022-01-21T14:10:03.000Z</time>
      </trkpt>
      <trkpt lat="43.51271" lon="6.37525">
        <ele>280</ele>
        <time>2022-01-21T14:10:04.000Z</time>
      </trkpt>
      <trkpt lat="43.51271" lon="6.37525">
        <ele>280</ele>
        <time>2022-01-21T14:10:05.000Z</time>
      </trkpt>
      <trkpt lat="43.51271" lon="6.37524">
        <ele>280</ele>
        <time>2022-01-21T14:10:06.000Z</time>
      </trkpt>
      <trkpt lat="43.51272" lon="6.37523">
        <ele>280</ele>
        <time>2022-01-21T14:10:07.000Z</time>
      </trkpt>
      <trkpt lat="43.51272" lon="6.37523">
        <ele>280</ele>
        <time>2022-01-21T14:10:08.000Z</time>
      </trkpt>
      <trkpt lat="43.51272" lon="6.37523">
        <ele>280</ele>
        <time>2022-01-21T14:10:09.000Z</time>
      </trkpt>
      <trkpt lat="43.51273" lon="6.37522">
        <ele>280</ele>
        <time>2022-01-21T14:10:10.000Z</time>
      </trkpt>
      <trkpt lat="43.51273" lon="6.37522">
        <ele>280</ele>
        <time>2022-01-21T14:10:11.000Z</time>
      </trkpt>
      <trkpt lat="43.51273" lon="6.37521">
        <ele>280</ele>
        <time>2022-01-21T14:10:12.000Z</time>
      </trkpt>
      <trkpt lat="43.51274" lon="6.37521">
        <ele>280</ele>
        <time>2022-01-21T14:10:13.000Z</time>
      </trkpt>
      <trkpt lat="43.51275" lon="6.37521">
        <ele>280</ele>
        <time>2022-01-21T14:10:14.000Z</time>
      </trkpt>
      <trkpt lat="43.51275" lon="6.3752">
        <ele>280</ele>
        <time>2022-01-21T14:10:15.000Z</time>
      </trkpt>
      <trkpt lat="43.51275" lon="6.3752">
        <ele>280</ele>
        <time>2022-01-21T14:10:16.000Z</time>
      </trkpt>
      <trkpt lat="43.51276" lon="6.3752">
        <ele>280</ele>
        <time>2022-01-21T14:10:17.000Z</time>
      </trkpt>
      <trkpt lat="43.51276" lon="6.3752">
        <ele>280</ele>
        <time>2022-01-21T14:10:18.000Z</time>
      </trkpt>
      <trkpt lat="43.51276" lon="6.37519">
        <ele>280</ele>
        <time>2022-01-21T14:10:19.000Z</time>
      </trkpt>
      <trkpt lat="43.51276" lon="6.37519">
        <ele>280</ele>
        <time>2022-01-21T14:10:20.000Z</time>
      </trkpt>
      <trkpt lat="43.51277" lon="6.37518">
        <ele>280</ele>
        <time>2022-01-21T14:10:21.000Z</time>
      </trkpt>
      <trkpt lat="43.51278" lon="6.37517">
        <ele>280</ele>
        <time>2022-01-21T14:10:22.000Z</time>
      </trkpt>
      <trkpt lat="43.51278" lon="6.37517">
        <ele>280</ele>
        <time>2022-01-21T14:10:23.000Z</time>
      </trkpt>
      <trkpt lat="43.51279" lon="6.37516">
        <ele>280</ele>
        <time>2022-01-21T14:10:24.000Z</time>
      </trkpt>
      <trkpt lat="43.5128" lon="6.37516">
        <ele>280</ele>
        <time>2022-01-21T14:10:25.000Z</time>
      </trkpt>
      <trkpt lat="43.51281" lon="6.37515">
        <ele>280</ele>
        <time>2022-01-21T14:10:26.000Z</time>
      </trkpt>
      <trkpt lat="43.51282" lon="6.37515">
        <ele>280</ele>
        <time>2022-01-21T14:10:27.000Z</time>
      </trkpt>
      <trkpt lat="43.51283" lon="6.37515">
        <ele>280</ele>
        <time>2022-01-21T14:10:28.000Z</time>
      </trkpt>
      <trkpt lat="43.51284" lon="6.37515">
        <ele>280</ele>
        <time>2022-01-21T14:10:29.000Z</time>
      </trkpt>
      <trkpt lat="43.51284" lon="6.37514">
        <ele>280</ele>
        <time>2022-01-21T14:10:30.000Z</time>
      </trkpt>
      <trkpt lat="43.51284" lon="6.37514">
        <ele>280</ele>
        <time>2022-01-21T14:10:31.000Z</time>
      </trkpt>
      <trkpt lat="43.51285" lon="6.37514">
        <ele>280</ele>
        <time>2022-01-21T14:10:33.000Z</time>
      </trkpt>
      <trkpt lat="43.51285" lon="6.37514">
        <ele>280</ele>
        <time>2022-01-21T14:10:34.000Z</time>
      </trkpt>
      <trkpt lat="43.51285" lon="6.37514">
        <ele>280</ele>
        <time>2022-01-21T14:10:35.000Z</time>
      </trkpt>
      <trkpt lat="43.51285" lon="6.37514">
        <ele>280</ele>
        <time>2022-01-21T14:10:36.000Z</time>
      </trkpt>
      <trkpt lat="43.51285" lon="6.37514">
        <ele>280</ele>
        <time>2022-01-21T14:10:37.000Z</time>
      </trkpt>
      <trkpt lat="43.51285" lon="6.37514">
        <ele>280</ele>
        <time>2022-01-21T14:10:38.000Z</time>
      </trkpt>
      <trkpt lat="43.51285" lon="6.37514">
        <ele>280</ele>
        <time>2022-01-21T14:10:39.000Z</time>
      </trkpt>
      <trkpt lat="43.51285" lon="6.37514">
        <ele>280</ele>
        <time>2022-01-21T14:10:40.000Z</time>
      </trkpt>
      <trkpt lat="43.51285" lon="6.37514">
        <ele>280</ele>
        <time>2022-01-21T14:10:41.000Z</time>
      </trkpt>
      <trkpt lat="43.51285" lon="6.37514">
        <ele>280</ele>
        <time>2022-01-21T14:10:42.000Z</time>
      </trkpt>
      <trkpt lat="43.51285" lon="6.37514">
        <ele>280</ele>
        <time>2022-01-21T14:10:43.000Z</time>
      </trkpt>
      <trkpt lat="43.51285" lon="6.37514">
        <ele>280</ele>
        <time>2022-01-21T14:10:44.000Z</time>
      </trkpt>
      <trkpt lat="43.51285" lon="6.37514">
        <ele>280</ele>
        <time>2022-01-21T14:10:45.000Z</time>
      </trkpt>
      <trkpt lat="43.51285" lon="6.37514">
        <ele>280</ele>
        <time>2022-01-21T14:10:46.000Z</time>
      </trkpt>
      <trkpt lat="43.51285" lon="6.37514">
        <ele>280</ele>
        <time>2022-01-21T14:10:47.000Z</time>
      </trkpt>
      <trkpt lat="43.51285" lon="6.37514">
        <ele>280</ele>
        <time>2022-01-21T14:10:48.000Z</time>
      </trkpt>
      <trkpt lat="43.51285" lon="6.37514">
        <ele>280</ele>
        <time>2022-01-21T14:10:49.000Z</time>
      </trkpt>
      <trkpt lat="43.51285" lon="6.37514">
        <ele>280</ele>
        <time>2022-01-21T14:10:50.000Z</time>
      </trkpt>
      <trkpt lat="43.51285" lon="6.37514">
        <ele>280</ele>
        <time>2022-01-21T14:10:51.000Z</time>
      </trkpt>
      <trkpt lat="43.51285" lon="6.37514">
        <ele>280</ele>
        <time>2022-01-21T14:10:52.000Z</time>
      </trkpt>
      <trkpt lat="43.51285" lon="6.37514">
        <ele>280</ele>
        <time>2022-01-21T14:10:53.000Z</time>
      </trkpt>
      <trkpt lat="43.51285" lon="6.37514">
        <ele>280</ele>
        <time>2022-01-21T14:10:54.000Z</time>
      </trkpt>
      <trkpt lat="43.51285" lon="6.37514">
        <ele>280</ele>
        <time>2022-01-21T14:10:55.000Z</time>
      </trkpt>
      <trkpt lat="43.51285" lon="6.37514">
        <ele>280</ele>
        <time>2022-01-21T14:10:56.000Z</time>
      </trkpt>
      <trkpt lat="43.51286" lon="6.37513">
        <ele>280</ele>
        <time>2022-01-21T14:10:57.000Z</time>
      </trkpt>
      <trkpt lat="43.51286" lon="6.37512">
        <ele>280</ele>
        <time>2022-01-21T14:10:58.000Z</time>
      </trkpt>
      <trkpt lat="43.51286" lon="6.37512">
        <ele>280</ele>
        <time>2022-01-21T14:10:59.000Z</time>
      </trkpt>
      <trkpt lat="43.51286" lon="6.37512">
        <ele>280</ele>
        <time>2022-01-21T14:11:00.000Z</time>
      </trkpt>
      <trkpt lat="43.51286" lon="6.37512">
        <ele>280</ele>
        <time>2022-01-21T14:11:01.000Z</time>
      </trkpt>
      <trkpt lat="43.51286" lon="6.37512">
        <ele>280</ele>
        <time>2022-01-21T14:11:02.000Z</time>
      </trkpt>
      <trkpt lat="43.51286" lon="6.37512">
        <ele>280</ele>
        <time>2022-01-21T14:11:03.000Z</time>
      </trkpt>
      <trkpt lat="43.51286" lon="6.37512">
        <ele>280</ele>
        <time>2022-01-21T14:11:04.000Z</time>
      </trkpt>
      <trkpt lat="43.51286" lon="6.37512">
        <ele>280</ele>
        <time>2022-01-21T14:11:05.000Z</time>
      </trkpt>
      <trkpt lat="43.51286" lon="6.37512">
        <ele>280</ele>
        <time>2022-01-21T14:11:06.000Z</time>
      </trkpt>
      <trkpt lat="43.51286" lon="6.37512">
        <ele>280</ele>
        <time>2022-01-21T14:11:07.000Z</time>
      </trkpt>
      <trkpt lat="43.51286" lon="6.37512">
        <ele>280</ele>
        <time>2022-01-21T14:11:08.000Z</time>
      </trkpt>
      <trkpt lat="43.51286" lon="6.37512">
        <ele>280</ele>
        <time>2022-01-21T14:11:09.000Z</time>
      </trkpt>
      <trkpt lat="43.51286" lon="6.37511">
        <ele>280</ele>
        <time>2022-01-21T14:11:10.000Z</time>
      </trkpt>
      <trkpt lat="43.51287" lon="6.37511">
        <ele>280</ele>
        <time>2022-01-21T14:11:11.000Z</time>
      </trkpt>
      <trkpt lat="43.51288" lon="6.37508">
        <ele>280</ele>
        <time>2022-01-21T14:11:12.000Z</time>
      </trkpt>
      <trkpt lat="43.51289" lon="6.37507">
        <ele>280</ele>
        <time>2022-01-21T14:11:13.000Z</time>
      </trkpt>
      <trkpt lat="43.5129" lon="6.37506">
        <ele>280</ele>
        <time>2022-01-21T14:11:14.000Z</time>
      </trkpt>
      <trkpt lat="43.51291" lon="6.37504">
        <ele>280</ele>
        <time>2022-01-21T14:11:15.000Z</time>
      </trkpt>
      <trkpt lat="43.51292" lon="6.37504">
        <ele>279</ele>
        <time>2022-01-21T14:11:16.000Z</time>
      </trkpt>
      <trkpt lat="43.51293" lon="6.37503">
        <ele>279</ele>
        <time>2022-01-21T14:11:17.000Z</time>
      </trkpt>
      <trkpt lat="43.51294" lon="6.37502">
        <ele>279</ele>
        <time>2022-01-21T14:11:18.000Z</time>
      </trkpt>
      <trkpt lat="43.51295" lon="6.37502">
        <ele>279</ele>
        <time>2022-01-21T14:11:19.000Z</time>
      </trkpt>
      <trkpt lat="43.51296" lon="6.37501">
        <ele>279</ele>
        <time>2022-01-21T14:11:20.000Z</time>
      </trkpt>
      <trkpt lat="43.51297" lon="6.37501">
        <ele>279</ele>
        <time>2022-01-21T14:11:21.000Z</time>
      </trkpt>
      <trkpt lat="43.51298" lon="6.37501">
        <ele>279</ele>
        <time>2022-01-21T14:11:22.000Z</time>
      </trkpt>
      <trkpt lat="43.51299" lon="6.37501">
        <ele>279</ele>
        <time>2022-01-21T14:11:23.000Z</time>
      </trkpt>
      <trkpt lat="43.513" lon="6.375">
        <ele>279</ele>
        <time>2022-01-21T14:11:24.000Z</time>
      </trkpt>
      <trkpt lat="43.513" lon="6.375">
        <ele>279</ele>
        <time>2022-01-21T14:11:25.000Z</time>
      </trkpt>
      <trkpt lat="43.513" lon="6.375">
        <ele>279</ele>
        <time>2022-01-21T14:11:26.000Z</time>
      </trkpt>
      <trkpt lat="43.51301" lon="6.37499">
        <ele>279</ele>
        <time>2022-01-21T14:11:27.000Z</time>
      </trkpt>
      <trkpt lat="43.51301" lon="6.37499">
        <ele>279</ele>
        <time>2022-01-21T14:11:28.000Z</time>
      </trkpt>
      <trkpt lat="43.51301" lon="6.37499">
        <ele>279</ele>
        <time>2022-01-21T14:11:29.000Z</time>
      </trkpt>
      <trkpt lat="43.51301" lon="6.37499">
        <ele>279</ele>
        <time>2022-01-21T14:11:30.000Z</time>
      </trkpt>
      <trkpt lat="43.51302" lon="6.37499">
        <ele>279</ele>
        <time>2022-01-21T14:11:31.000Z</time>
      </trkpt>
      <trkpt lat="43.51302" lon="6.37498">
        <ele>279</ele>
        <time>2022-01-21T14:11:32.000Z</time>
      </trkpt>
      <trkpt lat="43.51302" lon="6.37498">
        <ele>279</ele>
        <time>2022-01-21T14:11:33.000Z</time>
      </trkpt>
      <trkpt lat="43.51302" lon="6.37498">
        <ele>279</ele>
        <time>2022-01-21T14:11:34.000Z</time>
      </trkpt>
      <trkpt lat="43.51302" lon="6.37498">
        <ele>279</ele>
        <time>2022-01-21T14:11:35.000Z</time>
      </trkpt>
      <trkpt lat="43.51302" lon="6.37498">
        <ele>279</ele>
        <time>2022-01-21T14:11:36.000Z</time>
      </trkpt>
      <trkpt lat="43.51302" lon="6.37498">
        <ele>279</ele>
        <time>2022-01-21T14:11:37.000Z</time>
      </trkpt>
      <trkpt lat="43.51302" lon="6.37498">
        <ele>279</ele>
        <time>2022-01-21T14:11:38.000Z</time>
      </trkpt>
      <trkpt lat="43.51302" lon="6.37498">
        <ele>279</ele>
        <time>2022-01-21T14:11:39.000Z</time>
      </trkpt>
      <trkpt lat="43.51302" lon="6.37498">
        <ele>279</ele>
        <time>2022-01-21T14:11:40.000Z</time>
      </trkpt>
      <trkpt lat="43.51302" lon="6.37498">
        <ele>279</ele>
        <time>2022-01-21T14:11:41.000Z</time>
      </trkpt>
      <trkpt lat="43.51303" lon="6.37498">
        <ele>279</ele>
        <time>2022-01-21T14:11:42.000Z</time>
      </trkpt>
      <trkpt lat="43.51303" lon="6.37498">
        <ele>279</ele>
        <time>2022-01-21T14:11:43.000Z</time>
      </trkpt>
      <trkpt lat="43.51303" lon="6.37498">
        <ele>279</ele>
        <time>2022-01-21T14:11:44.000Z</time>
      </trkpt>
      <trkpt lat="43.51303" lon="6.37498">
        <ele>279</ele>
        <time>2022-01-21T14:11:45.000Z</time>
      </trkpt>
      <trkpt lat="43.51303" lon="6.37498">
        <ele>279</ele>
        <time>2022-01-21T14:11:46.000Z</time>
      </trkpt>
      <trkpt lat="43.51303" lon="6.37498">
        <ele>279</ele>
        <time>2022-01-21T14:11:47.000Z</time>
      </trkpt>
      <trkpt lat="43.51303" lon="6.37498">
        <ele>279</ele>
        <time>2022-01-21T14:11:48.000Z</time>
      </trkpt>
      <trkpt lat="43.51303" lon="6.37498">
        <ele>279</ele>
        <time>2022-01-21T14:11:49.000Z</time>
      </trkpt>
      <trkpt lat="43.51303" lon="6.37498">
        <ele>279</ele>
        <time>2022-01-21T14:11:50.000Z</time>
      </trkpt>
      <trkpt lat="43.51303" lon="6.37498">
        <ele>279</ele>
        <time>2022-01-21T14:11:51.000Z</time>
      </trkpt>
      <trkpt lat="43.51303" lon="6.37498">
        <ele>279</ele>
        <time>2022-01-21T14:11:52.000Z</time>
      </trkpt>
      <trkpt lat="43.51303" lon="6.37498">
        <ele>279</ele>
        <time>2022-01-21T14:11:53.000Z</time>
      </trkpt>
      <trkpt lat="43.51303" lon="6.37498">
        <ele>279</ele>
        <time>2022-01-21T14:11:54.000Z</time>
      </trkpt>
      <trkpt lat="43.51303" lon="6.37498">
        <ele>279</ele>
        <time>2022-01-21T14:11:55.000Z</time>
      </trkpt>
      <trkpt lat="43.51303" lon="6.37498">
        <ele>279</ele>
        <time>2022-01-21T14:11:56.000Z</time>
      </trkpt>
      <trkpt lat="43.51303" lon="6.37498">
        <ele>279</ele>
        <time>2022-01-21T14:11:57.000Z</time>
      </trkpt>
      <trkpt lat="43.51303" lon="6.37498">
        <ele>279</ele>
        <time>2022-01-21T14:11:58.000Z</time>
      </trkpt>
      <trkpt lat="43.51303" lon="6.37498">
        <ele>279</ele>
        <time>2022-01-21T14:11:59.000Z</time>
      </trkpt>
      <trkpt lat="43.51303" lon="6.37498">
        <ele>279</ele>
        <time>2022-01-21T14:12:00.000Z</time>
      </trkpt>
      <trkpt lat="43.51303" lon="6.37498">
        <ele>279</ele>
        <time>2022-01-21T14:12:01.000Z</time>
      </trkpt>
      <trkpt lat="43.51303" lon="6.37498">
        <ele>279</ele>
        <time>2022-01-21T14:12:02.000Z</time>
      </trkpt>
      <trkpt lat="43.51303" lon="6.37498">
        <ele>279</ele>
        <time>2022-01-21T14:12:03.000Z</time>
      </trkpt>
      <trkpt lat="43.51303" lon="6.37498">
        <ele>279</ele>
        <time>2022-01-21T14:12:04.000Z</time>
      </trkpt>
      <trkpt lat="43.51303" lon="6.37498">
        <ele>279</ele>
        <time>2022-01-21T14:12:05.000Z</time>
      </trkpt>
      <trkpt lat="43.51303" lon="6.37498">
        <ele>279</ele>
        <time>2022-01-21T14:12:06.000Z</time>
      </trkpt>
      <trkpt lat="43.51303" lon="6.37498">
        <ele>279</ele>
        <time>2022-01-21T14:12:07.000Z</time>
      </trkpt>
      <trkpt lat="43.51303" lon="6.37499">
        <ele>279</ele>
        <time>2022-01-21T14:12:08.000Z</time>
      </trkpt>
      <trkpt lat="43.51303" lon="6.37499">
        <ele>279</ele>
        <time>2022-01-21T14:12:09.000Z</time>
      </trkpt>
      <trkpt lat="43.51303" lon="6.37499">
        <ele>279</ele>
        <time>2022-01-21T14:12:10.000Z</time>
      </trkpt>
      <trkpt lat="43.51304" lon="6.37498">
        <ele>279</ele>
        <time>2022-01-21T14:12:11.000Z</time>
      </trkpt>
      <trkpt lat="43.51304" lon="6.37498">
        <ele>279</ele>
        <time>2022-01-21T14:12:12.000Z</time>
      </trkpt>
      <trkpt lat="43.51304" lon="6.37498">
        <ele>279</ele>
        <time>2022-01-21T14:12:13.000Z</time>
      </trkpt>
      <trkpt lat="43.51305" lon="6.37497">
        <ele>279</ele>
        <time>2022-01-21T14:12:14.000Z</time>
      </trkpt>
      <trkpt lat="43.51305" lon="6.37497">
        <ele>279</ele>
        <time>2022-01-21T14:12:15.000Z</time>
      </trkpt>
      <trkpt lat="43.51305" lon="6.37496">
        <ele>279</ele>
        <time>2022-01-21T14:12:16.000Z</time>
      </trkpt>
      <trkpt lat="43.51305" lon="6.37496">
        <ele>279</ele>
        <time>2022-01-21T14:12:17.000Z</time>
      </trkpt>
      <trkpt lat="43.51306" lon="6.37495">
        <ele>279</ele>
        <time>2022-01-21T14:12:18.000Z</time>
      </trkpt>
      <trkpt lat="43.51306" lon="6.37495">
        <ele>279</ele>
        <time>2022-01-21T14:12:19.000Z</time>
      </trkpt>
      <trkpt lat="43.51307" lon="6.37494">
        <ele>279</ele>
        <time>2022-01-21T14:12:20.000Z</time>
      </trkpt>
      <trkpt lat="43.51307" lon="6.37493">
        <ele>279</ele>
        <time>2022-01-21T14:12:21.000Z</time>
      </trkpt>
      <trkpt lat="43.51308" lon="6.37493">
        <ele>278</ele>
        <time>2022-01-21T14:12:22.000Z</time>
      </trkpt>
      <trkpt lat="43.51308" lon="6.37492">
        <ele>278</ele>
        <time>2022-01-21T14:12:23.000Z</time>
      </trkpt>
      <trkpt lat="43.51308" lon="6.37492">
        <ele>278</ele>
        <time>2022-01-21T14:12:24.000Z</time>
      </trkpt>
      <trkpt lat="43.51308" lon="6.37491">
        <ele>278</ele>
        <time>2022-01-21T14:12:25.000Z</time>
      </trkpt>
      <trkpt lat="43.51309" lon="6.37491">
        <ele>278</ele>
        <time>2022-01-21T14:12:26.000Z</time>
      </trkpt>
      <trkpt lat="43.51309" lon="6.3749">
        <ele>278</ele>
        <time>2022-01-21T14:12:27.000Z</time>
      </trkpt>
      <trkpt lat="43.51309" lon="6.3749">
        <ele>278</ele>
        <time>2022-01-21T14:12:28.000Z</time>
      </trkpt>
      <trkpt lat="43.51309" lon="6.3749">
        <ele>278</ele>
        <time>2022-01-21T14:12:29.000Z</time>
      </trkpt>
      <trkpt lat="43.51309" lon="6.3749">
        <ele>278</ele>
        <time>2022-01-21T14:12:30.000Z</time>
      </trkpt>
      <trkpt lat="43.51309" lon="6.3749">
        <ele>278</ele>
        <time>2022-01-21T14:12:31.000Z</time>
      </trkpt>
      <trkpt lat="43.51309" lon="6.37489">
        <ele>278</ele>
        <time>2022-01-21T14:12:32.000Z</time>
      </trkpt>
      <trkpt lat="43.5131" lon="6.37489">
        <ele>278</ele>
        <time>2022-01-21T14:12:33.000Z</time>
      </trkpt>
      <trkpt lat="43.5131" lon="6.37489">
        <ele>278</ele>
        <time>2022-01-21T14:12:34.000Z</time>
      </trkpt>
      <trkpt lat="43.5131" lon="6.37489">
        <ele>278</ele>
        <time>2022-01-21T14:12:35.000Z</time>
      </trkpt>
      <trkpt lat="43.5131" lon="6.37488">
        <ele>278</ele>
        <time>2022-01-21T14:12:36.000Z</time>
      </trkpt>
      <trkpt lat="43.51311" lon="6.37488">
        <ele>278</ele>
        <time>2022-01-21T14:12:37.000Z</time>
      </trkpt>
      <trkpt lat="43.51311" lon="6.37488">
        <ele>278</ele>
        <time>2022-01-21T14:12:38.000Z</time>
      </trkpt>
      <trkpt lat="43.51311" lon="6.37488">
        <ele>278</ele>
        <time>2022-01-21T14:12:39.000Z</time>
      </trkpt>
      <trkpt lat="43.51311" lon="6.37487">
        <ele>278</ele>
        <time>2022-01-21T14:12:40.000Z</time>
      </trkpt>
      <trkpt lat="43.51311" lon="6.37487">
        <ele>278</ele>
        <time>2022-01-21T14:12:41.000Z</time>
      </trkpt>
      <trkpt lat="43.51311" lon="6.37487">
        <ele>278</ele>
        <time>2022-01-21T14:12:42.000Z</time>
      </trkpt>
      <trkpt lat="43.51311" lon="6.37487">
        <ele>278</ele>
        <time>2022-01-21T14:12:43.000Z</time>
      </trkpt>
      <trkpt lat="43.51311" lon="6.37487">
        <ele>278</ele>
        <time>2022-01-21T14:12:44.000Z</time>
      </trkpt>
      <trkpt lat="43.51311" lon="6.37487">
        <ele>278</ele>
        <time>2022-01-21T14:12:45.000Z</time>
      </trkpt>
      <trkpt lat="43.51311" lon="6.37487">
        <ele>278</ele>
        <time>2022-01-21T14:12:46.000Z</time>
      </trkpt>
      <trkpt lat="43.51311" lon="6.37487">
        <ele>278</ele>
        <time>2022-01-21T14:12:47.000Z</time>
      </trkpt>
      <trkpt lat="43.51311" lon="6.37487">
        <ele>278</ele>
        <time>2022-01-21T14:12:48.000Z</time>
      </trkpt>
      <trkpt lat="43.51312" lon="6.37487">
        <ele>278</ele>
        <time>2022-01-21T14:12:49.000Z</time>
      </trkpt>
      <trkpt lat="43.51312" lon="6.37486">
        <ele>278</ele>
        <time>2022-01-21T14:12:50.000Z</time>
      </trkpt>
      <trkpt lat="43.51313" lon="6.37486">
        <ele>278</ele>
        <time>2022-01-21T14:12:51.000Z</time>
      </trkpt>
      <trkpt lat="43.51313" lon="6.37486">
        <ele>278</ele>
        <time>2022-01-21T14:12:52.000Z</time>
      </trkpt>
      <trkpt lat="43.51314" lon="6.37485">
        <ele>278</ele>
        <time>2022-01-21T14:12:53.000Z</time>
      </trkpt>
      <trkpt lat="43.51315" lon="6.37484">
        <ele>279</ele>
        <time>2022-01-21T14:12:54.000Z</time>
      </trkpt>
      <trkpt lat="43.51316" lon="6.37484">
        <ele>279</ele>
        <time>2022-01-21T14:12:55.000Z</time>
      </trkpt>
      <trkpt lat="43.51317" lon="6.37483">
        <ele>279</ele>
        <time>2022-01-21T14:12:56.000Z</time>
      </trkpt>
      <trkpt lat="43.51318" lon="6.37482">
        <ele>279</ele>
        <time>2022-01-21T14:12:57.000Z</time>
      </trkpt>
      <trkpt lat="43.51318" lon="6.37481">
        <ele>279</ele>
        <time>2022-01-21T14:12:58.000Z</time>
      </trkpt>
      <trkpt lat="43.51319" lon="6.3748">
        <ele>279</ele>
        <time>2022-01-21T14:12:59.000Z</time>
      </trkpt>
      <trkpt lat="43.5132" lon="6.37479">
        <ele>280</ele>
        <time>2022-01-21T14:13:00.000Z</time>
      </trkpt>
      <trkpt lat="43.51321" lon="6.37479">
        <ele>280</ele>
        <time>2022-01-21T14:13:01.000Z</time>
      </trkpt>
      <trkpt lat="43.51322" lon="6.37478">
        <ele>280</ele>
        <time>2022-01-21T14:13:02.000Z</time>
      </trkpt>
      <trkpt lat="43.51323" lon="6.37477">
        <ele>280</ele>
        <time>2022-01-21T14:13:03.000Z</time>
      </trkpt>
      <trkpt lat="43.51324" lon="6.37476">
        <ele>280</ele>
        <time>2022-01-21T14:13:04.000Z</time>
      </trkpt>
      <trkpt lat="43.51324" lon="6.37475">
        <ele>280</ele>
        <time>2022-01-21T14:13:05.000Z</time>
      </trkpt>
      <trkpt lat="43.51325" lon="6.37475">
        <ele>280</ele>
        <time>2022-01-21T14:13:06.000Z</time>
      </trkpt>
      <trkpt lat="43.51325" lon="6.37474">
        <ele>280</ele>
        <time>2022-01-21T14:13:07.000Z</time>
      </trkpt>
      <trkpt lat="43.51325" lon="6.37474">
        <ele>280</ele>
        <time>2022-01-21T14:13:08.000Z</time>
      </trkpt>
      <trkpt lat="43.51326" lon="6.37473">
        <ele>280</ele>
        <time>2022-01-21T14:13:09.000Z</time>
      </trkpt>
      <trkpt lat="43.51326" lon="6.37473">
        <ele>280</ele>
        <time>2022-01-21T14:13:10.000Z</time>
      </trkpt>
      <trkpt lat="43.51326" lon="6.37473">
        <ele>280</ele>
        <time>2022-01-21T14:13:11.000Z</time>
      </trkpt>
      <trkpt lat="43.51327" lon="6.37472">
        <ele>280</ele>
        <time>2022-01-21T14:13:12.000Z</time>
      </trkpt>
      <trkpt lat="43.51327" lon="6.37472">
        <ele>280</ele>
        <time>2022-01-21T14:13:13.000Z</time>
      </trkpt>
      <trkpt lat="43.51327" lon="6.37472">
        <ele>280</ele>
        <time>2022-01-21T14:13:14.000Z</time>
      </trkpt>
      <trkpt lat="43.51328" lon="6.37471">
        <ele>280</ele>
        <time>2022-01-21T14:13:15.000Z</time>
      </trkpt>
      <trkpt lat="43.51328" lon="6.37471">
        <ele>280</ele>
        <time>2022-01-21T14:13:16.000Z</time>
      </trkpt>
      <trkpt lat="43.51328" lon="6.37471">
        <ele>280</ele>
        <time>2022-01-21T14:13:17.000Z</time>
      </trkpt>
      <trkpt lat="43.51328" lon="6.3747">
        <ele>280</ele>
        <time>2022-01-21T14:13:18.000Z</time>
      </trkpt>
      <trkpt lat="43.51329" lon="6.3747">
        <ele>280</ele>
        <time>2022-01-21T14:13:19.000Z</time>
      </trkpt>
      <trkpt lat="43.51329" lon="6.3747">
        <ele>280</ele>
        <time>2022-01-21T14:13:20.000Z</time>
      </trkpt>
      <trkpt lat="43.51329" lon="6.3747">
        <ele>280</ele>
        <time>2022-01-21T14:13:21.000Z</time>
      </trkpt>
      <trkpt lat="43.51329" lon="6.3747">
        <ele>280</ele>
        <time>2022-01-21T14:13:22.000Z</time>
      </trkpt>
      <trkpt lat="43.51329" lon="6.3747">
        <ele>280</ele>
        <time>2022-01-21T14:13:23.000Z</time>
      </trkpt>
      <trkpt lat="43.51329" lon="6.37469">
        <ele>280</ele>
        <time>2022-01-21T14:13:24.000Z</time>
      </trkpt>
      <trkpt lat="43.5133" lon="6.37468">
        <ele>280</ele>
        <time>2022-01-21T14:13:25.000Z</time>
      </trkpt>
      <trkpt lat="43.51331" lon="6.37467">
        <ele>280</ele>
        <time>2022-01-21T14:13:26.000Z</time>
      </trkpt>
      <trkpt lat="43.51333" lon="6.37465">
        <ele>280</ele>
        <time>2022-01-21T14:13:27.000Z</time>
      </trkpt>
      <trkpt lat="43.51334" lon="6.37464">
        <ele>280</ele>
        <time>2022-01-21T14:13:28.000Z</time>
      </trkpt>
      <trkpt lat="43.51335" lon="6.37463">
        <ele>280</ele>
        <time>2022-01-21T14:13:29.000Z</time>
      </trkpt>
      <trkpt lat="43.51336" lon="6.37462">
        <ele>280</ele>
        <time>2022-01-21T14:13:30.000Z</time>
      </trkpt>
      <trkpt lat="43.51337" lon="6.37461">
        <ele>280</ele>
        <time>2022-01-21T14:13:31.000Z</time>
      </trkpt>
      <trkpt lat="43.51338" lon="6.37459">
        <ele>280</ele>
        <time>2022-01-21T14:13:32.000Z</time>
      </trkpt>
      <trkpt lat="43.51341" lon="6.37456">
        <ele>280</ele>
        <time>2022-01-21T14:13:33.000Z</time>
      </trkpt>
      <trkpt lat="43.51342" lon="6.37454">
        <ele>281</ele>
        <time>2022-01-21T14:13:34.000Z</time>
      </trkpt>
      <trkpt lat="43.51343" lon="6.37454">
        <ele>281</ele>
        <time>2022-01-21T14:13:35.000Z</time>
      </trkpt>
      <trkpt lat="43.51343" lon="6.37453">
        <ele>281</ele>
        <time>2022-01-21T14:13:36.000Z</time>
      </trkpt>
      <trkpt lat="43.51344" lon="6.37453">
        <ele>281</ele>
        <time>2022-01-21T14:13:37.000Z</time>
      </trkpt>
      <trkpt lat="43.51344" lon="6.37452">
        <ele>281</ele>
        <time>2022-01-21T14:13:38.000Z</time>
      </trkpt>
      <trkpt lat="43.51345" lon="6.37452">
        <ele>281</ele>
        <time>2022-01-21T14:13:39.000Z</time>
      </trkpt>
      <trkpt lat="43.51345" lon="6.37452">
        <ele>281</ele>
        <time>2022-01-21T14:13:40.000Z</time>
      </trkpt>
      <trkpt lat="43.51345" lon="6.37451">
        <ele>281</ele>
        <time>2022-01-21T14:13:41.000Z</time>
      </trkpt>
      <trkpt lat="43.51346" lon="6.37451">
        <ele>281</ele>
        <time>2022-01-21T14:13:42.000Z</time>
      </trkpt>
      <trkpt lat="43.51346" lon="6.37451">
        <ele>281</ele>
        <time>2022-01-21T14:13:43.000Z</time>
      </trkpt>
      <trkpt lat="43.51346" lon="6.3745">
        <ele>281</ele>
        <time>2022-01-21T14:13:44.000Z</time>
      </trkpt>
      <trkpt lat="43.51346" lon="6.3745">
        <ele>281</ele>
        <time>2022-01-21T14:13:45.000Z</time>
      </trkpt>
      <trkpt lat="43.51347" lon="6.3745">
        <ele>281</ele>
        <time>2022-01-21T14:13:46.000Z</time>
      </trkpt>
      <trkpt lat="43.51347" lon="6.3745">
        <ele>281</ele>
        <time>2022-01-21T14:13:47.000Z</time>
      </trkpt>
      <trkpt lat="43.51347" lon="6.37449">
        <ele>281</ele>
        <time>2022-01-21T14:13:48.000Z</time>
      </trkpt>
      <trkpt lat="43.51347" lon="6.37449">
        <ele>281</ele>
        <time>2022-01-21T14:13:49.000Z</time>
      </trkpt>
      <trkpt lat="43.51347" lon="6.37449">
        <ele>281</ele>
        <time>2022-01-21T14:13:50.000Z</time>
      </trkpt>
      <trkpt lat="43.51347" lon="6.37449">
        <ele>281</ele>
        <time>2022-01-21T14:13:51.000Z</time>
      </trkpt>
      <trkpt lat="43.51347" lon="6.37449">
        <ele>281</ele>
        <time>2022-01-21T14:13:52.000Z</time>
      </trkpt>
      <trkpt lat="43.51347" lon="6.37449">
        <ele>281</ele>
        <time>2022-01-21T14:13:53.000Z</time>
      </trkpt>
      <trkpt lat="43.51347" lon="6.37449">
        <ele>281</ele>
        <time>2022-01-21T14:13:54.000Z</time>
      </trkpt>
      <trkpt lat="43.51347" lon="6.37449">
        <ele>281</ele>
        <time>2022-01-21T14:13:55.000Z</time>
      </trkpt>
      <trkpt lat="43.51347" lon="6.37449">
        <ele>281</ele>
        <time>2022-01-21T14:13:56.000Z</time>
      </trkpt>
      <trkpt lat="43.51347" lon="6.37449">
        <ele>281</ele>
        <time>2022-01-21T14:13:57.000Z</time>
      </trkpt>
      <trkpt lat="43.51347" lon="6.37449">
        <ele>281</ele>
        <time>2022-01-21T14:13:58.000Z</time>
      </trkpt>
      <trkpt lat="43.51347" lon="6.37449">
        <ele>281</ele>
        <time>2022-01-21T14:13:59.000Z</time>
      </trkpt>
      <trkpt lat="43.51347" lon="6.37449">
        <ele>281</ele>
        <time>2022-01-21T14:14:00.000Z</time>
      </trkpt>
      <trkpt lat="43.51347" lon="6.37448">
        <ele>281</ele>
        <time>2022-01-21T14:14:01.000Z</time>
      </trkpt>
      <trkpt lat="43.51347" lon="6.37448">
        <ele>281</ele>
        <time>2022-01-21T14:14:02.000Z</time>
      </trkpt>
      <trkpt lat="43.51347" lon="6.37448">
        <ele>281</ele>
        <time>2022-01-21T14:14:03.000Z</time>
      </trkpt>
      <trkpt lat="43.51347" lon="6.37448">
        <ele>281</ele>
        <time>2022-01-21T14:14:04.000Z</time>
      </trkpt>
      <trkpt lat="43.51347" lon="6.37448">
        <ele>281</ele>
        <time>2022-01-21T14:14:05.000Z</time>
      </trkpt>
      <trkpt lat="43.51347" lon="6.37448">
        <ele>281</ele>
        <time>2022-01-21T14:14:06.000Z</time>
      </trkpt>
      <trkpt lat="43.51348" lon="6.37448">
        <ele>281</ele>
        <time>2022-01-21T14:14:07.000Z</time>
      </trkpt>
      <trkpt lat="43.51348" lon="6.37447">
        <ele>281</ele>
        <time>2022-01-21T14:14:08.000Z</time>
      </trkpt>
      <trkpt lat="43.51348" lon="6.37446">
        <ele>281</ele>
        <time>2022-01-21T14:14:09.000Z</time>
      </trkpt>
      <trkpt lat="43.51349" lon="6.37444">
        <ele>281</ele>
        <time>2022-01-21T14:14:10.000Z</time>
      </trkpt>
      <trkpt lat="43.51351" lon="6.37442">
        <ele>281</ele>
        <time>2022-01-21T14:14:11.000Z</time>
      </trkpt>
      <trkpt lat="43.51352" lon="6.3744">
        <ele>281</ele>
        <time>2022-01-21T14:14:12.000Z</time>
      </trkpt>
      <trkpt lat="43.51353" lon="6.37438">
        <ele>281</ele>
        <time>2022-01-21T14:14:13.000Z</time>
      </trkpt>
      <trkpt lat="43.51355" lon="6.37436">
        <ele>281</ele>
        <time>2022-01-21T14:14:14.000Z</time>
      </trkpt>
      <trkpt lat="43.51356" lon="6.37435">
        <ele>282</ele>
        <time>2022-01-21T14:14:15.000Z</time>
      </trkpt>
      <trkpt lat="43.51357" lon="6.37433">
        <ele>282</ele>
        <time>2022-01-21T14:14:16.000Z</time>
      </trkpt>
      <trkpt lat="43.51359" lon="6.37431">
        <ele>282</ele>
        <time>2022-01-21T14:14:17.000Z</time>
      </trkpt>
      <trkpt lat="43.5136" lon="6.37429">
        <ele>282</ele>
        <time>2022-01-21T14:14:18.000Z</time>
      </trkpt>
      <trkpt lat="43.51361" lon="6.37427">
        <ele>282</ele>
        <time>2022-01-21T14:14:19.000Z</time>
      </trkpt>
      <trkpt lat="43.51362" lon="6.37425">
        <ele>282</ele>
        <time>2022-01-21T14:14:20.000Z</time>
      </trkpt>
      <trkpt lat="43.51363" lon="6.37423">
        <ele>282</ele>
        <time>2022-01-21T14:14:21.000Z</time>
      </trkpt>
      <trkpt lat="43.51364" lon="6.37422">
        <ele>282</ele>
        <time>2022-01-21T14:14:22.000Z</time>
      </trkpt>
      <trkpt lat="43.51364" lon="6.3742">
        <ele>282</ele>
        <time>2022-01-21T14:14:23.000Z</time>
      </trkpt>
      <trkpt lat="43.51365" lon="6.37419">
        <ele>282</ele>
        <time>2022-01-21T14:14:24.000Z</time>
      </trkpt>
      <trkpt lat="43.51366" lon="6.37418">
        <ele>282</ele>
        <time>2022-01-21T14:14:25.000Z</time>
      </trkpt>
      <trkpt lat="43.51366" lon="6.37417">
        <ele>282</ele>
        <time>2022-01-21T14:14:26.000Z</time>
      </trkpt>
      <trkpt lat="43.51367" lon="6.37416">
        <ele>282</ele>
        <time>2022-01-21T14:14:27.000Z</time>
      </trkpt>
      <trkpt lat="43.51367" lon="6.37415">
        <ele>282</ele>
        <time>2022-01-21T14:14:28.000Z</time>
      </trkpt>
      <trkpt lat="43.51368" lon="6.37415">
        <ele>282</ele>
        <time>2022-01-21T14:14:29.000Z</time>
      </trkpt>
      <trkpt lat="43.51368" lon="6.37414">
        <ele>283</ele>
        <time>2022-01-21T14:14:30.000Z</time>
      </trkpt>
      <trkpt lat="43.51369" lon="6.37413">
        <ele>283</ele>
        <time>2022-01-21T14:14:31.000Z</time>
      </trkpt>
      <trkpt lat="43.51369" lon="6.37411">
        <ele>283</ele>
        <time>2022-01-21T14:14:32.000Z</time>
      </trkpt>
      <trkpt lat="43.51369" lon="6.37411">
        <ele>283</ele>
        <time>2022-01-21T14:14:33.000Z</time>
      </trkpt>
      <trkpt lat="43.5137" lon="6.3741">
        <ele>283</ele>
        <time>2022-01-21T14:14:34.000Z</time>
      </trkpt>
      <trkpt lat="43.5137" lon="6.37409">
        <ele>283</ele>
        <time>2022-01-21T14:14:35.000Z</time>
      </trkpt>
      <trkpt lat="43.51371" lon="6.37408">
        <ele>283</ele>
        <time>2022-01-21T14:14:36.000Z</time>
      </trkpt>
      <trkpt lat="43.51371" lon="6.37408">
        <ele>283</ele>
        <time>2022-01-21T14:14:37.000Z</time>
      </trkpt>
      <trkpt lat="43.51371" lon="6.37407">
        <ele>283</ele>
        <time>2022-01-21T14:14:38.000Z</time>
      </trkpt>
      <trkpt lat="43.51372" lon="6.37406">
        <ele>283</ele>
        <time>2022-01-21T14:14:39.000Z</time>
      </trkpt>
      <trkpt lat="43.51372" lon="6.37405">
        <ele>283</ele>
        <time>2022-01-21T14:14:40.000Z</time>
      </trkpt>
      <trkpt lat="43.51373" lon="6.37405">
        <ele>283</ele>
        <time>2022-01-21T14:14:41.000Z</time>
      </trkpt>
      <trkpt lat="43.51373" lon="6.37404">
        <ele>283</ele>
        <time>2022-01-21T14:14:42.000Z</time>
      </trkpt>
      <trkpt lat="43.51373" lon="6.37404">
        <ele>283</ele>
        <time>2022-01-21T14:14:43.000Z</time>
      </trkpt>
      <trkpt lat="43.51374" lon="6.37404">
        <ele>283</ele>
        <time>2022-01-21T14:14:44.000Z</time>
      </trkpt>
      <trkpt lat="43.51374" lon="6.37404">
        <ele>283</ele>
        <time>2022-01-21T14:14:45.000Z</time>
      </trkpt>
      <trkpt lat="43.51374" lon="6.37404">
        <ele>283</ele>
        <time>2022-01-21T14:14:46.000Z</time>
      </trkpt>
      <trkpt lat="43.51374" lon="6.37404">
        <ele>283</ele>
        <time>2022-01-21T14:14:47.000Z</time>
      </trkpt>
      <trkpt lat="43.51374" lon="6.37403">
        <ele>283</ele>
        <time>2022-01-21T14:14:48.000Z</time>
      </trkpt>
      <trkpt lat="43.51374" lon="6.37403">
        <ele>283</ele>
        <time>2022-01-21T14:14:49.000Z</time>
      </trkpt>
      <trkpt lat="43.51375" lon="6.37403">
        <ele>283</ele>
        <time>2022-01-21T14:14:50.000Z</time>
      </trkpt>
      <trkpt lat="43.51375" lon="6.37403">
        <ele>283</ele>
        <time>2022-01-21T14:14:51.000Z</time>
      </trkpt>
      <trkpt lat="43.51375" lon="6.37403">
        <ele>283</ele>
        <time>2022-01-21T14:14:52.000Z</time>
      </trkpt>
      <trkpt lat="43.51375" lon="6.37403">
        <ele>283</ele>
        <time>2022-01-21T14:14:53.000Z</time>
      </trkpt>
      <trkpt lat="43.51375" lon="6.37403">
        <ele>283</ele>
        <time>2022-01-21T14:14:54.000Z</time>
      </trkpt>
      <trkpt lat="43.51375" lon="6.37403">
        <ele>283</ele>
        <time>2022-01-21T14:14:55.000Z</time>
      </trkpt>
      <trkpt lat="43.51375" lon="6.37403">
        <ele>283</ele>
        <time>2022-01-21T14:14:56.000Z</time>
      </trkpt>
      <trkpt lat="43.51375" lon="6.37403">
        <ele>283</ele>
        <time>2022-01-21T14:14:57.000Z</time>
      </trkpt>
      <trkpt lat="43.51375" lon="6.37403">
        <ele>283</ele>
        <time>2022-01-21T14:14:58.000Z</time>
      </trkpt>
      <trkpt lat="43.51375" lon="6.37403">
        <ele>283</ele>
        <time>2022-01-21T14:14:59.000Z</time>
      </trkpt>
      <trkpt lat="43.51375" lon="6.37403">
        <ele>283</ele>
        <time>2022-01-21T14:15:00.000Z</time>
      </trkpt>
      <trkpt lat="43.51375" lon="6.37403">
        <ele>283</ele>
        <time>2022-01-21T14:15:01.000Z</time>
      </trkpt>
      <trkpt lat="43.51375" lon="6.37403">
        <ele>283</ele>
        <time>2022-01-21T14:15:02.000Z</time>
      </trkpt>
      <trkpt lat="43.51376" lon="6.37402">
        <ele>283</ele>
        <time>2022-01-21T14:15:03.000Z</time>
      </trkpt>
      <trkpt lat="43.51376" lon="6.37402">
        <ele>282</ele>
        <time>2022-01-21T14:15:04.000Z</time>
      </trkpt>
      <trkpt lat="43.51376" lon="6.37401">
        <ele>282</ele>
        <time>2022-01-21T14:15:05.000Z</time>
      </trkpt>
      <trkpt lat="43.51376" lon="6.374">
        <ele>282</ele>
        <time>2022-01-21T14:15:06.000Z</time>
      </trkpt>
      <trkpt lat="43.51376" lon="6.37399">
        <ele>282</ele>
        <time>2022-01-21T14:15:07.000Z</time>
      </trkpt>
      <trkpt lat="43.51376" lon="6.37398">
        <ele>282</ele>
        <time>2022-01-21T14:15:08.000Z</time>
      </trkpt>
      <trkpt lat="43.51377" lon="6.37397">
        <ele>282</ele>
        <time>2022-01-21T14:15:09.000Z</time>
      </trkpt>
      <trkpt lat="43.51377" lon="6.37397">
        <ele>282</ele>
        <time>2022-01-21T14:15:10.000Z</time>
      </trkpt>
      <trkpt lat="43.51377" lon="6.37396">
        <ele>282</ele>
        <time>2022-01-21T14:15:11.000Z</time>
      </trkpt>
      <trkpt lat="43.51377" lon="6.37396">
        <ele>282</ele>
        <time>2022-01-21T14:15:12.000Z</time>
      </trkpt>
      <trkpt lat="43.51377" lon="6.37395">
        <ele>282</ele>
        <time>2022-01-21T14:15:13.000Z</time>
      </trkpt>
      <trkpt lat="43.51377" lon="6.37395">
        <ele>282</ele>
        <time>2022-01-21T14:15:14.000Z</time>
      </trkpt>
      <trkpt lat="43.51378" lon="6.37394">
        <ele>282</ele>
        <time>2022-01-21T14:15:15.000Z</time>
      </trkpt>
      <trkpt lat="43.51378" lon="6.37393">
        <ele>282</ele>
        <time>2022-01-21T14:15:16.000Z</time>
      </trkpt>
      <trkpt lat="43.51378" lon="6.37391">
        <ele>282</ele>
        <time>2022-01-21T14:15:17.000Z</time>
      </trkpt>
      <trkpt lat="43.51378" lon="6.3739">
        <ele>282</ele>
        <time>2022-01-21T14:15:18.000Z</time>
      </trkpt>
      <trkpt lat="43.51378" lon="6.37388">
        <ele>281</ele>
        <time>2022-01-21T14:15:19.000Z</time>
      </trkpt>
      <trkpt lat="43.51379" lon="6.37387">
        <ele>281</ele>
        <time>2022-01-21T14:15:20.000Z</time>
      </trkpt>
      <trkpt lat="43.51379" lon="6.37386">
        <ele>281</ele>
        <time>2022-01-21T14:15:21.000Z</time>
      </trkpt>
      <trkpt lat="43.51379" lon="6.37385">
        <ele>281</ele>
        <time>2022-01-21T14:15:22.000Z</time>
      </trkpt>
      <trkpt lat="43.51379" lon="6.37384">
        <ele>280</ele>
        <time>2022-01-21T14:15:23.000Z</time>
      </trkpt>
      <trkpt lat="43.51379" lon="6.37383">
        <ele>280</ele>
        <time>2022-01-21T14:15:24.000Z</time>
      </trkpt>
      <trkpt lat="43.51379" lon="6.37382">
        <ele>280</ele>
        <time>2022-01-21T14:15:25.000Z</time>
      </trkpt>
      <trkpt lat="43.51379" lon="6.37382">
        <ele>280</ele>
        <time>2022-01-21T14:15:26.000Z</time>
      </trkpt>
      <trkpt lat="43.51379" lon="6.37382">
        <ele>280</ele>
        <time>2022-01-21T14:15:27.000Z</time>
      </trkpt>
      <trkpt lat="43.51379" lon="6.37382">
        <ele>280</ele>
        <time>2022-01-21T14:15:28.000Z</time>
      </trkpt>
      <trkpt lat="43.51379" lon="6.37382">
        <ele>280</ele>
        <time>2022-01-21T14:15:29.000Z</time>
      </trkpt>
      <trkpt lat="43.51379" lon="6.37382">
        <ele>280</ele>
        <time>2022-01-21T14:15:30.000Z</time>
      </trkpt>
      <trkpt lat="43.51379" lon="6.37382">
        <ele>280</ele>
        <time>2022-01-21T14:15:31.000Z</time>
      </trkpt>
      <trkpt lat="43.5138" lon="6.3738">
        <ele>280</ele>
        <time>2022-01-21T14:15:32.000Z</time>
      </trkpt>
      <trkpt lat="43.5138" lon="6.3738">
        <ele>280</ele>
        <time>2022-01-21T14:15:33.000Z</time>
      </trkpt>
      <trkpt lat="43.5138" lon="6.3738">
        <ele>280</ele>
        <time>2022-01-21T14:15:34.000Z</time>
      </trkpt>
      <trkpt lat="43.5138" lon="6.3738">
        <ele>280</ele>
        <time>2022-01-21T14:15:35.000Z</time>
      </trkpt>
      <trkpt lat="43.5138" lon="6.37379">
        <ele>280</ele>
        <time>2022-01-21T14:15:36.000Z</time>
      </trkpt>
      <trkpt lat="43.5138" lon="6.37378">
        <ele>280</ele>
        <time>2022-01-21T14:15:37.000Z</time>
      </trkpt>
      <trkpt lat="43.51381" lon="6.37377">
        <ele>280</ele>
        <time>2022-01-21T14:15:38.000Z</time>
      </trkpt>
      <trkpt lat="43.51381" lon="6.37376">
        <ele>280</ele>
        <time>2022-01-21T14:15:39.000Z</time>
      </trkpt>
      <trkpt lat="43.51382" lon="6.37375">
        <ele>280</ele>
        <time>2022-01-21T14:15:40.000Z</time>
      </trkpt>
      <trkpt lat="43.51382" lon="6.37374">
        <ele>280</ele>
        <time>2022-01-21T14:15:41.000Z</time>
      </trkpt>
      <trkpt lat="43.51382" lon="6.37373">
        <ele>280</ele>
        <time>2022-01-21T14:15:42.000Z</time>
      </trkpt>
      <trkpt lat="43.51383" lon="6.37372">
        <ele>280</ele>
        <time>2022-01-21T14:15:43.000Z</time>
      </trkpt>
      <trkpt lat="43.51383" lon="6.37372">
        <ele>280</ele>
        <time>2022-01-21T14:15:44.000Z</time>
      </trkpt>
      <trkpt lat="43.51383" lon="6.37371">
        <ele>280</ele>
        <time>2022-01-21T14:15:45.000Z</time>
      </trkpt>
      <trkpt lat="43.51383" lon="6.37371">
        <ele>280</ele>
        <time>2022-01-21T14:15:46.000Z</time>
      </trkpt>
      <trkpt lat="43.51384" lon="6.3737">
        <ele>281</ele>
        <time>2022-01-21T14:15:47.000Z</time>
      </trkpt>
      <trkpt lat="43.51385" lon="6.37367">
        <ele>281</ele>
        <time>2022-01-21T14:15:48.000Z</time>
      </trkpt>
      <trkpt lat="43.51385" lon="6.37366">
        <ele>281</ele>
        <time>2022-01-21T14:15:49.000Z</time>
      </trkpt>
      <trkpt lat="43.51386" lon="6.37365">
        <ele>281</ele>
        <time>2022-01-21T14:15:50.000Z</time>
      </trkpt>
      <trkpt lat="43.51386" lon="6.37364">
        <ele>281</ele>
        <time>2022-01-21T14:15:51.000Z</time>
      </trkpt>
      <trkpt lat="43.51386" lon="6.37364">
        <ele>281</ele>
        <time>2022-01-21T14:15:52.000Z</time>
      </trkpt>
      <trkpt lat="43.51387" lon="6.37363">
        <ele>281</ele>
        <time>2022-01-21T14:15:53.000Z</time>
      </trkpt>
      <trkpt lat="43.51387" lon="6.37362">
        <ele>281</ele>
        <time>2022-01-21T14:15:54.000Z</time>
      </trkpt>
      <trkpt lat="43.51388" lon="6.37361">
        <ele>281</ele>
        <time>2022-01-21T14:15:55.000Z</time>
      </trkpt>
      <trkpt lat="43.51388" lon="6.3736">
        <ele>281</ele>
        <time>2022-01-21T14:15:56.000Z</time>
      </trkpt>
      <trkpt lat="43.51389" lon="6.37359">
        <ele>281</ele>
        <time>2022-01-21T14:15:57.000Z</time>
      </trkpt>
      <trkpt lat="43.51389" lon="6.37358">
        <ele>281</ele>
        <time>2022-01-21T14:15:58.000Z</time>
      </trkpt>
      <trkpt lat="43.51389" lon="6.37357">
        <ele>281</ele>
        <time>2022-01-21T14:15:59.000Z</time>
      </trkpt>
      <trkpt lat="43.51389" lon="6.37357">
        <ele>281</ele>
        <time>2022-01-21T14:16:00.000Z</time>
      </trkpt>
      <trkpt lat="43.5139" lon="6.37357">
        <ele>281</ele>
        <time>2022-01-21T14:16:01.000Z</time>
      </trkpt>
      <trkpt lat="43.5139" lon="6.37356">
        <ele>281</ele>
        <time>2022-01-21T14:16:02.000Z</time>
      </trkpt>
      <trkpt lat="43.5139" lon="6.37356">
        <ele>281</ele>
        <time>2022-01-21T14:16:03.000Z</time>
      </trkpt>
      <trkpt lat="43.5139" lon="6.37356">
        <ele>281</ele>
        <time>2022-01-21T14:16:04.000Z</time>
      </trkpt>
      <trkpt lat="43.5139" lon="6.37355">
        <ele>281</ele>
        <time>2022-01-21T14:16:05.000Z</time>
      </trkpt>
      <trkpt lat="43.51391" lon="6.37354">
        <ele>281</ele>
        <time>2022-01-21T14:16:06.000Z</time>
      </trkpt>
      <trkpt lat="43.51391" lon="6.37353">
        <ele>281</ele>
        <time>2022-01-21T14:16:07.000Z</time>
      </trkpt>
      <trkpt lat="43.51392" lon="6.37352">
        <ele>281</ele>
        <time>2022-01-21T14:16:08.000Z</time>
      </trkpt>
      <trkpt lat="43.51392" lon="6.37351">
        <ele>281</ele>
        <time>2022-01-21T14:16:09.000Z</time>
      </trkpt>
      <trkpt lat="43.51393" lon="6.3735">
        <ele>281</ele>
        <time>2022-01-21T14:16:10.000Z</time>
      </trkpt>
      <trkpt lat="43.51394" lon="6.37348">
        <ele>281</ele>
        <time>2022-01-21T14:16:11.000Z</time>
      </trkpt>
      <trkpt lat="43.51394" lon="6.37346">
        <ele>281</ele>
        <time>2022-01-21T14:16:12.000Z</time>
      </trkpt>
      <trkpt lat="43.51395" lon="6.37345">
        <ele>281</ele>
        <time>2022-01-21T14:16:13.000Z</time>
      </trkpt>
      <trkpt lat="43.51395" lon="6.37343">
        <ele>281</ele>
        <time>2022-01-21T14:16:14.000Z</time>
      </trkpt>
      <trkpt lat="43.51395" lon="6.37342">
        <ele>281</ele>
        <time>2022-01-21T14:16:15.000Z</time>
      </trkpt>
      <trkpt lat="43.51396" lon="6.37341">
        <ele>281</ele>
        <time>2022-01-21T14:16:16.000Z</time>
      </trkpt>
      <trkpt lat="43.51396" lon="6.3734">
        <ele>281</ele>
        <time>2022-01-21T14:16:17.000Z</time>
      </trkpt>
      <trkpt lat="43.51397" lon="6.37339">
        <ele>281</ele>
        <time>2022-01-21T14:16:18.000Z</time>
      </trkpt>
      <trkpt lat="43.51397" lon="6.37337">
        <ele>281</ele>
        <time>2022-01-21T14:16:19.000Z</time>
      </trkpt>
      <trkpt lat="43.51398" lon="6.37336">
        <ele>281</ele>
        <time>2022-01-21T14:16:20.000Z</time>
      </trkpt>
      <trkpt lat="43.51398" lon="6.37335">
        <ele>281</ele>
        <time>2022-01-21T14:16:21.000Z</time>
      </trkpt>
      <trkpt lat="43.51399" lon="6.37334">
        <ele>281</ele>
        <time>2022-01-21T14:16:22.000Z</time>
      </trkpt>
      <trkpt lat="43.51399" lon="6.37334">
        <ele>281</ele>
        <time>2022-01-21T14:16:23.000Z</time>
      </trkpt>
      <trkpt lat="43.51399" lon="6.37333">
        <ele>281</ele>
        <time>2022-01-21T14:16:24.000Z</time>
      </trkpt>
      <trkpt lat="43.51399" lon="6.37333">
        <ele>281</ele>
        <time>2022-01-21T14:16:25.000Z</time>
      </trkpt>
      <trkpt lat="43.51399" lon="6.37333">
        <ele>281</ele>
        <time>2022-01-21T14:16:26.000Z</time>
      </trkpt>
      <trkpt lat="43.514" lon="6.37332">
        <ele>281</ele>
        <time>2022-01-21T14:16:27.000Z</time>
      </trkpt>
      <trkpt lat="43.514" lon="6.37332">
        <ele>281</ele>
        <time>2022-01-21T14:16:28.000Z</time>
      </trkpt>
      <trkpt lat="43.51401" lon="6.37331">
        <ele>281</ele>
        <time>2022-01-21T14:16:29.000Z</time>
      </trkpt>
      <trkpt lat="43.51401" lon="6.37329">
        <ele>281</ele>
        <time>2022-01-21T14:16:30.000Z</time>
      </trkpt>
      <trkpt lat="43.51402" lon="6.37327">
        <ele>281</ele>
        <time>2022-01-21T14:16:31.000Z</time>
      </trkpt>
      <trkpt lat="43.51403" lon="6.37326">
        <ele>281</ele>
        <time>2022-01-21T14:16:32.000Z</time>
      </trkpt>
      <trkpt lat="43.51403" lon="6.37325">
        <ele>281</ele>
        <time>2022-01-21T14:16:33.000Z</time>
      </trkpt>
      <trkpt lat="43.51404" lon="6.37323">
        <ele>281</ele>
        <time>2022-01-21T14:16:34.000Z</time>
      </trkpt>
      <trkpt lat="43.51404" lon="6.37322">
        <ele>281</ele>
        <time>2022-01-21T14:16:35.000Z</time>
      </trkpt>
      <trkpt lat="43.51404" lon="6.37321">
        <ele>281</ele>
        <time>2022-01-21T14:16:36.000Z</time>
      </trkpt>
      <trkpt lat="43.51405" lon="6.37319">
        <ele>281</ele>
        <time>2022-01-21T14:16:37.000Z</time>
      </trkpt>
      <trkpt lat="43.51405" lon="6.37318">
        <ele>281</ele>
        <time>2022-01-21T14:16:38.000Z</time>
      </trkpt>
      <trkpt lat="43.51405" lon="6.37317">
        <ele>281</ele>
        <time>2022-01-21T14:16:39.000Z</time>
      </trkpt>
      <trkpt lat="43.51405" lon="6.37315">
        <ele>281</ele>
        <time>2022-01-21T14:16:40.000Z</time>
      </trkpt>
      <trkpt lat="43.51405" lon="6.37314">
        <ele>281</ele>
        <time>2022-01-21T14:16:41.000Z</time>
      </trkpt>
      <trkpt lat="43.51405" lon="6.37313">
        <ele>281</ele>
        <time>2022-01-21T14:16:42.000Z</time>
      </trkpt>
      <trkpt lat="43.51405" lon="6.37312">
        <ele>281</ele>
        <time>2022-01-21T14:16:43.000Z</time>
      </trkpt>
      <trkpt lat="43.51405" lon="6.37311">
        <ele>281</ele>
        <time>2022-01-21T14:16:44.000Z</time>
      </trkpt>
      <trkpt lat="43.51405" lon="6.3731">
        <ele>281</ele>
        <time>2022-01-21T14:16:45.000Z</time>
      </trkpt>
      <trkpt lat="43.51406" lon="6.37309">
        <ele>281</ele>
        <time>2022-01-21T14:16:46.000Z</time>
      </trkpt>
      <trkpt lat="43.51406" lon="6.37309">
        <ele>281</ele>
        <time>2022-01-21T14:16:47.000Z</time>
      </trkpt>
      <trkpt lat="43.51406" lon="6.37308">
        <ele>281</ele>
        <time>2022-01-21T14:16:48.000Z</time>
      </trkpt>
      <trkpt lat="43.51406" lon="6.37307">
        <ele>280</ele>
        <time>2022-01-21T14:16:49.000Z</time>
      </trkpt>
      <trkpt lat="43.51406" lon="6.37307">
        <ele>280</ele>
        <time>2022-01-21T14:16:50.000Z</time>
      </trkpt>
      <trkpt lat="43.51406" lon="6.37306">
        <ele>279</ele>
        <time>2022-01-21T14:16:51.000Z</time>
      </trkpt>
      <trkpt lat="43.51406" lon="6.37305">
        <ele>279</ele>
        <time>2022-01-21T14:16:52.000Z</time>
      </trkpt>
      <trkpt lat="43.51406" lon="6.37305">
        <ele>279</ele>
        <time>2022-01-21T14:16:53.000Z</time>
      </trkpt>
      <trkpt lat="43.51406" lon="6.37304">
        <ele>279</ele>
        <time>2022-01-21T14:16:54.000Z</time>
      </trkpt>
      <trkpt lat="43.51407" lon="6.37303">
        <ele>279</ele>
        <time>2022-01-21T14:16:55.000Z</time>
      </trkpt>
      <trkpt lat="43.51407" lon="6.37302">
        <ele>279</ele>
        <time>2022-01-21T14:16:56.000Z</time>
      </trkpt>
      <trkpt lat="43.51407" lon="6.37301">
        <ele>279</ele>
        <time>2022-01-21T14:16:57.000Z</time>
      </trkpt>
      <trkpt lat="43.51407" lon="6.373">
        <ele>279</ele>
        <time>2022-01-21T14:16:58.000Z</time>
      </trkpt>
      <trkpt lat="43.51407" lon="6.37298">
        <ele>279</ele>
        <time>2022-01-21T14:16:59.000Z</time>
      </trkpt>
      <trkpt lat="43.51408" lon="6.37297">
        <ele>279</ele>
        <time>2022-01-21T14:17:00.000Z</time>
      </trkpt>
      <trkpt lat="43.51408" lon="6.37296">
        <ele>279</ele>
        <time>2022-01-21T14:17:01.000Z</time>
      </trkpt>
      <trkpt lat="43.51408" lon="6.37295">
        <ele>279</ele>
        <time>2022-01-21T14:17:02.000Z</time>
      </trkpt>
      <trkpt lat="43.51408" lon="6.37294">
        <ele>279</ele>
        <time>2022-01-21T14:17:03.000Z</time>
      </trkpt>
      <trkpt lat="43.51408" lon="6.37293">
        <ele>279</ele>
        <time>2022-01-21T14:17:04.000Z</time>
      </trkpt>
      <trkpt lat="43.51408" lon="6.37292">
        <ele>279</ele>
        <time>2022-01-21T14:17:05.000Z</time>
      </trkpt>
      <trkpt lat="43.51408" lon="6.37291">
        <ele>278</ele>
        <time>2022-01-21T14:17:06.000Z</time>
      </trkpt>
      <trkpt lat="43.51408" lon="6.3729">
        <ele>277</ele>
        <time>2022-01-21T14:17:07.000Z</time>
      </trkpt>
      <trkpt lat="43.51408" lon="6.37289">
        <ele>277</ele>
        <time>2022-01-21T14:17:08.000Z</time>
      </trkpt>
      <trkpt lat="43.51407" lon="6.37289">
        <ele>277</ele>
        <time>2022-01-21T14:17:09.000Z</time>
      </trkpt>
      <trkpt lat="43.51407" lon="6.37288">
        <ele>277</ele>
        <time>2022-01-21T14:17:10.000Z</time>
      </trkpt>
      <trkpt lat="43.51407" lon="6.37287">
        <ele>277</ele>
        <time>2022-01-21T14:17:11.000Z</time>
      </trkpt>
      <trkpt lat="43.51407" lon="6.37287">
        <ele>277</ele>
        <time>2022-01-21T14:17:12.000Z</time>
      </trkpt>
      <trkpt lat="43.51407" lon="6.37287">
        <ele>277</ele>
        <time>2022-01-21T14:17:13.000Z</time>
      </trkpt>
      <trkpt lat="43.51407" lon="6.37287">
        <ele>277</ele>
        <time>2022-01-21T14:17:14.000Z</time>
      </trkpt>
      <trkpt lat="43.51407" lon="6.37287">
        <ele>277</ele>
        <time>2022-01-21T14:17:15.000Z</time>
      </trkpt>
      <trkpt lat="43.51407" lon="6.37287">
        <ele>277</ele>
        <time>2022-01-21T14:17:16.000Z</time>
      </trkpt>
      <trkpt lat="43.51407" lon="6.37287">
        <ele>277</ele>
        <time>2022-01-21T14:17:17.000Z</time>
      </trkpt>
      <trkpt lat="43.51407" lon="6.37287">
        <ele>277</ele>
        <time>2022-01-21T14:17:18.000Z</time>
      </trkpt>
      <trkpt lat="43.51407" lon="6.37287">
        <ele>277</ele>
        <time>2022-01-21T14:17:19.000Z</time>
      </trkpt>
      <trkpt lat="43.51407" lon="6.37287">
        <ele>277</ele>
        <time>2022-01-21T14:17:20.000Z</time>
      </trkpt>
      <trkpt lat="43.51407" lon="6.37287">
        <ele>277</ele>
        <time>2022-01-21T14:17:21.000Z</time>
      </trkpt>
      <trkpt lat="43.51407" lon="6.37287">
        <ele>277</ele>
        <time>2022-01-21T14:17:22.000Z</time>
      </trkpt>
      <trkpt lat="43.51407" lon="6.37287">
        <ele>277</ele>
        <time>2022-01-21T14:17:23.000Z</time>
      </trkpt>
      <trkpt lat="43.51407" lon="6.37287">
        <ele>277</ele>
        <time>2022-01-21T14:17:24.000Z</time>
      </trkpt>
      <trkpt lat="43.51407" lon="6.37287">
        <ele>277</ele>
        <time>2022-01-21T14:17:25.000Z</time>
      </trkpt>
      <trkpt lat="43.51407" lon="6.37287">
        <ele>277</ele>
        <time>2022-01-21T14:17:26.000Z</time>
      </trkpt>
      <trkpt lat="43.51407" lon="6.37287">
        <ele>277</ele>
        <time>2022-01-21T14:17:27.000Z</time>
      </trkpt>
      <trkpt lat="43.51407" lon="6.37287">
        <ele>277</ele>
        <time>2022-01-21T14:17:28.000Z</time>
      </trkpt>
      <trkpt lat="43.51407" lon="6.37287">
        <ele>277</ele>
        <time>2022-01-21T14:17:29.000Z</time>
      </trkpt>
      <trkpt lat="43.51407" lon="6.37287">
        <ele>277</ele>
        <time>2022-01-21T14:17:30.000Z</time>
      </trkpt>
      <trkpt lat="43.51407" lon="6.37287">
        <ele>277</ele>
        <time>2022-01-21T14:17:31.000Z</time>
      </trkpt>
      <trkpt lat="43.51407" lon="6.37287">
        <ele>277</ele>
        <time>2022-01-21T14:17:32.000Z</time>
      </trkpt>
      <trkpt lat="43.51407" lon="6.37283">
        <ele>277</ele>
        <time>2022-01-21T14:17:33.000Z</time>
      </trkpt>
      <trkpt lat="43.51407" lon="6.37283">
        <ele>277</ele>
        <time>2022-01-21T14:17:34.000Z</time>
      </trkpt>
      <trkpt lat="43.51407" lon="6.37282">
        <ele>277</ele>
        <time>2022-01-21T14:17:35.000Z</time>
      </trkpt>
      <trkpt lat="43.51406" lon="6.37282">
        <ele>277</ele>
        <time>2022-01-21T14:17:36.000Z</time>
      </trkpt>
      <trkpt lat="43.51406" lon="6.37282">
        <ele>277</ele>
        <time>2022-01-21T14:17:37.000Z</time>
      </trkpt>
      <trkpt lat="43.51406" lon="6.37282">
        <ele>277</ele>
        <time>2022-01-21T14:17:38.000Z</time>
      </trkpt>
      <trkpt lat="43.51406" lon="6.37282">
        <ele>277</ele>
        <time>2022-01-21T14:17:39.000Z</time>
      </trkpt>
      <trkpt lat="43.51406" lon="6.37282">
        <ele>277</ele>
        <time>2022-01-21T14:17:40.000Z</time>
      </trkpt>
      <trkpt lat="43.51406" lon="6.37282">
        <ele>277</ele>
        <time>2022-01-21T14:17:41.000Z</time>
      </trkpt>
      <trkpt lat="43.51406" lon="6.37282">
        <ele>277</ele>
        <time>2022-01-21T14:17:42.000Z</time>
      </trkpt>
      <trkpt lat="43.51406" lon="6.37282">
        <ele>277</ele>
        <time>2022-01-21T14:17:43.000Z</time>
      </trkpt>
      <trkpt lat="43.51406" lon="6.37282">
        <ele>277</ele>
        <time>2022-01-21T14:17:44.000Z</time>
      </trkpt>
      <trkpt lat="43.51406" lon="6.37282">
        <ele>277</ele>
        <time>2022-01-21T14:17:45.000Z</time>
      </trkpt>
      <trkpt lat="43.51406" lon="6.37282">
        <ele>277</ele>
        <time>2022-01-21T14:17:46.000Z</time>
      </trkpt>
      <trkpt lat="43.51406" lon="6.37282">
        <ele>277</ele>
        <time>2022-01-21T14:17:47.000Z</time>
      </trkpt>
      <trkpt lat="43.51406" lon="6.37282">
        <ele>277</ele>
        <time>2022-01-21T14:17:48.000Z</time>
      </trkpt>
      <trkpt lat="43.51406" lon="6.37282">
        <ele>277</ele>
        <time>2022-01-21T14:17:49.000Z</time>
      </trkpt>
      <trkpt lat="43.51406" lon="6.37282">
        <ele>277</ele>
        <time>2022-01-21T14:17:50.000Z</time>
      </trkpt>
      <trkpt lat="43.51406" lon="6.37282">
        <ele>277</ele>
        <time>2022-01-21T14:17:51.000Z</time>
      </trkpt>
      <trkpt lat="43.51406" lon="6.37282">
        <ele>277</ele>
        <time>2022-01-21T14:17:52.000Z</time>
      </trkpt>
      <trkpt lat="43.51406" lon="6.37282">
        <ele>277</ele>
        <time>2022-01-21T14:17:53.000Z</time>
      </trkpt>
      <trkpt lat="43.51406" lon="6.37282">
        <ele>277</ele>
        <time>2022-01-21T14:17:54.000Z</time>
      </trkpt>
      <trkpt lat="43.51406" lon="6.37282">
        <ele>277</ele>
        <time>2022-01-21T14:17:55.000Z</time>
      </trkpt>
      <trkpt lat="43.51406" lon="6.37282">
        <ele>277</ele>
        <time>2022-01-21T14:17:56.000Z</time>
      </trkpt>
      <trkpt lat="43.51406" lon="6.37282">
        <ele>277</ele>
        <time>2022-01-21T14:17:57.000Z</time>
      </trkpt>
      <trkpt lat="43.51406" lon="6.37282">
        <ele>277</ele>
        <time>2022-01-21T14:17:58.000Z</time>
      </trkpt>
      <trkpt lat="43.51406" lon="6.37282">
        <ele>277</ele>
        <time>2022-01-21T14:17:59.000Z</time>
      </trkpt>
      <trkpt lat="43.51406" lon="6.37282">
        <ele>277</ele>
        <time>2022-01-21T14:18:00.000Z</time>
      </trkpt>
      <trkpt lat="43.51406" lon="6.37282">
        <ele>277</ele>
        <time>2022-01-21T14:18:01.000Z</time>
      </trkpt>
      <trkpt lat="43.51406" lon="6.37282">
        <ele>277</ele>
        <time>2022-01-21T14:18:02.000Z</time>
      </trkpt>
      <trkpt lat="43.51406" lon="6.37282">
        <ele>277</ele>
        <time>2022-01-21T14:18:03.000Z</time>
      </trkpt>
      <trkpt lat="43.51406" lon="6.37282">
        <ele>277</ele>
        <time>2022-01-21T14:18:04.000Z</time>
      </trkpt>
      <trkpt lat="43.51406" lon="6.37282">
        <ele>277</ele>
        <time>2022-01-21T14:18:05.000Z</time>
      </trkpt>
      <trkpt lat="43.51406" lon="6.37282">
        <ele>277</ele>
        <time>2022-01-21T14:18:06.000Z</time>
      </trkpt>
      <trkpt lat="43.51406" lon="6.37282">
        <ele>277</ele>
        <time>2022-01-21T14:18:07.000Z</time>
      </trkpt>
      <trkpt lat="43.51406" lon="6.37282">
        <ele>277</ele>
        <time>2022-01-21T14:18:08.000Z</time>
      </trkpt>
      <trkpt lat="43.51406" lon="6.37282">
        <ele>277</ele>
        <time>2022-01-21T14:18:09.000Z</time>
      </trkpt>
      <trkpt lat="43.51406" lon="6.37282">
        <ele>277</ele>
        <time>2022-01-21T14:18:10.000Z</time>
      </trkpt>
      <trkpt lat="43.51406" lon="6.37282">
        <ele>277</ele>
        <time>2022-01-21T14:18:11.000Z</time>
      </trkpt>
      <trkpt lat="43.51406" lon="6.37282">
        <ele>277</ele>
        <time>2022-01-21T14:18:12.000Z</time>
      </trkpt>
      <trkpt lat="43.51406" lon="6.37282">
        <ele>277</ele>
        <time>2022-01-21T14:18:13.000Z</time>
      </trkpt>
      <trkpt lat="43.51406" lon="6.37282">
        <ele>277</ele>
        <time>2022-01-21T14:18:14.000Z</time>
      </trkpt>
      <trkpt lat="43.51406" lon="6.37282">
        <ele>277</ele>
        <time>2022-01-21T14:18:15.000Z</time>
      </trkpt>
      <trkpt lat="43.51406" lon="6.37282">
        <ele>277</ele>
        <time>2022-01-21T14:18:16.000Z</time>
      </trkpt>
      <trkpt lat="43.51406" lon="6.37282">
        <ele>277</ele>
        <time>2022-01-21T14:18:17.000Z</time>
      </trkpt>
      <trkpt lat="43.51406" lon="6.37282">
        <ele>277</ele>
        <time>2022-01-21T14:18:18.000Z</time>
      </trkpt>
      <trkpt lat="43.51406" lon="6.37282">
        <ele>277</ele>
        <time>2022-01-21T14:18:19.000Z</time>
      </trkpt>
      <trkpt lat="43.51406" lon="6.37282">
        <ele>277</ele>
        <time>2022-01-21T14:18:20.000Z</time>
      </trkpt>
      <trkpt lat="43.51406" lon="6.37282">
        <ele>277</ele>
        <time>2022-01-21T14:18:21.000Z</time>
      </trkpt>
      <trkpt lat="43.51405" lon="6.3728">
        <ele>277</ele>
        <time>2022-01-21T14:18:22.000Z</time>
      </trkpt>
      <trkpt lat="43.51405" lon="6.3728">
        <ele>277</ele>
        <time>2022-01-21T14:18:23.000Z</time>
      </trkpt>
      <trkpt lat="43.51405" lon="6.3728">
        <ele>277</ele>
        <time>2022-01-21T14:18:24.000Z</time>
      </trkpt>
      <trkpt lat="43.51405" lon="6.3728">
        <ele>277</ele>
        <time>2022-01-21T14:18:25.000Z</time>
      </trkpt>
      <trkpt lat="43.51405" lon="6.3728">
        <ele>277</ele>
        <time>2022-01-21T14:18:26.000Z</time>
      </trkpt>
      <trkpt lat="43.51405" lon="6.3728">
        <ele>277</ele>
        <time>2022-01-21T14:18:27.000Z</time>
      </trkpt>
      <trkpt lat="43.51405" lon="6.3728">
        <ele>277</ele>
        <time>2022-01-21T14:18:28.000Z</time>
      </trkpt>
      <trkpt lat="43.51405" lon="6.3728">
        <ele>277</ele>
        <time>2022-01-21T14:18:29.000Z</time>
      </trkpt>
      <trkpt lat="43.51405" lon="6.3728">
        <ele>277</ele>
        <time>2022-01-21T14:18:30.000Z</time>
      </trkpt>
      <trkpt lat="43.51405" lon="6.3728">
        <ele>277</ele>
        <time>2022-01-21T14:18:31.000Z</time>
      </trkpt>
      <trkpt lat="43.51405" lon="6.3728">
        <ele>277</ele>
        <time>2022-01-21T14:18:32.000Z</time>
      </trkpt>
      <trkpt lat="43.51405" lon="6.3728">
        <ele>277</ele>
        <time>2022-01-21T14:18:33.000Z</time>
      </trkpt>
      <trkpt lat="43.51405" lon="6.3728">
        <ele>277</ele>
        <time>2022-01-21T14:18:34.000Z</time>
      </trkpt>
      <trkpt lat="43.51405" lon="6.3728">
        <ele>277</ele>
        <time>2022-01-21T14:18:35.000Z</time>
      </trkpt>
      <trkpt lat="43.51405" lon="6.3728">
        <ele>277</ele>
        <time>2022-01-21T14:18:36.000Z</time>
      </trkpt>
      <trkpt lat="43.51405" lon="6.3728">
        <ele>277</ele>
        <time>2022-01-21T14:18:37.000Z</time>
      </trkpt>
      <trkpt lat="43.51405" lon="6.3728">
        <ele>277</ele>
        <time>2022-01-21T14:18:38.000Z</time>
      </trkpt>
      <trkpt lat="43.51405" lon="6.3728">
        <ele>277</ele>
        <time>2022-01-21T14:18:39.000Z</time>
      </trkpt>
      <trkpt lat="43.51405" lon="6.3728">
        <ele>277</ele>
        <time>2022-01-21T14:18:40.000Z</time>
      </trkpt>
      <trkpt lat="43.51405" lon="6.3728">
        <ele>277</ele>
        <time>2022-01-21T14:18:41.000Z</time>
      </trkpt>
      <trkpt lat="43.51405" lon="6.3728">
        <ele>277</ele>
        <time>2022-01-21T14:18:42.000Z</time>
      </trkpt>
      <trkpt lat="43.51405" lon="6.3728">
        <ele>277</ele>
        <time>2022-01-21T14:18:43.000Z</time>
      </trkpt>
      <trkpt lat="43.51405" lon="6.3728">
        <ele>277</ele>
        <time>2022-01-21T14:18:44.000Z</time>
      </trkpt>
      <trkpt lat="43.51405" lon="6.3728">
        <ele>277</ele>
        <time>2022-01-21T14:18:45.000Z</time>
      </trkpt>
      <trkpt lat="43.51405" lon="6.3728">
        <ele>277</ele>
        <time>2022-01-21T14:18:46.000Z</time>
      </trkpt>
      <trkpt lat="43.51405" lon="6.3728">
        <ele>277</ele>
        <time>2022-01-21T14:18:47.000Z</time>
      </trkpt>
      <trkpt lat="43.51405" lon="6.3728">
        <ele>277</ele>
        <time>2022-01-21T14:18:48.000Z</time>
      </trkpt>
      <trkpt lat="43.51405" lon="6.3728">
        <ele>277</ele>
        <time>2022-01-21T14:18:49.000Z</time>
      </trkpt>
      <trkpt lat="43.51405" lon="6.3728">
        <ele>277</ele>
        <time>2022-01-21T14:18:50.000Z</time>
      </trkpt>
      <trkpt lat="43.51405" lon="6.3728">
        <ele>277</ele>
        <time>2022-01-21T14:18:51.000Z</time>
      </trkpt>
      <trkpt lat="43.51405" lon="6.3728">
        <ele>277</ele>
        <time>2022-01-21T14:18:52.000Z</time>
      </trkpt>
      <trkpt lat="43.51405" lon="6.3728">
        <ele>277</ele>
        <time>2022-01-21T14:18:53.000Z</time>
      </trkpt>
      <trkpt lat="43.51405" lon="6.3728">
        <ele>277</ele>
        <time>2022-01-21T14:18:54.000Z</time>
      </trkpt>
      <trkpt lat="43.51405" lon="6.3728">
        <ele>277</ele>
        <time>2022-01-21T14:18:55.000Z</time>
      </trkpt>
      <trkpt lat="43.51405" lon="6.3728">
        <ele>277</ele>
        <time>2022-01-21T14:18:56.000Z</time>
      </trkpt>
      <trkpt lat="43.51405" lon="6.3728">
        <ele>277</ele>
        <time>2022-01-21T14:18:57.000Z</time>
      </trkpt>
      <trkpt lat="43.51405" lon="6.3728">
        <ele>277</ele>
        <time>2022-01-21T14:18:58.000Z</time>
      </trkpt>
      <trkpt lat="43.51405" lon="6.3728">
        <ele>277</ele>
        <time>2022-01-21T14:18:59.000Z</time>
      </trkpt>
      <trkpt lat="43.51405" lon="6.3728">
        <ele>277</ele>
        <time>2022-01-21T14:19:00.000Z</time>
      </trkpt>
      <trkpt lat="43.51405" lon="6.3728">
        <ele>277</ele>
        <time>2022-01-21T14:19:01.000Z</time>
      </trkpt>
      <trkpt lat="43.51405" lon="6.3728">
        <ele>277</ele>
        <time>2022-01-21T14:19:02.000Z</time>
      </trkpt>
      <trkpt lat="43.51405" lon="6.3728">
        <ele>277</ele>
        <time>2022-01-21T14:19:03.000Z</time>
      </trkpt>
      <trkpt lat="43.51405" lon="6.3728">
        <ele>277</ele>
        <time>2022-01-21T14:19:04.000Z</time>
      </trkpt>
      <trkpt lat="43.51405" lon="6.3728">
        <ele>277</ele>
        <time>2022-01-21T14:19:05.000Z</time>
      </trkpt>
      <trkpt lat="43.51405" lon="6.3728">
        <ele>277</ele>
        <time>2022-01-21T14:19:06.000Z</time>
      </trkpt>
      <trkpt lat="43.51405" lon="6.3728">
        <ele>277</ele>
        <time>2022-01-21T14:19:07.000Z</time>
      </trkpt>
      <trkpt lat="43.51405" lon="6.3728">
        <ele>277</ele>
        <time>2022-01-21T14:19:08.000Z</time>
      </trkpt>
      <trkpt lat="43.51405" lon="6.3728">
        <ele>277</ele>
        <time>2022-01-21T14:19:09.000Z</time>
      </trkpt>
      <trkpt lat="43.51405" lon="6.3728">
        <ele>277</ele>
        <time>2022-01-21T14:19:10.000Z</time>
      </trkpt>
      <trkpt lat="43.51405" lon="6.3728">
        <ele>277</ele>
        <time>2022-01-21T14:19:11.000Z</time>
      </trkpt>
      <trkpt lat="43.51405" lon="6.3728">
        <ele>277</ele>
        <time>2022-01-21T14:19:12.000Z</time>
      </trkpt>
      <trkpt lat="43.51405" lon="6.3728">
        <ele>277</ele>
        <time>2022-01-21T14:19:13.000Z</time>
      </trkpt>
      <trkpt lat="43.51405" lon="6.3728">
        <ele>277</ele>
        <time>2022-01-21T14:19:14.000Z</time>
      </trkpt>
      <trkpt lat="43.51405" lon="6.3728">
        <ele>277</ele>
        <time>2022-01-21T14:19:15.000Z</time>
      </trkpt>
      <trkpt lat="43.51405" lon="6.3728">
        <ele>277</ele>
        <time>2022-01-21T14:19:16.000Z</time>
      </trkpt>
      <trkpt lat="43.51405" lon="6.3728">
        <ele>277</ele>
        <time>2022-01-21T14:19:17.000Z</time>
      </trkpt>
      <trkpt lat="43.51405" lon="6.3728">
        <ele>277</ele>
        <time>2022-01-21T14:19:18.000Z</time>
      </trkpt>
      <trkpt lat="43.51405" lon="6.3728">
        <ele>277</ele>
        <time>2022-01-21T14:19:19.000Z</time>
      </trkpt>
      <trkpt lat="43.51405" lon="6.3728">
        <ele>277</ele>
        <time>2022-01-21T14:19:20.000Z</time>
      </trkpt>
      <trkpt lat="43.51405" lon="6.3728">
        <ele>277</ele>
        <time>2022-01-21T14:19:21.000Z</time>
      </trkpt>
      <trkpt lat="43.51405" lon="6.3728">
        <ele>277</ele>
        <time>2022-01-21T14:19:22.000Z</time>
      </trkpt>
      <trkpt lat="43.51405" lon="6.3728">
        <ele>277</ele>
        <time>2022-01-21T14:19:23.000Z</time>
      </trkpt>
      <trkpt lat="43.51405" lon="6.3728">
        <ele>277</ele>
        <time>2022-01-21T14:19:24.000Z</time>
      </trkpt>
      <trkpt lat="43.51405" lon="6.3728">
        <ele>277</ele>
        <time>2022-01-21T14:19:25.000Z</time>
      </trkpt>
      <trkpt lat="43.51405" lon="6.3728">
        <ele>277</ele>
        <time>2022-01-21T14:19:26.000Z</time>
      </trkpt>
      <trkpt lat="43.51405" lon="6.3728">
        <ele>277</ele>
        <time>2022-01-21T14:19:27.000Z</time>
      </trkpt>
      <trkpt lat="43.51405" lon="6.3728">
        <ele>277</ele>
        <time>2022-01-21T14:19:28.000Z</time>
      </trkpt>
      <trkpt lat="43.51405" lon="6.3728">
        <ele>277</ele>
        <time>2022-01-21T14:19:29.000Z</time>
      </trkpt>
      <trkpt lat="43.51405" lon="6.3728">
        <ele>277</ele>
        <time>2022-01-21T14:19:30.000Z</time>
      </trkpt>
      <trkpt lat="43.51405" lon="6.3728">
        <ele>277</ele>
        <time>2022-01-21T14:19:31.000Z</time>
      </trkpt>
      <trkpt lat="43.51405" lon="6.3728">
        <ele>277</ele>
        <time>2022-01-21T14:19:32.000Z</time>
      </trkpt>
      <trkpt lat="43.51405" lon="6.3728">
        <ele>277</ele>
        <time>2022-01-21T14:19:33.000Z</time>
      </trkpt>
      <trkpt lat="43.51405" lon="6.3728">
        <ele>277</ele>
        <time>2022-01-21T14:19:34.000Z</time>
      </trkpt>
      <trkpt lat="43.51405" lon="6.3728">
        <ele>277</ele>
        <time>2022-01-21T14:19:35.000Z</time>
      </trkpt>
      <trkpt lat="43.51405" lon="6.3728">
        <ele>277</ele>
        <time>2022-01-21T14:19:36.000Z</time>
      </trkpt>
      <trkpt lat="43.51405" lon="6.3728">
        <ele>277</ele>
        <time>2022-01-21T14:19:37.000Z</time>
      </trkpt>
      <trkpt lat="43.51405" lon="6.3728">
        <ele>277</ele>
        <time>2022-01-21T14:19:38.000Z</time>
      </trkpt>
      <trkpt lat="43.51405" lon="6.3728">
        <ele>277</ele>
        <time>2022-01-21T14:19:39.000Z</time>
      </trkpt>
      <trkpt lat="43.51405" lon="6.3728">
        <ele>277</ele>
        <time>2022-01-21T14:19:40.000Z</time>
      </trkpt>
      <trkpt lat="43.51405" lon="6.3728">
        <ele>277</ele>
        <time>2022-01-21T14:19:41.000Z</time>
      </trkpt>
      <trkpt lat="43.51405" lon="6.3728">
        <ele>277</ele>
        <time>2022-01-21T14:19:42.000Z</time>
      </trkpt>
      <trkpt lat="43.51405" lon="6.3728">
        <ele>277</ele>
        <time>2022-01-21T14:19:43.000Z</time>
      </trkpt>
      <trkpt lat="43.51405" lon="6.3728">
        <ele>277</ele>
        <time>2022-01-21T14:19:44.000Z</time>
      </trkpt>
      <trkpt lat="43.51405" lon="6.3728">
        <ele>277</ele>
        <time>2022-01-21T14:19:45.000Z</time>
      </trkpt>
      <trkpt lat="43.51405" lon="6.3728">
        <ele>277</ele>
        <time>2022-01-21T14:19:46.000Z</time>
      </trkpt>
      <trkpt lat="43.51405" lon="6.3728">
        <ele>277</ele>
        <time>2022-01-21T14:19:47.000Z</time>
      </trkpt>
      <trkpt lat="43.51405" lon="6.3728">
        <ele>277</ele>
        <time>2022-01-21T14:19:48.000Z</time>
      </trkpt>
      <trkpt lat="43.51405" lon="6.3728">
        <ele>277</ele>
        <time>2022-01-21T14:19:49.000Z</time>
      </trkpt>
      <trkpt lat="43.51405" lon="6.3728">
        <ele>277</ele>
        <time>2022-01-21T14:19:50.000Z</time>
      </trkpt>
      <trkpt lat="43.51405" lon="6.3728">
        <ele>277</ele>
        <time>2022-01-21T14:19:51.000Z</time>
      </trkpt>
      <trkpt lat="43.51405" lon="6.3728">
        <ele>277</ele>
        <time>2022-01-21T14:19:52.000Z</time>
      </trkpt>
      <trkpt lat="43.51405" lon="6.3728">
        <ele>277</ele>
        <time>2022-01-21T14:19:53.000Z</time>
      </trkpt>
      <trkpt lat="43.51405" lon="6.3728">
        <ele>277</ele>
        <time>2022-01-21T14:19:54.000Z</time>
      </trkpt>
      <trkpt lat="43.51405" lon="6.3728">
        <ele>277</ele>
        <time>2022-01-21T14:19:55.000Z</time>
      </trkpt>
      <trkpt lat="43.51405" lon="6.3728">
        <ele>277</ele>
        <time>2022-01-21T14:19:56.000Z</time>
      </trkpt>
      <trkpt lat="43.51405" lon="6.3728">
        <ele>277</ele>
        <time>2022-01-21T14:19:57.000Z</time>
      </trkpt>
      <trkpt lat="43.51405" lon="6.3728">
        <ele>277</ele>
        <time>2022-01-21T14:19:58.000Z</time>
      </trkpt>
      <trkpt lat="43.51405" lon="6.3728">
        <ele>277</ele>
        <time>2022-01-21T14:19:59.000Z</time>
      </trkpt>
      <trkpt lat="43.51405" lon="6.3728">
        <ele>277</ele>
        <time>2022-01-21T14:20:00.000Z</time>
      </trkpt>
      <trkpt lat="43.51405" lon="6.3728">
        <ele>277</ele>
        <time>2022-01-21T14:20:01.000Z</time>
      </trkpt>
      <trkpt lat="43.51405" lon="6.3728">
        <ele>277</ele>
        <time>2022-01-21T14:20:02.000Z</time>
      </trkpt>
      <trkpt lat="43.51405" lon="6.3728">
        <ele>277</ele>
        <time>2022-01-21T14:20:03.000Z</time>
      </trkpt>
      <trkpt lat="43.51405" lon="6.3728">
        <ele>277</ele>
        <time>2022-01-21T14:20:04.000Z</time>
      </trkpt>
      <trkpt lat="43.51405" lon="6.3728">
        <ele>277</ele>
        <time>2022-01-21T14:20:05.000Z</time>
      </trkpt>
      <trkpt lat="43.51405" lon="6.3728">
        <ele>277</ele>
        <time>2022-01-21T14:20:06.000Z</time>
      </trkpt>
      <trkpt lat="43.51405" lon="6.3728">
        <ele>277</ele>
        <time>2022-01-21T14:20:07.000Z</time>
      </trkpt>
      <trkpt lat="43.51405" lon="6.3728">
        <ele>277</ele>
        <time>2022-01-21T14:20:08.000Z</time>
      </trkpt>
      <trkpt lat="43.51405" lon="6.3728">
        <ele>277</ele>
        <time>2022-01-21T14:20:09.000Z</time>
      </trkpt>
      <trkpt lat="43.51405" lon="6.3728">
        <ele>277</ele>
        <time>2022-01-21T14:20:10.000Z</time>
      </trkpt>
      <trkpt lat="43.51405" lon="6.3728">
        <ele>277</ele>
        <time>2022-01-21T14:20:11.000Z</time>
      </trkpt>
      <trkpt lat="43.51405" lon="6.3728">
        <ele>277</ele>
        <time>2022-01-21T14:20:12.000Z</time>
      </trkpt>
      <trkpt lat="43.51405" lon="6.3728">
        <ele>277</ele>
        <time>2022-01-21T14:20:13.000Z</time>
      </trkpt>
      <trkpt lat="43.51405" lon="6.3728">
        <ele>277</ele>
        <time>2022-01-21T14:20:14.000Z</time>
      </trkpt>
      <trkpt lat="43.51405" lon="6.3728">
        <ele>277</ele>
        <time>2022-01-21T14:20:15.000Z</time>
      </trkpt>
      <trkpt lat="43.51405" lon="6.3728">
        <ele>277</ele>
        <time>2022-01-21T14:20:16.000Z</time>
      </trkpt>
      <trkpt lat="43.51405" lon="6.3728">
        <ele>277</ele>
        <time>2022-01-21T14:20:17.000Z</time>
      </trkpt>
      <trkpt lat="43.51405" lon="6.3728">
        <ele>277</ele>
        <time>2022-01-21T14:20:18.000Z</time>
      </trkpt>
      <trkpt lat="43.51405" lon="6.3728">
        <ele>277</ele>
        <time>2022-01-21T14:20:19.000Z</time>
      </trkpt>
      <trkpt lat="43.51405" lon="6.3728">
        <ele>277</ele>
        <time>2022-01-21T14:20:20.000Z</time>
      </trkpt>
      <trkpt lat="43.51405" lon="6.3728">
        <ele>277</ele>
        <time>2022-01-21T14:20:21.000Z</time>
      </trkpt>
      <trkpt lat="43.51405" lon="6.3728">
        <ele>277</ele>
        <time>2022-01-21T14:20:22.000Z</time>
      </trkpt>
      <trkpt lat="43.51405" lon="6.3728">
        <ele>277</ele>
        <time>2022-01-21T14:20:23.000Z</time>
      </trkpt>
      <trkpt lat="43.51405" lon="6.3728">
        <ele>277</ele>
        <time>2022-01-21T14:20:24.000Z</time>
      </trkpt>
      <trkpt lat="43.51405" lon="6.3728">
        <ele>277</ele>
        <time>2022-01-21T14:20:25.000Z</time>
      </trkpt>
      <trkpt lat="43.51405" lon="6.3728">
        <ele>277</ele>
        <time>2022-01-21T14:20:26.000Z</time>
      </trkpt>
      <trkpt lat="43.51405" lon="6.3728">
        <ele>277</ele>
        <time>2022-01-21T14:20:27.000Z</time>
      </trkpt>
      <trkpt lat="43.51405" lon="6.3728">
        <ele>277</ele>
        <time>2022-01-21T14:20:28.000Z</time>
      </trkpt>
      <trkpt lat="43.51405" lon="6.3728">
        <ele>277</ele>
        <time>2022-01-21T14:20:29.000Z</time>
      </trkpt>
      <trkpt lat="43.51405" lon="6.3728">
        <ele>277</ele>
        <time>2022-01-21T14:20:30.000Z</time>
      </trkpt>
      <trkpt lat="43.51405" lon="6.3728">
        <ele>277</ele>
        <time>2022-01-21T14:20:31.000Z</time>
      </trkpt>
      <trkpt lat="43.51405" lon="6.3728">
        <ele>277</ele>
        <time>2022-01-21T14:20:32.000Z</time>
      </trkpt>
      <trkpt lat="43.51405" lon="6.3728">
        <ele>277</ele>
        <time>2022-01-21T14:20:33.000Z</time>
      </trkpt>
      <trkpt lat="43.51405" lon="6.3728">
        <ele>277</ele>
        <time>2022-01-21T14:20:34.000Z</time>
      </trkpt>
      <trkpt lat="43.51405" lon="6.3728">
        <ele>277</ele>
        <time>2022-01-21T14:20:35.000Z</time>
      </trkpt>
      <trkpt lat="43.51405" lon="6.3728">
        <ele>277</ele>
        <time>2022-01-21T14:20:36.000Z</time>
      </trkpt>
      <trkpt lat="43.51405" lon="6.3728">
        <ele>277</ele>
        <time>2022-01-21T14:20:37.000Z</time>
      </trkpt>
      <trkpt lat="43.51405" lon="6.3728">
        <ele>277</ele>
        <time>2022-01-21T14:20:38.000Z</time>
      </trkpt>
      <trkpt lat="43.51405" lon="6.3728">
        <ele>277</ele>
        <time>2022-01-21T14:20:39.000Z</time>
      </trkpt>
      <trkpt lat="43.51405" lon="6.3728">
        <ele>277</ele>
        <time>2022-01-21T14:20:40.000Z</time>
      </trkpt>
      <trkpt lat="43.51405" lon="6.3728">
        <ele>277</ele>
        <time>2022-01-21T14:20:41.000Z</time>
      </trkpt>
      <trkpt lat="43.51405" lon="6.3728">
        <ele>277</ele>
        <time>2022-01-21T14:20:42.000Z</time>
      </trkpt>
      <trkpt lat="43.51405" lon="6.3728">
        <ele>277</ele>
        <time>2022-01-21T14:20:43.000Z</time>
      </trkpt>
      <trkpt lat="43.51405" lon="6.3728">
        <ele>277</ele>
        <time>2022-01-21T14:20:44.000Z</time>
      </trkpt>
      <trkpt lat="43.51405" lon="6.3728">
        <ele>277</ele>
        <time>2022-01-21T14:20:45.000Z</time>
      </trkpt>
      <trkpt lat="43.51405" lon="6.3728">
        <ele>277</ele>
        <time>2022-01-21T14:20:46.000Z</time>
      </trkpt>
      <trkpt lat="43.51405" lon="6.3728">
        <ele>277</ele>
        <time>2022-01-21T14:20:47.000Z</time>
      </trkpt>
      <trkpt lat="43.51405" lon="6.3728">
        <ele>277</ele>
        <time>2022-01-21T14:20:48.000Z</time>
      </trkpt>
      <trkpt lat="43.51405" lon="6.3728">
        <ele>277</ele>
        <time>2022-01-21T14:20:49.000Z</time>
      </trkpt>
      <trkpt lat="43.51405" lon="6.3728">
        <ele>277</ele>
        <time>2022-01-21T14:20:50.000Z</time>
      </trkpt>
      <trkpt lat="43.51405" lon="6.3728">
        <ele>277</ele>
        <time>2022-01-21T14:20:51.000Z</time>
      </trkpt>
      <trkpt lat="43.51405" lon="6.3728">
        <ele>277</ele>
        <time>2022-01-21T14:20:52.000Z</time>
      </trkpt>
      <trkpt lat="43.51405" lon="6.3728">
        <ele>277</ele>
        <time>2022-01-21T14:20:53.000Z</time>
      </trkpt>
      <trkpt lat="43.51405" lon="6.3728">
        <ele>277</ele>
        <time>2022-01-21T14:20:54.000Z</time>
      </trkpt>
      <trkpt lat="43.51405" lon="6.3728">
        <ele>277</ele>
        <time>2022-01-21T14:20:55.000Z</time>
      </trkpt>
      <trkpt lat="43.51405" lon="6.3728">
        <ele>277</ele>
        <time>2022-01-21T14:20:56.000Z</time>
      </trkpt>
      <trkpt lat="43.51405" lon="6.3728">
        <ele>277</ele>
        <time>2022-01-21T14:20:57.000Z</time>
      </trkpt>
      <trkpt lat="43.51405" lon="6.3728">
        <ele>277</ele>
        <time>2022-01-21T14:20:58.000Z</time>
      </trkpt>
      <trkpt lat="43.51405" lon="6.3728">
        <ele>277</ele>
        <time>2022-01-21T14:20:59.000Z</time>
      </trkpt>
      <trkpt lat="43.51405" lon="6.3728">
        <ele>277</ele>
        <time>2022-01-21T14:21:00.000Z</time>
      </trkpt>
      <trkpt lat="43.51405" lon="6.3728">
        <ele>277</ele>
        <time>2022-01-21T14:21:01.000Z</time>
      </trkpt>
      <trkpt lat="43.51405" lon="6.3728">
        <ele>277</ele>
        <time>2022-01-21T14:21:02.000Z</time>
      </trkpt>
      <trkpt lat="43.51405" lon="6.3728">
        <ele>277</ele>
        <time>2022-01-21T14:21:03.000Z</time>
      </trkpt>
      <trkpt lat="43.51405" lon="6.3728">
        <ele>277</ele>
        <time>2022-01-21T14:21:04.000Z</time>
      </trkpt>
      <trkpt lat="43.51405" lon="6.3728">
        <ele>277</ele>
        <time>2022-01-21T14:21:05.000Z</time>
      </trkpt>
      <trkpt lat="43.51405" lon="6.3728">
        <ele>277</ele>
        <time>2022-01-21T14:21:06.000Z</time>
      </trkpt>
      <trkpt lat="43.51405" lon="6.3728">
        <ele>277</ele>
        <time>2022-01-21T14:21:07.000Z</time>
      </trkpt>
      <trkpt lat="43.51405" lon="6.3728">
        <ele>277</ele>
        <time>2022-01-21T14:21:08.000Z</time>
      </trkpt>
      <trkpt lat="43.51405" lon="6.3728">
        <ele>277</ele>
        <time>2022-01-21T14:21:09.000Z</time>
      </trkpt>
      <trkpt lat="43.51405" lon="6.3728">
        <ele>277</ele>
        <time>2022-01-21T14:21:10.000Z</time>
      </trkpt>
      <trkpt lat="43.51405" lon="6.3728">
        <ele>277</ele>
        <time>2022-01-21T14:21:11.000Z</time>
      </trkpt>
      <trkpt lat="43.51405" lon="6.3728">
        <ele>277</ele>
        <time>2022-01-21T14:21:12.000Z</time>
      </trkpt>
      <trkpt lat="43.51405" lon="6.3728">
        <ele>277</ele>
        <time>2022-01-21T14:21:13.000Z</time>
      </trkpt>
      <trkpt lat="43.51405" lon="6.3728">
        <ele>277</ele>
        <time>2022-01-21T14:21:14.000Z</time>
      </trkpt>
      <trkpt lat="43.51405" lon="6.3728">
        <ele>277</ele>
        <time>2022-01-21T14:21:15.000Z</time>
      </trkpt>
      <trkpt lat="43.51405" lon="6.3728">
        <ele>277</ele>
        <time>2022-01-21T14:21:16.000Z</time>
      </trkpt>
      <trkpt lat="43.51405" lon="6.3728">
        <ele>277</ele>
        <time>2022-01-21T14:21:17.000Z</time>
      </trkpt>
      <trkpt lat="43.51405" lon="6.3728">
        <ele>277</ele>
        <time>2022-01-21T14:21:18.000Z</time>
      </trkpt>
      <trkpt lat="43.51405" lon="6.3728">
        <ele>277</ele>
        <time>2022-01-21T14:21:19.000Z</time>
      </trkpt>
      <trkpt lat="43.51405" lon="6.3728">
        <ele>277</ele>
        <time>2022-01-21T14:21:20.000Z</time>
      </trkpt>
      <trkpt lat="43.51405" lon="6.3728">
        <ele>277</ele>
        <time>2022-01-21T14:21:21.000Z</time>
      </trkpt>
      <trkpt lat="43.51405" lon="6.3728">
        <ele>277</ele>
        <time>2022-01-21T14:21:22.000Z</time>
      </trkpt>
      <trkpt lat="43.51405" lon="6.3728">
        <ele>277</ele>
        <time>2022-01-21T14:21:23.000Z</time>
      </trkpt>
      <trkpt lat="43.51405" lon="6.3728">
        <ele>277</ele>
        <time>2022-01-21T14:21:24.000Z</time>
      </trkpt>
      <trkpt lat="43.51405" lon="6.3728">
        <ele>277</ele>
        <time>2022-01-21T14:21:25.000Z</time>
      </trkpt>
      <trkpt lat="43.51405" lon="6.3728">
        <ele>277</ele>
        <time>2022-01-21T14:21:26.000Z</time>
      </trkpt>
      <trkpt lat="43.51405" lon="6.3728">
        <ele>277</ele>
        <time>2022-01-21T14:21:27.000Z</time>
      </trkpt>
      <trkpt lat="43.51405" lon="6.3728">
        <ele>277</ele>
        <time>2022-01-21T14:21:28.000Z</time>
      </trkpt>
      <trkpt lat="43.51405" lon="6.3728">
        <ele>277</ele>
        <time>2022-01-21T14:21:29.000Z</time>
      </trkpt>
      <trkpt lat="43.51405" lon="6.3728">
        <ele>277</ele>
        <time>2022-01-21T14:21:30.000Z</time>
      </trkpt>
      <trkpt lat="43.51405" lon="6.3728">
        <ele>277</ele>
        <time>2022-01-21T14:21:31.000Z</time>
      </trkpt>
      <trkpt lat="43.51405" lon="6.3728">
        <ele>277</ele>
        <time>2022-01-21T14:21:32.000Z</time>
      </trkpt>
      <trkpt lat="43.51405" lon="6.3728">
        <ele>277</ele>
        <time>2022-01-21T14:21:33.000Z</time>
      </trkpt>
      <trkpt lat="43.51405" lon="6.3728">
        <ele>277</ele>
        <time>2022-01-21T14:21:34.000Z</time>
      </trkpt>
      <trkpt lat="43.51405" lon="6.3728">
        <ele>277</ele>
        <time>2022-01-21T14:21:35.000Z</time>
      </trkpt>
      <trkpt lat="43.51405" lon="6.3728">
        <ele>277</ele>
        <time>2022-01-21T14:21:36.000Z</time>
      </trkpt>
      <trkpt lat="43.51405" lon="6.3728">
        <ele>277</ele>
        <time>2022-01-21T14:21:37.000Z</time>
      </trkpt>
      <trkpt lat="43.51405" lon="6.3728">
        <ele>277</ele>
        <time>2022-01-21T14:21:38.000Z</time>
      </trkpt>
      <trkpt lat="43.51405" lon="6.3728">
        <ele>277</ele>
        <time>2022-01-21T14:21:39.000Z</time>
      </trkpt>
      <trkpt lat="43.51405" lon="6.3728">
        <ele>277</ele>
        <time>2022-01-21T14:21:40.000Z</time>
      </trkpt>
      <trkpt lat="43.51405" lon="6.3728">
        <ele>277</ele>
        <time>2022-01-21T14:21:41.000Z</time>
      </trkpt>
      <trkpt lat="43.51405" lon="6.3728">
        <ele>277</ele>
        <time>2022-01-21T14:21:42.000Z</time>
      </trkpt>
      <trkpt lat="43.51405" lon="6.3728">
        <ele>277</ele>
        <time>2022-01-21T14:21:43.000Z</time>
      </trkpt>
      <trkpt lat="43.51405" lon="6.3728">
        <ele>277</ele>
        <time>2022-01-21T14:21:44.000Z</time>
      </trkpt>
      <trkpt lat="43.51405" lon="6.3728">
        <ele>277</ele>
        <time>2022-01-21T14:21:45.000Z</time>
      </trkpt>
      <trkpt lat="43.51405" lon="6.3728">
        <ele>277</ele>
        <time>2022-01-21T14:21:46.000Z</time>
      </trkpt>
      <trkpt lat="43.51405" lon="6.3728">
        <ele>277</ele>
        <time>2022-01-21T14:21:47.000Z</time>
      </trkpt>
      <trkpt lat="43.51405" lon="6.3728">
        <ele>277</ele>
        <time>2022-01-21T14:21:48.000Z</time>
      </trkpt>
      <trkpt lat="43.51405" lon="6.3728">
        <ele>277</ele>
        <time>2022-01-21T14:21:49.000Z</time>
      </trkpt>
      <trkpt lat="43.51405" lon="6.3728">
        <ele>277</ele>
        <time>2022-01-21T14:21:50.000Z</time>
      </trkpt>
      <trkpt lat="43.51405" lon="6.3728">
        <ele>277</ele>
        <time>2022-01-21T14:21:51.000Z</time>
      </trkpt>
      <trkpt lat="43.51405" lon="6.3728">
        <ele>277</ele>
        <time>2022-01-21T14:21:52.000Z</time>
      </trkpt>
      <trkpt lat="43.51405" lon="6.3728">
        <ele>277</ele>
        <time>2022-01-21T14:21:53.000Z</time>
      </trkpt>
      <trkpt lat="43.51405" lon="6.3728">
        <ele>277</ele>
        <time>2022-01-21T14:21:54.000Z</time>
      </trkpt>
      <trkpt lat="43.51405" lon="6.3728">
        <ele>277</ele>
        <time>2022-01-21T14:21:55.000Z</time>
      </trkpt>
      <trkpt lat="43.51405" lon="6.3728">
        <ele>277</ele>
        <time>2022-01-21T14:21:56.000Z</time>
      </trkpt>
      <trkpt lat="43.51405" lon="6.3728">
        <ele>277</ele>
        <time>2022-01-21T14:21:57.000Z</time>
      </trkpt>
      <trkpt lat="43.51405" lon="6.3728">
        <ele>277</ele>
        <time>2022-01-21T14:21:58.000Z</time>
      </trkpt>
      <trkpt lat="43.51405" lon="6.3728">
        <ele>277</ele>
        <time>2022-01-21T14:21:59.000Z</time>
      </trkpt>
      <trkpt lat="43.51405" lon="6.3728">
        <ele>277</ele>
        <time>2022-01-21T14:22:00.000Z</time>
      </trkpt>
      <trkpt lat="43.51405" lon="6.3728">
        <ele>277</ele>
        <time>2022-01-21T14:22:01.000Z</time>
      </trkpt>
      <trkpt lat="43.51405" lon="6.3728">
        <ele>277</ele>
        <time>2022-01-21T14:22:02.000Z</time>
      </trkpt>
      <trkpt lat="43.51405" lon="6.3728">
        <ele>277</ele>
        <time>2022-01-21T14:22:03.000Z</time>
      </trkpt>
      <trkpt lat="43.51405" lon="6.3728">
        <ele>277</ele>
        <time>2022-01-21T14:22:04.000Z</time>
      </trkpt>
      <trkpt lat="43.51405" lon="6.3728">
        <ele>277</ele>
        <time>2022-01-21T14:22:05.000Z</time>
      </trkpt>
      <trkpt lat="43.51405" lon="6.3728">
        <ele>277</ele>
        <time>2022-01-21T14:22:06.000Z</time>
      </trkpt>
      <trkpt lat="43.51405" lon="6.3728">
        <ele>277</ele>
        <time>2022-01-21T14:22:07.000Z</time>
      </trkpt>
      <trkpt lat="43.51405" lon="6.3728">
        <ele>277</ele>
        <time>2022-01-21T14:22:08.000Z</time>
      </trkpt>
      <trkpt lat="43.51405" lon="6.3728">
        <ele>277</ele>
        <time>2022-01-21T14:22:09.000Z</time>
      </trkpt>
      <trkpt lat="43.51405" lon="6.3728">
        <ele>277</ele>
        <time>2022-01-21T14:22:10.000Z</time>
      </trkpt>
      <trkpt lat="43.51405" lon="6.3728">
        <ele>277</ele>
        <time>2022-01-21T14:22:11.000Z</time>
      </trkpt>
      <trkpt lat="43.51405" lon="6.3728">
        <ele>277</ele>
        <time>2022-01-21T14:22:12.000Z</time>
      </trkpt>
      <trkpt lat="43.51405" lon="6.3728">
        <ele>277</ele>
        <time>2022-01-21T14:22:13.000Z</time>
      </trkpt>
      <trkpt lat="43.51405" lon="6.3728">
        <ele>277</ele>
        <time>2022-01-21T14:22:14.000Z</time>
      </trkpt>
      <trkpt lat="43.51405" lon="6.3728">
        <ele>277</ele>
        <time>2022-01-21T14:22:15.000Z</time>
      </trkpt>
      <trkpt lat="43.51405" lon="6.3728">
        <ele>277</ele>
        <time>2022-01-21T14:22:16.000Z</time>
      </trkpt>
      <trkpt lat="43.51405" lon="6.3728">
        <ele>277</ele>
        <time>2022-01-21T14:22:17.000Z</time>
      </trkpt>
      <trkpt lat="43.51405" lon="6.3728">
        <ele>277</ele>
        <time>2022-01-21T14:22:18.000Z</time>
      </trkpt>
      <trkpt lat="43.51405" lon="6.3728">
        <ele>277</ele>
        <time>2022-01-21T14:22:19.000Z</time>
      </trkpt>
      <trkpt lat="43.51405" lon="6.3728">
        <ele>277</ele>
        <time>2022-01-21T14:22:20.000Z</time>
      </trkpt>
      <trkpt lat="43.51405" lon="6.3728">
        <ele>277</ele>
        <time>2022-01-21T14:22:21.000Z</time>
      </trkpt>
      <trkpt lat="43.51405" lon="6.3728">
        <ele>277</ele>
        <time>2022-01-21T14:22:22.000Z</time>
      </trkpt>
      <trkpt lat="43.51405" lon="6.3728">
        <ele>277</ele>
        <time>2022-01-21T14:22:23.000Z</time>
      </trkpt>
      <trkpt lat="43.51405" lon="6.3728">
        <ele>277</ele>
        <time>2022-01-21T14:22:24.000Z</time>
      </trkpt>
      <trkpt lat="43.51405" lon="6.3728">
        <ele>277</ele>
        <time>2022-01-21T14:22:25.000Z</time>
      </trkpt>
      <trkpt lat="43.51405" lon="6.3728">
        <ele>277</ele>
        <time>2022-01-21T14:22:26.000Z</time>
      </trkpt>
      <trkpt lat="43.51405" lon="6.3728">
        <ele>277</ele>
        <time>2022-01-21T14:22:27.000Z</time>
      </trkpt>
      <trkpt lat="43.51405" lon="6.3728">
        <ele>277</ele>
        <time>2022-01-21T14:22:28.000Z</time>
      </trkpt>
      <trkpt lat="43.51405" lon="6.3728">
        <ele>277</ele>
        <time>2022-01-21T14:22:29.000Z</time>
      </trkpt>
      <trkpt lat="43.51405" lon="6.3728">
        <ele>277</ele>
        <time>2022-01-21T14:22:30.000Z</time>
      </trkpt>
      <trkpt lat="43.51405" lon="6.3728">
        <ele>277</ele>
        <time>2022-01-21T14:22:31.000Z</time>
      </trkpt>
      <trkpt lat="43.51405" lon="6.3728">
        <ele>277</ele>
        <time>2022-01-21T14:22:32.000Z</time>
      </trkpt>
      <trkpt lat="43.51405" lon="6.3728">
        <ele>277</ele>
        <time>2022-01-21T14:22:33.000Z</time>
      </trkpt>
      <trkpt lat="43.51405" lon="6.3728">
        <ele>277</ele>
        <time>2022-01-21T14:22:34.000Z</time>
      </trkpt>
      <trkpt lat="43.51405" lon="6.3728">
        <ele>277</ele>
        <time>2022-01-21T14:22:35.000Z</time>
      </trkpt>
      <trkpt lat="43.51405" lon="6.3728">
        <ele>277</ele>
        <time>2022-01-21T14:22:36.000Z</time>
      </trkpt>
      <trkpt lat="43.51405" lon="6.3728">
        <ele>277</ele>
        <time>2022-01-21T14:22:37.000Z</time>
      </trkpt>
      <trkpt lat="43.51405" lon="6.3728">
        <ele>277</ele>
        <time>2022-01-21T14:22:38.000Z</time>
      </trkpt>
      <trkpt lat="43.51405" lon="6.3728">
        <ele>277</ele>
        <time>2022-01-21T14:22:39.000Z</time>
      </trkpt>
      <trkpt lat="43.51405" lon="6.3728">
        <ele>277</ele>
        <time>2022-01-21T14:22:40.000Z</time>
      </trkpt>
      <trkpt lat="43.51405" lon="6.3728">
        <ele>277</ele>
        <time>2022-01-21T14:22:41.000Z</time>
      </trkpt>
      <trkpt lat="43.51405" lon="6.3728">
        <ele>277</ele>
        <time>2022-01-21T14:22:42.000Z</time>
      </trkpt>
      <trkpt lat="43.51405" lon="6.3728">
        <ele>277</ele>
        <time>2022-01-21T14:22:43.000Z</time>
      </trkpt>
      <trkpt lat="43.51405" lon="6.3728">
        <ele>277</ele>
        <time>2022-01-21T14:22:44.000Z</time>
      </trkpt>
      <trkpt lat="43.51405" lon="6.3728">
        <ele>277</ele>
        <time>2022-01-21T14:22:45.000Z</time>
      </trkpt>
      <trkpt lat="43.51405" lon="6.3728">
        <ele>277</ele>
        <time>2022-01-21T14:22:46.000Z</time>
      </trkpt>
      <trkpt lat="43.51405" lon="6.3728">
        <ele>277</ele>
        <time>2022-01-21T14:22:47.000Z</time>
      </trkpt>
      <trkpt lat="43.51405" lon="6.3728">
        <ele>277</ele>
        <time>2022-01-21T14:22:48.000Z</time>
      </trkpt>
      <trkpt lat="43.51405" lon="6.3728">
        <ele>277</ele>
        <time>2022-01-21T14:22:49.000Z</time>
      </trkpt>
      <trkpt lat="43.51405" lon="6.3728">
        <ele>277</ele>
        <time>2022-01-21T14:22:50.000Z</time>
      </trkpt>
      <trkpt lat="43.51405" lon="6.3728">
        <ele>277</ele>
        <time>2022-01-21T14:22:51.000Z</time>
      </trkpt>
      <trkpt lat="43.51405" lon="6.3728">
        <ele>277</ele>
        <time>2022-01-21T14:22:52.000Z</time>
      </trkpt>
      <trkpt lat="43.51405" lon="6.3728">
        <ele>277</ele>
        <time>2022-01-21T14:22:53.000Z</time>
      </trkpt>
      <trkpt lat="43.51405" lon="6.3728">
        <ele>277</ele>
        <time>2022-01-21T14:22:54.000Z</time>
      </trkpt>
      <trkpt lat="43.51405" lon="6.3728">
        <ele>277</ele>
        <time>2022-01-21T14:22:55.000Z</time>
      </trkpt>
      <trkpt lat="43.51405" lon="6.3728">
        <ele>277</ele>
        <time>2022-01-21T14:22:56.000Z</time>
      </trkpt>
      <trkpt lat="43.51405" lon="6.3728">
        <ele>277</ele>
        <time>2022-01-21T14:22:57.000Z</time>
      </trkpt>
      <trkpt lat="43.51405" lon="6.3728">
        <ele>277</ele>
        <time>2022-01-21T14:22:58.000Z</time>
      </trkpt>
      <trkpt lat="43.51405" lon="6.3728">
        <ele>277</ele>
        <time>2022-01-21T14:22:59.000Z</time>
      </trkpt>
      <trkpt lat="43.51405" lon="6.3728">
        <ele>277</ele>
        <time>2022-01-21T14:23:00.000Z</time>
      </trkpt>
      <trkpt lat="43.51405" lon="6.3728">
        <ele>277</ele>
        <time>2022-01-21T14:23:01.000Z</time>
      </trkpt>
      <trkpt lat="43.51405" lon="6.3728">
        <ele>277</ele>
        <time>2022-01-21T14:23:02.000Z</time>
      </trkpt>
      <trkpt lat="43.51405" lon="6.3728">
        <ele>277</ele>
        <time>2022-01-21T14:23:03.000Z</time>
      </trkpt>
      <trkpt lat="43.51405" lon="6.3728">
        <ele>277</ele>
        <time>2022-01-21T14:23:04.000Z</time>
      </trkpt>
      <trkpt lat="43.51405" lon="6.3728">
        <ele>277</ele>
        <time>2022-01-21T14:23:05.000Z</time>
      </trkpt>
      <trkpt lat="43.51405" lon="6.3728">
        <ele>277</ele>
        <time>2022-01-21T14:23:06.000Z</time>
      </trkpt>
      <trkpt lat="43.51405" lon="6.3728">
        <ele>277</ele>
        <time>2022-01-21T14:23:07.000Z</time>
      </trkpt>
      <trkpt lat="43.51405" lon="6.3728">
        <ele>277</ele>
        <time>2022-01-21T14:23:08.000Z</time>
      </trkpt>
      <trkpt lat="43.51405" lon="6.3728">
        <ele>277</ele>
        <time>2022-01-21T14:23:09.000Z</time>
      </trkpt>
      <trkpt lat="43.51405" lon="6.3728">
        <ele>277</ele>
        <time>2022-01-21T14:23:10.000Z</time>
      </trkpt>
      <trkpt lat="43.51405" lon="6.3728">
        <ele>277</ele>
        <time>2022-01-21T14:23:11.000Z</time>
      </trkpt>
      <trkpt lat="43.51405" lon="6.3728">
        <ele>277</ele>
        <time>2022-01-21T14:23:12.000Z</time>
      </trkpt>
      <trkpt lat="43.51405" lon="6.3728">
        <ele>277</ele>
        <time>2022-01-21T14:23:13.000Z</time>
      </trkpt>
      <trkpt lat="43.51405" lon="6.3728">
        <ele>277</ele>
        <time>2022-01-21T14:23:14.000Z</time>
      </trkpt>
      <trkpt lat="43.51405" lon="6.3728">
        <ele>277</ele>
        <time>2022-01-21T14:23:15.000Z</time>
      </trkpt>
      <trkpt lat="43.51405" lon="6.3728">
        <ele>277</ele>
        <time>2022-01-21T14:23:16.000Z</time>
      </trkpt>
      <trkpt lat="43.51405" lon="6.3728">
        <ele>277</ele>
        <time>2022-01-21T14:23:17.000Z</time>
      </trkpt>
      <trkpt lat="43.51405" lon="6.3728">
        <ele>277</ele>
        <time>2022-01-21T14:23:18.000Z</time>
      </trkpt>
      <trkpt lat="43.51405" lon="6.3728">
        <ele>277</ele>
        <time>2022-01-21T14:23:19.000Z</time>
      </trkpt>
      <trkpt lat="43.51405" lon="6.3728">
        <ele>277</ele>
        <time>2022-01-21T14:23:20.000Z</time>
      </trkpt>
      <trkpt lat="43.51405" lon="6.3728">
        <ele>277</ele>
        <time>2022-01-21T14:23:21.000Z</time>
      </trkpt>
      <trkpt lat="43.51405" lon="6.3728">
        <ele>277</ele>
        <time>2022-01-21T14:23:22.000Z</time>
      </trkpt>
      <trkpt lat="43.51405" lon="6.3728">
        <ele>277</ele>
        <time>2022-01-21T14:23:23.000Z</time>
      </trkpt>
      <trkpt lat="43.51405" lon="6.3728">
        <ele>277</ele>
        <time>2022-01-21T14:23:24.000Z</time>
      </trkpt>
      <trkpt lat="43.51405" lon="6.3728">
        <ele>277</ele>
        <time>2022-01-21T14:23:25.000Z</time>
      </trkpt>
      <trkpt lat="43.51405" lon="6.3728">
        <ele>277</ele>
        <time>2022-01-21T14:23:26.000Z</time>
      </trkpt>
      <trkpt lat="43.51405" lon="6.3728">
        <ele>277</ele>
        <time>2022-01-21T14:23:27.000Z</time>
      </trkpt>
      <trkpt lat="43.51405" lon="6.3728">
        <ele>277</ele>
        <time>2022-01-21T14:23:28.000Z</time>
      </trkpt>
      <trkpt lat="43.51405" lon="6.3728">
        <ele>277</ele>
        <time>2022-01-21T14:23:29.000Z</time>
      </trkpt>
      <trkpt lat="43.51405" lon="6.3728">
        <ele>277</ele>
        <time>2022-01-21T14:23:30.000Z</time>
      </trkpt>
      <trkpt lat="43.51405" lon="6.3728">
        <ele>277</ele>
        <time>2022-01-21T14:23:31.000Z</time>
      </trkpt>
      <trkpt lat="43.51405" lon="6.3728">
        <ele>277</ele>
        <time>2022-01-21T14:23:32.000Z</time>
      </trkpt>
      <trkpt lat="43.51405" lon="6.3728">
        <ele>277</ele>
        <time>2022-01-21T14:23:33.000Z</time>
      </trkpt>
      <trkpt lat="43.51405" lon="6.3728">
        <ele>277</ele>
        <time>2022-01-21T14:23:34.000Z</time>
      </trkpt>
      <trkpt lat="43.51405" lon="6.3728">
        <ele>277</ele>
        <time>2022-01-21T14:23:35.000Z</time>
      </trkpt>
      <trkpt lat="43.51405" lon="6.3728">
        <ele>277</ele>
        <time>2022-01-21T14:23:36.000Z</time>
      </trkpt>
      <trkpt lat="43.51405" lon="6.3728">
        <ele>277</ele>
        <time>2022-01-21T14:23:37.000Z</time>
      </trkpt>
      <trkpt lat="43.51405" lon="6.3728">
        <ele>277</ele>
        <time>2022-01-21T14:23:38.000Z</time>
      </trkpt>
      <trkpt lat="43.51405" lon="6.3728">
        <ele>277</ele>
        <time>2022-01-21T14:23:39.000Z</time>
      </trkpt>
      <trkpt lat="43.51405" lon="6.3728">
        <ele>277</ele>
        <time>2022-01-21T14:23:40.000Z</time>
      </trkpt>
      <trkpt lat="43.51405" lon="6.3728">
        <ele>277</ele>
        <time>2022-01-21T14:23:41.000Z</time>
      </trkpt>
      <trkpt lat="43.51405" lon="6.3728">
        <ele>277</ele>
        <time>2022-01-21T14:23:42.000Z</time>
      </trkpt>
      <trkpt lat="43.51405" lon="6.3728">
        <ele>277</ele>
        <time>2022-01-21T14:23:43.000Z</time>
      </trkpt>
      <trkpt lat="43.51405" lon="6.3728">
        <ele>277</ele>
        <time>2022-01-21T14:23:44.000Z</time>
      </trkpt>
      <trkpt lat="43.51405" lon="6.3728">
        <ele>277</ele>
        <time>2022-01-21T14:23:45.000Z</time>
      </trkpt>
      <trkpt lat="43.51405" lon="6.3728">
        <ele>277</ele>
        <time>2022-01-21T14:23:46.000Z</time>
      </trkpt>
      <trkpt lat="43.51405" lon="6.3728">
        <ele>277</ele>
        <time>2022-01-21T14:23:47.000Z</time>
      </trkpt>
      <trkpt lat="43.51405" lon="6.3728">
        <ele>277</ele>
        <time>2022-01-21T14:23:48.000Z</time>
      </trkpt>
      <trkpt lat="43.51405" lon="6.3728">
        <ele>277</ele>
        <time>2022-01-21T14:23:49.000Z</time>
      </trkpt>
      <trkpt lat="43.51405" lon="6.3728">
        <ele>277</ele>
        <time>2022-01-21T14:23:50.000Z</time>
      </trkpt>
      <trkpt lat="43.51405" lon="6.3728">
        <ele>277</ele>
        <time>2022-01-21T14:23:51.000Z</time>
      </trkpt>
      <trkpt lat="43.51405" lon="6.3728">
        <ele>277</ele>
        <time>2022-01-21T14:23:52.000Z</time>
      </trkpt>
      <trkpt lat="43.51405" lon="6.3728">
        <ele>277</ele>
        <time>2022-01-21T14:23:53.000Z</time>
      </trkpt>
      <trkpt lat="43.51405" lon="6.3728">
        <ele>277</ele>
        <time>2022-01-21T14:23:54.000Z</time>
      </trkpt>
      <trkpt lat="43.51405" lon="6.3728">
        <ele>277</ele>
        <time>2022-01-21T14:23:55.000Z</time>
      </trkpt>
      <trkpt lat="43.51405" lon="6.3728">
        <ele>277</ele>
        <time>2022-01-21T14:23:56.000Z</time>
      </trkpt>
      <trkpt lat="43.51405" lon="6.3728">
        <ele>277</ele>
        <time>2022-01-21T14:23:57.000Z</time>
      </trkpt>
      <trkpt lat="43.51405" lon="6.3728">
        <ele>277</ele>
        <time>2022-01-21T14:23:58.000Z</time>
      </trkpt>
      <trkpt lat="43.51405" lon="6.3728">
        <ele>277</ele>
        <time>2022-01-21T14:23:59.000Z</time>
      </trkpt>
      <trkpt lat="43.51405" lon="6.3728">
        <ele>277</ele>
        <time>2022-01-21T14:24:00.000Z</time>
      </trkpt>
      <trkpt lat="43.51405" lon="6.3728">
        <ele>277</ele>
        <time>2022-01-21T14:24:01.000Z</time>
      </trkpt>
      <trkpt lat="43.51405" lon="6.3728">
        <ele>277</ele>
        <time>2022-01-21T14:24:02.000Z</time>
      </trkpt>
      <trkpt lat="43.51405" lon="6.3728">
        <ele>277</ele>
        <time>2022-01-21T14:24:03.000Z</time>
      </trkpt>
      <trkpt lat="43.51405" lon="6.3728">
        <ele>277</ele>
        <time>2022-01-21T14:24:04.000Z</time>
      </trkpt>
      <trkpt lat="43.51405" lon="6.3728">
        <ele>277</ele>
        <time>2022-01-21T14:24:05.000Z</time>
      </trkpt>
      <trkpt lat="43.51405" lon="6.3728">
        <ele>277</ele>
        <time>2022-01-21T14:24:06.000Z</time>
      </trkpt>
      <trkpt lat="43.51405" lon="6.3728">
        <ele>277</ele>
        <time>2022-01-21T14:24:07.000Z</time>
      </trkpt>
      <trkpt lat="43.51405" lon="6.3728">
        <ele>277</ele>
        <time>2022-01-21T14:24:08.000Z</time>
      </trkpt>
      <trkpt lat="43.51405" lon="6.3728">
        <ele>277</ele>
        <time>2022-01-21T14:24:09.000Z</time>
      </trkpt>
      <trkpt lat="43.51405" lon="6.3728">
        <ele>277</ele>
        <time>2022-01-21T14:24:10.000Z</time>
      </trkpt>
      <trkpt lat="43.51405" lon="6.3728">
        <ele>277</ele>
        <time>2022-01-21T14:24:11.000Z</time>
      </trkpt>
      <trkpt lat="43.51405" lon="6.3728">
        <ele>277</ele>
        <time>2022-01-21T14:24:12.000Z</time>
      </trkpt>
      <trkpt lat="43.51405" lon="6.3728">
        <ele>277</ele>
        <time>2022-01-21T14:24:13.000Z</time>
      </trkpt>
      <trkpt lat="43.51405" lon="6.3728">
        <ele>277</ele>
        <time>2022-01-21T14:24:14.000Z</time>
      </trkpt>
      <trkpt lat="43.51405" lon="6.3728">
        <ele>277</ele>
        <time>2022-01-21T14:24:15.000Z</time>
      </trkpt>
      <trkpt lat="43.51405" lon="6.3728">
        <ele>277</ele>
        <time>2022-01-21T14:24:16.000Z</time>
      </trkpt>
      <trkpt lat="43.51405" lon="6.3728">
        <ele>277</ele>
        <time>2022-01-21T14:24:17.000Z</time>
      </trkpt>
      <trkpt lat="43.51405" lon="6.3728">
        <ele>277</ele>
        <time>2022-01-21T14:24:18.000Z</time>
      </trkpt>
      <trkpt lat="43.51405" lon="6.3728">
        <ele>277</ele>
        <time>2022-01-21T14:24:19.000Z</time>
      </trkpt>
      <trkpt lat="43.51405" lon="6.3728">
        <ele>277</ele>
        <time>2022-01-21T14:24:20.000Z</time>
      </trkpt>
      <trkpt lat="43.51405" lon="6.3728">
        <ele>277</ele>
        <time>2022-01-21T14:24:21.000Z</time>
      </trkpt>
      <trkpt lat="43.51405" lon="6.3728">
        <ele>277</ele>
        <time>2022-01-21T14:24:22.000Z</time>
      </trkpt>
      <trkpt lat="43.51405" lon="6.3728">
        <ele>277</ele>
        <time>2022-01-21T14:24:23.000Z</time>
      </trkpt>
      <trkpt lat="43.51405" lon="6.3728">
        <ele>277</ele>
        <time>2022-01-21T14:24:24.000Z</time>
      </trkpt>
      <trkpt lat="43.51405" lon="6.3728">
        <ele>277</ele>
        <time>2022-01-21T14:24:25.000Z</time>
      </trkpt>
      <trkpt lat="43.51405" lon="6.3728">
        <ele>277</ele>
        <time>2022-01-21T14:24:26.000Z</time>
      </trkpt>
      <trkpt lat="43.51405" lon="6.3728">
        <ele>277</ele>
        <time>2022-01-21T14:24:27.000Z</time>
      </trkpt>
      <trkpt lat="43.51405" lon="6.3728">
        <ele>277</ele>
        <time>2022-01-21T14:24:28.000Z</time>
      </trkpt>
      <trkpt lat="43.51405" lon="6.3728">
        <ele>277</ele>
        <time>2022-01-21T14:24:29.000Z</time>
      </trkpt>
      <trkpt lat="43.51405" lon="6.3728">
        <ele>277</ele>
        <time>2022-01-21T14:24:30.000Z</time>
      </trkpt>
      <trkpt lat="43.51405" lon="6.3728">
        <ele>277</ele>
        <time>2022-01-21T14:24:31.000Z</time>
      </trkpt>
      <trkpt lat="43.51405" lon="6.3728">
        <ele>277</ele>
        <time>2022-01-21T14:24:32.000Z</time>
      </trkpt>
      <trkpt lat="43.51405" lon="6.3728">
        <ele>277</ele>
        <time>2022-01-21T14:24:33.000Z</time>
      </trkpt>
      <trkpt lat="43.51405" lon="6.3728">
        <ele>277</ele>
        <time>2022-01-21T14:24:34.000Z</time>
      </trkpt>
      <trkpt lat="43.51405" lon="6.3728">
        <ele>277</ele>
        <time>2022-01-21T14:24:35.000Z</time>
      </trkpt>
      <trkpt lat="43.51405" lon="6.3728">
        <ele>277</ele>
        <time>2022-01-21T14:24:36.000Z</time>
      </trkpt>
      <trkpt lat="43.51405" lon="6.3728">
        <ele>277</ele>
        <time>2022-01-21T14:24:37.000Z</time>
      </trkpt>
      <trkpt lat="43.51405" lon="6.3728">
        <ele>277</ele>
        <time>2022-01-21T14:24:38.000Z</time>
      </trkpt>
      <trkpt lat="43.51405" lon="6.3728">
        <ele>277</ele>
        <time>2022-01-21T14:24:39.000Z</time>
      </trkpt>
      <trkpt lat="43.51405" lon="6.3728">
        <ele>277</ele>
        <time>2022-01-21T14:24:40.000Z</time>
      </trkpt>
      <trkpt lat="43.51405" lon="6.3728">
        <ele>277</ele>
        <time>2022-01-21T14:24:41.000Z</time>
      </trkpt>
      <trkpt lat="43.51405" lon="6.3728">
        <ele>277</ele>
        <time>2022-01-21T14:24:42.000Z</time>
      </trkpt>
      <trkpt lat="43.51405" lon="6.3728">
        <ele>277</ele>
        <time>2022-01-21T14:24:43.000Z</time>
      </trkpt>
      <trkpt lat="43.51405" lon="6.3728">
        <ele>277</ele>
        <time>2022-01-21T14:24:44.000Z</time>
      </trkpt>
      <trkpt lat="43.51405" lon="6.3728">
        <ele>277</ele>
        <time>2022-01-21T14:24:45.000Z</time>
      </trkpt>
      <trkpt lat="43.51405" lon="6.3728">
        <ele>277</ele>
        <time>2022-01-21T14:24:46.000Z</time>
      </trkpt>
      <trkpt lat="43.51405" lon="6.3728">
        <ele>277</ele>
        <time>2022-01-21T14:24:47.000Z</time>
      </trkpt>
      <trkpt lat="43.51405" lon="6.3728">
        <ele>277</ele>
        <time>2022-01-21T14:24:48.000Z</time>
      </trkpt>
      <trkpt lat="43.51405" lon="6.3728">
        <ele>277</ele>
        <time>2022-01-21T14:24:49.000Z</time>
      </trkpt>
      <trkpt lat="43.51405" lon="6.3728">
        <ele>277</ele>
        <time>2022-01-21T14:24:50.000Z</time>
      </trkpt>
      <trkpt lat="43.51405" lon="6.3728">
        <ele>277</ele>
        <time>2022-01-21T14:24:51.000Z</time>
      </trkpt>
      <trkpt lat="43.51405" lon="6.3728">
        <ele>277</ele>
        <time>2022-01-21T14:24:52.000Z</time>
      </trkpt>
      <trkpt lat="43.51405" lon="6.3728">
        <ele>277</ele>
        <time>2022-01-21T14:24:53.000Z</time>
      </trkpt>
      <trkpt lat="43.51405" lon="6.3728">
        <ele>277</ele>
        <time>2022-01-21T14:24:54.000Z</time>
      </trkpt>
      <trkpt lat="43.51405" lon="6.3728">
        <ele>277</ele>
        <time>2022-01-21T14:24:55.000Z</time>
      </trkpt>
      <trkpt lat="43.51405" lon="6.3728">
        <ele>277</ele>
        <time>2022-01-21T14:24:56.000Z</time>
      </trkpt>
      <trkpt lat="43.51405" lon="6.3728">
        <ele>277</ele>
        <time>2022-01-21T14:24:57.000Z</time>
      </trkpt>
      <trkpt lat="43.51405" lon="6.3728">
        <ele>277</ele>
        <time>2022-01-21T14:24:58.000Z</time>
      </trkpt>
      <trkpt lat="43.51405" lon="6.3728">
        <ele>277</ele>
        <time>2022-01-21T14:24:59.000Z</time>
      </trkpt>
      <trkpt lat="43.51405" lon="6.3728">
        <ele>277</ele>
        <time>2022-01-21T14:25:00.000Z</time>
      </trkpt>
      <trkpt lat="43.51405" lon="6.3728">
        <ele>277</ele>
        <time>2022-01-21T14:25:01.000Z</time>
      </trkpt>
      <trkpt lat="43.51405" lon="6.3728">
        <ele>277</ele>
        <time>2022-01-21T14:25:02.000Z</time>
      </trkpt>
      <trkpt lat="43.51405" lon="6.3728">
        <ele>277</ele>
        <time>2022-01-21T14:25:03.000Z</time>
      </trkpt>
      <trkpt lat="43.51405" lon="6.3728">
        <ele>277</ele>
        <time>2022-01-21T14:25:04.000Z</time>
      </trkpt>
      <trkpt lat="43.51405" lon="6.3728">
        <ele>277</ele>
        <time>2022-01-21T14:25:05.000Z</time>
      </trkpt>
      <trkpt lat="43.51405" lon="6.3728">
        <ele>277</ele>
        <time>2022-01-21T14:25:06.000Z</time>
      </trkpt>
      <trkpt lat="43.51405" lon="6.3728">
        <ele>277</ele>
        <time>2022-01-21T14:25:07.000Z</time>
      </trkpt>
      <trkpt lat="43.51405" lon="6.3728">
        <ele>277</ele>
        <time>2022-01-21T14:25:08.000Z</time>
      </trkpt>
      <trkpt lat="43.51405" lon="6.3728">
        <ele>277</ele>
        <time>2022-01-21T14:25:09.000Z</time>
      </trkpt>
      <trkpt lat="43.51405" lon="6.3728">
        <ele>277</ele>
        <time>2022-01-21T14:25:10.000Z</time>
      </trkpt>
      <trkpt lat="43.51405" lon="6.3728">
        <ele>277</ele>
        <time>2022-01-21T14:25:11.000Z</time>
      </trkpt>
      <trkpt lat="43.51405" lon="6.3728">
        <ele>277</ele>
        <time>2022-01-21T14:25:12.000Z</time>
      </trkpt>
      <trkpt lat="43.51405" lon="6.3728">
        <ele>277</ele>
        <time>2022-01-21T14:25:13.000Z</time>
      </trkpt>
      <trkpt lat="43.51405" lon="6.3728">
        <ele>277</ele>
        <time>2022-01-21T14:25:14.000Z</time>
      </trkpt>
      <trkpt lat="43.51405" lon="6.3728">
        <ele>277</ele>
        <time>2022-01-21T14:25:15.000Z</time>
      </trkpt>
      <trkpt lat="43.51405" lon="6.3728">
        <ele>277</ele>
        <time>2022-01-21T14:25:16.000Z</time>
      </trkpt>
      <trkpt lat="43.51405" lon="6.3728">
        <ele>277</ele>
        <time>2022-01-21T14:25:17.000Z</time>
      </trkpt>
      <trkpt lat="43.51405" lon="6.3728">
        <ele>277</ele>
        <time>2022-01-21T14:25:18.000Z</time>
      </trkpt>
      <trkpt lat="43.51405" lon="6.3728">
        <ele>277</ele>
        <time>2022-01-21T14:25:19.000Z</time>
      </trkpt>
      <trkpt lat="43.51405" lon="6.3728">
        <ele>277</ele>
        <time>2022-01-21T14:25:20.000Z</time>
      </trkpt>
      <trkpt lat="43.51405" lon="6.3728">
        <ele>277</ele>
        <time>2022-01-21T14:25:21.000Z</time>
      </trkpt>
      <trkpt lat="43.51405" lon="6.3728">
        <ele>277</ele>
        <time>2022-01-21T14:25:22.000Z</time>
      </trkpt>
      <trkpt lat="43.51405" lon="6.3728">
        <ele>277</ele>
        <time>2022-01-21T14:25:23.000Z</time>
      </trkpt>
      <trkpt lat="43.51405" lon="6.3728">
        <ele>277</ele>
        <time>2022-01-21T14:25:24.000Z</time>
      </trkpt>
      <trkpt lat="43.51405" lon="6.3728">
        <ele>277</ele>
        <time>2022-01-21T14:25:25.000Z</time>
      </trkpt>
      <trkpt lat="43.51405" lon="6.3728">
        <ele>277</ele>
        <time>2022-01-21T14:25:26.000Z</time>
      </trkpt>
      <trkpt lat="43.51405" lon="6.3728">
        <ele>277</ele>
        <time>2022-01-21T14:25:27.000Z</time>
      </trkpt>
      <trkpt lat="43.51405" lon="6.3728">
        <ele>277</ele>
        <time>2022-01-21T14:25:28.000Z</time>
      </trkpt>
      <trkpt lat="43.51405" lon="6.3728">
        <ele>277</ele>
        <time>2022-01-21T14:25:29.000Z</time>
      </trkpt>
      <trkpt lat="43.51405" lon="6.3728">
        <ele>277</ele>
        <time>2022-01-21T14:25:30.000Z</time>
      </trkpt>
      <trkpt lat="43.51405" lon="6.3728">
        <ele>277</ele>
        <time>2022-01-21T14:25:31.000Z</time>
      </trkpt>
      <trkpt lat="43.51405" lon="6.3728">
        <ele>277</ele>
        <time>2022-01-21T14:25:32.000Z</time>
      </trkpt>
      <trkpt lat="43.51405" lon="6.3728">
        <ele>277</ele>
        <time>2022-01-21T14:25:33.000Z</time>
      </trkpt>
      <trkpt lat="43.51405" lon="6.3728">
        <ele>277</ele>
        <time>2022-01-21T14:25:34.000Z</time>
      </trkpt>
      <trkpt lat="43.51405" lon="6.3728">
        <ele>277</ele>
        <time>2022-01-21T14:25:35.000Z</time>
      </trkpt>
      <trkpt lat="43.51405" lon="6.3728">
        <ele>277</ele>
        <time>2022-01-21T14:25:36.000Z</time>
      </trkpt>
      <trkpt lat="43.51405" lon="6.3728">
        <ele>277</ele>
        <time>2022-01-21T14:25:37.000Z</time>
      </trkpt>
      <trkpt lat="43.51405" lon="6.3728">
        <ele>277</ele>
        <time>2022-01-21T14:25:38.000Z</time>
      </trkpt>
      <trkpt lat="43.51405" lon="6.3728">
        <ele>277</ele>
        <time>2022-01-21T14:25:39.000Z</time>
      </trkpt>
      <trkpt lat="43.51405" lon="6.3728">
        <ele>277</ele>
        <time>2022-01-21T14:25:40.000Z</time>
      </trkpt>
      <trkpt lat="43.51405" lon="6.3728">
        <ele>277</ele>
        <time>2022-01-21T14:25:41.000Z</time>
      </trkpt>
      <trkpt lat="43.51405" lon="6.3728">
        <ele>277</ele>
        <time>2022-01-21T14:25:42.000Z</time>
      </trkpt>
      <trkpt lat="43.51405" lon="6.3728">
        <ele>277</ele>
        <time>2022-01-21T14:25:43.000Z</time>
      </trkpt>
      <trkpt lat="43.51405" lon="6.3728">
        <ele>277</ele>
        <time>2022-01-21T14:25:44.000Z</time>
      </trkpt>
      <trkpt lat="43.51405" lon="6.3728">
        <ele>277</ele>
        <time>2022-01-21T14:25:45.000Z</time>
      </trkpt>
      <trkpt lat="43.51405" lon="6.3728">
        <ele>277</ele>
        <time>2022-01-21T14:25:46.000Z</time>
      </trkpt>
      <trkpt lat="43.51404" lon="6.37278">
        <ele>277</ele>
        <time>2022-01-21T14:25:47.000Z</time>
      </trkpt>
      <trkpt lat="43.51404" lon="6.37278">
        <ele>277</ele>
        <time>2022-01-21T14:25:48.000Z</time>
      </trkpt>
      <trkpt lat="43.51404" lon="6.37278">
        <ele>277</ele>
        <time>2022-01-21T14:25:49.000Z</time>
      </trkpt>
      <trkpt lat="43.51404" lon="6.37278">
        <ele>277</ele>
        <time>2022-01-21T14:25:50.000Z</time>
      </trkpt>
      <trkpt lat="43.51404" lon="6.37278">
        <ele>277</ele>
        <time>2022-01-21T14:25:51.000Z</time>
      </trkpt>
      <trkpt lat="43.51404" lon="6.37278">
        <ele>277</ele>
        <time>2022-01-21T14:25:52.000Z</time>
      </trkpt>
      <trkpt lat="43.51404" lon="6.37278">
        <ele>277</ele>
        <time>2022-01-21T14:25:53.000Z</time>
      </trkpt>
      <trkpt lat="43.51404" lon="6.37278">
        <ele>277</ele>
        <time>2022-01-21T14:25:54.000Z</time>
      </trkpt>
      <trkpt lat="43.51404" lon="6.37278">
        <ele>277</ele>
        <time>2022-01-21T14:25:55.000Z</time>
      </trkpt>
      <trkpt lat="43.51404" lon="6.37278">
        <ele>277</ele>
        <time>2022-01-21T14:25:56.000Z</time>
      </trkpt>
      <trkpt lat="43.51404" lon="6.37278">
        <ele>277</ele>
        <time>2022-01-21T14:25:57.000Z</time>
      </trkpt>
      <trkpt lat="43.51404" lon="6.37278">
        <ele>277</ele>
        <time>2022-01-21T14:25:58.000Z</time>
      </trkpt>
      <trkpt lat="43.51404" lon="6.37278">
        <ele>277</ele>
        <time>2022-01-21T14:25:59.000Z</time>
      </trkpt>
      <trkpt lat="43.51404" lon="6.37278">
        <ele>277</ele>
        <time>2022-01-21T14:26:00.000Z</time>
      </trkpt>
      <trkpt lat="43.51404" lon="6.37278">
        <ele>277</ele>
        <time>2022-01-21T14:26:01.000Z</time>
      </trkpt>
      <trkpt lat="43.51404" lon="6.37278">
        <ele>277</ele>
        <time>2022-01-21T14:26:02.000Z</time>
      </trkpt>
      <trkpt lat="43.51404" lon="6.37278">
        <ele>277</ele>
        <time>2022-01-21T14:26:03.000Z</time>
      </trkpt>
      <trkpt lat="43.51404" lon="6.37278">
        <ele>277</ele>
        <time>2022-01-21T14:26:04.000Z</time>
      </trkpt>
      <trkpt lat="43.51404" lon="6.37278">
        <ele>277</ele>
        <time>2022-01-21T14:26:05.000Z</time>
      </trkpt>
      <trkpt lat="43.51404" lon="6.37278">
        <ele>277</ele>
        <time>2022-01-21T14:26:06.000Z</time>
      </trkpt>
      <trkpt lat="43.51404" lon="6.37278">
        <ele>277</ele>
        <time>2022-01-21T14:26:07.000Z</time>
      </trkpt>
      <trkpt lat="43.51404" lon="6.37278">
        <ele>277</ele>
        <time>2022-01-21T14:26:08.000Z</time>
      </trkpt>
      <trkpt lat="43.51404" lon="6.37278">
        <ele>277</ele>
        <time>2022-01-21T14:26:09.000Z</time>
      </trkpt>
      <trkpt lat="43.51404" lon="6.37278">
        <ele>277</ele>
        <time>2022-01-21T14:26:10.000Z</time>
      </trkpt>
      <trkpt lat="43.51404" lon="6.37278">
        <ele>277</ele>
        <time>2022-01-21T14:26:11.000Z</time>
      </trkpt>
      <trkpt lat="43.51404" lon="6.37278">
        <ele>277</ele>
        <time>2022-01-21T14:26:12.000Z</time>
      </trkpt>
      <trkpt lat="43.51404" lon="6.37278">
        <ele>277</ele>
        <time>2022-01-21T14:26:13.000Z</time>
      </trkpt>
      <trkpt lat="43.51404" lon="6.37279">
        <ele>277</ele>
        <time>2022-01-21T14:26:14.000Z</time>
      </trkpt>
      <trkpt lat="43.51404" lon="6.37279">
        <ele>277</ele>
        <time>2022-01-21T14:26:15.000Z</time>
      </trkpt>
      <trkpt lat="43.51404" lon="6.37279">
        <ele>277</ele>
        <time>2022-01-21T14:26:16.000Z</time>
      </trkpt>
      <trkpt lat="43.51404" lon="6.3728">
        <ele>277</ele>
        <time>2022-01-21T14:26:17.000Z</time>
      </trkpt>
      <trkpt lat="43.51404" lon="6.3728">
        <ele>277</ele>
        <time>2022-01-21T14:26:18.000Z</time>
      </trkpt>
      <trkpt lat="43.51404" lon="6.37281">
        <ele>277</ele>
        <time>2022-01-21T14:26:19.000Z</time>
      </trkpt>
      <trkpt lat="43.51404" lon="6.37281">
        <ele>277</ele>
        <time>2022-01-21T14:26:20.000Z</time>
      </trkpt>
      <trkpt lat="43.51404" lon="6.37281">
        <ele>277</ele>
        <time>2022-01-21T14:26:21.000Z</time>
      </trkpt>
      <trkpt lat="43.51404" lon="6.37282">
        <ele>277</ele>
        <time>2022-01-21T14:26:22.000Z</time>
      </trkpt>
      <trkpt lat="43.51403" lon="6.37282">
        <ele>277</ele>
        <time>2022-01-21T14:26:23.000Z</time>
      </trkpt>
      <trkpt lat="43.51403" lon="6.37282">
        <ele>277</ele>
        <time>2022-01-21T14:26:24.000Z</time>
      </trkpt>
      <trkpt lat="43.51403" lon="6.37283">
        <ele>277</ele>
        <time>2022-01-21T14:26:25.000Z</time>
      </trkpt>
      <trkpt lat="43.51403" lon="6.37283">
        <ele>277</ele>
        <time>2022-01-21T14:26:26.000Z</time>
      </trkpt>
      <trkpt lat="43.51403" lon="6.37283">
        <ele>277</ele>
        <time>2022-01-21T14:26:27.000Z</time>
      </trkpt>
      <trkpt lat="43.51403" lon="6.37283">
        <ele>277</ele>
        <time>2022-01-21T14:26:28.000Z</time>
      </trkpt>
      <trkpt lat="43.51403" lon="6.37283">
        <ele>277</ele>
        <time>2022-01-21T14:26:29.000Z</time>
      </trkpt>
      <trkpt lat="43.51403" lon="6.37283">
        <ele>277</ele>
        <time>2022-01-21T14:26:30.000Z</time>
      </trkpt>
      <trkpt lat="43.51403" lon="6.37283">
        <ele>277</ele>
        <time>2022-01-21T14:26:31.000Z</time>
      </trkpt>
      <trkpt lat="43.51403" lon="6.37283">
        <ele>277</ele>
        <time>2022-01-21T14:26:32.000Z</time>
      </trkpt>
      <trkpt lat="43.51403" lon="6.37283">
        <ele>277</ele>
        <time>2022-01-21T14:26:33.000Z</time>
      </trkpt>
      <trkpt lat="43.51403" lon="6.37283">
        <ele>277</ele>
        <time>2022-01-21T14:26:34.000Z</time>
      </trkpt>
      <trkpt lat="43.51403" lon="6.37283">
        <ele>277</ele>
        <time>2022-01-21T14:26:35.000Z</time>
      </trkpt>
      <trkpt lat="43.51403" lon="6.37283">
        <ele>277</ele>
        <time>2022-01-21T14:26:36.000Z</time>
      </trkpt>
      <trkpt lat="43.51403" lon="6.37283">
        <ele>277</ele>
        <time>2022-01-21T14:26:37.000Z</time>
      </trkpt>
      <trkpt lat="43.51403" lon="6.37283">
        <ele>277</ele>
        <time>2022-01-21T14:26:38.000Z</time>
      </trkpt>
      <trkpt lat="43.51403" lon="6.37283">
        <ele>277</ele>
        <time>2022-01-21T14:26:39.000Z</time>
      </trkpt>
      <trkpt lat="43.51403" lon="6.37283">
        <ele>277</ele>
        <time>2022-01-21T14:26:40.000Z</time>
      </trkpt>
      <trkpt lat="43.51403" lon="6.37283">
        <ele>277</ele>
        <time>2022-01-21T14:26:41.000Z</time>
      </trkpt>
      <trkpt lat="43.51403" lon="6.37283">
        <ele>277</ele>
        <time>2022-01-21T14:26:42.000Z</time>
      </trkpt>
      <trkpt lat="43.51403" lon="6.37283">
        <ele>277</ele>
        <time>2022-01-21T14:26:43.000Z</time>
      </trkpt>
      <trkpt lat="43.51403" lon="6.37283">
        <ele>277</ele>
        <time>2022-01-21T14:26:44.000Z</time>
      </trkpt>
      <trkpt lat="43.51403" lon="6.37283">
        <ele>277</ele>
        <time>2022-01-21T14:26:45.000Z</time>
      </trkpt>
      <trkpt lat="43.51403" lon="6.37283">
        <ele>277</ele>
        <time>2022-01-21T14:26:46.000Z</time>
      </trkpt>
      <trkpt lat="43.51403" lon="6.37283">
        <ele>277</ele>
        <time>2022-01-21T14:26:47.000Z</time>
      </trkpt>
      <trkpt lat="43.51403" lon="6.37283">
        <ele>277</ele>
        <time>2022-01-21T14:26:48.000Z</time>
      </trkpt>
      <trkpt lat="43.51403" lon="6.37283">
        <ele>277</ele>
        <time>2022-01-21T14:26:49.000Z</time>
      </trkpt>
      <trkpt lat="43.51403" lon="6.37283">
        <ele>277</ele>
        <time>2022-01-21T14:26:50.000Z</time>
      </trkpt>
      <trkpt lat="43.51403" lon="6.37283">
        <ele>277</ele>
        <time>2022-01-21T14:26:51.000Z</time>
      </trkpt>
      <trkpt lat="43.51403" lon="6.37283">
        <ele>277</ele>
        <time>2022-01-21T14:26:52.000Z</time>
      </trkpt>
      <trkpt lat="43.51403" lon="6.37283">
        <ele>277</ele>
        <time>2022-01-21T14:26:53.000Z</time>
      </trkpt>
      <trkpt lat="43.51403" lon="6.37283">
        <ele>277</ele>
        <time>2022-01-21T14:26:54.000Z</time>
      </trkpt>
      <trkpt lat="43.51403" lon="6.37283">
        <ele>277</ele>
        <time>2022-01-21T14:26:55.000Z</time>
      </trkpt>
      <trkpt lat="43.51403" lon="6.37283">
        <ele>277</ele>
        <time>2022-01-21T14:26:56.000Z</time>
      </trkpt>
      <trkpt lat="43.51403" lon="6.37283">
        <ele>277</ele>
        <time>2022-01-21T14:26:57.000Z</time>
      </trkpt>
      <trkpt lat="43.51403" lon="6.37283">
        <ele>277</ele>
        <time>2022-01-21T14:26:58.000Z</time>
      </trkpt>
      <trkpt lat="43.51403" lon="6.37284">
        <ele>277</ele>
        <time>2022-01-21T14:26:59.000Z</time>
      </trkpt>
      <trkpt lat="43.51403" lon="6.37284">
        <ele>277</ele>
        <time>2022-01-21T14:27:00.000Z</time>
      </trkpt>
      <trkpt lat="43.51402" lon="6.37284">
        <ele>277</ele>
        <time>2022-01-21T14:27:01.000Z</time>
      </trkpt>
      <trkpt lat="43.51402" lon="6.37284">
        <ele>277</ele>
        <time>2022-01-21T14:27:02.000Z</time>
      </trkpt>
      <trkpt lat="43.51402" lon="6.37285">
        <ele>277</ele>
        <time>2022-01-21T14:27:03.000Z</time>
      </trkpt>
      <trkpt lat="43.51402" lon="6.37285">
        <ele>277</ele>
        <time>2022-01-21T14:27:04.000Z</time>
      </trkpt>
      <trkpt lat="43.51402" lon="6.37286">
        <ele>277</ele>
        <time>2022-01-21T14:27:05.000Z</time>
      </trkpt>
      <trkpt lat="43.51402" lon="6.37286">
        <ele>277</ele>
        <time>2022-01-21T14:27:06.000Z</time>
      </trkpt>
      <trkpt lat="43.51402" lon="6.37287">
        <ele>277</ele>
        <time>2022-01-21T14:27:07.000Z</time>
      </trkpt>
      <trkpt lat="43.51402" lon="6.37288">
        <ele>277</ele>
        <time>2022-01-21T14:27:08.000Z</time>
      </trkpt>
      <trkpt lat="43.51402" lon="6.37288">
        <ele>277</ele>
        <time>2022-01-21T14:27:09.000Z</time>
      </trkpt>
      <trkpt lat="43.51402" lon="6.37288">
        <ele>277</ele>
        <time>2022-01-21T14:27:10.000Z</time>
      </trkpt>
      <trkpt lat="43.51402" lon="6.37288">
        <ele>277</ele>
        <time>2022-01-21T14:27:11.000Z</time>
      </trkpt>
      <trkpt lat="43.51402" lon="6.37288">
        <ele>277</ele>
        <time>2022-01-21T14:27:12.000Z</time>
      </trkpt>
      <trkpt lat="43.51402" lon="6.37288">
        <ele>277</ele>
        <time>2022-01-21T14:27:13.000Z</time>
      </trkpt>
      <trkpt lat="43.51402" lon="6.37288">
        <ele>277</ele>
        <time>2022-01-21T14:27:14.000Z</time>
      </trkpt>
      <trkpt lat="43.51402" lon="6.37288">
        <ele>277</ele>
        <time>2022-01-21T14:27:15.000Z</time>
      </trkpt>
      <trkpt lat="43.51402" lon="6.37288">
        <ele>277</ele>
        <time>2022-01-21T14:27:16.000Z</time>
      </trkpt>
      <trkpt lat="43.51402" lon="6.37288">
        <ele>277</ele>
        <time>2022-01-21T14:27:17.000Z</time>
      </trkpt>
      <trkpt lat="43.51402" lon="6.37288">
        <ele>277</ele>
        <time>2022-01-21T14:27:18.000Z</time>
      </trkpt>
      <trkpt lat="43.51402" lon="6.37288">
        <ele>277</ele>
        <time>2022-01-21T14:27:19.000Z</time>
      </trkpt>
      <trkpt lat="43.51402" lon="6.37288">
        <ele>277</ele>
        <time>2022-01-21T14:27:20.000Z</time>
      </trkpt>
      <trkpt lat="43.51402" lon="6.37288">
        <ele>277</ele>
        <time>2022-01-21T14:27:21.000Z</time>
      </trkpt>
      <trkpt lat="43.51402" lon="6.37288">
        <ele>277</ele>
        <time>2022-01-21T14:27:22.000Z</time>
      </trkpt>
      <trkpt lat="43.51402" lon="6.37288">
        <ele>277</ele>
        <time>2022-01-21T14:27:23.000Z</time>
      </trkpt>
      <trkpt lat="43.51402" lon="6.37288">
        <ele>277</ele>
        <time>2022-01-21T14:27:24.000Z</time>
      </trkpt>
      <trkpt lat="43.51402" lon="6.37288">
        <ele>277</ele>
        <time>2022-01-21T14:27:25.000Z</time>
      </trkpt>
      <trkpt lat="43.51402" lon="6.37288">
        <ele>277</ele>
        <time>2022-01-21T14:27:26.000Z</time>
      </trkpt>
      <trkpt lat="43.51402" lon="6.37288">
        <ele>277</ele>
        <time>2022-01-21T14:27:27.000Z</time>
      </trkpt>
      <trkpt lat="43.51402" lon="6.37288">
        <ele>277</ele>
        <time>2022-01-21T14:27:28.000Z</time>
      </trkpt>
      <trkpt lat="43.51402" lon="6.37288">
        <ele>277</ele>
        <time>2022-01-21T14:27:29.000Z</time>
      </trkpt>
      <trkpt lat="43.51402" lon="6.37288">
        <ele>277</ele>
        <time>2022-01-21T14:27:30.000Z</time>
      </trkpt>
      <trkpt lat="43.51402" lon="6.37288">
        <ele>277</ele>
        <time>2022-01-21T14:27:31.000Z</time>
      </trkpt>
      <trkpt lat="43.51402" lon="6.37288">
        <ele>277</ele>
        <time>2022-01-21T14:27:32.000Z</time>
      </trkpt>
      <trkpt lat="43.51402" lon="6.37288">
        <ele>277</ele>
        <time>2022-01-21T14:27:33.000Z</time>
      </trkpt>
      <trkpt lat="43.51402" lon="6.37288">
        <ele>277</ele>
        <time>2022-01-21T14:27:34.000Z</time>
      </trkpt>
      <trkpt lat="43.51404" lon="6.37292">
        <ele>278</ele>
        <time>2022-01-21T14:27:35.000Z</time>
      </trkpt>
      <trkpt lat="43.51405" lon="6.37292">
        <ele>278</ele>
        <time>2022-01-21T14:27:36.000Z</time>
      </trkpt>
      <trkpt lat="43.51405" lon="6.37292">
        <ele>278</ele>
        <time>2022-01-21T14:27:37.000Z</time>
      </trkpt>
      <trkpt lat="43.51405" lon="6.37292">
        <ele>278</ele>
        <time>2022-01-21T14:27:38.000Z</time>
      </trkpt>
      <trkpt lat="43.51405" lon="6.37292">
        <ele>278</ele>
        <time>2022-01-21T14:27:39.000Z</time>
      </trkpt>
      <trkpt lat="43.51405" lon="6.37292">
        <ele>278</ele>
        <time>2022-01-21T14:27:40.000Z</time>
      </trkpt>
      <trkpt lat="43.51405" lon="6.37293">
        <ele>278</ele>
        <time>2022-01-21T14:27:41.000Z</time>
      </trkpt>
      <trkpt lat="43.51405" lon="6.37293">
        <ele>278</ele>
        <time>2022-01-21T14:27:42.000Z</time>
      </trkpt>
      <trkpt lat="43.51405" lon="6.37293">
        <ele>278</ele>
        <time>2022-01-21T14:27:43.000Z</time>
      </trkpt>
      <trkpt lat="43.51405" lon="6.37293">
        <ele>278</ele>
        <time>2022-01-21T14:27:44.000Z</time>
      </trkpt>
      <trkpt lat="43.51405" lon="6.37293">
        <ele>278</ele>
        <time>2022-01-21T14:27:45.000Z</time>
      </trkpt>
      <trkpt lat="43.51405" lon="6.37293">
        <ele>278</ele>
        <time>2022-01-21T14:27:46.000Z</time>
      </trkpt>
      <trkpt lat="43.51405" lon="6.37293">
        <ele>278</ele>
        <time>2022-01-21T14:27:47.000Z</time>
      </trkpt>
      <trkpt lat="43.51405" lon="6.37293">
        <ele>278</ele>
        <time>2022-01-21T14:27:48.000Z</time>
      </trkpt>
      <trkpt lat="43.51405" lon="6.37293">
        <ele>278</ele>
        <time>2022-01-21T14:27:49.000Z</time>
      </trkpt>
      <trkpt lat="43.51405" lon="6.37293">
        <ele>278</ele>
        <time>2022-01-21T14:27:50.000Z</time>
      </trkpt>
      <trkpt lat="43.51405" lon="6.37293">
        <ele>278</ele>
        <time>2022-01-21T14:27:51.000Z</time>
      </trkpt>
      <trkpt lat="43.51405" lon="6.37293">
        <ele>278</ele>
        <time>2022-01-21T14:27:52.000Z</time>
      </trkpt>
      <trkpt lat="43.51405" lon="6.37293">
        <ele>278</ele>
        <time>2022-01-21T14:27:53.000Z</time>
      </trkpt>
      <trkpt lat="43.51405" lon="6.37293">
        <ele>278</ele>
        <time>2022-01-21T14:27:54.000Z</time>
      </trkpt>
      <trkpt lat="43.51405" lon="6.37293">
        <ele>278</ele>
        <time>2022-01-21T14:27:55.000Z</time>
      </trkpt>
      <trkpt lat="43.51405" lon="6.37293">
        <ele>278</ele>
        <time>2022-01-21T14:27:56.000Z</time>
      </trkpt>
      <trkpt lat="43.51405" lon="6.37293">
        <ele>278</ele>
        <time>2022-01-21T14:27:57.000Z</time>
      </trkpt>
      <trkpt lat="43.51405" lon="6.37293">
        <ele>278</ele>
        <time>2022-01-21T14:27:58.000Z</time>
      </trkpt>
      <trkpt lat="43.51405" lon="6.37293">
        <ele>278</ele>
        <time>2022-01-21T14:27:59.000Z</time>
      </trkpt>
      <trkpt lat="43.51405" lon="6.37293">
        <ele>278</ele>
        <time>2022-01-21T14:28:00.000Z</time>
      </trkpt>
      <trkpt lat="43.51405" lon="6.37293">
        <ele>278</ele>
        <time>2022-01-21T14:28:01.000Z</time>
      </trkpt>
      <trkpt lat="43.51405" lon="6.37293">
        <ele>278</ele>
        <time>2022-01-21T14:28:02.000Z</time>
      </trkpt>
      <trkpt lat="43.51405" lon="6.37293">
        <ele>278</ele>
        <time>2022-01-21T14:28:03.000Z</time>
      </trkpt>
      <trkpt lat="43.51405" lon="6.37293">
        <ele>278</ele>
        <time>2022-01-21T14:28:04.000Z</time>
      </trkpt>
      <trkpt lat="43.51405" lon="6.37293">
        <ele>278</ele>
        <time>2022-01-21T14:28:05.000Z</time>
      </trkpt>
      <trkpt lat="43.51405" lon="6.37292">
        <ele>278</ele>
        <time>2022-01-21T14:28:06.000Z</time>
      </trkpt>
      <trkpt lat="43.51405" lon="6.37292">
        <ele>278</ele>
        <time>2022-01-21T14:28:07.000Z</time>
      </trkpt>
      <trkpt lat="43.51405" lon="6.37291">
        <ele>278</ele>
        <time>2022-01-21T14:28:08.000Z</time>
      </trkpt>
      <trkpt lat="43.51406" lon="6.37291">
        <ele>278</ele>
        <time>2022-01-21T14:28:09.000Z</time>
      </trkpt>
      <trkpt lat="43.51406" lon="6.3729">
        <ele>278</ele>
        <time>2022-01-21T14:28:10.000Z</time>
      </trkpt>
      <trkpt lat="43.51406" lon="6.37289">
        <ele>278</ele>
        <time>2022-01-21T14:28:11.000Z</time>
      </trkpt>
      <trkpt lat="43.51406" lon="6.37289">
        <ele>278</ele>
        <time>2022-01-21T14:28:12.000Z</time>
      </trkpt>
      <trkpt lat="43.51406" lon="6.37288">
        <ele>278</ele>
        <time>2022-01-21T14:28:13.000Z</time>
      </trkpt>
      <trkpt lat="43.51407" lon="6.37288">
        <ele>278</ele>
        <time>2022-01-21T14:28:14.000Z</time>
      </trkpt>
      <trkpt lat="43.51407" lon="6.37287">
        <ele>278</ele>
        <time>2022-01-21T14:28:15.000Z</time>
      </trkpt>
      <trkpt lat="43.51407" lon="6.37286">
        <ele>278</ele>
        <time>2022-01-21T14:28:16.000Z</time>
      </trkpt>
      <trkpt lat="43.51407" lon="6.37286">
        <ele>278</ele>
        <time>2022-01-21T14:28:17.000Z</time>
      </trkpt>
      <trkpt lat="43.51407" lon="6.37285">
        <ele>278</ele>
        <time>2022-01-21T14:28:18.000Z</time>
      </trkpt>
      <trkpt lat="43.51407" lon="6.37285">
        <ele>278</ele>
        <time>2022-01-21T14:28:19.000Z</time>
      </trkpt>
      <trkpt lat="43.51407" lon="6.37284">
        <ele>278</ele>
        <time>2022-01-21T14:28:20.000Z</time>
      </trkpt>
      <trkpt lat="43.51407" lon="6.37284">
        <ele>278</ele>
        <time>2022-01-21T14:28:21.000Z</time>
      </trkpt>
      <trkpt lat="43.51407" lon="6.37284">
        <ele>278</ele>
        <time>2022-01-21T14:28:22.000Z</time>
      </trkpt>
      <trkpt lat="43.51407" lon="6.37284">
        <ele>278</ele>
        <time>2022-01-21T14:28:23.000Z</time>
      </trkpt>
      <trkpt lat="43.51407" lon="6.37283">
        <ele>278</ele>
        <time>2022-01-21T14:28:24.000Z</time>
      </trkpt>
      <trkpt lat="43.51407" lon="6.37283">
        <ele>278</ele>
        <time>2022-01-21T14:28:25.000Z</time>
      </trkpt>
      <trkpt lat="43.51407" lon="6.37283">
        <ele>278</ele>
        <time>2022-01-21T14:28:26.000Z</time>
      </trkpt>
      <trkpt lat="43.51407" lon="6.37283">
        <ele>278</ele>
        <time>2022-01-21T14:28:27.000Z</time>
      </trkpt>
      <trkpt lat="43.51408" lon="6.37283">
        <ele>278</ele>
        <time>2022-01-21T14:28:28.000Z</time>
      </trkpt>
      <trkpt lat="43.51408" lon="6.37283">
        <ele>278</ele>
        <time>2022-01-21T14:28:29.000Z</time>
      </trkpt>
      <trkpt lat="43.51408" lon="6.37283">
        <ele>278</ele>
        <time>2022-01-21T14:28:30.000Z</time>
      </trkpt>
      <trkpt lat="43.51408" lon="6.37283">
        <ele>277</ele>
        <time>2022-01-21T14:28:31.000Z</time>
      </trkpt>
      <trkpt lat="43.51408" lon="6.37283">
        <ele>277</ele>
        <time>2022-01-21T14:28:32.000Z</time>
      </trkpt>
      <trkpt lat="43.51407" lon="6.37283">
        <ele>277</ele>
        <time>2022-01-21T14:28:33.000Z</time>
      </trkpt>
      <trkpt lat="43.51407" lon="6.37283">
        <ele>277</ele>
        <time>2022-01-21T14:28:34.000Z</time>
      </trkpt>
      <trkpt lat="43.51407" lon="6.37283">
        <ele>277</ele>
        <time>2022-01-21T14:28:35.000Z</time>
      </trkpt>
      <trkpt lat="43.51407" lon="6.37283">
        <ele>277</ele>
        <time>2022-01-21T14:28:36.000Z</time>
      </trkpt>
      <trkpt lat="43.51407" lon="6.37283">
        <ele>277</ele>
        <time>2022-01-21T14:28:37.000Z</time>
      </trkpt>
      <trkpt lat="43.51407" lon="6.37283">
        <ele>277</ele>
        <time>2022-01-21T14:28:38.000Z</time>
      </trkpt>
      <trkpt lat="43.51407" lon="6.37283">
        <ele>277</ele>
        <time>2022-01-21T14:28:39.000Z</time>
      </trkpt>
      <trkpt lat="43.51407" lon="6.37283">
        <ele>277</ele>
        <time>2022-01-21T14:28:40.000Z</time>
      </trkpt>
      <trkpt lat="43.51407" lon="6.37283">
        <ele>277</ele>
        <time>2022-01-21T14:28:41.000Z</time>
      </trkpt>
      <trkpt lat="43.51407" lon="6.37283">
        <ele>277</ele>
        <time>2022-01-21T14:28:42.000Z</time>
      </trkpt>
      <trkpt lat="43.51407" lon="6.37283">
        <ele>277</ele>
        <time>2022-01-21T14:28:43.000Z</time>
      </trkpt>
      <trkpt lat="43.51407" lon="6.37283">
        <ele>277</ele>
        <time>2022-01-21T14:28:44.000Z</time>
      </trkpt>
      <trkpt lat="43.51407" lon="6.37283">
        <ele>277</ele>
        <time>2022-01-21T14:28:45.000Z</time>
      </trkpt>
      <trkpt lat="43.51407" lon="6.37283">
        <ele>277</ele>
        <time>2022-01-21T14:28:46.000Z</time>
      </trkpt>
      <trkpt lat="43.51407" lon="6.37283">
        <ele>277</ele>
        <time>2022-01-21T14:28:47.000Z</time>
      </trkpt>
      <trkpt lat="43.51407" lon="6.37283">
        <ele>277</ele>
        <time>2022-01-21T14:28:48.000Z</time>
      </trkpt>
      <trkpt lat="43.51407" lon="6.37283">
        <ele>277</ele>
        <time>2022-01-21T14:28:49.000Z</time>
      </trkpt>
      <trkpt lat="43.51407" lon="6.37283">
        <ele>277</ele>
        <time>2022-01-21T14:28:50.000Z</time>
      </trkpt>
      <trkpt lat="43.51407" lon="6.37283">
        <ele>277</ele>
        <time>2022-01-21T14:28:51.000Z</time>
      </trkpt>
      <trkpt lat="43.51407" lon="6.37283">
        <ele>277</ele>
        <time>2022-01-21T14:28:52.000Z</time>
      </trkpt>
      <trkpt lat="43.51407" lon="6.37283">
        <ele>277</ele>
        <time>2022-01-21T14:28:53.000Z</time>
      </trkpt>
      <trkpt lat="43.51407" lon="6.37283">
        <ele>277</ele>
        <time>2022-01-21T14:28:54.000Z</time>
      </trkpt>
      <trkpt lat="43.51407" lon="6.37283">
        <ele>277</ele>
        <time>2022-01-21T14:28:55.000Z</time>
      </trkpt>
      <trkpt lat="43.51407" lon="6.37283">
        <ele>277</ele>
        <time>2022-01-21T14:28:56.000Z</time>
      </trkpt>
      <trkpt lat="43.51408" lon="6.37283">
        <ele>277</ele>
        <time>2022-01-21T14:28:57.000Z</time>
      </trkpt>
      <trkpt lat="43.51408" lon="6.37283">
        <ele>277</ele>
        <time>2022-01-21T14:28:58.000Z</time>
      </trkpt>
      <trkpt lat="43.51407" lon="6.37283">
        <ele>277</ele>
        <time>2022-01-21T14:28:59.000Z</time>
      </trkpt>
      <trkpt lat="43.51407" lon="6.37283">
        <ele>277</ele>
        <time>2022-01-21T14:29:00.000Z</time>
      </trkpt>
      <trkpt lat="43.51407" lon="6.37283">
        <ele>277</ele>
        <time>2022-01-21T14:29:01.000Z</time>
      </trkpt>
      <trkpt lat="43.51407" lon="6.37283">
        <ele>277</ele>
        <time>2022-01-21T14:29:02.000Z</time>
      </trkpt>
      <trkpt lat="43.51407" lon="6.37283">
        <ele>277</ele>
        <time>2022-01-21T14:29:03.000Z</time>
      </trkpt>
      <trkpt lat="43.51407" lon="6.37283">
        <ele>277</ele>
        <time>2022-01-21T14:29:04.000Z</time>
      </trkpt>
      <trkpt lat="43.51407" lon="6.37283">
        <ele>277</ele>
        <time>2022-01-21T14:29:05.000Z</time>
      </trkpt>
      <trkpt lat="43.51407" lon="6.37283">
        <ele>277</ele>
        <time>2022-01-21T14:29:06.000Z</time>
      </trkpt>
      <trkpt lat="43.51407" lon="6.37283">
        <ele>277</ele>
        <time>2022-01-21T14:29:07.000Z</time>
      </trkpt>
      <trkpt lat="43.51407" lon="6.37283">
        <ele>277</ele>
        <time>2022-01-21T14:29:08.000Z</time>
      </trkpt>
      <trkpt lat="43.51407" lon="6.37283">
        <ele>277</ele>
        <time>2022-01-21T14:29:09.000Z</time>
      </trkpt>
      <trkpt lat="43.51407" lon="6.37282">
        <ele>277</ele>
        <time>2022-01-21T14:29:10.000Z</time>
      </trkpt>
      <trkpt lat="43.51406" lon="6.37281">
        <ele>277</ele>
        <time>2022-01-21T14:29:11.000Z</time>
      </trkpt>
      <trkpt lat="43.51406" lon="6.37281">
        <ele>277</ele>
        <time>2022-01-21T14:29:12.000Z</time>
      </trkpt>
      <trkpt lat="43.51406" lon="6.3728">
        <ele>277</ele>
        <time>2022-01-21T14:29:13.000Z</time>
      </trkpt>
      <trkpt lat="43.51406" lon="6.3728">
        <ele>277</ele>
        <time>2022-01-21T14:29:14.000Z</time>
      </trkpt>
      <trkpt lat="43.51406" lon="6.37279">
        <ele>277</ele>
        <time>2022-01-21T14:29:15.000Z</time>
      </trkpt>
      <trkpt lat="43.51406" lon="6.37279">
        <ele>277</ele>
        <time>2022-01-21T14:29:16.000Z</time>
      </trkpt>
      <trkpt lat="43.51405" lon="6.37278">
        <ele>277</ele>
        <time>2022-01-21T14:29:17.000Z</time>
      </trkpt>
      <trkpt lat="43.51405" lon="6.37278">
        <ele>277</ele>
        <time>2022-01-21T14:29:18.000Z</time>
      </trkpt>
      <trkpt lat="43.51404" lon="6.37277">
        <ele>277</ele>
        <time>2022-01-21T14:29:19.000Z</time>
      </trkpt>
      <trkpt lat="43.51404" lon="6.37277">
        <ele>277</ele>
        <time>2022-01-21T14:29:20.000Z</time>
      </trkpt>
      <trkpt lat="43.51403" lon="6.37276">
        <ele>277</ele>
        <time>2022-01-21T14:29:21.000Z</time>
      </trkpt>
      <trkpt lat="43.51402" lon="6.37275">
        <ele>277</ele>
        <time>2022-01-21T14:29:22.000Z</time>
      </trkpt>
      <trkpt lat="43.51401" lon="6.37274">
        <ele>277</ele>
        <time>2022-01-21T14:29:23.000Z</time>
      </trkpt>
      <trkpt lat="43.51401" lon="6.37273">
        <ele>277</ele>
        <time>2022-01-21T14:29:24.000Z</time>
      </trkpt>
      <trkpt lat="43.514" lon="6.37272">
        <ele>277</ele>
        <time>2022-01-21T14:29:25.000Z</time>
      </trkpt>
      <trkpt lat="43.514" lon="6.37271">
        <ele>277</ele>
        <time>2022-01-21T14:29:26.000Z</time>
      </trkpt>
      <trkpt lat="43.514" lon="6.37271">
        <ele>277</ele>
        <time>2022-01-21T14:29:27.000Z</time>
      </trkpt>
      <trkpt lat="43.51399" lon="6.3727">
        <ele>278</ele>
        <time>2022-01-21T14:29:28.000Z</time>
      </trkpt>
      <trkpt lat="43.51399" lon="6.3727">
        <ele>278</ele>
        <time>2022-01-21T14:29:29.000Z</time>
      </trkpt>
      <trkpt lat="43.51399" lon="6.3727">
        <ele>278</ele>
        <time>2022-01-21T14:29:30.000Z</time>
      </trkpt>
      <trkpt lat="43.51399" lon="6.37269">
        <ele>278</ele>
        <time>2022-01-21T14:29:31.000Z</time>
      </trkpt>
      <trkpt lat="43.51398" lon="6.37269">
        <ele>278</ele>
        <time>2022-01-21T14:29:32.000Z</time>
      </trkpt>
      <trkpt lat="43.51397" lon="6.37269">
        <ele>278</ele>
        <time>2022-01-21T14:29:33.000Z</time>
      </trkpt>
      <trkpt lat="43.51396" lon="6.37268">
        <ele>278</ele>
        <time>2022-01-21T14:29:34.000Z</time>
      </trkpt>
      <trkpt lat="43.51394" lon="6.37268">
        <ele>278</ele>
        <time>2022-01-21T14:29:35.000Z</time>
      </trkpt>
      <trkpt lat="43.51393" lon="6.37267">
        <ele>278</ele>
        <time>2022-01-21T14:29:36.000Z</time>
      </trkpt>
      <trkpt lat="43.51392" lon="6.37266">
        <ele>278</ele>
        <time>2022-01-21T14:29:37.000Z</time>
      </trkpt>
      <trkpt lat="43.5139" lon="6.37266">
        <ele>279</ele>
        <time>2022-01-21T14:29:38.000Z</time>
      </trkpt>
      <trkpt lat="43.51389" lon="6.37265">
        <ele>279</ele>
        <time>2022-01-21T14:29:39.000Z</time>
      </trkpt>
      <trkpt lat="43.51388" lon="6.37265">
        <ele>279</ele>
        <time>2022-01-21T14:29:40.000Z</time>
      </trkpt>
      <trkpt lat="43.51387" lon="6.37264">
        <ele>279</ele>
        <time>2022-01-21T14:29:41.000Z</time>
      </trkpt>
      <trkpt lat="43.51387" lon="6.37264">
        <ele>279</ele>
        <time>2022-01-21T14:29:42.000Z</time>
      </trkpt>
      <trkpt lat="43.51387" lon="6.37264">
        <ele>279</ele>
        <time>2022-01-21T14:29:43.000Z</time>
      </trkpt>
      <trkpt lat="43.51387" lon="6.37264">
        <ele>279</ele>
        <time>2022-01-21T14:29:44.000Z</time>
      </trkpt>
      <trkpt lat="43.51387" lon="6.37264">
        <ele>279</ele>
        <time>2022-01-21T14:29:45.000Z</time>
      </trkpt>
      <trkpt lat="43.51387" lon="6.37264">
        <ele>279</ele>
        <time>2022-01-21T14:29:46.000Z</time>
      </trkpt>
      <trkpt lat="43.51387" lon="6.37264">
        <ele>279</ele>
        <time>2022-01-21T14:29:47.000Z</time>
      </trkpt>
      <trkpt lat="43.51387" lon="6.37264">
        <ele>279</ele>
        <time>2022-01-21T14:29:48.000Z</time>
      </trkpt>
      <trkpt lat="43.51387" lon="6.37264">
        <ele>279</ele>
        <time>2022-01-21T14:29:49.000Z</time>
      </trkpt>
      <trkpt lat="43.51387" lon="6.37264">
        <ele>279</ele>
        <time>2022-01-21T14:29:50.000Z</time>
      </trkpt>
      <trkpt lat="43.51387" lon="6.37264">
        <ele>279</ele>
        <time>2022-01-21T14:29:51.000Z</time>
      </trkpt>
      <trkpt lat="43.51384" lon="6.37262">
        <ele>279</ele>
        <time>2022-01-21T14:29:52.000Z</time>
      </trkpt>
      <trkpt lat="43.51384" lon="6.37262">
        <ele>279</ele>
        <time>2022-01-21T14:29:53.000Z</time>
      </trkpt>
      <trkpt lat="43.51384" lon="6.37262">
        <ele>279</ele>
        <time>2022-01-21T14:29:54.000Z</time>
      </trkpt>
      <trkpt lat="43.51384" lon="6.37261">
        <ele>279</ele>
        <time>2022-01-21T14:29:55.000Z</time>
      </trkpt>
      <trkpt lat="43.51383" lon="6.3726">
        <ele>279</ele>
        <time>2022-01-21T14:29:56.000Z</time>
      </trkpt>
      <trkpt lat="43.51382" lon="6.3726">
        <ele>280</ele>
        <time>2022-01-21T14:29:57.000Z</time>
      </trkpt>
      <trkpt lat="43.51381" lon="6.37259">
        <ele>280</ele>
        <time>2022-01-21T14:29:58.000Z</time>
      </trkpt>
      <trkpt lat="43.5138" lon="6.37258">
        <ele>280</ele>
        <time>2022-01-21T14:29:59.000Z</time>
      </trkpt>
      <trkpt lat="43.51379" lon="6.37257">
        <ele>280</ele>
        <time>2022-01-21T14:30:00.000Z</time>
      </trkpt>
      <trkpt lat="43.51377" lon="6.37257">
        <ele>280</ele>
        <time>2022-01-21T14:30:01.000Z</time>
      </trkpt>
      <trkpt lat="43.51376" lon="6.37256">
        <ele>280</ele>
        <time>2022-01-21T14:30:02.000Z</time>
      </trkpt>
      <trkpt lat="43.51375" lon="6.37255">
        <ele>280</ele>
        <time>2022-01-21T14:30:03.000Z</time>
      </trkpt>
      <trkpt lat="43.51374" lon="6.37255">
        <ele>280</ele>
        <time>2022-01-21T14:30:04.000Z</time>
      </trkpt>
      <trkpt lat="43.51374" lon="6.37254">
        <ele>280</ele>
        <time>2022-01-21T14:30:05.000Z</time>
      </trkpt>
      <trkpt lat="43.51373" lon="6.37254">
        <ele>280</ele>
        <time>2022-01-21T14:30:06.000Z</time>
      </trkpt>
      <trkpt lat="43.51372" lon="6.37254">
        <ele>280</ele>
        <time>2022-01-21T14:30:07.000Z</time>
      </trkpt>
      <trkpt lat="43.51371" lon="6.37253">
        <ele>280</ele>
        <time>2022-01-21T14:30:08.000Z</time>
      </trkpt>
      <trkpt lat="43.51371" lon="6.37253">
        <ele>280</ele>
        <time>2022-01-21T14:30:09.000Z</time>
      </trkpt>
      <trkpt lat="43.5137" lon="6.37253">
        <ele>280</ele>
        <time>2022-01-21T14:30:10.000Z</time>
      </trkpt>
      <trkpt lat="43.51369" lon="6.37253">
        <ele>280</ele>
        <time>2022-01-21T14:30:11.000Z</time>
      </trkpt>
      <trkpt lat="43.51369" lon="6.37253">
        <ele>280</ele>
        <time>2022-01-21T14:30:12.000Z</time>
      </trkpt>
      <trkpt lat="43.51368" lon="6.37252">
        <ele>280</ele>
        <time>2022-01-21T14:30:13.000Z</time>
      </trkpt>
      <trkpt lat="43.51367" lon="6.37252">
        <ele>280</ele>
        <time>2022-01-21T14:30:14.000Z</time>
      </trkpt>
      <trkpt lat="43.51366" lon="6.37252">
        <ele>280</ele>
        <time>2022-01-21T14:30:15.000Z</time>
      </trkpt>
      <trkpt lat="43.51365" lon="6.37252">
        <ele>280</ele>
        <time>2022-01-21T14:30:16.000Z</time>
      </trkpt>
      <trkpt lat="43.51364" lon="6.37251">
        <ele>280</ele>
        <time>2022-01-21T14:30:17.000Z</time>
      </trkpt>
      <trkpt lat="43.51363" lon="6.37251">
        <ele>280</ele>
        <time>2022-01-21T14:30:18.000Z</time>
      </trkpt>
      <trkpt lat="43.51362" lon="6.37251">
        <ele>280</ele>
        <time>2022-01-21T14:30:19.000Z</time>
      </trkpt>
      <trkpt lat="43.51361" lon="6.37251">
        <ele>280</ele>
        <time>2022-01-21T14:30:20.000Z</time>
      </trkpt>
      <trkpt lat="43.5136" lon="6.3725">
        <ele>280</ele>
        <time>2022-01-21T14:30:21.000Z</time>
      </trkpt>
      <trkpt lat="43.5136" lon="6.3725">
        <ele>280</ele>
        <time>2022-01-21T14:30:22.000Z</time>
      </trkpt>
      <trkpt lat="43.5136" lon="6.3725">
        <ele>280</ele>
        <time>2022-01-21T14:30:23.000Z</time>
      </trkpt>
      <trkpt lat="43.51359" lon="6.3725">
        <ele>280</ele>
        <time>2022-01-21T14:30:24.000Z</time>
      </trkpt>
      <trkpt lat="43.51359" lon="6.3725">
        <ele>280</ele>
        <time>2022-01-21T14:30:25.000Z</time>
      </trkpt>
      <trkpt lat="43.51359" lon="6.3725">
        <ele>280</ele>
        <time>2022-01-21T14:30:26.000Z</time>
      </trkpt>
      <trkpt lat="43.51358" lon="6.3725">
        <ele>280</ele>
        <time>2022-01-21T14:30:27.000Z</time>
      </trkpt>
      <trkpt lat="43.51357" lon="6.3725">
        <ele>280</ele>
        <time>2022-01-21T14:30:28.000Z</time>
      </trkpt>
      <trkpt lat="43.51357" lon="6.37249">
        <ele>280</ele>
        <time>2022-01-21T14:30:29.000Z</time>
      </trkpt>
      <trkpt lat="43.51357" lon="6.37249">
        <ele>280</ele>
        <time>2022-01-21T14:30:30.000Z</time>
      </trkpt>
      <trkpt lat="43.51357" lon="6.37249">
        <ele>280</ele>
        <time>2022-01-21T14:30:31.000Z</time>
      </trkpt>
      <trkpt lat="43.51356" lon="6.37249">
        <ele>280</ele>
        <time>2022-01-21T14:30:32.000Z</time>
      </trkpt>
      <trkpt lat="43.51356" lon="6.37249">
        <ele>280</ele>
        <time>2022-01-21T14:30:33.000Z</time>
      </trkpt>
      <trkpt lat="43.51355" lon="6.37249">
        <ele>280</ele>
        <time>2022-01-21T14:30:34.000Z</time>
      </trkpt>
      <trkpt lat="43.51354" lon="6.37249">
        <ele>280</ele>
        <time>2022-01-21T14:30:35.000Z</time>
      </trkpt>
      <trkpt lat="43.51353" lon="6.37249">
        <ele>280</ele>
        <time>2022-01-21T14:30:36.000Z</time>
      </trkpt>
      <trkpt lat="43.51353" lon="6.37249">
        <ele>280</ele>
        <time>2022-01-21T14:30:37.000Z</time>
      </trkpt>
      <trkpt lat="43.51352" lon="6.37249">
        <ele>281</ele>
        <time>2022-01-21T14:30:38.000Z</time>
      </trkpt>
      <trkpt lat="43.51351" lon="6.37249">
        <ele>281</ele>
        <time>2022-01-21T14:30:39.000Z</time>
      </trkpt>
      <trkpt lat="43.51351" lon="6.37249">
        <ele>281</ele>
        <time>2022-01-21T14:30:40.000Z</time>
      </trkpt>
      <trkpt lat="43.5135" lon="6.37249">
        <ele>281</ele>
        <time>2022-01-21T14:30:41.000Z</time>
      </trkpt>
      <trkpt lat="43.51349" lon="6.37249">
        <ele>281</ele>
        <time>2022-01-21T14:30:42.000Z</time>
      </trkpt>
      <trkpt lat="43.51349" lon="6.37248">
        <ele>281</ele>
        <time>2022-01-21T14:30:43.000Z</time>
      </trkpt>
      <trkpt lat="43.51348" lon="6.37249">
        <ele>281</ele>
        <time>2022-01-21T14:30:44.000Z</time>
      </trkpt>
      <trkpt lat="43.51347" lon="6.37249">
        <ele>281</ele>
        <time>2022-01-21T14:30:45.000Z</time>
      </trkpt>
      <trkpt lat="43.51345" lon="6.37248">
        <ele>281</ele>
        <time>2022-01-21T14:30:46.000Z</time>
      </trkpt>
      <trkpt lat="43.51344" lon="6.37248">
        <ele>282</ele>
        <time>2022-01-21T14:30:47.000Z</time>
      </trkpt>
      <trkpt lat="43.51344" lon="6.37248">
        <ele>283</ele>
        <time>2022-01-21T14:30:48.000Z</time>
      </trkpt>
      <trkpt lat="43.51343" lon="6.37248">
        <ele>283</ele>
        <time>2022-01-21T14:30:49.000Z</time>
      </trkpt>
      <trkpt lat="43.51343" lon="6.37248">
        <ele>283</ele>
        <time>2022-01-21T14:30:50.000Z</time>
      </trkpt>
      <trkpt lat="43.51342" lon="6.37248">
        <ele>283</ele>
        <time>2022-01-21T14:30:51.000Z</time>
      </trkpt>
      <trkpt lat="43.51341" lon="6.37248">
        <ele>283</ele>
        <time>2022-01-21T14:30:52.000Z</time>
      </trkpt>
      <trkpt lat="43.5134" lon="6.37247">
        <ele>284</ele>
        <time>2022-01-21T14:30:53.000Z</time>
      </trkpt>
      <trkpt lat="43.51338" lon="6.37247">
        <ele>284</ele>
        <time>2022-01-21T14:30:54.000Z</time>
      </trkpt>
      <trkpt lat="43.51337" lon="6.37247">
        <ele>284</ele>
        <time>2022-01-21T14:30:55.000Z</time>
      </trkpt>
      <trkpt lat="43.51335" lon="6.37247">
        <ele>284</ele>
        <time>2022-01-21T14:30:56.000Z</time>
      </trkpt>
      <trkpt lat="43.51333" lon="6.37246">
        <ele>284</ele>
        <time>2022-01-21T14:30:57.000Z</time>
      </trkpt>
      <trkpt lat="43.51332" lon="6.37246">
        <ele>283</ele>
        <time>2022-01-21T14:30:58.000Z</time>
      </trkpt>
      <trkpt lat="43.51331" lon="6.37246">
        <ele>283</ele>
        <time>2022-01-21T14:30:59.000Z</time>
      </trkpt>
      <trkpt lat="43.51331" lon="6.37246">
        <ele>283</ele>
        <time>2022-01-21T14:31:00.000Z</time>
      </trkpt>
      <trkpt lat="43.5133" lon="6.37245">
        <ele>283</ele>
        <time>2022-01-21T14:31:01.000Z</time>
      </trkpt>
      <trkpt lat="43.5133" lon="6.37245">
        <ele>283</ele>
        <time>2022-01-21T14:31:02.000Z</time>
      </trkpt>
      <trkpt lat="43.5133" lon="6.37245">
        <ele>283</ele>
        <time>2022-01-21T14:31:03.000Z</time>
      </trkpt>
      <trkpt lat="43.51329" lon="6.37245">
        <ele>283</ele>
        <time>2022-01-21T14:31:04.000Z</time>
      </trkpt>
      <trkpt lat="43.51329" lon="6.37245">
        <ele>283</ele>
        <time>2022-01-21T14:31:05.000Z</time>
      </trkpt>
      <trkpt lat="43.51329" lon="6.37245">
        <ele>283</ele>
        <time>2022-01-21T14:31:06.000Z</time>
      </trkpt>
      <trkpt lat="43.51328" lon="6.37245">
        <ele>283</ele>
        <time>2022-01-21T14:31:07.000Z</time>
      </trkpt>
      <trkpt lat="43.51327" lon="6.37245">
        <ele>283</ele>
        <time>2022-01-21T14:31:08.000Z</time>
      </trkpt>
      <trkpt lat="43.51326" lon="6.37245">
        <ele>283</ele>
        <time>2022-01-21T14:31:09.000Z</time>
      </trkpt>
      <trkpt lat="43.51326" lon="6.37245">
        <ele>283</ele>
        <time>2022-01-21T14:31:10.000Z</time>
      </trkpt>
      <trkpt lat="43.51325" lon="6.37245">
        <ele>283</ele>
        <time>2022-01-21T14:31:11.000Z</time>
      </trkpt>
      <trkpt lat="43.51324" lon="6.37244">
        <ele>283</ele>
        <time>2022-01-21T14:31:12.000Z</time>
      </trkpt>
      <trkpt lat="43.51323" lon="6.37244">
        <ele>283</ele>
        <time>2022-01-21T14:31:13.000Z</time>
      </trkpt>
      <trkpt lat="43.51321" lon="6.37243">
        <ele>283</ele>
        <time>2022-01-21T14:31:14.000Z</time>
      </trkpt>
      <trkpt lat="43.51319" lon="6.37243">
        <ele>283</ele>
        <time>2022-01-21T14:31:15.000Z</time>
      </trkpt>
      <trkpt lat="43.51318" lon="6.37242">
        <ele>283</ele>
        <time>2022-01-21T14:31:16.000Z</time>
      </trkpt>
      <trkpt lat="43.51316" lon="6.37242">
        <ele>283</ele>
        <time>2022-01-21T14:31:17.000Z</time>
      </trkpt>
      <trkpt lat="43.51315" lon="6.37241">
        <ele>283</ele>
        <time>2022-01-21T14:31:18.000Z</time>
      </trkpt>
      <trkpt lat="43.51314" lon="6.37241">
        <ele>283</ele>
        <time>2022-01-21T14:31:19.000Z</time>
      </trkpt>
      <trkpt lat="43.51314" lon="6.37241">
        <ele>283</ele>
        <time>2022-01-21T14:31:20.000Z</time>
      </trkpt>
      <trkpt lat="43.51313" lon="6.3724">
        <ele>283</ele>
        <time>2022-01-21T14:31:21.000Z</time>
      </trkpt>
      <trkpt lat="43.51313" lon="6.3724">
        <ele>283</ele>
        <time>2022-01-21T14:31:22.000Z</time>
      </trkpt>
      <trkpt lat="43.51312" lon="6.3724">
        <ele>283</ele>
        <time>2022-01-21T14:31:23.000Z</time>
      </trkpt>
      <trkpt lat="43.51312" lon="6.3724">
        <ele>283</ele>
        <time>2022-01-21T14:31:24.000Z</time>
      </trkpt>
      <trkpt lat="43.51311" lon="6.3724">
        <ele>283</ele>
        <time>2022-01-21T14:31:25.000Z</time>
      </trkpt>
      <trkpt lat="43.5131" lon="6.3724">
        <ele>283</ele>
        <time>2022-01-21T14:31:26.000Z</time>
      </trkpt>
      <trkpt lat="43.51309" lon="6.37239">
        <ele>283</ele>
        <time>2022-01-21T14:31:27.000Z</time>
      </trkpt>
      <trkpt lat="43.51308" lon="6.37239">
        <ele>283</ele>
        <time>2022-01-21T14:31:28.000Z</time>
      </trkpt>
      <trkpt lat="43.51307" lon="6.37239">
        <ele>283</ele>
        <time>2022-01-21T14:31:29.000Z</time>
      </trkpt>
      <trkpt lat="43.51307" lon="6.3724">
        <ele>283</ele>
        <time>2022-01-21T14:31:30.000Z</time>
      </trkpt>
      <trkpt lat="43.51306" lon="6.3724">
        <ele>283</ele>
        <time>2022-01-21T14:31:31.000Z</time>
      </trkpt>
      <trkpt lat="43.51306" lon="6.37241">
        <ele>283</ele>
        <time>2022-01-21T14:31:32.000Z</time>
      </trkpt>
      <trkpt lat="43.51305" lon="6.37241">
        <ele>282</ele>
        <time>2022-01-21T14:31:33.000Z</time>
      </trkpt>
      <trkpt lat="43.51305" lon="6.37242">
        <ele>282</ele>
        <time>2022-01-21T14:31:34.000Z</time>
      </trkpt>
      <trkpt lat="43.51305" lon="6.37243">
        <ele>282</ele>
        <time>2022-01-21T14:31:35.000Z</time>
      </trkpt>
      <trkpt lat="43.51304" lon="6.37244">
        <ele>282</ele>
        <time>2022-01-21T14:31:36.000Z</time>
      </trkpt>
      <trkpt lat="43.51304" lon="6.37244">
        <ele>282</ele>
        <time>2022-01-21T14:31:37.000Z</time>
      </trkpt>
      <trkpt lat="43.51304" lon="6.37245">
        <ele>282</ele>
        <time>2022-01-21T14:31:38.000Z</time>
      </trkpt>
      <trkpt lat="43.51304" lon="6.37246">
        <ele>282</ele>
        <time>2022-01-21T14:31:39.000Z</time>
      </trkpt>
      <trkpt lat="43.51303" lon="6.37247">
        <ele>282</ele>
        <time>2022-01-21T14:31:40.000Z</time>
      </trkpt>
      <trkpt lat="43.51303" lon="6.37248">
        <ele>282</ele>
        <time>2022-01-21T14:31:41.000Z</time>
      </trkpt>
      <trkpt lat="43.51304" lon="6.3725">
        <ele>282</ele>
        <time>2022-01-21T14:31:42.000Z</time>
      </trkpt>
      <trkpt lat="43.51304" lon="6.37253">
        <ele>282</ele>
        <time>2022-01-21T14:31:43.000Z</time>
      </trkpt>
      <trkpt lat="43.51304" lon="6.37257">
        <ele>282</ele>
        <time>2022-01-21T14:31:44.000Z</time>
      </trkpt>
      <trkpt lat="43.51304" lon="6.3726">
        <ele>282</ele>
        <time>2022-01-21T14:31:45.000Z</time>
      </trkpt>
      <trkpt lat="43.51304" lon="6.37262">
        <ele>282</ele>
        <time>2022-01-21T14:31:46.000Z</time>
      </trkpt>
      <trkpt lat="43.51304" lon="6.37263">
        <ele>282</ele>
        <time>2022-01-21T14:31:47.000Z</time>
      </trkpt>
      <trkpt lat="43.51304" lon="6.37264">
        <ele>282</ele>
        <time>2022-01-21T14:31:48.000Z</time>
      </trkpt>
      <trkpt lat="43.51304" lon="6.37266">
        <ele>282</ele>
        <time>2022-01-21T14:31:49.000Z</time>
      </trkpt>
      <trkpt lat="43.51304" lon="6.37267">
        <ele>283</ele>
        <time>2022-01-21T14:31:50.000Z</time>
      </trkpt>
      <trkpt lat="43.51304" lon="6.37268">
        <ele>283</ele>
        <time>2022-01-21T14:31:51.000Z</time>
      </trkpt>
      <trkpt lat="43.51304" lon="6.37268">
        <ele>283</ele>
        <time>2022-01-21T14:31:52.000Z</time>
      </trkpt>
      <trkpt lat="43.51304" lon="6.37269">
        <ele>283</ele>
        <time>2022-01-21T14:31:53.000Z</time>
      </trkpt>
      <trkpt lat="43.51304" lon="6.3727">
        <ele>283</ele>
        <time>2022-01-21T14:31:54.000Z</time>
      </trkpt>
      <trkpt lat="43.51304" lon="6.3727">
        <ele>283</ele>
        <time>2022-01-21T14:31:55.000Z</time>
      </trkpt>
      <trkpt lat="43.51304" lon="6.37271">
        <ele>283</ele>
        <time>2022-01-21T14:31:56.000Z</time>
      </trkpt>
      <trkpt lat="43.51304" lon="6.37271">
        <ele>283</ele>
        <time>2022-01-21T14:31:57.000Z</time>
      </trkpt>
      <trkpt lat="43.51304" lon="6.37272">
        <ele>283</ele>
        <time>2022-01-21T14:31:58.000Z</time>
      </trkpt>
      <trkpt lat="43.51304" lon="6.37272">
        <ele>283</ele>
        <time>2022-01-21T14:31:59.000Z</time>
      </trkpt>
      <trkpt lat="43.51304" lon="6.37273">
        <ele>283</ele>
        <time>2022-01-21T14:32:00.000Z</time>
      </trkpt>
      <trkpt lat="43.51304" lon="6.37273">
        <ele>283</ele>
        <time>2022-01-21T14:32:01.000Z</time>
      </trkpt>
      <trkpt lat="43.51304" lon="6.37274">
        <ele>283</ele>
        <time>2022-01-21T14:32:02.000Z</time>
      </trkpt>
      <trkpt lat="43.51304" lon="6.37275">
        <ele>284</ele>
        <time>2022-01-21T14:32:03.000Z</time>
      </trkpt>
      <trkpt lat="43.51304" lon="6.37276">
        <ele>284</ele>
        <time>2022-01-21T14:32:04.000Z</time>
      </trkpt>
      <trkpt lat="43.51304" lon="6.37277">
        <ele>284</ele>
        <time>2022-01-21T14:32:05.000Z</time>
      </trkpt>
      <trkpt lat="43.51304" lon="6.37278">
        <ele>285</ele>
        <time>2022-01-21T14:32:06.000Z</time>
      </trkpt>
      <trkpt lat="43.51305" lon="6.37278">
        <ele>285</ele>
        <time>2022-01-21T14:32:07.000Z</time>
      </trkpt>
      <trkpt lat="43.51305" lon="6.37279">
        <ele>285</ele>
        <time>2022-01-21T14:32:08.000Z</time>
      </trkpt>
      <trkpt lat="43.51305" lon="6.3728">
        <ele>285</ele>
        <time>2022-01-21T14:32:09.000Z</time>
      </trkpt>
      <trkpt lat="43.51305" lon="6.37281">
        <ele>285</ele>
        <time>2022-01-21T14:32:10.000Z</time>
      </trkpt>
      <trkpt lat="43.51305" lon="6.37282">
        <ele>285</ele>
        <time>2022-01-21T14:32:11.000Z</time>
      </trkpt>
      <trkpt lat="43.51305" lon="6.37283">
        <ele>285</ele>
        <time>2022-01-21T14:32:12.000Z</time>
      </trkpt>
      <trkpt lat="43.51305" lon="6.37284">
        <ele>286</ele>
        <time>2022-01-21T14:32:13.000Z</time>
      </trkpt>
      <trkpt lat="43.51305" lon="6.37285">
        <ele>286</ele>
        <time>2022-01-21T14:32:14.000Z</time>
      </trkpt>
      <trkpt lat="43.51305" lon="6.37286">
        <ele>286</ele>
        <time>2022-01-21T14:32:15.000Z</time>
      </trkpt>
      <trkpt lat="43.51306" lon="6.37287">
        <ele>286</ele>
        <time>2022-01-21T14:32:16.000Z</time>
      </trkpt>
      <trkpt lat="43.51306" lon="6.37288">
        <ele>286</ele>
        <time>2022-01-21T14:32:17.000Z</time>
      </trkpt>
      <trkpt lat="43.51306" lon="6.3729">
        <ele>287</ele>
        <time>2022-01-21T14:32:18.000Z</time>
      </trkpt>
      <trkpt lat="43.51306" lon="6.37291">
        <ele>287</ele>
        <time>2022-01-21T14:32:19.000Z</time>
      </trkpt>
      <trkpt lat="43.51306" lon="6.37292">
        <ele>288</ele>
        <time>2022-01-21T14:32:20.000Z</time>
      </trkpt>
      <trkpt lat="43.51306" lon="6.37293">
        <ele>288</ele>
        <time>2022-01-21T14:32:21.000Z</time>
      </trkpt>
      <trkpt lat="43.51306" lon="6.37294">
        <ele>288</ele>
        <time>2022-01-21T14:32:22.000Z</time>
      </trkpt>
      <trkpt lat="43.51306" lon="6.37295">
        <ele>288</ele>
        <time>2022-01-21T14:32:23.000Z</time>
      </trkpt>
      <trkpt lat="43.51307" lon="6.37295">
        <ele>288</ele>
        <time>2022-01-21T14:32:24.000Z</time>
      </trkpt>
      <trkpt lat="43.51307" lon="6.37295">
        <ele>288</ele>
        <time>2022-01-21T14:32:25.000Z</time>
      </trkpt>
      <trkpt lat="43.51307" lon="6.37295">
        <ele>288</ele>
        <time>2022-01-21T14:32:26.000Z</time>
      </trkpt>
      <trkpt lat="43.51307" lon="6.37295">
        <ele>288</ele>
        <time>2022-01-21T14:32:27.000Z</time>
      </trkpt>
      <trkpt lat="43.51307" lon="6.37295">
        <ele>288</ele>
        <time>2022-01-21T14:32:28.000Z</time>
      </trkpt>
      <trkpt lat="43.51307" lon="6.37295">
        <ele>288</ele>
        <time>2022-01-21T14:32:29.000Z</time>
      </trkpt>
      <trkpt lat="43.51307" lon="6.37295">
        <ele>288</ele>
        <time>2022-01-21T14:32:30.000Z</time>
      </trkpt>
      <trkpt lat="43.51307" lon="6.37295">
        <ele>288</ele>
        <time>2022-01-21T14:32:31.000Z</time>
      </trkpt>
      <trkpt lat="43.51307" lon="6.37295">
        <ele>288</ele>
        <time>2022-01-21T14:32:32.000Z</time>
      </trkpt>
      <trkpt lat="43.51307" lon="6.37295">
        <ele>288</ele>
        <time>2022-01-21T14:32:33.000Z</time>
      </trkpt>
      <trkpt lat="43.51307" lon="6.37295">
        <ele>288</ele>
        <time>2022-01-21T14:32:34.000Z</time>
      </trkpt>
      <trkpt lat="43.51307" lon="6.37295">
        <ele>288</ele>
        <time>2022-01-21T14:32:35.000Z</time>
      </trkpt>
      <trkpt lat="43.51307" lon="6.37295">
        <ele>288</ele>
        <time>2022-01-21T14:32:36.000Z</time>
      </trkpt>
      <trkpt lat="43.51307" lon="6.37295">
        <ele>288</ele>
        <time>2022-01-21T14:32:37.000Z</time>
      </trkpt>
      <trkpt lat="43.51307" lon="6.37295">
        <ele>288</ele>
        <time>2022-01-21T14:32:38.000Z</time>
      </trkpt>
      <trkpt lat="43.51307" lon="6.373">
        <ele>288</ele>
        <time>2022-01-21T14:32:39.000Z</time>
      </trkpt>
      <trkpt lat="43.51307" lon="6.373">
        <ele>288</ele>
        <time>2022-01-21T14:32:40.000Z</time>
      </trkpt>
      <trkpt lat="43.51307" lon="6.373">
        <ele>288</ele>
        <time>2022-01-21T14:32:41.000Z</time>
      </trkpt>
      <trkpt lat="43.51307" lon="6.373">
        <ele>288</ele>
        <time>2022-01-21T14:32:42.000Z</time>
      </trkpt>
      <trkpt lat="43.51307" lon="6.373">
        <ele>288</ele>
        <time>2022-01-21T14:32:43.000Z</time>
      </trkpt>
      <trkpt lat="43.51307" lon="6.373">
        <ele>288</ele>
        <time>2022-01-21T14:32:44.000Z</time>
      </trkpt>
      <trkpt lat="43.51307" lon="6.373">
        <ele>288</ele>
        <time>2022-01-21T14:32:45.000Z</time>
      </trkpt>
      <trkpt lat="43.51307" lon="6.373">
        <ele>288</ele>
        <time>2022-01-21T14:32:46.000Z</time>
      </trkpt>
      <trkpt lat="43.51307" lon="6.373">
        <ele>288</ele>
        <time>2022-01-21T14:32:47.000Z</time>
      </trkpt>
      <trkpt lat="43.51307" lon="6.373">
        <ele>288</ele>
        <time>2022-01-21T14:32:48.000Z</time>
      </trkpt>
      <trkpt lat="43.51307" lon="6.373">
        <ele>288</ele>
        <time>2022-01-21T14:32:49.000Z</time>
      </trkpt>
      <trkpt lat="43.51307" lon="6.373">
        <ele>288</ele>
        <time>2022-01-21T14:32:50.000Z</time>
      </trkpt>
      <trkpt lat="43.51307" lon="6.373">
        <ele>288</ele>
        <time>2022-01-21T14:32:51.000Z</time>
      </trkpt>
      <trkpt lat="43.51307" lon="6.373">
        <ele>288</ele>
        <time>2022-01-21T14:32:52.000Z</time>
      </trkpt>
      <trkpt lat="43.51307" lon="6.37301">
        <ele>288</ele>
        <time>2022-01-21T14:32:53.000Z</time>
      </trkpt>
      <trkpt lat="43.51307" lon="6.37301">
        <ele>288</ele>
        <time>2022-01-21T14:32:54.000Z</time>
      </trkpt>
      <trkpt lat="43.51307" lon="6.37301">
        <ele>288</ele>
        <time>2022-01-21T14:32:55.000Z</time>
      </trkpt>
      <trkpt lat="43.51308" lon="6.37301">
        <ele>288</ele>
        <time>2022-01-21T14:32:56.000Z</time>
      </trkpt>
      <trkpt lat="43.51308" lon="6.37301">
        <ele>288</ele>
        <time>2022-01-21T14:32:57.000Z</time>
      </trkpt>
      <trkpt lat="43.51308" lon="6.37301">
        <ele>288</ele>
        <time>2022-01-21T14:32:58.000Z</time>
      </trkpt>
      <trkpt lat="43.51308" lon="6.37301">
        <ele>288</ele>
        <time>2022-01-21T14:32:59.000Z</time>
      </trkpt>
      <trkpt lat="43.51308" lon="6.37301">
        <ele>288</ele>
        <time>2022-01-21T14:33:00.000Z</time>
      </trkpt>
      <trkpt lat="43.51308" lon="6.37301">
        <ele>288</ele>
        <time>2022-01-21T14:33:01.000Z</time>
      </trkpt>
      <trkpt lat="43.51308" lon="6.37301">
        <ele>288</ele>
        <time>2022-01-21T14:33:02.000Z</time>
      </trkpt>
      <trkpt lat="43.51308" lon="6.37301">
        <ele>288</ele>
        <time>2022-01-21T14:33:03.000Z</time>
      </trkpt>
      <trkpt lat="43.51308" lon="6.37301">
        <ele>288</ele>
        <time>2022-01-21T14:33:04.000Z</time>
      </trkpt>
      <trkpt lat="43.51308" lon="6.37301">
        <ele>288</ele>
        <time>2022-01-21T14:33:05.000Z</time>
      </trkpt>
      <trkpt lat="43.51308" lon="6.37301">
        <ele>288</ele>
        <time>2022-01-21T14:33:06.000Z</time>
      </trkpt>
      <trkpt lat="43.51308" lon="6.37301">
        <ele>288</ele>
        <time>2022-01-21T14:33:07.000Z</time>
      </trkpt>
      <trkpt lat="43.51308" lon="6.37301">
        <ele>288</ele>
        <time>2022-01-21T14:33:08.000Z</time>
      </trkpt>
      <trkpt lat="43.51308" lon="6.37301">
        <ele>288</ele>
        <time>2022-01-21T14:33:09.000Z</time>
      </trkpt>
      <trkpt lat="43.51308" lon="6.37301">
        <ele>288</ele>
        <time>2022-01-21T14:33:10.000Z</time>
      </trkpt>
      <trkpt lat="43.51308" lon="6.37301">
        <ele>288</ele>
        <time>2022-01-21T14:33:11.000Z</time>
      </trkpt>
      <trkpt lat="43.51308" lon="6.37301">
        <ele>288</ele>
        <time>2022-01-21T14:33:12.000Z</time>
      </trkpt>
      <trkpt lat="43.51308" lon="6.37301">
        <ele>288</ele>
        <time>2022-01-21T14:33:13.000Z</time>
      </trkpt>
      <trkpt lat="43.51308" lon="6.373">
        <ele>288</ele>
        <time>2022-01-21T14:33:14.000Z</time>
      </trkpt>
      <trkpt lat="43.51308" lon="6.373">
        <ele>288</ele>
        <time>2022-01-21T14:33:15.000Z</time>
      </trkpt>
      <trkpt lat="43.51308" lon="6.373">
        <ele>288</ele>
        <time>2022-01-21T14:33:16.000Z</time>
      </trkpt>
      <trkpt lat="43.51308" lon="6.373">
        <ele>288</ele>
        <time>2022-01-21T14:33:17.000Z</time>
      </trkpt>
      <trkpt lat="43.51308" lon="6.37301">
        <ele>288</ele>
        <time>2022-01-21T14:33:18.000Z</time>
      </trkpt>
      <trkpt lat="43.51308" lon="6.37301">
        <ele>288</ele>
        <time>2022-01-21T14:33:19.000Z</time>
      </trkpt>
      <trkpt lat="43.51308" lon="6.37301">
        <ele>288</ele>
        <time>2022-01-21T14:33:20.000Z</time>
      </trkpt>
      <trkpt lat="43.51308" lon="6.37301">
        <ele>288</ele>
        <time>2022-01-21T14:33:21.000Z</time>
      </trkpt>
      <trkpt lat="43.51308" lon="6.37301">
        <ele>288</ele>
        <time>2022-01-21T14:33:22.000Z</time>
      </trkpt>
      <trkpt lat="43.51308" lon="6.37301">
        <ele>288</ele>
        <time>2022-01-21T14:33:23.000Z</time>
      </trkpt>
      <trkpt lat="43.51308" lon="6.373">
        <ele>288</ele>
        <time>2022-01-21T14:33:24.000Z</time>
      </trkpt>
      <trkpt lat="43.51308" lon="6.373">
        <ele>288</ele>
        <time>2022-01-21T14:33:25.000Z</time>
      </trkpt>
      <trkpt lat="43.51308" lon="6.373">
        <ele>288</ele>
        <time>2022-01-21T14:33:26.000Z</time>
      </trkpt>
      <trkpt lat="43.51308" lon="6.373">
        <ele>288</ele>
        <time>2022-01-21T14:33:27.000Z</time>
      </trkpt>
      <trkpt lat="43.51308" lon="6.373">
        <ele>288</ele>
        <time>2022-01-21T14:33:28.000Z</time>
      </trkpt>
      <trkpt lat="43.51308" lon="6.373">
        <ele>288</ele>
        <time>2022-01-21T14:33:29.000Z</time>
      </trkpt>
      <trkpt lat="43.51308" lon="6.373">
        <ele>288</ele>
        <time>2022-01-21T14:33:30.000Z</time>
      </trkpt>
      <trkpt lat="43.51308" lon="6.373">
        <ele>288</ele>
        <time>2022-01-21T14:33:31.000Z</time>
      </trkpt>
      <trkpt lat="43.51308" lon="6.373">
        <ele>288</ele>
        <time>2022-01-21T14:33:32.000Z</time>
      </trkpt>
      <trkpt lat="43.51308" lon="6.373">
        <ele>288</ele>
        <time>2022-01-21T14:33:33.000Z</time>
      </trkpt>
      <trkpt lat="43.51308" lon="6.373">
        <ele>288</ele>
        <time>2022-01-21T14:33:34.000Z</time>
      </trkpt>
      <trkpt lat="43.51308" lon="6.373">
        <ele>288</ele>
        <time>2022-01-21T14:33:35.000Z</time>
      </trkpt>
      <trkpt lat="43.51308" lon="6.373">
        <ele>288</ele>
        <time>2022-01-21T14:33:36.000Z</time>
      </trkpt>
      <trkpt lat="43.51308" lon="6.373">
        <ele>288</ele>
        <time>2022-01-21T14:33:37.000Z</time>
      </trkpt>
      <trkpt lat="43.51308" lon="6.373">
        <ele>288</ele>
        <time>2022-01-21T14:33:38.000Z</time>
      </trkpt>
      <trkpt lat="43.51308" lon="6.373">
        <ele>288</ele>
        <time>2022-01-21T14:33:39.000Z</time>
      </trkpt>
      <trkpt lat="43.51308" lon="6.373">
        <ele>288</ele>
        <time>2022-01-21T14:33:40.000Z</time>
      </trkpt>
      <trkpt lat="43.51308" lon="6.373">
        <ele>288</ele>
        <time>2022-01-21T14:33:41.000Z</time>
      </trkpt>
      <trkpt lat="43.51308" lon="6.373">
        <ele>288</ele>
        <time>2022-01-21T14:33:42.000Z</time>
      </trkpt>
      <trkpt lat="43.51308" lon="6.373">
        <ele>288</ele>
        <time>2022-01-21T14:33:43.000Z</time>
      </trkpt>
      <trkpt lat="43.51308" lon="6.373">
        <ele>288</ele>
        <time>2022-01-21T14:33:44.000Z</time>
      </trkpt>
      <trkpt lat="43.51308" lon="6.373">
        <ele>288</ele>
        <time>2022-01-21T14:33:45.000Z</time>
      </trkpt>
      <trkpt lat="43.51308" lon="6.373">
        <ele>288</ele>
        <time>2022-01-21T14:33:46.000Z</time>
      </trkpt>
      <trkpt lat="43.51308" lon="6.373">
        <ele>288</ele>
        <time>2022-01-21T14:33:47.000Z</time>
      </trkpt>
      <trkpt lat="43.51308" lon="6.373">
        <ele>288</ele>
        <time>2022-01-21T14:33:48.000Z</time>
      </trkpt>
      <trkpt lat="43.51308" lon="6.373">
        <ele>288</ele>
        <time>2022-01-21T14:33:49.000Z</time>
      </trkpt>
      <trkpt lat="43.51308" lon="6.373">
        <ele>288</ele>
        <time>2022-01-21T14:33:50.000Z</time>
      </trkpt>
      <trkpt lat="43.51308" lon="6.373">
        <ele>288</ele>
        <time>2022-01-21T14:33:51.000Z</time>
      </trkpt>
      <trkpt lat="43.51308" lon="6.373">
        <ele>288</ele>
        <time>2022-01-21T14:33:52.000Z</time>
      </trkpt>
      <trkpt lat="43.51308" lon="6.373">
        <ele>288</ele>
        <time>2022-01-21T14:33:53.000Z</time>
      </trkpt>
      <trkpt lat="43.51308" lon="6.373">
        <ele>288</ele>
        <time>2022-01-21T14:33:54.000Z</time>
      </trkpt>
      <trkpt lat="43.51308" lon="6.373">
        <ele>288</ele>
        <time>2022-01-21T14:33:55.000Z</time>
      </trkpt>
      <trkpt lat="43.51308" lon="6.373">
        <ele>288</ele>
        <time>2022-01-21T14:33:56.000Z</time>
      </trkpt>
      <trkpt lat="43.51308" lon="6.373">
        <ele>288</ele>
        <time>2022-01-21T14:33:57.000Z</time>
      </trkpt>
      <trkpt lat="43.51308" lon="6.373">
        <ele>288</ele>
        <time>2022-01-21T14:33:58.000Z</time>
      </trkpt>
      <trkpt lat="43.51308" lon="6.373">
        <ele>288</ele>
        <time>2022-01-21T14:33:59.000Z</time>
      </trkpt>
      <trkpt lat="43.51308" lon="6.373">
        <ele>288</ele>
        <time>2022-01-21T14:34:00.000Z</time>
      </trkpt>
      <trkpt lat="43.51308" lon="6.373">
        <ele>288</ele>
        <time>2022-01-21T14:34:01.000Z</time>
      </trkpt>
      <trkpt lat="43.51308" lon="6.373">
        <ele>288</ele>
        <time>2022-01-21T14:34:02.000Z</time>
      </trkpt>
      <trkpt lat="43.51308" lon="6.373">
        <ele>288</ele>
        <time>2022-01-21T14:34:03.000Z</time>
      </trkpt>
      <trkpt lat="43.51308" lon="6.373">
        <ele>288</ele>
        <time>2022-01-21T14:34:04.000Z</time>
      </trkpt>
      <trkpt lat="43.51308" lon="6.373">
        <ele>288</ele>
        <time>2022-01-21T14:34:05.000Z</time>
      </trkpt>
      <trkpt lat="43.51308" lon="6.373">
        <ele>288</ele>
        <time>2022-01-21T14:34:06.000Z</time>
      </trkpt>
      <trkpt lat="43.51308" lon="6.373">
        <ele>288</ele>
        <time>2022-01-21T14:34:07.000Z</time>
      </trkpt>
      <trkpt lat="43.51308" lon="6.373">
        <ele>288</ele>
        <time>2022-01-21T14:34:08.000Z</time>
      </trkpt>
      <trkpt lat="43.51308" lon="6.373">
        <ele>288</ele>
        <time>2022-01-21T14:34:09.000Z</time>
      </trkpt>
      <trkpt lat="43.51308" lon="6.373">
        <ele>288</ele>
        <time>2022-01-21T14:34:10.000Z</time>
      </trkpt>
      <trkpt lat="43.51308" lon="6.373">
        <ele>288</ele>
        <time>2022-01-21T14:34:11.000Z</time>
      </trkpt>
      <trkpt lat="43.51308" lon="6.373">
        <ele>288</ele>
        <time>2022-01-21T14:34:12.000Z</time>
      </trkpt>
      <trkpt lat="43.51308" lon="6.373">
        <ele>288</ele>
        <time>2022-01-21T14:34:13.000Z</time>
      </trkpt>
      <trkpt lat="43.51308" lon="6.373">
        <ele>288</ele>
        <time>2022-01-21T14:34:14.000Z</time>
      </trkpt>
      <trkpt lat="43.51308" lon="6.373">
        <ele>288</ele>
        <time>2022-01-21T14:34:15.000Z</time>
      </trkpt>
      <trkpt lat="43.51308" lon="6.373">
        <ele>288</ele>
        <time>2022-01-21T14:34:16.000Z</time>
      </trkpt>
      <trkpt lat="43.51308" lon="6.373">
        <ele>288</ele>
        <time>2022-01-21T14:34:17.000Z</time>
      </trkpt>
      <trkpt lat="43.51308" lon="6.373">
        <ele>288</ele>
        <time>2022-01-21T14:34:18.000Z</time>
      </trkpt>
      <trkpt lat="43.51308" lon="6.373">
        <ele>288</ele>
        <time>2022-01-21T14:34:19.000Z</time>
      </trkpt>
      <trkpt lat="43.51308" lon="6.373">
        <ele>288</ele>
        <time>2022-01-21T14:34:20.000Z</time>
      </trkpt>
      <trkpt lat="43.51308" lon="6.373">
        <ele>288</ele>
        <time>2022-01-21T14:34:21.000Z</time>
      </trkpt>
      <trkpt lat="43.51308" lon="6.373">
        <ele>288</ele>
        <time>2022-01-21T14:34:22.000Z</time>
      </trkpt>
      <trkpt lat="43.51308" lon="6.373">
        <ele>288</ele>
        <time>2022-01-21T14:34:23.000Z</time>
      </trkpt>
      <trkpt lat="43.51308" lon="6.373">
        <ele>288</ele>
        <time>2022-01-21T14:34:24.000Z</time>
      </trkpt>
      <trkpt lat="43.51308" lon="6.373">
        <ele>288</ele>
        <time>2022-01-21T14:34:25.000Z</time>
      </trkpt>
      <trkpt lat="43.51308" lon="6.373">
        <ele>288</ele>
        <time>2022-01-21T14:34:26.000Z</time>
      </trkpt>
      <trkpt lat="43.51308" lon="6.373">
        <ele>288</ele>
        <time>2022-01-21T14:34:27.000Z</time>
      </trkpt>
      <trkpt lat="43.51307" lon="6.373">
        <ele>288</ele>
        <time>2022-01-21T14:34:28.000Z</time>
      </trkpt>
      <trkpt lat="43.51307" lon="6.37299">
        <ele>288</ele>
        <time>2022-01-21T14:34:29.000Z</time>
      </trkpt>
      <trkpt lat="43.51306" lon="6.37299">
        <ele>288</ele>
        <time>2022-01-21T14:34:30.000Z</time>
      </trkpt>
      <trkpt lat="43.51306" lon="6.37298">
        <ele>288</ele>
        <time>2022-01-21T14:34:31.000Z</time>
      </trkpt>
      <trkpt lat="43.51306" lon="6.37298">
        <ele>288</ele>
        <time>2022-01-21T14:34:32.000Z</time>
      </trkpt>
      <trkpt lat="43.51305" lon="6.37298">
        <ele>288</ele>
        <time>2022-01-21T14:34:33.000Z</time>
      </trkpt>
      <trkpt lat="43.51305" lon="6.37298">
        <ele>288</ele>
        <time>2022-01-21T14:34:34.000Z</time>
      </trkpt>
      <trkpt lat="43.51305" lon="6.37298">
        <ele>288</ele>
        <time>2022-01-21T14:34:35.000Z</time>
      </trkpt>
      <trkpt lat="43.51305" lon="6.37298">
        <ele>288</ele>
        <time>2022-01-21T14:34:36.000Z</time>
      </trkpt>
      <trkpt lat="43.51305" lon="6.37298">
        <ele>288</ele>
        <time>2022-01-21T14:34:37.000Z</time>
      </trkpt>
      <trkpt lat="43.51304" lon="6.37298">
        <ele>288</ele>
        <time>2022-01-21T14:34:38.000Z</time>
      </trkpt>
      <trkpt lat="43.51304" lon="6.37298">
        <ele>288</ele>
        <time>2022-01-21T14:34:39.000Z</time>
      </trkpt>
      <trkpt lat="43.51304" lon="6.37298">
        <ele>288</ele>
        <time>2022-01-21T14:34:40.000Z</time>
      </trkpt>
      <trkpt lat="43.51304" lon="6.37298">
        <ele>288</ele>
        <time>2022-01-21T14:34:41.000Z</time>
      </trkpt>
      <trkpt lat="43.51304" lon="6.37298">
        <ele>288</ele>
        <time>2022-01-21T14:34:42.000Z</time>
      </trkpt>
      <trkpt lat="43.51304" lon="6.37298">
        <ele>288</ele>
        <time>2022-01-21T14:34:43.000Z</time>
      </trkpt>
      <trkpt lat="43.51304" lon="6.37298">
        <ele>288</ele>
        <time>2022-01-21T14:34:44.000Z</time>
      </trkpt>
      <trkpt lat="43.51304" lon="6.37297">
        <ele>288</ele>
        <time>2022-01-21T14:34:45.000Z</time>
      </trkpt>
      <trkpt lat="43.51304" lon="6.37296">
        <ele>288</ele>
        <time>2022-01-21T14:34:46.000Z</time>
      </trkpt>
      <trkpt lat="43.51304" lon="6.37296">
        <ele>288</ele>
        <time>2022-01-21T14:34:47.000Z</time>
      </trkpt>
      <trkpt lat="43.51304" lon="6.37295">
        <ele>288</ele>
        <time>2022-01-21T14:34:48.000Z</time>
      </trkpt>
      <trkpt lat="43.51304" lon="6.37294">
        <ele>288</ele>
        <time>2022-01-21T14:34:49.000Z</time>
      </trkpt>
      <trkpt lat="43.51304" lon="6.37293">
        <ele>288</ele>
        <time>2022-01-21T14:34:50.000Z</time>
      </trkpt>
      <trkpt lat="43.51303" lon="6.37292">
        <ele>288</ele>
        <time>2022-01-21T14:34:51.000Z</time>
      </trkpt>
      <trkpt lat="43.51303" lon="6.37291">
        <ele>288</ele>
        <time>2022-01-21T14:34:52.000Z</time>
      </trkpt>
      <trkpt lat="43.51303" lon="6.37289">
        <ele>288</ele>
        <time>2022-01-21T14:34:53.000Z</time>
      </trkpt>
      <trkpt lat="43.51302" lon="6.37288">
        <ele>288</ele>
        <time>2022-01-21T14:34:54.000Z</time>
      </trkpt>
      <trkpt lat="43.51302" lon="6.37286">
        <ele>288</ele>
        <time>2022-01-21T14:34:55.000Z</time>
      </trkpt>
      <trkpt lat="43.51302" lon="6.37285">
        <ele>288</ele>
        <time>2022-01-21T14:34:56.000Z</time>
      </trkpt>
      <trkpt lat="43.51303" lon="6.37283">
        <ele>288</ele>
        <time>2022-01-21T14:34:57.000Z</time>
      </trkpt>
      <trkpt lat="43.51303" lon="6.37282">
        <ele>288</ele>
        <time>2022-01-21T14:34:58.000Z</time>
      </trkpt>
      <trkpt lat="43.51303" lon="6.3728">
        <ele>288</ele>
        <time>2022-01-21T14:34:59.000Z</time>
      </trkpt>
      <trkpt lat="43.51303" lon="6.37279">
        <ele>288</ele>
        <time>2022-01-21T14:35:00.000Z</time>
      </trkpt>
      <trkpt lat="43.51304" lon="6.37278">
        <ele>289</ele>
        <time>2022-01-21T14:35:01.000Z</time>
      </trkpt>
      <trkpt lat="43.51304" lon="6.37277">
        <ele>289</ele>
        <time>2022-01-21T14:35:02.000Z</time>
      </trkpt>
      <trkpt lat="43.51304" lon="6.37276">
        <ele>289</ele>
        <time>2022-01-21T14:35:03.000Z</time>
      </trkpt>
      <trkpt lat="43.51304" lon="6.37275">
        <ele>289</ele>
        <time>2022-01-21T14:35:04.000Z</time>
      </trkpt>
      <trkpt lat="43.51304" lon="6.37275">
        <ele>289</ele>
        <time>2022-01-21T14:35:05.000Z</time>
      </trkpt>
      <trkpt lat="43.51304" lon="6.37275">
        <ele>289</ele>
        <time>2022-01-21T14:35:06.000Z</time>
      </trkpt>
      <trkpt lat="43.51304" lon="6.37275">
        <ele>289</ele>
        <time>2022-01-21T14:35:07.000Z</time>
      </trkpt>
      <trkpt lat="43.51304" lon="6.37275">
        <ele>289</ele>
        <time>2022-01-21T14:35:08.000Z</time>
      </trkpt>
      <trkpt lat="43.51305" lon="6.37274">
        <ele>289</ele>
        <time>2022-01-21T14:35:09.000Z</time>
      </trkpt>
      <trkpt lat="43.51305" lon="6.37273">
        <ele>289</ele>
        <time>2022-01-21T14:35:10.000Z</time>
      </trkpt>
      <trkpt lat="43.51305" lon="6.37273">
        <ele>289</ele>
        <time>2022-01-21T14:35:11.000Z</time>
      </trkpt>
      <trkpt lat="43.51305" lon="6.37273">
        <ele>289</ele>
        <time>2022-01-21T14:35:12.000Z</time>
      </trkpt>
      <trkpt lat="43.51305" lon="6.37273">
        <ele>289</ele>
        <time>2022-01-21T14:35:13.000Z</time>
      </trkpt>
      <trkpt lat="43.51305" lon="6.37273">
        <ele>289</ele>
        <time>2022-01-21T14:35:14.000Z</time>
      </trkpt>
      <trkpt lat="43.51305" lon="6.37273">
        <ele>289</ele>
        <time>2022-01-21T14:35:15.000Z</time>
      </trkpt>
      <trkpt lat="43.51305" lon="6.37273">
        <ele>289</ele>
        <time>2022-01-21T14:35:16.000Z</time>
      </trkpt>
      <trkpt lat="43.51305" lon="6.37273">
        <ele>289</ele>
        <time>2022-01-21T14:35:17.000Z</time>
      </trkpt>
      <trkpt lat="43.51305" lon="6.37273">
        <ele>289</ele>
        <time>2022-01-21T14:35:18.000Z</time>
      </trkpt>
      <trkpt lat="43.51305" lon="6.37273">
        <ele>289</ele>
        <time>2022-01-21T14:35:19.000Z</time>
      </trkpt>
      <trkpt lat="43.51305" lon="6.37273">
        <ele>289</ele>
        <time>2022-01-21T14:35:20.000Z</time>
      </trkpt>
      <trkpt lat="43.51305" lon="6.37273">
        <ele>289</ele>
        <time>2022-01-21T14:35:21.000Z</time>
      </trkpt>
      <trkpt lat="43.51305" lon="6.37273">
        <ele>289</ele>
        <time>2022-01-21T14:35:22.000Z</time>
      </trkpt>
      <trkpt lat="43.51302" lon="6.37271">
        <ele>289</ele>
        <time>2022-01-21T14:35:23.000Z</time>
      </trkpt>
      <trkpt lat="43.51301" lon="6.37271">
        <ele>289</ele>
        <time>2022-01-21T14:35:24.000Z</time>
      </trkpt>
      <trkpt lat="43.51301" lon="6.3727">
        <ele>289</ele>
        <time>2022-01-21T14:35:25.000Z</time>
      </trkpt>
      <trkpt lat="43.51301" lon="6.37269">
        <ele>289</ele>
        <time>2022-01-21T14:35:26.000Z</time>
      </trkpt>
      <trkpt lat="43.51301" lon="6.37268">
        <ele>288</ele>
        <time>2022-01-21T14:35:27.000Z</time>
      </trkpt>
      <trkpt lat="43.51301" lon="6.37267">
        <ele>288</ele>
        <time>2022-01-21T14:35:28.000Z</time>
      </trkpt>
      <trkpt lat="43.513" lon="6.37267">
        <ele>288</ele>
        <time>2022-01-21T14:35:29.000Z</time>
      </trkpt>
      <trkpt lat="43.513" lon="6.37266">
        <ele>288</ele>
        <time>2022-01-21T14:35:30.000Z</time>
      </trkpt>
      <trkpt lat="43.513" lon="6.37265">
        <ele>288</ele>
        <time>2022-01-21T14:35:31.000Z</time>
      </trkpt>
      <trkpt lat="43.513" lon="6.37264">
        <ele>288</ele>
        <time>2022-01-21T14:35:32.000Z</time>
      </trkpt>
      <trkpt lat="43.513" lon="6.37262">
        <ele>288</ele>
        <time>2022-01-21T14:35:33.000Z</time>
      </trkpt>
      <trkpt lat="43.51301" lon="6.37261">
        <ele>288</ele>
        <time>2022-01-21T14:35:34.000Z</time>
      </trkpt>
      <trkpt lat="43.51301" lon="6.3726">
        <ele>288</ele>
        <time>2022-01-21T14:35:35.000Z</time>
      </trkpt>
      <trkpt lat="43.51301" lon="6.37259">
        <ele>288</ele>
        <time>2022-01-21T14:35:36.000Z</time>
      </trkpt>
      <trkpt lat="43.51301" lon="6.37258">
        <ele>288</ele>
        <time>2022-01-21T14:35:37.000Z</time>
      </trkpt>
      <trkpt lat="43.51301" lon="6.37257">
        <ele>288</ele>
        <time>2022-01-21T14:35:38.000Z</time>
      </trkpt>
      <trkpt lat="43.51301" lon="6.37256">
        <ele>288</ele>
        <time>2022-01-21T14:35:39.000Z</time>
      </trkpt>
      <trkpt lat="43.51301" lon="6.37256">
        <ele>288</ele>
        <time>2022-01-21T14:35:40.000Z</time>
      </trkpt>
      <trkpt lat="43.51301" lon="6.37255">
        <ele>288</ele>
        <time>2022-01-21T14:35:41.000Z</time>
      </trkpt>
      <trkpt lat="43.51301" lon="6.37255">
        <ele>288</ele>
        <time>2022-01-21T14:35:42.000Z</time>
      </trkpt>
      <trkpt lat="43.51301" lon="6.37255">
        <ele>288</ele>
        <time>2022-01-21T14:35:43.000Z</time>
      </trkpt>
      <trkpt lat="43.51301" lon="6.37254">
        <ele>288</ele>
        <time>2022-01-21T14:35:44.000Z</time>
      </trkpt>
      <trkpt lat="43.51301" lon="6.37254">
        <ele>288</ele>
        <time>2022-01-21T14:35:45.000Z</time>
      </trkpt>
      <trkpt lat="43.51301" lon="6.37254">
        <ele>288</ele>
        <time>2022-01-21T14:35:46.000Z</time>
      </trkpt>
      <trkpt lat="43.51301" lon="6.37254">
        <ele>288</ele>
        <time>2022-01-21T14:35:47.000Z</time>
      </trkpt>
      <trkpt lat="43.51301" lon="6.37254">
        <ele>288</ele>
        <time>2022-01-21T14:35:48.000Z</time>
      </trkpt>
      <trkpt lat="43.51301" lon="6.37254">
        <ele>288</ele>
        <time>2022-01-21T14:35:49.000Z</time>
      </trkpt>
      <trkpt lat="43.51301" lon="6.37254">
        <ele>288</ele>
        <time>2022-01-21T14:35:50.000Z</time>
      </trkpt>
      <trkpt lat="43.51301" lon="6.37253">
        <ele>288</ele>
        <time>2022-01-21T14:35:51.000Z</time>
      </trkpt>
      <trkpt lat="43.51301" lon="6.37253">
        <ele>288</ele>
        <time>2022-01-21T14:35:52.000Z</time>
      </trkpt>
      <trkpt lat="43.51302" lon="6.37253">
        <ele>288</ele>
        <time>2022-01-21T14:35:53.000Z</time>
      </trkpt>
      <trkpt lat="43.51302" lon="6.37252">
        <ele>288</ele>
        <time>2022-01-21T14:35:54.000Z</time>
      </trkpt>
      <trkpt lat="43.51302" lon="6.37251">
        <ele>288</ele>
        <time>2022-01-21T14:35:55.000Z</time>
      </trkpt>
      <trkpt lat="43.51302" lon="6.3725">
        <ele>288</ele>
        <time>2022-01-21T14:35:56.000Z</time>
      </trkpt>
      <trkpt lat="43.51302" lon="6.37249">
        <ele>288</ele>
        <time>2022-01-21T14:35:57.000Z</time>
      </trkpt>
      <trkpt lat="43.51303" lon="6.37248">
        <ele>288</ele>
        <time>2022-01-21T14:35:58.000Z</time>
      </trkpt>
      <trkpt lat="43.51303" lon="6.37247">
        <ele>288</ele>
        <time>2022-01-21T14:35:59.000Z</time>
      </trkpt>
      <trkpt lat="43.51303" lon="6.37247">
        <ele>288</ele>
        <time>2022-01-21T14:36:00.000Z</time>
      </trkpt>
      <trkpt lat="43.51303" lon="6.37247">
        <ele>288</ele>
        <time>2022-01-21T14:36:01.000Z</time>
      </trkpt>
      <trkpt lat="43.51303" lon="6.37247">
        <ele>288</ele>
        <time>2022-01-21T14:36:02.000Z</time>
      </trkpt>
      <trkpt lat="43.51303" lon="6.37247">
        <ele>288</ele>
        <time>2022-01-21T14:36:03.000Z</time>
      </trkpt>
      <trkpt lat="43.51303" lon="6.37247">
        <ele>288</ele>
        <time>2022-01-21T14:36:04.000Z</time>
      </trkpt>
      <trkpt lat="43.51303" lon="6.37247">
        <ele>289</ele>
        <time>2022-01-21T14:36:05.000Z</time>
      </trkpt>
      <trkpt lat="43.51303" lon="6.37247">
        <ele>289</ele>
        <time>2022-01-21T14:36:06.000Z</time>
      </trkpt>
      <trkpt lat="43.51303" lon="6.37247">
        <ele>289</ele>
        <time>2022-01-21T14:36:07.000Z</time>
      </trkpt>
      <trkpt lat="43.51303" lon="6.37247">
        <ele>289</ele>
        <time>2022-01-21T14:36:08.000Z</time>
      </trkpt>
      <trkpt lat="43.51303" lon="6.37247">
        <ele>289</ele>
        <time>2022-01-21T14:36:09.000Z</time>
      </trkpt>
      <trkpt lat="43.51303" lon="6.37247">
        <ele>289</ele>
        <time>2022-01-21T14:36:10.000Z</time>
      </trkpt>
      <trkpt lat="43.51303" lon="6.37247">
        <ele>289</ele>
        <time>2022-01-21T14:36:11.000Z</time>
      </trkpt>
      <trkpt lat="43.51303" lon="6.37247">
        <ele>289</ele>
        <time>2022-01-21T14:36:12.000Z</time>
      </trkpt>
      <trkpt lat="43.51303" lon="6.37247">
        <ele>289</ele>
        <time>2022-01-21T14:36:13.000Z</time>
      </trkpt>
      <trkpt lat="43.51303" lon="6.37247">
        <ele>289</ele>
        <time>2022-01-21T14:36:14.000Z</time>
      </trkpt>
      <trkpt lat="43.51303" lon="6.37247">
        <ele>289</ele>
        <time>2022-01-21T14:36:15.000Z</time>
      </trkpt>
      <trkpt lat="43.51303" lon="6.37247">
        <ele>289</ele>
        <time>2022-01-21T14:36:16.000Z</time>
      </trkpt>
      <trkpt lat="43.51303" lon="6.37247">
        <ele>289</ele>
        <time>2022-01-21T14:36:17.000Z</time>
      </trkpt>
      <trkpt lat="43.51303" lon="6.37247">
        <ele>289</ele>
        <time>2022-01-21T14:36:18.000Z</time>
      </trkpt>
      <trkpt lat="43.51303" lon="6.37247">
        <ele>289</ele>
        <time>2022-01-21T14:36:19.000Z</time>
      </trkpt>
      <trkpt lat="43.51303" lon="6.37247">
        <ele>289</ele>
        <time>2022-01-21T14:36:20.000Z</time>
      </trkpt>
      <trkpt lat="43.51303" lon="6.37247">
        <ele>289</ele>
        <time>2022-01-21T14:36:21.000Z</time>
      </trkpt>
      <trkpt lat="43.51303" lon="6.37247">
        <ele>289</ele>
        <time>2022-01-21T14:36:22.000Z</time>
      </trkpt>
      <trkpt lat="43.51303" lon="6.37247">
        <ele>289</ele>
        <time>2022-01-21T14:36:23.000Z</time>
      </trkpt>
      <trkpt lat="43.51303" lon="6.37247">
        <ele>289</ele>
        <time>2022-01-21T14:36:24.000Z</time>
      </trkpt>
      <trkpt lat="43.51303" lon="6.37247">
        <ele>289</ele>
        <time>2022-01-21T14:36:25.000Z</time>
      </trkpt>
      <trkpt lat="43.51303" lon="6.37247">
        <ele>289</ele>
        <time>2022-01-21T14:36:26.000Z</time>
      </trkpt>
      <trkpt lat="43.51303" lon="6.37247">
        <ele>289</ele>
        <time>2022-01-21T14:36:27.000Z</time>
      </trkpt>
      <trkpt lat="43.51303" lon="6.37247">
        <ele>289</ele>
        <time>2022-01-21T14:36:28.000Z</time>
      </trkpt>
      <trkpt lat="43.51303" lon="6.37247">
        <ele>289</ele>
        <time>2022-01-21T14:36:29.000Z</time>
      </trkpt>
      <trkpt lat="43.51303" lon="6.37247">
        <ele>289</ele>
        <time>2022-01-21T14:36:30.000Z</time>
      </trkpt>
      <trkpt lat="43.51303" lon="6.37247">
        <ele>289</ele>
        <time>2022-01-21T14:36:31.000Z</time>
      </trkpt>
      <trkpt lat="43.51303" lon="6.37247">
        <ele>289</ele>
        <time>2022-01-21T14:36:32.000Z</time>
      </trkpt>
      <trkpt lat="43.51303" lon="6.37247">
        <ele>289</ele>
        <time>2022-01-21T14:36:33.000Z</time>
      </trkpt>
      <trkpt lat="43.51303" lon="6.37247">
        <ele>289</ele>
        <time>2022-01-21T14:36:34.000Z</time>
      </trkpt>
      <trkpt lat="43.51303" lon="6.37247">
        <ele>289</ele>
        <time>2022-01-21T14:36:35.000Z</time>
      </trkpt>
      <trkpt lat="43.51303" lon="6.37247">
        <ele>289</ele>
        <time>2022-01-21T14:36:36.000Z</time>
      </trkpt>
      <trkpt lat="43.51303" lon="6.37247">
        <ele>289</ele>
        <time>2022-01-21T14:36:37.000Z</time>
      </trkpt>
      <trkpt lat="43.51303" lon="6.37247">
        <ele>289</ele>
        <time>2022-01-21T14:36:38.000Z</time>
      </trkpt>
      <trkpt lat="43.51303" lon="6.37247">
        <ele>289</ele>
        <time>2022-01-21T14:36:39.000Z</time>
      </trkpt>
      <trkpt lat="43.51303" lon="6.37247">
        <ele>289</ele>
        <time>2022-01-21T14:36:40.000Z</time>
      </trkpt>
      <trkpt lat="43.51303" lon="6.37247">
        <ele>289</ele>
        <time>2022-01-21T14:36:41.000Z</time>
      </trkpt>
      <trkpt lat="43.51303" lon="6.37247">
        <ele>289</ele>
        <time>2022-01-21T14:36:42.000Z</time>
      </trkpt>
      <trkpt lat="43.51303" lon="6.37247">
        <ele>289</ele>
        <time>2022-01-21T14:36:43.000Z</time>
      </trkpt>
      <trkpt lat="43.51303" lon="6.37247">
        <ele>289</ele>
        <time>2022-01-21T14:36:44.000Z</time>
      </trkpt>
      <trkpt lat="43.51303" lon="6.37247">
        <ele>289</ele>
        <time>2022-01-21T14:36:45.000Z</time>
      </trkpt>
      <trkpt lat="43.51303" lon="6.37247">
        <ele>289</ele>
        <time>2022-01-21T14:36:46.000Z</time>
      </trkpt>
      <trkpt lat="43.51303" lon="6.37247">
        <ele>289</ele>
        <time>2022-01-21T14:36:47.000Z</time>
      </trkpt>
      <trkpt lat="43.51303" lon="6.37247">
        <ele>289</ele>
        <time>2022-01-21T14:36:48.000Z</time>
      </trkpt>
      <trkpt lat="43.51303" lon="6.37247">
        <ele>289</ele>
        <time>2022-01-21T14:36:49.000Z</time>
      </trkpt>
      <trkpt lat="43.51303" lon="6.37247">
        <ele>289</ele>
        <time>2022-01-21T14:36:50.000Z</time>
      </trkpt>
      <trkpt lat="43.51303" lon="6.37247">
        <ele>289</ele>
        <time>2022-01-21T14:36:51.000Z</time>
      </trkpt>
      <trkpt lat="43.51303" lon="6.37247">
        <ele>289</ele>
        <time>2022-01-21T14:36:52.000Z</time>
      </trkpt>
      <trkpt lat="43.51303" lon="6.37247">
        <ele>289</ele>
        <time>2022-01-21T14:36:53.000Z</time>
      </trkpt>
      <trkpt lat="43.51303" lon="6.37247">
        <ele>289</ele>
        <time>2022-01-21T14:36:54.000Z</time>
      </trkpt>
      <trkpt lat="43.51303" lon="6.37247">
        <ele>289</ele>
        <time>2022-01-21T14:36:55.000Z</time>
      </trkpt>
      <trkpt lat="43.51303" lon="6.37247">
        <ele>289</ele>
        <time>2022-01-21T14:36:56.000Z</time>
      </trkpt>
      <trkpt lat="43.51304" lon="6.37242">
        <ele>289</ele>
        <time>2022-01-21T14:36:57.000Z</time>
      </trkpt>
      <trkpt lat="43.51303" lon="6.37242">
        <ele>289</ele>
        <time>2022-01-21T14:36:58.000Z</time>
      </trkpt>
      <trkpt lat="43.51303" lon="6.37242">
        <ele>289</ele>
        <time>2022-01-21T14:36:59.000Z</time>
      </trkpt>
      <trkpt lat="43.51303" lon="6.37242">
        <ele>289</ele>
        <time>2022-01-21T14:37:00.000Z</time>
      </trkpt>
      <trkpt lat="43.51303" lon="6.37242">
        <ele>289</ele>
        <time>2022-01-21T14:37:01.000Z</time>
      </trkpt>
      <trkpt lat="43.51302" lon="6.37242">
        <ele>289</ele>
        <time>2022-01-21T14:37:02.000Z</time>
      </trkpt>
      <trkpt lat="43.51302" lon="6.37241">
        <ele>289</ele>
        <time>2022-01-21T14:37:03.000Z</time>
      </trkpt>
      <trkpt lat="43.51302" lon="6.37241">
        <ele>289</ele>
        <time>2022-01-21T14:37:04.000Z</time>
      </trkpt>
      <trkpt lat="43.51302" lon="6.37241">
        <ele>289</ele>
        <time>2022-01-21T14:37:05.000Z</time>
      </trkpt>
      <trkpt lat="43.51302" lon="6.37241">
        <ele>289</ele>
        <time>2022-01-21T14:37:06.000Z</time>
      </trkpt>
      <trkpt lat="43.51302" lon="6.37241">
        <ele>289</ele>
        <time>2022-01-21T14:37:07.000Z</time>
      </trkpt>
      <trkpt lat="43.51301" lon="6.3724">
        <ele>289</ele>
        <time>2022-01-21T14:37:08.000Z</time>
      </trkpt>
      <trkpt lat="43.51301" lon="6.3724">
        <ele>289</ele>
        <time>2022-01-21T14:37:09.000Z</time>
      </trkpt>
      <trkpt lat="43.51301" lon="6.3724">
        <ele>289</ele>
        <time>2022-01-21T14:37:10.000Z</time>
      </trkpt>
      <trkpt lat="43.513" lon="6.3724">
        <ele>289</ele>
        <time>2022-01-21T14:37:11.000Z</time>
      </trkpt>
      <trkpt lat="43.513" lon="6.37239">
        <ele>289</ele>
        <time>2022-01-21T14:37:12.000Z</time>
      </trkpt>
      <trkpt lat="43.513" lon="6.37239">
        <ele>289</ele>
        <time>2022-01-21T14:37:13.000Z</time>
      </trkpt>
      <trkpt lat="43.513" lon="6.37239">
        <ele>289</ele>
        <time>2022-01-21T14:37:14.000Z</time>
      </trkpt>
      <trkpt lat="43.513" lon="6.37239">
        <ele>289</ele>
        <time>2022-01-21T14:37:15.000Z</time>
      </trkpt>
      <trkpt lat="43.513" lon="6.37238">
        <ele>289</ele>
        <time>2022-01-21T14:37:16.000Z</time>
      </trkpt>
      <trkpt lat="43.513" lon="6.37238">
        <ele>289</ele>
        <time>2022-01-21T14:37:17.000Z</time>
      </trkpt>
      <trkpt lat="43.513" lon="6.37238">
        <ele>289</ele>
        <time>2022-01-21T14:37:18.000Z</time>
      </trkpt>
      <trkpt lat="43.513" lon="6.37238">
        <ele>289</ele>
        <time>2022-01-21T14:37:19.000Z</time>
      </trkpt>
      <trkpt lat="43.513" lon="6.37238">
        <ele>289</ele>
        <time>2022-01-21T14:37:20.000Z</time>
      </trkpt>
      <trkpt lat="43.513" lon="6.37238">
        <ele>289</ele>
        <time>2022-01-21T14:37:21.000Z</time>
      </trkpt>
      <trkpt lat="43.513" lon="6.37238">
        <ele>289</ele>
        <time>2022-01-21T14:37:22.000Z</time>
      </trkpt>
      <trkpt lat="43.513" lon="6.37238">
        <ele>289</ele>
        <time>2022-01-21T14:37:23.000Z</time>
      </trkpt>
      <trkpt lat="43.513" lon="6.37238">
        <ele>289</ele>
        <time>2022-01-21T14:37:24.000Z</time>
      </trkpt>
      <trkpt lat="43.513" lon="6.37238">
        <ele>289</ele>
        <time>2022-01-21T14:37:25.000Z</time>
      </trkpt>
      <trkpt lat="43.513" lon="6.37238">
        <ele>289</ele>
        <time>2022-01-21T14:37:26.000Z</time>
      </trkpt>
      <trkpt lat="43.51299" lon="6.37237">
        <ele>289</ele>
        <time>2022-01-21T14:37:27.000Z</time>
      </trkpt>
      <trkpt lat="43.51299" lon="6.37237">
        <ele>289</ele>
        <time>2022-01-21T14:37:28.000Z</time>
      </trkpt>
      <trkpt lat="43.51299" lon="6.37237">
        <ele>289</ele>
        <time>2022-01-21T14:37:29.000Z</time>
      </trkpt>
      <trkpt lat="43.51299" lon="6.37237">
        <ele>289</ele>
        <time>2022-01-21T14:37:30.000Z</time>
      </trkpt>
      <trkpt lat="43.51299" lon="6.37237">
        <ele>289</ele>
        <time>2022-01-21T14:37:31.000Z</time>
      </trkpt>
      <trkpt lat="43.51299" lon="6.37237">
        <ele>289</ele>
        <time>2022-01-21T14:37:32.000Z</time>
      </trkpt>
      <trkpt lat="43.51299" lon="6.37237">
        <ele>289</ele>
        <time>2022-01-21T14:37:33.000Z</time>
      </trkpt>
      <trkpt lat="43.51299" lon="6.37237">
        <ele>289</ele>
        <time>2022-01-21T14:37:34.000Z</time>
      </trkpt>
      <trkpt lat="43.51299" lon="6.37237">
        <ele>289</ele>
        <time>2022-01-21T14:37:35.000Z</time>
      </trkpt>
      <trkpt lat="43.51299" lon="6.37238">
        <ele>289</ele>
        <time>2022-01-21T14:37:36.000Z</time>
      </trkpt>
      <trkpt lat="43.51299" lon="6.37238">
        <ele>289</ele>
        <time>2022-01-21T14:37:37.000Z</time>
      </trkpt>
      <trkpt lat="43.51299" lon="6.37239">
        <ele>289</ele>
        <time>2022-01-21T14:37:38.000Z</time>
      </trkpt>
      <trkpt lat="43.51299" lon="6.37239">
        <ele>289</ele>
        <time>2022-01-21T14:37:39.000Z</time>
      </trkpt>
      <trkpt lat="43.513" lon="6.37238">
        <ele>289</ele>
        <time>2022-01-21T14:37:40.000Z</time>
      </trkpt>
      <trkpt lat="43.51301" lon="6.37238">
        <ele>289</ele>
        <time>2022-01-21T14:37:41.000Z</time>
      </trkpt>
      <trkpt lat="43.51301" lon="6.37238">
        <ele>289</ele>
        <time>2022-01-21T14:37:42.000Z</time>
      </trkpt>
      <trkpt lat="43.51301" lon="6.37239">
        <ele>289</ele>
        <time>2022-01-21T14:37:43.000Z</time>
      </trkpt>
      <trkpt lat="43.51301" lon="6.37239">
        <ele>289</ele>
        <time>2022-01-21T14:37:44.000Z</time>
      </trkpt>
      <trkpt lat="43.51301" lon="6.3724">
        <ele>289</ele>
        <time>2022-01-21T14:37:45.000Z</time>
      </trkpt>
      <trkpt lat="43.51301" lon="6.3724">
        <ele>289</ele>
        <time>2022-01-21T14:37:46.000Z</time>
      </trkpt>
      <trkpt lat="43.51302" lon="6.3724">
        <ele>289</ele>
        <time>2022-01-21T14:37:47.000Z</time>
      </trkpt>
      <trkpt lat="43.51302" lon="6.37241">
        <ele>289</ele>
        <time>2022-01-21T14:37:48.000Z</time>
      </trkpt>
      <trkpt lat="43.51302" lon="6.37241">
        <ele>289</ele>
        <time>2022-01-21T14:37:49.000Z</time>
      </trkpt>
      <trkpt lat="43.51302" lon="6.37241">
        <ele>289</ele>
        <time>2022-01-21T14:37:50.000Z</time>
      </trkpt>
      <trkpt lat="43.51302" lon="6.37241">
        <ele>289</ele>
        <time>2022-01-21T14:37:51.000Z</time>
      </trkpt>
      <trkpt lat="43.51302" lon="6.37241">
        <ele>289</ele>
        <time>2022-01-21T14:37:52.000Z</time>
      </trkpt>
      <trkpt lat="43.51302" lon="6.37242">
        <ele>289</ele>
        <time>2022-01-21T14:37:53.000Z</time>
      </trkpt>
      <trkpt lat="43.51303" lon="6.37242">
        <ele>289</ele>
        <time>2022-01-21T14:37:54.000Z</time>
      </trkpt>
      <trkpt lat="43.51303" lon="6.37242">
        <ele>289</ele>
        <time>2022-01-21T14:37:55.000Z</time>
      </trkpt>
      <trkpt lat="43.51304" lon="6.37243">
        <ele>289</ele>
        <time>2022-01-21T14:37:56.000Z</time>
      </trkpt>
      <trkpt lat="43.51304" lon="6.37243">
        <ele>289</ele>
        <time>2022-01-21T14:37:57.000Z</time>
      </trkpt>
      <trkpt lat="43.51304" lon="6.37243">
        <ele>289</ele>
        <time>2022-01-21T14:37:58.000Z</time>
      </trkpt>
      <trkpt lat="43.51304" lon="6.37243">
        <ele>289</ele>
        <time>2022-01-21T14:37:59.000Z</time>
      </trkpt>
      <trkpt lat="43.51304" lon="6.37243">
        <ele>289</ele>
        <time>2022-01-21T14:38:00.000Z</time>
      </trkpt>
      <trkpt lat="43.51305" lon="6.37243">
        <ele>289</ele>
        <time>2022-01-21T14:38:01.000Z</time>
      </trkpt>
      <trkpt lat="43.51305" lon="6.37244">
        <ele>289</ele>
        <time>2022-01-21T14:38:02.000Z</time>
      </trkpt>
      <trkpt lat="43.51305" lon="6.37244">
        <ele>289</ele>
        <time>2022-01-21T14:38:03.000Z</time>
      </trkpt>
      <trkpt lat="43.51306" lon="6.37245">
        <ele>289</ele>
        <time>2022-01-21T14:38:04.000Z</time>
      </trkpt>
      <trkpt lat="43.51306" lon="6.37245">
        <ele>289</ele>
        <time>2022-01-21T14:38:05.000Z</time>
      </trkpt>
      <trkpt lat="43.51307" lon="6.37246">
        <ele>289</ele>
        <time>2022-01-21T14:38:06.000Z</time>
      </trkpt>
      <trkpt lat="43.51307" lon="6.37246">
        <ele>289</ele>
        <time>2022-01-21T14:38:07.000Z</time>
      </trkpt>
      <trkpt lat="43.51307" lon="6.37246">
        <ele>289</ele>
        <time>2022-01-21T14:38:08.000Z</time>
      </trkpt>
      <trkpt lat="43.51308" lon="6.37247">
        <ele>289</ele>
        <time>2022-01-21T14:38:09.000Z</time>
      </trkpt>
      <trkpt lat="43.51308" lon="6.37247">
        <ele>289</ele>
        <time>2022-01-21T14:38:10.000Z</time>
      </trkpt>
      <trkpt lat="43.51308" lon="6.37247">
        <ele>289</ele>
        <time>2022-01-21T14:38:11.000Z</time>
      </trkpt>
      <trkpt lat="43.51309" lon="6.37247">
        <ele>289</ele>
        <time>2022-01-21T14:38:12.000Z</time>
      </trkpt>
      <trkpt lat="43.51309" lon="6.37249">
        <ele>289</ele>
        <time>2022-01-21T14:38:13.000Z</time>
      </trkpt>
      <trkpt lat="43.5131" lon="6.3725">
        <ele>289</ele>
        <time>2022-01-21T14:38:14.000Z</time>
      </trkpt>
      <trkpt lat="43.51311" lon="6.3725">
        <ele>289</ele>
        <time>2022-01-21T14:38:15.000Z</time>
      </trkpt>
      <trkpt lat="43.51312" lon="6.3725">
        <ele>289</ele>
        <time>2022-01-21T14:38:16.000Z</time>
      </trkpt>
      <trkpt lat="43.51313" lon="6.3725">
        <ele>289</ele>
        <time>2022-01-21T14:38:17.000Z</time>
      </trkpt>
      <trkpt lat="43.51314" lon="6.37251">
        <ele>289</ele>
        <time>2022-01-21T14:38:18.000Z</time>
      </trkpt>
      <trkpt lat="43.51314" lon="6.37251">
        <ele>289</ele>
        <time>2022-01-21T14:38:19.000Z</time>
      </trkpt>
      <trkpt lat="43.51315" lon="6.37251">
        <ele>289</ele>
        <time>2022-01-21T14:38:20.000Z</time>
      </trkpt>
      <trkpt lat="43.51315" lon="6.37251">
        <ele>289</ele>
        <time>2022-01-21T14:38:21.000Z</time>
      </trkpt>
      <trkpt lat="43.51316" lon="6.37251">
        <ele>289</ele>
        <time>2022-01-21T14:38:22.000Z</time>
      </trkpt>
      <trkpt lat="43.51316" lon="6.37251">
        <ele>289</ele>
        <time>2022-01-21T14:38:23.000Z</time>
      </trkpt>
      <trkpt lat="43.51316" lon="6.37251">
        <ele>289</ele>
        <time>2022-01-21T14:38:24.000Z</time>
      </trkpt>
      <trkpt lat="43.51316" lon="6.37251">
        <ele>289</ele>
        <time>2022-01-21T14:38:25.000Z</time>
      </trkpt>
      <trkpt lat="43.51316" lon="6.37251">
        <ele>289</ele>
        <time>2022-01-21T14:38:26.000Z</time>
      </trkpt>
      <trkpt lat="43.51317" lon="6.37251">
        <ele>289</ele>
        <time>2022-01-21T14:38:27.000Z</time>
      </trkpt>
      <trkpt lat="43.51317" lon="6.37251">
        <ele>289</ele>
        <time>2022-01-21T14:38:28.000Z</time>
      </trkpt>
      <trkpt lat="43.51317" lon="6.37251">
        <ele>289</ele>
        <time>2022-01-21T14:38:29.000Z</time>
      </trkpt>
      <trkpt lat="43.51317" lon="6.37251">
        <ele>289</ele>
        <time>2022-01-21T14:38:30.000Z</time>
      </trkpt>
      <trkpt lat="43.51317" lon="6.37251">
        <ele>289</ele>
        <time>2022-01-21T14:38:31.000Z</time>
      </trkpt>
      <trkpt lat="43.51317" lon="6.37251">
        <ele>289</ele>
        <time>2022-01-21T14:38:32.000Z</time>
      </trkpt>
      <trkpt lat="43.51318" lon="6.37252">
        <ele>289</ele>
        <time>2022-01-21T14:38:33.000Z</time>
      </trkpt>
      <trkpt lat="43.51319" lon="6.37252">
        <ele>289</ele>
        <time>2022-01-21T14:38:34.000Z</time>
      </trkpt>
      <trkpt lat="43.5132" lon="6.37252">
        <ele>289</ele>
        <time>2022-01-21T14:38:35.000Z</time>
      </trkpt>
      <trkpt lat="43.51322" lon="6.37253">
        <ele>289</ele>
        <time>2022-01-21T14:38:36.000Z</time>
      </trkpt>
      <trkpt lat="43.51323" lon="6.37253">
        <ele>289</ele>
        <time>2022-01-21T14:38:37.000Z</time>
      </trkpt>
      <trkpt lat="43.51325" lon="6.37253">
        <ele>289</ele>
        <time>2022-01-21T14:38:38.000Z</time>
      </trkpt>
      <trkpt lat="43.51327" lon="6.37254">
        <ele>289</ele>
        <time>2022-01-21T14:38:39.000Z</time>
      </trkpt>
      <trkpt lat="43.51329" lon="6.37254">
        <ele>289</ele>
        <time>2022-01-21T14:38:40.000Z</time>
      </trkpt>
      <trkpt lat="43.51331" lon="6.37254">
        <ele>289</ele>
        <time>2022-01-21T14:38:41.000Z</time>
      </trkpt>
      <trkpt lat="43.51333" lon="6.37254">
        <ele>289</ele>
        <time>2022-01-21T14:38:42.000Z</time>
      </trkpt>
      <trkpt lat="43.51333" lon="6.37254">
        <ele>289</ele>
        <time>2022-01-21T14:38:43.000Z</time>
      </trkpt>
      <trkpt lat="43.51334" lon="6.37254">
        <ele>289</ele>
        <time>2022-01-21T14:38:44.000Z</time>
      </trkpt>
      <trkpt lat="43.51335" lon="6.37254">
        <ele>289</ele>
        <time>2022-01-21T14:38:45.000Z</time>
      </trkpt>
      <trkpt lat="43.51335" lon="6.37254">
        <ele>289</ele>
        <time>2022-01-21T14:38:46.000Z</time>
      </trkpt>
      <trkpt lat="43.51336" lon="6.37254">
        <ele>289</ele>
        <time>2022-01-21T14:38:47.000Z</time>
      </trkpt>
      <trkpt lat="43.51337" lon="6.37254">
        <ele>289</ele>
        <time>2022-01-21T14:38:48.000Z</time>
      </trkpt>
      <trkpt lat="43.51337" lon="6.37254">
        <ele>289</ele>
        <time>2022-01-21T14:38:49.000Z</time>
      </trkpt>
      <trkpt lat="43.51339" lon="6.37255">
        <ele>289</ele>
        <time>2022-01-21T14:38:50.000Z</time>
      </trkpt>
      <trkpt lat="43.5134" lon="6.37255">
        <ele>289</ele>
        <time>2022-01-21T14:38:51.000Z</time>
      </trkpt>
      <trkpt lat="43.51341" lon="6.37255">
        <ele>288</ele>
        <time>2022-01-21T14:38:52.000Z</time>
      </trkpt>
      <trkpt lat="43.51341" lon="6.37255">
        <ele>288</ele>
        <time>2022-01-21T14:38:53.000Z</time>
      </trkpt>
      <trkpt lat="43.51342" lon="6.37255">
        <ele>288</ele>
        <time>2022-01-21T14:38:54.000Z</time>
      </trkpt>
      <trkpt lat="43.51344" lon="6.37256">
        <ele>288</ele>
        <time>2022-01-21T14:38:55.000Z</time>
      </trkpt>
      <trkpt lat="43.51345" lon="6.37256">
        <ele>287</ele>
        <time>2022-01-21T14:38:56.000Z</time>
      </trkpt>
      <trkpt lat="43.51346" lon="6.37256">
        <ele>286</ele>
        <time>2022-01-21T14:38:57.000Z</time>
      </trkpt>
      <trkpt lat="43.51347" lon="6.37256">
        <ele>286</ele>
        <time>2022-01-21T14:38:58.000Z</time>
      </trkpt>
      <trkpt lat="43.51348" lon="6.37257">
        <ele>286</ele>
        <time>2022-01-21T14:38:59.000Z</time>
      </trkpt>
      <trkpt lat="43.5135" lon="6.37257">
        <ele>286</ele>
        <time>2022-01-21T14:39:00.000Z</time>
      </trkpt>
      <trkpt lat="43.51351" lon="6.37258">
        <ele>286</ele>
        <time>2022-01-21T14:39:01.000Z</time>
      </trkpt>
      <trkpt lat="43.51352" lon="6.37258">
        <ele>286</ele>
        <time>2022-01-21T14:39:02.000Z</time>
      </trkpt>
      <trkpt lat="43.51352" lon="6.37258">
        <ele>286</ele>
        <time>2022-01-21T14:39:03.000Z</time>
      </trkpt>
      <trkpt lat="43.51353" lon="6.37259">
        <ele>286</ele>
        <time>2022-01-21T14:39:04.000Z</time>
      </trkpt>
      <trkpt lat="43.51353" lon="6.37259">
        <ele>286</ele>
        <time>2022-01-21T14:39:05.000Z</time>
      </trkpt>
      <trkpt lat="43.51354" lon="6.37259">
        <ele>285</ele>
        <time>2022-01-21T14:39:06.000Z</time>
      </trkpt>
      <trkpt lat="43.51355" lon="6.3726">
        <ele>285</ele>
        <time>2022-01-21T14:39:07.000Z</time>
      </trkpt>
      <trkpt lat="43.51356" lon="6.3726">
        <ele>285</ele>
        <time>2022-01-21T14:39:08.000Z</time>
      </trkpt>
      <trkpt lat="43.51357" lon="6.37261">
        <ele>284</ele>
        <time>2022-01-21T14:39:09.000Z</time>
      </trkpt>
      <trkpt lat="43.51358" lon="6.37261">
        <ele>284</ele>
        <time>2022-01-21T14:39:10.000Z</time>
      </trkpt>
      <trkpt lat="43.51359" lon="6.37262">
        <ele>284</ele>
        <time>2022-01-21T14:39:11.000Z</time>
      </trkpt>
      <trkpt lat="43.5136" lon="6.37262">
        <ele>284</ele>
        <time>2022-01-21T14:39:12.000Z</time>
      </trkpt>
      <trkpt lat="43.51361" lon="6.37263">
        <ele>284</ele>
        <time>2022-01-21T14:39:13.000Z</time>
      </trkpt>
      <trkpt lat="43.51363" lon="6.37263">
        <ele>284</ele>
        <time>2022-01-21T14:39:14.000Z</time>
      </trkpt>
      <trkpt lat="43.51365" lon="6.37264">
        <ele>284</ele>
        <time>2022-01-21T14:39:15.000Z</time>
      </trkpt>
      <trkpt lat="43.51368" lon="6.37266">
        <ele>284</ele>
        <time>2022-01-21T14:39:16.000Z</time>
      </trkpt>
      <trkpt lat="43.5137" lon="6.37266">
        <ele>284</ele>
        <time>2022-01-21T14:39:17.000Z</time>
      </trkpt>
      <trkpt lat="43.51371" lon="6.37267">
        <ele>284</ele>
        <time>2022-01-21T14:39:18.000Z</time>
      </trkpt>
      <trkpt lat="43.51372" lon="6.37267">
        <ele>284</ele>
        <time>2022-01-21T14:39:19.000Z</time>
      </trkpt>
      <trkpt lat="43.51373" lon="6.37267">
        <ele>284</ele>
        <time>2022-01-21T14:39:20.000Z</time>
      </trkpt>
      <trkpt lat="43.51373" lon="6.37268">
        <ele>284</ele>
        <time>2022-01-21T14:39:21.000Z</time>
      </trkpt>
      <trkpt lat="43.51373" lon="6.37268">
        <ele>284</ele>
        <time>2022-01-21T14:39:22.000Z</time>
      </trkpt>
      <trkpt lat="43.51373" lon="6.37268">
        <ele>284</ele>
        <time>2022-01-21T14:39:23.000Z</time>
      </trkpt>
      <trkpt lat="43.51374" lon="6.37268">
        <ele>284</ele>
        <time>2022-01-21T14:39:24.000Z</time>
      </trkpt>
      <trkpt lat="43.51374" lon="6.37268">
        <ele>284</ele>
        <time>2022-01-21T14:39:25.000Z</time>
      </trkpt>
      <trkpt lat="43.51374" lon="6.37268">
        <ele>284</ele>
        <time>2022-01-21T14:39:26.000Z</time>
      </trkpt>
      <trkpt lat="43.51374" lon="6.37268">
        <ele>284</ele>
        <time>2022-01-21T14:39:27.000Z</time>
      </trkpt>
      <trkpt lat="43.51375" lon="6.37268">
        <ele>284</ele>
        <time>2022-01-21T14:39:28.000Z</time>
      </trkpt>
      <trkpt lat="43.51375" lon="6.37268">
        <ele>283</ele>
        <time>2022-01-21T14:39:29.000Z</time>
      </trkpt>
      <trkpt lat="43.51375" lon="6.37268">
        <ele>283</ele>
        <time>2022-01-21T14:39:30.000Z</time>
      </trkpt>
      <trkpt lat="43.51375" lon="6.37268">
        <ele>283</ele>
        <time>2022-01-21T14:39:31.000Z</time>
      </trkpt>
      <trkpt lat="43.51375" lon="6.37268">
        <ele>283</ele>
        <time>2022-01-21T14:39:32.000Z</time>
      </trkpt>
      <trkpt lat="43.51376" lon="6.37268">
        <ele>283</ele>
        <time>2022-01-21T14:39:33.000Z</time>
      </trkpt>
      <trkpt lat="43.51376" lon="6.37268">
        <ele>283</ele>
        <time>2022-01-21T14:39:34.000Z</time>
      </trkpt>
      <trkpt lat="43.51376" lon="6.37267">
        <ele>283</ele>
        <time>2022-01-21T14:39:35.000Z</time>
      </trkpt>
      <trkpt lat="43.51377" lon="6.37267">
        <ele>283</ele>
        <time>2022-01-21T14:39:36.000Z</time>
      </trkpt>
      <trkpt lat="43.51377" lon="6.37266">
        <ele>283</ele>
        <time>2022-01-21T14:39:37.000Z</time>
      </trkpt>
      <trkpt lat="43.51377" lon="6.37265">
        <ele>283</ele>
        <time>2022-01-21T14:39:38.000Z</time>
      </trkpt>
      <trkpt lat="43.51378" lon="6.37265">
        <ele>283</ele>
        <time>2022-01-21T14:39:39.000Z</time>
      </trkpt>
      <trkpt lat="43.51378" lon="6.37264">
        <ele>283</ele>
        <time>2022-01-21T14:39:40.000Z</time>
      </trkpt>
      <trkpt lat="43.51378" lon="6.37264">
        <ele>283</ele>
        <time>2022-01-21T14:39:41.000Z</time>
      </trkpt>
      <trkpt lat="43.51378" lon="6.37263">
        <ele>283</ele>
        <time>2022-01-21T14:39:42.000Z</time>
      </trkpt>
      <trkpt lat="43.51379" lon="6.37263">
        <ele>283</ele>
        <time>2022-01-21T14:39:43.000Z</time>
      </trkpt>
      <trkpt lat="43.51379" lon="6.37262">
        <ele>283</ele>
        <time>2022-01-21T14:39:44.000Z</time>
      </trkpt>
      <trkpt lat="43.5138" lon="6.37261">
        <ele>283</ele>
        <time>2022-01-21T14:39:45.000Z</time>
      </trkpt>
      <trkpt lat="43.5138" lon="6.3726">
        <ele>283</ele>
        <time>2022-01-21T14:39:46.000Z</time>
      </trkpt>
      <trkpt lat="43.51381" lon="6.37259">
        <ele>283</ele>
        <time>2022-01-21T14:39:47.000Z</time>
      </trkpt>
      <trkpt lat="43.51381" lon="6.37258">
        <ele>282</ele>
        <time>2022-01-21T14:39:48.000Z</time>
      </trkpt>
      <trkpt lat="43.51381" lon="6.37256">
        <ele>282</ele>
        <time>2022-01-21T14:39:49.000Z</time>
      </trkpt>
      <trkpt lat="43.51382" lon="6.37254">
        <ele>282</ele>
        <time>2022-01-21T14:39:50.000Z</time>
      </trkpt>
      <trkpt lat="43.51382" lon="6.37251">
        <ele>282</ele>
        <time>2022-01-21T14:39:51.000Z</time>
      </trkpt>
      <trkpt lat="43.51382" lon="6.37249">
        <ele>282</ele>
        <time>2022-01-21T14:39:52.000Z</time>
      </trkpt>
      <trkpt lat="43.51382" lon="6.37248">
        <ele>282</ele>
        <time>2022-01-21T14:39:53.000Z</time>
      </trkpt>
      <trkpt lat="43.51383" lon="6.37247">
        <ele>282</ele>
        <time>2022-01-21T14:39:54.000Z</time>
      </trkpt>
      <trkpt lat="43.51383" lon="6.37246">
        <ele>282</ele>
        <time>2022-01-21T14:39:55.000Z</time>
      </trkpt>
      <trkpt lat="43.51383" lon="6.37246">
        <ele>282</ele>
        <time>2022-01-21T14:39:56.000Z</time>
      </trkpt>
      <trkpt lat="43.51383" lon="6.37245">
        <ele>282</ele>
        <time>2022-01-21T14:39:57.000Z</time>
      </trkpt>
      <trkpt lat="43.51383" lon="6.37245">
        <ele>282</ele>
        <time>2022-01-21T14:39:58.000Z</time>
      </trkpt>
      <trkpt lat="43.51383" lon="6.37244">
        <ele>282</ele>
        <time>2022-01-21T14:39:59.000Z</time>
      </trkpt>
      <trkpt lat="43.51383" lon="6.37244">
        <ele>282</ele>
        <time>2022-01-21T14:40:00.000Z</time>
      </trkpt>
      <trkpt lat="43.51383" lon="6.37243">
        <ele>282</ele>
        <time>2022-01-21T14:40:01.000Z</time>
      </trkpt>
      <trkpt lat="43.51383" lon="6.37243">
        <ele>282</ele>
        <time>2022-01-21T14:40:02.000Z</time>
      </trkpt>
      <trkpt lat="43.51384" lon="6.37243">
        <ele>282</ele>
        <time>2022-01-21T14:40:03.000Z</time>
      </trkpt>
      <trkpt lat="43.51384" lon="6.37243">
        <ele>282</ele>
        <time>2022-01-21T14:40:04.000Z</time>
      </trkpt>
      <trkpt lat="43.51384" lon="6.37243">
        <ele>282</ele>
        <time>2022-01-21T14:40:05.000Z</time>
      </trkpt>
      <trkpt lat="43.51384" lon="6.37243">
        <ele>282</ele>
        <time>2022-01-21T14:40:06.000Z</time>
      </trkpt>
      <trkpt lat="43.51384" lon="6.37243">
        <ele>282</ele>
        <time>2022-01-21T14:40:07.000Z</time>
      </trkpt>
      <trkpt lat="43.51384" lon="6.37243">
        <ele>282</ele>
        <time>2022-01-21T14:40:08.000Z</time>
      </trkpt>
      <trkpt lat="43.51384" lon="6.37242">
        <ele>282</ele>
        <time>2022-01-21T14:40:09.000Z</time>
      </trkpt>
      <trkpt lat="43.51384" lon="6.37242">
        <ele>282</ele>
        <time>2022-01-21T14:40:10.000Z</time>
      </trkpt>
      <trkpt lat="43.51384" lon="6.37242">
        <ele>282</ele>
        <time>2022-01-21T14:40:11.000Z</time>
      </trkpt>
      <trkpt lat="43.51384" lon="6.37242">
        <ele>282</ele>
        <time>2022-01-21T14:40:12.000Z</time>
      </trkpt>
      <trkpt lat="43.51384" lon="6.37242">
        <ele>282</ele>
        <time>2022-01-21T14:40:13.000Z</time>
      </trkpt>
      <trkpt lat="43.51384" lon="6.37241">
        <ele>282</ele>
        <time>2022-01-21T14:40:14.000Z</time>
      </trkpt>
      <trkpt lat="43.51384" lon="6.37241">
        <ele>282</ele>
        <time>2022-01-21T14:40:15.000Z</time>
      </trkpt>
      <trkpt lat="43.51384" lon="6.37241">
        <ele>282</ele>
        <time>2022-01-21T14:40:16.000Z</time>
      </trkpt>
      <trkpt lat="43.51384" lon="6.37241">
        <ele>282</ele>
        <time>2022-01-21T14:40:17.000Z</time>
      </trkpt>
      <trkpt lat="43.51384" lon="6.37241">
        <ele>282</ele>
        <time>2022-01-21T14:40:18.000Z</time>
      </trkpt>
      <trkpt lat="43.51384" lon="6.3724">
        <ele>282</ele>
        <time>2022-01-21T14:40:19.000Z</time>
      </trkpt>
      <trkpt lat="43.51384" lon="6.3724">
        <ele>282</ele>
        <time>2022-01-21T14:40:20.000Z</time>
      </trkpt>
      <trkpt lat="43.51384" lon="6.3724">
        <ele>282</ele>
        <time>2022-01-21T14:40:21.000Z</time>
      </trkpt>
      <trkpt lat="43.51384" lon="6.3724">
        <ele>282</ele>
        <time>2022-01-21T14:40:22.000Z</time>
      </trkpt>
      <trkpt lat="43.51384" lon="6.3724">
        <ele>282</ele>
        <time>2022-01-21T14:40:23.000Z</time>
      </trkpt>
      <trkpt lat="43.51384" lon="6.3724">
        <ele>282</ele>
        <time>2022-01-21T14:40:24.000Z</time>
      </trkpt>
      <trkpt lat="43.51384" lon="6.3724">
        <ele>282</ele>
        <time>2022-01-21T14:40:25.000Z</time>
      </trkpt>
      <trkpt lat="43.51384" lon="6.3724">
        <ele>282</ele>
        <time>2022-01-21T14:40:26.000Z</time>
      </trkpt>
      <trkpt lat="43.51384" lon="6.3724">
        <ele>282</ele>
        <time>2022-01-21T14:40:27.000Z</time>
      </trkpt>
      <trkpt lat="43.51384" lon="6.3724">
        <ele>282</ele>
        <time>2022-01-21T14:40:28.000Z</time>
      </trkpt>
      <trkpt lat="43.51384" lon="6.3724">
        <ele>282</ele>
        <time>2022-01-21T14:40:29.000Z</time>
      </trkpt>
      <trkpt lat="43.51384" lon="6.3724">
        <ele>282</ele>
        <time>2022-01-21T14:40:30.000Z</time>
      </trkpt>
      <trkpt lat="43.51384" lon="6.3724">
        <ele>282</ele>
        <time>2022-01-21T14:40:31.000Z</time>
      </trkpt>
      <trkpt lat="43.51384" lon="6.3724">
        <ele>282</ele>
        <time>2022-01-21T14:40:32.000Z</time>
      </trkpt>
      <trkpt lat="43.51384" lon="6.3724">
        <ele>282</ele>
        <time>2022-01-21T14:40:33.000Z</time>
      </trkpt>
      <trkpt lat="43.51384" lon="6.3724">
        <ele>282</ele>
        <time>2022-01-21T14:40:34.000Z</time>
      </trkpt>
      <trkpt lat="43.51384" lon="6.3724">
        <ele>282</ele>
        <time>2022-01-21T14:40:35.000Z</time>
      </trkpt>
      <trkpt lat="43.51384" lon="6.3724">
        <ele>282</ele>
        <time>2022-01-21T14:40:36.000Z</time>
      </trkpt>
      <trkpt lat="43.51384" lon="6.3724">
        <ele>282</ele>
        <time>2022-01-21T14:40:37.000Z</time>
      </trkpt>
      <trkpt lat="43.51384" lon="6.3724">
        <ele>282</ele>
        <time>2022-01-21T14:40:38.000Z</time>
      </trkpt>
      <trkpt lat="43.51384" lon="6.3724">
        <ele>282</ele>
        <time>2022-01-21T14:40:39.000Z</time>
      </trkpt>
      <trkpt lat="43.51384" lon="6.3724">
        <ele>282</ele>
        <time>2022-01-21T14:40:40.000Z</time>
      </trkpt>
      <trkpt lat="43.51384" lon="6.3724">
        <ele>282</ele>
        <time>2022-01-21T14:40:41.000Z</time>
      </trkpt>
      <trkpt lat="43.51384" lon="6.3724">
        <ele>282</ele>
        <time>2022-01-21T14:40:42.000Z</time>
      </trkpt>
      <trkpt lat="43.51384" lon="6.3724">
        <ele>282</ele>
        <time>2022-01-21T14:40:43.000Z</time>
      </trkpt>
      <trkpt lat="43.51384" lon="6.3724">
        <ele>282</ele>
        <time>2022-01-21T14:40:44.000Z</time>
      </trkpt>
      <trkpt lat="43.51384" lon="6.3724">
        <ele>282</ele>
        <time>2022-01-21T14:40:45.000Z</time>
      </trkpt>
      <trkpt lat="43.51384" lon="6.3724">
        <ele>282</ele>
        <time>2022-01-21T14:40:46.000Z</time>
      </trkpt>
      <trkpt lat="43.51384" lon="6.3724">
        <ele>282</ele>
        <time>2022-01-21T14:40:47.000Z</time>
      </trkpt>
      <trkpt lat="43.51384" lon="6.3724">
        <ele>282</ele>
        <time>2022-01-21T14:40:48.000Z</time>
      </trkpt>
      <trkpt lat="43.51384" lon="6.3724">
        <ele>282</ele>
        <time>2022-01-21T14:40:49.000Z</time>
      </trkpt>
      <trkpt lat="43.51384" lon="6.3724">
        <ele>282</ele>
        <time>2022-01-21T14:40:50.000Z</time>
      </trkpt>
      <trkpt lat="43.51384" lon="6.3724">
        <ele>282</ele>
        <time>2022-01-21T14:40:51.000Z</time>
      </trkpt>
      <trkpt lat="43.51384" lon="6.3724">
        <ele>282</ele>
        <time>2022-01-21T14:40:52.000Z</time>
      </trkpt>
      <trkpt lat="43.51384" lon="6.3724">
        <ele>282</ele>
        <time>2022-01-21T14:40:53.000Z</time>
      </trkpt>
      <trkpt lat="43.51384" lon="6.3724">
        <ele>282</ele>
        <time>2022-01-21T14:40:54.000Z</time>
      </trkpt>
      <trkpt lat="43.51384" lon="6.3724">
        <ele>282</ele>
        <time>2022-01-21T14:40:55.000Z</time>
      </trkpt>
      <trkpt lat="43.51384" lon="6.3724">
        <ele>282</ele>
        <time>2022-01-21T14:40:56.000Z</time>
      </trkpt>
      <trkpt lat="43.51385" lon="6.3724">
        <ele>282</ele>
        <time>2022-01-21T14:40:57.000Z</time>
      </trkpt>
      <trkpt lat="43.51385" lon="6.3724">
        <ele>282</ele>
        <time>2022-01-21T14:40:58.000Z</time>
      </trkpt>
      <trkpt lat="43.51385" lon="6.3724">
        <ele>282</ele>
        <time>2022-01-21T14:40:59.000Z</time>
      </trkpt>
      <trkpt lat="43.51385" lon="6.3724">
        <ele>282</ele>
        <time>2022-01-21T14:41:00.000Z</time>
      </trkpt>
      <trkpt lat="43.51385" lon="6.3724">
        <ele>282</ele>
        <time>2022-01-21T14:41:01.000Z</time>
      </trkpt>
      <trkpt lat="43.51385" lon="6.3724">
        <ele>282</ele>
        <time>2022-01-21T14:41:02.000Z</time>
      </trkpt>
      <trkpt lat="43.51385" lon="6.3724">
        <ele>282</ele>
        <time>2022-01-21T14:41:03.000Z</time>
      </trkpt>
      <trkpt lat="43.51385" lon="6.3724">
        <ele>282</ele>
        <time>2022-01-21T14:41:04.000Z</time>
      </trkpt>
      <trkpt lat="43.51385" lon="6.3724">
        <ele>282</ele>
        <time>2022-01-21T14:41:05.000Z</time>
      </trkpt>
      <trkpt lat="43.51385" lon="6.3724">
        <ele>282</ele>
        <time>2022-01-21T14:41:06.000Z</time>
      </trkpt>
      <trkpt lat="43.51385" lon="6.3724">
        <ele>282</ele>
        <time>2022-01-21T14:41:07.000Z</time>
      </trkpt>
      <trkpt lat="43.51385" lon="6.3724">
        <ele>282</ele>
        <time>2022-01-21T14:41:08.000Z</time>
      </trkpt>
      <trkpt lat="43.51385" lon="6.3724">
        <ele>282</ele>
        <time>2022-01-21T14:41:09.000Z</time>
      </trkpt>
      <trkpt lat="43.51385" lon="6.3724">
        <ele>282</ele>
        <time>2022-01-21T14:41:10.000Z</time>
      </trkpt>
      <trkpt lat="43.51385" lon="6.3724">
        <ele>282</ele>
        <time>2022-01-21T14:41:11.000Z</time>
      </trkpt>
      <trkpt lat="43.51385" lon="6.3724">
        <ele>282</ele>
        <time>2022-01-21T14:41:12.000Z</time>
      </trkpt>
      <trkpt lat="43.51385" lon="6.3724">
        <ele>282</ele>
        <time>2022-01-21T14:41:13.000Z</time>
      </trkpt>
      <trkpt lat="43.51385" lon="6.3724">
        <ele>282</ele>
        <time>2022-01-21T14:41:14.000Z</time>
      </trkpt>
      <trkpt lat="43.51385" lon="6.3724">
        <ele>282</ele>
        <time>2022-01-21T14:41:15.000Z</time>
      </trkpt>
      <trkpt lat="43.51385" lon="6.3724">
        <ele>282</ele>
        <time>2022-01-21T14:41:16.000Z</time>
      </trkpt>
      <trkpt lat="43.51385" lon="6.3724">
        <ele>282</ele>
        <time>2022-01-21T14:41:17.000Z</time>
      </trkpt>
      <trkpt lat="43.51385" lon="6.3724">
        <ele>282</ele>
        <time>2022-01-21T14:41:18.000Z</time>
      </trkpt>
      <trkpt lat="43.51385" lon="6.3724">
        <ele>282</ele>
        <time>2022-01-21T14:41:19.000Z</time>
      </trkpt>
      <trkpt lat="43.51385" lon="6.3724">
        <ele>282</ele>
        <time>2022-01-21T14:41:20.000Z</time>
      </trkpt>
      <trkpt lat="43.51385" lon="6.3724">
        <ele>282</ele>
        <time>2022-01-21T14:41:21.000Z</time>
      </trkpt>
      <trkpt lat="43.51385" lon="6.3724">
        <ele>282</ele>
        <time>2022-01-21T14:41:22.000Z</time>
      </trkpt>
      <trkpt lat="43.51385" lon="6.3724">
        <ele>282</ele>
        <time>2022-01-21T14:41:23.000Z</time>
      </trkpt>
      <trkpt lat="43.51385" lon="6.3724">
        <ele>282</ele>
        <time>2022-01-21T14:41:24.000Z</time>
      </trkpt>
      <trkpt lat="43.51385" lon="6.3724">
        <ele>282</ele>
        <time>2022-01-21T14:41:25.000Z</time>
      </trkpt>
      <trkpt lat="43.51385" lon="6.3724">
        <ele>282</ele>
        <time>2022-01-21T14:41:26.000Z</time>
      </trkpt>
      <trkpt lat="43.51385" lon="6.3724">
        <ele>282</ele>
        <time>2022-01-21T14:41:27.000Z</time>
      </trkpt>
      <trkpt lat="43.51385" lon="6.3724">
        <ele>282</ele>
        <time>2022-01-21T14:41:28.000Z</time>
      </trkpt>
      <trkpt lat="43.51385" lon="6.3724">
        <ele>282</ele>
        <time>2022-01-21T14:41:29.000Z</time>
      </trkpt>
      <trkpt lat="43.51385" lon="6.3724">
        <ele>282</ele>
        <time>2022-01-21T14:41:30.000Z</time>
      </trkpt>
      <trkpt lat="43.51385" lon="6.3724">
        <ele>282</ele>
        <time>2022-01-21T14:41:31.000Z</time>
      </trkpt>
      <trkpt lat="43.51385" lon="6.3724">
        <ele>282</ele>
        <time>2022-01-21T14:41:32.000Z</time>
      </trkpt>
      <trkpt lat="43.51385" lon="6.3724">
        <ele>282</ele>
        <time>2022-01-21T14:41:33.000Z</time>
      </trkpt>
      <trkpt lat="43.51385" lon="6.3724">
        <ele>282</ele>
        <time>2022-01-21T14:41:34.000Z</time>
      </trkpt>
      <trkpt lat="43.51385" lon="6.3724">
        <ele>282</ele>
        <time>2022-01-21T14:41:35.000Z</time>
      </trkpt>
      <trkpt lat="43.51385" lon="6.3724">
        <ele>282</ele>
        <time>2022-01-21T14:41:36.000Z</time>
      </trkpt>
      <trkpt lat="43.51385" lon="6.3724">
        <ele>282</ele>
        <time>2022-01-21T14:41:37.000Z</time>
      </trkpt>
      <trkpt lat="43.51385" lon="6.3724">
        <ele>282</ele>
        <time>2022-01-21T14:41:38.000Z</time>
      </trkpt>
      <trkpt lat="43.51385" lon="6.3724">
        <ele>282</ele>
        <time>2022-01-21T14:41:39.000Z</time>
      </trkpt>
      <trkpt lat="43.51385" lon="6.3724">
        <ele>282</ele>
        <time>2022-01-21T14:41:40.000Z</time>
      </trkpt>
      <trkpt lat="43.51385" lon="6.3724">
        <ele>282</ele>
        <time>2022-01-21T14:41:41.000Z</time>
      </trkpt>
      <trkpt lat="43.51385" lon="6.3724">
        <ele>282</ele>
        <time>2022-01-21T14:41:42.000Z</time>
      </trkpt>
      <trkpt lat="43.51385" lon="6.3724">
        <ele>282</ele>
        <time>2022-01-21T14:41:43.000Z</time>
      </trkpt>
      <trkpt lat="43.51385" lon="6.3724">
        <ele>282</ele>
        <time>2022-01-21T14:41:44.000Z</time>
      </trkpt>
      <trkpt lat="43.51385" lon="6.3724">
        <ele>282</ele>
        <time>2022-01-21T14:41:45.000Z</time>
      </trkpt>
      <trkpt lat="43.51385" lon="6.3724">
        <ele>282</ele>
        <time>2022-01-21T14:41:46.000Z</time>
      </trkpt>
      <trkpt lat="43.51385" lon="6.3724">
        <ele>282</ele>
        <time>2022-01-21T14:41:47.000Z</time>
      </trkpt>
      <trkpt lat="43.51385" lon="6.3724">
        <ele>282</ele>
        <time>2022-01-21T14:41:48.000Z</time>
      </trkpt>
      <trkpt lat="43.51385" lon="6.3724">
        <ele>282</ele>
        <time>2022-01-21T14:41:49.000Z</time>
      </trkpt>
      <trkpt lat="43.51385" lon="6.3724">
        <ele>282</ele>
        <time>2022-01-21T14:41:50.000Z</time>
      </trkpt>
      <trkpt lat="43.51385" lon="6.3724">
        <ele>282</ele>
        <time>2022-01-21T14:41:51.000Z</time>
      </trkpt>
      <trkpt lat="43.51385" lon="6.3724">
        <ele>282</ele>
        <time>2022-01-21T14:41:52.000Z</time>
      </trkpt>
      <trkpt lat="43.51385" lon="6.3724">
        <ele>282</ele>
        <time>2022-01-21T14:41:53.000Z</time>
      </trkpt>
      <trkpt lat="43.51385" lon="6.3724">
        <ele>282</ele>
        <time>2022-01-21T14:41:54.000Z</time>
      </trkpt>
      <trkpt lat="43.51385" lon="6.3724">
        <ele>282</ele>
        <time>2022-01-21T14:41:55.000Z</time>
      </trkpt>
      <trkpt lat="43.51385" lon="6.3724">
        <ele>282</ele>
        <time>2022-01-21T14:41:56.000Z</time>
      </trkpt>
      <trkpt lat="43.51385" lon="6.3724">
        <ele>282</ele>
        <time>2022-01-21T14:41:57.000Z</time>
      </trkpt>
      <trkpt lat="43.51385" lon="6.3724">
        <ele>282</ele>
        <time>2022-01-21T14:41:58.000Z</time>
      </trkpt>
      <trkpt lat="43.51385" lon="6.3724">
        <ele>282</ele>
        <time>2022-01-21T14:41:59.000Z</time>
      </trkpt>
      <trkpt lat="43.51385" lon="6.3724">
        <ele>282</ele>
        <time>2022-01-21T14:42:00.000Z</time>
      </trkpt>
      <trkpt lat="43.51385" lon="6.3724">
        <ele>282</ele>
        <time>2022-01-21T14:42:01.000Z</time>
      </trkpt>
      <trkpt lat="43.51385" lon="6.3724">
        <ele>282</ele>
        <time>2022-01-21T14:42:02.000Z</time>
      </trkpt>
      <trkpt lat="43.51385" lon="6.3724">
        <ele>282</ele>
        <time>2022-01-21T14:42:03.000Z</time>
      </trkpt>
      <trkpt lat="43.51385" lon="6.3724">
        <ele>282</ele>
        <time>2022-01-21T14:42:04.000Z</time>
      </trkpt>
      <trkpt lat="43.51385" lon="6.37239">
        <ele>282</ele>
        <time>2022-01-21T14:42:05.000Z</time>
      </trkpt>
      <trkpt lat="43.51385" lon="6.37239">
        <ele>282</ele>
        <time>2022-01-21T14:42:06.000Z</time>
      </trkpt>
      <trkpt lat="43.51385" lon="6.37239">
        <ele>282</ele>
        <time>2022-01-21T14:42:07.000Z</time>
      </trkpt>
      <trkpt lat="43.51385" lon="6.37238">
        <ele>282</ele>
        <time>2022-01-21T14:42:08.000Z</time>
      </trkpt>
      <trkpt lat="43.51386" lon="6.37238">
        <ele>282</ele>
        <time>2022-01-21T14:42:09.000Z</time>
      </trkpt>
      <trkpt lat="43.51386" lon="6.37237">
        <ele>282</ele>
        <time>2022-01-21T14:42:10.000Z</time>
      </trkpt>
      <trkpt lat="43.51386" lon="6.37237">
        <ele>282</ele>
        <time>2022-01-21T14:42:11.000Z</time>
      </trkpt>
      <trkpt lat="43.51386" lon="6.37236">
        <ele>282</ele>
        <time>2022-01-21T14:42:12.000Z</time>
      </trkpt>
      <trkpt lat="43.51386" lon="6.37236">
        <ele>282</ele>
        <time>2022-01-21T14:42:13.000Z</time>
      </trkpt>
      <trkpt lat="43.51386" lon="6.37235">
        <ele>282</ele>
        <time>2022-01-21T14:42:14.000Z</time>
      </trkpt>
      <trkpt lat="43.51387" lon="6.37235">
        <ele>282</ele>
        <time>2022-01-21T14:42:15.000Z</time>
      </trkpt>
      <trkpt lat="43.51387" lon="6.37235">
        <ele>282</ele>
        <time>2022-01-21T14:42:16.000Z</time>
      </trkpt>
      <trkpt lat="43.51387" lon="6.37234">
        <ele>282</ele>
        <time>2022-01-21T14:42:17.000Z</time>
      </trkpt>
      <trkpt lat="43.51387" lon="6.37234">
        <ele>282</ele>
        <time>2022-01-21T14:42:18.000Z</time>
      </trkpt>
      <trkpt lat="43.51388" lon="6.37233">
        <ele>282</ele>
        <time>2022-01-21T14:42:19.000Z</time>
      </trkpt>
      <trkpt lat="43.51388" lon="6.37233">
        <ele>282</ele>
        <time>2022-01-21T14:42:20.000Z</time>
      </trkpt>
      <trkpt lat="43.51388" lon="6.37233">
        <ele>282</ele>
        <time>2022-01-21T14:42:21.000Z</time>
      </trkpt>
      <trkpt lat="43.51388" lon="6.37233">
        <ele>282</ele>
        <time>2022-01-21T14:42:22.000Z</time>
      </trkpt>
      <trkpt lat="43.51388" lon="6.37232">
        <ele>282</ele>
        <time>2022-01-21T14:42:23.000Z</time>
      </trkpt>
      <trkpt lat="43.51389" lon="6.37232">
        <ele>282</ele>
        <time>2022-01-21T14:42:24.000Z</time>
      </trkpt>
      <trkpt lat="43.51389" lon="6.37232">
        <ele>282</ele>
        <time>2022-01-21T14:42:25.000Z</time>
      </trkpt>
      <trkpt lat="43.51389" lon="6.37232">
        <ele>282</ele>
        <time>2022-01-21T14:42:26.000Z</time>
      </trkpt>
      <trkpt lat="43.51389" lon="6.37232">
        <ele>282</ele>
        <time>2022-01-21T14:42:27.000Z</time>
      </trkpt>
      <trkpt lat="43.51389" lon="6.37232">
        <ele>282</ele>
        <time>2022-01-21T14:42:28.000Z</time>
      </trkpt>
      <trkpt lat="43.51389" lon="6.37232">
        <ele>282</ele>
        <time>2022-01-21T14:42:29.000Z</time>
      </trkpt>
      <trkpt lat="43.51389" lon="6.37232">
        <ele>282</ele>
        <time>2022-01-21T14:42:30.000Z</time>
      </trkpt>
      <trkpt lat="43.51389" lon="6.37232">
        <ele>282</ele>
        <time>2022-01-21T14:42:31.000Z</time>
      </trkpt>
      <trkpt lat="43.51389" lon="6.37232">
        <ele>282</ele>
        <time>2022-01-21T14:42:32.000Z</time>
      </trkpt>
      <trkpt lat="43.51389" lon="6.37231">
        <ele>282</ele>
        <time>2022-01-21T14:42:33.000Z</time>
      </trkpt>
      <trkpt lat="43.51389" lon="6.37231">
        <ele>282</ele>
        <time>2022-01-21T14:42:34.000Z</time>
      </trkpt>
      <trkpt lat="43.5139" lon="6.37231">
        <ele>282</ele>
        <time>2022-01-21T14:42:35.000Z</time>
      </trkpt>
      <trkpt lat="43.5139" lon="6.37231">
        <ele>282</ele>
        <time>2022-01-21T14:42:36.000Z</time>
      </trkpt>
      <trkpt lat="43.51391" lon="6.37231">
        <ele>281</ele>
        <time>2022-01-21T14:42:37.000Z</time>
      </trkpt>
      <trkpt lat="43.51391" lon="6.3723">
        <ele>281</ele>
        <time>2022-01-21T14:42:38.000Z</time>
      </trkpt>
      <trkpt lat="43.51391" lon="6.3723">
        <ele>281</ele>
        <time>2022-01-21T14:42:39.000Z</time>
      </trkpt>
      <trkpt lat="43.51391" lon="6.3723">
        <ele>281</ele>
        <time>2022-01-21T14:42:40.000Z</time>
      </trkpt>
      <trkpt lat="43.51392" lon="6.3723">
        <ele>281</ele>
        <time>2022-01-21T14:42:41.000Z</time>
      </trkpt>
      <trkpt lat="43.51392" lon="6.37231">
        <ele>281</ele>
        <time>2022-01-21T14:42:42.000Z</time>
      </trkpt>
      <trkpt lat="43.51393" lon="6.3723">
        <ele>281</ele>
        <time>2022-01-21T14:42:43.000Z</time>
      </trkpt>
      <trkpt lat="43.51394" lon="6.3723">
        <ele>281</ele>
        <time>2022-01-21T14:42:44.000Z</time>
      </trkpt>
      <trkpt lat="43.51395" lon="6.37231">
        <ele>281</ele>
        <time>2022-01-21T14:42:45.000Z</time>
      </trkpt>
      <trkpt lat="43.51395" lon="6.37231">
        <ele>281</ele>
        <time>2022-01-21T14:42:46.000Z</time>
      </trkpt>
      <trkpt lat="43.51396" lon="6.37231">
        <ele>281</ele>
        <time>2022-01-21T14:42:47.000Z</time>
      </trkpt>
      <trkpt lat="43.51396" lon="6.37231">
        <ele>281</ele>
        <time>2022-01-21T14:42:48.000Z</time>
      </trkpt>
      <trkpt lat="43.51396" lon="6.37231">
        <ele>281</ele>
        <time>2022-01-21T14:42:49.000Z</time>
      </trkpt>
      <trkpt lat="43.51397" lon="6.37231">
        <ele>281</ele>
        <time>2022-01-21T14:42:50.000Z</time>
      </trkpt>
      <trkpt lat="43.51397" lon="6.37231">
        <ele>281</ele>
        <time>2022-01-21T14:42:51.000Z</time>
      </trkpt>
      <trkpt lat="43.51397" lon="6.37231">
        <ele>281</ele>
        <time>2022-01-21T14:42:52.000Z</time>
      </trkpt>
      <trkpt lat="43.51397" lon="6.37231">
        <ele>281</ele>
        <time>2022-01-21T14:42:53.000Z</time>
      </trkpt>
      <trkpt lat="43.51397" lon="6.37231">
        <ele>281</ele>
        <time>2022-01-21T14:42:54.000Z</time>
      </trkpt>
      <trkpt lat="43.51397" lon="6.37231">
        <ele>281</ele>
        <time>2022-01-21T14:42:55.000Z</time>
      </trkpt>
      <trkpt lat="43.51397" lon="6.37231">
        <ele>281</ele>
        <time>2022-01-21T14:42:56.000Z</time>
      </trkpt>
      <trkpt lat="43.51398" lon="6.37231">
        <ele>281</ele>
        <time>2022-01-21T14:42:57.000Z</time>
      </trkpt>
      <trkpt lat="43.51398" lon="6.37231">
        <ele>281</ele>
        <time>2022-01-21T14:42:58.000Z</time>
      </trkpt>
      <trkpt lat="43.51398" lon="6.37231">
        <ele>281</ele>
        <time>2022-01-21T14:42:59.000Z</time>
      </trkpt>
      <trkpt lat="43.51398" lon="6.37231">
        <ele>281</ele>
        <time>2022-01-21T14:43:00.000Z</time>
      </trkpt>
      <trkpt lat="43.51398" lon="6.37231">
        <ele>281</ele>
        <time>2022-01-21T14:43:01.000Z</time>
      </trkpt>
      <trkpt lat="43.51398" lon="6.37231">
        <ele>281</ele>
        <time>2022-01-21T14:43:02.000Z</time>
      </trkpt>
      <trkpt lat="43.51398" lon="6.37231">
        <ele>281</ele>
        <time>2022-01-21T14:43:03.000Z</time>
      </trkpt>
      <trkpt lat="43.51398" lon="6.37231">
        <ele>281</ele>
        <time>2022-01-21T14:43:04.000Z</time>
      </trkpt>
      <trkpt lat="43.51398" lon="6.37231">
        <ele>281</ele>
        <time>2022-01-21T14:43:05.000Z</time>
      </trkpt>
      <trkpt lat="43.51398" lon="6.37231">
        <ele>281</ele>
        <time>2022-01-21T14:43:06.000Z</time>
      </trkpt>
      <trkpt lat="43.51398" lon="6.37231">
        <ele>281</ele>
        <time>2022-01-21T14:43:07.000Z</time>
      </trkpt>
      <trkpt lat="43.51398" lon="6.37231">
        <ele>281</ele>
        <time>2022-01-21T14:43:08.000Z</time>
      </trkpt>
      <trkpt lat="43.51398" lon="6.37231">
        <ele>281</ele>
        <time>2022-01-21T14:43:09.000Z</time>
      </trkpt>
      <trkpt lat="43.51398" lon="6.37232">
        <ele>281</ele>
        <time>2022-01-21T14:43:10.000Z</time>
      </trkpt>
      <trkpt lat="43.51398" lon="6.37232">
        <ele>281</ele>
        <time>2022-01-21T14:43:11.000Z</time>
      </trkpt>
      <trkpt lat="43.51398" lon="6.37232">
        <ele>281</ele>
        <time>2022-01-21T14:43:12.000Z</time>
      </trkpt>
      <trkpt lat="43.51398" lon="6.37233">
        <ele>281</ele>
        <time>2022-01-21T14:43:13.000Z</time>
      </trkpt>
      <trkpt lat="43.51398" lon="6.37233">
        <ele>281</ele>
        <time>2022-01-21T14:43:14.000Z</time>
      </trkpt>
      <trkpt lat="43.51398" lon="6.37234">
        <ele>281</ele>
        <time>2022-01-21T14:43:15.000Z</time>
      </trkpt>
      <trkpt lat="43.51398" lon="6.37234">
        <ele>281</ele>
        <time>2022-01-21T14:43:16.000Z</time>
      </trkpt>
      <trkpt lat="43.51399" lon="6.37235">
        <ele>281</ele>
        <time>2022-01-21T14:43:17.000Z</time>
      </trkpt>
      <trkpt lat="43.51399" lon="6.37235">
        <ele>281</ele>
        <time>2022-01-21T14:43:18.000Z</time>
      </trkpt>
      <trkpt lat="43.51399" lon="6.37235">
        <ele>281</ele>
        <time>2022-01-21T14:43:19.000Z</time>
      </trkpt>
      <trkpt lat="43.51399" lon="6.37236">
        <ele>281</ele>
        <time>2022-01-21T14:43:20.000Z</time>
      </trkpt>
      <trkpt lat="43.51399" lon="6.37236">
        <ele>280</ele>
        <time>2022-01-21T14:43:21.000Z</time>
      </trkpt>
      <trkpt lat="43.51399" lon="6.37237">
        <ele>280</ele>
        <time>2022-01-21T14:43:22.000Z</time>
      </trkpt>
      <trkpt lat="43.514" lon="6.37237">
        <ele>280</ele>
        <time>2022-01-21T14:43:23.000Z</time>
      </trkpt>
      <trkpt lat="43.514" lon="6.37238">
        <ele>280</ele>
        <time>2022-01-21T14:43:24.000Z</time>
      </trkpt>
      <trkpt lat="43.514" lon="6.37238">
        <ele>280</ele>
        <time>2022-01-21T14:43:25.000Z</time>
      </trkpt>
      <trkpt lat="43.514" lon="6.37239">
        <ele>280</ele>
        <time>2022-01-21T14:43:26.000Z</time>
      </trkpt>
      <trkpt lat="43.514" lon="6.37239">
        <ele>280</ele>
        <time>2022-01-21T14:43:27.000Z</time>
      </trkpt>
      <trkpt lat="43.514" lon="6.37239">
        <ele>280</ele>
        <time>2022-01-21T14:43:28.000Z</time>
      </trkpt>
      <trkpt lat="43.514" lon="6.3724">
        <ele>280</ele>
        <time>2022-01-21T14:43:29.000Z</time>
      </trkpt>
      <trkpt lat="43.51399" lon="6.3724">
        <ele>280</ele>
        <time>2022-01-21T14:43:30.000Z</time>
      </trkpt>
      <trkpt lat="43.51399" lon="6.37241">
        <ele>280</ele>
        <time>2022-01-21T14:43:31.000Z</time>
      </trkpt>
      <trkpt lat="43.51399" lon="6.37241">
        <ele>280</ele>
        <time>2022-01-21T14:43:32.000Z</time>
      </trkpt>
      <trkpt lat="43.51399" lon="6.37241">
        <ele>280</ele>
        <time>2022-01-21T14:43:33.000Z</time>
      </trkpt>
      <trkpt lat="43.51399" lon="6.37241">
        <ele>280</ele>
        <time>2022-01-21T14:43:34.000Z</time>
      </trkpt>
      <trkpt lat="43.51399" lon="6.37241">
        <ele>280</ele>
        <time>2022-01-21T14:43:35.000Z</time>
      </trkpt>
      <trkpt lat="43.51399" lon="6.37241">
        <ele>280</ele>
        <time>2022-01-21T14:43:36.000Z</time>
      </trkpt>
      <trkpt lat="43.51399" lon="6.37242">
        <ele>280</ele>
        <time>2022-01-21T14:43:37.000Z</time>
      </trkpt>
      <trkpt lat="43.51399" lon="6.37242">
        <ele>280</ele>
        <time>2022-01-21T14:43:38.000Z</time>
      </trkpt>
      <trkpt lat="43.51399" lon="6.37242">
        <ele>280</ele>
        <time>2022-01-21T14:43:39.000Z</time>
      </trkpt>
      <trkpt lat="43.51399" lon="6.37242">
        <ele>280</ele>
        <time>2022-01-21T14:43:40.000Z</time>
      </trkpt>
      <trkpt lat="43.51399" lon="6.37242">
        <ele>280</ele>
        <time>2022-01-21T14:43:41.000Z</time>
      </trkpt>
      <trkpt lat="43.51399" lon="6.37242">
        <ele>280</ele>
        <time>2022-01-21T14:43:42.000Z</time>
      </trkpt>
      <trkpt lat="43.51398" lon="6.37243">
        <ele>280</ele>
        <time>2022-01-21T14:43:43.000Z</time>
      </trkpt>
      <trkpt lat="43.51398" lon="6.37243">
        <ele>280</ele>
        <time>2022-01-21T14:43:44.000Z</time>
      </trkpt>
      <trkpt lat="43.51397" lon="6.37243">
        <ele>280</ele>
        <time>2022-01-21T14:43:45.000Z</time>
      </trkpt>
      <trkpt lat="43.51397" lon="6.37244">
        <ele>280</ele>
        <time>2022-01-21T14:43:46.000Z</time>
      </trkpt>
      <trkpt lat="43.51396" lon="6.37244">
        <ele>280</ele>
        <time>2022-01-21T14:43:47.000Z</time>
      </trkpt>
      <trkpt lat="43.51395" lon="6.37244">
        <ele>280</ele>
        <time>2022-01-21T14:43:48.000Z</time>
      </trkpt>
      <trkpt lat="43.51395" lon="6.37245">
        <ele>280</ele>
        <time>2022-01-21T14:43:49.000Z</time>
      </trkpt>
      <trkpt lat="43.51394" lon="6.37245">
        <ele>280</ele>
        <time>2022-01-21T14:43:50.000Z</time>
      </trkpt>
      <trkpt lat="43.51393" lon="6.37245">
        <ele>280</ele>
        <time>2022-01-21T14:43:51.000Z</time>
      </trkpt>
      <trkpt lat="43.51393" lon="6.37246">
        <ele>280</ele>
        <time>2022-01-21T14:43:52.000Z</time>
      </trkpt>
      <trkpt lat="43.51392" lon="6.37246">
        <ele>280</ele>
        <time>2022-01-21T14:43:53.000Z</time>
      </trkpt>
      <trkpt lat="43.51391" lon="6.37247">
        <ele>281</ele>
        <time>2022-01-21T14:43:54.000Z</time>
      </trkpt>
      <trkpt lat="43.51391" lon="6.37248">
        <ele>281</ele>
        <time>2022-01-21T14:43:55.000Z</time>
      </trkpt>
      <trkpt lat="43.5139" lon="6.37249">
        <ele>281</ele>
        <time>2022-01-21T14:43:56.000Z</time>
      </trkpt>
      <trkpt lat="43.5139" lon="6.37249">
        <ele>281</ele>
        <time>2022-01-21T14:43:57.000Z</time>
      </trkpt>
      <trkpt lat="43.51389" lon="6.3725">
        <ele>281</ele>
        <time>2022-01-21T14:43:58.000Z</time>
      </trkpt>
      <trkpt lat="43.51388" lon="6.37251">
        <ele>281</ele>
        <time>2022-01-21T14:43:59.000Z</time>
      </trkpt>
      <trkpt lat="43.51388" lon="6.37252">
        <ele>281</ele>
        <time>2022-01-21T14:44:00.000Z</time>
      </trkpt>
      <trkpt lat="43.51387" lon="6.37254">
        <ele>281</ele>
        <time>2022-01-21T14:44:01.000Z</time>
      </trkpt>
      <trkpt lat="43.51387" lon="6.37254">
        <ele>281</ele>
        <time>2022-01-21T14:44:02.000Z</time>
      </trkpt>
      <trkpt lat="43.51386" lon="6.37255">
        <ele>281</ele>
        <time>2022-01-21T14:44:03.000Z</time>
      </trkpt>
      <trkpt lat="43.51386" lon="6.37256">
        <ele>281</ele>
        <time>2022-01-21T14:44:04.000Z</time>
      </trkpt>
      <trkpt lat="43.51386" lon="6.37256">
        <ele>281</ele>
        <time>2022-01-21T14:44:05.000Z</time>
      </trkpt>
      <trkpt lat="43.51385" lon="6.37257">
        <ele>281</ele>
        <time>2022-01-21T14:44:06.000Z</time>
      </trkpt>
      <trkpt lat="43.51385" lon="6.37257">
        <ele>281</ele>
        <time>2022-01-21T14:44:07.000Z</time>
      </trkpt>
      <trkpt lat="43.51385" lon="6.37257">
        <ele>281</ele>
        <time>2022-01-21T14:44:08.000Z</time>
      </trkpt>
      <trkpt lat="43.51385" lon="6.37257">
        <ele>281</ele>
        <time>2022-01-21T14:44:09.000Z</time>
      </trkpt>
      <trkpt lat="43.51385" lon="6.37257">
        <ele>281</ele>
        <time>2022-01-21T14:44:10.000Z</time>
      </trkpt>
      <trkpt lat="43.51385" lon="6.37257">
        <ele>281</ele>
        <time>2022-01-21T14:44:11.000Z</time>
      </trkpt>
      <trkpt lat="43.51385" lon="6.37257">
        <ele>281</ele>
        <time>2022-01-21T14:44:12.000Z</time>
      </trkpt>
      <trkpt lat="43.51385" lon="6.37257">
        <ele>281</ele>
        <time>2022-01-21T14:44:13.000Z</time>
      </trkpt>
      <trkpt lat="43.51384" lon="6.37257">
        <ele>281</ele>
        <time>2022-01-21T14:44:14.000Z</time>
      </trkpt>
      <trkpt lat="43.51384" lon="6.37257">
        <ele>281</ele>
        <time>2022-01-21T14:44:15.000Z</time>
      </trkpt>
      <trkpt lat="43.51383" lon="6.37257">
        <ele>281</ele>
        <time>2022-01-21T14:44:16.000Z</time>
      </trkpt>
      <trkpt lat="43.51383" lon="6.37256">
        <ele>281</ele>
        <time>2022-01-21T14:44:17.000Z</time>
      </trkpt>
      <trkpt lat="43.51382" lon="6.37256">
        <ele>281</ele>
        <time>2022-01-21T14:44:18.000Z</time>
      </trkpt>
      <trkpt lat="43.51382" lon="6.37256">
        <ele>281</ele>
        <time>2022-01-21T14:44:19.000Z</time>
      </trkpt>
      <trkpt lat="43.51381" lon="6.37255">
        <ele>281</ele>
        <time>2022-01-21T14:44:20.000Z</time>
      </trkpt>
      <trkpt lat="43.5138" lon="6.37255">
        <ele>281</ele>
        <time>2022-01-21T14:44:21.000Z</time>
      </trkpt>
      <trkpt lat="43.51379" lon="6.37255">
        <ele>281</ele>
        <time>2022-01-21T14:44:22.000Z</time>
      </trkpt>
      <trkpt lat="43.51378" lon="6.37254">
        <ele>281</ele>
        <time>2022-01-21T14:44:23.000Z</time>
      </trkpt>
      <trkpt lat="43.51378" lon="6.37254">
        <ele>281</ele>
        <time>2022-01-21T14:44:24.000Z</time>
      </trkpt>
      <trkpt lat="43.51378" lon="6.37254">
        <ele>281</ele>
        <time>2022-01-21T14:44:25.000Z</time>
      </trkpt>
      <trkpt lat="43.51377" lon="6.37254">
        <ele>281</ele>
        <time>2022-01-21T14:44:26.000Z</time>
      </trkpt>
      <trkpt lat="43.51377" lon="6.37254">
        <ele>281</ele>
        <time>2022-01-21T14:44:27.000Z</time>
      </trkpt>
      <trkpt lat="43.51376" lon="6.37254">
        <ele>281</ele>
        <time>2022-01-21T14:44:28.000Z</time>
      </trkpt>
      <trkpt lat="43.51375" lon="6.37254">
        <ele>281</ele>
        <time>2022-01-21T14:44:29.000Z</time>
      </trkpt>
      <trkpt lat="43.51374" lon="6.37254">
        <ele>280</ele>
        <time>2022-01-21T14:44:30.000Z</time>
      </trkpt>
      <trkpt lat="43.51373" lon="6.37254">
        <ele>280</ele>
        <time>2022-01-21T14:44:31.000Z</time>
      </trkpt>
      <trkpt lat="43.51372" lon="6.37254">
        <ele>280</ele>
        <time>2022-01-21T14:44:32.000Z</time>
      </trkpt>
      <trkpt lat="43.51372" lon="6.37254">
        <ele>280</ele>
        <time>2022-01-21T14:44:33.000Z</time>
      </trkpt>
      <trkpt lat="43.51372" lon="6.37254">
        <ele>280</ele>
        <time>2022-01-21T14:44:34.000Z</time>
      </trkpt>
      <trkpt lat="43.51371" lon="6.37253">
        <ele>280</ele>
        <time>2022-01-21T14:44:35.000Z</time>
      </trkpt>
      <trkpt lat="43.51371" lon="6.37253">
        <ele>280</ele>
        <time>2022-01-21T14:44:36.000Z</time>
      </trkpt>
      <trkpt lat="43.51371" lon="6.37253">
        <ele>280</ele>
        <time>2022-01-21T14:44:37.000Z</time>
      </trkpt>
      <trkpt lat="43.51371" lon="6.37253">
        <ele>280</ele>
        <time>2022-01-21T14:44:38.000Z</time>
      </trkpt>
      <trkpt lat="43.5137" lon="6.37253">
        <ele>280</ele>
        <time>2022-01-21T14:44:39.000Z</time>
      </trkpt>
      <trkpt lat="43.5137" lon="6.37253">
        <ele>280</ele>
        <time>2022-01-21T14:44:40.000Z</time>
      </trkpt>
      <trkpt lat="43.51369" lon="6.37253">
        <ele>280</ele>
        <time>2022-01-21T14:44:41.000Z</time>
      </trkpt>
      <trkpt lat="43.51368" lon="6.37253">
        <ele>280</ele>
        <time>2022-01-21T14:44:42.000Z</time>
      </trkpt>
      <trkpt lat="43.51367" lon="6.37252">
        <ele>280</ele>
        <time>2022-01-21T14:44:43.000Z</time>
      </trkpt>
      <trkpt lat="43.51366" lon="6.37252">
        <ele>280</ele>
        <time>2022-01-21T14:44:44.000Z</time>
      </trkpt>
      <trkpt lat="43.51366" lon="6.37252">
        <ele>280</ele>
        <time>2022-01-21T14:44:45.000Z</time>
      </trkpt>
      <trkpt lat="43.51365" lon="6.37252">
        <ele>280</ele>
        <time>2022-01-21T14:44:46.000Z</time>
      </trkpt>
      <trkpt lat="43.51365" lon="6.37251">
        <ele>280</ele>
        <time>2022-01-21T14:44:47.000Z</time>
      </trkpt>
      <trkpt lat="43.51365" lon="6.37251">
        <ele>280</ele>
        <time>2022-01-21T14:44:48.000Z</time>
      </trkpt>
      <trkpt lat="43.51364" lon="6.37251">
        <ele>280</ele>
        <time>2022-01-21T14:44:49.000Z</time>
      </trkpt>
      <trkpt lat="43.51363" lon="6.37251">
        <ele>280</ele>
        <time>2022-01-21T14:44:50.000Z</time>
      </trkpt>
      <trkpt lat="43.51362" lon="6.37251">
        <ele>280</ele>
        <time>2022-01-21T14:44:51.000Z</time>
      </trkpt>
      <trkpt lat="43.51361" lon="6.3725">
        <ele>280</ele>
        <time>2022-01-21T14:44:52.000Z</time>
      </trkpt>
      <trkpt lat="43.5136" lon="6.3725">
        <ele>280</ele>
        <time>2022-01-21T14:44:53.000Z</time>
      </trkpt>
      <trkpt lat="43.5136" lon="6.3725">
        <ele>280</ele>
        <time>2022-01-21T14:44:54.000Z</time>
      </trkpt>
      <trkpt lat="43.51359" lon="6.3725">
        <ele>280</ele>
        <time>2022-01-21T14:44:55.000Z</time>
      </trkpt>
      <trkpt lat="43.51359" lon="6.3725">
        <ele>280</ele>
        <time>2022-01-21T14:44:56.000Z</time>
      </trkpt>
      <trkpt lat="43.51359" lon="6.3725">
        <ele>279</ele>
        <time>2022-01-21T14:44:57.000Z</time>
      </trkpt>
      <trkpt lat="43.51358" lon="6.3725">
        <ele>279</ele>
        <time>2022-01-21T14:44:58.000Z</time>
      </trkpt>
      <trkpt lat="43.51358" lon="6.3725">
        <ele>279</ele>
        <time>2022-01-21T14:44:59.000Z</time>
      </trkpt>
      <trkpt lat="43.51358" lon="6.3725">
        <ele>279</ele>
        <time>2022-01-21T14:45:00.000Z</time>
      </trkpt>
      <trkpt lat="43.51357" lon="6.3725">
        <ele>279</ele>
        <time>2022-01-21T14:45:01.000Z</time>
      </trkpt>
      <trkpt lat="43.51357" lon="6.3725">
        <ele>279</ele>
        <time>2022-01-21T14:45:02.000Z</time>
      </trkpt>
      <trkpt lat="43.51357" lon="6.3725">
        <ele>279</ele>
        <time>2022-01-21T14:45:03.000Z</time>
      </trkpt>
      <trkpt lat="43.51357" lon="6.3725">
        <ele>279</ele>
        <time>2022-01-21T14:45:04.000Z</time>
      </trkpt>
      <trkpt lat="43.51357" lon="6.3725">
        <ele>279</ele>
        <time>2022-01-21T14:45:05.000Z</time>
      </trkpt>
      <trkpt lat="43.51356" lon="6.3725">
        <ele>279</ele>
        <time>2022-01-21T14:45:06.000Z</time>
      </trkpt>
      <trkpt lat="43.51355" lon="6.3725">
        <ele>279</ele>
        <time>2022-01-21T14:45:07.000Z</time>
      </trkpt>
      <trkpt lat="43.51354" lon="6.3725">
        <ele>280</ele>
        <time>2022-01-21T14:45:08.000Z</time>
      </trkpt>
      <trkpt lat="43.51353" lon="6.3725">
        <ele>280</ele>
        <time>2022-01-21T14:45:09.000Z</time>
      </trkpt>
      <trkpt lat="43.51352" lon="6.3725">
        <ele>280</ele>
        <time>2022-01-21T14:45:10.000Z</time>
      </trkpt>
      <trkpt lat="43.51352" lon="6.3725">
        <ele>280</ele>
        <time>2022-01-21T14:45:11.000Z</time>
      </trkpt>
      <trkpt lat="43.51352" lon="6.3725">
        <ele>280</ele>
        <time>2022-01-21T14:45:12.000Z</time>
      </trkpt>
      <trkpt lat="43.51351" lon="6.3725">
        <ele>280</ele>
        <time>2022-01-21T14:45:13.000Z</time>
      </trkpt>
      <trkpt lat="43.51351" lon="6.3725">
        <ele>280</ele>
        <time>2022-01-21T14:45:14.000Z</time>
      </trkpt>
      <trkpt lat="43.51351" lon="6.3725">
        <ele>280</ele>
        <time>2022-01-21T14:45:15.000Z</time>
      </trkpt>
      <trkpt lat="43.51351" lon="6.3725">
        <ele>280</ele>
        <time>2022-01-21T14:45:16.000Z</time>
      </trkpt>
      <trkpt lat="43.5135" lon="6.3725">
        <ele>280</ele>
        <time>2022-01-21T14:45:17.000Z</time>
      </trkpt>
      <trkpt lat="43.5135" lon="6.37249">
        <ele>280</ele>
        <time>2022-01-21T14:45:18.000Z</time>
      </trkpt>
      <trkpt lat="43.51349" lon="6.37249">
        <ele>280</ele>
        <time>2022-01-21T14:45:19.000Z</time>
      </trkpt>
      <trkpt lat="43.51348" lon="6.37248">
        <ele>280</ele>
        <time>2022-01-21T14:45:20.000Z</time>
      </trkpt>
      <trkpt lat="43.51347" lon="6.37248">
        <ele>280</ele>
        <time>2022-01-21T14:45:21.000Z</time>
      </trkpt>
      <trkpt lat="43.51346" lon="6.37247">
        <ele>280</ele>
        <time>2022-01-21T14:45:22.000Z</time>
      </trkpt>
      <trkpt lat="43.51345" lon="6.37247">
        <ele>280</ele>
        <time>2022-01-21T14:45:23.000Z</time>
      </trkpt>
      <trkpt lat="43.51343" lon="6.37247">
        <ele>280</ele>
        <time>2022-01-21T14:45:24.000Z</time>
      </trkpt>
      <trkpt lat="43.51341" lon="6.37247">
        <ele>280</ele>
        <time>2022-01-21T14:45:25.000Z</time>
      </trkpt>
      <trkpt lat="43.51339" lon="6.37246">
        <ele>280</ele>
        <time>2022-01-21T14:45:26.000Z</time>
      </trkpt>
      <trkpt lat="43.51337" lon="6.37246">
        <ele>281</ele>
        <time>2022-01-21T14:45:27.000Z</time>
      </trkpt>
      <trkpt lat="43.51336" lon="6.37245">
        <ele>281</ele>
        <time>2022-01-21T14:45:28.000Z</time>
      </trkpt>
      <trkpt lat="43.51335" lon="6.37245">
        <ele>281</ele>
        <time>2022-01-21T14:45:29.000Z</time>
      </trkpt>
      <trkpt lat="43.51334" lon="6.37245">
        <ele>281</ele>
        <time>2022-01-21T14:45:30.000Z</time>
      </trkpt>
      <trkpt lat="43.51334" lon="6.37244">
        <ele>281</ele>
        <time>2022-01-21T14:45:31.000Z</time>
      </trkpt>
      <trkpt lat="43.51333" lon="6.37244">
        <ele>281</ele>
        <time>2022-01-21T14:45:32.000Z</time>
      </trkpt>
      <trkpt lat="43.51332" lon="6.37244">
        <ele>281</ele>
        <time>2022-01-21T14:45:33.000Z</time>
      </trkpt>
      <trkpt lat="43.51331" lon="6.37244">
        <ele>281</ele>
        <time>2022-01-21T14:45:34.000Z</time>
      </trkpt>
      <trkpt lat="43.51331" lon="6.37243">
        <ele>281</ele>
        <time>2022-01-21T14:45:35.000Z</time>
      </trkpt>
      <trkpt lat="43.5133" lon="6.37243">
        <ele>281</ele>
        <time>2022-01-21T14:45:36.000Z</time>
      </trkpt>
      <trkpt lat="43.5133" lon="6.37243">
        <ele>281</ele>
        <time>2022-01-21T14:45:37.000Z</time>
      </trkpt>
      <trkpt lat="43.51329" lon="6.37243">
        <ele>281</ele>
        <time>2022-01-21T14:45:38.000Z</time>
      </trkpt>
      <trkpt lat="43.51329" lon="6.37243">
        <ele>281</ele>
        <time>2022-01-21T14:45:39.000Z</time>
      </trkpt>
      <trkpt lat="43.51329" lon="6.37243">
        <ele>282</ele>
        <time>2022-01-21T14:45:40.000Z</time>
      </trkpt>
      <trkpt lat="43.51328" lon="6.37243">
        <ele>282</ele>
        <time>2022-01-21T14:45:41.000Z</time>
      </trkpt>
      <trkpt lat="43.51328" lon="6.37243">
        <ele>282</ele>
        <time>2022-01-21T14:45:42.000Z</time>
      </trkpt>
      <trkpt lat="43.51328" lon="6.37243">
        <ele>282</ele>
        <time>2022-01-21T14:45:43.000Z</time>
      </trkpt>
      <trkpt lat="43.51327" lon="6.37243">
        <ele>282</ele>
        <time>2022-01-21T14:45:44.000Z</time>
      </trkpt>
      <trkpt lat="43.51326" lon="6.37242">
        <ele>282</ele>
        <time>2022-01-21T14:45:45.000Z</time>
      </trkpt>
      <trkpt lat="43.51326" lon="6.37242">
        <ele>282</ele>
        <time>2022-01-21T14:45:46.000Z</time>
      </trkpt>
      <trkpt lat="43.51325" lon="6.37242">
        <ele>282</ele>
        <time>2022-01-21T14:45:47.000Z</time>
      </trkpt>
      <trkpt lat="43.51325" lon="6.37241">
        <ele>282</ele>
        <time>2022-01-21T14:45:48.000Z</time>
      </trkpt>
      <trkpt lat="43.51324" lon="6.37241">
        <ele>282</ele>
        <time>2022-01-21T14:45:49.000Z</time>
      </trkpt>
      <trkpt lat="43.51324" lon="6.37241">
        <ele>282</ele>
        <time>2022-01-21T14:45:50.000Z</time>
      </trkpt>
      <trkpt lat="43.51324" lon="6.37241">
        <ele>282</ele>
        <time>2022-01-21T14:45:51.000Z</time>
      </trkpt>
      <trkpt lat="43.51323" lon="6.37241">
        <ele>282</ele>
        <time>2022-01-21T14:45:52.000Z</time>
      </trkpt>
      <trkpt lat="43.51323" lon="6.37241">
        <ele>283</ele>
        <time>2022-01-21T14:45:53.000Z</time>
      </trkpt>
      <trkpt lat="43.51323" lon="6.37241">
        <ele>283</ele>
        <time>2022-01-21T14:45:54.000Z</time>
      </trkpt>
      <trkpt lat="43.51323" lon="6.37241">
        <ele>283</ele>
        <time>2022-01-21T14:45:55.000Z</time>
      </trkpt>
      <trkpt lat="43.51323" lon="6.37241">
        <ele>283</ele>
        <time>2022-01-21T14:45:56.000Z</time>
      </trkpt>
      <trkpt lat="43.51322" lon="6.3724">
        <ele>283</ele>
        <time>2022-01-21T14:45:57.000Z</time>
      </trkpt>
      <trkpt lat="43.51321" lon="6.3724">
        <ele>283</ele>
        <time>2022-01-21T14:45:58.000Z</time>
      </trkpt>
      <trkpt lat="43.5132" lon="6.37239">
        <ele>283</ele>
        <time>2022-01-21T14:45:59.000Z</time>
      </trkpt>
      <trkpt lat="43.51319" lon="6.37239">
        <ele>282</ele>
        <time>2022-01-21T14:46:00.000Z</time>
      </trkpt>
      <trkpt lat="43.51318" lon="6.37238">
        <ele>283</ele>
        <time>2022-01-21T14:46:01.000Z</time>
      </trkpt>
      <trkpt lat="43.51317" lon="6.37238">
        <ele>283</ele>
        <time>2022-01-21T14:46:02.000Z</time>
      </trkpt>
      <trkpt lat="43.51316" lon="6.37237">
        <ele>283</ele>
        <time>2022-01-21T14:46:03.000Z</time>
      </trkpt>
      <trkpt lat="43.51314" lon="6.37236">
        <ele>283</ele>
        <time>2022-01-21T14:46:04.000Z</time>
      </trkpt>
      <trkpt lat="43.51312" lon="6.37236">
        <ele>283</ele>
        <time>2022-01-21T14:46:05.000Z</time>
      </trkpt>
      <trkpt lat="43.5131" lon="6.37235">
        <ele>284</ele>
        <time>2022-01-21T14:46:06.000Z</time>
      </trkpt>
      <trkpt lat="43.51308" lon="6.37235">
        <ele>285</ele>
        <time>2022-01-21T14:46:07.000Z</time>
      </trkpt>
      <trkpt lat="43.51306" lon="6.37235">
        <ele>285</ele>
        <time>2022-01-21T14:46:08.000Z</time>
      </trkpt>
      <trkpt lat="43.51305" lon="6.37234">
        <ele>286</ele>
        <time>2022-01-21T14:46:09.000Z</time>
      </trkpt>
      <trkpt lat="43.51304" lon="6.37234">
        <ele>286</ele>
        <time>2022-01-21T14:46:10.000Z</time>
      </trkpt>
      <trkpt lat="43.51303" lon="6.37234">
        <ele>286</ele>
        <time>2022-01-21T14:46:11.000Z</time>
      </trkpt>
      <trkpt lat="43.51302" lon="6.37233">
        <ele>286</ele>
        <time>2022-01-21T14:46:12.000Z</time>
      </trkpt>
      <trkpt lat="43.51301" lon="6.37233">
        <ele>286</ele>
        <time>2022-01-21T14:46:13.000Z</time>
      </trkpt>
      <trkpt lat="43.513" lon="6.37233">
        <ele>286</ele>
        <time>2022-01-21T14:46:14.000Z</time>
      </trkpt>
      <trkpt lat="43.513" lon="6.37233">
        <ele>286</ele>
        <time>2022-01-21T14:46:15.000Z</time>
      </trkpt>
      <trkpt lat="43.51299" lon="6.37232">
        <ele>286</ele>
        <time>2022-01-21T14:46:16.000Z</time>
      </trkpt>
      <trkpt lat="43.51298" lon="6.37232">
        <ele>286</ele>
        <time>2022-01-21T14:46:17.000Z</time>
      </trkpt>
      <trkpt lat="43.51297" lon="6.37232">
        <ele>286</ele>
        <time>2022-01-21T14:46:18.000Z</time>
      </trkpt>
      <trkpt lat="43.51296" lon="6.37232">
        <ele>286</ele>
        <time>2022-01-21T14:46:19.000Z</time>
      </trkpt>
      <trkpt lat="43.51296" lon="6.37231">
        <ele>286</ele>
        <time>2022-01-21T14:46:20.000Z</time>
      </trkpt>
      <trkpt lat="43.51295" lon="6.37231">
        <ele>286</ele>
        <time>2022-01-21T14:46:21.000Z</time>
      </trkpt>
      <trkpt lat="43.51295" lon="6.37231">
        <ele>286</ele>
        <time>2022-01-21T14:46:22.000Z</time>
      </trkpt>
      <trkpt lat="43.51294" lon="6.37231">
        <ele>286</ele>
        <time>2022-01-21T14:46:23.000Z</time>
      </trkpt>
      <trkpt lat="43.51294" lon="6.3723">
        <ele>286</ele>
        <time>2022-01-21T14:46:24.000Z</time>
      </trkpt>
      <trkpt lat="43.51293" lon="6.3723">
        <ele>286</ele>
        <time>2022-01-21T14:46:25.000Z</time>
      </trkpt>
      <trkpt lat="43.51293" lon="6.3723">
        <ele>286</ele>
        <time>2022-01-21T14:46:26.000Z</time>
      </trkpt>
      <trkpt lat="43.51293" lon="6.3723">
        <ele>286</ele>
        <time>2022-01-21T14:46:27.000Z</time>
      </trkpt>
      <trkpt lat="43.51292" lon="6.3723">
        <ele>286</ele>
        <time>2022-01-21T14:46:28.000Z</time>
      </trkpt>
      <trkpt lat="43.51292" lon="6.3723">
        <ele>286</ele>
        <time>2022-01-21T14:46:29.000Z</time>
      </trkpt>
      <trkpt lat="43.51292" lon="6.37229">
        <ele>286</ele>
        <time>2022-01-21T14:46:30.000Z</time>
      </trkpt>
      <trkpt lat="43.51292" lon="6.37229">
        <ele>286</ele>
        <time>2022-01-21T14:46:31.000Z</time>
      </trkpt>
      <trkpt lat="43.51292" lon="6.37229">
        <ele>286</ele>
        <time>2022-01-21T14:46:32.000Z</time>
      </trkpt>
      <trkpt lat="43.51292" lon="6.37229">
        <ele>286</ele>
        <time>2022-01-21T14:46:33.000Z</time>
      </trkpt>
      <trkpt lat="43.51291" lon="6.37229">
        <ele>286</ele>
        <time>2022-01-21T14:46:34.000Z</time>
      </trkpt>
      <trkpt lat="43.51291" lon="6.37229">
        <ele>286</ele>
        <time>2022-01-21T14:46:35.000Z</time>
      </trkpt>
      <trkpt lat="43.5129" lon="6.37228">
        <ele>286</ele>
        <time>2022-01-21T14:46:36.000Z</time>
      </trkpt>
      <trkpt lat="43.5129" lon="6.37228">
        <ele>286</ele>
        <time>2022-01-21T14:46:37.000Z</time>
      </trkpt>
      <trkpt lat="43.5129" lon="6.37228">
        <ele>286</ele>
        <time>2022-01-21T14:46:38.000Z</time>
      </trkpt>
      <trkpt lat="43.51289" lon="6.37227">
        <ele>286</ele>
        <time>2022-01-21T14:46:39.000Z</time>
      </trkpt>
      <trkpt lat="43.51289" lon="6.37227">
        <ele>287</ele>
        <time>2022-01-21T14:46:40.000Z</time>
      </trkpt>
      <trkpt lat="43.51289" lon="6.37227">
        <ele>287</ele>
        <time>2022-01-21T14:46:41.000Z</time>
      </trkpt>
      <trkpt lat="43.51288" lon="6.37227">
        <ele>287</ele>
        <time>2022-01-21T14:46:42.000Z</time>
      </trkpt>
      <trkpt lat="43.51288" lon="6.37227">
        <ele>287</ele>
        <time>2022-01-21T14:46:43.000Z</time>
      </trkpt>
      <trkpt lat="43.51288" lon="6.37227">
        <ele>287</ele>
        <time>2022-01-21T14:46:44.000Z</time>
      </trkpt>
      <trkpt lat="43.51288" lon="6.37227">
        <ele>287</ele>
        <time>2022-01-21T14:46:45.000Z</time>
      </trkpt>
      <trkpt lat="43.51288" lon="6.37227">
        <ele>287</ele>
        <time>2022-01-21T14:46:46.000Z</time>
      </trkpt>
      <trkpt lat="43.51288" lon="6.37226">
        <ele>287</ele>
        <time>2022-01-21T14:46:47.000Z</time>
      </trkpt>
      <trkpt lat="43.51287" lon="6.37226">
        <ele>287</ele>
        <time>2022-01-21T14:46:48.000Z</time>
      </trkpt>
      <trkpt lat="43.51287" lon="6.37226">
        <ele>287</ele>
        <time>2022-01-21T14:46:49.000Z</time>
      </trkpt>
      <trkpt lat="43.51286" lon="6.37226">
        <ele>287</ele>
        <time>2022-01-21T14:46:50.000Z</time>
      </trkpt>
      <trkpt lat="43.51285" lon="6.37226">
        <ele>287</ele>
        <time>2022-01-21T14:46:51.000Z</time>
      </trkpt>
      <trkpt lat="43.51285" lon="6.37226">
        <ele>287</ele>
        <time>2022-01-21T14:46:52.000Z</time>
      </trkpt>
      <trkpt lat="43.51284" lon="6.37226">
        <ele>287</ele>
        <time>2022-01-21T14:46:53.000Z</time>
      </trkpt>
      <trkpt lat="43.51284" lon="6.37225">
        <ele>287</ele>
        <time>2022-01-21T14:46:54.000Z</time>
      </trkpt>
      <trkpt lat="43.51283" lon="6.37225">
        <ele>287</ele>
        <time>2022-01-21T14:46:55.000Z</time>
      </trkpt>
      <trkpt lat="43.51283" lon="6.37225">
        <ele>287</ele>
        <time>2022-01-21T14:46:56.000Z</time>
      </trkpt>
      <trkpt lat="43.51282" lon="6.37224">
        <ele>287</ele>
        <time>2022-01-21T14:46:57.000Z</time>
      </trkpt>
      <trkpt lat="43.51282" lon="6.37224">
        <ele>287</ele>
        <time>2022-01-21T14:46:58.000Z</time>
      </trkpt>
      <trkpt lat="43.51281" lon="6.37224">
        <ele>287</ele>
        <time>2022-01-21T14:46:59.000Z</time>
      </trkpt>
      <trkpt lat="43.51281" lon="6.37224">
        <ele>287</ele>
        <time>2022-01-21T14:47:00.000Z</time>
      </trkpt>
      <trkpt lat="43.51281" lon="6.37223">
        <ele>287</ele>
        <time>2022-01-21T14:47:01.000Z</time>
      </trkpt>
      <trkpt lat="43.5128" lon="6.37223">
        <ele>287</ele>
        <time>2022-01-21T14:47:02.000Z</time>
      </trkpt>
      <trkpt lat="43.5128" lon="6.37223">
        <ele>287</ele>
        <time>2022-01-21T14:47:03.000Z</time>
      </trkpt>
      <trkpt lat="43.5128" lon="6.37223">
        <ele>287</ele>
        <time>2022-01-21T14:47:04.000Z</time>
      </trkpt>
      <trkpt lat="43.5128" lon="6.37223">
        <ele>287</ele>
        <time>2022-01-21T14:47:05.000Z</time>
      </trkpt>
      <trkpt lat="43.5128" lon="6.37223">
        <ele>287</ele>
        <time>2022-01-21T14:47:06.000Z</time>
      </trkpt>
      <trkpt lat="43.5128" lon="6.37223">
        <ele>287</ele>
        <time>2022-01-21T14:47:07.000Z</time>
      </trkpt>
      <trkpt lat="43.51279" lon="6.37223">
        <ele>287</ele>
        <time>2022-01-21T14:47:08.000Z</time>
      </trkpt>
      <trkpt lat="43.51279" lon="6.37223">
        <ele>287</ele>
        <time>2022-01-21T14:47:09.000Z</time>
      </trkpt>
      <trkpt lat="43.51279" lon="6.37222">
        <ele>287</ele>
        <time>2022-01-21T14:47:10.000Z</time>
      </trkpt>
      <trkpt lat="43.51279" lon="6.37222">
        <ele>287</ele>
        <time>2022-01-21T14:47:11.000Z</time>
      </trkpt>
      <trkpt lat="43.51279" lon="6.37222">
        <ele>287</ele>
        <time>2022-01-21T14:47:12.000Z</time>
      </trkpt>
      <trkpt lat="43.51279" lon="6.37222">
        <ele>287</ele>
        <time>2022-01-21T14:47:13.000Z</time>
      </trkpt>
      <trkpt lat="43.51278" lon="6.37221">
        <ele>287</ele>
        <time>2022-01-21T14:47:14.000Z</time>
      </trkpt>
      <trkpt lat="43.51277" lon="6.37221">
        <ele>287</ele>
        <time>2022-01-21T14:47:15.000Z</time>
      </trkpt>
      <trkpt lat="43.51277" lon="6.3722">
        <ele>287</ele>
        <time>2022-01-21T14:47:16.000Z</time>
      </trkpt>
      <trkpt lat="43.51276" lon="6.3722">
        <ele>287</ele>
        <time>2022-01-21T14:47:17.000Z</time>
      </trkpt>
      <trkpt lat="43.51275" lon="6.3722">
        <ele>287</ele>
        <time>2022-01-21T14:47:18.000Z</time>
      </trkpt>
      <trkpt lat="43.51274" lon="6.37219">
        <ele>287</ele>
        <time>2022-01-21T14:47:19.000Z</time>
      </trkpt>
      <trkpt lat="43.51273" lon="6.37219">
        <ele>287</ele>
        <time>2022-01-21T14:47:20.000Z</time>
      </trkpt>
      <trkpt lat="43.51272" lon="6.37219">
        <ele>287</ele>
        <time>2022-01-21T14:47:21.000Z</time>
      </trkpt>
      <trkpt lat="43.51272" lon="6.37219">
        <ele>287</ele>
        <time>2022-01-21T14:47:22.000Z</time>
      </trkpt>
      <trkpt lat="43.51271" lon="6.37218">
        <ele>287</ele>
        <time>2022-01-21T14:47:23.000Z</time>
      </trkpt>
      <trkpt lat="43.51271" lon="6.37218">
        <ele>287</ele>
        <time>2022-01-21T14:47:24.000Z</time>
      </trkpt>
      <trkpt lat="43.51271" lon="6.37218">
        <ele>287</ele>
        <time>2022-01-21T14:47:25.000Z</time>
      </trkpt>
      <trkpt lat="43.5127" lon="6.37218">
        <ele>287</ele>
        <time>2022-01-21T14:47:26.000Z</time>
      </trkpt>
      <trkpt lat="43.5127" lon="6.37217">
        <ele>287</ele>
        <time>2022-01-21T14:47:27.000Z</time>
      </trkpt>
      <trkpt lat="43.5127" lon="6.37217">
        <ele>287</ele>
        <time>2022-01-21T14:47:28.000Z</time>
      </trkpt>
      <trkpt lat="43.5127" lon="6.37217">
        <ele>287</ele>
        <time>2022-01-21T14:47:29.000Z</time>
      </trkpt>
      <trkpt lat="43.51269" lon="6.37217">
        <ele>287</ele>
        <time>2022-01-21T14:47:30.000Z</time>
      </trkpt>
      <trkpt lat="43.51268" lon="6.37217">
        <ele>287</ele>
        <time>2022-01-21T14:47:31.000Z</time>
      </trkpt>
      <trkpt lat="43.51267" lon="6.37217">
        <ele>287</ele>
        <time>2022-01-21T14:47:32.000Z</time>
      </trkpt>
      <trkpt lat="43.51265" lon="6.37216">
        <ele>288</ele>
        <time>2022-01-21T14:47:33.000Z</time>
      </trkpt>
      <trkpt lat="43.51264" lon="6.37215">
        <ele>288</ele>
        <time>2022-01-21T14:47:34.000Z</time>
      </trkpt>
      <trkpt lat="43.51263" lon="6.37215">
        <ele>290</ele>
        <time>2022-01-21T14:47:35.000Z</time>
      </trkpt>
      <trkpt lat="43.51262" lon="6.37215">
        <ele>291</ele>
        <time>2022-01-21T14:47:36.000Z</time>
      </trkpt>
      <trkpt lat="43.51262" lon="6.37215">
        <ele>291</ele>
        <time>2022-01-21T14:47:37.000Z</time>
      </trkpt>
      <trkpt lat="43.51262" lon="6.37215">
        <ele>292</ele>
        <time>2022-01-21T14:47:38.000Z</time>
      </trkpt>
      <trkpt lat="43.51262" lon="6.37215">
        <ele>292</ele>
        <time>2022-01-21T14:47:39.000Z</time>
      </trkpt>
      <trkpt lat="43.51262" lon="6.37215">
        <ele>292</ele>
        <time>2022-01-21T14:47:40.000Z</time>
      </trkpt>
      <trkpt lat="43.51262" lon="6.37215">
        <ele>292</ele>
        <time>2022-01-21T14:47:41.000Z</time>
      </trkpt>
      <trkpt lat="43.51262" lon="6.37215">
        <ele>292</ele>
        <time>2022-01-21T14:47:42.000Z</time>
      </trkpt>
      <trkpt lat="43.51262" lon="6.37215">
        <ele>292</ele>
        <time>2022-01-21T14:47:43.000Z</time>
      </trkpt>
      <trkpt lat="43.51262" lon="6.37215">
        <ele>292</ele>
        <time>2022-01-21T14:47:44.000Z</time>
      </trkpt>
      <trkpt lat="43.51262" lon="6.37215">
        <ele>292</ele>
        <time>2022-01-21T14:47:45.000Z</time>
      </trkpt>
      <trkpt lat="43.51262" lon="6.37215">
        <ele>292</ele>
        <time>2022-01-21T14:47:46.000Z</time>
      </trkpt>
      <trkpt lat="43.51262" lon="6.37215">
        <ele>292</ele>
        <time>2022-01-21T14:47:47.000Z</time>
      </trkpt>
      <trkpt lat="43.51262" lon="6.37215">
        <ele>292</ele>
        <time>2022-01-21T14:47:48.000Z</time>
      </trkpt>
      <trkpt lat="43.51262" lon="6.37215">
        <ele>292</ele>
        <time>2022-01-21T14:47:49.000Z</time>
      </trkpt>
      <trkpt lat="43.51262" lon="6.37215">
        <ele>292</ele>
        <time>2022-01-21T14:47:50.000Z</time>
      </trkpt>
      <trkpt lat="43.51262" lon="6.37215">
        <ele>292</ele>
        <time>2022-01-21T14:47:51.000Z</time>
      </trkpt>
      <trkpt lat="43.51262" lon="6.37215">
        <ele>292</ele>
        <time>2022-01-21T14:47:52.000Z</time>
      </trkpt>
      <trkpt lat="43.51262" lon="6.37215">
        <ele>292</ele>
        <time>2022-01-21T14:47:53.000Z</time>
      </trkpt>
      <trkpt lat="43.51262" lon="6.37215">
        <ele>292</ele>
        <time>2022-01-21T14:47:54.000Z</time>
      </trkpt>
      <trkpt lat="43.51257" lon="6.37211">
        <ele>292</ele>
        <time>2022-01-21T14:47:55.000Z</time>
      </trkpt>
      <trkpt lat="43.51257" lon="6.37211">
        <ele>292</ele>
        <time>2022-01-21T14:47:56.000Z</time>
      </trkpt>
      <trkpt lat="43.51257" lon="6.37211">
        <ele>292</ele>
        <time>2022-01-21T14:47:57.000Z</time>
      </trkpt>
      <trkpt lat="43.51257" lon="6.37211">
        <ele>292</ele>
        <time>2022-01-21T14:47:58.000Z</time>
      </trkpt>
      <trkpt lat="43.51257" lon="6.37211">
        <ele>292</ele>
        <time>2022-01-21T14:47:59.000Z</time>
      </trkpt>
      <trkpt lat="43.51257" lon="6.37211">
        <ele>292</ele>
        <time>2022-01-21T14:48:00.000Z</time>
      </trkpt>
      <trkpt lat="43.51257" lon="6.37211">
        <ele>292</ele>
        <time>2022-01-21T14:48:01.000Z</time>
      </trkpt>
      <trkpt lat="43.51257" lon="6.37211">
        <ele>292</ele>
        <time>2022-01-21T14:48:02.000Z</time>
      </trkpt>
      <trkpt lat="43.51257" lon="6.37211">
        <ele>292</ele>
        <time>2022-01-21T14:48:03.000Z</time>
      </trkpt>
      <trkpt lat="43.51257" lon="6.37211">
        <ele>292</ele>
        <time>2022-01-21T14:48:04.000Z</time>
      </trkpt>
      <trkpt lat="43.51257" lon="6.37211">
        <ele>292</ele>
        <time>2022-01-21T14:48:05.000Z</time>
      </trkpt>
      <trkpt lat="43.51257" lon="6.37211">
        <ele>292</ele>
        <time>2022-01-21T14:48:06.000Z</time>
      </trkpt>
      <trkpt lat="43.51256" lon="6.37211">
        <ele>292</ele>
        <time>2022-01-21T14:48:07.000Z</time>
      </trkpt>
      <trkpt lat="43.51256" lon="6.37212">
        <ele>292</ele>
        <time>2022-01-21T14:48:08.000Z</time>
      </trkpt>
      <trkpt lat="43.51255" lon="6.37212">
        <ele>292</ele>
        <time>2022-01-21T14:48:09.000Z</time>
      </trkpt>
      <trkpt lat="43.51254" lon="6.37212">
        <ele>293</ele>
        <time>2022-01-21T14:48:10.000Z</time>
      </trkpt>
      <trkpt lat="43.51254" lon="6.37212">
        <ele>293</ele>
        <time>2022-01-21T14:48:11.000Z</time>
      </trkpt>
      <trkpt lat="43.51253" lon="6.37212">
        <ele>294</ele>
        <time>2022-01-21T14:48:12.000Z</time>
      </trkpt>
      <trkpt lat="43.51253" lon="6.37212">
        <ele>294</ele>
        <time>2022-01-21T14:48:13.000Z</time>
      </trkpt>
      <trkpt lat="43.51252" lon="6.37212">
        <ele>294</ele>
        <time>2022-01-21T14:48:14.000Z</time>
      </trkpt>
      <trkpt lat="43.51252" lon="6.37212">
        <ele>294</ele>
        <time>2022-01-21T14:48:15.000Z</time>
      </trkpt>
      <trkpt lat="43.51251" lon="6.37212">
        <ele>294</ele>
        <time>2022-01-21T14:48:16.000Z</time>
      </trkpt>
      <trkpt lat="43.5125" lon="6.37211">
        <ele>294</ele>
        <time>2022-01-21T14:48:17.000Z</time>
      </trkpt>
      <trkpt lat="43.51249" lon="6.37211">
        <ele>294</ele>
        <time>2022-01-21T14:48:18.000Z</time>
      </trkpt>
      <trkpt lat="43.51248" lon="6.37211">
        <ele>294</ele>
        <time>2022-01-21T14:48:19.000Z</time>
      </trkpt>
      <trkpt lat="43.51247" lon="6.3721">
        <ele>294</ele>
        <time>2022-01-21T14:48:20.000Z</time>
      </trkpt>
      <trkpt lat="43.51246" lon="6.3721">
        <ele>294</ele>
        <time>2022-01-21T14:48:21.000Z</time>
      </trkpt>
      <trkpt lat="43.51246" lon="6.3721">
        <ele>295</ele>
        <time>2022-01-21T14:48:22.000Z</time>
      </trkpt>
      <trkpt lat="43.51246" lon="6.3721">
        <ele>295</ele>
        <time>2022-01-21T14:48:23.000Z</time>
      </trkpt>
      <trkpt lat="43.51246" lon="6.3721">
        <ele>295</ele>
        <time>2022-01-21T14:48:24.000Z</time>
      </trkpt>
      <trkpt lat="43.51246" lon="6.3721">
        <ele>295</ele>
        <time>2022-01-21T14:48:25.000Z</time>
      </trkpt>
      <trkpt lat="43.51246" lon="6.3721">
        <ele>295</ele>
        <time>2022-01-21T14:48:26.000Z</time>
      </trkpt>
      <trkpt lat="43.51246" lon="6.3721">
        <ele>295</ele>
        <time>2022-01-21T14:48:27.000Z</time>
      </trkpt>
      <trkpt lat="43.51246" lon="6.3721">
        <ele>295</ele>
        <time>2022-01-21T14:48:28.000Z</time>
      </trkpt>
      <trkpt lat="43.51246" lon="6.3721">
        <ele>295</ele>
        <time>2022-01-21T14:48:29.000Z</time>
      </trkpt>
      <trkpt lat="43.51246" lon="6.3721">
        <ele>295</ele>
        <time>2022-01-21T14:48:30.000Z</time>
      </trkpt>
      <trkpt lat="43.51246" lon="6.3721">
        <ele>295</ele>
        <time>2022-01-21T14:48:31.000Z</time>
      </trkpt>
      <trkpt lat="43.51246" lon="6.3721">
        <ele>295</ele>
        <time>2022-01-21T14:48:32.000Z</time>
      </trkpt>
      <trkpt lat="43.51246" lon="6.3721">
        <ele>295</ele>
        <time>2022-01-21T14:48:33.000Z</time>
      </trkpt>
      <trkpt lat="43.51246" lon="6.3721">
        <ele>295</ele>
        <time>2022-01-21T14:48:34.000Z</time>
      </trkpt>
      <trkpt lat="43.51246" lon="6.3721">
        <ele>295</ele>
        <time>2022-01-21T14:48:35.000Z</time>
      </trkpt>
      <trkpt lat="43.51246" lon="6.3721">
        <ele>295</ele>
        <time>2022-01-21T14:48:36.000Z</time>
      </trkpt>
      <trkpt lat="43.51246" lon="6.3721">
        <ele>295</ele>
        <time>2022-01-21T14:48:37.000Z</time>
      </trkpt>
      <trkpt lat="43.51241" lon="6.37209">
        <ele>296</ele>
        <time>2022-01-21T14:48:38.000Z</time>
      </trkpt>
      <trkpt lat="43.51241" lon="6.37209">
        <ele>296</ele>
        <time>2022-01-21T14:48:39.000Z</time>
      </trkpt>
      <trkpt lat="43.5124" lon="6.3721">
        <ele>296</ele>
        <time>2022-01-21T14:48:40.000Z</time>
      </trkpt>
      <trkpt lat="43.5124" lon="6.37211">
        <ele>296</ele>
        <time>2022-01-21T14:48:41.000Z</time>
      </trkpt>
      <trkpt lat="43.5124" lon="6.37211">
        <ele>296</ele>
        <time>2022-01-21T14:48:42.000Z</time>
      </trkpt>
      <trkpt lat="43.5124" lon="6.37211">
        <ele>296</ele>
        <time>2022-01-21T14:48:43.000Z</time>
      </trkpt>
      <trkpt lat="43.51239" lon="6.37212">
        <ele>296</ele>
        <time>2022-01-21T14:48:44.000Z</time>
      </trkpt>
      <trkpt lat="43.51239" lon="6.37212">
        <ele>296</ele>
        <time>2022-01-21T14:48:45.000Z</time>
      </trkpt>
      <trkpt lat="43.51238" lon="6.37212">
        <ele>296</ele>
        <time>2022-01-21T14:48:46.000Z</time>
      </trkpt>
      <trkpt lat="43.51238" lon="6.37212">
        <ele>296</ele>
        <time>2022-01-21T14:48:47.000Z</time>
      </trkpt>
      <trkpt lat="43.51237" lon="6.37212">
        <ele>296</ele>
        <time>2022-01-21T14:48:48.000Z</time>
      </trkpt>
      <trkpt lat="43.51237" lon="6.37212">
        <ele>296</ele>
        <time>2022-01-21T14:48:49.000Z</time>
      </trkpt>
      <trkpt lat="43.51237" lon="6.37212">
        <ele>296</ele>
        <time>2022-01-21T14:48:50.000Z</time>
      </trkpt>
      <trkpt lat="43.51236" lon="6.37212">
        <ele>296</ele>
        <time>2022-01-21T14:48:51.000Z</time>
      </trkpt>
      <trkpt lat="43.51236" lon="6.37212">
        <ele>296</ele>
        <time>2022-01-21T14:48:52.000Z</time>
      </trkpt>
      <trkpt lat="43.51236" lon="6.37211">
        <ele>296</ele>
        <time>2022-01-21T14:48:53.000Z</time>
      </trkpt>
      <trkpt lat="43.51235" lon="6.37211">
        <ele>296</ele>
        <time>2022-01-21T14:48:54.000Z</time>
      </trkpt>
      <trkpt lat="43.51234" lon="6.37211">
        <ele>296</ele>
        <time>2022-01-21T14:48:55.000Z</time>
      </trkpt>
      <trkpt lat="43.51232" lon="6.37211">
        <ele>296</ele>
        <time>2022-01-21T14:48:56.000Z</time>
      </trkpt>
      <trkpt lat="43.51231" lon="6.37211">
        <ele>296</ele>
        <time>2022-01-21T14:48:57.000Z</time>
      </trkpt>
      <trkpt lat="43.51229" lon="6.37211">
        <ele>296</ele>
        <time>2022-01-21T14:48:58.000Z</time>
      </trkpt>
      <trkpt lat="43.51228" lon="6.37211">
        <ele>296</ele>
        <time>2022-01-21T14:48:59.000Z</time>
      </trkpt>
      <trkpt lat="43.51227" lon="6.37211">
        <ele>296</ele>
        <time>2022-01-21T14:49:00.000Z</time>
      </trkpt>
      <trkpt lat="43.51226" lon="6.37211">
        <ele>296</ele>
        <time>2022-01-21T14:49:01.000Z</time>
      </trkpt>
      <trkpt lat="43.51225" lon="6.37211">
        <ele>296</ele>
        <time>2022-01-21T14:49:02.000Z</time>
      </trkpt>
      <trkpt lat="43.51224" lon="6.37211">
        <ele>296</ele>
        <time>2022-01-21T14:49:03.000Z</time>
      </trkpt>
      <trkpt lat="43.51223" lon="6.3721">
        <ele>296</ele>
        <time>2022-01-21T14:49:04.000Z</time>
      </trkpt>
      <trkpt lat="43.51223" lon="6.3721">
        <ele>296</ele>
        <time>2022-01-21T14:49:05.000Z</time>
      </trkpt>
      <trkpt lat="43.51222" lon="6.3721">
        <ele>296</ele>
        <time>2022-01-21T14:49:06.000Z</time>
      </trkpt>
      <trkpt lat="43.5122" lon="6.3721">
        <ele>296</ele>
        <time>2022-01-21T14:49:07.000Z</time>
      </trkpt>
      <trkpt lat="43.51219" lon="6.37209">
        <ele>296</ele>
        <time>2022-01-21T14:49:08.000Z</time>
      </trkpt>
      <trkpt lat="43.51218" lon="6.37209">
        <ele>296</ele>
        <time>2022-01-21T14:49:09.000Z</time>
      </trkpt>
      <trkpt lat="43.51216" lon="6.37208">
        <ele>296</ele>
        <time>2022-01-21T14:49:10.000Z</time>
      </trkpt>
      <trkpt lat="43.51215" lon="6.37208">
        <ele>296</ele>
        <time>2022-01-21T14:49:11.000Z</time>
      </trkpt>
      <trkpt lat="43.51214" lon="6.37207">
        <ele>296</ele>
        <time>2022-01-21T14:49:12.000Z</time>
      </trkpt>
      <trkpt lat="43.51213" lon="6.37207">
        <ele>296</ele>
        <time>2022-01-21T14:49:13.000Z</time>
      </trkpt>
      <trkpt lat="43.51212" lon="6.37206">
        <ele>296</ele>
        <time>2022-01-21T14:49:14.000Z</time>
      </trkpt>
      <trkpt lat="43.51211" lon="6.37206">
        <ele>296</ele>
        <time>2022-01-21T14:49:15.000Z</time>
      </trkpt>
      <trkpt lat="43.51209" lon="6.37205">
        <ele>296</ele>
        <time>2022-01-21T14:49:16.000Z</time>
      </trkpt>
      <trkpt lat="43.51208" lon="6.37205">
        <ele>296</ele>
        <time>2022-01-21T14:49:17.000Z</time>
      </trkpt>
      <trkpt lat="43.51206" lon="6.37205">
        <ele>296</ele>
        <time>2022-01-21T14:49:18.000Z</time>
      </trkpt>
      <trkpt lat="43.51205" lon="6.37204">
        <ele>296</ele>
        <time>2022-01-21T14:49:19.000Z</time>
      </trkpt>
      <trkpt lat="43.51204" lon="6.37204">
        <ele>296</ele>
        <time>2022-01-21T14:49:20.000Z</time>
      </trkpt>
      <trkpt lat="43.51203" lon="6.37204">
        <ele>296</ele>
        <time>2022-01-21T14:49:21.000Z</time>
      </trkpt>
      <trkpt lat="43.51202" lon="6.37204">
        <ele>296</ele>
        <time>2022-01-21T14:49:22.000Z</time>
      </trkpt>
      <trkpt lat="43.512" lon="6.37203">
        <ele>296</ele>
        <time>2022-01-21T14:49:23.000Z</time>
      </trkpt>
      <trkpt lat="43.51198" lon="6.37203">
        <ele>296</ele>
        <time>2022-01-21T14:49:24.000Z</time>
      </trkpt>
      <trkpt lat="43.51197" lon="6.37203">
        <ele>296</ele>
        <time>2022-01-21T14:49:25.000Z</time>
      </trkpt>
      <trkpt lat="43.51195" lon="6.37202">
        <ele>296</ele>
        <time>2022-01-21T14:49:26.000Z</time>
      </trkpt>
      <trkpt lat="43.51194" lon="6.37202">
        <ele>297</ele>
        <time>2022-01-21T14:49:27.000Z</time>
      </trkpt>
      <trkpt lat="43.51193" lon="6.37202">
        <ele>297</ele>
        <time>2022-01-21T14:49:28.000Z</time>
      </trkpt>
      <trkpt lat="43.51192" lon="6.37202">
        <ele>297</ele>
        <time>2022-01-21T14:49:29.000Z</time>
      </trkpt>
      <trkpt lat="43.51191" lon="6.37201">
        <ele>297</ele>
        <time>2022-01-21T14:49:30.000Z</time>
      </trkpt>
      <trkpt lat="43.5119" lon="6.37201">
        <ele>297</ele>
        <time>2022-01-21T14:49:31.000Z</time>
      </trkpt>
      <trkpt lat="43.51189" lon="6.37201">
        <ele>297</ele>
        <time>2022-01-21T14:49:32.000Z</time>
      </trkpt>
      <trkpt lat="43.51189" lon="6.37201">
        <ele>297</ele>
        <time>2022-01-21T14:49:33.000Z</time>
      </trkpt>
      <trkpt lat="43.51188" lon="6.37201">
        <ele>297</ele>
        <time>2022-01-21T14:49:34.000Z</time>
      </trkpt>
      <trkpt lat="43.51187" lon="6.37201">
        <ele>298</ele>
        <time>2022-01-21T14:49:35.000Z</time>
      </trkpt>
      <trkpt lat="43.51186" lon="6.37201">
        <ele>298</ele>
        <time>2022-01-21T14:49:36.000Z</time>
      </trkpt>
      <trkpt lat="43.51185" lon="6.372">
        <ele>298</ele>
        <time>2022-01-21T14:49:37.000Z</time>
      </trkpt>
      <trkpt lat="43.51184" lon="6.372">
        <ele>298</ele>
        <time>2022-01-21T14:49:38.000Z</time>
      </trkpt>
      <trkpt lat="43.51182" lon="6.372">
        <ele>298</ele>
        <time>2022-01-21T14:49:39.000Z</time>
      </trkpt>
      <trkpt lat="43.51181" lon="6.372">
        <ele>298</ele>
        <time>2022-01-21T14:49:40.000Z</time>
      </trkpt>
      <trkpt lat="43.5118" lon="6.372">
        <ele>298</ele>
        <time>2022-01-21T14:49:41.000Z</time>
      </trkpt>
      <trkpt lat="43.51179" lon="6.372">
        <ele>298</ele>
        <time>2022-01-21T14:49:42.000Z</time>
      </trkpt>
      <trkpt lat="43.51178" lon="6.372">
        <ele>299</ele>
        <time>2022-01-21T14:49:43.000Z</time>
      </trkpt>
      <trkpt lat="43.51177" lon="6.372">
        <ele>299</ele>
        <time>2022-01-21T14:49:44.000Z</time>
      </trkpt>
      <trkpt lat="43.51176" lon="6.372">
        <ele>300</ele>
        <time>2022-01-21T14:49:45.000Z</time>
      </trkpt>
      <trkpt lat="43.51176" lon="6.372">
        <ele>301</ele>
        <time>2022-01-21T14:49:46.000Z</time>
      </trkpt>
      <trkpt lat="43.51175" lon="6.37199">
        <ele>301</ele>
        <time>2022-01-21T14:49:47.000Z</time>
      </trkpt>
      <trkpt lat="43.51174" lon="6.37199">
        <ele>301</ele>
        <time>2022-01-21T14:49:48.000Z</time>
      </trkpt>
      <trkpt lat="43.51173" lon="6.37199">
        <ele>302</ele>
        <time>2022-01-21T14:49:49.000Z</time>
      </trkpt>
      <trkpt lat="43.51172" lon="6.37199">
        <ele>302</ele>
        <time>2022-01-21T14:49:50.000Z</time>
      </trkpt>
      <trkpt lat="43.51171" lon="6.37199">
        <ele>302</ele>
        <time>2022-01-21T14:49:51.000Z</time>
      </trkpt>
      <trkpt lat="43.51169" lon="6.37199">
        <ele>302</ele>
        <time>2022-01-21T14:49:52.000Z</time>
      </trkpt>
      <trkpt lat="43.51168" lon="6.37199">
        <ele>302</ele>
        <time>2022-01-21T14:49:53.000Z</time>
      </trkpt>
      <trkpt lat="43.51167" lon="6.37199">
        <ele>302</ele>
        <time>2022-01-21T14:49:54.000Z</time>
      </trkpt>
      <trkpt lat="43.51166" lon="6.37199">
        <ele>303</ele>
        <time>2022-01-21T14:49:55.000Z</time>
      </trkpt>
      <trkpt lat="43.51166" lon="6.37199">
        <ele>303</ele>
        <time>2022-01-21T14:49:56.000Z</time>
      </trkpt>
      <trkpt lat="43.51165" lon="6.37199">
        <ele>303</ele>
        <time>2022-01-21T14:49:57.000Z</time>
      </trkpt>
      <trkpt lat="43.51165" lon="6.372">
        <ele>303</ele>
        <time>2022-01-21T14:49:58.000Z</time>
      </trkpt>
      <trkpt lat="43.51164" lon="6.372">
        <ele>303</ele>
        <time>2022-01-21T14:49:59.000Z</time>
      </trkpt>
      <trkpt lat="43.51163" lon="6.372">
        <ele>304</ele>
        <time>2022-01-21T14:50:00.000Z</time>
      </trkpt>
      <trkpt lat="43.51162" lon="6.372">
        <ele>304</ele>
        <time>2022-01-21T14:50:01.000Z</time>
      </trkpt>
      <trkpt lat="43.5116" lon="6.372">
        <ele>304</ele>
        <time>2022-01-21T14:50:02.000Z</time>
      </trkpt>
      <trkpt lat="43.51159" lon="6.372">
        <ele>304</ele>
        <time>2022-01-21T14:50:03.000Z</time>
      </trkpt>
      <trkpt lat="43.51158" lon="6.372">
        <ele>304</ele>
        <time>2022-01-21T14:50:04.000Z</time>
      </trkpt>
      <trkpt lat="43.51156" lon="6.37199">
        <ele>304</ele>
        <time>2022-01-21T14:50:05.000Z</time>
      </trkpt>
      <trkpt lat="43.51154" lon="6.37199">
        <ele>304</ele>
        <time>2022-01-21T14:50:06.000Z</time>
      </trkpt>
      <trkpt lat="43.51152" lon="6.37199">
        <ele>304</ele>
        <time>2022-01-21T14:50:07.000Z</time>
      </trkpt>
      <trkpt lat="43.51151" lon="6.37199">
        <ele>304</ele>
        <time>2022-01-21T14:50:08.000Z</time>
      </trkpt>
      <trkpt lat="43.5115" lon="6.37199">
        <ele>304</ele>
        <time>2022-01-21T14:50:09.000Z</time>
      </trkpt>
      <trkpt lat="43.51149" lon="6.37199">
        <ele>304</ele>
        <time>2022-01-21T14:50:10.000Z</time>
      </trkpt>
      <trkpt lat="43.51148" lon="6.37199">
        <ele>304</ele>
        <time>2022-01-21T14:50:11.000Z</time>
      </trkpt>
      <trkpt lat="43.51147" lon="6.37198">
        <ele>305</ele>
        <time>2022-01-21T14:50:12.000Z</time>
      </trkpt>
      <trkpt lat="43.51146" lon="6.37198">
        <ele>305</ele>
        <time>2022-01-21T14:50:13.000Z</time>
      </trkpt>
      <trkpt lat="43.51145" lon="6.37198">
        <ele>305</ele>
        <time>2022-01-21T14:50:14.000Z</time>
      </trkpt>
      <trkpt lat="43.51143" lon="6.37198">
        <ele>305</ele>
        <time>2022-01-21T14:50:15.000Z</time>
      </trkpt>
      <trkpt lat="43.51142" lon="6.37198">
        <ele>305</ele>
        <time>2022-01-21T14:50:16.000Z</time>
      </trkpt>
      <trkpt lat="43.51141" lon="6.37198">
        <ele>305</ele>
        <time>2022-01-21T14:50:17.000Z</time>
      </trkpt>
      <trkpt lat="43.5114" lon="6.37198">
        <ele>305</ele>
        <time>2022-01-21T14:50:18.000Z</time>
      </trkpt>
      <trkpt lat="43.51139" lon="6.37198">
        <ele>305</ele>
        <time>2022-01-21T14:50:19.000Z</time>
      </trkpt>
      <trkpt lat="43.51138" lon="6.37198">
        <ele>305</ele>
        <time>2022-01-21T14:50:20.000Z</time>
      </trkpt>
      <trkpt lat="43.51137" lon="6.37198">
        <ele>305</ele>
        <time>2022-01-21T14:50:21.000Z</time>
      </trkpt>
      <trkpt lat="43.51136" lon="6.37197">
        <ele>305</ele>
        <time>2022-01-21T14:50:22.000Z</time>
      </trkpt>
      <trkpt lat="43.51135" lon="6.37197">
        <ele>305</ele>
        <time>2022-01-21T14:50:23.000Z</time>
      </trkpt>
      <trkpt lat="43.51134" lon="6.37197">
        <ele>305</ele>
        <time>2022-01-21T14:50:24.000Z</time>
      </trkpt>
      <trkpt lat="43.51133" lon="6.37197">
        <ele>305</ele>
        <time>2022-01-21T14:50:25.000Z</time>
      </trkpt>
      <trkpt lat="43.51133" lon="6.37197">
        <ele>305</ele>
        <time>2022-01-21T14:50:26.000Z</time>
      </trkpt>
      <trkpt lat="43.51132" lon="6.37197">
        <ele>305</ele>
        <time>2022-01-21T14:50:27.000Z</time>
      </trkpt>
      <trkpt lat="43.51131" lon="6.37197">
        <ele>305</ele>
        <time>2022-01-21T14:50:28.000Z</time>
      </trkpt>
      <trkpt lat="43.5113" lon="6.37197">
        <ele>305</ele>
        <time>2022-01-21T14:50:29.000Z</time>
      </trkpt>
      <trkpt lat="43.51129" lon="6.37197">
        <ele>305</ele>
        <time>2022-01-21T14:50:30.000Z</time>
      </trkpt>
      <trkpt lat="43.51128" lon="6.37197">
        <ele>305</ele>
        <time>2022-01-21T14:50:31.000Z</time>
      </trkpt>
      <trkpt lat="43.51127" lon="6.37196">
        <ele>305</ele>
        <time>2022-01-21T14:50:32.000Z</time>
      </trkpt>
      <trkpt lat="43.51126" lon="6.37196">
        <ele>305</ele>
        <time>2022-01-21T14:50:33.000Z</time>
      </trkpt>
      <trkpt lat="43.51125" lon="6.37196">
        <ele>305</ele>
        <time>2022-01-21T14:50:34.000Z</time>
      </trkpt>
      <trkpt lat="43.51124" lon="6.37195">
        <ele>305</ele>
        <time>2022-01-21T14:50:35.000Z</time>
      </trkpt>
      <trkpt lat="43.51123" lon="6.37194">
        <ele>305</ele>
        <time>2022-01-21T14:50:36.000Z</time>
      </trkpt>
      <trkpt lat="43.51122" lon="6.37194">
        <ele>305</ele>
        <time>2022-01-21T14:50:37.000Z</time>
      </trkpt>
      <trkpt lat="43.51121" lon="6.37194">
        <ele>305</ele>
        <time>2022-01-21T14:50:38.000Z</time>
      </trkpt>
      <trkpt lat="43.5112" lon="6.37193">
        <ele>305</ele>
        <time>2022-01-21T14:50:39.000Z</time>
      </trkpt>
      <trkpt lat="43.51119" lon="6.37193">
        <ele>304</ele>
        <time>2022-01-21T14:50:40.000Z</time>
      </trkpt>
      <trkpt lat="43.51118" lon="6.37192">
        <ele>304</ele>
        <time>2022-01-21T14:50:41.000Z</time>
      </trkpt>
      <trkpt lat="43.51117" lon="6.37192">
        <ele>304</ele>
        <time>2022-01-21T14:50:42.000Z</time>
      </trkpt>
      <trkpt lat="43.51115" lon="6.37191">
        <ele>304</ele>
        <time>2022-01-21T14:50:43.000Z</time>
      </trkpt>
      <trkpt lat="43.51114" lon="6.37191">
        <ele>304</ele>
        <time>2022-01-21T14:50:44.000Z</time>
      </trkpt>
      <trkpt lat="43.51113" lon="6.37191">
        <ele>303</ele>
        <time>2022-01-21T14:50:45.000Z</time>
      </trkpt>
      <trkpt lat="43.51112" lon="6.3719">
        <ele>303</ele>
        <time>2022-01-21T14:50:46.000Z</time>
      </trkpt>
      <trkpt lat="43.51111" lon="6.3719">
        <ele>303</ele>
        <time>2022-01-21T14:50:47.000Z</time>
      </trkpt>
      <trkpt lat="43.5111" lon="6.3719">
        <ele>303</ele>
        <time>2022-01-21T14:50:48.000Z</time>
      </trkpt>
      <trkpt lat="43.51109" lon="6.37191">
        <ele>303</ele>
        <time>2022-01-21T14:50:49.000Z</time>
      </trkpt>
      <trkpt lat="43.51108" lon="6.37191">
        <ele>303</ele>
        <time>2022-01-21T14:50:50.000Z</time>
      </trkpt>
      <trkpt lat="43.51107" lon="6.37191">
        <ele>303</ele>
        <time>2022-01-21T14:50:51.000Z</time>
      </trkpt>
      <trkpt lat="43.51106" lon="6.37191">
        <ele>303</ele>
        <time>2022-01-21T14:50:52.000Z</time>
      </trkpt>
      <trkpt lat="43.51105" lon="6.37191">
        <ele>303</ele>
        <time>2022-01-21T14:50:53.000Z</time>
      </trkpt>
      <trkpt lat="43.51104" lon="6.37191">
        <ele>303</ele>
        <time>2022-01-21T14:50:54.000Z</time>
      </trkpt>
      <trkpt lat="43.51103" lon="6.37191">
        <ele>303</ele>
        <time>2022-01-21T14:50:55.000Z</time>
      </trkpt>
      <trkpt lat="43.51101" lon="6.37191">
        <ele>303</ele>
        <time>2022-01-21T14:50:56.000Z</time>
      </trkpt>
      <trkpt lat="43.511" lon="6.3719">
        <ele>303</ele>
        <time>2022-01-21T14:50:57.000Z</time>
      </trkpt>
      <trkpt lat="43.51098" lon="6.3719">
        <ele>304</ele>
        <time>2022-01-21T14:50:58.000Z</time>
      </trkpt>
      <trkpt lat="43.51097" lon="6.3719">
        <ele>304</ele>
        <time>2022-01-21T14:50:59.000Z</time>
      </trkpt>
      <trkpt lat="43.51095" lon="6.3719">
        <ele>305</ele>
        <time>2022-01-21T14:51:00.000Z</time>
      </trkpt>
      <trkpt lat="43.51094" lon="6.37189">
        <ele>305</ele>
        <time>2022-01-21T14:51:01.000Z</time>
      </trkpt>
      <trkpt lat="43.51092" lon="6.37189">
        <ele>305</ele>
        <time>2022-01-21T14:51:02.000Z</time>
      </trkpt>
      <trkpt lat="43.5109" lon="6.37189">
        <ele>305</ele>
        <time>2022-01-21T14:51:03.000Z</time>
      </trkpt>
      <trkpt lat="43.51089" lon="6.37189">
        <ele>305</ele>
        <time>2022-01-21T14:51:04.000Z</time>
      </trkpt>
      <trkpt lat="43.51087" lon="6.37189">
        <ele>305</ele>
        <time>2022-01-21T14:51:05.000Z</time>
      </trkpt>
      <trkpt lat="43.51086" lon="6.37189">
        <ele>305</ele>
        <time>2022-01-21T14:51:06.000Z</time>
      </trkpt>
      <trkpt lat="43.51084" lon="6.37188">
        <ele>305</ele>
        <time>2022-01-21T14:51:07.000Z</time>
      </trkpt>
      <trkpt lat="43.51083" lon="6.37188">
        <ele>305</ele>
        <time>2022-01-21T14:51:08.000Z</time>
      </trkpt>
      <trkpt lat="43.51082" lon="6.37187">
        <ele>305</ele>
        <time>2022-01-21T14:51:09.000Z</time>
      </trkpt>
      <trkpt lat="43.5108" lon="6.37187">
        <ele>305</ele>
        <time>2022-01-21T14:51:10.000Z</time>
      </trkpt>
      <trkpt lat="43.51078" lon="6.37187">
        <ele>306</ele>
        <time>2022-01-21T14:51:11.000Z</time>
      </trkpt>
      <trkpt lat="43.51077" lon="6.37187">
        <ele>306</ele>
        <time>2022-01-21T14:51:12.000Z</time>
      </trkpt>
      <trkpt lat="43.51076" lon="6.37187">
        <ele>306</ele>
        <time>2022-01-21T14:51:13.000Z</time>
      </trkpt>
      <trkpt lat="43.51075" lon="6.37187">
        <ele>306</ele>
        <time>2022-01-21T14:51:14.000Z</time>
      </trkpt>
      <trkpt lat="43.51073" lon="6.37187">
        <ele>306</ele>
        <time>2022-01-21T14:51:15.000Z</time>
      </trkpt>
      <trkpt lat="43.51072" lon="6.37187">
        <ele>306</ele>
        <time>2022-01-21T14:51:16.000Z</time>
      </trkpt>
      <trkpt lat="43.51071" lon="6.37187">
        <ele>305</ele>
        <time>2022-01-21T14:51:17.000Z</time>
      </trkpt>
      <trkpt lat="43.51069" lon="6.37187">
        <ele>305</ele>
        <time>2022-01-21T14:51:18.000Z</time>
      </trkpt>
      <trkpt lat="43.51068" lon="6.37187">
        <ele>305</ele>
        <time>2022-01-21T14:51:19.000Z</time>
      </trkpt>
      <trkpt lat="43.51066" lon="6.37187">
        <ele>305</ele>
        <time>2022-01-21T14:51:20.000Z</time>
      </trkpt>
      <trkpt lat="43.51065" lon="6.37187">
        <ele>305</ele>
        <time>2022-01-21T14:51:21.000Z</time>
      </trkpt>
      <trkpt lat="43.51063" lon="6.37187">
        <ele>305</ele>
        <time>2022-01-21T14:51:22.000Z</time>
      </trkpt>
      <trkpt lat="43.51062" lon="6.37188">
        <ele>305</ele>
        <time>2022-01-21T14:51:23.000Z</time>
      </trkpt>
      <trkpt lat="43.5106" lon="6.37188">
        <ele>304</ele>
        <time>2022-01-21T14:51:24.000Z</time>
      </trkpt>
      <trkpt lat="43.51059" lon="6.37188">
        <ele>304</ele>
        <time>2022-01-21T14:51:25.000Z</time>
      </trkpt>
      <trkpt lat="43.51058" lon="6.37188">
        <ele>304</ele>
        <time>2022-01-21T14:51:26.000Z</time>
      </trkpt>
      <trkpt lat="43.51057" lon="6.37189">
        <ele>304</ele>
        <time>2022-01-21T14:51:27.000Z</time>
      </trkpt>
      <trkpt lat="43.51056" lon="6.37189">
        <ele>304</ele>
        <time>2022-01-21T14:51:28.000Z</time>
      </trkpt>
      <trkpt lat="43.51054" lon="6.37188">
        <ele>304</ele>
        <time>2022-01-21T14:51:29.000Z</time>
      </trkpt>
      <trkpt lat="43.51053" lon="6.37188">
        <ele>304</ele>
        <time>2022-01-21T14:51:30.000Z</time>
      </trkpt>
      <trkpt lat="43.51052" lon="6.37188">
        <ele>304</ele>
        <time>2022-01-21T14:51:31.000Z</time>
      </trkpt>
      <trkpt lat="43.51051" lon="6.37189">
        <ele>304</ele>
        <time>2022-01-21T14:51:32.000Z</time>
      </trkpt>
      <trkpt lat="43.51051" lon="6.3719">
        <ele>304</ele>
        <time>2022-01-21T14:51:33.000Z</time>
      </trkpt>
      <trkpt lat="43.51051" lon="6.37193">
        <ele>304</ele>
        <time>2022-01-21T14:51:34.000Z</time>
      </trkpt>
      <trkpt lat="43.51051" lon="6.37194">
        <ele>305</ele>
        <time>2022-01-21T14:51:35.000Z</time>
      </trkpt>
      <trkpt lat="43.51051" lon="6.37195">
        <ele>305</ele>
        <time>2022-01-21T14:51:36.000Z</time>
      </trkpt>
      <trkpt lat="43.51051" lon="6.37195">
        <ele>305</ele>
        <time>2022-01-21T14:51:37.000Z</time>
      </trkpt>
      <trkpt lat="43.51051" lon="6.37196">
        <ele>305</ele>
        <time>2022-01-21T14:51:38.000Z</time>
      </trkpt>
      <trkpt lat="43.51051" lon="6.37196">
        <ele>305</ele>
        <time>2022-01-21T14:51:39.000Z</time>
      </trkpt>
      <trkpt lat="43.51051" lon="6.37196">
        <ele>305</ele>
        <time>2022-01-21T14:51:40.000Z</time>
      </trkpt>
      <trkpt lat="43.51051" lon="6.37197">
        <ele>305</ele>
        <time>2022-01-21T14:51:41.000Z</time>
      </trkpt>
      <trkpt lat="43.5105" lon="6.37197">
        <ele>305</ele>
        <time>2022-01-21T14:51:42.000Z</time>
      </trkpt>
      <trkpt lat="43.5105" lon="6.37197">
        <ele>305</ele>
        <time>2022-01-21T14:51:43.000Z</time>
      </trkpt>
      <trkpt lat="43.51051" lon="6.37198">
        <ele>305</ele>
        <time>2022-01-21T14:51:44.000Z</time>
      </trkpt>
      <trkpt lat="43.51051" lon="6.37198">
        <ele>305</ele>
        <time>2022-01-21T14:51:45.000Z</time>
      </trkpt>
      <trkpt lat="43.51051" lon="6.37199">
        <ele>305</ele>
        <time>2022-01-21T14:51:46.000Z</time>
      </trkpt>
      <trkpt lat="43.51051" lon="6.372">
        <ele>305</ele>
        <time>2022-01-21T14:51:47.000Z</time>
      </trkpt>
      <trkpt lat="43.51051" lon="6.372">
        <ele>305</ele>
        <time>2022-01-21T14:51:48.000Z</time>
      </trkpt>
      <trkpt lat="43.51051" lon="6.37201">
        <ele>305</ele>
        <time>2022-01-21T14:51:49.000Z</time>
      </trkpt>
      <trkpt lat="43.51052" lon="6.37202">
        <ele>305</ele>
        <time>2022-01-21T14:51:50.000Z</time>
      </trkpt>
      <trkpt lat="43.51052" lon="6.37203">
        <ele>305</ele>
        <time>2022-01-21T14:51:51.000Z</time>
      </trkpt>
      <trkpt lat="43.51052" lon="6.37204">
        <ele>305</ele>
        <time>2022-01-21T14:51:52.000Z</time>
      </trkpt>
      <trkpt lat="43.51053" lon="6.37205">
        <ele>305</ele>
        <time>2022-01-21T14:51:53.000Z</time>
      </trkpt>
      <trkpt lat="43.51053" lon="6.37206">
        <ele>305</ele>
        <time>2022-01-21T14:51:54.000Z</time>
      </trkpt>
      <trkpt lat="43.51054" lon="6.37207">
        <ele>305</ele>
        <time>2022-01-21T14:51:55.000Z</time>
      </trkpt>
      <trkpt lat="43.51054" lon="6.37208">
        <ele>305</ele>
        <time>2022-01-21T14:51:56.000Z</time>
      </trkpt>
      <trkpt lat="43.51054" lon="6.37209">
        <ele>305</ele>
        <time>2022-01-21T14:51:57.000Z</time>
      </trkpt>
      <trkpt lat="43.51055" lon="6.3721">
        <ele>305</ele>
        <time>2022-01-21T14:51:58.000Z</time>
      </trkpt>
      <trkpt lat="43.51055" lon="6.37211">
        <ele>305</ele>
        <time>2022-01-21T14:51:59.000Z</time>
      </trkpt>
      <trkpt lat="43.51055" lon="6.37212">
        <ele>305</ele>
        <time>2022-01-21T14:52:00.000Z</time>
      </trkpt>
      <trkpt lat="43.51056" lon="6.37214">
        <ele>305</ele>
        <time>2022-01-21T14:52:01.000Z</time>
      </trkpt>
      <trkpt lat="43.51056" lon="6.37215">
        <ele>305</ele>
        <time>2022-01-21T14:52:02.000Z</time>
      </trkpt>
      <trkpt lat="43.51056" lon="6.37217">
        <ele>305</ele>
        <time>2022-01-21T14:52:03.000Z</time>
      </trkpt>
      <trkpt lat="43.51056" lon="6.37218">
        <ele>306</ele>
        <time>2022-01-21T14:52:04.000Z</time>
      </trkpt>
      <trkpt lat="43.51057" lon="6.37221">
        <ele>306</ele>
        <time>2022-01-21T14:52:05.000Z</time>
      </trkpt>
      <trkpt lat="43.51057" lon="6.37222">
        <ele>306</ele>
        <time>2022-01-21T14:52:06.000Z</time>
      </trkpt>
      <trkpt lat="43.51058" lon="6.37224">
        <ele>306</ele>
        <time>2022-01-21T14:52:07.000Z</time>
      </trkpt>
      <trkpt lat="43.51059" lon="6.37226">
        <ele>306</ele>
        <time>2022-01-21T14:52:08.000Z</time>
      </trkpt>
      <trkpt lat="43.51059" lon="6.37227">
        <ele>306</ele>
        <time>2022-01-21T14:52:09.000Z</time>
      </trkpt>
      <trkpt lat="43.51059" lon="6.37229">
        <ele>306</ele>
        <time>2022-01-21T14:52:10.000Z</time>
      </trkpt>
      <trkpt lat="43.5106" lon="6.3723">
        <ele>306</ele>
        <time>2022-01-21T14:52:11.000Z</time>
      </trkpt>
      <trkpt lat="43.5106" lon="6.37231">
        <ele>306</ele>
        <time>2022-01-21T14:52:12.000Z</time>
      </trkpt>
      <trkpt lat="43.51061" lon="6.37232">
        <ele>306</ele>
        <time>2022-01-21T14:52:13.000Z</time>
      </trkpt>
      <trkpt lat="43.51061" lon="6.37233">
        <ele>306</ele>
        <time>2022-01-21T14:52:14.000Z</time>
      </trkpt>
      <trkpt lat="43.51062" lon="6.37235">
        <ele>306</ele>
        <time>2022-01-21T14:52:15.000Z</time>
      </trkpt>
      <trkpt lat="43.51062" lon="6.37236">
        <ele>306</ele>
        <time>2022-01-21T14:52:16.000Z</time>
      </trkpt>
      <trkpt lat="43.51063" lon="6.37237">
        <ele>306</ele>
        <time>2022-01-21T14:52:17.000Z</time>
      </trkpt>
      <trkpt lat="43.51063" lon="6.37238">
        <ele>306</ele>
        <time>2022-01-21T14:52:18.000Z</time>
      </trkpt>
      <trkpt lat="43.51064" lon="6.37239">
        <ele>307</ele>
        <time>2022-01-21T14:52:19.000Z</time>
      </trkpt>
      <trkpt lat="43.51064" lon="6.3724">
        <ele>307</ele>
        <time>2022-01-21T14:52:20.000Z</time>
      </trkpt>
      <trkpt lat="43.51064" lon="6.37241">
        <ele>307</ele>
        <time>2022-01-21T14:52:21.000Z</time>
      </trkpt>
      <trkpt lat="43.51064" lon="6.37242">
        <ele>307</ele>
        <time>2022-01-21T14:52:22.000Z</time>
      </trkpt>
      <trkpt lat="43.51065" lon="6.37242">
        <ele>307</ele>
        <time>2022-01-21T14:52:23.000Z</time>
      </trkpt>
      <trkpt lat="43.51065" lon="6.37243">
        <ele>308</ele>
        <time>2022-01-21T14:52:24.000Z</time>
      </trkpt>
      <trkpt lat="43.51065" lon="6.37244">
        <ele>308</ele>
        <time>2022-01-21T14:52:25.000Z</time>
      </trkpt>
      <trkpt lat="43.51066" lon="6.37246">
        <ele>308</ele>
        <time>2022-01-21T14:52:26.000Z</time>
      </trkpt>
      <trkpt lat="43.51066" lon="6.37247">
        <ele>308</ele>
        <time>2022-01-21T14:52:27.000Z</time>
      </trkpt>
      <trkpt lat="43.51066" lon="6.37247">
        <ele>308</ele>
        <time>2022-01-21T14:52:28.000Z</time>
      </trkpt>
      <trkpt lat="43.51066" lon="6.37248">
        <ele>308</ele>
        <time>2022-01-21T14:52:29.000Z</time>
      </trkpt>
      <trkpt lat="43.51067" lon="6.37249">
        <ele>308</ele>
        <time>2022-01-21T14:52:30.000Z</time>
      </trkpt>
      <trkpt lat="43.51067" lon="6.37251">
        <ele>308</ele>
        <time>2022-01-21T14:52:31.000Z</time>
      </trkpt>
      <trkpt lat="43.51067" lon="6.37252">
        <ele>309</ele>
        <time>2022-01-21T14:52:32.000Z</time>
      </trkpt>
      <trkpt lat="43.51067" lon="6.37253">
        <ele>310</ele>
        <time>2022-01-21T14:52:33.000Z</time>
      </trkpt>
      <trkpt lat="43.51067" lon="6.37254">
        <ele>310</ele>
        <time>2022-01-21T14:52:34.000Z</time>
      </trkpt>
      <trkpt lat="43.51067" lon="6.37254">
        <ele>310</ele>
        <time>2022-01-21T14:52:35.000Z</time>
      </trkpt>
      <trkpt lat="43.51067" lon="6.37255">
        <ele>310</ele>
        <time>2022-01-21T14:52:36.000Z</time>
      </trkpt>
      <trkpt lat="43.51067" lon="6.37256">
        <ele>310</ele>
        <time>2022-01-21T14:52:37.000Z</time>
      </trkpt>
      <trkpt lat="43.51067" lon="6.37257">
        <ele>310</ele>
        <time>2022-01-21T14:52:38.000Z</time>
      </trkpt>
      <trkpt lat="43.51067" lon="6.37257">
        <ele>310</ele>
        <time>2022-01-21T14:52:39.000Z</time>
      </trkpt>
      <trkpt lat="43.51067" lon="6.37258">
        <ele>310</ele>
        <time>2022-01-21T14:52:40.000Z</time>
      </trkpt>
      <trkpt lat="43.51067" lon="6.37258">
        <ele>310</ele>
        <time>2022-01-21T14:52:41.000Z</time>
      </trkpt>
      <trkpt lat="43.51067" lon="6.37259">
        <ele>310</ele>
        <time>2022-01-21T14:52:42.000Z</time>
      </trkpt>
      <trkpt lat="43.51067" lon="6.37259">
        <ele>310</ele>
        <time>2022-01-21T14:52:43.000Z</time>
      </trkpt>
      <trkpt lat="43.51067" lon="6.37259">
        <ele>310</ele>
        <time>2022-01-21T14:52:44.000Z</time>
      </trkpt>
      <trkpt lat="43.51067" lon="6.37259">
        <ele>310</ele>
        <time>2022-01-21T14:52:45.000Z</time>
      </trkpt>
      <trkpt lat="43.51067" lon="6.3726">
        <ele>310</ele>
        <time>2022-01-21T14:52:46.000Z</time>
      </trkpt>
      <trkpt lat="43.51068" lon="6.3726">
        <ele>310</ele>
        <time>2022-01-21T14:52:47.000Z</time>
      </trkpt>
      <trkpt lat="43.51068" lon="6.3726">
        <ele>310</ele>
        <time>2022-01-21T14:52:48.000Z</time>
      </trkpt>
      <trkpt lat="43.51068" lon="6.3726">
        <ele>310</ele>
        <time>2022-01-21T14:52:49.000Z</time>
      </trkpt>
      <trkpt lat="43.51068" lon="6.3726">
        <ele>310</ele>
        <time>2022-01-21T14:52:50.000Z</time>
      </trkpt>
      <trkpt lat="43.51068" lon="6.3726">
        <ele>310</ele>
        <time>2022-01-21T14:52:51.000Z</time>
      </trkpt>
      <trkpt lat="43.51068" lon="6.3726">
        <ele>310</ele>
        <time>2022-01-21T14:52:52.000Z</time>
      </trkpt>
      <trkpt lat="43.51068" lon="6.3726">
        <ele>310</ele>
        <time>2022-01-21T14:52:53.000Z</time>
      </trkpt>
      <trkpt lat="43.51068" lon="6.3726">
        <ele>310</ele>
        <time>2022-01-21T14:52:54.000Z</time>
      </trkpt>
      <trkpt lat="43.51068" lon="6.37261">
        <ele>310</ele>
        <time>2022-01-21T14:52:55.000Z</time>
      </trkpt>
      <trkpt lat="43.51068" lon="6.37261">
        <ele>310</ele>
        <time>2022-01-21T14:52:56.000Z</time>
      </trkpt>
      <trkpt lat="43.51068" lon="6.37261">
        <ele>310</ele>
        <time>2022-01-21T14:52:57.000Z</time>
      </trkpt>
      <trkpt lat="43.51068" lon="6.37261">
        <ele>310</ele>
        <time>2022-01-21T14:52:58.000Z</time>
      </trkpt>
      <trkpt lat="43.51068" lon="6.37261">
        <ele>311</ele>
        <time>2022-01-21T14:52:59.000Z</time>
      </trkpt>
      <trkpt lat="43.51068" lon="6.37261">
        <ele>311</ele>
        <time>2022-01-21T14:53:00.000Z</time>
      </trkpt>
      <trkpt lat="43.51068" lon="6.37261">
        <ele>311</ele>
        <time>2022-01-21T14:53:01.000Z</time>
      </trkpt>
      <trkpt lat="43.51068" lon="6.37261">
        <ele>311</ele>
        <time>2022-01-21T14:53:02.000Z</time>
      </trkpt>
      <trkpt lat="43.51068" lon="6.37261">
        <ele>311</ele>
        <time>2022-01-21T14:53:03.000Z</time>
      </trkpt>
      <trkpt lat="43.51068" lon="6.37261">
        <ele>311</ele>
        <time>2022-01-21T14:53:04.000Z</time>
      </trkpt>
      <trkpt lat="43.51068" lon="6.37261">
        <ele>311</ele>
        <time>2022-01-21T14:53:05.000Z</time>
      </trkpt>
      <trkpt lat="43.51068" lon="6.37262">
        <ele>311</ele>
        <time>2022-01-21T14:53:06.000Z</time>
      </trkpt>
      <trkpt lat="43.51068" lon="6.37262">
        <ele>311</ele>
        <time>2022-01-21T14:53:07.000Z</time>
      </trkpt>
      <trkpt lat="43.51068" lon="6.37262">
        <ele>311</ele>
        <time>2022-01-21T14:53:08.000Z</time>
      </trkpt>
      <trkpt lat="43.51068" lon="6.37263">
        <ele>311</ele>
        <time>2022-01-21T14:53:09.000Z</time>
      </trkpt>
      <trkpt lat="43.51069" lon="6.37264">
        <ele>311</ele>
        <time>2022-01-21T14:53:10.000Z</time>
      </trkpt>
      <trkpt lat="43.51069" lon="6.37265">
        <ele>311</ele>
        <time>2022-01-21T14:53:11.000Z</time>
      </trkpt>
      <trkpt lat="43.5107" lon="6.37267">
        <ele>311</ele>
        <time>2022-01-21T14:53:12.000Z</time>
      </trkpt>
      <trkpt lat="43.51071" lon="6.37268">
        <ele>311</ele>
        <time>2022-01-21T14:53:13.000Z</time>
      </trkpt>
      <trkpt lat="43.51071" lon="6.37269">
        <ele>311</ele>
        <time>2022-01-21T14:53:14.000Z</time>
      </trkpt>
      <trkpt lat="43.51072" lon="6.3727">
        <ele>311</ele>
        <time>2022-01-21T14:53:15.000Z</time>
      </trkpt>
      <trkpt lat="43.51073" lon="6.37271">
        <ele>311</ele>
        <time>2022-01-21T14:53:16.000Z</time>
      </trkpt>
      <trkpt lat="43.51074" lon="6.37271">
        <ele>311</ele>
        <time>2022-01-21T14:53:17.000Z</time>
      </trkpt>
      <trkpt lat="43.51074" lon="6.37272">
        <ele>311</ele>
        <time>2022-01-21T14:53:18.000Z</time>
      </trkpt>
      <trkpt lat="43.51075" lon="6.37273">
        <ele>311</ele>
        <time>2022-01-21T14:53:19.000Z</time>
      </trkpt>
      <trkpt lat="43.51076" lon="6.37274">
        <ele>311</ele>
        <time>2022-01-21T14:53:20.000Z</time>
      </trkpt>
      <trkpt lat="43.51076" lon="6.37275">
        <ele>311</ele>
        <time>2022-01-21T14:53:21.000Z</time>
      </trkpt>
      <trkpt lat="43.51077" lon="6.37276">
        <ele>311</ele>
        <time>2022-01-21T14:53:22.000Z</time>
      </trkpt>
      <trkpt lat="43.51077" lon="6.37276">
        <ele>311</ele>
        <time>2022-01-21T14:53:23.000Z</time>
      </trkpt>
      <trkpt lat="43.51077" lon="6.37277">
        <ele>311</ele>
        <time>2022-01-21T14:53:24.000Z</time>
      </trkpt>
      <trkpt lat="43.51077" lon="6.37277">
        <ele>311</ele>
        <time>2022-01-21T14:53:25.000Z</time>
      </trkpt>
      <trkpt lat="43.51078" lon="6.37278">
        <ele>311</ele>
        <time>2022-01-21T14:53:26.000Z</time>
      </trkpt>
      <trkpt lat="43.51078" lon="6.3728">
        <ele>311</ele>
        <time>2022-01-21T14:53:27.000Z</time>
      </trkpt>
      <trkpt lat="43.51079" lon="6.37282">
        <ele>311</ele>
        <time>2022-01-21T14:53:28.000Z</time>
      </trkpt>
      <trkpt lat="43.51079" lon="6.37284">
        <ele>311</ele>
        <time>2022-01-21T14:53:29.000Z</time>
      </trkpt>
      <trkpt lat="43.5108" lon="6.37285">
        <ele>311</ele>
        <time>2022-01-21T14:53:30.000Z</time>
      </trkpt>
      <trkpt lat="43.5108" lon="6.37287">
        <ele>311</ele>
        <time>2022-01-21T14:53:31.000Z</time>
      </trkpt>
      <trkpt lat="43.5108" lon="6.37288">
        <ele>312</ele>
        <time>2022-01-21T14:53:32.000Z</time>
      </trkpt>
      <trkpt lat="43.5108" lon="6.37288">
        <ele>313</ele>
        <time>2022-01-21T14:53:33.000Z</time>
      </trkpt>
      <trkpt lat="43.51081" lon="6.37289">
        <ele>313</ele>
        <time>2022-01-21T14:53:34.000Z</time>
      </trkpt>
      <trkpt lat="43.51081" lon="6.3729">
        <ele>313</ele>
        <time>2022-01-21T14:53:35.000Z</time>
      </trkpt>
      <trkpt lat="43.51081" lon="6.37291">
        <ele>313</ele>
        <time>2022-01-21T14:53:36.000Z</time>
      </trkpt>
      <trkpt lat="43.51081" lon="6.37292">
        <ele>313</ele>
        <time>2022-01-21T14:53:37.000Z</time>
      </trkpt>
      <trkpt lat="43.51082" lon="6.37293">
        <ele>313</ele>
        <time>2022-01-21T14:53:38.000Z</time>
      </trkpt>
      <trkpt lat="43.51082" lon="6.37294">
        <ele>313</ele>
        <time>2022-01-21T14:53:39.000Z</time>
      </trkpt>
      <trkpt lat="43.51082" lon="6.37295">
        <ele>313</ele>
        <time>2022-01-21T14:53:40.000Z</time>
      </trkpt>
      <trkpt lat="43.51083" lon="6.37296">
        <ele>313</ele>
        <time>2022-01-21T14:53:41.000Z</time>
      </trkpt>
      <trkpt lat="43.51083" lon="6.37298">
        <ele>313</ele>
        <time>2022-01-21T14:53:42.000Z</time>
      </trkpt>
      <trkpt lat="43.51083" lon="6.37299">
        <ele>313</ele>
        <time>2022-01-21T14:53:43.000Z</time>
      </trkpt>
      <trkpt lat="43.51083" lon="6.373">
        <ele>313</ele>
        <time>2022-01-21T14:53:44.000Z</time>
      </trkpt>
      <trkpt lat="43.51084" lon="6.37301">
        <ele>313</ele>
        <time>2022-01-21T14:53:45.000Z</time>
      </trkpt>
      <trkpt lat="43.51084" lon="6.37301">
        <ele>313</ele>
        <time>2022-01-21T14:53:46.000Z</time>
      </trkpt>
      <trkpt lat="43.51084" lon="6.37301">
        <ele>313</ele>
        <time>2022-01-21T14:53:47.000Z</time>
      </trkpt>
      <trkpt lat="43.51084" lon="6.37302">
        <ele>313</ele>
        <time>2022-01-21T14:53:48.000Z</time>
      </trkpt>
      <trkpt lat="43.51084" lon="6.37303">
        <ele>313</ele>
        <time>2022-01-21T14:53:49.000Z</time>
      </trkpt>
      <trkpt lat="43.51084" lon="6.37303">
        <ele>313</ele>
        <time>2022-01-21T14:53:50.000Z</time>
      </trkpt>
      <trkpt lat="43.51085" lon="6.37304">
        <ele>313</ele>
        <time>2022-01-21T14:53:51.000Z</time>
      </trkpt>
      <trkpt lat="43.51085" lon="6.37304">
        <ele>313</ele>
        <time>2022-01-21T14:53:52.000Z</time>
      </trkpt>
      <trkpt lat="43.51085" lon="6.37305">
        <ele>313</ele>
        <time>2022-01-21T14:53:53.000Z</time>
      </trkpt>
      <trkpt lat="43.51086" lon="6.37306">
        <ele>313</ele>
        <time>2022-01-21T14:53:54.000Z</time>
      </trkpt>
      <trkpt lat="43.51086" lon="6.37307">
        <ele>313</ele>
        <time>2022-01-21T14:53:55.000Z</time>
      </trkpt>
      <trkpt lat="43.51086" lon="6.37309">
        <ele>313</ele>
        <time>2022-01-21T14:53:56.000Z</time>
      </trkpt>
      <trkpt lat="43.51087" lon="6.3731">
        <ele>313</ele>
        <time>2022-01-21T14:53:57.000Z</time>
      </trkpt>
      <trkpt lat="43.51087" lon="6.37311">
        <ele>313</ele>
        <time>2022-01-21T14:53:58.000Z</time>
      </trkpt>
      <trkpt lat="43.51088" lon="6.37313">
        <ele>313</ele>
        <time>2022-01-21T14:53:59.000Z</time>
      </trkpt>
      <trkpt lat="43.51088" lon="6.37315">
        <ele>313</ele>
        <time>2022-01-21T14:54:00.000Z</time>
      </trkpt>
      <trkpt lat="43.51088" lon="6.37316">
        <ele>313</ele>
        <time>2022-01-21T14:54:01.000Z</time>
      </trkpt>
      <trkpt lat="43.51089" lon="6.37317">
        <ele>313</ele>
        <time>2022-01-21T14:54:02.000Z</time>
      </trkpt>
      <trkpt lat="43.51089" lon="6.37318">
        <ele>313</ele>
        <time>2022-01-21T14:54:03.000Z</time>
      </trkpt>
      <trkpt lat="43.51089" lon="6.37319">
        <ele>313</ele>
        <time>2022-01-21T14:54:04.000Z</time>
      </trkpt>
      <trkpt lat="43.5109" lon="6.3732">
        <ele>313</ele>
        <time>2022-01-21T14:54:05.000Z</time>
      </trkpt>
      <trkpt lat="43.5109" lon="6.37322">
        <ele>313</ele>
        <time>2022-01-21T14:54:06.000Z</time>
      </trkpt>
      <trkpt lat="43.51091" lon="6.37323">
        <ele>313</ele>
        <time>2022-01-21T14:54:07.000Z</time>
      </trkpt>
      <trkpt lat="43.51091" lon="6.37324">
        <ele>313</ele>
        <time>2022-01-21T14:54:08.000Z</time>
      </trkpt>
      <trkpt lat="43.51091" lon="6.37325">
        <ele>313</ele>
        <time>2022-01-21T14:54:09.000Z</time>
      </trkpt>
      <trkpt lat="43.51091" lon="6.37326">
        <ele>313</ele>
        <time>2022-01-21T14:54:10.000Z</time>
      </trkpt>
      <trkpt lat="43.51091" lon="6.37326">
        <ele>313</ele>
        <time>2022-01-21T14:54:11.000Z</time>
      </trkpt>
      <trkpt lat="43.51091" lon="6.37327">
        <ele>313</ele>
        <time>2022-01-21T14:54:12.000Z</time>
      </trkpt>
      <trkpt lat="43.51091" lon="6.37327">
        <ele>313</ele>
        <time>2022-01-21T14:54:13.000Z</time>
      </trkpt>
      <trkpt lat="43.51092" lon="6.37328">
        <ele>313</ele>
        <time>2022-01-21T14:54:14.000Z</time>
      </trkpt>
      <trkpt lat="43.51092" lon="6.37328">
        <ele>313</ele>
        <time>2022-01-21T14:54:15.000Z</time>
      </trkpt>
      <trkpt lat="43.51092" lon="6.3733">
        <ele>313</ele>
        <time>2022-01-21T14:54:16.000Z</time>
      </trkpt>
      <trkpt lat="43.51092" lon="6.37331">
        <ele>313</ele>
        <time>2022-01-21T14:54:17.000Z</time>
      </trkpt>
      <trkpt lat="43.51092" lon="6.37333">
        <ele>313</ele>
        <time>2022-01-21T14:54:18.000Z</time>
      </trkpt>
      <trkpt lat="43.51093" lon="6.37335">
        <ele>313</ele>
        <time>2022-01-21T14:54:19.000Z</time>
      </trkpt>
      <trkpt lat="43.51093" lon="6.37336">
        <ele>313</ele>
        <time>2022-01-21T14:54:20.000Z</time>
      </trkpt>
      <trkpt lat="43.51093" lon="6.37337">
        <ele>312</ele>
        <time>2022-01-21T14:54:21.000Z</time>
      </trkpt>
      <trkpt lat="43.51093" lon="6.37338">
        <ele>312</ele>
        <time>2022-01-21T14:54:22.000Z</time>
      </trkpt>
      <trkpt lat="43.51093" lon="6.37338">
        <ele>312</ele>
        <time>2022-01-21T14:54:23.000Z</time>
      </trkpt>
      <trkpt lat="43.51093" lon="6.37339">
        <ele>312</ele>
        <time>2022-01-21T14:54:24.000Z</time>
      </trkpt>
      <trkpt lat="43.51093" lon="6.37339">
        <ele>312</ele>
        <time>2022-01-21T14:54:25.000Z</time>
      </trkpt>
      <trkpt lat="43.51094" lon="6.3734">
        <ele>311</ele>
        <time>2022-01-21T14:54:26.000Z</time>
      </trkpt>
      <trkpt lat="43.51094" lon="6.3734">
        <ele>311</ele>
        <time>2022-01-21T14:54:27.000Z</time>
      </trkpt>
      <trkpt lat="43.51094" lon="6.37341">
        <ele>311</ele>
        <time>2022-01-21T14:54:28.000Z</time>
      </trkpt>
      <trkpt lat="43.51094" lon="6.37342">
        <ele>311</ele>
        <time>2022-01-21T14:54:29.000Z</time>
      </trkpt>
      <trkpt lat="43.51094" lon="6.37343">
        <ele>311</ele>
        <time>2022-01-21T14:54:30.000Z</time>
      </trkpt>
      <trkpt lat="43.51094" lon="6.37344">
        <ele>311</ele>
        <time>2022-01-21T14:54:31.000Z</time>
      </trkpt>
      <trkpt lat="43.51094" lon="6.37345">
        <ele>311</ele>
        <time>2022-01-21T14:54:32.000Z</time>
      </trkpt>
      <trkpt lat="43.51094" lon="6.37346">
        <ele>311</ele>
        <time>2022-01-21T14:54:33.000Z</time>
      </trkpt>
      <trkpt lat="43.51094" lon="6.37347">
        <ele>311</ele>
        <time>2022-01-21T14:54:34.000Z</time>
      </trkpt>
      <trkpt lat="43.51094" lon="6.37348">
        <ele>311</ele>
        <time>2022-01-21T14:54:35.000Z</time>
      </trkpt>
      <trkpt lat="43.51094" lon="6.37349">
        <ele>311</ele>
        <time>2022-01-21T14:54:36.000Z</time>
      </trkpt>
      <trkpt lat="43.51094" lon="6.3735">
        <ele>311</ele>
        <time>2022-01-21T14:54:37.000Z</time>
      </trkpt>
      <trkpt lat="43.51094" lon="6.37352">
        <ele>311</ele>
        <time>2022-01-21T14:54:38.000Z</time>
      </trkpt>
      <trkpt lat="43.51094" lon="6.37353">
        <ele>311</ele>
        <time>2022-01-21T14:54:39.000Z</time>
      </trkpt>
      <trkpt lat="43.51094" lon="6.37355">
        <ele>310</ele>
        <time>2022-01-21T14:54:40.000Z</time>
      </trkpt>
      <trkpt lat="43.51093" lon="6.37356">
        <ele>310</ele>
        <time>2022-01-21T14:54:41.000Z</time>
      </trkpt>
      <trkpt lat="43.51093" lon="6.37358">
        <ele>309</ele>
        <time>2022-01-21T14:54:42.000Z</time>
      </trkpt>
      <trkpt lat="43.51093" lon="6.37359">
        <ele>309</ele>
        <time>2022-01-21T14:54:43.000Z</time>
      </trkpt>
      <trkpt lat="43.51093" lon="6.37361">
        <ele>309</ele>
        <time>2022-01-21T14:54:44.000Z</time>
      </trkpt>
      <trkpt lat="43.51093" lon="6.37362">
        <ele>308</ele>
        <time>2022-01-21T14:54:45.000Z</time>
      </trkpt>
      <trkpt lat="43.51093" lon="6.37364">
        <ele>308</ele>
        <time>2022-01-21T14:54:46.000Z</time>
      </trkpt>
      <trkpt lat="43.51093" lon="6.37365">
        <ele>308</ele>
        <time>2022-01-21T14:54:47.000Z</time>
      </trkpt>
      <trkpt lat="43.51093" lon="6.37366">
        <ele>308</ele>
        <time>2022-01-21T14:54:48.000Z</time>
      </trkpt>
      <trkpt lat="43.51093" lon="6.37366">
        <ele>308</ele>
        <time>2022-01-21T14:54:49.000Z</time>
      </trkpt>
      <trkpt lat="43.51093" lon="6.37367">
        <ele>308</ele>
        <time>2022-01-21T14:54:50.000Z</time>
      </trkpt>
      <trkpt lat="43.51093" lon="6.37367">
        <ele>308</ele>
        <time>2022-01-21T14:54:51.000Z</time>
      </trkpt>
      <trkpt lat="43.51093" lon="6.37368">
        <ele>308</ele>
        <time>2022-01-21T14:54:52.000Z</time>
      </trkpt>
      <trkpt lat="43.51093" lon="6.37368">
        <ele>308</ele>
        <time>2022-01-21T14:54:53.000Z</time>
      </trkpt>
      <trkpt lat="43.51093" lon="6.37368">
        <ele>308</ele>
        <time>2022-01-21T14:54:54.000Z</time>
      </trkpt>
      <trkpt lat="43.51093" lon="6.37369">
        <ele>308</ele>
        <time>2022-01-21T14:54:55.000Z</time>
      </trkpt>
      <trkpt lat="43.51093" lon="6.37369">
        <ele>308</ele>
        <time>2022-01-21T14:54:56.000Z</time>
      </trkpt>
      <trkpt lat="43.51093" lon="6.3737">
        <ele>308</ele>
        <time>2022-01-21T14:54:57.000Z</time>
      </trkpt>
      <trkpt lat="43.51092" lon="6.37371">
        <ele>308</ele>
        <time>2022-01-21T14:54:58.000Z</time>
      </trkpt>
      <trkpt lat="43.51092" lon="6.37372">
        <ele>309</ele>
        <time>2022-01-21T14:54:59.000Z</time>
      </trkpt>
      <trkpt lat="43.51092" lon="6.37373">
        <ele>309</ele>
        <time>2022-01-21T14:55:00.000Z</time>
      </trkpt>
      <trkpt lat="43.51092" lon="6.37375">
        <ele>309</ele>
        <time>2022-01-21T14:55:01.000Z</time>
      </trkpt>
      <trkpt lat="43.51091" lon="6.37377">
        <ele>309</ele>
        <time>2022-01-21T14:55:02.000Z</time>
      </trkpt>
      <trkpt lat="43.51091" lon="6.37378">
        <ele>309</ele>
        <time>2022-01-21T14:55:03.000Z</time>
      </trkpt>
      <trkpt lat="43.51091" lon="6.37379">
        <ele>309</ele>
        <time>2022-01-21T14:55:04.000Z</time>
      </trkpt>
      <trkpt lat="43.51091" lon="6.3738">
        <ele>309</ele>
        <time>2022-01-21T14:55:05.000Z</time>
      </trkpt>
      <trkpt lat="43.51091" lon="6.37381">
        <ele>309</ele>
        <time>2022-01-21T14:55:06.000Z</time>
      </trkpt>
      <trkpt lat="43.51091" lon="6.37383">
        <ele>309</ele>
        <time>2022-01-21T14:55:07.000Z</time>
      </trkpt>
      <trkpt lat="43.51091" lon="6.37384">
        <ele>309</ele>
        <time>2022-01-21T14:55:08.000Z</time>
      </trkpt>
      <trkpt lat="43.51091" lon="6.37385">
        <ele>310</ele>
        <time>2022-01-21T14:55:09.000Z</time>
      </trkpt>
      <trkpt lat="43.51091" lon="6.37387">
        <ele>310</ele>
        <time>2022-01-21T14:55:10.000Z</time>
      </trkpt>
      <trkpt lat="43.51091" lon="6.37388">
        <ele>310</ele>
        <time>2022-01-21T14:55:11.000Z</time>
      </trkpt>
      <trkpt lat="43.51091" lon="6.37389">
        <ele>310</ele>
        <time>2022-01-21T14:55:12.000Z</time>
      </trkpt>
      <trkpt lat="43.51091" lon="6.3739">
        <ele>310</ele>
        <time>2022-01-21T14:55:13.000Z</time>
      </trkpt>
      <trkpt lat="43.5109" lon="6.37391">
        <ele>310</ele>
        <time>2022-01-21T14:55:14.000Z</time>
      </trkpt>
      <trkpt lat="43.5109" lon="6.37392">
        <ele>310</ele>
        <time>2022-01-21T14:55:15.000Z</time>
      </trkpt>
      <trkpt lat="43.5109" lon="6.37393">
        <ele>310</ele>
        <time>2022-01-21T14:55:16.000Z</time>
      </trkpt>
      <trkpt lat="43.5109" lon="6.37394">
        <ele>310</ele>
        <time>2022-01-21T14:55:17.000Z</time>
      </trkpt>
      <trkpt lat="43.5109" lon="6.37395">
        <ele>311</ele>
        <time>2022-01-21T14:55:18.000Z</time>
      </trkpt>
      <trkpt lat="43.5109" lon="6.37396">
        <ele>311</ele>
        <time>2022-01-21T14:55:19.000Z</time>
      </trkpt>
      <trkpt lat="43.5109" lon="6.37397">
        <ele>311</ele>
        <time>2022-01-21T14:55:20.000Z</time>
      </trkpt>
      <trkpt lat="43.5109" lon="6.37398">
        <ele>311</ele>
        <time>2022-01-21T14:55:21.000Z</time>
      </trkpt>
      <trkpt lat="43.51089" lon="6.37399">
        <ele>312</ele>
        <time>2022-01-21T14:55:22.000Z</time>
      </trkpt>
      <trkpt lat="43.51089" lon="6.374">
        <ele>313</ele>
        <time>2022-01-21T14:55:23.000Z</time>
      </trkpt>
      <trkpt lat="43.51089" lon="6.37401">
        <ele>313</ele>
        <time>2022-01-21T14:55:24.000Z</time>
      </trkpt>
      <trkpt lat="43.51089" lon="6.37402">
        <ele>313</ele>
        <time>2022-01-21T14:55:25.000Z</time>
      </trkpt>
      <trkpt lat="43.51089" lon="6.37403">
        <ele>313</ele>
        <time>2022-01-21T14:55:26.000Z</time>
      </trkpt>
      <trkpt lat="43.51088" lon="6.37404">
        <ele>313</ele>
        <time>2022-01-21T14:55:27.000Z</time>
      </trkpt>
      <trkpt lat="43.51088" lon="6.37404">
        <ele>313</ele>
        <time>2022-01-21T14:55:28.000Z</time>
      </trkpt>
      <trkpt lat="43.51088" lon="6.37405">
        <ele>313</ele>
        <time>2022-01-21T14:55:29.000Z</time>
      </trkpt>
      <trkpt lat="43.51088" lon="6.37406">
        <ele>313</ele>
        <time>2022-01-21T14:55:30.000Z</time>
      </trkpt>
      <trkpt lat="43.51088" lon="6.37407">
        <ele>313</ele>
        <time>2022-01-21T14:55:31.000Z</time>
      </trkpt>
      <trkpt lat="43.51088" lon="6.37408">
        <ele>313</ele>
        <time>2022-01-21T14:55:32.000Z</time>
      </trkpt>
      <trkpt lat="43.51088" lon="6.37409">
        <ele>313</ele>
        <time>2022-01-21T14:55:33.000Z</time>
      </trkpt>
      <trkpt lat="43.51088" lon="6.3741">
        <ele>313</ele>
        <time>2022-01-21T14:55:34.000Z</time>
      </trkpt>
      <trkpt lat="43.51088" lon="6.37411">
        <ele>313</ele>
        <time>2022-01-21T14:55:35.000Z</time>
      </trkpt>
      <trkpt lat="43.51088" lon="6.37412">
        <ele>312</ele>
        <time>2022-01-21T14:55:36.000Z</time>
      </trkpt>
      <trkpt lat="43.51088" lon="6.37413">
        <ele>312</ele>
        <time>2022-01-21T14:55:37.000Z</time>
      </trkpt>
      <trkpt lat="43.51088" lon="6.37414">
        <ele>312</ele>
        <time>2022-01-21T14:55:38.000Z</time>
      </trkpt>
      <trkpt lat="43.51088" lon="6.37415">
        <ele>312</ele>
        <time>2022-01-21T14:55:39.000Z</time>
      </trkpt>
      <trkpt lat="43.51087" lon="6.37416">
        <ele>311</ele>
        <time>2022-01-21T14:55:40.000Z</time>
      </trkpt>
      <trkpt lat="43.51087" lon="6.37417">
        <ele>311</ele>
        <time>2022-01-21T14:55:41.000Z</time>
      </trkpt>
      <trkpt lat="43.51087" lon="6.37419">
        <ele>311</ele>
        <time>2022-01-21T14:55:42.000Z</time>
      </trkpt>
      <trkpt lat="43.51087" lon="6.37421">
        <ele>311</ele>
        <time>2022-01-21T14:55:43.000Z</time>
      </trkpt>
      <trkpt lat="43.51086" lon="6.37426">
        <ele>311</ele>
        <time>2022-01-21T14:55:44.000Z</time>
      </trkpt>
      <trkpt lat="43.51086" lon="6.37428">
        <ele>310</ele>
        <time>2022-01-21T14:55:45.000Z</time>
      </trkpt>
      <trkpt lat="43.51086" lon="6.3743">
        <ele>309</ele>
        <time>2022-01-21T14:55:46.000Z</time>
      </trkpt>
      <trkpt lat="43.51085" lon="6.37431">
        <ele>309</ele>
        <time>2022-01-21T14:55:47.000Z</time>
      </trkpt>
      <trkpt lat="43.51085" lon="6.37432">
        <ele>309</ele>
        <time>2022-01-21T14:55:48.000Z</time>
      </trkpt>
      <trkpt lat="43.51085" lon="6.37433">
        <ele>309</ele>
        <time>2022-01-21T14:55:49.000Z</time>
      </trkpt>
      <trkpt lat="43.51085" lon="6.37433">
        <ele>309</ele>
        <time>2022-01-21T14:55:50.000Z</time>
      </trkpt>
      <trkpt lat="43.51084" lon="6.37434">
        <ele>309</ele>
        <time>2022-01-21T14:55:51.000Z</time>
      </trkpt>
      <trkpt lat="43.51084" lon="6.37435">
        <ele>309</ele>
        <time>2022-01-21T14:55:52.000Z</time>
      </trkpt>
      <trkpt lat="43.51083" lon="6.37435">
        <ele>309</ele>
        <time>2022-01-21T14:55:53.000Z</time>
      </trkpt>
      <trkpt lat="43.51083" lon="6.37436">
        <ele>309</ele>
        <time>2022-01-21T14:55:54.000Z</time>
      </trkpt>
      <trkpt lat="43.51082" lon="6.37436">
        <ele>308</ele>
        <time>2022-01-21T14:55:55.000Z</time>
      </trkpt>
      <trkpt lat="43.51082" lon="6.37436">
        <ele>308</ele>
        <time>2022-01-21T14:55:56.000Z</time>
      </trkpt>
      <trkpt lat="43.51082" lon="6.37436">
        <ele>308</ele>
        <time>2022-01-21T14:55:57.000Z</time>
      </trkpt>
      <trkpt lat="43.51081" lon="6.37437">
        <ele>308</ele>
        <time>2022-01-21T14:55:58.000Z</time>
      </trkpt>
      <trkpt lat="43.51081" lon="6.37437">
        <ele>308</ele>
        <time>2022-01-21T14:55:59.000Z</time>
      </trkpt>
      <trkpt lat="43.51081" lon="6.37437">
        <ele>308</ele>
        <time>2022-01-21T14:56:00.000Z</time>
      </trkpt>
      <trkpt lat="43.51081" lon="6.37437">
        <ele>308</ele>
        <time>2022-01-21T14:56:01.000Z</time>
      </trkpt>
      <trkpt lat="43.5108" lon="6.37437">
        <ele>308</ele>
        <time>2022-01-21T14:56:02.000Z</time>
      </trkpt>
      <trkpt lat="43.5108" lon="6.37438">
        <ele>308</ele>
        <time>2022-01-21T14:56:03.000Z</time>
      </trkpt>
      <trkpt lat="43.5108" lon="6.37438">
        <ele>308</ele>
        <time>2022-01-21T14:56:04.000Z</time>
      </trkpt>
      <trkpt lat="43.5108" lon="6.37438">
        <ele>308</ele>
        <time>2022-01-21T14:56:05.000Z</time>
      </trkpt>
      <trkpt lat="43.5108" lon="6.37438">
        <ele>308</ele>
        <time>2022-01-21T14:56:06.000Z</time>
      </trkpt>
      <trkpt lat="43.5108" lon="6.37438">
        <ele>308</ele>
        <time>2022-01-21T14:56:07.000Z</time>
      </trkpt>
      <trkpt lat="43.51079" lon="6.37438">
        <ele>308</ele>
        <time>2022-01-21T14:56:08.000Z</time>
      </trkpt>
      <trkpt lat="43.51079" lon="6.37437">
        <ele>308</ele>
        <time>2022-01-21T14:56:09.000Z</time>
      </trkpt>
      <trkpt lat="43.51078" lon="6.37437">
        <ele>308</ele>
        <time>2022-01-21T14:56:10.000Z</time>
      </trkpt>
      <trkpt lat="43.51078" lon="6.37437">
        <ele>308</ele>
        <time>2022-01-21T14:56:11.000Z</time>
      </trkpt>
      <trkpt lat="43.51078" lon="6.37437">
        <ele>308</ele>
        <time>2022-01-21T14:56:12.000Z</time>
      </trkpt>
      <trkpt lat="43.51077" lon="6.37437">
        <ele>308</ele>
        <time>2022-01-21T14:56:13.000Z</time>
      </trkpt>
      <trkpt lat="43.51077" lon="6.37437">
        <ele>308</ele>
        <time>2022-01-21T14:56:14.000Z</time>
      </trkpt>
      <trkpt lat="43.51076" lon="6.37436">
        <ele>308</ele>
        <time>2022-01-21T14:56:15.000Z</time>
      </trkpt>
      <trkpt lat="43.51076" lon="6.37436">
        <ele>308</ele>
        <time>2022-01-21T14:56:16.000Z</time>
      </trkpt>
      <trkpt lat="43.51075" lon="6.37436">
        <ele>308</ele>
        <time>2022-01-21T14:56:17.000Z</time>
      </trkpt>
      <trkpt lat="43.51074" lon="6.37435">
        <ele>307</ele>
        <time>2022-01-21T14:56:18.000Z</time>
      </trkpt>
      <trkpt lat="43.51073" lon="6.37435">
        <ele>307</ele>
        <time>2022-01-21T14:56:19.000Z</time>
      </trkpt>
      <trkpt lat="43.51072" lon="6.37434">
        <ele>307</ele>
        <time>2022-01-21T14:56:20.000Z</time>
      </trkpt>
      <trkpt lat="43.51072" lon="6.37433">
        <ele>307</ele>
        <time>2022-01-21T14:56:21.000Z</time>
      </trkpt>
      <trkpt lat="43.51071" lon="6.37433">
        <ele>306</ele>
        <time>2022-01-21T14:56:22.000Z</time>
      </trkpt>
      <trkpt lat="43.5107" lon="6.37432">
        <ele>305</ele>
        <time>2022-01-21T14:56:23.000Z</time>
      </trkpt>
      <trkpt lat="43.51069" lon="6.37432">
        <ele>305</ele>
        <time>2022-01-21T14:56:24.000Z</time>
      </trkpt>
      <trkpt lat="43.51068" lon="6.37431">
        <ele>305</ele>
        <time>2022-01-21T14:56:25.000Z</time>
      </trkpt>
      <trkpt lat="43.51066" lon="6.3743">
        <ele>304</ele>
        <time>2022-01-21T14:56:26.000Z</time>
      </trkpt>
      <trkpt lat="43.51064" lon="6.37429">
        <ele>304</ele>
        <time>2022-01-21T14:56:27.000Z</time>
      </trkpt>
      <trkpt lat="43.51063" lon="6.37428">
        <ele>304</ele>
        <time>2022-01-21T14:56:28.000Z</time>
      </trkpt>
      <trkpt lat="43.51062" lon="6.37428">
        <ele>304</ele>
        <time>2022-01-21T14:56:29.000Z</time>
      </trkpt>
      <trkpt lat="43.51061" lon="6.37427">
        <ele>303</ele>
        <time>2022-01-21T14:56:30.000Z</time>
      </trkpt>
      <trkpt lat="43.51061" lon="6.37427">
        <ele>303</ele>
        <time>2022-01-21T14:56:31.000Z</time>
      </trkpt>
      <trkpt lat="43.51061" lon="6.37427">
        <ele>302</ele>
        <time>2022-01-21T14:56:32.000Z</time>
      </trkpt>
      <trkpt lat="43.5106" lon="6.37427">
        <ele>302</ele>
        <time>2022-01-21T14:56:33.000Z</time>
      </trkpt>
      <trkpt lat="43.5106" lon="6.37426">
        <ele>301</ele>
        <time>2022-01-21T14:56:34.000Z</time>
      </trkpt>
      <trkpt lat="43.51059" lon="6.37426">
        <ele>301</ele>
        <time>2022-01-21T14:56:35.000Z</time>
      </trkpt>
      <trkpt lat="43.51059" lon="6.37425">
        <ele>301</ele>
        <time>2022-01-21T14:56:36.000Z</time>
      </trkpt>
      <trkpt lat="43.51058" lon="6.37423">
        <ele>301</ele>
        <time>2022-01-21T14:56:37.000Z</time>
      </trkpt>
      <trkpt lat="43.51057" lon="6.37422">
        <ele>301</ele>
        <time>2022-01-21T14:56:38.000Z</time>
      </trkpt>
      <trkpt lat="43.51057" lon="6.37421">
        <ele>300</ele>
        <time>2022-01-21T14:56:39.000Z</time>
      </trkpt>
      <trkpt lat="43.51056" lon="6.3742">
        <ele>300</ele>
        <time>2022-01-21T14:56:40.000Z</time>
      </trkpt>
      <trkpt lat="43.51056" lon="6.37419">
        <ele>300</ele>
        <time>2022-01-21T14:56:41.000Z</time>
      </trkpt>
      <trkpt lat="43.51055" lon="6.37418">
        <ele>300</ele>
        <time>2022-01-21T14:56:42.000Z</time>
      </trkpt>
      <trkpt lat="43.51055" lon="6.37417">
        <ele>300</ele>
        <time>2022-01-21T14:56:43.000Z</time>
      </trkpt>
      <trkpt lat="43.51054" lon="6.37416">
        <ele>300</ele>
        <time>2022-01-21T14:56:44.000Z</time>
      </trkpt>
      <trkpt lat="43.51054" lon="6.37415">
        <ele>299</ele>
        <time>2022-01-21T14:56:45.000Z</time>
      </trkpt>
      <trkpt lat="43.51054" lon="6.37414">
        <ele>299</ele>
        <time>2022-01-21T14:56:46.000Z</time>
      </trkpt>
      <trkpt lat="43.51054" lon="6.37413">
        <ele>299</ele>
        <time>2022-01-21T14:56:47.000Z</time>
      </trkpt>
      <trkpt lat="43.51053" lon="6.37413">
        <ele>299</ele>
        <time>2022-01-21T14:56:48.000Z</time>
      </trkpt>
      <trkpt lat="43.51053" lon="6.37412">
        <ele>299</ele>
        <time>2022-01-21T14:56:49.000Z</time>
      </trkpt>
      <trkpt lat="43.51053" lon="6.37412">
        <ele>299</ele>
        <time>2022-01-21T14:56:50.000Z</time>
      </trkpt>
      <trkpt lat="43.51053" lon="6.37411">
        <ele>299</ele>
        <time>2022-01-21T14:56:51.000Z</time>
      </trkpt>
      <trkpt lat="43.51053" lon="6.3741">
        <ele>299</ele>
        <time>2022-01-21T14:56:52.000Z</time>
      </trkpt>
      <trkpt lat="43.51052" lon="6.37409">
        <ele>299</ele>
        <time>2022-01-21T14:56:53.000Z</time>
      </trkpt>
      <trkpt lat="43.51052" lon="6.37408">
        <ele>299</ele>
        <time>2022-01-21T14:56:54.000Z</time>
      </trkpt>
      <trkpt lat="43.51052" lon="6.37407">
        <ele>299</ele>
        <time>2022-01-21T14:56:55.000Z</time>
      </trkpt>
      <trkpt lat="43.51052" lon="6.37407">
        <ele>299</ele>
        <time>2022-01-21T14:56:56.000Z</time>
      </trkpt>
      <trkpt lat="43.51052" lon="6.37406">
        <ele>299</ele>
        <time>2022-01-21T14:56:57.000Z</time>
      </trkpt>
      <trkpt lat="43.51052" lon="6.37406">
        <ele>299</ele>
        <time>2022-01-21T14:56:58.000Z</time>
      </trkpt>
      <trkpt lat="43.51052" lon="6.37406">
        <ele>299</ele>
        <time>2022-01-21T14:56:59.000Z</time>
      </trkpt>
      <trkpt lat="43.51052" lon="6.37405">
        <ele>299</ele>
        <time>2022-01-21T14:57:00.000Z</time>
      </trkpt>
      <trkpt lat="43.51051" lon="6.37404">
        <ele>299</ele>
        <time>2022-01-21T14:57:01.000Z</time>
      </trkpt>
      <trkpt lat="43.51051" lon="6.37403">
        <ele>299</ele>
        <time>2022-01-21T14:57:02.000Z</time>
      </trkpt>
      <trkpt lat="43.51051" lon="6.37402">
        <ele>299</ele>
        <time>2022-01-21T14:57:03.000Z</time>
      </trkpt>
      <trkpt lat="43.5105" lon="6.37402">
        <ele>299</ele>
        <time>2022-01-21T14:57:04.000Z</time>
      </trkpt>
      <trkpt lat="43.5105" lon="6.37401">
        <ele>299</ele>
        <time>2022-01-21T14:57:05.000Z</time>
      </trkpt>
      <trkpt lat="43.51049" lon="6.37401">
        <ele>299</ele>
        <time>2022-01-21T14:57:06.000Z</time>
      </trkpt>
      <trkpt lat="43.51049" lon="6.374">
        <ele>299</ele>
        <time>2022-01-21T14:57:07.000Z</time>
      </trkpt>
      <trkpt lat="43.51049" lon="6.374">
        <ele>299</ele>
        <time>2022-01-21T14:57:08.000Z</time>
      </trkpt>
      <trkpt lat="43.51048" lon="6.37399">
        <ele>299</ele>
        <time>2022-01-21T14:57:09.000Z</time>
      </trkpt>
      <trkpt lat="43.51048" lon="6.37399">
        <ele>299</ele>
        <time>2022-01-21T14:57:10.000Z</time>
      </trkpt>
      <trkpt lat="43.51048" lon="6.37398">
        <ele>299</ele>
        <time>2022-01-21T14:57:11.000Z</time>
      </trkpt>
      <trkpt lat="43.51048" lon="6.37398">
        <ele>299</ele>
        <time>2022-01-21T14:57:12.000Z</time>
      </trkpt>
      <trkpt lat="43.51047" lon="6.37398">
        <ele>299</ele>
        <time>2022-01-21T14:57:13.000Z</time>
      </trkpt>
      <trkpt lat="43.51047" lon="6.37397">
        <ele>299</ele>
        <time>2022-01-21T14:57:14.000Z</time>
      </trkpt>
      <trkpt lat="43.51047" lon="6.37397">
        <ele>299</ele>
        <time>2022-01-21T14:57:15.000Z</time>
      </trkpt>
      <trkpt lat="43.51047" lon="6.37397">
        <ele>299</ele>
        <time>2022-01-21T14:57:16.000Z</time>
      </trkpt>
      <trkpt lat="43.51046" lon="6.37397">
        <ele>299</ele>
        <time>2022-01-21T14:57:17.000Z</time>
      </trkpt>
      <trkpt lat="43.51046" lon="6.37397">
        <ele>299</ele>
        <time>2022-01-21T14:57:18.000Z</time>
      </trkpt>
      <trkpt lat="43.51046" lon="6.37397">
        <ele>299</ele>
        <time>2022-01-21T14:57:19.000Z</time>
      </trkpt>
      <trkpt lat="43.51046" lon="6.37397">
        <ele>299</ele>
        <time>2022-01-21T14:57:20.000Z</time>
      </trkpt>
      <trkpt lat="43.51046" lon="6.37397">
        <ele>299</ele>
        <time>2022-01-21T14:57:21.000Z</time>
      </trkpt>
      <trkpt lat="43.51046" lon="6.37397">
        <ele>299</ele>
        <time>2022-01-21T14:57:22.000Z</time>
      </trkpt>
      <trkpt lat="43.51046" lon="6.37397">
        <ele>299</ele>
        <time>2022-01-21T14:57:23.000Z</time>
      </trkpt>
      <trkpt lat="43.51046" lon="6.37397">
        <ele>299</ele>
        <time>2022-01-21T14:57:24.000Z</time>
      </trkpt>
      <trkpt lat="43.51046" lon="6.37397">
        <ele>299</ele>
        <time>2022-01-21T14:57:25.000Z</time>
      </trkpt>
      <trkpt lat="43.51046" lon="6.37397">
        <ele>299</ele>
        <time>2022-01-21T14:57:26.000Z</time>
      </trkpt>
      <trkpt lat="43.51046" lon="6.37397">
        <ele>299</ele>
        <time>2022-01-21T14:57:27.000Z</time>
      </trkpt>
      <trkpt lat="43.51046" lon="6.37397">
        <ele>299</ele>
        <time>2022-01-21T14:57:28.000Z</time>
      </trkpt>
      <trkpt lat="43.51046" lon="6.37397">
        <ele>299</ele>
        <time>2022-01-21T14:57:29.000Z</time>
      </trkpt>
      <trkpt lat="43.51046" lon="6.37397">
        <ele>299</ele>
        <time>2022-01-21T14:57:30.000Z</time>
      </trkpt>
      <trkpt lat="43.51046" lon="6.37396">
        <ele>299</ele>
        <time>2022-01-21T14:57:31.000Z</time>
      </trkpt>
      <trkpt lat="43.51046" lon="6.37396">
        <ele>299</ele>
        <time>2022-01-21T14:57:32.000Z</time>
      </trkpt>
      <trkpt lat="43.51046" lon="6.37396">
        <ele>299</ele>
        <time>2022-01-21T14:57:33.000Z</time>
      </trkpt>
      <trkpt lat="43.51046" lon="6.37396">
        <ele>299</ele>
        <time>2022-01-21T14:57:34.000Z</time>
      </trkpt>
      <trkpt lat="43.51046" lon="6.37396">
        <ele>299</ele>
        <time>2022-01-21T14:57:35.000Z</time>
      </trkpt>
      <trkpt lat="43.51046" lon="6.37395">
        <ele>299</ele>
        <time>2022-01-21T14:57:36.000Z</time>
      </trkpt>
      <trkpt lat="43.51046" lon="6.37395">
        <ele>299</ele>
        <time>2022-01-21T14:57:37.000Z</time>
      </trkpt>
      <trkpt lat="43.51046" lon="6.37394">
        <ele>298</ele>
        <time>2022-01-21T14:57:38.000Z</time>
      </trkpt>
      <trkpt lat="43.51046" lon="6.37393">
        <ele>298</ele>
        <time>2022-01-21T14:57:39.000Z</time>
      </trkpt>
      <trkpt lat="43.51045" lon="6.37392">
        <ele>297</ele>
        <time>2022-01-21T14:57:40.000Z</time>
      </trkpt>
      <trkpt lat="43.51045" lon="6.37392">
        <ele>297</ele>
        <time>2022-01-21T14:57:41.000Z</time>
      </trkpt>
      <trkpt lat="43.51046" lon="6.37391">
        <ele>297</ele>
        <time>2022-01-21T14:57:42.000Z</time>
      </trkpt>
      <trkpt lat="43.51046" lon="6.37391">
        <ele>296</ele>
        <time>2022-01-21T14:57:43.000Z</time>
      </trkpt>
      <trkpt lat="43.51046" lon="6.37391">
        <ele>296</ele>
        <time>2022-01-21T14:57:44.000Z</time>
      </trkpt>
      <trkpt lat="43.51046" lon="6.3739">
        <ele>296</ele>
        <time>2022-01-21T14:57:45.000Z</time>
      </trkpt>
      <trkpt lat="43.51046" lon="6.37389">
        <ele>296</ele>
        <time>2022-01-21T14:57:46.000Z</time>
      </trkpt>
      <trkpt lat="43.51046" lon="6.37388">
        <ele>296</ele>
        <time>2022-01-21T14:57:47.000Z</time>
      </trkpt>
      <trkpt lat="43.51046" lon="6.37388">
        <ele>296</ele>
        <time>2022-01-21T14:57:48.000Z</time>
      </trkpt>
      <trkpt lat="43.51046" lon="6.37387">
        <ele>296</ele>
        <time>2022-01-21T14:57:49.000Z</time>
      </trkpt>
      <trkpt lat="43.51046" lon="6.37386">
        <ele>296</ele>
        <time>2022-01-21T14:57:50.000Z</time>
      </trkpt>
      <trkpt lat="43.51046" lon="6.37386">
        <ele>296</ele>
        <time>2022-01-21T14:57:51.000Z</time>
      </trkpt>
      <trkpt lat="43.51047" lon="6.37385">
        <ele>296</ele>
        <time>2022-01-21T14:57:52.000Z</time>
      </trkpt>
      <trkpt lat="43.51047" lon="6.37384">
        <ele>295</ele>
        <time>2022-01-21T14:57:53.000Z</time>
      </trkpt>
      <trkpt lat="43.51047" lon="6.37383">
        <ele>295</ele>
        <time>2022-01-21T14:57:54.000Z</time>
      </trkpt>
      <trkpt lat="43.51047" lon="6.37381">
        <ele>295</ele>
        <time>2022-01-21T14:57:55.000Z</time>
      </trkpt>
      <trkpt lat="43.51047" lon="6.37381">
        <ele>295</ele>
        <time>2022-01-21T14:57:56.000Z</time>
      </trkpt>
      <trkpt lat="43.51046" lon="6.3738">
        <ele>295</ele>
        <time>2022-01-21T14:57:57.000Z</time>
      </trkpt>
      <trkpt lat="43.51046" lon="6.37379">
        <ele>295</ele>
        <time>2022-01-21T14:57:58.000Z</time>
      </trkpt>
      <trkpt lat="43.51046" lon="6.37378">
        <ele>295</ele>
        <time>2022-01-21T14:57:59.000Z</time>
      </trkpt>
      <trkpt lat="43.51045" lon="6.37377">
        <ele>294</ele>
        <time>2022-01-21T14:58:00.000Z</time>
      </trkpt>
      <trkpt lat="43.51045" lon="6.37377">
        <ele>294</ele>
        <time>2022-01-21T14:58:01.000Z</time>
      </trkpt>
      <trkpt lat="43.51044" lon="6.37376">
        <ele>294</ele>
        <time>2022-01-21T14:58:02.000Z</time>
      </trkpt>
      <trkpt lat="43.51044" lon="6.37375">
        <ele>294</ele>
        <time>2022-01-21T14:58:03.000Z</time>
      </trkpt>
      <trkpt lat="43.51044" lon="6.37375">
        <ele>294</ele>
        <time>2022-01-21T14:58:04.000Z</time>
      </trkpt>
      <trkpt lat="43.51043" lon="6.37375">
        <ele>294</ele>
        <time>2022-01-21T14:58:05.000Z</time>
      </trkpt>
      <trkpt lat="43.51043" lon="6.37374">
        <ele>294</ele>
        <time>2022-01-21T14:58:06.000Z</time>
      </trkpt>
      <trkpt lat="43.51043" lon="6.37374">
        <ele>294</ele>
        <time>2022-01-21T14:58:07.000Z</time>
      </trkpt>
      <trkpt lat="43.51043" lon="6.37373">
        <ele>294</ele>
        <time>2022-01-21T14:58:08.000Z</time>
      </trkpt>
      <trkpt lat="43.51042" lon="6.37373">
        <ele>294</ele>
        <time>2022-01-21T14:58:09.000Z</time>
      </trkpt>
      <trkpt lat="43.51042" lon="6.37372">
        <ele>294</ele>
        <time>2022-01-21T14:58:10.000Z</time>
      </trkpt>
      <trkpt lat="43.51042" lon="6.37372">
        <ele>294</ele>
        <time>2022-01-21T14:58:11.000Z</time>
      </trkpt>
      <trkpt lat="43.51041" lon="6.37371">
        <ele>294</ele>
        <time>2022-01-21T14:58:12.000Z</time>
      </trkpt>
      <trkpt lat="43.51041" lon="6.37371">
        <ele>294</ele>
        <time>2022-01-21T14:58:13.000Z</time>
      </trkpt>
      <trkpt lat="43.51041" lon="6.37371">
        <ele>294</ele>
        <time>2022-01-21T14:58:14.000Z</time>
      </trkpt>
      <trkpt lat="43.51041" lon="6.37371">
        <ele>294</ele>
        <time>2022-01-21T14:58:15.000Z</time>
      </trkpt>
      <trkpt lat="43.51041" lon="6.37371">
        <ele>294</ele>
        <time>2022-01-21T14:58:16.000Z</time>
      </trkpt>
      <trkpt lat="43.51041" lon="6.37371">
        <ele>294</ele>
        <time>2022-01-21T14:58:17.000Z</time>
      </trkpt>
      <trkpt lat="43.51041" lon="6.37371">
        <ele>294</ele>
        <time>2022-01-21T14:58:18.000Z</time>
      </trkpt>
      <trkpt lat="43.51041" lon="6.37371">
        <ele>294</ele>
        <time>2022-01-21T14:58:19.000Z</time>
      </trkpt>
      <trkpt lat="43.51041" lon="6.37371">
        <ele>294</ele>
        <time>2022-01-21T14:58:20.000Z</time>
      </trkpt>
      <trkpt lat="43.51041" lon="6.37371">
        <ele>294</ele>
        <time>2022-01-21T14:58:21.000Z</time>
      </trkpt>
      <trkpt lat="43.51041" lon="6.37371">
        <ele>294</ele>
        <time>2022-01-21T14:58:22.000Z</time>
      </trkpt>
      <trkpt lat="43.51041" lon="6.37371">
        <ele>294</ele>
        <time>2022-01-21T14:58:23.000Z</time>
      </trkpt>
      <trkpt lat="43.51041" lon="6.37371">
        <ele>294</ele>
        <time>2022-01-21T14:58:24.000Z</time>
      </trkpt>
      <trkpt lat="43.51041" lon="6.37371">
        <ele>294</ele>
        <time>2022-01-21T14:58:25.000Z</time>
      </trkpt>
      <trkpt lat="43.51041" lon="6.37371">
        <ele>294</ele>
        <time>2022-01-21T14:58:26.000Z</time>
      </trkpt>
      <trkpt lat="43.51041" lon="6.37371">
        <ele>294</ele>
        <time>2022-01-21T14:58:27.000Z</time>
      </trkpt>
      <trkpt lat="43.51039" lon="6.37369">
        <ele>294</ele>
        <time>2022-01-21T14:58:28.000Z</time>
      </trkpt>
      <trkpt lat="43.51039" lon="6.37369">
        <ele>294</ele>
        <time>2022-01-21T14:58:29.000Z</time>
      </trkpt>
      <trkpt lat="43.51039" lon="6.37368">
        <ele>294</ele>
        <time>2022-01-21T14:58:30.000Z</time>
      </trkpt>
      <trkpt lat="43.51038" lon="6.37368">
        <ele>294</ele>
        <time>2022-01-21T14:58:31.000Z</time>
      </trkpt>
      <trkpt lat="43.51038" lon="6.37367">
        <ele>294</ele>
        <time>2022-01-21T14:58:32.000Z</time>
      </trkpt>
      <trkpt lat="43.51037" lon="6.37366">
        <ele>294</ele>
        <time>2022-01-21T14:58:33.000Z</time>
      </trkpt>
      <trkpt lat="43.51035" lon="6.37363">
        <ele>294</ele>
        <time>2022-01-21T14:58:34.000Z</time>
      </trkpt>
      <trkpt lat="43.51034" lon="6.37361">
        <ele>294</ele>
        <time>2022-01-21T14:58:35.000Z</time>
      </trkpt>
      <trkpt lat="43.51033" lon="6.3736">
        <ele>294</ele>
        <time>2022-01-21T14:58:36.000Z</time>
      </trkpt>
      <trkpt lat="43.51033" lon="6.37358">
        <ele>294</ele>
        <time>2022-01-21T14:58:37.000Z</time>
      </trkpt>
      <trkpt lat="43.51032" lon="6.37357">
        <ele>294</ele>
        <time>2022-01-21T14:58:38.000Z</time>
      </trkpt>
      <trkpt lat="43.51032" lon="6.37356">
        <ele>295</ele>
        <time>2022-01-21T14:58:39.000Z</time>
      </trkpt>
      <trkpt lat="43.51032" lon="6.37356">
        <ele>295</ele>
        <time>2022-01-21T14:58:40.000Z</time>
      </trkpt>
      <trkpt lat="43.51031" lon="6.37355">
        <ele>295</ele>
        <time>2022-01-21T14:58:41.000Z</time>
      </trkpt>
      <trkpt lat="43.51031" lon="6.37354">
        <ele>295</ele>
        <time>2022-01-21T14:58:42.000Z</time>
      </trkpt>
      <trkpt lat="43.51031" lon="6.37354">
        <ele>295</ele>
        <time>2022-01-21T14:58:43.000Z</time>
      </trkpt>
      <trkpt lat="43.51031" lon="6.37353">
        <ele>295</ele>
        <time>2022-01-21T14:58:44.000Z</time>
      </trkpt>
      <trkpt lat="43.51031" lon="6.37353">
        <ele>295</ele>
        <time>2022-01-21T14:58:45.000Z</time>
      </trkpt>
      <trkpt lat="43.51031" lon="6.37353">
        <ele>295</ele>
        <time>2022-01-21T14:58:46.000Z</time>
      </trkpt>
      <trkpt lat="43.5103" lon="6.37352">
        <ele>296</ele>
        <time>2022-01-21T14:58:47.000Z</time>
      </trkpt>
      <trkpt lat="43.5103" lon="6.37351">
        <ele>296</ele>
        <time>2022-01-21T14:58:48.000Z</time>
      </trkpt>
      <trkpt lat="43.51029" lon="6.3735">
        <ele>296</ele>
        <time>2022-01-21T14:58:49.000Z</time>
      </trkpt>
      <trkpt lat="43.51028" lon="6.37349">
        <ele>296</ele>
        <time>2022-01-21T14:58:50.000Z</time>
      </trkpt>
      <trkpt lat="43.51028" lon="6.37348">
        <ele>296</ele>
        <time>2022-01-21T14:58:51.000Z</time>
      </trkpt>
      <trkpt lat="43.51027" lon="6.37347">
        <ele>296</ele>
        <time>2022-01-21T14:58:52.000Z</time>
      </trkpt>
      <trkpt lat="43.51026" lon="6.37346">
        <ele>296</ele>
        <time>2022-01-21T14:58:53.000Z</time>
      </trkpt>
      <trkpt lat="43.51026" lon="6.37346">
        <ele>296</ele>
        <time>2022-01-21T14:58:54.000Z</time>
      </trkpt>
      <trkpt lat="43.51026" lon="6.37345">
        <ele>296</ele>
        <time>2022-01-21T14:58:55.000Z</time>
      </trkpt>
      <trkpt lat="43.51025" lon="6.37345">
        <ele>296</ele>
        <time>2022-01-21T14:58:56.000Z</time>
      </trkpt>
      <trkpt lat="43.51025" lon="6.37345">
        <ele>296</ele>
        <time>2022-01-21T14:58:57.000Z</time>
      </trkpt>
      <trkpt lat="43.51025" lon="6.37345">
        <ele>296</ele>
        <time>2022-01-21T14:58:58.000Z</time>
      </trkpt>
      <trkpt lat="43.51025" lon="6.37345">
        <ele>296</ele>
        <time>2022-01-21T14:58:59.000Z</time>
      </trkpt>
      <trkpt lat="43.51025" lon="6.37344">
        <ele>296</ele>
        <time>2022-01-21T14:59:00.000Z</time>
      </trkpt>
      <trkpt lat="43.51024" lon="6.37344">
        <ele>296</ele>
        <time>2022-01-21T14:59:01.000Z</time>
      </trkpt>
      <trkpt lat="43.51024" lon="6.37343">
        <ele>296</ele>
        <time>2022-01-21T14:59:02.000Z</time>
      </trkpt>
      <trkpt lat="43.51024" lon="6.37342">
        <ele>296</ele>
        <time>2022-01-21T14:59:03.000Z</time>
      </trkpt>
      <trkpt lat="43.51023" lon="6.37341">
        <ele>296</ele>
        <time>2022-01-21T14:59:04.000Z</time>
      </trkpt>
      <trkpt lat="43.51023" lon="6.37341">
        <ele>296</ele>
        <time>2022-01-21T14:59:05.000Z</time>
      </trkpt>
      <trkpt lat="43.51023" lon="6.37341">
        <ele>297</ele>
        <time>2022-01-21T14:59:06.000Z</time>
      </trkpt>
      <trkpt lat="43.51023" lon="6.3734">
        <ele>297</ele>
        <time>2022-01-21T14:59:07.000Z</time>
      </trkpt>
      <trkpt lat="43.51023" lon="6.3734">
        <ele>297</ele>
        <time>2022-01-21T14:59:08.000Z</time>
      </trkpt>
      <trkpt lat="43.51023" lon="6.3734">
        <ele>297</ele>
        <time>2022-01-21T14:59:09.000Z</time>
      </trkpt>
      <trkpt lat="43.51023" lon="6.37339">
        <ele>297</ele>
        <time>2022-01-21T14:59:10.000Z</time>
      </trkpt>
      <trkpt lat="43.51023" lon="6.37339">
        <ele>297</ele>
        <time>2022-01-21T14:59:11.000Z</time>
      </trkpt>
      <trkpt lat="43.51022" lon="6.37339">
        <ele>297</ele>
        <time>2022-01-21T14:59:12.000Z</time>
      </trkpt>
      <trkpt lat="43.51022" lon="6.37339">
        <ele>297</ele>
        <time>2022-01-21T14:59:13.000Z</time>
      </trkpt>
      <trkpt lat="43.51022" lon="6.37339">
        <ele>297</ele>
        <time>2022-01-21T14:59:14.000Z</time>
      </trkpt>
      <trkpt lat="43.51022" lon="6.37339">
        <ele>297</ele>
        <time>2022-01-21T14:59:15.000Z</time>
      </trkpt>
      <trkpt lat="43.51022" lon="6.37339">
        <ele>297</ele>
        <time>2022-01-21T14:59:16.000Z</time>
      </trkpt>
      <trkpt lat="43.51022" lon="6.37339">
        <ele>297</ele>
        <time>2022-01-21T14:59:17.000Z</time>
      </trkpt>
      <trkpt lat="43.51022" lon="6.37339">
        <ele>297</ele>
        <time>2022-01-21T14:59:18.000Z</time>
      </trkpt>
      <trkpt lat="43.51022" lon="6.37339">
        <ele>297</ele>
        <time>2022-01-21T14:59:19.000Z</time>
      </trkpt>
      <trkpt lat="43.51022" lon="6.37339">
        <ele>297</ele>
        <time>2022-01-21T14:59:20.000Z</time>
      </trkpt>
      <trkpt lat="43.51022" lon="6.37339">
        <ele>297</ele>
        <time>2022-01-21T14:59:21.000Z</time>
      </trkpt>
      <trkpt lat="43.51022" lon="6.37339">
        <ele>297</ele>
        <time>2022-01-21T14:59:22.000Z</time>
      </trkpt>
      <trkpt lat="43.51022" lon="6.37339">
        <ele>297</ele>
        <time>2022-01-21T14:59:23.000Z</time>
      </trkpt>
      <trkpt lat="43.51022" lon="6.37339">
        <ele>297</ele>
        <time>2022-01-21T14:59:24.000Z</time>
      </trkpt>
      <trkpt lat="43.51022" lon="6.37339">
        <ele>297</ele>
        <time>2022-01-21T14:59:25.000Z</time>
      </trkpt>
      <trkpt lat="43.51022" lon="6.37339">
        <ele>297</ele>
        <time>2022-01-21T14:59:26.000Z</time>
      </trkpt>
      <trkpt lat="43.51022" lon="6.37339">
        <ele>297</ele>
        <time>2022-01-21T14:59:27.000Z</time>
      </trkpt>
      <trkpt lat="43.51022" lon="6.37339">
        <ele>297</ele>
        <time>2022-01-21T14:59:28.000Z</time>
      </trkpt>
      <trkpt lat="43.51022" lon="6.37339">
        <ele>297</ele>
        <time>2022-01-21T14:59:29.000Z</time>
      </trkpt>
      <trkpt lat="43.51022" lon="6.37339">
        <ele>297</ele>
        <time>2022-01-21T14:59:30.000Z</time>
      </trkpt>
      <trkpt lat="43.51022" lon="6.37339">
        <ele>297</ele>
        <time>2022-01-21T14:59:31.000Z</time>
      </trkpt>
      <trkpt lat="43.51022" lon="6.37339">
        <ele>297</ele>
        <time>2022-01-21T14:59:32.000Z</time>
      </trkpt>
      <trkpt lat="43.51022" lon="6.37339">
        <ele>297</ele>
        <time>2022-01-21T14:59:33.000Z</time>
      </trkpt>
      <trkpt lat="43.51022" lon="6.37339">
        <ele>297</ele>
        <time>2022-01-21T14:59:34.000Z</time>
      </trkpt>
      <trkpt lat="43.51022" lon="6.37339">
        <ele>297</ele>
        <time>2022-01-21T14:59:35.000Z</time>
      </trkpt>
      <trkpt lat="43.51022" lon="6.37339">
        <ele>297</ele>
        <time>2022-01-21T14:59:36.000Z</time>
      </trkpt>
      <trkpt lat="43.51022" lon="6.37339">
        <ele>297</ele>
        <time>2022-01-21T14:59:37.000Z</time>
      </trkpt>
      <trkpt lat="43.51022" lon="6.37339">
        <ele>297</ele>
        <time>2022-01-21T14:59:38.000Z</time>
      </trkpt>
      <trkpt lat="43.51022" lon="6.37339">
        <ele>297</ele>
        <time>2022-01-21T14:59:39.000Z</time>
      </trkpt>
      <trkpt lat="43.51022" lon="6.37339">
        <ele>297</ele>
        <time>2022-01-21T14:59:40.000Z</time>
      </trkpt>
      <trkpt lat="43.51022" lon="6.37339">
        <ele>297</ele>
        <time>2022-01-21T14:59:41.000Z</time>
      </trkpt>
      <trkpt lat="43.51022" lon="6.37339">
        <ele>297</ele>
        <time>2022-01-21T14:59:42.000Z</time>
      </trkpt>
      <trkpt lat="43.51022" lon="6.37339">
        <ele>297</ele>
        <time>2022-01-21T14:59:43.000Z</time>
      </trkpt>
      <trkpt lat="43.51022" lon="6.37339">
        <ele>297</ele>
        <time>2022-01-21T14:59:44.000Z</time>
      </trkpt>
      <trkpt lat="43.51022" lon="6.37339">
        <ele>297</ele>
        <time>2022-01-21T14:59:45.000Z</time>
      </trkpt>
      <trkpt lat="43.51022" lon="6.37339">
        <ele>297</ele>
        <time>2022-01-21T14:59:46.000Z</time>
      </trkpt>
      <trkpt lat="43.51022" lon="6.37339">
        <ele>297</ele>
        <time>2022-01-21T14:59:47.000Z</time>
      </trkpt>
      <trkpt lat="43.51022" lon="6.37339">
        <ele>297</ele>
        <time>2022-01-21T14:59:48.000Z</time>
      </trkpt>
      <trkpt lat="43.51022" lon="6.37339">
        <ele>297</ele>
        <time>2022-01-21T14:59:49.000Z</time>
      </trkpt>
      <trkpt lat="43.51022" lon="6.37339">
        <ele>297</ele>
        <time>2022-01-21T14:59:50.000Z</time>
      </trkpt>
      <trkpt lat="43.51022" lon="6.37339">
        <ele>297</ele>
        <time>2022-01-21T14:59:51.000Z</time>
      </trkpt>
      <trkpt lat="43.51022" lon="6.37339">
        <ele>297</ele>
        <time>2022-01-21T14:59:52.000Z</time>
      </trkpt>
      <trkpt lat="43.51022" lon="6.37339">
        <ele>297</ele>
        <time>2022-01-21T14:59:53.000Z</time>
      </trkpt>
      <trkpt lat="43.51022" lon="6.37339">
        <ele>297</ele>
        <time>2022-01-21T14:59:54.000Z</time>
      </trkpt>
      <trkpt lat="43.51022" lon="6.37339">
        <ele>297</ele>
        <time>2022-01-21T14:59:55.000Z</time>
      </trkpt>
      <trkpt lat="43.51022" lon="6.37339">
        <ele>297</ele>
        <time>2022-01-21T14:59:56.000Z</time>
      </trkpt>
      <trkpt lat="43.51022" lon="6.37339">
        <ele>297</ele>
        <time>2022-01-21T14:59:57.000Z</time>
      </trkpt>
      <trkpt lat="43.51022" lon="6.37339">
        <ele>297</ele>
        <time>2022-01-21T14:59:58.000Z</time>
      </trkpt>
      <trkpt lat="43.51022" lon="6.37339">
        <ele>297</ele>
        <time>2022-01-21T14:59:59.000Z</time>
      </trkpt>
      <trkpt lat="43.51022" lon="6.37339">
        <ele>297</ele>
        <time>2022-01-21T15:00:00.000Z</time>
      </trkpt>
      <trkpt lat="43.51022" lon="6.37339">
        <ele>297</ele>
        <time>2022-01-21T15:00:01.000Z</time>
      </trkpt>
      <trkpt lat="43.51022" lon="6.37338">
        <ele>297</ele>
        <time>2022-01-21T15:00:02.000Z</time>
      </trkpt>
      <trkpt lat="43.51021" lon="6.37337">
        <ele>297</ele>
        <time>2022-01-21T15:00:03.000Z</time>
      </trkpt>
      <trkpt lat="43.51021" lon="6.37337">
        <ele>297</ele>
        <time>2022-01-21T15:00:04.000Z</time>
      </trkpt>
      <trkpt lat="43.51021" lon="6.37337">
        <ele>297</ele>
        <time>2022-01-21T15:00:05.000Z</time>
      </trkpt>
      <trkpt lat="43.51021" lon="6.37337">
        <ele>297</ele>
        <time>2022-01-21T15:00:06.000Z</time>
      </trkpt>
      <trkpt lat="43.51021" lon="6.37337">
        <ele>297</ele>
        <time>2022-01-21T15:00:07.000Z</time>
      </trkpt>
      <trkpt lat="43.5102" lon="6.37337">
        <ele>297</ele>
        <time>2022-01-21T15:00:08.000Z</time>
      </trkpt>
      <trkpt lat="43.5102" lon="6.37337">
        <ele>297</ele>
        <time>2022-01-21T15:00:09.000Z</time>
      </trkpt>
      <trkpt lat="43.5102" lon="6.37337">
        <ele>296</ele>
        <time>2022-01-21T15:00:10.000Z</time>
      </trkpt>
      <trkpt lat="43.5102" lon="6.37337">
        <ele>296</ele>
        <time>2022-01-21T15:00:11.000Z</time>
      </trkpt>
      <trkpt lat="43.5102" lon="6.37337">
        <ele>296</ele>
        <time>2022-01-21T15:00:12.000Z</time>
      </trkpt>
      <trkpt lat="43.5102" lon="6.37337">
        <ele>296</ele>
        <time>2022-01-21T15:00:13.000Z</time>
      </trkpt>
      <trkpt lat="43.5102" lon="6.37337">
        <ele>296</ele>
        <time>2022-01-21T15:00:14.000Z</time>
      </trkpt>
      <trkpt lat="43.5102" lon="6.37337">
        <ele>296</ele>
        <time>2022-01-21T15:00:15.000Z</time>
      </trkpt>
      <trkpt lat="43.5102" lon="6.37337">
        <ele>296</ele>
        <time>2022-01-21T15:00:16.000Z</time>
      </trkpt>
      <trkpt lat="43.5102" lon="6.37337">
        <ele>296</ele>
        <time>2022-01-21T15:00:17.000Z</time>
      </trkpt>
      <trkpt lat="43.5102" lon="6.37337">
        <ele>296</ele>
        <time>2022-01-21T15:00:18.000Z</time>
      </trkpt>
      <trkpt lat="43.5102" lon="6.37337">
        <ele>296</ele>
        <time>2022-01-21T15:00:19.000Z</time>
      </trkpt>
      <trkpt lat="43.5102" lon="6.37337">
        <ele>296</ele>
        <time>2022-01-21T15:00:20.000Z</time>
      </trkpt>
      <trkpt lat="43.51019" lon="6.37336">
        <ele>296</ele>
        <time>2022-01-21T15:00:21.000Z</time>
      </trkpt>
      <trkpt lat="43.51019" lon="6.37335">
        <ele>296</ele>
        <time>2022-01-21T15:00:22.000Z</time>
      </trkpt>
      <trkpt lat="43.51018" lon="6.37335">
        <ele>296</ele>
        <time>2022-01-21T15:00:23.000Z</time>
      </trkpt>
      <trkpt lat="43.51017" lon="6.37335">
        <ele>296</ele>
        <time>2022-01-21T15:00:24.000Z</time>
      </trkpt>
      <trkpt lat="43.51016" lon="6.37334">
        <ele>296</ele>
        <time>2022-01-21T15:00:25.000Z</time>
      </trkpt>
      <trkpt lat="43.51015" lon="6.37333">
        <ele>296</ele>
        <time>2022-01-21T15:00:26.000Z</time>
      </trkpt>
      <trkpt lat="43.51014" lon="6.37331">
        <ele>296</ele>
        <time>2022-01-21T15:00:27.000Z</time>
      </trkpt>
      <trkpt lat="43.51013" lon="6.3733">
        <ele>296</ele>
        <time>2022-01-21T15:00:28.000Z</time>
      </trkpt>
      <trkpt lat="43.51012" lon="6.37329">
        <ele>296</ele>
        <time>2022-01-21T15:00:29.000Z</time>
      </trkpt>
      <trkpt lat="43.51012" lon="6.37329">
        <ele>296</ele>
        <time>2022-01-21T15:00:30.000Z</time>
      </trkpt>
      <trkpt lat="43.51012" lon="6.37328">
        <ele>296</ele>
        <time>2022-01-21T15:00:31.000Z</time>
      </trkpt>
      <trkpt lat="43.51012" lon="6.37327">
        <ele>296</ele>
        <time>2022-01-21T15:00:32.000Z</time>
      </trkpt>
      <trkpt lat="43.51011" lon="6.37327">
        <ele>296</ele>
        <time>2022-01-21T15:00:33.000Z</time>
      </trkpt>
      <trkpt lat="43.51011" lon="6.37327">
        <ele>296</ele>
        <time>2022-01-21T15:00:34.000Z</time>
      </trkpt>
      <trkpt lat="43.5101" lon="6.37326">
        <ele>296</ele>
        <time>2022-01-21T15:00:35.000Z</time>
      </trkpt>
      <trkpt lat="43.5101" lon="6.37325">
        <ele>296</ele>
        <time>2022-01-21T15:00:36.000Z</time>
      </trkpt>
      <trkpt lat="43.51009" lon="6.37324">
        <ele>296</ele>
        <time>2022-01-21T15:00:37.000Z</time>
      </trkpt>
      <trkpt lat="43.51008" lon="6.37323">
        <ele>296</ele>
        <time>2022-01-21T15:00:38.000Z</time>
      </trkpt>
      <trkpt lat="43.51007" lon="6.37322">
        <ele>296</ele>
        <time>2022-01-21T15:00:39.000Z</time>
      </trkpt>
      <trkpt lat="43.51006" lon="6.3732">
        <ele>296</ele>
        <time>2022-01-21T15:00:40.000Z</time>
      </trkpt>
      <trkpt lat="43.51005" lon="6.37319">
        <ele>296</ele>
        <time>2022-01-21T15:00:41.000Z</time>
      </trkpt>
      <trkpt lat="43.51004" lon="6.37318">
        <ele>296</ele>
        <time>2022-01-21T15:00:42.000Z</time>
      </trkpt>
      <trkpt lat="43.51004" lon="6.37317">
        <ele>296</ele>
        <time>2022-01-21T15:00:43.000Z</time>
      </trkpt>
      <trkpt lat="43.51003" lon="6.37316">
        <ele>295</ele>
        <time>2022-01-21T15:00:44.000Z</time>
      </trkpt>
      <trkpt lat="43.51002" lon="6.37315">
        <ele>295</ele>
        <time>2022-01-21T15:00:45.000Z</time>
      </trkpt>
      <trkpt lat="43.51002" lon="6.37315">
        <ele>295</ele>
        <time>2022-01-21T15:00:46.000Z</time>
      </trkpt>
      <trkpt lat="43.51001" lon="6.37314">
        <ele>295</ele>
        <time>2022-01-21T15:00:47.000Z</time>
      </trkpt>
      <trkpt lat="43.51001" lon="6.37314">
        <ele>295</ele>
        <time>2022-01-21T15:00:48.000Z</time>
      </trkpt>
      <trkpt lat="43.51" lon="6.37313">
        <ele>295</ele>
        <time>2022-01-21T15:00:49.000Z</time>
      </trkpt>
      <trkpt lat="43.51" lon="6.37313">
        <ele>295</ele>
        <time>2022-01-21T15:00:50.000Z</time>
      </trkpt>
      <trkpt lat="43.51" lon="6.37313">
        <ele>295</ele>
        <time>2022-01-21T15:00:51.000Z</time>
      </trkpt>
      <trkpt lat="43.50999" lon="6.37312">
        <ele>295</ele>
        <time>2022-01-21T15:00:52.000Z</time>
      </trkpt>
      <trkpt lat="43.50998" lon="6.37312">
        <ele>295</ele>
        <time>2022-01-21T15:00:53.000Z</time>
      </trkpt>
      <trkpt lat="43.50997" lon="6.37311">
        <ele>295</ele>
        <time>2022-01-21T15:00:54.000Z</time>
      </trkpt>
      <trkpt lat="43.50997" lon="6.37311">
        <ele>295</ele>
        <time>2022-01-21T15:00:55.000Z</time>
      </trkpt>
      <trkpt lat="43.50996" lon="6.37311">
        <ele>295</ele>
        <time>2022-01-21T15:00:56.000Z</time>
      </trkpt>
      <trkpt lat="43.50996" lon="6.3731">
        <ele>295</ele>
        <time>2022-01-21T15:00:57.000Z</time>
      </trkpt>
      <trkpt lat="43.50995" lon="6.3731">
        <ele>295</ele>
        <time>2022-01-21T15:00:58.000Z</time>
      </trkpt>
      <trkpt lat="43.50993" lon="6.37309">
        <ele>295</ele>
        <time>2022-01-21T15:00:59.000Z</time>
      </trkpt>
      <trkpt lat="43.50992" lon="6.37308">
        <ele>296</ele>
        <time>2022-01-21T15:01:00.000Z</time>
      </trkpt>
      <trkpt lat="43.50991" lon="6.37308">
        <ele>297</ele>
        <time>2022-01-21T15:01:01.000Z</time>
      </trkpt>
      <trkpt lat="43.50991" lon="6.37307">
        <ele>297</ele>
        <time>2022-01-21T15:01:02.000Z</time>
      </trkpt>
      <trkpt lat="43.5099" lon="6.37307">
        <ele>297</ele>
        <time>2022-01-21T15:01:03.000Z</time>
      </trkpt>
      <trkpt lat="43.5099" lon="6.37307">
        <ele>297</ele>
        <time>2022-01-21T15:01:04.000Z</time>
      </trkpt>
      <trkpt lat="43.50989" lon="6.37306">
        <ele>297</ele>
        <time>2022-01-21T15:01:05.000Z</time>
      </trkpt>
      <trkpt lat="43.50988" lon="6.37306">
        <ele>297</ele>
        <time>2022-01-21T15:01:06.000Z</time>
      </trkpt>
      <trkpt lat="43.50986" lon="6.37306">
        <ele>297</ele>
        <time>2022-01-21T15:01:07.000Z</time>
      </trkpt>
      <trkpt lat="43.50985" lon="6.37305">
        <ele>297</ele>
        <time>2022-01-21T15:01:08.000Z</time>
      </trkpt>
      <trkpt lat="43.50985" lon="6.37305">
        <ele>297</ele>
        <time>2022-01-21T15:01:09.000Z</time>
      </trkpt>
      <trkpt lat="43.50985" lon="6.37305">
        <ele>297</ele>
        <time>2022-01-21T15:01:10.000Z</time>
      </trkpt>
      <trkpt lat="43.50985" lon="6.37305">
        <ele>298</ele>
        <time>2022-01-21T15:01:11.000Z</time>
      </trkpt>
      <trkpt lat="43.50985" lon="6.37305">
        <ele>298</ele>
        <time>2022-01-21T15:01:12.000Z</time>
      </trkpt>
      <trkpt lat="43.50983" lon="6.37305">
        <ele>298</ele>
        <time>2022-01-21T15:01:13.000Z</time>
      </trkpt>
      <trkpt lat="43.50982" lon="6.37306">
        <ele>298</ele>
        <time>2022-01-21T15:01:14.000Z</time>
      </trkpt>
      <trkpt lat="43.5098" lon="6.37306">
        <ele>298</ele>
        <time>2022-01-21T15:01:15.000Z</time>
      </trkpt>
      <trkpt lat="43.50978" lon="6.37306">
        <ele>298</ele>
        <time>2022-01-21T15:01:16.000Z</time>
      </trkpt>
      <trkpt lat="43.50976" lon="6.37305">
        <ele>298</ele>
        <time>2022-01-21T15:01:17.000Z</time>
      </trkpt>
      <trkpt lat="43.50975" lon="6.37305">
        <ele>298</ele>
        <time>2022-01-21T15:01:18.000Z</time>
      </trkpt>
      <trkpt lat="43.50974" lon="6.37304">
        <ele>298</ele>
        <time>2022-01-21T15:01:19.000Z</time>
      </trkpt>
      <trkpt lat="43.50974" lon="6.37304">
        <ele>298</ele>
        <time>2022-01-21T15:01:20.000Z</time>
      </trkpt>
      <trkpt lat="43.50973" lon="6.37303">
        <ele>298</ele>
        <time>2022-01-21T15:01:21.000Z</time>
      </trkpt>
      <trkpt lat="43.50973" lon="6.37302">
        <ele>298</ele>
        <time>2022-01-21T15:01:22.000Z</time>
      </trkpt>
      <trkpt lat="43.50972" lon="6.37302">
        <ele>298</ele>
        <time>2022-01-21T15:01:23.000Z</time>
      </trkpt>
      <trkpt lat="43.50971" lon="6.37301">
        <ele>298</ele>
        <time>2022-01-21T15:01:24.000Z</time>
      </trkpt>
      <trkpt lat="43.5097" lon="6.373">
        <ele>298</ele>
        <time>2022-01-21T15:01:25.000Z</time>
      </trkpt>
      <trkpt lat="43.50969" lon="6.373">
        <ele>298</ele>
        <time>2022-01-21T15:01:26.000Z</time>
      </trkpt>
      <trkpt lat="43.50968" lon="6.37299">
        <ele>298</ele>
        <time>2022-01-21T15:01:27.000Z</time>
      </trkpt>
      <trkpt lat="43.50968" lon="6.37299">
        <ele>298</ele>
        <time>2022-01-21T15:01:28.000Z</time>
      </trkpt>
      <trkpt lat="43.50967" lon="6.37298">
        <ele>298</ele>
        <time>2022-01-21T15:01:29.000Z</time>
      </trkpt>
      <trkpt lat="43.50967" lon="6.37298">
        <ele>298</ele>
        <time>2022-01-21T15:01:30.000Z</time>
      </trkpt>
      <trkpt lat="43.50966" lon="6.37297">
        <ele>298</ele>
        <time>2022-01-21T15:01:31.000Z</time>
      </trkpt>
      <trkpt lat="43.50965" lon="6.37296">
        <ele>298</ele>
        <time>2022-01-21T15:01:32.000Z</time>
      </trkpt>
      <trkpt lat="43.50964" lon="6.37295">
        <ele>298</ele>
        <time>2022-01-21T15:01:33.000Z</time>
      </trkpt>
      <trkpt lat="43.50964" lon="6.37295">
        <ele>298</ele>
        <time>2022-01-21T15:01:34.000Z</time>
      </trkpt>
      <trkpt lat="43.50963" lon="6.37294">
        <ele>298</ele>
        <time>2022-01-21T15:01:35.000Z</time>
      </trkpt>
      <trkpt lat="43.50962" lon="6.37293">
        <ele>298</ele>
        <time>2022-01-21T15:01:36.000Z</time>
      </trkpt>
      <trkpt lat="43.50962" lon="6.37293">
        <ele>298</ele>
        <time>2022-01-21T15:01:37.000Z</time>
      </trkpt>
      <trkpt lat="43.50961" lon="6.37292">
        <ele>298</ele>
        <time>2022-01-21T15:01:38.000Z</time>
      </trkpt>
      <trkpt lat="43.50961" lon="6.37291">
        <ele>298</ele>
        <time>2022-01-21T15:01:39.000Z</time>
      </trkpt>
      <trkpt lat="43.5096" lon="6.37291">
        <ele>298</ele>
        <time>2022-01-21T15:01:40.000Z</time>
      </trkpt>
      <trkpt lat="43.5096" lon="6.3729">
        <ele>298</ele>
        <time>2022-01-21T15:01:41.000Z</time>
      </trkpt>
      <trkpt lat="43.50959" lon="6.3729">
        <ele>298</ele>
        <time>2022-01-21T15:01:42.000Z</time>
      </trkpt>
      <trkpt lat="43.50959" lon="6.37289">
        <ele>298</ele>
        <time>2022-01-21T15:01:43.000Z</time>
      </trkpt>
      <trkpt lat="43.50958" lon="6.37289">
        <ele>298</ele>
        <time>2022-01-21T15:01:44.000Z</time>
      </trkpt>
      <trkpt lat="43.50958" lon="6.37288">
        <ele>298</ele>
        <time>2022-01-21T15:01:45.000Z</time>
      </trkpt>
      <trkpt lat="43.50957" lon="6.37287">
        <ele>298</ele>
        <time>2022-01-21T15:01:46.000Z</time>
      </trkpt>
      <trkpt lat="43.50956" lon="6.37286">
        <ele>298</ele>
        <time>2022-01-21T15:01:47.000Z</time>
      </trkpt>
      <trkpt lat="43.50955" lon="6.37285">
        <ele>298</ele>
        <time>2022-01-21T15:01:48.000Z</time>
      </trkpt>
      <trkpt lat="43.50955" lon="6.37285">
        <ele>298</ele>
        <time>2022-01-21T15:01:49.000Z</time>
      </trkpt>
      <trkpt lat="43.50954" lon="6.37284">
        <ele>298</ele>
        <time>2022-01-21T15:01:50.000Z</time>
      </trkpt>
      <trkpt lat="43.50954" lon="6.37284">
        <ele>298</ele>
        <time>2022-01-21T15:01:51.000Z</time>
      </trkpt>
      <trkpt lat="43.50954" lon="6.37284">
        <ele>298</ele>
        <time>2022-01-21T15:01:52.000Z</time>
      </trkpt>
      <trkpt lat="43.50953" lon="6.37283">
        <ele>298</ele>
        <time>2022-01-21T15:01:53.000Z</time>
      </trkpt>
      <trkpt lat="43.50953" lon="6.37283">
        <ele>298</ele>
        <time>2022-01-21T15:01:54.000Z</time>
      </trkpt>
      <trkpt lat="43.50953" lon="6.37282">
        <ele>298</ele>
        <time>2022-01-21T15:01:55.000Z</time>
      </trkpt>
      <trkpt lat="43.50952" lon="6.37282">
        <ele>298</ele>
        <time>2022-01-21T15:01:56.000Z</time>
      </trkpt>
      <trkpt lat="43.50952" lon="6.37282">
        <ele>298</ele>
        <time>2022-01-21T15:01:57.000Z</time>
      </trkpt>
      <trkpt lat="43.50952" lon="6.37282">
        <ele>298</ele>
        <time>2022-01-21T15:01:58.000Z</time>
      </trkpt>
      <trkpt lat="43.50952" lon="6.37282">
        <ele>298</ele>
        <time>2022-01-21T15:01:59.000Z</time>
      </trkpt>
      <trkpt lat="43.50952" lon="6.37281">
        <ele>298</ele>
        <time>2022-01-21T15:02:00.000Z</time>
      </trkpt>
      <trkpt lat="43.50952" lon="6.37281">
        <ele>298</ele>
        <time>2022-01-21T15:02:01.000Z</time>
      </trkpt>
      <trkpt lat="43.50952" lon="6.37281">
        <ele>298</ele>
        <time>2022-01-21T15:02:02.000Z</time>
      </trkpt>
      <trkpt lat="43.50952" lon="6.37281">
        <ele>298</ele>
        <time>2022-01-21T15:02:03.000Z</time>
      </trkpt>
      <trkpt lat="43.50952" lon="6.37281">
        <ele>298</ele>
        <time>2022-01-21T15:02:04.000Z</time>
      </trkpt>
      <trkpt lat="43.50952" lon="6.37281">
        <ele>298</ele>
        <time>2022-01-21T15:02:05.000Z</time>
      </trkpt>
      <trkpt lat="43.50952" lon="6.37281">
        <ele>298</ele>
        <time>2022-01-21T15:02:06.000Z</time>
      </trkpt>
      <trkpt lat="43.50952" lon="6.37281">
        <ele>298</ele>
        <time>2022-01-21T15:02:07.000Z</time>
      </trkpt>
      <trkpt lat="43.50952" lon="6.37281">
        <ele>298</ele>
        <time>2022-01-21T15:02:08.000Z</time>
      </trkpt>
      <trkpt lat="43.50952" lon="6.37281">
        <ele>298</ele>
        <time>2022-01-21T15:02:09.000Z</time>
      </trkpt>
      <trkpt lat="43.50952" lon="6.37281">
        <ele>298</ele>
        <time>2022-01-21T15:02:10.000Z</time>
      </trkpt>
      <trkpt lat="43.50951" lon="6.37281">
        <ele>298</ele>
        <time>2022-01-21T15:02:11.000Z</time>
      </trkpt>
      <trkpt lat="43.50951" lon="6.3728">
        <ele>298</ele>
        <time>2022-01-21T15:02:12.000Z</time>
      </trkpt>
      <trkpt lat="43.50951" lon="6.3728">
        <ele>298</ele>
        <time>2022-01-21T15:02:13.000Z</time>
      </trkpt>
      <trkpt lat="43.50951" lon="6.3728">
        <ele>298</ele>
        <time>2022-01-21T15:02:14.000Z</time>
      </trkpt>
      <trkpt lat="43.50951" lon="6.37279">
        <ele>298</ele>
        <time>2022-01-21T15:02:15.000Z</time>
      </trkpt>
      <trkpt lat="43.50952" lon="6.37278">
        <ele>298</ele>
        <time>2022-01-21T15:02:16.000Z</time>
      </trkpt>
      <trkpt lat="43.50952" lon="6.37278">
        <ele>298</ele>
        <time>2022-01-21T15:02:17.000Z</time>
      </trkpt>
      <trkpt lat="43.50952" lon="6.37278">
        <ele>297</ele>
        <time>2022-01-21T15:02:18.000Z</time>
      </trkpt>
      <trkpt lat="43.50952" lon="6.37277">
        <ele>297</ele>
        <time>2022-01-21T15:02:19.000Z</time>
      </trkpt>
      <trkpt lat="43.50953" lon="6.37277">
        <ele>297</ele>
        <time>2022-01-21T15:02:20.000Z</time>
      </trkpt>
      <trkpt lat="43.50953" lon="6.37277">
        <ele>297</ele>
        <time>2022-01-21T15:02:21.000Z</time>
      </trkpt>
      <trkpt lat="43.50953" lon="6.37276">
        <ele>297</ele>
        <time>2022-01-21T15:02:22.000Z</time>
      </trkpt>
      <trkpt lat="43.50954" lon="6.37275">
        <ele>297</ele>
        <time>2022-01-21T15:02:23.000Z</time>
      </trkpt>
      <trkpt lat="43.50954" lon="6.37275">
        <ele>297</ele>
        <time>2022-01-21T15:02:24.000Z</time>
      </trkpt>
      <trkpt lat="43.50954" lon="6.37275">
        <ele>297</ele>
        <time>2022-01-21T15:02:25.000Z</time>
      </trkpt>
      <trkpt lat="43.50954" lon="6.37274">
        <ele>297</ele>
        <time>2022-01-21T15:02:26.000Z</time>
      </trkpt>
      <trkpt lat="43.50954" lon="6.37274">
        <ele>297</ele>
        <time>2022-01-21T15:02:27.000Z</time>
      </trkpt>
      <trkpt lat="43.50954" lon="6.37274">
        <ele>297</ele>
        <time>2022-01-21T15:02:28.000Z</time>
      </trkpt>
      <trkpt lat="43.50954" lon="6.37274">
        <ele>297</ele>
        <time>2022-01-21T15:02:29.000Z</time>
      </trkpt>
      <trkpt lat="43.50954" lon="6.37274">
        <ele>296</ele>
        <time>2022-01-21T15:02:30.000Z</time>
      </trkpt>
      <trkpt lat="43.50954" lon="6.37275">
        <ele>296</ele>
        <time>2022-01-21T15:02:31.000Z</time>
      </trkpt>
      <trkpt lat="43.50954" lon="6.37275">
        <ele>296</ele>
        <time>2022-01-21T15:02:32.000Z</time>
      </trkpt>
      <trkpt lat="43.50954" lon="6.37275">
        <ele>296</ele>
        <time>2022-01-21T15:02:33.000Z</time>
      </trkpt>
      <trkpt lat="43.50954" lon="6.37275">
        <ele>296</ele>
        <time>2022-01-21T15:02:34.000Z</time>
      </trkpt>
      <trkpt lat="43.50954" lon="6.37275">
        <ele>296</ele>
        <time>2022-01-21T15:02:35.000Z</time>
      </trkpt>
      <trkpt lat="43.50954" lon="6.37276">
        <ele>296</ele>
        <time>2022-01-21T15:02:36.000Z</time>
      </trkpt>
      <trkpt lat="43.50954" lon="6.37276">
        <ele>296</ele>
        <time>2022-01-21T15:02:37.000Z</time>
      </trkpt>
      <trkpt lat="43.50954" lon="6.37276">
        <ele>296</ele>
        <time>2022-01-21T15:02:38.000Z</time>
      </trkpt>
      <trkpt lat="43.50953" lon="6.37276">
        <ele>296</ele>
        <time>2022-01-21T15:02:39.000Z</time>
      </trkpt>
      <trkpt lat="43.50953" lon="6.37276">
        <ele>296</ele>
        <time>2022-01-21T15:02:40.000Z</time>
      </trkpt>
      <trkpt lat="43.50953" lon="6.37276">
        <ele>296</ele>
        <time>2022-01-21T15:02:41.000Z</time>
      </trkpt>
      <trkpt lat="43.50953" lon="6.37277">
        <ele>296</ele>
        <time>2022-01-21T15:02:42.000Z</time>
      </trkpt>
      <trkpt lat="43.50952" lon="6.37277">
        <ele>296</ele>
        <time>2022-01-21T15:02:43.000Z</time>
      </trkpt>
      <trkpt lat="43.50952" lon="6.37276">
        <ele>296</ele>
        <time>2022-01-21T15:02:44.000Z</time>
      </trkpt>
      <trkpt lat="43.50952" lon="6.37276">
        <ele>296</ele>
        <time>2022-01-21T15:02:45.000Z</time>
      </trkpt>
      <trkpt lat="43.50952" lon="6.37276">
        <ele>296</ele>
        <time>2022-01-21T15:02:46.000Z</time>
      </trkpt>
      <trkpt lat="43.50952" lon="6.37276">
        <ele>295</ele>
        <time>2022-01-21T15:02:47.000Z</time>
      </trkpt>
      <trkpt lat="43.50951" lon="6.37276">
        <ele>295</ele>
        <time>2022-01-21T15:02:48.000Z</time>
      </trkpt>
      <trkpt lat="43.50951" lon="6.37275">
        <ele>295</ele>
        <time>2022-01-21T15:02:49.000Z</time>
      </trkpt>
      <trkpt lat="43.5095" lon="6.37274">
        <ele>295</ele>
        <time>2022-01-21T15:02:50.000Z</time>
      </trkpt>
      <trkpt lat="43.5095" lon="6.37274">
        <ele>295</ele>
        <time>2022-01-21T15:02:51.000Z</time>
      </trkpt>
      <trkpt lat="43.5095" lon="6.37273">
        <ele>294</ele>
        <time>2022-01-21T15:02:52.000Z</time>
      </trkpt>
      <trkpt lat="43.50949" lon="6.37273">
        <ele>293</ele>
        <time>2022-01-21T15:02:53.000Z</time>
      </trkpt>
      <trkpt lat="43.50949" lon="6.37272">
        <ele>293</ele>
        <time>2022-01-21T15:02:54.000Z</time>
      </trkpt>
      <trkpt lat="43.50949" lon="6.37272">
        <ele>292</ele>
        <time>2022-01-21T15:02:55.000Z</time>
      </trkpt>
      <trkpt lat="43.50949" lon="6.37271">
        <ele>292</ele>
        <time>2022-01-21T15:02:56.000Z</time>
      </trkpt>
      <trkpt lat="43.50949" lon="6.37271">
        <ele>292</ele>
        <time>2022-01-21T15:02:57.000Z</time>
      </trkpt>
      <trkpt lat="43.50949" lon="6.37271">
        <ele>292</ele>
        <time>2022-01-21T15:02:58.000Z</time>
      </trkpt>
      <trkpt lat="43.50949" lon="6.37271">
        <ele>292</ele>
        <time>2022-01-21T15:02:59.000Z</time>
      </trkpt>
      <trkpt lat="43.50949" lon="6.37271">
        <ele>292</ele>
        <time>2022-01-21T15:03:00.000Z</time>
      </trkpt>
      <trkpt lat="43.50949" lon="6.3727">
        <ele>292</ele>
        <time>2022-01-21T15:03:01.000Z</time>
      </trkpt>
      <trkpt lat="43.50948" lon="6.3727">
        <ele>292</ele>
        <time>2022-01-21T15:03:02.000Z</time>
      </trkpt>
      <trkpt lat="43.50948" lon="6.3727">
        <ele>292</ele>
        <time>2022-01-21T15:03:03.000Z</time>
      </trkpt>
      <trkpt lat="43.50947" lon="6.3727">
        <ele>292</ele>
        <time>2022-01-21T15:03:04.000Z</time>
      </trkpt>
      <trkpt lat="43.50946" lon="6.37271">
        <ele>292</ele>
        <time>2022-01-21T15:03:05.000Z</time>
      </trkpt>
      <trkpt lat="43.50945" lon="6.37271">
        <ele>292</ele>
        <time>2022-01-21T15:03:06.000Z</time>
      </trkpt>
      <trkpt lat="43.50944" lon="6.37271">
        <ele>292</ele>
        <time>2022-01-21T15:03:07.000Z</time>
      </trkpt>
      <trkpt lat="43.50943" lon="6.37271">
        <ele>292</ele>
        <time>2022-01-21T15:03:08.000Z</time>
      </trkpt>
      <trkpt lat="43.50943" lon="6.37272">
        <ele>292</ele>
        <time>2022-01-21T15:03:09.000Z</time>
      </trkpt>
      <trkpt lat="43.50942" lon="6.37272">
        <ele>292</ele>
        <time>2022-01-21T15:03:10.000Z</time>
      </trkpt>
      <trkpt lat="43.50941" lon="6.37272">
        <ele>292</ele>
        <time>2022-01-21T15:03:11.000Z</time>
      </trkpt>
      <trkpt lat="43.5094" lon="6.37273">
        <ele>292</ele>
        <time>2022-01-21T15:03:12.000Z</time>
      </trkpt>
      <trkpt lat="43.50939" lon="6.37273">
        <ele>292</ele>
        <time>2022-01-21T15:03:13.000Z</time>
      </trkpt>
      <trkpt lat="43.50939" lon="6.37274">
        <ele>292</ele>
        <time>2022-01-21T15:03:14.000Z</time>
      </trkpt>
      <trkpt lat="43.50938" lon="6.37274">
        <ele>292</ele>
        <time>2022-01-21T15:03:15.000Z</time>
      </trkpt>
      <trkpt lat="43.50938" lon="6.37274">
        <ele>292</ele>
        <time>2022-01-21T15:03:16.000Z</time>
      </trkpt>
      <trkpt lat="43.50938" lon="6.37274">
        <ele>292</ele>
        <time>2022-01-21T15:03:17.000Z</time>
      </trkpt>
      <trkpt lat="43.50938" lon="6.37274">
        <ele>292</ele>
        <time>2022-01-21T15:03:18.000Z</time>
      </trkpt>
      <trkpt lat="43.50938" lon="6.37274">
        <ele>292</ele>
        <time>2022-01-21T15:03:19.000Z</time>
      </trkpt>
      <trkpt lat="43.50937" lon="6.37274">
        <ele>292</ele>
        <time>2022-01-21T15:03:20.000Z</time>
      </trkpt>
      <trkpt lat="43.50937" lon="6.37274">
        <ele>292</ele>
        <time>2022-01-21T15:03:21.000Z</time>
      </trkpt>
      <trkpt lat="43.50937" lon="6.37274">
        <ele>292</ele>
        <time>2022-01-21T15:03:22.000Z</time>
      </trkpt>
      <trkpt lat="43.50937" lon="6.37274">
        <ele>292</ele>
        <time>2022-01-21T15:03:23.000Z</time>
      </trkpt>
      <trkpt lat="43.50937" lon="6.37274">
        <ele>292</ele>
        <time>2022-01-21T15:03:24.000Z</time>
      </trkpt>
      <trkpt lat="43.50937" lon="6.37274">
        <ele>292</ele>
        <time>2022-01-21T15:03:25.000Z</time>
      </trkpt>
      <trkpt lat="43.50937" lon="6.37274">
        <ele>292</ele>
        <time>2022-01-21T15:03:26.000Z</time>
      </trkpt>
      <trkpt lat="43.50936" lon="6.37274">
        <ele>292</ele>
        <time>2022-01-21T15:03:27.000Z</time>
      </trkpt>
      <trkpt lat="43.50935" lon="6.37274">
        <ele>292</ele>
        <time>2022-01-21T15:03:28.000Z</time>
      </trkpt>
      <trkpt lat="43.50934" lon="6.37274">
        <ele>292</ele>
        <time>2022-01-21T15:03:29.000Z</time>
      </trkpt>
      <trkpt lat="43.50933" lon="6.37274">
        <ele>292</ele>
        <time>2022-01-21T15:03:30.000Z</time>
      </trkpt>
      <trkpt lat="43.50931" lon="6.37273">
        <ele>292</ele>
        <time>2022-01-21T15:03:31.000Z</time>
      </trkpt>
      <trkpt lat="43.5093" lon="6.37273">
        <ele>292</ele>
        <time>2022-01-21T15:03:32.000Z</time>
      </trkpt>
      <trkpt lat="43.5093" lon="6.37273">
        <ele>292</ele>
        <time>2022-01-21T15:03:33.000Z</time>
      </trkpt>
      <trkpt lat="43.50929" lon="6.37273">
        <ele>293</ele>
        <time>2022-01-21T15:03:34.000Z</time>
      </trkpt>
      <trkpt lat="43.50928" lon="6.37273">
        <ele>293</ele>
        <time>2022-01-21T15:03:35.000Z</time>
      </trkpt>
      <trkpt lat="43.50928" lon="6.37273">
        <ele>293</ele>
        <time>2022-01-21T15:03:36.000Z</time>
      </trkpt>
      <trkpt lat="43.50927" lon="6.37273">
        <ele>294</ele>
        <time>2022-01-21T15:03:37.000Z</time>
      </trkpt>
      <trkpt lat="43.50927" lon="6.37272">
        <ele>294</ele>
        <time>2022-01-21T15:03:38.000Z</time>
      </trkpt>
      <trkpt lat="43.50927" lon="6.37272">
        <ele>294</ele>
        <time>2022-01-21T15:03:39.000Z</time>
      </trkpt>
      <trkpt lat="43.50927" lon="6.37272">
        <ele>294</ele>
        <time>2022-01-21T15:03:40.000Z</time>
      </trkpt>
      <trkpt lat="43.50927" lon="6.37272">
        <ele>294</ele>
        <time>2022-01-21T15:03:41.000Z</time>
      </trkpt>
      <trkpt lat="43.50927" lon="6.37272">
        <ele>294</ele>
        <time>2022-01-21T15:03:42.000Z</time>
      </trkpt>
      <trkpt lat="43.50927" lon="6.37272">
        <ele>294</ele>
        <time>2022-01-21T15:03:43.000Z</time>
      </trkpt>
      <trkpt lat="43.50926" lon="6.37272">
        <ele>294</ele>
        <time>2022-01-21T15:03:44.000Z</time>
      </trkpt>
      <trkpt lat="43.50926" lon="6.37272">
        <ele>294</ele>
        <time>2022-01-21T15:03:45.000Z</time>
      </trkpt>
      <trkpt lat="43.50925" lon="6.37272">
        <ele>294</ele>
        <time>2022-01-21T15:03:46.000Z</time>
      </trkpt>
      <trkpt lat="43.50925" lon="6.37272">
        <ele>294</ele>
        <time>2022-01-21T15:03:47.000Z</time>
      </trkpt>
      <trkpt lat="43.50924" lon="6.37272">
        <ele>294</ele>
        <time>2022-01-21T15:03:48.000Z</time>
      </trkpt>
      <trkpt lat="43.50923" lon="6.37271">
        <ele>294</ele>
        <time>2022-01-21T15:03:49.000Z</time>
      </trkpt>
      <trkpt lat="43.50923" lon="6.3727">
        <ele>294</ele>
        <time>2022-01-21T15:03:50.000Z</time>
      </trkpt>
      <trkpt lat="43.50923" lon="6.37269">
        <ele>294</ele>
        <time>2022-01-21T15:03:51.000Z</time>
      </trkpt>
      <trkpt lat="43.50923" lon="6.37269">
        <ele>294</ele>
        <time>2022-01-21T15:03:52.000Z</time>
      </trkpt>
      <trkpt lat="43.50922" lon="6.37268">
        <ele>294</ele>
        <time>2022-01-21T15:03:53.000Z</time>
      </trkpt>
      <trkpt lat="43.50922" lon="6.37268">
        <ele>294</ele>
        <time>2022-01-21T15:03:54.000Z</time>
      </trkpt>
      <trkpt lat="43.50922" lon="6.37268">
        <ele>294</ele>
        <time>2022-01-21T15:03:55.000Z</time>
      </trkpt>
      <trkpt lat="43.5092" lon="6.37268">
        <ele>294</ele>
        <time>2022-01-21T15:03:56.000Z</time>
      </trkpt>
      <trkpt lat="43.50919" lon="6.37269">
        <ele>294</ele>
        <time>2022-01-21T15:03:57.000Z</time>
      </trkpt>
      <trkpt lat="43.50918" lon="6.37268">
        <ele>294</ele>
        <time>2022-01-21T15:03:58.000Z</time>
      </trkpt>
      <trkpt lat="43.50918" lon="6.37268">
        <ele>294</ele>
        <time>2022-01-21T15:03:59.000Z</time>
      </trkpt>
      <trkpt lat="43.50918" lon="6.37268">
        <ele>294</ele>
        <time>2022-01-21T15:04:00.000Z</time>
      </trkpt>
      <trkpt lat="43.50917" lon="6.37267">
        <ele>294</ele>
        <time>2022-01-21T15:04:01.000Z</time>
      </trkpt>
      <trkpt lat="43.50917" lon="6.37267">
        <ele>294</ele>
        <time>2022-01-21T15:04:02.000Z</time>
      </trkpt>
      <trkpt lat="43.50917" lon="6.37267">
        <ele>294</ele>
        <time>2022-01-21T15:04:03.000Z</time>
      </trkpt>
      <trkpt lat="43.50916" lon="6.37266">
        <ele>294</ele>
        <time>2022-01-21T15:04:04.000Z</time>
      </trkpt>
      <trkpt lat="43.50915" lon="6.37266">
        <ele>294</ele>
        <time>2022-01-21T15:04:05.000Z</time>
      </trkpt>
      <trkpt lat="43.50915" lon="6.37265">
        <ele>294</ele>
        <time>2022-01-21T15:04:06.000Z</time>
      </trkpt>
      <trkpt lat="43.50914" lon="6.37265">
        <ele>294</ele>
        <time>2022-01-21T15:04:07.000Z</time>
      </trkpt>
      <trkpt lat="43.50914" lon="6.37264">
        <ele>294</ele>
        <time>2022-01-21T15:04:08.000Z</time>
      </trkpt>
      <trkpt lat="43.50913" lon="6.37263">
        <ele>294</ele>
        <time>2022-01-21T15:04:09.000Z</time>
      </trkpt>
      <trkpt lat="43.50913" lon="6.37263">
        <ele>294</ele>
        <time>2022-01-21T15:04:10.000Z</time>
      </trkpt>
      <trkpt lat="43.50912" lon="6.37262">
        <ele>294</ele>
        <time>2022-01-21T15:04:11.000Z</time>
      </trkpt>
      <trkpt lat="43.50912" lon="6.37261">
        <ele>294</ele>
        <time>2022-01-21T15:04:12.000Z</time>
      </trkpt>
      <trkpt lat="43.50911" lon="6.37261">
        <ele>294</ele>
        <time>2022-01-21T15:04:13.000Z</time>
      </trkpt>
      <trkpt lat="43.5091" lon="6.3726">
        <ele>294</ele>
        <time>2022-01-21T15:04:14.000Z</time>
      </trkpt>
      <trkpt lat="43.5091" lon="6.3726">
        <ele>294</ele>
        <time>2022-01-21T15:04:15.000Z</time>
      </trkpt>
      <trkpt lat="43.50908" lon="6.3726">
        <ele>294</ele>
        <time>2022-01-21T15:04:16.000Z</time>
      </trkpt>
      <trkpt lat="43.50907" lon="6.37259">
        <ele>294</ele>
        <time>2022-01-21T15:04:17.000Z</time>
      </trkpt>
      <trkpt lat="43.50907" lon="6.37259">
        <ele>294</ele>
        <time>2022-01-21T15:04:18.000Z</time>
      </trkpt>
      <trkpt lat="43.50906" lon="6.37259">
        <ele>294</ele>
        <time>2022-01-21T15:04:19.000Z</time>
      </trkpt>
      <trkpt lat="43.50905" lon="6.37259">
        <ele>295</ele>
        <time>2022-01-21T15:04:20.000Z</time>
      </trkpt>
      <trkpt lat="43.50905" lon="6.3726">
        <ele>295</ele>
        <time>2022-01-21T15:04:21.000Z</time>
      </trkpt>
      <trkpt lat="43.50904" lon="6.3726">
        <ele>295</ele>
        <time>2022-01-21T15:04:22.000Z</time>
      </trkpt>
      <trkpt lat="43.50903" lon="6.3726">
        <ele>295</ele>
        <time>2022-01-21T15:04:23.000Z</time>
      </trkpt>
      <trkpt lat="43.50902" lon="6.37261">
        <ele>297</ele>
        <time>2022-01-21T15:04:24.000Z</time>
      </trkpt>
      <trkpt lat="43.50902" lon="6.3726">
        <ele>297</ele>
        <time>2022-01-21T15:04:25.000Z</time>
      </trkpt>
      <trkpt lat="43.50901" lon="6.3726">
        <ele>298</ele>
        <time>2022-01-21T15:04:26.000Z</time>
      </trkpt>
      <trkpt lat="43.509" lon="6.3726">
        <ele>298</ele>
        <time>2022-01-21T15:04:27.000Z</time>
      </trkpt>
      <trkpt lat="43.50898" lon="6.37259">
        <ele>298</ele>
        <time>2022-01-21T15:04:28.000Z</time>
      </trkpt>
      <trkpt lat="43.50898" lon="6.37259">
        <ele>298</ele>
        <time>2022-01-21T15:04:29.000Z</time>
      </trkpt>
      <trkpt lat="43.50897" lon="6.37259">
        <ele>299</ele>
        <time>2022-01-21T15:04:30.000Z</time>
      </trkpt>
      <trkpt lat="43.50896" lon="6.37258">
        <ele>299</ele>
        <time>2022-01-21T15:04:31.000Z</time>
      </trkpt>
      <trkpt lat="43.50896" lon="6.37258">
        <ele>299</ele>
        <time>2022-01-21T15:04:32.000Z</time>
      </trkpt>
      <trkpt lat="43.50895" lon="6.37258">
        <ele>299</ele>
        <time>2022-01-21T15:04:33.000Z</time>
      </trkpt>
      <trkpt lat="43.50894" lon="6.37258">
        <ele>299</ele>
        <time>2022-01-21T15:04:34.000Z</time>
      </trkpt>
      <trkpt lat="43.50894" lon="6.37258">
        <ele>299</ele>
        <time>2022-01-21T15:04:35.000Z</time>
      </trkpt>
      <trkpt lat="43.50894" lon="6.37257">
        <ele>299</ele>
        <time>2022-01-21T15:04:36.000Z</time>
      </trkpt>
      <trkpt lat="43.50893" lon="6.37257">
        <ele>300</ele>
        <time>2022-01-21T15:04:37.000Z</time>
      </trkpt>
      <trkpt lat="43.50893" lon="6.37257">
        <ele>300</ele>
        <time>2022-01-21T15:04:38.000Z</time>
      </trkpt>
      <trkpt lat="43.50892" lon="6.37256">
        <ele>299</ele>
        <time>2022-01-21T15:04:39.000Z</time>
      </trkpt>
      <trkpt lat="43.50892" lon="6.37256">
        <ele>299</ele>
        <time>2022-01-21T15:04:40.000Z</time>
      </trkpt>
      <trkpt lat="43.50891" lon="6.37256">
        <ele>299</ele>
        <time>2022-01-21T15:04:41.000Z</time>
      </trkpt>
      <trkpt lat="43.5089" lon="6.37255">
        <ele>299</ele>
        <time>2022-01-21T15:04:42.000Z</time>
      </trkpt>
      <trkpt lat="43.50889" lon="6.37254">
        <ele>299</ele>
        <time>2022-01-21T15:04:43.000Z</time>
      </trkpt>
      <trkpt lat="43.50888" lon="6.37253">
        <ele>299</ele>
        <time>2022-01-21T15:04:44.000Z</time>
      </trkpt>
      <trkpt lat="43.50888" lon="6.37253">
        <ele>299</ele>
        <time>2022-01-21T15:04:45.000Z</time>
      </trkpt>
      <trkpt lat="43.50887" lon="6.37253">
        <ele>299</ele>
        <time>2022-01-21T15:04:46.000Z</time>
      </trkpt>
      <trkpt lat="43.50887" lon="6.37253">
        <ele>299</ele>
        <time>2022-01-21T15:04:47.000Z</time>
      </trkpt>
      <trkpt lat="43.50887" lon="6.37252">
        <ele>299</ele>
        <time>2022-01-21T15:04:48.000Z</time>
      </trkpt>
      <trkpt lat="43.50886" lon="6.37252">
        <ele>299</ele>
        <time>2022-01-21T15:04:49.000Z</time>
      </trkpt>
      <trkpt lat="43.50886" lon="6.37252">
        <ele>299</ele>
        <time>2022-01-21T15:04:50.000Z</time>
      </trkpt>
      <trkpt lat="43.50886" lon="6.37252">
        <ele>299</ele>
        <time>2022-01-21T15:04:51.000Z</time>
      </trkpt>
      <trkpt lat="43.50886" lon="6.37251">
        <ele>299</ele>
        <time>2022-01-21T15:04:52.000Z</time>
      </trkpt>
      <trkpt lat="43.50885" lon="6.37251">
        <ele>299</ele>
        <time>2022-01-21T15:04:53.000Z</time>
      </trkpt>
      <trkpt lat="43.50885" lon="6.3725">
        <ele>299</ele>
        <time>2022-01-21T15:04:54.000Z</time>
      </trkpt>
      <trkpt lat="43.50884" lon="6.37249">
        <ele>298</ele>
        <time>2022-01-21T15:04:55.000Z</time>
      </trkpt>
      <trkpt lat="43.50883" lon="6.37248">
        <ele>298</ele>
        <time>2022-01-21T15:04:56.000Z</time>
      </trkpt>
      <trkpt lat="43.50882" lon="6.37248">
        <ele>298</ele>
        <time>2022-01-21T15:04:57.000Z</time>
      </trkpt>
      <trkpt lat="43.50881" lon="6.37247">
        <ele>298</ele>
        <time>2022-01-21T15:04:58.000Z</time>
      </trkpt>
      <trkpt lat="43.50881" lon="6.37246">
        <ele>299</ele>
        <time>2022-01-21T15:04:59.000Z</time>
      </trkpt>
      <trkpt lat="43.5088" lon="6.37245">
        <ele>299</ele>
        <time>2022-01-21T15:05:00.000Z</time>
      </trkpt>
      <trkpt lat="43.50879" lon="6.37245">
        <ele>299</ele>
        <time>2022-01-21T15:05:01.000Z</time>
      </trkpt>
      <trkpt lat="43.50878" lon="6.37244">
        <ele>299</ele>
        <time>2022-01-21T15:05:02.000Z</time>
      </trkpt>
      <trkpt lat="43.50877" lon="6.37244">
        <ele>299</ele>
        <time>2022-01-21T15:05:03.000Z</time>
      </trkpt>
      <trkpt lat="43.50876" lon="6.37243">
        <ele>299</ele>
        <time>2022-01-21T15:05:04.000Z</time>
      </trkpt>
      <trkpt lat="43.50875" lon="6.37243">
        <ele>299</ele>
        <time>2022-01-21T15:05:05.000Z</time>
      </trkpt>
      <trkpt lat="43.50874" lon="6.37242">
        <ele>299</ele>
        <time>2022-01-21T15:05:06.000Z</time>
      </trkpt>
      <trkpt lat="43.50874" lon="6.37242">
        <ele>299</ele>
        <time>2022-01-21T15:05:07.000Z</time>
      </trkpt>
      <trkpt lat="43.50873" lon="6.37241">
        <ele>299</ele>
        <time>2022-01-21T15:05:08.000Z</time>
      </trkpt>
      <trkpt lat="43.50872" lon="6.37241">
        <ele>300</ele>
        <time>2022-01-21T15:05:09.000Z</time>
      </trkpt>
      <trkpt lat="43.50871" lon="6.3724">
        <ele>300</ele>
        <time>2022-01-21T15:05:10.000Z</time>
      </trkpt>
      <trkpt lat="43.5087" lon="6.3724">
        <ele>300</ele>
        <time>2022-01-21T15:05:11.000Z</time>
      </trkpt>
      <trkpt lat="43.50869" lon="6.37239">
        <ele>300</ele>
        <time>2022-01-21T15:05:12.000Z</time>
      </trkpt>
      <trkpt lat="43.50869" lon="6.37238">
        <ele>300</ele>
        <time>2022-01-21T15:05:13.000Z</time>
      </trkpt>
      <trkpt lat="43.50869" lon="6.37238">
        <ele>300</ele>
        <time>2022-01-21T15:05:14.000Z</time>
      </trkpt>
      <trkpt lat="43.50868" lon="6.37238">
        <ele>300</ele>
        <time>2022-01-21T15:05:15.000Z</time>
      </trkpt>
      <trkpt lat="43.50868" lon="6.37238">
        <ele>300</ele>
        <time>2022-01-21T15:05:16.000Z</time>
      </trkpt>
      <trkpt lat="43.50868" lon="6.37237">
        <ele>300</ele>
        <time>2022-01-21T15:05:17.000Z</time>
      </trkpt>
      <trkpt lat="43.50868" lon="6.37237">
        <ele>300</ele>
        <time>2022-01-21T15:05:18.000Z</time>
      </trkpt>
      <trkpt lat="43.50867" lon="6.37236">
        <ele>300</ele>
        <time>2022-01-21T15:05:19.000Z</time>
      </trkpt>
      <trkpt lat="43.50867" lon="6.37235">
        <ele>300</ele>
        <time>2022-01-21T15:05:20.000Z</time>
      </trkpt>
      <trkpt lat="43.50867" lon="6.37234">
        <ele>300</ele>
        <time>2022-01-21T15:05:21.000Z</time>
      </trkpt>
      <trkpt lat="43.50867" lon="6.37233">
        <ele>300</ele>
        <time>2022-01-21T15:05:22.000Z</time>
      </trkpt>
      <trkpt lat="43.50867" lon="6.37232">
        <ele>300</ele>
        <time>2022-01-21T15:05:23.000Z</time>
      </trkpt>
      <trkpt lat="43.50867" lon="6.37232">
        <ele>300</ele>
        <time>2022-01-21T15:05:24.000Z</time>
      </trkpt>
      <trkpt lat="43.50867" lon="6.37232">
        <ele>300</ele>
        <time>2022-01-21T15:05:25.000Z</time>
      </trkpt>
      <trkpt lat="43.50867" lon="6.37232">
        <ele>300</ele>
        <time>2022-01-21T15:05:26.000Z</time>
      </trkpt>
      <trkpt lat="43.50867" lon="6.37232">
        <ele>300</ele>
        <time>2022-01-21T15:05:27.000Z</time>
      </trkpt>
      <trkpt lat="43.50867" lon="6.37232">
        <ele>300</ele>
        <time>2022-01-21T15:05:28.000Z</time>
      </trkpt>
      <trkpt lat="43.50867" lon="6.37232">
        <ele>300</ele>
        <time>2022-01-21T15:05:29.000Z</time>
      </trkpt>
      <trkpt lat="43.50867" lon="6.37232">
        <ele>300</ele>
        <time>2022-01-21T15:05:30.000Z</time>
      </trkpt>
      <trkpt lat="43.50867" lon="6.37232">
        <ele>300</ele>
        <time>2022-01-21T15:05:31.000Z</time>
      </trkpt>
      <trkpt lat="43.50867" lon="6.37232">
        <ele>300</ele>
        <time>2022-01-21T15:05:32.000Z</time>
      </trkpt>
      <trkpt lat="43.50867" lon="6.37232">
        <ele>300</ele>
        <time>2022-01-21T15:05:33.000Z</time>
      </trkpt>
      <trkpt lat="43.50867" lon="6.37232">
        <ele>300</ele>
        <time>2022-01-21T15:05:34.000Z</time>
      </trkpt>
      <trkpt lat="43.50866" lon="6.37227">
        <ele>300</ele>
        <time>2022-01-21T15:05:35.000Z</time>
      </trkpt>
      <trkpt lat="43.50866" lon="6.37227">
        <ele>300</ele>
        <time>2022-01-21T15:05:36.000Z</time>
      </trkpt>
      <trkpt lat="43.50866" lon="6.37227">
        <ele>300</ele>
        <time>2022-01-21T15:05:37.000Z</time>
      </trkpt>
      <trkpt lat="43.50866" lon="6.37226">
        <ele>300</ele>
        <time>2022-01-21T15:05:38.000Z</time>
      </trkpt>
      <trkpt lat="43.50865" lon="6.37226">
        <ele>300</ele>
        <time>2022-01-21T15:05:39.000Z</time>
      </trkpt>
      <trkpt lat="43.50865" lon="6.37225">
        <ele>300</ele>
        <time>2022-01-21T15:05:40.000Z</time>
      </trkpt>
      <trkpt lat="43.50864" lon="6.37225">
        <ele>300</ele>
        <time>2022-01-21T15:05:41.000Z</time>
      </trkpt>
      <trkpt lat="43.50863" lon="6.37224">
        <ele>300</ele>
        <time>2022-01-21T15:05:42.000Z</time>
      </trkpt>
      <trkpt lat="43.50861" lon="6.37223">
        <ele>300</ele>
        <time>2022-01-21T15:05:43.000Z</time>
      </trkpt>
      <trkpt lat="43.50859" lon="6.37222">
        <ele>300</ele>
        <time>2022-01-21T15:05:44.000Z</time>
      </trkpt>
      <trkpt lat="43.50858" lon="6.37221">
        <ele>300</ele>
        <time>2022-01-21T15:05:45.000Z</time>
      </trkpt>
      <trkpt lat="43.50856" lon="6.3722">
        <ele>300</ele>
        <time>2022-01-21T15:05:46.000Z</time>
      </trkpt>
      <trkpt lat="43.50855" lon="6.37219">
        <ele>300</ele>
        <time>2022-01-21T15:05:47.000Z</time>
      </trkpt>
      <trkpt lat="43.50855" lon="6.37219">
        <ele>300</ele>
        <time>2022-01-21T15:05:48.000Z</time>
      </trkpt>
      <trkpt lat="43.50854" lon="6.37219">
        <ele>300</ele>
        <time>2022-01-21T15:05:49.000Z</time>
      </trkpt>
      <trkpt lat="43.50853" lon="6.3722">
        <ele>300</ele>
        <time>2022-01-21T15:05:50.000Z</time>
      </trkpt>
      <trkpt lat="43.50853" lon="6.3722">
        <ele>300</ele>
        <time>2022-01-21T15:05:51.000Z</time>
      </trkpt>
      <trkpt lat="43.50851" lon="6.37221">
        <ele>299</ele>
        <time>2022-01-21T15:05:52.000Z</time>
      </trkpt>
      <trkpt lat="43.5085" lon="6.37222">
        <ele>299</ele>
        <time>2022-01-21T15:05:53.000Z</time>
      </trkpt>
      <trkpt lat="43.50849" lon="6.37222">
        <ele>299</ele>
        <time>2022-01-21T15:05:54.000Z</time>
      </trkpt>
      <trkpt lat="43.50849" lon="6.37223">
        <ele>299</ele>
        <time>2022-01-21T15:05:55.000Z</time>
      </trkpt>
      <trkpt lat="43.50848" lon="6.37224">
        <ele>298</ele>
        <time>2022-01-21T15:05:56.000Z</time>
      </trkpt>
      <trkpt lat="43.50847" lon="6.37225">
        <ele>297</ele>
        <time>2022-01-21T15:05:57.000Z</time>
      </trkpt>
      <trkpt lat="43.50847" lon="6.37226">
        <ele>297</ele>
        <time>2022-01-21T15:05:58.000Z</time>
      </trkpt>
      <trkpt lat="43.50846" lon="6.37227">
        <ele>297</ele>
        <time>2022-01-21T15:05:59.000Z</time>
      </trkpt>
      <trkpt lat="43.50845" lon="6.37228">
        <ele>297</ele>
        <time>2022-01-21T15:06:00.000Z</time>
      </trkpt>
      <trkpt lat="43.50844" lon="6.37229">
        <ele>296</ele>
        <time>2022-01-21T15:06:01.000Z</time>
      </trkpt>
      <trkpt lat="43.50844" lon="6.3723">
        <ele>296</ele>
        <time>2022-01-21T15:06:02.000Z</time>
      </trkpt>
      <trkpt lat="43.50843" lon="6.37231">
        <ele>296</ele>
        <time>2022-01-21T15:06:03.000Z</time>
      </trkpt>
      <trkpt lat="43.50842" lon="6.37232">
        <ele>296</ele>
        <time>2022-01-21T15:06:04.000Z</time>
      </trkpt>
      <trkpt lat="43.50842" lon="6.37233">
        <ele>296</ele>
        <time>2022-01-21T15:06:05.000Z</time>
      </trkpt>
      <trkpt lat="43.50841" lon="6.37233">
        <ele>296</ele>
        <time>2022-01-21T15:06:06.000Z</time>
      </trkpt>
      <trkpt lat="43.50841" lon="6.37234">
        <ele>296</ele>
        <time>2022-01-21T15:06:07.000Z</time>
      </trkpt>
      <trkpt lat="43.50841" lon="6.37235">
        <ele>296</ele>
        <time>2022-01-21T15:06:08.000Z</time>
      </trkpt>
      <trkpt lat="43.50841" lon="6.37236">
        <ele>296</ele>
        <time>2022-01-21T15:06:09.000Z</time>
      </trkpt>
      <trkpt lat="43.5084" lon="6.37237">
        <ele>296</ele>
        <time>2022-01-21T15:06:10.000Z</time>
      </trkpt>
      <trkpt lat="43.5084" lon="6.37238">
        <ele>296</ele>
        <time>2022-01-21T15:06:11.000Z</time>
      </trkpt>
      <trkpt lat="43.5084" lon="6.37239">
        <ele>296</ele>
        <time>2022-01-21T15:06:12.000Z</time>
      </trkpt>
      <trkpt lat="43.5084" lon="6.37239">
        <ele>295</ele>
        <time>2022-01-21T15:06:13.000Z</time>
      </trkpt>
      <trkpt lat="43.5084" lon="6.3724">
        <ele>295</ele>
        <time>2022-01-21T15:06:14.000Z</time>
      </trkpt>
      <trkpt lat="43.50839" lon="6.37241">
        <ele>295</ele>
        <time>2022-01-21T15:06:15.000Z</time>
      </trkpt>
      <trkpt lat="43.50839" lon="6.37243">
        <ele>295</ele>
        <time>2022-01-21T15:06:16.000Z</time>
      </trkpt>
      <trkpt lat="43.50838" lon="6.37245">
        <ele>295</ele>
        <time>2022-01-21T15:06:17.000Z</time>
      </trkpt>
      <trkpt lat="43.50838" lon="6.37247">
        <ele>295</ele>
        <time>2022-01-21T15:06:18.000Z</time>
      </trkpt>
      <trkpt lat="43.50837" lon="6.37249">
        <ele>295</ele>
        <time>2022-01-21T15:06:19.000Z</time>
      </trkpt>
      <trkpt lat="43.50837" lon="6.37251">
        <ele>295</ele>
        <time>2022-01-21T15:06:20.000Z</time>
      </trkpt>
      <trkpt lat="43.50837" lon="6.37252">
        <ele>294</ele>
        <time>2022-01-21T15:06:21.000Z</time>
      </trkpt>
      <trkpt lat="43.50837" lon="6.37254">
        <ele>294</ele>
        <time>2022-01-21T15:06:22.000Z</time>
      </trkpt>
      <trkpt lat="43.50837" lon="6.37255">
        <ele>294</ele>
        <time>2022-01-21T15:06:23.000Z</time>
      </trkpt>
      <trkpt lat="43.50837" lon="6.37257">
        <ele>292</ele>
        <time>2022-01-21T15:06:24.000Z</time>
      </trkpt>
      <trkpt lat="43.50837" lon="6.37258">
        <ele>292</ele>
        <time>2022-01-21T15:06:25.000Z</time>
      </trkpt>
      <trkpt lat="43.50837" lon="6.37259">
        <ele>291</ele>
        <time>2022-01-21T15:06:26.000Z</time>
      </trkpt>
      <trkpt lat="43.50837" lon="6.37261">
        <ele>291</ele>
        <time>2022-01-21T15:06:27.000Z</time>
      </trkpt>
      <trkpt lat="43.50837" lon="6.37262">
        <ele>291</ele>
        <time>2022-01-21T15:06:28.000Z</time>
      </trkpt>
      <trkpt lat="43.50837" lon="6.37263">
        <ele>291</ele>
        <time>2022-01-21T15:06:29.000Z</time>
      </trkpt>
      <trkpt lat="43.50837" lon="6.37264">
        <ele>291</ele>
        <time>2022-01-21T15:06:30.000Z</time>
      </trkpt>
      <trkpt lat="43.50837" lon="6.37265">
        <ele>291</ele>
        <time>2022-01-21T15:06:31.000Z</time>
      </trkpt>
      <trkpt lat="43.50837" lon="6.37266">
        <ele>291</ele>
        <time>2022-01-21T15:06:32.000Z</time>
      </trkpt>
      <trkpt lat="43.50837" lon="6.37267">
        <ele>291</ele>
        <time>2022-01-21T15:06:33.000Z</time>
      </trkpt>
      <trkpt lat="43.50836" lon="6.37269">
        <ele>291</ele>
        <time>2022-01-21T15:06:34.000Z</time>
      </trkpt>
      <trkpt lat="43.50836" lon="6.3727">
        <ele>291</ele>
        <time>2022-01-21T15:06:35.000Z</time>
      </trkpt>
      <trkpt lat="43.50836" lon="6.37271">
        <ele>291</ele>
        <time>2022-01-21T15:06:36.000Z</time>
      </trkpt>
      <trkpt lat="43.50835" lon="6.37273">
        <ele>291</ele>
        <time>2022-01-21T15:06:37.000Z</time>
      </trkpt>
      <trkpt lat="43.50835" lon="6.37274">
        <ele>291</ele>
        <time>2022-01-21T15:06:38.000Z</time>
      </trkpt>
      <trkpt lat="43.50835" lon="6.37276">
        <ele>291</ele>
        <time>2022-01-21T15:06:39.000Z</time>
      </trkpt>
      <trkpt lat="43.50834" lon="6.37277">
        <ele>291</ele>
        <time>2022-01-21T15:06:40.000Z</time>
      </trkpt>
      <trkpt lat="43.50834" lon="6.37279">
        <ele>291</ele>
        <time>2022-01-21T15:06:41.000Z</time>
      </trkpt>
      <trkpt lat="43.50834" lon="6.3728">
        <ele>290</ele>
        <time>2022-01-21T15:06:42.000Z</time>
      </trkpt>
      <trkpt lat="43.50834" lon="6.37281">
        <ele>290</ele>
        <time>2022-01-21T15:06:43.000Z</time>
      </trkpt>
      <trkpt lat="43.50834" lon="6.37282">
        <ele>290</ele>
        <time>2022-01-21T15:06:44.000Z</time>
      </trkpt>
      <trkpt lat="43.50834" lon="6.37283">
        <ele>290</ele>
        <time>2022-01-21T15:06:45.000Z</time>
      </trkpt>
      <trkpt lat="43.50834" lon="6.37284">
        <ele>290</ele>
        <time>2022-01-21T15:06:46.000Z</time>
      </trkpt>
      <trkpt lat="43.50834" lon="6.37286">
        <ele>290</ele>
        <time>2022-01-21T15:06:47.000Z</time>
      </trkpt>
      <trkpt lat="43.50834" lon="6.37288">
        <ele>289</ele>
        <time>2022-01-21T15:06:48.000Z</time>
      </trkpt>
      <trkpt lat="43.50834" lon="6.37289">
        <ele>289</ele>
        <time>2022-01-21T15:06:49.000Z</time>
      </trkpt>
      <trkpt lat="43.50834" lon="6.3729">
        <ele>289</ele>
        <time>2022-01-21T15:06:50.000Z</time>
      </trkpt>
      <trkpt lat="43.50834" lon="6.37291">
        <ele>289</ele>
        <time>2022-01-21T15:06:51.000Z</time>
      </trkpt>
      <trkpt lat="43.50833" lon="6.37292">
        <ele>289</ele>
        <time>2022-01-21T15:06:52.000Z</time>
      </trkpt>
      <trkpt lat="43.50833" lon="6.37293">
        <ele>289</ele>
        <time>2022-01-21T15:06:53.000Z</time>
      </trkpt>
      <trkpt lat="43.50833" lon="6.37295">
        <ele>289</ele>
        <time>2022-01-21T15:06:54.000Z</time>
      </trkpt>
      <trkpt lat="43.50833" lon="6.37297">
        <ele>289</ele>
        <time>2022-01-21T15:06:55.000Z</time>
      </trkpt>
      <trkpt lat="43.50832" lon="6.37298">
        <ele>289</ele>
        <time>2022-01-21T15:06:56.000Z</time>
      </trkpt>
      <trkpt lat="43.50832" lon="6.37299">
        <ele>289</ele>
        <time>2022-01-21T15:06:57.000Z</time>
      </trkpt>
      <trkpt lat="43.50832" lon="6.373">
        <ele>289</ele>
        <time>2022-01-21T15:06:58.000Z</time>
      </trkpt>
      <trkpt lat="43.50832" lon="6.37301">
        <ele>288</ele>
        <time>2022-01-21T15:06:59.000Z</time>
      </trkpt>
      <trkpt lat="43.50832" lon="6.37302">
        <ele>288</ele>
        <time>2022-01-21T15:07:00.000Z</time>
      </trkpt>
      <trkpt lat="43.50832" lon="6.37303">
        <ele>288</ele>
        <time>2022-01-21T15:07:01.000Z</time>
      </trkpt>
      <trkpt lat="43.50832" lon="6.37306">
        <ele>288</ele>
        <time>2022-01-21T15:07:02.000Z</time>
      </trkpt>
      <trkpt lat="43.50832" lon="6.37308">
        <ele>288</ele>
        <time>2022-01-21T15:07:03.000Z</time>
      </trkpt>
      <trkpt lat="43.50831" lon="6.3731">
        <ele>288</ele>
        <time>2022-01-21T15:07:04.000Z</time>
      </trkpt>
      <trkpt lat="43.50831" lon="6.37311">
        <ele>288</ele>
        <time>2022-01-21T15:07:05.000Z</time>
      </trkpt>
      <trkpt lat="43.50831" lon="6.37313">
        <ele>288</ele>
        <time>2022-01-21T15:07:06.000Z</time>
      </trkpt>
      <trkpt lat="43.5083" lon="6.37314">
        <ele>288</ele>
        <time>2022-01-21T15:07:07.000Z</time>
      </trkpt>
      <trkpt lat="43.5083" lon="6.37315">
        <ele>288</ele>
        <time>2022-01-21T15:07:08.000Z</time>
      </trkpt>
      <trkpt lat="43.5083" lon="6.37315">
        <ele>286</ele>
        <time>2022-01-21T15:07:09.000Z</time>
      </trkpt>
      <trkpt lat="43.5083" lon="6.37316">
        <ele>286</ele>
        <time>2022-01-21T15:07:10.000Z</time>
      </trkpt>
      <trkpt lat="43.5083" lon="6.37317">
        <ele>286</ele>
        <time>2022-01-21T15:07:11.000Z</time>
      </trkpt>
      <trkpt lat="43.50829" lon="6.37318">
        <ele>286</ele>
        <time>2022-01-21T15:07:12.000Z</time>
      </trkpt>
      <trkpt lat="43.50829" lon="6.37319">
        <ele>286</ele>
        <time>2022-01-21T15:07:13.000Z</time>
      </trkpt>
      <trkpt lat="43.50828" lon="6.37322">
        <ele>286</ele>
        <time>2022-01-21T15:07:14.000Z</time>
      </trkpt>
      <trkpt lat="43.50828" lon="6.37324">
        <ele>286</ele>
        <time>2022-01-21T15:07:15.000Z</time>
      </trkpt>
      <trkpt lat="43.50827" lon="6.37327">
        <ele>286</ele>
        <time>2022-01-21T15:07:16.000Z</time>
      </trkpt>
      <trkpt lat="43.50826" lon="6.37328">
        <ele>286</ele>
        <time>2022-01-21T15:07:17.000Z</time>
      </trkpt>
      <trkpt lat="43.50826" lon="6.3733">
        <ele>287</ele>
        <time>2022-01-21T15:07:18.000Z</time>
      </trkpt>
      <trkpt lat="43.50825" lon="6.37332">
        <ele>287</ele>
        <time>2022-01-21T15:07:19.000Z</time>
      </trkpt>
      <trkpt lat="43.50825" lon="6.37333">
        <ele>287</ele>
        <time>2022-01-21T15:07:20.000Z</time>
      </trkpt>
      <trkpt lat="43.50825" lon="6.37335">
        <ele>287</ele>
        <time>2022-01-21T15:07:21.000Z</time>
      </trkpt>
      <trkpt lat="43.50824" lon="6.37336">
        <ele>287</ele>
        <time>2022-01-21T15:07:22.000Z</time>
      </trkpt>
      <trkpt lat="43.50824" lon="6.37337">
        <ele>287</ele>
        <time>2022-01-21T15:07:23.000Z</time>
      </trkpt>
      <trkpt lat="43.50823" lon="6.37339">
        <ele>287</ele>
        <time>2022-01-21T15:07:24.000Z</time>
      </trkpt>
      <trkpt lat="43.50823" lon="6.3734">
        <ele>287</ele>
        <time>2022-01-21T15:07:25.000Z</time>
      </trkpt>
      <trkpt lat="43.50823" lon="6.37342">
        <ele>288</ele>
        <time>2022-01-21T15:07:26.000Z</time>
      </trkpt>
      <trkpt lat="43.50822" lon="6.37342">
        <ele>288</ele>
        <time>2022-01-21T15:07:27.000Z</time>
      </trkpt>
      <trkpt lat="43.50822" lon="6.37343">
        <ele>288</ele>
        <time>2022-01-21T15:07:28.000Z</time>
      </trkpt>
      <trkpt lat="43.50822" lon="6.37344">
        <ele>288</ele>
        <time>2022-01-21T15:07:29.000Z</time>
      </trkpt>
      <trkpt lat="43.50822" lon="6.37345">
        <ele>289</ele>
        <time>2022-01-21T15:07:30.000Z</time>
      </trkpt>
      <trkpt lat="43.50823" lon="6.37347">
        <ele>290</ele>
        <time>2022-01-21T15:07:31.000Z</time>
      </trkpt>
      <trkpt lat="43.50823" lon="6.37348">
        <ele>290</ele>
        <time>2022-01-21T15:07:32.000Z</time>
      </trkpt>
      <trkpt lat="43.50824" lon="6.37348">
        <ele>290</ele>
        <time>2022-01-21T15:07:33.000Z</time>
      </trkpt>
      <trkpt lat="43.50824" lon="6.37349">
        <ele>290</ele>
        <time>2022-01-21T15:07:34.000Z</time>
      </trkpt>
      <trkpt lat="43.50825" lon="6.37349">
        <ele>290</ele>
        <time>2022-01-21T15:07:35.000Z</time>
      </trkpt>
      <trkpt lat="43.50825" lon="6.3735">
        <ele>290</ele>
        <time>2022-01-21T15:07:36.000Z</time>
      </trkpt>
      <trkpt lat="43.50825" lon="6.3735">
        <ele>290</ele>
        <time>2022-01-21T15:07:37.000Z</time>
      </trkpt>
      <trkpt lat="43.50826" lon="6.3735">
        <ele>290</ele>
        <time>2022-01-21T15:07:38.000Z</time>
      </trkpt>
      <trkpt lat="43.50826" lon="6.3735">
        <ele>290</ele>
        <time>2022-01-21T15:07:39.000Z</time>
      </trkpt>
      <trkpt lat="43.50826" lon="6.3735">
        <ele>290</ele>
        <time>2022-01-21T15:07:40.000Z</time>
      </trkpt>
      <trkpt lat="43.50826" lon="6.3735">
        <ele>290</ele>
        <time>2022-01-21T15:07:41.000Z</time>
      </trkpt>
      <trkpt lat="43.50827" lon="6.3735">
        <ele>290</ele>
        <time>2022-01-21T15:07:42.000Z</time>
      </trkpt>
      <trkpt lat="43.50827" lon="6.37351">
        <ele>290</ele>
        <time>2022-01-21T15:07:43.000Z</time>
      </trkpt>
      <trkpt lat="43.50827" lon="6.37351">
        <ele>290</ele>
        <time>2022-01-21T15:07:44.000Z</time>
      </trkpt>
      <trkpt lat="43.50828" lon="6.37351">
        <ele>290</ele>
        <time>2022-01-21T15:07:45.000Z</time>
      </trkpt>
      <trkpt lat="43.50828" lon="6.37351">
        <ele>290</ele>
        <time>2022-01-21T15:07:46.000Z</time>
      </trkpt>
      <trkpt lat="43.50828" lon="6.37351">
        <ele>290</ele>
        <time>2022-01-21T15:07:47.000Z</time>
      </trkpt>
      <trkpt lat="43.50828" lon="6.37352">
        <ele>290</ele>
        <time>2022-01-21T15:07:48.000Z</time>
      </trkpt>
      <trkpt lat="43.50828" lon="6.37352">
        <ele>289</ele>
        <time>2022-01-21T15:07:49.000Z</time>
      </trkpt>
      <trkpt lat="43.50828" lon="6.37352">
        <ele>289</ele>
        <time>2022-01-21T15:07:50.000Z</time>
      </trkpt>
      <trkpt lat="43.50828" lon="6.37351">
        <ele>289</ele>
        <time>2022-01-21T15:07:51.000Z</time>
      </trkpt>
      <trkpt lat="43.50828" lon="6.37351">
        <ele>289</ele>
        <time>2022-01-21T15:07:52.000Z</time>
      </trkpt>
      <trkpt lat="43.50828" lon="6.37351">
        <ele>289</ele>
        <time>2022-01-21T15:07:53.000Z</time>
      </trkpt>
      <trkpt lat="43.50829" lon="6.37351">
        <ele>289</ele>
        <time>2022-01-21T15:07:54.000Z</time>
      </trkpt>
      <trkpt lat="43.50829" lon="6.37351">
        <ele>289</ele>
        <time>2022-01-21T15:07:55.000Z</time>
      </trkpt>
      <trkpt lat="43.50829" lon="6.37351">
        <ele>289</ele>
        <time>2022-01-21T15:07:56.000Z</time>
      </trkpt>
      <trkpt lat="43.50828" lon="6.37351">
        <ele>289</ele>
        <time>2022-01-21T15:07:57.000Z</time>
      </trkpt>
      <trkpt lat="43.50828" lon="6.3735">
        <ele>289</ele>
        <time>2022-01-21T15:07:58.000Z</time>
      </trkpt>
      <trkpt lat="43.50828" lon="6.3735">
        <ele>289</ele>
        <time>2022-01-21T15:07:59.000Z</time>
      </trkpt>
      <trkpt lat="43.50828" lon="6.3735">
        <ele>289</ele>
        <time>2022-01-21T15:08:00.000Z</time>
      </trkpt>
      <trkpt lat="43.50827" lon="6.3735">
        <ele>289</ele>
        <time>2022-01-21T15:08:01.000Z</time>
      </trkpt>
      <trkpt lat="43.50827" lon="6.3735">
        <ele>289</ele>
        <time>2022-01-21T15:08:02.000Z</time>
      </trkpt>
      <trkpt lat="43.50827" lon="6.3735">
        <ele>290</ele>
        <time>2022-01-21T15:08:03.000Z</time>
      </trkpt>
      <trkpt lat="43.50826" lon="6.37349">
        <ele>290</ele>
        <time>2022-01-21T15:08:04.000Z</time>
      </trkpt>
      <trkpt lat="43.50826" lon="6.37349">
        <ele>290</ele>
        <time>2022-01-21T15:08:05.000Z</time>
      </trkpt>
      <trkpt lat="43.50826" lon="6.37349">
        <ele>290</ele>
        <time>2022-01-21T15:08:06.000Z</time>
      </trkpt>
      <trkpt lat="43.50826" lon="6.37349">
        <ele>290</ele>
        <time>2022-01-21T15:08:07.000Z</time>
      </trkpt>
      <trkpt lat="43.50826" lon="6.37349">
        <ele>290</ele>
        <time>2022-01-21T15:08:08.000Z</time>
      </trkpt>
      <trkpt lat="43.50826" lon="6.37349">
        <ele>290</ele>
        <time>2022-01-21T15:08:09.000Z</time>
      </trkpt>
      <trkpt lat="43.50826" lon="6.37348">
        <ele>290</ele>
        <time>2022-01-21T15:08:10.000Z</time>
      </trkpt>
      <trkpt lat="43.50827" lon="6.37348">
        <ele>290</ele>
        <time>2022-01-21T15:08:11.000Z</time>
      </trkpt>
      <trkpt lat="43.50827" lon="6.37348">
        <ele>290</ele>
        <time>2022-01-21T15:08:12.000Z</time>
      </trkpt>
      <trkpt lat="43.50827" lon="6.37348">
        <ele>290</ele>
        <time>2022-01-21T15:08:13.000Z</time>
      </trkpt>
      <trkpt lat="43.50827" lon="6.37347">
        <ele>290</ele>
        <time>2022-01-21T15:08:14.000Z</time>
      </trkpt>
      <trkpt lat="43.50828" lon="6.37347">
        <ele>290</ele>
        <time>2022-01-21T15:08:15.000Z</time>
      </trkpt>
      <trkpt lat="43.50828" lon="6.37347">
        <ele>290</ele>
        <time>2022-01-21T15:08:16.000Z</time>
      </trkpt>
      <trkpt lat="43.50828" lon="6.37347">
        <ele>290</ele>
        <time>2022-01-21T15:08:17.000Z</time>
      </trkpt>
      <trkpt lat="43.50828" lon="6.37347">
        <ele>291</ele>
        <time>2022-01-21T15:08:18.000Z</time>
      </trkpt>
      <trkpt lat="43.50828" lon="6.37347">
        <ele>291</ele>
        <time>2022-01-21T15:08:19.000Z</time>
      </trkpt>
      <trkpt lat="43.50828" lon="6.37347">
        <ele>291</ele>
        <time>2022-01-21T15:08:20.000Z</time>
      </trkpt>
      <trkpt lat="43.50828" lon="6.37347">
        <ele>291</ele>
        <time>2022-01-21T15:08:21.000Z</time>
      </trkpt>
      <trkpt lat="43.50828" lon="6.37347">
        <ele>291</ele>
        <time>2022-01-21T15:08:22.000Z</time>
      </trkpt>
      <trkpt lat="43.50828" lon="6.37346">
        <ele>291</ele>
        <time>2022-01-21T15:08:23.000Z</time>
      </trkpt>
      <trkpt lat="43.50829" lon="6.37346">
        <ele>291</ele>
        <time>2022-01-21T15:08:24.000Z</time>
      </trkpt>
      <trkpt lat="43.50829" lon="6.37346">
        <ele>291</ele>
        <time>2022-01-21T15:08:25.000Z</time>
      </trkpt>
      <trkpt lat="43.50829" lon="6.37346">
        <ele>291</ele>
        <time>2022-01-21T15:08:26.000Z</time>
      </trkpt>
      <trkpt lat="43.50829" lon="6.37346">
        <ele>291</ele>
        <time>2022-01-21T15:08:27.000Z</time>
      </trkpt>
      <trkpt lat="43.50829" lon="6.37346">
        <ele>291</ele>
        <time>2022-01-21T15:08:28.000Z</time>
      </trkpt>
      <trkpt lat="43.50829" lon="6.37346">
        <ele>291</ele>
        <time>2022-01-21T15:08:29.000Z</time>
      </trkpt>
      <trkpt lat="43.50829" lon="6.37346">
        <ele>291</ele>
        <time>2022-01-21T15:08:30.000Z</time>
      </trkpt>
      <trkpt lat="43.50829" lon="6.37346">
        <ele>291</ele>
        <time>2022-01-21T15:08:31.000Z</time>
      </trkpt>
      <trkpt lat="43.50829" lon="6.37346">
        <ele>291</ele>
        <time>2022-01-21T15:08:32.000Z</time>
      </trkpt>
      <trkpt lat="43.50829" lon="6.37346">
        <ele>291</ele>
        <time>2022-01-21T15:08:33.000Z</time>
      </trkpt>
      <trkpt lat="43.50829" lon="6.37346">
        <ele>291</ele>
        <time>2022-01-21T15:08:34.000Z</time>
      </trkpt>
      <trkpt lat="43.50829" lon="6.37346">
        <ele>291</ele>
        <time>2022-01-21T15:08:35.000Z</time>
      </trkpt>
      <trkpt lat="43.50829" lon="6.37346">
        <ele>291</ele>
        <time>2022-01-21T15:08:36.000Z</time>
      </trkpt>
      <trkpt lat="43.50829" lon="6.37346">
        <ele>291</ele>
        <time>2022-01-21T15:08:37.000Z</time>
      </trkpt>
      <trkpt lat="43.50829" lon="6.37346">
        <ele>291</ele>
        <time>2022-01-21T15:08:38.000Z</time>
      </trkpt>
      <trkpt lat="43.50829" lon="6.37346">
        <ele>291</ele>
        <time>2022-01-21T15:08:39.000Z</time>
      </trkpt>
      <trkpt lat="43.50829" lon="6.37346">
        <ele>291</ele>
        <time>2022-01-21T15:08:40.000Z</time>
      </trkpt>
      <trkpt lat="43.50829" lon="6.37346">
        <ele>291</ele>
        <time>2022-01-21T15:08:41.000Z</time>
      </trkpt>
      <trkpt lat="43.50829" lon="6.37346">
        <ele>291</ele>
        <time>2022-01-21T15:08:42.000Z</time>
      </trkpt>
      <trkpt lat="43.50829" lon="6.37346">
        <ele>291</ele>
        <time>2022-01-21T15:08:43.000Z</time>
      </trkpt>
      <trkpt lat="43.50829" lon="6.37346">
        <ele>291</ele>
        <time>2022-01-21T15:08:44.000Z</time>
      </trkpt>
      <trkpt lat="43.50829" lon="6.37346">
        <ele>291</ele>
        <time>2022-01-21T15:08:45.000Z</time>
      </trkpt>
      <trkpt lat="43.50829" lon="6.37346">
        <ele>291</ele>
        <time>2022-01-21T15:08:46.000Z</time>
      </trkpt>
      <trkpt lat="43.50829" lon="6.37346">
        <ele>291</ele>
        <time>2022-01-21T15:08:47.000Z</time>
      </trkpt>
      <trkpt lat="43.50829" lon="6.37346">
        <ele>292</ele>
        <time>2022-01-21T15:08:48.000Z</time>
      </trkpt>
      <trkpt lat="43.50829" lon="6.37346">
        <ele>292</ele>
        <time>2022-01-21T15:08:49.000Z</time>
      </trkpt>
      <trkpt lat="43.50829" lon="6.37346">
        <ele>292</ele>
        <time>2022-01-21T15:08:50.000Z</time>
      </trkpt>
      <trkpt lat="43.50829" lon="6.37346">
        <ele>292</ele>
        <time>2022-01-21T15:08:51.000Z</time>
      </trkpt>
      <trkpt lat="43.50829" lon="6.37348">
        <ele>292</ele>
        <time>2022-01-21T15:08:52.000Z</time>
      </trkpt>
      <trkpt lat="43.50829" lon="6.37348">
        <ele>292</ele>
        <time>2022-01-21T15:08:53.000Z</time>
      </trkpt>
      <trkpt lat="43.50829" lon="6.37348">
        <ele>292</ele>
        <time>2022-01-21T15:08:54.000Z</time>
      </trkpt>
      <trkpt lat="43.50828" lon="6.37347">
        <ele>292</ele>
        <time>2022-01-21T15:08:55.000Z</time>
      </trkpt>
      <trkpt lat="43.50828" lon="6.37347">
        <ele>292</ele>
        <time>2022-01-21T15:08:56.000Z</time>
      </trkpt>
      <trkpt lat="43.50828" lon="6.37346">
        <ele>292</ele>
        <time>2022-01-21T15:08:57.000Z</time>
      </trkpt>
      <trkpt lat="43.50828" lon="6.37346">
        <ele>292</ele>
        <time>2022-01-21T15:08:58.000Z</time>
      </trkpt>
      <trkpt lat="43.50828" lon="6.37345">
        <ele>292</ele>
        <time>2022-01-21T15:08:59.000Z</time>
      </trkpt>
      <trkpt lat="43.50828" lon="6.37345">
        <ele>292</ele>
        <time>2022-01-21T15:09:00.000Z</time>
      </trkpt>
      <trkpt lat="43.50828" lon="6.37345">
        <ele>292</ele>
        <time>2022-01-21T15:09:01.000Z</time>
      </trkpt>
      <trkpt lat="43.50828" lon="6.37345">
        <ele>292</ele>
        <time>2022-01-21T15:09:02.000Z</time>
      </trkpt>
      <trkpt lat="43.50828" lon="6.37345">
        <ele>292</ele>
        <time>2022-01-21T15:09:03.000Z</time>
      </trkpt>
      <trkpt lat="43.50828" lon="6.37345">
        <ele>292</ele>
        <time>2022-01-21T15:09:04.000Z</time>
      </trkpt>
      <trkpt lat="43.50828" lon="6.37345">
        <ele>292</ele>
        <time>2022-01-21T15:09:05.000Z</time>
      </trkpt>
      <trkpt lat="43.50828" lon="6.37344">
        <ele>292</ele>
        <time>2022-01-21T15:09:06.000Z</time>
      </trkpt>
      <trkpt lat="43.50828" lon="6.37345">
        <ele>292</ele>
        <time>2022-01-21T15:09:07.000Z</time>
      </trkpt>
      <trkpt lat="43.50827" lon="6.37345">
        <ele>292</ele>
        <time>2022-01-21T15:09:08.000Z</time>
      </trkpt>
      <trkpt lat="43.50827" lon="6.37345">
        <ele>292</ele>
        <time>2022-01-21T15:09:09.000Z</time>
      </trkpt>
      <trkpt lat="43.50826" lon="6.37345">
        <ele>292</ele>
        <time>2022-01-21T15:09:10.000Z</time>
      </trkpt>
      <trkpt lat="43.50826" lon="6.37346">
        <ele>292</ele>
        <time>2022-01-21T15:09:11.000Z</time>
      </trkpt>
      <trkpt lat="43.50825" lon="6.37346">
        <ele>292</ele>
        <time>2022-01-21T15:09:12.000Z</time>
      </trkpt>
      <trkpt lat="43.50825" lon="6.37346">
        <ele>292</ele>
        <time>2022-01-21T15:09:13.000Z</time>
      </trkpt>
      <trkpt lat="43.50825" lon="6.37346">
        <ele>292</ele>
        <time>2022-01-21T15:09:14.000Z</time>
      </trkpt>
      <trkpt lat="43.50825" lon="6.37346">
        <ele>292</ele>
        <time>2022-01-21T15:09:15.000Z</time>
      </trkpt>
      <trkpt lat="43.50825" lon="6.37346">
        <ele>292</ele>
        <time>2022-01-21T15:09:16.000Z</time>
      </trkpt>
      <trkpt lat="43.50824" lon="6.37346">
        <ele>292</ele>
        <time>2022-01-21T15:09:17.000Z</time>
      </trkpt>
      <trkpt lat="43.50824" lon="6.37346">
        <ele>292</ele>
        <time>2022-01-21T15:09:18.000Z</time>
      </trkpt>
      <trkpt lat="43.50824" lon="6.37346">
        <ele>292</ele>
        <time>2022-01-21T15:09:19.000Z</time>
      </trkpt>
      <trkpt lat="43.50824" lon="6.37346">
        <ele>292</ele>
        <time>2022-01-21T15:09:20.000Z</time>
      </trkpt>
      <trkpt lat="43.50824" lon="6.37346">
        <ele>292</ele>
        <time>2022-01-21T15:09:21.000Z</time>
      </trkpt>
      <trkpt lat="43.50824" lon="6.37346">
        <ele>292</ele>
        <time>2022-01-21T15:09:22.000Z</time>
      </trkpt>
      <trkpt lat="43.50824" lon="6.37346">
        <ele>292</ele>
        <time>2022-01-21T15:09:23.000Z</time>
      </trkpt>
      <trkpt lat="43.50824" lon="6.37346">
        <ele>292</ele>
        <time>2022-01-21T15:09:24.000Z</time>
      </trkpt>
      <trkpt lat="43.50824" lon="6.37346">
        <ele>292</ele>
        <time>2022-01-21T15:09:25.000Z</time>
      </trkpt>
      <trkpt lat="43.50824" lon="6.37346">
        <ele>292</ele>
        <time>2022-01-21T15:09:26.000Z</time>
      </trkpt>
      <trkpt lat="43.50824" lon="6.37346">
        <ele>292</ele>
        <time>2022-01-21T15:09:27.000Z</time>
      </trkpt>
      <trkpt lat="43.50824" lon="6.37346">
        <ele>292</ele>
        <time>2022-01-21T15:09:28.000Z</time>
      </trkpt>
      <trkpt lat="43.50824" lon="6.37346">
        <ele>292</ele>
        <time>2022-01-21T15:09:29.000Z</time>
      </trkpt>
      <trkpt lat="43.50824" lon="6.37346">
        <ele>292</ele>
        <time>2022-01-21T15:09:30.000Z</time>
      </trkpt>
      <trkpt lat="43.50824" lon="6.37346">
        <ele>292</ele>
        <time>2022-01-21T15:09:31.000Z</time>
      </trkpt>
      <trkpt lat="43.50824" lon="6.37346">
        <ele>292</ele>
        <time>2022-01-21T15:09:32.000Z</time>
      </trkpt>
      <trkpt lat="43.50824" lon="6.37346">
        <ele>292</ele>
        <time>2022-01-21T15:09:33.000Z</time>
      </trkpt>
      <trkpt lat="43.50824" lon="6.37346">
        <ele>292</ele>
        <time>2022-01-21T15:09:34.000Z</time>
      </trkpt>
      <trkpt lat="43.50824" lon="6.37346">
        <ele>292</ele>
        <time>2022-01-21T15:09:35.000Z</time>
      </trkpt>
      <trkpt lat="43.50824" lon="6.37346">
        <ele>292</ele>
        <time>2022-01-21T15:09:36.000Z</time>
      </trkpt>
      <trkpt lat="43.50824" lon="6.37346">
        <ele>292</ele>
        <time>2022-01-21T15:09:37.000Z</time>
      </trkpt>
      <trkpt lat="43.50824" lon="6.37346">
        <ele>292</ele>
        <time>2022-01-21T15:09:38.000Z</time>
      </trkpt>
      <trkpt lat="43.50824" lon="6.37346">
        <ele>292</ele>
        <time>2022-01-21T15:09:39.000Z</time>
      </trkpt>
      <trkpt lat="43.50824" lon="6.37346">
        <ele>292</ele>
        <time>2022-01-21T15:09:40.000Z</time>
      </trkpt>
      <trkpt lat="43.50824" lon="6.37346">
        <ele>292</ele>
        <time>2022-01-21T15:09:41.000Z</time>
      </trkpt>
      <trkpt lat="43.50824" lon="6.37347">
        <ele>292</ele>
        <time>2022-01-21T15:09:42.000Z</time>
      </trkpt>
      <trkpt lat="43.50825" lon="6.37347">
        <ele>292</ele>
        <time>2022-01-21T15:09:43.000Z</time>
      </trkpt>
      <trkpt lat="43.50825" lon="6.37347">
        <ele>292</ele>
        <time>2022-01-21T15:09:44.000Z</time>
      </trkpt>
      <trkpt lat="43.50825" lon="6.37348">
        <ele>292</ele>
        <time>2022-01-21T15:09:45.000Z</time>
      </trkpt>
      <trkpt lat="43.50824" lon="6.37348">
        <ele>292</ele>
        <time>2022-01-21T15:09:46.000Z</time>
      </trkpt>
      <trkpt lat="43.50824" lon="6.37349">
        <ele>292</ele>
        <time>2022-01-21T15:09:47.000Z</time>
      </trkpt>
      <trkpt lat="43.50824" lon="6.37349">
        <ele>292</ele>
        <time>2022-01-21T15:09:48.000Z</time>
      </trkpt>
      <trkpt lat="43.50825" lon="6.37349">
        <ele>292</ele>
        <time>2022-01-21T15:09:49.000Z</time>
      </trkpt>
      <trkpt lat="43.50825" lon="6.37349">
        <ele>292</ele>
        <time>2022-01-21T15:09:50.000Z</time>
      </trkpt>
      <trkpt lat="43.50825" lon="6.37349">
        <ele>292</ele>
        <time>2022-01-21T15:09:51.000Z</time>
      </trkpt>
      <trkpt lat="43.50825" lon="6.37349">
        <ele>292</ele>
        <time>2022-01-21T15:09:52.000Z</time>
      </trkpt>
      <trkpt lat="43.50826" lon="6.37349">
        <ele>292</ele>
        <time>2022-01-21T15:09:53.000Z</time>
      </trkpt>
      <trkpt lat="43.50826" lon="6.37349">
        <ele>292</ele>
        <time>2022-01-21T15:09:54.000Z</time>
      </trkpt>
      <trkpt lat="43.50826" lon="6.37349">
        <ele>292</ele>
        <time>2022-01-21T15:09:55.000Z</time>
      </trkpt>
      <trkpt lat="43.50826" lon="6.3735">
        <ele>292</ele>
        <time>2022-01-21T15:09:56.000Z</time>
      </trkpt>
      <trkpt lat="43.50827" lon="6.3735">
        <ele>292</ele>
        <time>2022-01-21T15:09:57.000Z</time>
      </trkpt>
      <trkpt lat="43.50827" lon="6.3735">
        <ele>292</ele>
        <time>2022-01-21T15:09:58.000Z</time>
      </trkpt>
      <trkpt lat="43.50828" lon="6.37351">
        <ele>292</ele>
        <time>2022-01-21T15:09:59.000Z</time>
      </trkpt>
      <trkpt lat="43.50828" lon="6.37351">
        <ele>292</ele>
        <time>2022-01-21T15:10:00.000Z</time>
      </trkpt>
      <trkpt lat="43.50828" lon="6.37351">
        <ele>292</ele>
        <time>2022-01-21T15:10:01.000Z</time>
      </trkpt>
      <trkpt lat="43.50829" lon="6.37351">
        <ele>292</ele>
        <time>2022-01-21T15:10:02.000Z</time>
      </trkpt>
      <trkpt lat="43.50829" lon="6.37352">
        <ele>292</ele>
        <time>2022-01-21T15:10:03.000Z</time>
      </trkpt>
      <trkpt lat="43.50829" lon="6.37352">
        <ele>292</ele>
        <time>2022-01-21T15:10:04.000Z</time>
      </trkpt>
      <trkpt lat="43.50829" lon="6.37352">
        <ele>292</ele>
        <time>2022-01-21T15:10:05.000Z</time>
      </trkpt>
      <trkpt lat="43.50829" lon="6.37352">
        <ele>292</ele>
        <time>2022-01-21T15:10:06.000Z</time>
      </trkpt>
      <trkpt lat="43.50829" lon="6.37352">
        <ele>292</ele>
        <time>2022-01-21T15:10:07.000Z</time>
      </trkpt>
      <trkpt lat="43.50829" lon="6.37352">
        <ele>292</ele>
        <time>2022-01-21T15:10:08.000Z</time>
      </trkpt>
      <trkpt lat="43.50829" lon="6.37352">
        <ele>292</ele>
        <time>2022-01-21T15:10:09.000Z</time>
      </trkpt>
      <trkpt lat="43.50829" lon="6.37352">
        <ele>292</ele>
        <time>2022-01-21T15:10:10.000Z</time>
      </trkpt>
      <trkpt lat="43.50829" lon="6.37352">
        <ele>292</ele>
        <time>2022-01-21T15:10:11.000Z</time>
      </trkpt>
      <trkpt lat="43.50829" lon="6.37352">
        <ele>292</ele>
        <time>2022-01-21T15:10:12.000Z</time>
      </trkpt>
      <trkpt lat="43.50829" lon="6.37352">
        <ele>292</ele>
        <time>2022-01-21T15:10:13.000Z</time>
      </trkpt>
      <trkpt lat="43.50829" lon="6.37352">
        <ele>292</ele>
        <time>2022-01-21T15:10:14.000Z</time>
      </trkpt>
      <trkpt lat="43.50829" lon="6.37352">
        <ele>292</ele>
        <time>2022-01-21T15:10:15.000Z</time>
      </trkpt>
      <trkpt lat="43.50829" lon="6.37352">
        <ele>292</ele>
        <time>2022-01-21T15:10:16.000Z</time>
      </trkpt>
      <trkpt lat="43.50829" lon="6.37352">
        <ele>292</ele>
        <time>2022-01-21T15:10:17.000Z</time>
      </trkpt>
      <trkpt lat="43.50829" lon="6.37352">
        <ele>292</ele>
        <time>2022-01-21T15:10:18.000Z</time>
      </trkpt>
      <trkpt lat="43.50831" lon="6.37351">
        <ele>291</ele>
        <time>2022-01-21T15:10:19.000Z</time>
      </trkpt>
      <trkpt lat="43.50831" lon="6.37351">
        <ele>290</ele>
        <time>2022-01-21T15:10:20.000Z</time>
      </trkpt>
      <trkpt lat="43.50831" lon="6.3735">
        <ele>290</ele>
        <time>2022-01-21T15:10:21.000Z</time>
      </trkpt>
      <trkpt lat="43.50831" lon="6.3735">
        <ele>290</ele>
        <time>2022-01-21T15:10:22.000Z</time>
      </trkpt>
      <trkpt lat="43.50831" lon="6.3735">
        <ele>290</ele>
        <time>2022-01-21T15:10:23.000Z</time>
      </trkpt>
      <trkpt lat="43.50831" lon="6.3735">
        <ele>290</ele>
        <time>2022-01-21T15:10:24.000Z</time>
      </trkpt>
      <trkpt lat="43.50831" lon="6.3735">
        <ele>290</ele>
        <time>2022-01-21T15:10:25.000Z</time>
      </trkpt>
      <trkpt lat="43.50831" lon="6.3735">
        <ele>290</ele>
        <time>2022-01-21T15:10:26.000Z</time>
      </trkpt>
      <trkpt lat="43.50831" lon="6.3735">
        <ele>290</ele>
        <time>2022-01-21T15:10:27.000Z</time>
      </trkpt>
      <trkpt lat="43.50831" lon="6.3735">
        <ele>290</ele>
        <time>2022-01-21T15:10:28.000Z</time>
      </trkpt>
      <trkpt lat="43.50831" lon="6.3735">
        <ele>290</ele>
        <time>2022-01-21T15:10:29.000Z</time>
      </trkpt>
      <trkpt lat="43.50831" lon="6.3735">
        <ele>290</ele>
        <time>2022-01-21T15:10:30.000Z</time>
      </trkpt>
      <trkpt lat="43.50831" lon="6.3735">
        <ele>290</ele>
        <time>2022-01-21T15:10:31.000Z</time>
      </trkpt>
      <trkpt lat="43.50831" lon="6.3735">
        <ele>290</ele>
        <time>2022-01-21T15:10:32.000Z</time>
      </trkpt>
      <trkpt lat="43.50831" lon="6.3735">
        <ele>290</ele>
        <time>2022-01-21T15:10:33.000Z</time>
      </trkpt>
      <trkpt lat="43.50831" lon="6.3735">
        <ele>290</ele>
        <time>2022-01-21T15:10:34.000Z</time>
      </trkpt>
      <trkpt lat="43.50831" lon="6.3735">
        <ele>290</ele>
        <time>2022-01-21T15:10:35.000Z</time>
      </trkpt>
      <trkpt lat="43.50831" lon="6.3735">
        <ele>290</ele>
        <time>2022-01-21T15:10:36.000Z</time>
      </trkpt>
      <trkpt lat="43.50831" lon="6.3735">
        <ele>290</ele>
        <time>2022-01-21T15:10:37.000Z</time>
      </trkpt>
      <trkpt lat="43.50831" lon="6.3735">
        <ele>290</ele>
        <time>2022-01-21T15:10:38.000Z</time>
      </trkpt>
      <trkpt lat="43.50831" lon="6.3735">
        <ele>290</ele>
        <time>2022-01-21T15:10:39.000Z</time>
      </trkpt>
      <trkpt lat="43.50831" lon="6.3735">
        <ele>290</ele>
        <time>2022-01-21T15:10:40.000Z</time>
      </trkpt>
      <trkpt lat="43.50831" lon="6.3735">
        <ele>290</ele>
        <time>2022-01-21T15:10:41.000Z</time>
      </trkpt>
      <trkpt lat="43.50831" lon="6.3735">
        <ele>290</ele>
        <time>2022-01-21T15:10:42.000Z</time>
      </trkpt>
      <trkpt lat="43.50831" lon="6.3735">
        <ele>290</ele>
        <time>2022-01-21T15:10:43.000Z</time>
      </trkpt>
      <trkpt lat="43.50831" lon="6.3735">
        <ele>290</ele>
        <time>2022-01-21T15:10:44.000Z</time>
      </trkpt>
      <trkpt lat="43.50831" lon="6.3735">
        <ele>290</ele>
        <time>2022-01-21T15:10:45.000Z</time>
      </trkpt>
      <trkpt lat="43.50831" lon="6.3735">
        <ele>290</ele>
        <time>2022-01-21T15:10:46.000Z</time>
      </trkpt>
      <trkpt lat="43.50831" lon="6.3735">
        <ele>290</ele>
        <time>2022-01-21T15:10:47.000Z</time>
      </trkpt>
      <trkpt lat="43.50831" lon="6.3735">
        <ele>290</ele>
        <time>2022-01-21T15:10:48.000Z</time>
      </trkpt>
      <trkpt lat="43.50831" lon="6.3735">
        <ele>290</ele>
        <time>2022-01-21T15:10:49.000Z</time>
      </trkpt>
      <trkpt lat="43.50831" lon="6.3735">
        <ele>290</ele>
        <time>2022-01-21T15:10:50.000Z</time>
      </trkpt>
      <trkpt lat="43.50831" lon="6.3735">
        <ele>290</ele>
        <time>2022-01-21T15:10:51.000Z</time>
      </trkpt>
      <trkpt lat="43.50831" lon="6.3735">
        <ele>290</ele>
        <time>2022-01-21T15:10:52.000Z</time>
      </trkpt>
      <trkpt lat="43.50831" lon="6.3735">
        <ele>290</ele>
        <time>2022-01-21T15:10:53.000Z</time>
      </trkpt>
      <trkpt lat="43.50831" lon="6.3735">
        <ele>290</ele>
        <time>2022-01-21T15:10:54.000Z</time>
      </trkpt>
      <trkpt lat="43.50831" lon="6.3735">
        <ele>290</ele>
        <time>2022-01-21T15:10:55.000Z</time>
      </trkpt>
      <trkpt lat="43.50831" lon="6.3735">
        <ele>290</ele>
        <time>2022-01-21T15:10:56.000Z</time>
      </trkpt>
      <trkpt lat="43.50831" lon="6.3735">
        <ele>290</ele>
        <time>2022-01-21T15:10:57.000Z</time>
      </trkpt>
      <trkpt lat="43.50831" lon="6.3735">
        <ele>290</ele>
        <time>2022-01-21T15:10:58.000Z</time>
      </trkpt>
      <trkpt lat="43.50831" lon="6.3735">
        <ele>290</ele>
        <time>2022-01-21T15:10:59.000Z</time>
      </trkpt>
      <trkpt lat="43.50831" lon="6.3735">
        <ele>290</ele>
        <time>2022-01-21T15:11:00.000Z</time>
      </trkpt>
      <trkpt lat="43.50831" lon="6.3735">
        <ele>290</ele>
        <time>2022-01-21T15:11:01.000Z</time>
      </trkpt>
      <trkpt lat="43.50831" lon="6.3735">
        <ele>290</ele>
        <time>2022-01-21T15:11:02.000Z</time>
      </trkpt>
      <trkpt lat="43.50831" lon="6.3735">
        <ele>290</ele>
        <time>2022-01-21T15:11:03.000Z</time>
      </trkpt>
      <trkpt lat="43.50831" lon="6.3735">
        <ele>290</ele>
        <time>2022-01-21T15:11:04.000Z</time>
      </trkpt>
      <trkpt lat="43.50831" lon="6.3735">
        <ele>290</ele>
        <time>2022-01-21T15:11:05.000Z</time>
      </trkpt>
      <trkpt lat="43.50831" lon="6.3735">
        <ele>290</ele>
        <time>2022-01-21T15:11:06.000Z</time>
      </trkpt>
      <trkpt lat="43.50831" lon="6.3735">
        <ele>290</ele>
        <time>2022-01-21T15:11:07.000Z</time>
      </trkpt>
      <trkpt lat="43.50831" lon="6.3735">
        <ele>290</ele>
        <time>2022-01-21T15:11:08.000Z</time>
      </trkpt>
      <trkpt lat="43.50831" lon="6.3735">
        <ele>290</ele>
        <time>2022-01-21T15:11:09.000Z</time>
      </trkpt>
      <trkpt lat="43.50831" lon="6.3735">
        <ele>290</ele>
        <time>2022-01-21T15:11:10.000Z</time>
      </trkpt>
      <trkpt lat="43.50831" lon="6.3735">
        <ele>290</ele>
        <time>2022-01-21T15:11:11.000Z</time>
      </trkpt>
      <trkpt lat="43.50831" lon="6.3735">
        <ele>290</ele>
        <time>2022-01-21T15:11:12.000Z</time>
      </trkpt>
      <trkpt lat="43.50831" lon="6.3735">
        <ele>290</ele>
        <time>2022-01-21T15:11:13.000Z</time>
      </trkpt>
      <trkpt lat="43.50831" lon="6.3735">
        <ele>290</ele>
        <time>2022-01-21T15:11:14.000Z</time>
      </trkpt>
      <trkpt lat="43.50831" lon="6.3735">
        <ele>290</ele>
        <time>2022-01-21T15:11:15.000Z</time>
      </trkpt>
      <trkpt lat="43.50831" lon="6.3735">
        <ele>290</ele>
        <time>2022-01-21T15:11:16.000Z</time>
      </trkpt>
      <trkpt lat="43.50831" lon="6.3735">
        <ele>290</ele>
        <time>2022-01-21T15:11:17.000Z</time>
      </trkpt>
      <trkpt lat="43.50831" lon="6.3735">
        <ele>290</ele>
        <time>2022-01-21T15:11:18.000Z</time>
      </trkpt>
      <trkpt lat="43.50831" lon="6.3735">
        <ele>290</ele>
        <time>2022-01-21T15:11:19.000Z</time>
      </trkpt>
      <trkpt lat="43.50831" lon="6.3735">
        <ele>290</ele>
        <time>2022-01-21T15:11:20.000Z</time>
      </trkpt>
      <trkpt lat="43.50831" lon="6.3735">
        <ele>290</ele>
        <time>2022-01-21T15:11:21.000Z</time>
      </trkpt>
      <trkpt lat="43.50831" lon="6.3735">
        <ele>290</ele>
        <time>2022-01-21T15:11:22.000Z</time>
      </trkpt>
      <trkpt lat="43.50831" lon="6.3735">
        <ele>290</ele>
        <time>2022-01-21T15:11:23.000Z</time>
      </trkpt>
      <trkpt lat="43.50831" lon="6.3735">
        <ele>290</ele>
        <time>2022-01-21T15:11:24.000Z</time>
      </trkpt>
      <trkpt lat="43.50831" lon="6.3735">
        <ele>290</ele>
        <time>2022-01-21T15:11:25.000Z</time>
      </trkpt>
      <trkpt lat="43.50831" lon="6.3735">
        <ele>290</ele>
        <time>2022-01-21T15:11:26.000Z</time>
      </trkpt>
      <trkpt lat="43.50831" lon="6.3735">
        <ele>290</ele>
        <time>2022-01-21T15:11:27.000Z</time>
      </trkpt>
      <trkpt lat="43.50831" lon="6.3735">
        <ele>290</ele>
        <time>2022-01-21T15:11:28.000Z</time>
      </trkpt>
      <trkpt lat="43.50832" lon="6.3735">
        <ele>290</ele>
        <time>2022-01-21T15:11:29.000Z</time>
      </trkpt>
      <trkpt lat="43.50831" lon="6.3735">
        <ele>290</ele>
        <time>2022-01-21T15:11:30.000Z</time>
      </trkpt>
      <trkpt lat="43.50831" lon="6.37351">
        <ele>290</ele>
        <time>2022-01-21T15:11:31.000Z</time>
      </trkpt>
      <trkpt lat="43.50831" lon="6.37351">
        <ele>290</ele>
        <time>2022-01-21T15:11:32.000Z</time>
      </trkpt>
      <trkpt lat="43.50831" lon="6.37351">
        <ele>290</ele>
        <time>2022-01-21T15:11:33.000Z</time>
      </trkpt>
      <trkpt lat="43.5083" lon="6.37351">
        <ele>290</ele>
        <time>2022-01-21T15:11:34.000Z</time>
      </trkpt>
      <trkpt lat="43.5083" lon="6.3735">
        <ele>290</ele>
        <time>2022-01-21T15:11:35.000Z</time>
      </trkpt>
      <trkpt lat="43.5083" lon="6.3735">
        <ele>290</ele>
        <time>2022-01-21T15:11:36.000Z</time>
      </trkpt>
      <trkpt lat="43.5083" lon="6.37349">
        <ele>290</ele>
        <time>2022-01-21T15:11:37.000Z</time>
      </trkpt>
      <trkpt lat="43.5083" lon="6.37349">
        <ele>290</ele>
        <time>2022-01-21T15:11:38.000Z</time>
      </trkpt>
      <trkpt lat="43.5083" lon="6.37349">
        <ele>290</ele>
        <time>2022-01-21T15:11:39.000Z</time>
      </trkpt>
      <trkpt lat="43.50829" lon="6.37349">
        <ele>291</ele>
        <time>2022-01-21T15:11:40.000Z</time>
      </trkpt>
      <trkpt lat="43.50828" lon="6.37349">
        <ele>291</ele>
        <time>2022-01-21T15:11:41.000Z</time>
      </trkpt>
      <trkpt lat="43.50828" lon="6.37349">
        <ele>291</ele>
        <time>2022-01-21T15:11:42.000Z</time>
      </trkpt>
      <trkpt lat="43.50827" lon="6.37349">
        <ele>291</ele>
        <time>2022-01-21T15:11:43.000Z</time>
      </trkpt>
      <trkpt lat="43.50827" lon="6.37349">
        <ele>291</ele>
        <time>2022-01-21T15:11:44.000Z</time>
      </trkpt>
      <trkpt lat="43.50827" lon="6.37349">
        <ele>291</ele>
        <time>2022-01-21T15:11:45.000Z</time>
      </trkpt>
      <trkpt lat="43.50826" lon="6.37348">
        <ele>291</ele>
        <time>2022-01-21T15:11:46.000Z</time>
      </trkpt>
      <trkpt lat="43.50826" lon="6.37348">
        <ele>291</ele>
        <time>2022-01-21T15:11:47.000Z</time>
      </trkpt>
      <trkpt lat="43.50826" lon="6.37347">
        <ele>291</ele>
        <time>2022-01-21T15:11:48.000Z</time>
      </trkpt>
      <trkpt lat="43.50826" lon="6.37347">
        <ele>291</ele>
        <time>2022-01-21T15:11:49.000Z</time>
      </trkpt>
      <trkpt lat="43.50826" lon="6.37347">
        <ele>291</ele>
        <time>2022-01-21T15:11:50.000Z</time>
      </trkpt>
      <trkpt lat="43.50826" lon="6.37347">
        <ele>291</ele>
        <time>2022-01-21T15:11:51.000Z</time>
      </trkpt>
      <trkpt lat="43.50826" lon="6.37347">
        <ele>291</ele>
        <time>2022-01-21T15:11:52.000Z</time>
      </trkpt>
      <trkpt lat="43.50826" lon="6.37347">
        <ele>291</ele>
        <time>2022-01-21T15:11:53.000Z</time>
      </trkpt>
      <trkpt lat="43.50826" lon="6.37347">
        <ele>291</ele>
        <time>2022-01-21T15:11:54.000Z</time>
      </trkpt>
      <trkpt lat="43.50826" lon="6.37347">
        <ele>291</ele>
        <time>2022-01-21T15:11:55.000Z</time>
      </trkpt>
      <trkpt lat="43.50826" lon="6.37347">
        <ele>291</ele>
        <time>2022-01-21T15:11:56.000Z</time>
      </trkpt>
      <trkpt lat="43.50826" lon="6.37347">
        <ele>291</ele>
        <time>2022-01-21T15:11:57.000Z</time>
      </trkpt>
      <trkpt lat="43.50826" lon="6.37347">
        <ele>291</ele>
        <time>2022-01-21T15:11:58.000Z</time>
      </trkpt>
      <trkpt lat="43.50826" lon="6.37347">
        <ele>291</ele>
        <time>2022-01-21T15:11:59.000Z</time>
      </trkpt>
      <trkpt lat="43.50826" lon="6.37347">
        <ele>291</ele>
        <time>2022-01-21T15:12:00.000Z</time>
      </trkpt>
      <trkpt lat="43.50824" lon="6.37345">
        <ele>291</ele>
        <time>2022-01-21T15:12:01.000Z</time>
      </trkpt>
      <trkpt lat="43.50824" lon="6.37345">
        <ele>291</ele>
        <time>2022-01-21T15:12:02.000Z</time>
      </trkpt>
      <trkpt lat="43.50824" lon="6.37345">
        <ele>291</ele>
        <time>2022-01-21T15:12:03.000Z</time>
      </trkpt>
      <trkpt lat="43.50824" lon="6.37345">
        <ele>291</ele>
        <time>2022-01-21T15:12:04.000Z</time>
      </trkpt>
      <trkpt lat="43.50824" lon="6.37346">
        <ele>291</ele>
        <time>2022-01-21T15:12:05.000Z</time>
      </trkpt>
      <trkpt lat="43.50823" lon="6.37346">
        <ele>291</ele>
        <time>2022-01-21T15:12:06.000Z</time>
      </trkpt>
      <trkpt lat="43.50823" lon="6.37347">
        <ele>291</ele>
        <time>2022-01-21T15:12:07.000Z</time>
      </trkpt>
      <trkpt lat="43.50823" lon="6.37347">
        <ele>291</ele>
        <time>2022-01-21T15:12:08.000Z</time>
      </trkpt>
      <trkpt lat="43.50823" lon="6.37348">
        <ele>291</ele>
        <time>2022-01-21T15:12:09.000Z</time>
      </trkpt>
      <trkpt lat="43.50823" lon="6.37349">
        <ele>291</ele>
        <time>2022-01-21T15:12:10.000Z</time>
      </trkpt>
      <trkpt lat="43.50822" lon="6.3735">
        <ele>291</ele>
        <time>2022-01-21T15:12:11.000Z</time>
      </trkpt>
      <trkpt lat="43.50822" lon="6.37351">
        <ele>291</ele>
        <time>2022-01-21T15:12:12.000Z</time>
      </trkpt>
      <trkpt lat="43.50822" lon="6.37351">
        <ele>292</ele>
        <time>2022-01-21T15:12:13.000Z</time>
      </trkpt>
      <trkpt lat="43.50822" lon="6.37352">
        <ele>292</ele>
        <time>2022-01-21T15:12:14.000Z</time>
      </trkpt>
      <trkpt lat="43.50822" lon="6.37353">
        <ele>292</ele>
        <time>2022-01-21T15:12:15.000Z</time>
      </trkpt>
      <trkpt lat="43.50821" lon="6.37355">
        <ele>292</ele>
        <time>2022-01-21T15:12:16.000Z</time>
      </trkpt>
      <trkpt lat="43.50821" lon="6.37357">
        <ele>292</ele>
        <time>2022-01-21T15:12:17.000Z</time>
      </trkpt>
      <trkpt lat="43.5082" lon="6.3736">
        <ele>292</ele>
        <time>2022-01-21T15:12:18.000Z</time>
      </trkpt>
      <trkpt lat="43.50819" lon="6.37362">
        <ele>292</ele>
        <time>2022-01-21T15:12:19.000Z</time>
      </trkpt>
      <trkpt lat="43.50819" lon="6.37364">
        <ele>292</ele>
        <time>2022-01-21T15:12:20.000Z</time>
      </trkpt>
      <trkpt lat="43.50819" lon="6.37365">
        <ele>297</ele>
        <time>2022-01-21T15:12:21.000Z</time>
      </trkpt>
      <trkpt lat="43.50818" lon="6.37367">
        <ele>298</ele>
        <time>2022-01-21T15:12:22.000Z</time>
      </trkpt>
      <trkpt lat="43.50818" lon="6.37368">
        <ele>298</ele>
        <time>2022-01-21T15:12:23.000Z</time>
      </trkpt>
      <trkpt lat="43.50818" lon="6.37369">
        <ele>299</ele>
        <time>2022-01-21T15:12:24.000Z</time>
      </trkpt>
      <trkpt lat="43.50817" lon="6.37369">
        <ele>299</ele>
        <time>2022-01-21T15:12:25.000Z</time>
      </trkpt>
      <trkpt lat="43.50817" lon="6.3737">
        <ele>299</ele>
        <time>2022-01-21T15:12:26.000Z</time>
      </trkpt>
      <trkpt lat="43.50817" lon="6.37371">
        <ele>299</ele>
        <time>2022-01-21T15:12:27.000Z</time>
      </trkpt>
      <trkpt lat="43.50817" lon="6.37371">
        <ele>299</ele>
        <time>2022-01-21T15:12:28.000Z</time>
      </trkpt>
      <trkpt lat="43.50816" lon="6.37372">
        <ele>299</ele>
        <time>2022-01-21T15:12:29.000Z</time>
      </trkpt>
      <trkpt lat="43.50816" lon="6.37372">
        <ele>299</ele>
        <time>2022-01-21T15:12:30.000Z</time>
      </trkpt>
      <trkpt lat="43.50815" lon="6.37372">
        <ele>299</ele>
        <time>2022-01-21T15:12:31.000Z</time>
      </trkpt>
      <trkpt lat="43.50815" lon="6.37372">
        <ele>299</ele>
        <time>2022-01-21T15:12:32.000Z</time>
      </trkpt>
      <trkpt lat="43.50815" lon="6.37373">
        <ele>299</ele>
        <time>2022-01-21T15:12:33.000Z</time>
      </trkpt>
      <trkpt lat="43.50815" lon="6.37374">
        <ele>299</ele>
        <time>2022-01-21T15:12:34.000Z</time>
      </trkpt>
      <trkpt lat="43.50816" lon="6.37375">
        <ele>299</ele>
        <time>2022-01-21T15:12:35.000Z</time>
      </trkpt>
      <trkpt lat="43.50816" lon="6.37376">
        <ele>299</ele>
        <time>2022-01-21T15:12:36.000Z</time>
      </trkpt>
      <trkpt lat="43.50816" lon="6.37377">
        <ele>299</ele>
        <time>2022-01-21T15:12:37.000Z</time>
      </trkpt>
      <trkpt lat="43.50817" lon="6.37378">
        <ele>299</ele>
        <time>2022-01-21T15:12:38.000Z</time>
      </trkpt>
      <trkpt lat="43.50817" lon="6.37379">
        <ele>299</ele>
        <time>2022-01-21T15:12:39.000Z</time>
      </trkpt>
      <trkpt lat="43.50816" lon="6.37381">
        <ele>299</ele>
        <time>2022-01-21T15:12:40.000Z</time>
      </trkpt>
      <trkpt lat="43.50816" lon="6.37383">
        <ele>299</ele>
        <time>2022-01-21T15:12:41.000Z</time>
      </trkpt>
      <trkpt lat="43.50815" lon="6.37384">
        <ele>299</ele>
        <time>2022-01-21T15:12:42.000Z</time>
      </trkpt>
      <trkpt lat="43.50814" lon="6.37385">
        <ele>299</ele>
        <time>2022-01-21T15:12:43.000Z</time>
      </trkpt>
      <trkpt lat="43.50813" lon="6.37386">
        <ele>299</ele>
        <time>2022-01-21T15:12:44.000Z</time>
      </trkpt>
      <trkpt lat="43.50813" lon="6.37387">
        <ele>299</ele>
        <time>2022-01-21T15:12:45.000Z</time>
      </trkpt>
      <trkpt lat="43.50812" lon="6.37387">
        <ele>299</ele>
        <time>2022-01-21T15:12:46.000Z</time>
      </trkpt>
      <trkpt lat="43.50812" lon="6.37387">
        <ele>299</ele>
        <time>2022-01-21T15:12:47.000Z</time>
      </trkpt>
      <trkpt lat="43.50811" lon="6.37388">
        <ele>299</ele>
        <time>2022-01-21T15:12:48.000Z</time>
      </trkpt>
      <trkpt lat="43.50811" lon="6.37388">
        <ele>297</ele>
        <time>2022-01-21T15:12:49.000Z</time>
      </trkpt>
      <trkpt lat="43.5081" lon="6.37388">
        <ele>297</ele>
        <time>2022-01-21T15:12:50.000Z</time>
      </trkpt>
      <trkpt lat="43.50809" lon="6.37389">
        <ele>296</ele>
        <time>2022-01-21T15:12:51.000Z</time>
      </trkpt>
      <trkpt lat="43.50809" lon="6.37389">
        <ele>296</ele>
        <time>2022-01-21T15:12:52.000Z</time>
      </trkpt>
      <trkpt lat="43.50808" lon="6.37389">
        <ele>296</ele>
        <time>2022-01-21T15:12:53.000Z</time>
      </trkpt>
      <trkpt lat="43.50808" lon="6.37389">
        <ele>296</ele>
        <time>2022-01-21T15:12:54.000Z</time>
      </trkpt>
      <trkpt lat="43.50808" lon="6.37389">
        <ele>296</ele>
        <time>2022-01-21T15:12:55.000Z</time>
      </trkpt>
      <trkpt lat="43.50807" lon="6.37389">
        <ele>295</ele>
        <time>2022-01-21T15:12:56.000Z</time>
      </trkpt>
      <trkpt lat="43.50807" lon="6.37389">
        <ele>295</ele>
        <time>2022-01-21T15:12:57.000Z</time>
      </trkpt>
      <trkpt lat="43.50807" lon="6.3739">
        <ele>295</ele>
        <time>2022-01-21T15:12:58.000Z</time>
      </trkpt>
      <trkpt lat="43.50806" lon="6.3739">
        <ele>295</ele>
        <time>2022-01-21T15:12:59.000Z</time>
      </trkpt>
      <trkpt lat="43.50805" lon="6.37391">
        <ele>295</ele>
        <time>2022-01-21T15:13:00.000Z</time>
      </trkpt>
      <trkpt lat="43.50803" lon="6.37392">
        <ele>295</ele>
        <time>2022-01-21T15:13:01.000Z</time>
      </trkpt>
      <trkpt lat="43.50803" lon="6.37392">
        <ele>295</ele>
        <time>2022-01-21T15:13:02.000Z</time>
      </trkpt>
      <trkpt lat="43.50802" lon="6.37392">
        <ele>295</ele>
        <time>2022-01-21T15:13:03.000Z</time>
      </trkpt>
      <trkpt lat="43.50801" lon="6.37393">
        <ele>295</ele>
        <time>2022-01-21T15:13:04.000Z</time>
      </trkpt>
      <trkpt lat="43.508" lon="6.37393">
        <ele>295</ele>
        <time>2022-01-21T15:13:05.000Z</time>
      </trkpt>
      <trkpt lat="43.50799" lon="6.37394">
        <ele>295</ele>
        <time>2022-01-21T15:13:06.000Z</time>
      </trkpt>
      <trkpt lat="43.50797" lon="6.37395">
        <ele>296</ele>
        <time>2022-01-21T15:13:07.000Z</time>
      </trkpt>
      <trkpt lat="43.50796" lon="6.37395">
        <ele>296</ele>
        <time>2022-01-21T15:13:08.000Z</time>
      </trkpt>
      <trkpt lat="43.50794" lon="6.37396">
        <ele>296</ele>
        <time>2022-01-21T15:13:09.000Z</time>
      </trkpt>
      <trkpt lat="43.50793" lon="6.37396">
        <ele>296</ele>
        <time>2022-01-21T15:13:10.000Z</time>
      </trkpt>
      <trkpt lat="43.50791" lon="6.37397">
        <ele>296</ele>
        <time>2022-01-21T15:13:11.000Z</time>
      </trkpt>
      <trkpt lat="43.5079" lon="6.37397">
        <ele>296</ele>
        <time>2022-01-21T15:13:12.000Z</time>
      </trkpt>
      <trkpt lat="43.50789" lon="6.37398">
        <ele>296</ele>
        <time>2022-01-21T15:13:13.000Z</time>
      </trkpt>
      <trkpt lat="43.50789" lon="6.37398">
        <ele>296</ele>
        <time>2022-01-21T15:13:14.000Z</time>
      </trkpt>
      <trkpt lat="43.50788" lon="6.37398">
        <ele>296</ele>
        <time>2022-01-21T15:13:15.000Z</time>
      </trkpt>
      <trkpt lat="43.50788" lon="6.37398">
        <ele>296</ele>
        <time>2022-01-21T15:13:16.000Z</time>
      </trkpt>
      <trkpt lat="43.50787" lon="6.37398">
        <ele>296</ele>
        <time>2022-01-21T15:13:17.000Z</time>
      </trkpt>
      <trkpt lat="43.50786" lon="6.37399">
        <ele>296</ele>
        <time>2022-01-21T15:13:18.000Z</time>
      </trkpt>
      <trkpt lat="43.50784" lon="6.374">
        <ele>296</ele>
        <time>2022-01-21T15:13:19.000Z</time>
      </trkpt>
      <trkpt lat="43.50781" lon="6.374">
        <ele>296</ele>
        <time>2022-01-21T15:13:20.000Z</time>
      </trkpt>
      <trkpt lat="43.50779" lon="6.37401">
        <ele>296</ele>
        <time>2022-01-21T15:13:21.000Z</time>
      </trkpt>
      <trkpt lat="43.50777" lon="6.37401">
        <ele>296</ele>
        <time>2022-01-21T15:13:22.000Z</time>
      </trkpt>
      <trkpt lat="43.50776" lon="6.37401">
        <ele>296</ele>
        <time>2022-01-21T15:13:23.000Z</time>
      </trkpt>
      <trkpt lat="43.50775" lon="6.37402">
        <ele>296</ele>
        <time>2022-01-21T15:13:24.000Z</time>
      </trkpt>
      <trkpt lat="43.50774" lon="6.37402">
        <ele>296</ele>
        <time>2022-01-21T15:13:25.000Z</time>
      </trkpt>
      <trkpt lat="43.50773" lon="6.37402">
        <ele>296</ele>
        <time>2022-01-21T15:13:26.000Z</time>
      </trkpt>
      <trkpt lat="43.50772" lon="6.37403">
        <ele>295</ele>
        <time>2022-01-21T15:13:27.000Z</time>
      </trkpt>
      <trkpt lat="43.50771" lon="6.37403">
        <ele>295</ele>
        <time>2022-01-21T15:13:28.000Z</time>
      </trkpt>
      <trkpt lat="43.5077" lon="6.37403">
        <ele>295</ele>
        <time>2022-01-21T15:13:29.000Z</time>
      </trkpt>
      <trkpt lat="43.50769" lon="6.37404">
        <ele>295</ele>
        <time>2022-01-21T15:13:30.000Z</time>
      </trkpt>
      <trkpt lat="43.50767" lon="6.37404">
        <ele>295</ele>
        <time>2022-01-21T15:13:31.000Z</time>
      </trkpt>
      <trkpt lat="43.50766" lon="6.37405">
        <ele>295</ele>
        <time>2022-01-21T15:13:32.000Z</time>
      </trkpt>
      <trkpt lat="43.50766" lon="6.37405">
        <ele>295</ele>
        <time>2022-01-21T15:13:33.000Z</time>
      </trkpt>
      <trkpt lat="43.50765" lon="6.37406">
        <ele>295</ele>
        <time>2022-01-21T15:13:34.000Z</time>
      </trkpt>
      <trkpt lat="43.50764" lon="6.37406">
        <ele>295</ele>
        <time>2022-01-21T15:13:35.000Z</time>
      </trkpt>
      <trkpt lat="43.50763" lon="6.37408">
        <ele>295</ele>
        <time>2022-01-21T15:13:36.000Z</time>
      </trkpt>
      <trkpt lat="43.50762" lon="6.37409">
        <ele>295</ele>
        <time>2022-01-21T15:13:37.000Z</time>
      </trkpt>
      <trkpt lat="43.50761" lon="6.3741">
        <ele>295</ele>
        <time>2022-01-21T15:13:38.000Z</time>
      </trkpt>
      <trkpt lat="43.50761" lon="6.37411">
        <ele>295</ele>
        <time>2022-01-21T15:13:39.000Z</time>
      </trkpt>
      <trkpt lat="43.50761" lon="6.37412">
        <ele>295</ele>
        <time>2022-01-21T15:13:40.000Z</time>
      </trkpt>
      <trkpt lat="43.5076" lon="6.37413">
        <ele>295</ele>
        <time>2022-01-21T15:13:41.000Z</time>
      </trkpt>
      <trkpt lat="43.5076" lon="6.37413">
        <ele>295</ele>
        <time>2022-01-21T15:13:42.000Z</time>
      </trkpt>
      <trkpt lat="43.5076" lon="6.37414">
        <ele>295</ele>
        <time>2022-01-21T15:13:43.000Z</time>
      </trkpt>
      <trkpt lat="43.5076" lon="6.37414">
        <ele>295</ele>
        <time>2022-01-21T15:13:44.000Z</time>
      </trkpt>
      <trkpt lat="43.5076" lon="6.37414">
        <ele>295</ele>
        <time>2022-01-21T15:13:45.000Z</time>
      </trkpt>
      <trkpt lat="43.50759" lon="6.37415">
        <ele>295</ele>
        <time>2022-01-21T15:13:46.000Z</time>
      </trkpt>
      <trkpt lat="43.50759" lon="6.37415">
        <ele>295</ele>
        <time>2022-01-21T15:13:47.000Z</time>
      </trkpt>
      <trkpt lat="43.50759" lon="6.37416">
        <ele>295</ele>
        <time>2022-01-21T15:13:48.000Z</time>
      </trkpt>
      <trkpt lat="43.50759" lon="6.37417">
        <ele>295</ele>
        <time>2022-01-21T15:13:49.000Z</time>
      </trkpt>
      <trkpt lat="43.50758" lon="6.37417">
        <ele>295</ele>
        <time>2022-01-21T15:13:50.000Z</time>
      </trkpt>
      <trkpt lat="43.50758" lon="6.37418">
        <ele>295</ele>
        <time>2022-01-21T15:13:51.000Z</time>
      </trkpt>
      <trkpt lat="43.50758" lon="6.37419">
        <ele>295</ele>
        <time>2022-01-21T15:13:52.000Z</time>
      </trkpt>
      <trkpt lat="43.50758" lon="6.3742">
        <ele>295</ele>
        <time>2022-01-21T15:13:53.000Z</time>
      </trkpt>
      <trkpt lat="43.50758" lon="6.3742">
        <ele>295</ele>
        <time>2022-01-21T15:13:54.000Z</time>
      </trkpt>
      <trkpt lat="43.50758" lon="6.37421">
        <ele>295</ele>
        <time>2022-01-21T15:13:55.000Z</time>
      </trkpt>
      <trkpt lat="43.50758" lon="6.37422">
        <ele>295</ele>
        <time>2022-01-21T15:13:56.000Z</time>
      </trkpt>
      <trkpt lat="43.50758" lon="6.37423">
        <ele>295</ele>
        <time>2022-01-21T15:13:57.000Z</time>
      </trkpt>
      <trkpt lat="43.50758" lon="6.37425">
        <ele>295</ele>
        <time>2022-01-21T15:13:58.000Z</time>
      </trkpt>
      <trkpt lat="43.50758" lon="6.37427">
        <ele>295</ele>
        <time>2022-01-21T15:13:59.000Z</time>
      </trkpt>
      <trkpt lat="43.50759" lon="6.37428">
        <ele>295</ele>
        <time>2022-01-21T15:14:00.000Z</time>
      </trkpt>
      <trkpt lat="43.5076" lon="6.3743">
        <ele>295</ele>
        <time>2022-01-21T15:14:01.000Z</time>
      </trkpt>
      <trkpt lat="43.5076" lon="6.37432">
        <ele>295</ele>
        <time>2022-01-21T15:14:02.000Z</time>
      </trkpt>
      <trkpt lat="43.50761" lon="6.37434">
        <ele>295</ele>
        <time>2022-01-21T15:14:03.000Z</time>
      </trkpt>
      <trkpt lat="43.50761" lon="6.37435">
        <ele>295</ele>
        <time>2022-01-21T15:14:04.000Z</time>
      </trkpt>
      <trkpt lat="43.50762" lon="6.37437">
        <ele>295</ele>
        <time>2022-01-21T15:14:05.000Z</time>
      </trkpt>
      <trkpt lat="43.50762" lon="6.37438">
        <ele>295</ele>
        <time>2022-01-21T15:14:06.000Z</time>
      </trkpt>
      <trkpt lat="43.50763" lon="6.3744">
        <ele>295</ele>
        <time>2022-01-21T15:14:07.000Z</time>
      </trkpt>
      <trkpt lat="43.50763" lon="6.37441">
        <ele>294</ele>
        <time>2022-01-21T15:14:08.000Z</time>
      </trkpt>
      <trkpt lat="43.50764" lon="6.37443">
        <ele>294</ele>
        <time>2022-01-21T15:14:09.000Z</time>
      </trkpt>
      <trkpt lat="43.50765" lon="6.37446">
        <ele>294</ele>
        <time>2022-01-21T15:14:10.000Z</time>
      </trkpt>
      <trkpt lat="43.50766" lon="6.37448">
        <ele>294</ele>
        <time>2022-01-21T15:14:11.000Z</time>
      </trkpt>
      <trkpt lat="43.50766" lon="6.3745">
        <ele>294</ele>
        <time>2022-01-21T15:14:12.000Z</time>
      </trkpt>
      <trkpt lat="43.50767" lon="6.37451">
        <ele>294</ele>
        <time>2022-01-21T15:14:13.000Z</time>
      </trkpt>
      <trkpt lat="43.50768" lon="6.37453">
        <ele>294</ele>
        <time>2022-01-21T15:14:14.000Z</time>
      </trkpt>
      <trkpt lat="43.50768" lon="6.37455">
        <ele>293</ele>
        <time>2022-01-21T15:14:15.000Z</time>
      </trkpt>
      <trkpt lat="43.50769" lon="6.37456">
        <ele>293</ele>
        <time>2022-01-21T15:14:16.000Z</time>
      </trkpt>
      <trkpt lat="43.50769" lon="6.37458">
        <ele>293</ele>
        <time>2022-01-21T15:14:17.000Z</time>
      </trkpt>
      <trkpt lat="43.5077" lon="6.37459">
        <ele>293</ele>
        <time>2022-01-21T15:14:18.000Z</time>
      </trkpt>
      <trkpt lat="43.5077" lon="6.3746">
        <ele>293</ele>
        <time>2022-01-21T15:14:19.000Z</time>
      </trkpt>
      <trkpt lat="43.50771" lon="6.37462">
        <ele>293</ele>
        <time>2022-01-21T15:14:20.000Z</time>
      </trkpt>
      <trkpt lat="43.50771" lon="6.37463">
        <ele>293</ele>
        <time>2022-01-21T15:14:21.000Z</time>
      </trkpt>
      <trkpt lat="43.50771" lon="6.37464">
        <ele>293</ele>
        <time>2022-01-21T15:14:22.000Z</time>
      </trkpt>
      <trkpt lat="43.50772" lon="6.37465">
        <ele>293</ele>
        <time>2022-01-21T15:14:23.000Z</time>
      </trkpt>
      <trkpt lat="43.50772" lon="6.37466">
        <ele>294</ele>
        <time>2022-01-21T15:14:24.000Z</time>
      </trkpt>
      <trkpt lat="43.50772" lon="6.37466">
        <ele>294</ele>
        <time>2022-01-21T15:14:25.000Z</time>
      </trkpt>
      <trkpt lat="43.50772" lon="6.37467">
        <ele>294</ele>
        <time>2022-01-21T15:14:26.000Z</time>
      </trkpt>
      <trkpt lat="43.50772" lon="6.37468">
        <ele>294</ele>
        <time>2022-01-21T15:14:27.000Z</time>
      </trkpt>
      <trkpt lat="43.50772" lon="6.3747">
        <ele>294</ele>
        <time>2022-01-21T15:14:28.000Z</time>
      </trkpt>
      <trkpt lat="43.50773" lon="6.37472">
        <ele>294</ele>
        <time>2022-01-21T15:14:29.000Z</time>
      </trkpt>
      <trkpt lat="43.50773" lon="6.37476">
        <ele>295</ele>
        <time>2022-01-21T15:14:30.000Z</time>
      </trkpt>
      <trkpt lat="43.50774" lon="6.37478">
        <ele>295</ele>
        <time>2022-01-21T15:14:31.000Z</time>
      </trkpt>
      <trkpt lat="43.50774" lon="6.37479">
        <ele>296</ele>
        <time>2022-01-21T15:14:32.000Z</time>
      </trkpt>
      <trkpt lat="43.50774" lon="6.37481">
        <ele>296</ele>
        <time>2022-01-21T15:14:33.000Z</time>
      </trkpt>
      <trkpt lat="43.50774" lon="6.37482">
        <ele>296</ele>
        <time>2022-01-21T15:14:34.000Z</time>
      </trkpt>
      <trkpt lat="43.50774" lon="6.37483">
        <ele>296</ele>
        <time>2022-01-21T15:14:35.000Z</time>
      </trkpt>
      <trkpt lat="43.50774" lon="6.37485">
        <ele>296</ele>
        <time>2022-01-21T15:14:36.000Z</time>
      </trkpt>
      <trkpt lat="43.50775" lon="6.37486">
        <ele>296</ele>
        <time>2022-01-21T15:14:37.000Z</time>
      </trkpt>
      <trkpt lat="43.50775" lon="6.37487">
        <ele>296</ele>
        <time>2022-01-21T15:14:38.000Z</time>
      </trkpt>
      <trkpt lat="43.50775" lon="6.37488">
        <ele>296</ele>
        <time>2022-01-21T15:14:39.000Z</time>
      </trkpt>
      <trkpt lat="43.50775" lon="6.37489">
        <ele>296</ele>
        <time>2022-01-21T15:14:40.000Z</time>
      </trkpt>
      <trkpt lat="43.50775" lon="6.3749">
        <ele>296</ele>
        <time>2022-01-21T15:14:41.000Z</time>
      </trkpt>
      <trkpt lat="43.50775" lon="6.37491">
        <ele>297</ele>
        <time>2022-01-21T15:14:42.000Z</time>
      </trkpt>
      <trkpt lat="43.50776" lon="6.37494">
        <ele>297</ele>
        <time>2022-01-21T15:14:43.000Z</time>
      </trkpt>
      <trkpt lat="43.50776" lon="6.37496">
        <ele>297</ele>
        <time>2022-01-21T15:14:44.000Z</time>
      </trkpt>
      <trkpt lat="43.50776" lon="6.37497">
        <ele>297</ele>
        <time>2022-01-21T15:14:45.000Z</time>
      </trkpt>
      <trkpt lat="43.50777" lon="6.375">
        <ele>298</ele>
        <time>2022-01-21T15:14:46.000Z</time>
      </trkpt>
      <trkpt lat="43.50778" lon="6.37502">
        <ele>298</ele>
        <time>2022-01-21T15:14:47.000Z</time>
      </trkpt>
      <trkpt lat="43.50778" lon="6.37505">
        <ele>298</ele>
        <time>2022-01-21T15:14:48.000Z</time>
      </trkpt>
      <trkpt lat="43.50778" lon="6.37506">
        <ele>298</ele>
        <time>2022-01-21T15:14:49.000Z</time>
      </trkpt>
      <trkpt lat="43.50779" lon="6.37508">
        <ele>299</ele>
        <time>2022-01-21T15:14:50.000Z</time>
      </trkpt>
      <trkpt lat="43.50779" lon="6.37509">
        <ele>299</ele>
        <time>2022-01-21T15:14:51.000Z</time>
      </trkpt>
      <trkpt lat="43.5078" lon="6.37511">
        <ele>299</ele>
        <time>2022-01-21T15:14:52.000Z</time>
      </trkpt>
      <trkpt lat="43.5078" lon="6.37512">
        <ele>300</ele>
        <time>2022-01-21T15:14:53.000Z</time>
      </trkpt>
      <trkpt lat="43.5078" lon="6.37514">
        <ele>300</ele>
        <time>2022-01-21T15:14:54.000Z</time>
      </trkpt>
      <trkpt lat="43.5078" lon="6.37515">
        <ele>300</ele>
        <time>2022-01-21T15:14:55.000Z</time>
      </trkpt>
      <trkpt lat="43.50781" lon="6.37516">
        <ele>300</ele>
        <time>2022-01-21T15:14:56.000Z</time>
      </trkpt>
      <trkpt lat="43.50781" lon="6.37518">
        <ele>300</ele>
        <time>2022-01-21T15:14:57.000Z</time>
      </trkpt>
      <trkpt lat="43.50781" lon="6.3752">
        <ele>300</ele>
        <time>2022-01-21T15:14:58.000Z</time>
      </trkpt>
      <trkpt lat="43.50781" lon="6.37521">
        <ele>300</ele>
        <time>2022-01-21T15:14:59.000Z</time>
      </trkpt>
      <trkpt lat="43.50781" lon="6.37523">
        <ele>300</ele>
        <time>2022-01-21T15:15:00.000Z</time>
      </trkpt>
      <trkpt lat="43.50781" lon="6.37525">
        <ele>300</ele>
        <time>2022-01-21T15:15:01.000Z</time>
      </trkpt>
      <trkpt lat="43.50781" lon="6.37526">
        <ele>299</ele>
        <time>2022-01-21T15:15:02.000Z</time>
      </trkpt>
      <trkpt lat="43.50781" lon="6.37527">
        <ele>298</ele>
        <time>2022-01-21T15:15:03.000Z</time>
      </trkpt>
      <trkpt lat="43.50781" lon="6.37529">
        <ele>298</ele>
        <time>2022-01-21T15:15:04.000Z</time>
      </trkpt>
      <trkpt lat="43.50782" lon="6.3753">
        <ele>298</ele>
        <time>2022-01-21T15:15:05.000Z</time>
      </trkpt>
      <trkpt lat="43.50782" lon="6.37531">
        <ele>298</ele>
        <time>2022-01-21T15:15:06.000Z</time>
      </trkpt>
      <trkpt lat="43.50782" lon="6.37533">
        <ele>298</ele>
        <time>2022-01-21T15:15:07.000Z</time>
      </trkpt>
      <trkpt lat="43.50782" lon="6.37534">
        <ele>298</ele>
        <time>2022-01-21T15:15:08.000Z</time>
      </trkpt>
      <trkpt lat="43.50783" lon="6.37535">
        <ele>298</ele>
        <time>2022-01-21T15:15:09.000Z</time>
      </trkpt>
      <trkpt lat="43.50783" lon="6.37537">
        <ele>298</ele>
        <time>2022-01-21T15:15:10.000Z</time>
      </trkpt>
      <trkpt lat="43.50783" lon="6.37538">
        <ele>298</ele>
        <time>2022-01-21T15:15:11.000Z</time>
      </trkpt>
      <trkpt lat="43.50784" lon="6.3754">
        <ele>298</ele>
        <time>2022-01-21T15:15:12.000Z</time>
      </trkpt>
      <trkpt lat="43.50784" lon="6.37541">
        <ele>298</ele>
        <time>2022-01-21T15:15:13.000Z</time>
      </trkpt>
      <trkpt lat="43.50784" lon="6.37542">
        <ele>298</ele>
        <time>2022-01-21T15:15:14.000Z</time>
      </trkpt>
      <trkpt lat="43.50785" lon="6.37543">
        <ele>299</ele>
        <time>2022-01-21T15:15:15.000Z</time>
      </trkpt>
      <trkpt lat="43.50785" lon="6.37544">
        <ele>300</ele>
        <time>2022-01-21T15:15:16.000Z</time>
      </trkpt>
      <trkpt lat="43.50786" lon="6.37545">
        <ele>300</ele>
        <time>2022-01-21T15:15:17.000Z</time>
      </trkpt>
      <trkpt lat="43.50786" lon="6.37546">
        <ele>300</ele>
        <time>2022-01-21T15:15:18.000Z</time>
      </trkpt>
      <trkpt lat="43.50786" lon="6.37547">
        <ele>300</ele>
        <time>2022-01-21T15:15:19.000Z</time>
      </trkpt>
      <trkpt lat="43.50787" lon="6.37549">
        <ele>300</ele>
        <time>2022-01-21T15:15:20.000Z</time>
      </trkpt>
      <trkpt lat="43.50787" lon="6.3755">
        <ele>300</ele>
        <time>2022-01-21T15:15:21.000Z</time>
      </trkpt>
      <trkpt lat="43.50787" lon="6.37551">
        <ele>300</ele>
        <time>2022-01-21T15:15:22.000Z</time>
      </trkpt>
      <trkpt lat="43.50787" lon="6.37552">
        <ele>300</ele>
        <time>2022-01-21T15:15:23.000Z</time>
      </trkpt>
      <trkpt lat="43.50788" lon="6.37553">
        <ele>300</ele>
        <time>2022-01-21T15:15:24.000Z</time>
      </trkpt>
      <trkpt lat="43.50788" lon="6.37554">
        <ele>300</ele>
        <time>2022-01-21T15:15:25.000Z</time>
      </trkpt>
      <trkpt lat="43.50789" lon="6.37555">
        <ele>300</ele>
        <time>2022-01-21T15:15:26.000Z</time>
      </trkpt>
      <trkpt lat="43.50789" lon="6.37556">
        <ele>300</ele>
        <time>2022-01-21T15:15:27.000Z</time>
      </trkpt>
      <trkpt lat="43.5079" lon="6.37556">
        <ele>300</ele>
        <time>2022-01-21T15:15:28.000Z</time>
      </trkpt>
      <trkpt lat="43.5079" lon="6.37557">
        <ele>300</ele>
        <time>2022-01-21T15:15:29.000Z</time>
      </trkpt>
      <trkpt lat="43.50791" lon="6.37557">
        <ele>300</ele>
        <time>2022-01-21T15:15:30.000Z</time>
      </trkpt>
      <trkpt lat="43.50792" lon="6.37557">
        <ele>300</ele>
        <time>2022-01-21T15:15:31.000Z</time>
      </trkpt>
      <trkpt lat="43.50792" lon="6.37557">
        <ele>300</ele>
        <time>2022-01-21T15:15:32.000Z</time>
      </trkpt>
      <trkpt lat="43.50793" lon="6.37557">
        <ele>300</ele>
        <time>2022-01-21T15:15:33.000Z</time>
      </trkpt>
      <trkpt lat="43.50793" lon="6.37557">
        <ele>300</ele>
        <time>2022-01-21T15:15:34.000Z</time>
      </trkpt>
      <trkpt lat="43.50793" lon="6.37557">
        <ele>300</ele>
        <time>2022-01-21T15:15:35.000Z</time>
      </trkpt>
      <trkpt lat="43.50793" lon="6.37557">
        <ele>300</ele>
        <time>2022-01-21T15:15:36.000Z</time>
      </trkpt>
      <trkpt lat="43.50794" lon="6.37556">
        <ele>300</ele>
        <time>2022-01-21T15:15:37.000Z</time>
      </trkpt>
      <trkpt lat="43.50794" lon="6.37556">
        <ele>300</ele>
        <time>2022-01-21T15:15:38.000Z</time>
      </trkpt>
      <trkpt lat="43.50795" lon="6.37555">
        <ele>300</ele>
        <time>2022-01-21T15:15:39.000Z</time>
      </trkpt>
      <trkpt lat="43.50795" lon="6.37554">
        <ele>299</ele>
        <time>2022-01-21T15:15:40.000Z</time>
      </trkpt>
      <trkpt lat="43.50796" lon="6.37554">
        <ele>299</ele>
        <time>2022-01-21T15:15:41.000Z</time>
      </trkpt>
      <trkpt lat="43.50796" lon="6.37554">
        <ele>299</ele>
        <time>2022-01-21T15:15:42.000Z</time>
      </trkpt>
      <trkpt lat="43.50796" lon="6.37553">
        <ele>299</ele>
        <time>2022-01-21T15:15:43.000Z</time>
      </trkpt>
      <trkpt lat="43.50797" lon="6.37553">
        <ele>299</ele>
        <time>2022-01-21T15:15:44.000Z</time>
      </trkpt>
      <trkpt lat="43.50798" lon="6.37552">
        <ele>299</ele>
        <time>2022-01-21T15:15:45.000Z</time>
      </trkpt>
      <trkpt lat="43.50798" lon="6.37552">
        <ele>299</ele>
        <time>2022-01-21T15:15:46.000Z</time>
      </trkpt>
      <trkpt lat="43.50799" lon="6.37552">
        <ele>298</ele>
        <time>2022-01-21T15:15:47.000Z</time>
      </trkpt>
      <trkpt lat="43.508" lon="6.37552">
        <ele>298</ele>
        <time>2022-01-21T15:15:48.000Z</time>
      </trkpt>
      <trkpt lat="43.50801" lon="6.37551">
        <ele>296</ele>
        <time>2022-01-21T15:15:49.000Z</time>
      </trkpt>
      <trkpt lat="43.50801" lon="6.3755">
        <ele>296</ele>
        <time>2022-01-21T15:15:50.000Z</time>
      </trkpt>
      <trkpt lat="43.50802" lon="6.37549">
        <ele>295</ele>
        <time>2022-01-21T15:15:51.000Z</time>
      </trkpt>
      <trkpt lat="43.50803" lon="6.37548">
        <ele>295</ele>
        <time>2022-01-21T15:15:52.000Z</time>
      </trkpt>
      <trkpt lat="43.50804" lon="6.37548">
        <ele>295</ele>
        <time>2022-01-21T15:15:53.000Z</time>
      </trkpt>
      <trkpt lat="43.50805" lon="6.37547">
        <ele>295</ele>
        <time>2022-01-21T15:15:54.000Z</time>
      </trkpt>
      <trkpt lat="43.50805" lon="6.37547">
        <ele>295</ele>
        <time>2022-01-21T15:15:55.000Z</time>
      </trkpt>
      <trkpt lat="43.50806" lon="6.37546">
        <ele>295</ele>
        <time>2022-01-21T15:15:56.000Z</time>
      </trkpt>
      <trkpt lat="43.50807" lon="6.37546">
        <ele>295</ele>
        <time>2022-01-21T15:15:57.000Z</time>
      </trkpt>
      <trkpt lat="43.50809" lon="6.37546">
        <ele>294</ele>
        <time>2022-01-21T15:15:58.000Z</time>
      </trkpt>
      <trkpt lat="43.5081" lon="6.37546">
        <ele>294</ele>
        <time>2022-01-21T15:15:59.000Z</time>
      </trkpt>
      <trkpt lat="43.50811" lon="6.37546">
        <ele>294</ele>
        <time>2022-01-21T15:16:00.000Z</time>
      </trkpt>
      <trkpt lat="43.50812" lon="6.37545">
        <ele>294</ele>
        <time>2022-01-21T15:16:01.000Z</time>
      </trkpt>
      <trkpt lat="43.50813" lon="6.37545">
        <ele>294</ele>
        <time>2022-01-21T15:16:02.000Z</time>
      </trkpt>
      <trkpt lat="43.50814" lon="6.37544">
        <ele>293</ele>
        <time>2022-01-21T15:16:03.000Z</time>
      </trkpt>
      <trkpt lat="43.50815" lon="6.37544">
        <ele>293</ele>
        <time>2022-01-21T15:16:04.000Z</time>
      </trkpt>
      <trkpt lat="43.50816" lon="6.37543">
        <ele>293</ele>
        <time>2022-01-21T15:16:05.000Z</time>
      </trkpt>
      <trkpt lat="43.50817" lon="6.37543">
        <ele>293</ele>
        <time>2022-01-21T15:16:06.000Z</time>
      </trkpt>
      <trkpt lat="43.50817" lon="6.37542">
        <ele>293</ele>
        <time>2022-01-21T15:16:07.000Z</time>
      </trkpt>
      <trkpt lat="43.50818" lon="6.37542">
        <ele>293</ele>
        <time>2022-01-21T15:16:08.000Z</time>
      </trkpt>
      <trkpt lat="43.50819" lon="6.37541">
        <ele>293</ele>
        <time>2022-01-21T15:16:09.000Z</time>
      </trkpt>
      <trkpt lat="43.5082" lon="6.3754">
        <ele>293</ele>
        <time>2022-01-21T15:16:10.000Z</time>
      </trkpt>
      <trkpt lat="43.5082" lon="6.3754">
        <ele>292</ele>
        <time>2022-01-21T15:16:11.000Z</time>
      </trkpt>
      <trkpt lat="43.50821" lon="6.37539">
        <ele>292</ele>
        <time>2022-01-21T15:16:12.000Z</time>
      </trkpt>
      <trkpt lat="43.50822" lon="6.37539">
        <ele>292</ele>
        <time>2022-01-21T15:16:13.000Z</time>
      </trkpt>
      <trkpt lat="43.50823" lon="6.3754">
        <ele>292</ele>
        <time>2022-01-21T15:16:14.000Z</time>
      </trkpt>
      <trkpt lat="43.50824" lon="6.3754">
        <ele>292</ele>
        <time>2022-01-21T15:16:15.000Z</time>
      </trkpt>
      <trkpt lat="43.50825" lon="6.3754">
        <ele>291</ele>
        <time>2022-01-21T15:16:16.000Z</time>
      </trkpt>
      <trkpt lat="43.50826" lon="6.37539">
        <ele>291</ele>
        <time>2022-01-21T15:16:17.000Z</time>
      </trkpt>
      <trkpt lat="43.50827" lon="6.37539">
        <ele>291</ele>
        <time>2022-01-21T15:16:18.000Z</time>
      </trkpt>
      <trkpt lat="43.50828" lon="6.37538">
        <ele>291</ele>
        <time>2022-01-21T15:16:19.000Z</time>
      </trkpt>
      <trkpt lat="43.50829" lon="6.37538">
        <ele>290</ele>
        <time>2022-01-21T15:16:20.000Z</time>
      </trkpt>
      <trkpt lat="43.5083" lon="6.37539">
        <ele>290</ele>
        <time>2022-01-21T15:16:21.000Z</time>
      </trkpt>
      <trkpt lat="43.50831" lon="6.3754">
        <ele>290</ele>
        <time>2022-01-21T15:16:22.000Z</time>
      </trkpt>
      <trkpt lat="43.50832" lon="6.3754">
        <ele>290</ele>
        <time>2022-01-21T15:16:23.000Z</time>
      </trkpt>
      <trkpt lat="43.50832" lon="6.37539">
        <ele>290</ele>
        <time>2022-01-21T15:16:24.000Z</time>
      </trkpt>
      <trkpt lat="43.50833" lon="6.37539">
        <ele>290</ele>
        <time>2022-01-21T15:16:25.000Z</time>
      </trkpt>
      <trkpt lat="43.50833" lon="6.37538">
        <ele>290</ele>
        <time>2022-01-21T15:16:26.000Z</time>
      </trkpt>
      <trkpt lat="43.50834" lon="6.37537">
        <ele>289</ele>
        <time>2022-01-21T15:16:27.000Z</time>
      </trkpt>
      <trkpt lat="43.50835" lon="6.37536">
        <ele>289</ele>
        <time>2022-01-21T15:16:28.000Z</time>
      </trkpt>
      <trkpt lat="43.50836" lon="6.37536">
        <ele>289</ele>
        <time>2022-01-21T15:16:29.000Z</time>
      </trkpt>
      <trkpt lat="43.50837" lon="6.37535">
        <ele>288</ele>
        <time>2022-01-21T15:16:30.000Z</time>
      </trkpt>
      <trkpt lat="43.50838" lon="6.37534">
        <ele>288</ele>
        <time>2022-01-21T15:16:31.000Z</time>
      </trkpt>
      <trkpt lat="43.50839" lon="6.37533">
        <ele>288</ele>
        <time>2022-01-21T15:16:32.000Z</time>
      </trkpt>
      <trkpt lat="43.5084" lon="6.37532">
        <ele>288</ele>
        <time>2022-01-21T15:16:33.000Z</time>
      </trkpt>
      <trkpt lat="43.50841" lon="6.37531">
        <ele>288</ele>
        <time>2022-01-21T15:16:34.000Z</time>
      </trkpt>
      <trkpt lat="43.50842" lon="6.3753">
        <ele>288</ele>
        <time>2022-01-21T15:16:35.000Z</time>
      </trkpt>
      <trkpt lat="43.50843" lon="6.37529">
        <ele>288</ele>
        <time>2022-01-21T15:16:36.000Z</time>
      </trkpt>
      <trkpt lat="43.50844" lon="6.37529">
        <ele>288</ele>
        <time>2022-01-21T15:16:37.000Z</time>
      </trkpt>
      <trkpt lat="43.50844" lon="6.37529">
        <ele>288</ele>
        <time>2022-01-21T15:16:38.000Z</time>
      </trkpt>
      <trkpt lat="43.50844" lon="6.37529">
        <ele>288</ele>
        <time>2022-01-21T15:16:39.000Z</time>
      </trkpt>
      <trkpt lat="43.50844" lon="6.37529">
        <ele>288</ele>
        <time>2022-01-21T15:16:40.000Z</time>
      </trkpt>
      <trkpt lat="43.50844" lon="6.37529">
        <ele>288</ele>
        <time>2022-01-21T15:16:41.000Z</time>
      </trkpt>
      <trkpt lat="43.50844" lon="6.37529">
        <ele>288</ele>
        <time>2022-01-21T15:16:42.000Z</time>
      </trkpt>
      <trkpt lat="43.50844" lon="6.37529">
        <ele>288</ele>
        <time>2022-01-21T15:16:43.000Z</time>
      </trkpt>
      <trkpt lat="43.50844" lon="6.37529">
        <ele>289</ele>
        <time>2022-01-21T15:16:44.000Z</time>
      </trkpt>
      <trkpt lat="43.50844" lon="6.37529">
        <ele>289</ele>
        <time>2022-01-21T15:16:45.000Z</time>
      </trkpt>
      <trkpt lat="43.50844" lon="6.37529">
        <ele>289</ele>
        <time>2022-01-21T15:16:46.000Z</time>
      </trkpt>
      <trkpt lat="43.50844" lon="6.37529">
        <ele>289</ele>
        <time>2022-01-21T15:16:47.000Z</time>
      </trkpt>
      <trkpt lat="43.50844" lon="6.37529">
        <ele>289</ele>
        <time>2022-01-21T15:16:48.000Z</time>
      </trkpt>
      <trkpt lat="43.50844" lon="6.37529">
        <ele>289</ele>
        <time>2022-01-21T15:16:49.000Z</time>
      </trkpt>
      <trkpt lat="43.50844" lon="6.37529">
        <ele>289</ele>
        <time>2022-01-21T15:16:50.000Z</time>
      </trkpt>
      <trkpt lat="43.50844" lon="6.37529">
        <ele>289</ele>
        <time>2022-01-21T15:16:51.000Z</time>
      </trkpt>
      <trkpt lat="43.50844" lon="6.37529">
        <ele>289</ele>
        <time>2022-01-21T15:16:52.000Z</time>
      </trkpt>
      <trkpt lat="43.50844" lon="6.37529">
        <ele>289</ele>
        <time>2022-01-21T15:16:53.000Z</time>
      </trkpt>
      <trkpt lat="43.50844" lon="6.37529">
        <ele>289</ele>
        <time>2022-01-21T15:16:54.000Z</time>
      </trkpt>
      <trkpt lat="43.50844" lon="6.37529">
        <ele>289</ele>
        <time>2022-01-21T15:16:55.000Z</time>
      </trkpt>
      <trkpt lat="43.50844" lon="6.37529">
        <ele>289</ele>
        <time>2022-01-21T15:16:56.000Z</time>
      </trkpt>
      <trkpt lat="43.50844" lon="6.37529">
        <ele>289</ele>
        <time>2022-01-21T15:16:57.000Z</time>
      </trkpt>
      <trkpt lat="43.50844" lon="6.37529">
        <ele>289</ele>
        <time>2022-01-21T15:16:58.000Z</time>
      </trkpt>
      <trkpt lat="43.50844" lon="6.37529">
        <ele>289</ele>
        <time>2022-01-21T15:16:59.000Z</time>
      </trkpt>
      <trkpt lat="43.50844" lon="6.37529">
        <ele>289</ele>
        <time>2022-01-21T15:17:00.000Z</time>
      </trkpt>
      <trkpt lat="43.50844" lon="6.37529">
        <ele>289</ele>
        <time>2022-01-21T15:17:01.000Z</time>
      </trkpt>
      <trkpt lat="43.50844" lon="6.37529">
        <ele>289</ele>
        <time>2022-01-21T15:17:02.000Z</time>
      </trkpt>
      <trkpt lat="43.5085" lon="6.37527">
        <ele>289</ele>
        <time>2022-01-21T15:17:03.000Z</time>
      </trkpt>
      <trkpt lat="43.5085" lon="6.37527">
        <ele>289</ele>
        <time>2022-01-21T15:17:04.000Z</time>
      </trkpt>
      <trkpt lat="43.5085" lon="6.37527">
        <ele>289</ele>
        <time>2022-01-21T15:17:05.000Z</time>
      </trkpt>
      <trkpt lat="43.5085" lon="6.37527">
        <ele>289</ele>
        <time>2022-01-21T15:17:06.000Z</time>
      </trkpt>
      <trkpt lat="43.5085" lon="6.37526">
        <ele>289</ele>
        <time>2022-01-21T15:17:07.000Z</time>
      </trkpt>
      <trkpt lat="43.50851" lon="6.37526">
        <ele>289</ele>
        <time>2022-01-21T15:17:08.000Z</time>
      </trkpt>
      <trkpt lat="43.50852" lon="6.37525">
        <ele>289</ele>
        <time>2022-01-21T15:17:09.000Z</time>
      </trkpt>
      <trkpt lat="43.50853" lon="6.37524">
        <ele>289</ele>
        <time>2022-01-21T15:17:10.000Z</time>
      </trkpt>
      <trkpt lat="43.50854" lon="6.37523">
        <ele>289</ele>
        <time>2022-01-21T15:17:11.000Z</time>
      </trkpt>
      <trkpt lat="43.50854" lon="6.37522">
        <ele>289</ele>
        <time>2022-01-21T15:17:12.000Z</time>
      </trkpt>
      <trkpt lat="43.50855" lon="6.37523">
        <ele>289</ele>
        <time>2022-01-21T15:17:13.000Z</time>
      </trkpt>
      <trkpt lat="43.50855" lon="6.37524">
        <ele>289</ele>
        <time>2022-01-21T15:17:14.000Z</time>
      </trkpt>
      <trkpt lat="43.50856" lon="6.37525">
        <ele>289</ele>
        <time>2022-01-21T15:17:15.000Z</time>
      </trkpt>
      <trkpt lat="43.50856" lon="6.37526">
        <ele>289</ele>
        <time>2022-01-21T15:17:16.000Z</time>
      </trkpt>
      <trkpt lat="43.50857" lon="6.37527">
        <ele>289</ele>
        <time>2022-01-21T15:17:17.000Z</time>
      </trkpt>
      <trkpt lat="43.50857" lon="6.37527">
        <ele>289</ele>
        <time>2022-01-21T15:17:18.000Z</time>
      </trkpt>
      <trkpt lat="43.50857" lon="6.37528">
        <ele>289</ele>
        <time>2022-01-21T15:17:19.000Z</time>
      </trkpt>
      <trkpt lat="43.50857" lon="6.37528">
        <ele>289</ele>
        <time>2022-01-21T15:17:20.000Z</time>
      </trkpt>
      <trkpt lat="43.50857" lon="6.37529">
        <ele>289</ele>
        <time>2022-01-21T15:17:21.000Z</time>
      </trkpt>
      <trkpt lat="43.50858" lon="6.37529">
        <ele>289</ele>
        <time>2022-01-21T15:17:22.000Z</time>
      </trkpt>
      <trkpt lat="43.50859" lon="6.37531">
        <ele>289</ele>
        <time>2022-01-21T15:17:23.000Z</time>
      </trkpt>
      <trkpt lat="43.50859" lon="6.37532">
        <ele>289</ele>
        <time>2022-01-21T15:17:24.000Z</time>
      </trkpt>
      <trkpt lat="43.5086" lon="6.37534">
        <ele>289</ele>
        <time>2022-01-21T15:17:25.000Z</time>
      </trkpt>
      <trkpt lat="43.5086" lon="6.37535">
        <ele>289</ele>
        <time>2022-01-21T15:17:26.000Z</time>
      </trkpt>
      <trkpt lat="43.50861" lon="6.37536">
        <ele>289</ele>
        <time>2022-01-21T15:17:27.000Z</time>
      </trkpt>
      <trkpt lat="43.50861" lon="6.37537">
        <ele>289</ele>
        <time>2022-01-21T15:17:28.000Z</time>
      </trkpt>
      <trkpt lat="43.50861" lon="6.37538">
        <ele>289</ele>
        <time>2022-01-21T15:17:29.000Z</time>
      </trkpt>
      <trkpt lat="43.50862" lon="6.37539">
        <ele>289</ele>
        <time>2022-01-21T15:17:30.000Z</time>
      </trkpt>
      <trkpt lat="43.50862" lon="6.3754">
        <ele>289</ele>
        <time>2022-01-21T15:17:31.000Z</time>
      </trkpt>
      <trkpt lat="43.50863" lon="6.37541">
        <ele>289</ele>
        <time>2022-01-21T15:17:32.000Z</time>
      </trkpt>
      <trkpt lat="43.50864" lon="6.37542">
        <ele>288</ele>
        <time>2022-01-21T15:17:33.000Z</time>
      </trkpt>
      <trkpt lat="43.50864" lon="6.37543">
        <ele>288</ele>
        <time>2022-01-21T15:17:34.000Z</time>
      </trkpt>
      <trkpt lat="43.50865" lon="6.37544">
        <ele>288</ele>
        <time>2022-01-21T15:17:35.000Z</time>
      </trkpt>
      <trkpt lat="43.50865" lon="6.37545">
        <ele>288</ele>
        <time>2022-01-21T15:17:36.000Z</time>
      </trkpt>
      <trkpt lat="43.50865" lon="6.37545">
        <ele>288</ele>
        <time>2022-01-21T15:17:37.000Z</time>
      </trkpt>
      <trkpt lat="43.50866" lon="6.37546">
        <ele>288</ele>
        <time>2022-01-21T15:17:38.000Z</time>
      </trkpt>
      <trkpt lat="43.50866" lon="6.37547">
        <ele>288</ele>
        <time>2022-01-21T15:17:39.000Z</time>
      </trkpt>
      <trkpt lat="43.50867" lon="6.37549">
        <ele>288</ele>
        <time>2022-01-21T15:17:40.000Z</time>
      </trkpt>
      <trkpt lat="43.50867" lon="6.37551">
        <ele>288</ele>
        <time>2022-01-21T15:17:41.000Z</time>
      </trkpt>
      <trkpt lat="43.50868" lon="6.37553">
        <ele>288</ele>
        <time>2022-01-21T15:17:42.000Z</time>
      </trkpt>
      <trkpt lat="43.50869" lon="6.37554">
        <ele>288</ele>
        <time>2022-01-21T15:17:43.000Z</time>
      </trkpt>
      <trkpt lat="43.5087" lon="6.37556">
        <ele>288</ele>
        <time>2022-01-21T15:17:44.000Z</time>
      </trkpt>
      <trkpt lat="43.5087" lon="6.37557">
        <ele>287</ele>
        <time>2022-01-21T15:17:45.000Z</time>
      </trkpt>
      <trkpt lat="43.50871" lon="6.37558">
        <ele>287</ele>
        <time>2022-01-21T15:17:46.000Z</time>
      </trkpt>
      <trkpt lat="43.50871" lon="6.37559">
        <ele>287</ele>
        <time>2022-01-21T15:17:47.000Z</time>
      </trkpt>
      <trkpt lat="43.50872" lon="6.3756">
        <ele>287</ele>
        <time>2022-01-21T15:17:48.000Z</time>
      </trkpt>
      <trkpt lat="43.50873" lon="6.37561">
        <ele>287</ele>
        <time>2022-01-21T15:17:49.000Z</time>
      </trkpt>
      <trkpt lat="43.50874" lon="6.37563">
        <ele>287</ele>
        <time>2022-01-21T15:17:50.000Z</time>
      </trkpt>
      <trkpt lat="43.50876" lon="6.37566">
        <ele>287</ele>
        <time>2022-01-21T15:17:51.000Z</time>
      </trkpt>
      <trkpt lat="43.50878" lon="6.3757">
        <ele>287</ele>
        <time>2022-01-21T15:17:52.000Z</time>
      </trkpt>
      <trkpt lat="43.50879" lon="6.37571">
        <ele>287</ele>
        <time>2022-01-21T15:17:53.000Z</time>
      </trkpt>
      <trkpt lat="43.5088" lon="6.37572">
        <ele>287</ele>
        <time>2022-01-21T15:17:54.000Z</time>
      </trkpt>
      <trkpt lat="43.5088" lon="6.37573">
        <ele>287</ele>
        <time>2022-01-21T15:17:55.000Z</time>
      </trkpt>
      <trkpt lat="43.5088" lon="6.37573">
        <ele>287</ele>
        <time>2022-01-21T15:17:56.000Z</time>
      </trkpt>
      <trkpt lat="43.50881" lon="6.37573">
        <ele>286</ele>
        <time>2022-01-21T15:17:57.000Z</time>
      </trkpt>
      <trkpt lat="43.50881" lon="6.37574">
        <ele>286</ele>
        <time>2022-01-21T15:17:58.000Z</time>
      </trkpt>
      <trkpt lat="43.50881" lon="6.37574">
        <ele>286</ele>
        <time>2022-01-21T15:17:59.000Z</time>
      </trkpt>
      <trkpt lat="43.50882" lon="6.37575">
        <ele>286</ele>
        <time>2022-01-21T15:18:00.000Z</time>
      </trkpt>
      <trkpt lat="43.50883" lon="6.37575">
        <ele>286</ele>
        <time>2022-01-21T15:18:01.000Z</time>
      </trkpt>
      <trkpt lat="43.50883" lon="6.37576">
        <ele>286</ele>
        <time>2022-01-21T15:18:02.000Z</time>
      </trkpt>
      <trkpt lat="43.50884" lon="6.37577">
        <ele>286</ele>
        <time>2022-01-21T15:18:03.000Z</time>
      </trkpt>
      <trkpt lat="43.50886" lon="6.37578">
        <ele>286</ele>
        <time>2022-01-21T15:18:04.000Z</time>
      </trkpt>
      <trkpt lat="43.50887" lon="6.37579">
        <ele>286</ele>
        <time>2022-01-21T15:18:05.000Z</time>
      </trkpt>
      <trkpt lat="43.50888" lon="6.3758">
        <ele>286</ele>
        <time>2022-01-21T15:18:06.000Z</time>
      </trkpt>
      <trkpt lat="43.5089" lon="6.37581">
        <ele>286</ele>
        <time>2022-01-21T15:18:07.000Z</time>
      </trkpt>
      <trkpt lat="43.50891" lon="6.37582">
        <ele>286</ele>
        <time>2022-01-21T15:18:08.000Z</time>
      </trkpt>
      <trkpt lat="43.50893" lon="6.37584">
        <ele>286</ele>
        <time>2022-01-21T15:18:09.000Z</time>
      </trkpt>
      <trkpt lat="43.50894" lon="6.37585">
        <ele>286</ele>
        <time>2022-01-21T15:18:10.000Z</time>
      </trkpt>
      <trkpt lat="43.50895" lon="6.37586">
        <ele>286</ele>
        <time>2022-01-21T15:18:11.000Z</time>
      </trkpt>
      <trkpt lat="43.50896" lon="6.37587">
        <ele>286</ele>
        <time>2022-01-21T15:18:12.000Z</time>
      </trkpt>
      <trkpt lat="43.50896" lon="6.37587">
        <ele>286</ele>
        <time>2022-01-21T15:18:13.000Z</time>
      </trkpt>
      <trkpt lat="43.50897" lon="6.37588">
        <ele>286</ele>
        <time>2022-01-21T15:18:14.000Z</time>
      </trkpt>
      <trkpt lat="43.50898" lon="6.37589">
        <ele>286</ele>
        <time>2022-01-21T15:18:15.000Z</time>
      </trkpt>
      <trkpt lat="43.50899" lon="6.3759">
        <ele>286</ele>
        <time>2022-01-21T15:18:16.000Z</time>
      </trkpt>
      <trkpt lat="43.50901" lon="6.37593">
        <ele>286</ele>
        <time>2022-01-21T15:18:17.000Z</time>
      </trkpt>
      <trkpt lat="43.50903" lon="6.37595">
        <ele>286</ele>
        <time>2022-01-21T15:18:18.000Z</time>
      </trkpt>
      <trkpt lat="43.50904" lon="6.37597">
        <ele>286</ele>
        <time>2022-01-21T15:18:19.000Z</time>
      </trkpt>
      <trkpt lat="43.50904" lon="6.37597">
        <ele>286</ele>
        <time>2022-01-21T15:18:20.000Z</time>
      </trkpt>
      <trkpt lat="43.50905" lon="6.37598">
        <ele>286</ele>
        <time>2022-01-21T15:18:21.000Z</time>
      </trkpt>
      <trkpt lat="43.50905" lon="6.37599">
        <ele>286</ele>
        <time>2022-01-21T15:18:22.000Z</time>
      </trkpt>
      <trkpt lat="43.50905" lon="6.376">
        <ele>285</ele>
        <time>2022-01-21T15:18:23.000Z</time>
      </trkpt>
      <trkpt lat="43.50906" lon="6.37601">
        <ele>285</ele>
        <time>2022-01-21T15:18:24.000Z</time>
      </trkpt>
      <trkpt lat="43.50906" lon="6.37602">
        <ele>285</ele>
        <time>2022-01-21T15:18:25.000Z</time>
      </trkpt>
      <trkpt lat="43.50906" lon="6.37603">
        <ele>285</ele>
        <time>2022-01-21T15:18:26.000Z</time>
      </trkpt>
      <trkpt lat="43.50907" lon="6.37604">
        <ele>285</ele>
        <time>2022-01-21T15:18:27.000Z</time>
      </trkpt>
      <trkpt lat="43.50907" lon="6.37604">
        <ele>285</ele>
        <time>2022-01-21T15:18:28.000Z</time>
      </trkpt>
      <trkpt lat="43.50907" lon="6.37605">
        <ele>285</ele>
        <time>2022-01-21T15:18:29.000Z</time>
      </trkpt>
      <trkpt lat="43.50907" lon="6.37606">
        <ele>285</ele>
        <time>2022-01-21T15:18:30.000Z</time>
      </trkpt>
      <trkpt lat="43.50907" lon="6.37607">
        <ele>285</ele>
        <time>2022-01-21T15:18:31.000Z</time>
      </trkpt>
      <trkpt lat="43.50908" lon="6.37608">
        <ele>285</ele>
        <time>2022-01-21T15:18:32.000Z</time>
      </trkpt>
      <trkpt lat="43.50909" lon="6.3761">
        <ele>285</ele>
        <time>2022-01-21T15:18:33.000Z</time>
      </trkpt>
      <trkpt lat="43.5091" lon="6.37611">
        <ele>285</ele>
        <time>2022-01-21T15:18:34.000Z</time>
      </trkpt>
      <trkpt lat="43.5091" lon="6.37612">
        <ele>285</ele>
        <time>2022-01-21T15:18:35.000Z</time>
      </trkpt>
      <trkpt lat="43.5091" lon="6.37612">
        <ele>285</ele>
        <time>2022-01-21T15:18:36.000Z</time>
      </trkpt>
      <trkpt lat="43.5091" lon="6.37612">
        <ele>285</ele>
        <time>2022-01-21T15:18:37.000Z</time>
      </trkpt>
      <trkpt lat="43.50911" lon="6.37613">
        <ele>285</ele>
        <time>2022-01-21T15:18:38.000Z</time>
      </trkpt>
      <trkpt lat="43.50911" lon="6.37613">
        <ele>284</ele>
        <time>2022-01-21T15:18:39.000Z</time>
      </trkpt>
      <trkpt lat="43.50912" lon="6.37614">
        <ele>284</ele>
        <time>2022-01-21T15:18:40.000Z</time>
      </trkpt>
      <trkpt lat="43.50914" lon="6.37615">
        <ele>284</ele>
        <time>2022-01-21T15:18:41.000Z</time>
      </trkpt>
      <trkpt lat="43.50915" lon="6.37616">
        <ele>284</ele>
        <time>2022-01-21T15:18:42.000Z</time>
      </trkpt>
      <trkpt lat="43.50915" lon="6.37616">
        <ele>284</ele>
        <time>2022-01-21T15:18:43.000Z</time>
      </trkpt>
      <trkpt lat="43.50915" lon="6.37617">
        <ele>284</ele>
        <time>2022-01-21T15:18:44.000Z</time>
      </trkpt>
      <trkpt lat="43.50916" lon="6.37617">
        <ele>284</ele>
        <time>2022-01-21T15:18:45.000Z</time>
      </trkpt>
      <trkpt lat="43.50916" lon="6.37617">
        <ele>283</ele>
        <time>2022-01-21T15:18:46.000Z</time>
      </trkpt>
      <trkpt lat="43.50916" lon="6.37617">
        <ele>283</ele>
        <time>2022-01-21T15:18:47.000Z</time>
      </trkpt>
      <trkpt lat="43.50916" lon="6.37618">
        <ele>283</ele>
        <time>2022-01-21T15:18:48.000Z</time>
      </trkpt>
      <trkpt lat="43.50917" lon="6.37618">
        <ele>283</ele>
        <time>2022-01-21T15:18:49.000Z</time>
      </trkpt>
      <trkpt lat="43.50917" lon="6.37619">
        <ele>283</ele>
        <time>2022-01-21T15:18:50.000Z</time>
      </trkpt>
      <trkpt lat="43.50918" lon="6.3762">
        <ele>283</ele>
        <time>2022-01-21T15:18:51.000Z</time>
      </trkpt>
      <trkpt lat="43.50919" lon="6.37621">
        <ele>283</ele>
        <time>2022-01-21T15:18:52.000Z</time>
      </trkpt>
      <trkpt lat="43.5092" lon="6.37622">
        <ele>281</ele>
        <time>2022-01-21T15:18:53.000Z</time>
      </trkpt>
      <trkpt lat="43.50921" lon="6.37624">
        <ele>281</ele>
        <time>2022-01-21T15:18:54.000Z</time>
      </trkpt>
      <trkpt lat="43.50923" lon="6.37625">
        <ele>280</ele>
        <time>2022-01-21T15:18:55.000Z</time>
      </trkpt>
      <trkpt lat="43.50924" lon="6.37626">
        <ele>280</ele>
        <time>2022-01-21T15:18:56.000Z</time>
      </trkpt>
      <trkpt lat="43.50925" lon="6.37627">
        <ele>279</ele>
        <time>2022-01-21T15:18:57.000Z</time>
      </trkpt>
      <trkpt lat="43.50926" lon="6.37628">
        <ele>279</ele>
        <time>2022-01-21T15:18:58.000Z</time>
      </trkpt>
      <trkpt lat="43.50927" lon="6.37629">
        <ele>279</ele>
        <time>2022-01-21T15:18:59.000Z</time>
      </trkpt>
      <trkpt lat="43.50927" lon="6.3763">
        <ele>278</ele>
        <time>2022-01-21T15:19:00.000Z</time>
      </trkpt>
      <trkpt lat="43.50928" lon="6.37632">
        <ele>278</ele>
        <time>2022-01-21T15:19:01.000Z</time>
      </trkpt>
      <trkpt lat="43.50929" lon="6.37633">
        <ele>278</ele>
        <time>2022-01-21T15:19:02.000Z</time>
      </trkpt>
      <trkpt lat="43.5093" lon="6.37634">
        <ele>277</ele>
        <time>2022-01-21T15:19:03.000Z</time>
      </trkpt>
      <trkpt lat="43.50931" lon="6.37634">
        <ele>277</ele>
        <time>2022-01-21T15:19:04.000Z</time>
      </trkpt>
      <trkpt lat="43.50932" lon="6.37635">
        <ele>277</ele>
        <time>2022-01-21T15:19:05.000Z</time>
      </trkpt>
      <trkpt lat="43.50933" lon="6.37636">
        <ele>277</ele>
        <time>2022-01-21T15:19:06.000Z</time>
      </trkpt>
      <trkpt lat="43.50934" lon="6.37638">
        <ele>277</ele>
        <time>2022-01-21T15:19:07.000Z</time>
      </trkpt>
      <trkpt lat="43.50934" lon="6.37639">
        <ele>277</ele>
        <time>2022-01-21T15:19:08.000Z</time>
      </trkpt>
      <trkpt lat="43.50935" lon="6.3764">
        <ele>277</ele>
        <time>2022-01-21T15:19:09.000Z</time>
      </trkpt>
      <trkpt lat="43.50935" lon="6.3764">
        <ele>277</ele>
        <time>2022-01-21T15:19:10.000Z</time>
      </trkpt>
      <trkpt lat="43.50936" lon="6.37641">
        <ele>277</ele>
        <time>2022-01-21T15:19:11.000Z</time>
      </trkpt>
      <trkpt lat="43.50937" lon="6.37642">
        <ele>277</ele>
        <time>2022-01-21T15:19:12.000Z</time>
      </trkpt>
      <trkpt lat="43.50938" lon="6.37643">
        <ele>277</ele>
        <time>2022-01-21T15:19:13.000Z</time>
      </trkpt>
      <trkpt lat="43.50938" lon="6.37644">
        <ele>277</ele>
        <time>2022-01-21T15:19:14.000Z</time>
      </trkpt>
      <trkpt lat="43.50939" lon="6.37645">
        <ele>277</ele>
        <time>2022-01-21T15:19:15.000Z</time>
      </trkpt>
      <trkpt lat="43.5094" lon="6.37646">
        <ele>277</ele>
        <time>2022-01-21T15:19:16.000Z</time>
      </trkpt>
      <trkpt lat="43.50941" lon="6.37648">
        <ele>276</ele>
        <time>2022-01-21T15:19:17.000Z</time>
      </trkpt>
      <trkpt lat="43.50941" lon="6.37649">
        <ele>276</ele>
        <time>2022-01-21T15:19:18.000Z</time>
      </trkpt>
      <trkpt lat="43.50942" lon="6.3765">
        <ele>276</ele>
        <time>2022-01-21T15:19:19.000Z</time>
      </trkpt>
      <trkpt lat="43.50942" lon="6.37651">
        <ele>276</ele>
        <time>2022-01-21T15:19:20.000Z</time>
      </trkpt>
      <trkpt lat="43.50943" lon="6.37652">
        <ele>276</ele>
        <time>2022-01-21T15:19:21.000Z</time>
      </trkpt>
      <trkpt lat="43.50944" lon="6.37652">
        <ele>276</ele>
        <time>2022-01-21T15:19:22.000Z</time>
      </trkpt>
      <trkpt lat="43.50944" lon="6.37653">
        <ele>276</ele>
        <time>2022-01-21T15:19:23.000Z</time>
      </trkpt>
      <trkpt lat="43.50945" lon="6.37654">
        <ele>276</ele>
        <time>2022-01-21T15:19:24.000Z</time>
      </trkpt>
      <trkpt lat="43.50946" lon="6.37655">
        <ele>276</ele>
        <time>2022-01-21T15:19:25.000Z</time>
      </trkpt>
      <trkpt lat="43.50946" lon="6.37655">
        <ele>276</ele>
        <time>2022-01-21T15:19:26.000Z</time>
      </trkpt>
      <trkpt lat="43.50946" lon="6.37656">
        <ele>276</ele>
        <time>2022-01-21T15:19:27.000Z</time>
      </trkpt>
      <trkpt lat="43.50947" lon="6.37656">
        <ele>276</ele>
        <time>2022-01-21T15:19:28.000Z</time>
      </trkpt>
      <trkpt lat="43.50948" lon="6.37657">
        <ele>276</ele>
        <time>2022-01-21T15:19:29.000Z</time>
      </trkpt>
      <trkpt lat="43.50948" lon="6.37657">
        <ele>276</ele>
        <time>2022-01-21T15:19:30.000Z</time>
      </trkpt>
      <trkpt lat="43.50949" lon="6.37658">
        <ele>276</ele>
        <time>2022-01-21T15:19:31.000Z</time>
      </trkpt>
      <trkpt lat="43.50949" lon="6.37658">
        <ele>276</ele>
        <time>2022-01-21T15:19:32.000Z</time>
      </trkpt>
      <trkpt lat="43.5095" lon="6.37658">
        <ele>276</ele>
        <time>2022-01-21T15:19:33.000Z</time>
      </trkpt>
      <trkpt lat="43.5095" lon="6.37659">
        <ele>276</ele>
        <time>2022-01-21T15:19:34.000Z</time>
      </trkpt>
      <trkpt lat="43.50951" lon="6.37659">
        <ele>276</ele>
        <time>2022-01-21T15:19:35.000Z</time>
      </trkpt>
      <trkpt lat="43.50952" lon="6.3766">
        <ele>276</ele>
        <time>2022-01-21T15:19:36.000Z</time>
      </trkpt>
      <trkpt lat="43.50953" lon="6.3766">
        <ele>276</ele>
        <time>2022-01-21T15:19:37.000Z</time>
      </trkpt>
      <trkpt lat="43.50954" lon="6.37661">
        <ele>276</ele>
        <time>2022-01-21T15:19:38.000Z</time>
      </trkpt>
      <trkpt lat="43.50954" lon="6.37661">
        <ele>276</ele>
        <time>2022-01-21T15:19:39.000Z</time>
      </trkpt>
      <trkpt lat="43.50955" lon="6.37662">
        <ele>276</ele>
        <time>2022-01-21T15:19:40.000Z</time>
      </trkpt>
      <trkpt lat="43.50956" lon="6.37663">
        <ele>276</ele>
        <time>2022-01-21T15:19:41.000Z</time>
      </trkpt>
      <trkpt lat="43.50957" lon="6.37663">
        <ele>275</ele>
        <time>2022-01-21T15:19:42.000Z</time>
      </trkpt>
      <trkpt lat="43.50959" lon="6.37664">
        <ele>275</ele>
        <time>2022-01-21T15:19:43.000Z</time>
      </trkpt>
      <trkpt lat="43.5096" lon="6.37665">
        <ele>275</ele>
        <time>2022-01-21T15:19:44.000Z</time>
      </trkpt>
      <trkpt lat="43.50961" lon="6.37666">
        <ele>274</ele>
        <time>2022-01-21T15:19:45.000Z</time>
      </trkpt>
      <trkpt lat="43.50962" lon="6.37667">
        <ele>274</ele>
        <time>2022-01-21T15:19:46.000Z</time>
      </trkpt>
      <trkpt lat="43.50964" lon="6.37668">
        <ele>274</ele>
        <time>2022-01-21T15:19:47.000Z</time>
      </trkpt>
      <trkpt lat="43.50965" lon="6.37668">
        <ele>274</ele>
        <time>2022-01-21T15:19:48.000Z</time>
      </trkpt>
      <trkpt lat="43.50966" lon="6.37669">
        <ele>273</ele>
        <time>2022-01-21T15:19:49.000Z</time>
      </trkpt>
      <trkpt lat="43.50967" lon="6.3767">
        <ele>273</ele>
        <time>2022-01-21T15:19:50.000Z</time>
      </trkpt>
      <trkpt lat="43.50968" lon="6.37671">
        <ele>272</ele>
        <time>2022-01-21T15:19:51.000Z</time>
      </trkpt>
      <trkpt lat="43.50969" lon="6.37672">
        <ele>271</ele>
        <time>2022-01-21T15:19:52.000Z</time>
      </trkpt>
      <trkpt lat="43.5097" lon="6.37673">
        <ele>271</ele>
        <time>2022-01-21T15:19:53.000Z</time>
      </trkpt>
      <trkpt lat="43.50971" lon="6.37673">
        <ele>271</ele>
        <time>2022-01-21T15:19:54.000Z</time>
      </trkpt>
      <trkpt lat="43.50971" lon="6.37674">
        <ele>271</ele>
        <time>2022-01-21T15:19:55.000Z</time>
      </trkpt>
      <trkpt lat="43.50972" lon="6.37675">
        <ele>271</ele>
        <time>2022-01-21T15:19:56.000Z</time>
      </trkpt>
      <trkpt lat="43.50972" lon="6.37675">
        <ele>271</ele>
        <time>2022-01-21T15:19:57.000Z</time>
      </trkpt>
      <trkpt lat="43.50973" lon="6.37676">
        <ele>270</ele>
        <time>2022-01-21T15:19:58.000Z</time>
      </trkpt>
      <trkpt lat="43.50974" lon="6.37677">
        <ele>270</ele>
        <time>2022-01-21T15:19:59.000Z</time>
      </trkpt>
      <trkpt lat="43.50975" lon="6.37677">
        <ele>270</ele>
        <time>2022-01-21T15:20:00.000Z</time>
      </trkpt>
      <trkpt lat="43.50975" lon="6.37678">
        <ele>270</ele>
        <time>2022-01-21T15:20:01.000Z</time>
      </trkpt>
      <trkpt lat="43.50976" lon="6.37679">
        <ele>270</ele>
        <time>2022-01-21T15:20:02.000Z</time>
      </trkpt>
      <trkpt lat="43.50977" lon="6.37679">
        <ele>270</ele>
        <time>2022-01-21T15:20:03.000Z</time>
      </trkpt>
      <trkpt lat="43.50977" lon="6.3768">
        <ele>269</ele>
        <time>2022-01-21T15:20:04.000Z</time>
      </trkpt>
      <trkpt lat="43.50978" lon="6.37681">
        <ele>269</ele>
        <time>2022-01-21T15:20:05.000Z</time>
      </trkpt>
      <trkpt lat="43.50979" lon="6.37681">
        <ele>268</ele>
        <time>2022-01-21T15:20:06.000Z</time>
      </trkpt>
      <trkpt lat="43.5098" lon="6.37682">
        <ele>268</ele>
        <time>2022-01-21T15:20:07.000Z</time>
      </trkpt>
      <trkpt lat="43.5098" lon="6.37683">
        <ele>268</ele>
        <time>2022-01-21T15:20:08.000Z</time>
      </trkpt>
      <trkpt lat="43.50981" lon="6.37684">
        <ele>268</ele>
        <time>2022-01-21T15:20:09.000Z</time>
      </trkpt>
      <trkpt lat="43.50982" lon="6.37684">
        <ele>268</ele>
        <time>2022-01-21T15:20:10.000Z</time>
      </trkpt>
      <trkpt lat="43.50983" lon="6.37685">
        <ele>268</ele>
        <time>2022-01-21T15:20:11.000Z</time>
      </trkpt>
      <trkpt lat="43.50984" lon="6.37686">
        <ele>268</ele>
        <time>2022-01-21T15:20:12.000Z</time>
      </trkpt>
      <trkpt lat="43.50984" lon="6.37687">
        <ele>269</ele>
        <time>2022-01-21T15:20:13.000Z</time>
      </trkpt>
      <trkpt lat="43.50985" lon="6.37687">
        <ele>269</ele>
        <time>2022-01-21T15:20:14.000Z</time>
      </trkpt>
      <trkpt lat="43.50985" lon="6.37687">
        <ele>269</ele>
        <time>2022-01-21T15:20:15.000Z</time>
      </trkpt>
      <trkpt lat="43.50986" lon="6.37688">
        <ele>269</ele>
        <time>2022-01-21T15:20:16.000Z</time>
      </trkpt>
      <trkpt lat="43.50987" lon="6.37689">
        <ele>269</ele>
        <time>2022-01-21T15:20:17.000Z</time>
      </trkpt>
      <trkpt lat="43.50987" lon="6.37691">
        <ele>269</ele>
        <time>2022-01-21T15:20:18.000Z</time>
      </trkpt>
      <trkpt lat="43.50987" lon="6.37693">
        <ele>269</ele>
        <time>2022-01-21T15:20:19.000Z</time>
      </trkpt>
      <trkpt lat="43.50987" lon="6.37695">
        <ele>269</ele>
        <time>2022-01-21T15:20:20.000Z</time>
      </trkpt>
      <trkpt lat="43.50987" lon="6.37697">
        <ele>269</ele>
        <time>2022-01-21T15:20:21.000Z</time>
      </trkpt>
      <trkpt lat="43.50988" lon="6.37698">
        <ele>269</ele>
        <time>2022-01-21T15:20:22.000Z</time>
      </trkpt>
      <trkpt lat="43.50988" lon="6.37699">
        <ele>270</ele>
        <time>2022-01-21T15:20:23.000Z</time>
      </trkpt>
      <trkpt lat="43.50989" lon="6.37701">
        <ele>270</ele>
        <time>2022-01-21T15:20:24.000Z</time>
      </trkpt>
      <trkpt lat="43.5099" lon="6.37702">
        <ele>270</ele>
        <time>2022-01-21T15:20:25.000Z</time>
      </trkpt>
      <trkpt lat="43.5099" lon="6.37702">
        <ele>270</ele>
        <time>2022-01-21T15:20:26.000Z</time>
      </trkpt>
      <trkpt lat="43.50991" lon="6.37703">
        <ele>270</ele>
        <time>2022-01-21T15:20:27.000Z</time>
      </trkpt>
      <trkpt lat="43.50992" lon="6.37703">
        <ele>270</ele>
        <time>2022-01-21T15:20:28.000Z</time>
      </trkpt>
      <trkpt lat="43.50993" lon="6.37704">
        <ele>270</ele>
        <time>2022-01-21T15:20:29.000Z</time>
      </trkpt>
      <trkpt lat="43.50994" lon="6.37705">
        <ele>270</ele>
        <time>2022-01-21T15:20:30.000Z</time>
      </trkpt>
      <trkpt lat="43.50995" lon="6.37705">
        <ele>271</ele>
        <time>2022-01-21T15:20:31.000Z</time>
      </trkpt>
      <trkpt lat="43.50995" lon="6.37706">
        <ele>271</ele>
        <time>2022-01-21T15:20:32.000Z</time>
      </trkpt>
      <trkpt lat="43.50996" lon="6.37706">
        <ele>271</ele>
        <time>2022-01-21T15:20:33.000Z</time>
      </trkpt>
      <trkpt lat="43.50997" lon="6.37706">
        <ele>271</ele>
        <time>2022-01-21T15:20:34.000Z</time>
      </trkpt>
      <trkpt lat="43.50998" lon="6.37707">
        <ele>271</ele>
        <time>2022-01-21T15:20:35.000Z</time>
      </trkpt>
      <trkpt lat="43.50998" lon="6.37708">
        <ele>271</ele>
        <time>2022-01-21T15:20:36.000Z</time>
      </trkpt>
      <trkpt lat="43.50999" lon="6.37709">
        <ele>271</ele>
        <time>2022-01-21T15:20:37.000Z</time>
      </trkpt>
      <trkpt lat="43.50999" lon="6.37709">
        <ele>271</ele>
        <time>2022-01-21T15:20:38.000Z</time>
      </trkpt>
      <trkpt lat="43.51" lon="6.3771">
        <ele>271</ele>
        <time>2022-01-21T15:20:39.000Z</time>
      </trkpt>
      <trkpt lat="43.51001" lon="6.3771">
        <ele>271</ele>
        <time>2022-01-21T15:20:40.000Z</time>
      </trkpt>
      <trkpt lat="43.51001" lon="6.37711">
        <ele>271</ele>
        <time>2022-01-21T15:20:41.000Z</time>
      </trkpt>
      <trkpt lat="43.51002" lon="6.37712">
        <ele>271</ele>
        <time>2022-01-21T15:20:42.000Z</time>
      </trkpt>
      <trkpt lat="43.51002" lon="6.37712">
        <ele>272</ele>
        <time>2022-01-21T15:20:43.000Z</time>
      </trkpt>
      <trkpt lat="43.51003" lon="6.37714">
        <ele>272</ele>
        <time>2022-01-21T15:20:44.000Z</time>
      </trkpt>
      <trkpt lat="43.51004" lon="6.37715">
        <ele>272</ele>
        <time>2022-01-21T15:20:45.000Z</time>
      </trkpt>
      <trkpt lat="43.51004" lon="6.37717">
        <ele>272</ele>
        <time>2022-01-21T15:20:46.000Z</time>
      </trkpt>
      <trkpt lat="43.51005" lon="6.37719">
        <ele>274</ele>
        <time>2022-01-21T15:20:47.000Z</time>
      </trkpt>
      <trkpt lat="43.51006" lon="6.3772">
        <ele>274</ele>
        <time>2022-01-21T15:20:48.000Z</time>
      </trkpt>
      <trkpt lat="43.51006" lon="6.37722">
        <ele>274</ele>
        <time>2022-01-21T15:20:49.000Z</time>
      </trkpt>
      <trkpt lat="43.51007" lon="6.37724">
        <ele>274</ele>
        <time>2022-01-21T15:20:50.000Z</time>
      </trkpt>
      <trkpt lat="43.51008" lon="6.37726">
        <ele>274</ele>
        <time>2022-01-21T15:20:51.000Z</time>
      </trkpt>
      <trkpt lat="43.5101" lon="6.37728">
        <ele>274</ele>
        <time>2022-01-21T15:20:52.000Z</time>
      </trkpt>
      <trkpt lat="43.51011" lon="6.3773">
        <ele>274</ele>
        <time>2022-01-21T15:20:53.000Z</time>
      </trkpt>
      <trkpt lat="43.51012" lon="6.37732">
        <ele>274</ele>
        <time>2022-01-21T15:20:54.000Z</time>
      </trkpt>
      <trkpt lat="43.51013" lon="6.37733">
        <ele>274</ele>
        <time>2022-01-21T15:20:55.000Z</time>
      </trkpt>
      <trkpt lat="43.51014" lon="6.37735">
        <ele>274</ele>
        <time>2022-01-21T15:20:56.000Z</time>
      </trkpt>
      <trkpt lat="43.51015" lon="6.37736">
        <ele>274</ele>
        <time>2022-01-21T15:20:57.000Z</time>
      </trkpt>
      <trkpt lat="43.51015" lon="6.37737">
        <ele>274</ele>
        <time>2022-01-21T15:20:58.000Z</time>
      </trkpt>
      <trkpt lat="43.51016" lon="6.37738">
        <ele>274</ele>
        <time>2022-01-21T15:20:59.000Z</time>
      </trkpt>
      <trkpt lat="43.51017" lon="6.3774">
        <ele>274</ele>
        <time>2022-01-21T15:21:00.000Z</time>
      </trkpt>
      <trkpt lat="43.51018" lon="6.37742">
        <ele>274</ele>
        <time>2022-01-21T15:21:01.000Z</time>
      </trkpt>
      <trkpt lat="43.51019" lon="6.37744">
        <ele>274</ele>
        <time>2022-01-21T15:21:02.000Z</time>
      </trkpt>
      <trkpt lat="43.5102" lon="6.37745">
        <ele>274</ele>
        <time>2022-01-21T15:21:03.000Z</time>
      </trkpt>
      <trkpt lat="43.51021" lon="6.37747">
        <ele>274</ele>
        <time>2022-01-21T15:21:04.000Z</time>
      </trkpt>
      <trkpt lat="43.51021" lon="6.37749">
        <ele>274</ele>
        <time>2022-01-21T15:21:05.000Z</time>
      </trkpt>
      <trkpt lat="43.51022" lon="6.37751">
        <ele>274</ele>
        <time>2022-01-21T15:21:06.000Z</time>
      </trkpt>
      <trkpt lat="43.51022" lon="6.37753">
        <ele>274</ele>
        <time>2022-01-21T15:21:07.000Z</time>
      </trkpt>
      <trkpt lat="43.51022" lon="6.37755">
        <ele>274</ele>
        <time>2022-01-21T15:21:08.000Z</time>
      </trkpt>
      <trkpt lat="43.51022" lon="6.37756">
        <ele>274</ele>
        <time>2022-01-21T15:21:09.000Z</time>
      </trkpt>
      <trkpt lat="43.51022" lon="6.37758">
        <ele>274</ele>
        <time>2022-01-21T15:21:10.000Z</time>
      </trkpt>
      <trkpt lat="43.51022" lon="6.3776">
        <ele>274</ele>
        <time>2022-01-21T15:21:11.000Z</time>
      </trkpt>
      <trkpt lat="43.51023" lon="6.37761">
        <ele>273</ele>
        <time>2022-01-21T15:21:12.000Z</time>
      </trkpt>
      <trkpt lat="43.51023" lon="6.37763">
        <ele>272</ele>
        <time>2022-01-21T15:21:13.000Z</time>
      </trkpt>
      <trkpt lat="43.51023" lon="6.37764">
        <ele>272</ele>
        <time>2022-01-21T15:21:14.000Z</time>
      </trkpt>
      <trkpt lat="43.51024" lon="6.37766">
        <ele>272</ele>
        <time>2022-01-21T15:21:15.000Z</time>
      </trkpt>
      <trkpt lat="43.51024" lon="6.37768">
        <ele>272</ele>
        <time>2022-01-21T15:21:16.000Z</time>
      </trkpt>
      <trkpt lat="43.51025" lon="6.37769">
        <ele>272</ele>
        <time>2022-01-21T15:21:17.000Z</time>
      </trkpt>
      <trkpt lat="43.51025" lon="6.3777">
        <ele>272</ele>
        <time>2022-01-21T15:21:18.000Z</time>
      </trkpt>
      <trkpt lat="43.51026" lon="6.37771">
        <ele>272</ele>
        <time>2022-01-21T15:21:19.000Z</time>
      </trkpt>
      <trkpt lat="43.51026" lon="6.37772">
        <ele>272</ele>
        <time>2022-01-21T15:21:20.000Z</time>
      </trkpt>
      <trkpt lat="43.51027" lon="6.37773">
        <ele>272</ele>
        <time>2022-01-21T15:21:21.000Z</time>
      </trkpt>
      <trkpt lat="43.51027" lon="6.37775">
        <ele>271</ele>
        <time>2022-01-21T15:21:22.000Z</time>
      </trkpt>
      <trkpt lat="43.51028" lon="6.37776">
        <ele>270</ele>
        <time>2022-01-21T15:21:23.000Z</time>
      </trkpt>
      <trkpt lat="43.51028" lon="6.37778">
        <ele>270</ele>
        <time>2022-01-21T15:21:24.000Z</time>
      </trkpt>
      <trkpt lat="43.51028" lon="6.37779">
        <ele>270</ele>
        <time>2022-01-21T15:21:25.000Z</time>
      </trkpt>
      <trkpt lat="43.51029" lon="6.37781">
        <ele>270</ele>
        <time>2022-01-21T15:21:26.000Z</time>
      </trkpt>
      <trkpt lat="43.51029" lon="6.37782">
        <ele>270</ele>
        <time>2022-01-21T15:21:27.000Z</time>
      </trkpt>
      <trkpt lat="43.51029" lon="6.37784">
        <ele>270</ele>
        <time>2022-01-21T15:21:28.000Z</time>
      </trkpt>
      <trkpt lat="43.51029" lon="6.37787">
        <ele>270</ele>
        <time>2022-01-21T15:21:29.000Z</time>
      </trkpt>
      <trkpt lat="43.51028" lon="6.37787">
        <ele>270</ele>
        <time>2022-01-21T15:21:30.000Z</time>
      </trkpt>
      <trkpt lat="43.51027" lon="6.37788">
        <ele>270</ele>
        <time>2022-01-21T15:21:31.000Z</time>
      </trkpt>
      <trkpt lat="43.51027" lon="6.37788">
        <ele>270</ele>
        <time>2022-01-21T15:21:32.000Z</time>
      </trkpt>
      <trkpt lat="43.51027" lon="6.37789">
        <ele>270</ele>
        <time>2022-01-21T15:21:33.000Z</time>
      </trkpt>
      <trkpt lat="43.51027" lon="6.37789">
        <ele>270</ele>
        <time>2022-01-21T15:21:34.000Z</time>
      </trkpt>
      <trkpt lat="43.51026" lon="6.37791">
        <ele>270</ele>
        <time>2022-01-21T15:21:35.000Z</time>
      </trkpt>
      <trkpt lat="43.51026" lon="6.37792">
        <ele>270</ele>
        <time>2022-01-21T15:21:36.000Z</time>
      </trkpt>
      <trkpt lat="43.51026" lon="6.37793">
        <ele>270</ele>
        <time>2022-01-21T15:21:37.000Z</time>
      </trkpt>
      <trkpt lat="43.51025" lon="6.37794">
        <ele>270</ele>
        <time>2022-01-21T15:21:38.000Z</time>
      </trkpt>
      <trkpt lat="43.51025" lon="6.37795">
        <ele>270</ele>
        <time>2022-01-21T15:21:39.000Z</time>
      </trkpt>
      <trkpt lat="43.51025" lon="6.37797">
        <ele>270</ele>
        <time>2022-01-21T15:21:40.000Z</time>
      </trkpt>
      <trkpt lat="43.51025" lon="6.37799">
        <ele>270</ele>
        <time>2022-01-21T15:21:41.000Z</time>
      </trkpt>
      <trkpt lat="43.51024" lon="6.37801">
        <ele>270</ele>
        <time>2022-01-21T15:21:42.000Z</time>
      </trkpt>
      <trkpt lat="43.51024" lon="6.37803">
        <ele>270</ele>
        <time>2022-01-21T15:21:43.000Z</time>
      </trkpt>
      <trkpt lat="43.51024" lon="6.37805">
        <ele>270</ele>
        <time>2022-01-21T15:21:44.000Z</time>
      </trkpt>
      <trkpt lat="43.51024" lon="6.37808">
        <ele>270</ele>
        <time>2022-01-21T15:21:45.000Z</time>
      </trkpt>
      <trkpt lat="43.51024" lon="6.3781">
        <ele>270</ele>
        <time>2022-01-21T15:21:46.000Z</time>
      </trkpt>
      <trkpt lat="43.51024" lon="6.37811">
        <ele>270</ele>
        <time>2022-01-21T15:21:47.000Z</time>
      </trkpt>
      <trkpt lat="43.51024" lon="6.37813">
        <ele>270</ele>
        <time>2022-01-21T15:21:48.000Z</time>
      </trkpt>
      <trkpt lat="43.51023" lon="6.37814">
        <ele>270</ele>
        <time>2022-01-21T15:21:49.000Z</time>
      </trkpt>
      <trkpt lat="43.51023" lon="6.37815">
        <ele>270</ele>
        <time>2022-01-21T15:21:50.000Z</time>
      </trkpt>
      <trkpt lat="43.51023" lon="6.37817">
        <ele>270</ele>
        <time>2022-01-21T15:21:51.000Z</time>
      </trkpt>
      <trkpt lat="43.51023" lon="6.37818">
        <ele>270</ele>
        <time>2022-01-21T15:21:52.000Z</time>
      </trkpt>
      <trkpt lat="43.51023" lon="6.37821">
        <ele>270</ele>
        <time>2022-01-21T15:21:53.000Z</time>
      </trkpt>
      <trkpt lat="43.51023" lon="6.37823">
        <ele>270</ele>
        <time>2022-01-21T15:21:54.000Z</time>
      </trkpt>
      <trkpt lat="43.51023" lon="6.37824">
        <ele>270</ele>
        <time>2022-01-21T15:21:55.000Z</time>
      </trkpt>
      <trkpt lat="43.51022" lon="6.37826">
        <ele>270</ele>
        <time>2022-01-21T15:21:56.000Z</time>
      </trkpt>
      <trkpt lat="43.51022" lon="6.37827">
        <ele>269</ele>
        <time>2022-01-21T15:21:57.000Z</time>
      </trkpt>
      <trkpt lat="43.51022" lon="6.37829">
        <ele>269</ele>
        <time>2022-01-21T15:21:58.000Z</time>
      </trkpt>
      <trkpt lat="43.51022" lon="6.3783">
        <ele>269</ele>
        <time>2022-01-21T15:21:59.000Z</time>
      </trkpt>
      <trkpt lat="43.51022" lon="6.37831">
        <ele>269</ele>
        <time>2022-01-21T15:22:00.000Z</time>
      </trkpt>
      <trkpt lat="43.51022" lon="6.37832">
        <ele>270</ele>
        <time>2022-01-21T15:22:01.000Z</time>
      </trkpt>
      <trkpt lat="43.51022" lon="6.37833">
        <ele>269</ele>
        <time>2022-01-21T15:22:02.000Z</time>
      </trkpt>
      <trkpt lat="43.51022" lon="6.37834">
        <ele>269</ele>
        <time>2022-01-21T15:22:03.000Z</time>
      </trkpt>
      <trkpt lat="43.51022" lon="6.37836">
        <ele>270</ele>
        <time>2022-01-21T15:22:04.000Z</time>
      </trkpt>
      <trkpt lat="43.51022" lon="6.37838">
        <ele>269</ele>
        <time>2022-01-21T15:22:05.000Z</time>
      </trkpt>
      <trkpt lat="43.51022" lon="6.37839">
        <ele>269</ele>
        <time>2022-01-21T15:22:06.000Z</time>
      </trkpt>
      <trkpt lat="43.51022" lon="6.3784">
        <ele>269</ele>
        <time>2022-01-21T15:22:07.000Z</time>
      </trkpt>
      <trkpt lat="43.51023" lon="6.37841">
        <ele>269</ele>
        <time>2022-01-21T15:22:08.000Z</time>
      </trkpt>
      <trkpt lat="43.51023" lon="6.37842">
        <ele>269</ele>
        <time>2022-01-21T15:22:09.000Z</time>
      </trkpt>
      <trkpt lat="43.51023" lon="6.37843">
        <ele>269</ele>
        <time>2022-01-21T15:22:10.000Z</time>
      </trkpt>
      <trkpt lat="43.51023" lon="6.37844">
        <ele>269</ele>
        <time>2022-01-21T15:22:11.000Z</time>
      </trkpt>
      <trkpt lat="43.51023" lon="6.37845">
        <ele>269</ele>
        <time>2022-01-21T15:22:12.000Z</time>
      </trkpt>
      <trkpt lat="43.51023" lon="6.37845">
        <ele>269</ele>
        <time>2022-01-21T15:22:13.000Z</time>
      </trkpt>
      <trkpt lat="43.51023" lon="6.37846">
        <ele>269</ele>
        <time>2022-01-21T15:22:14.000Z</time>
      </trkpt>
      <trkpt lat="43.51023" lon="6.37846">
        <ele>269</ele>
        <time>2022-01-21T15:22:15.000Z</time>
      </trkpt>
      <trkpt lat="43.51023" lon="6.37846">
        <ele>269</ele>
        <time>2022-01-21T15:22:16.000Z</time>
      </trkpt>
      <trkpt lat="43.51023" lon="6.37847">
        <ele>269</ele>
        <time>2022-01-21T15:22:17.000Z</time>
      </trkpt>
      <trkpt lat="43.51023" lon="6.37847">
        <ele>269</ele>
        <time>2022-01-21T15:22:18.000Z</time>
      </trkpt>
      <trkpt lat="43.51023" lon="6.37847">
        <ele>269</ele>
        <time>2022-01-21T15:22:19.000Z</time>
      </trkpt>
      <trkpt lat="43.51023" lon="6.37848">
        <ele>269</ele>
        <time>2022-01-21T15:22:20.000Z</time>
      </trkpt>
      <trkpt lat="43.51023" lon="6.37848">
        <ele>269</ele>
        <time>2022-01-21T15:22:21.000Z</time>
      </trkpt>
      <trkpt lat="43.51023" lon="6.37848">
        <ele>269</ele>
        <time>2022-01-21T15:22:22.000Z</time>
      </trkpt>
      <trkpt lat="43.51023" lon="6.37848">
        <ele>269</ele>
        <time>2022-01-21T15:22:23.000Z</time>
      </trkpt>
      <trkpt lat="43.51023" lon="6.37848">
        <ele>269</ele>
        <time>2022-01-21T15:22:24.000Z</time>
      </trkpt>
      <trkpt lat="43.51023" lon="6.37849">
        <ele>269</ele>
        <time>2022-01-21T15:22:25.000Z</time>
      </trkpt>
      <trkpt lat="43.51023" lon="6.37849">
        <ele>269</ele>
        <time>2022-01-21T15:22:26.000Z</time>
      </trkpt>
      <trkpt lat="43.51023" lon="6.37849">
        <ele>269</ele>
        <time>2022-01-21T15:22:27.000Z</time>
      </trkpt>
      <trkpt lat="43.51023" lon="6.37849">
        <ele>269</ele>
        <time>2022-01-21T15:22:28.000Z</time>
      </trkpt>
      <trkpt lat="43.51023" lon="6.37849">
        <ele>269</ele>
        <time>2022-01-21T15:22:29.000Z</time>
      </trkpt>
      <trkpt lat="43.51023" lon="6.37849">
        <ele>269</ele>
        <time>2022-01-21T15:22:30.000Z</time>
      </trkpt>
      <trkpt lat="43.51023" lon="6.37849">
        <ele>269</ele>
        <time>2022-01-21T15:22:31.000Z</time>
      </trkpt>
      <trkpt lat="43.51023" lon="6.37849">
        <ele>269</ele>
        <time>2022-01-21T15:22:32.000Z</time>
      </trkpt>
      <trkpt lat="43.51023" lon="6.37849">
        <ele>269</ele>
        <time>2022-01-21T15:22:33.000Z</time>
      </trkpt>
      <trkpt lat="43.51023" lon="6.37849">
        <ele>269</ele>
        <time>2022-01-21T15:22:34.000Z</time>
      </trkpt>
      <trkpt lat="43.51023" lon="6.37849">
        <ele>269</ele>
        <time>2022-01-21T15:22:35.000Z</time>
      </trkpt>
      <trkpt lat="43.51023" lon="6.37849">
        <ele>269</ele>
        <time>2022-01-21T15:22:36.000Z</time>
      </trkpt>
      <trkpt lat="43.51023" lon="6.37849">
        <ele>269</ele>
        <time>2022-01-21T15:22:37.000Z</time>
      </trkpt>
      <trkpt lat="43.51023" lon="6.37849">
        <ele>269</ele>
        <time>2022-01-21T15:22:38.000Z</time>
      </trkpt>
      <trkpt lat="43.51023" lon="6.37849">
        <ele>269</ele>
        <time>2022-01-21T15:22:39.000Z</time>
      </trkpt>
      <trkpt lat="43.51023" lon="6.37849">
        <ele>269</ele>
        <time>2022-01-21T15:22:40.000Z</time>
      </trkpt>
      <trkpt lat="43.51023" lon="6.37849">
        <ele>269</ele>
        <time>2022-01-21T15:22:41.000Z</time>
      </trkpt>
      <trkpt lat="43.51023" lon="6.37849">
        <ele>269</ele>
        <time>2022-01-21T15:22:42.000Z</time>
      </trkpt>
      <trkpt lat="43.51023" lon="6.37849">
        <ele>269</ele>
        <time>2022-01-21T15:22:43.000Z</time>
      </trkpt>
      <trkpt lat="43.51023" lon="6.37849">
        <ele>269</ele>
        <time>2022-01-21T15:22:44.000Z</time>
      </trkpt>
      <trkpt lat="43.51023" lon="6.37849">
        <ele>269</ele>
        <time>2022-01-21T15:22:45.000Z</time>
      </trkpt>
      <trkpt lat="43.51023" lon="6.37849">
        <ele>269</ele>
        <time>2022-01-21T15:22:46.000Z</time>
      </trkpt>
      <trkpt lat="43.51023" lon="6.37849">
        <ele>269</ele>
        <time>2022-01-21T15:22:47.000Z</time>
      </trkpt>
      <trkpt lat="43.51023" lon="6.37849">
        <ele>269</ele>
        <time>2022-01-21T15:22:48.000Z</time>
      </trkpt>
      <trkpt lat="43.51023" lon="6.37849">
        <ele>269</ele>
        <time>2022-01-21T15:22:49.000Z</time>
      </trkpt>
      <trkpt lat="43.51023" lon="6.37849">
        <ele>269</ele>
        <time>2022-01-21T15:22:50.000Z</time>
      </trkpt>
      <trkpt lat="43.51023" lon="6.3785">
        <ele>269</ele>
        <time>2022-01-21T15:22:51.000Z</time>
      </trkpt>
      <trkpt lat="43.51023" lon="6.3785">
        <ele>269</ele>
        <time>2022-01-21T15:22:52.000Z</time>
      </trkpt>
      <trkpt lat="43.51023" lon="6.37851">
        <ele>269</ele>
        <time>2022-01-21T15:22:53.000Z</time>
      </trkpt>
      <trkpt lat="43.51023" lon="6.37852">
        <ele>269</ele>
        <time>2022-01-21T15:22:54.000Z</time>
      </trkpt>
      <trkpt lat="43.51023" lon="6.37853">
        <ele>269</ele>
        <time>2022-01-21T15:22:55.000Z</time>
      </trkpt>
      <trkpt lat="43.51023" lon="6.37853">
        <ele>269</ele>
        <time>2022-01-21T15:22:56.000Z</time>
      </trkpt>
      <trkpt lat="43.51023" lon="6.37854">
        <ele>269</ele>
        <time>2022-01-21T15:22:57.000Z</time>
      </trkpt>
      <trkpt lat="43.51023" lon="6.37854">
        <ele>269</ele>
        <time>2022-01-21T15:22:58.000Z</time>
      </trkpt>
      <trkpt lat="43.51023" lon="6.37854">
        <ele>269</ele>
        <time>2022-01-21T15:22:59.000Z</time>
      </trkpt>
      <trkpt lat="43.51023" lon="6.37855">
        <ele>269</ele>
        <time>2022-01-21T15:23:00.000Z</time>
      </trkpt>
      <trkpt lat="43.51023" lon="6.37855">
        <ele>269</ele>
        <time>2022-01-21T15:23:01.000Z</time>
      </trkpt>
      <trkpt lat="43.51023" lon="6.37855">
        <ele>269</ele>
        <time>2022-01-21T15:23:02.000Z</time>
      </trkpt>
      <trkpt lat="43.51023" lon="6.37855">
        <ele>269</ele>
        <time>2022-01-21T15:23:03.000Z</time>
      </trkpt>
      <trkpt lat="43.51023" lon="6.37855">
        <ele>269</ele>
        <time>2022-01-21T15:23:04.000Z</time>
      </trkpt>
      <trkpt lat="43.51023" lon="6.37855">
        <ele>269</ele>
        <time>2022-01-21T15:23:05.000Z</time>
      </trkpt>
      <trkpt lat="43.51023" lon="6.37856">
        <ele>269</ele>
        <time>2022-01-21T15:23:06.000Z</time>
      </trkpt>
      <trkpt lat="43.51023" lon="6.37856">
        <ele>269</ele>
        <time>2022-01-21T15:23:07.000Z</time>
      </trkpt>
      <trkpt lat="43.51023" lon="6.37857">
        <ele>269</ele>
        <time>2022-01-21T15:23:08.000Z</time>
      </trkpt>
      <trkpt lat="43.51023" lon="6.37858">
        <ele>269</ele>
        <time>2022-01-21T15:23:09.000Z</time>
      </trkpt>
      <trkpt lat="43.51022" lon="6.3786">
        <ele>269</ele>
        <time>2022-01-21T15:23:10.000Z</time>
      </trkpt>
      <trkpt lat="43.51022" lon="6.37861">
        <ele>269</ele>
        <time>2022-01-21T15:23:11.000Z</time>
      </trkpt>
      <trkpt lat="43.51022" lon="6.37862">
        <ele>269</ele>
        <time>2022-01-21T15:23:12.000Z</time>
      </trkpt>
      <trkpt lat="43.51022" lon="6.37864">
        <ele>269</ele>
        <time>2022-01-21T15:23:13.000Z</time>
      </trkpt>
      <trkpt lat="43.51022" lon="6.37865">
        <ele>269</ele>
        <time>2022-01-21T15:23:14.000Z</time>
      </trkpt>
      <trkpt lat="43.51023" lon="6.37867">
        <ele>269</ele>
        <time>2022-01-21T15:23:15.000Z</time>
      </trkpt>
      <trkpt lat="43.51023" lon="6.37869">
        <ele>269</ele>
        <time>2022-01-21T15:23:16.000Z</time>
      </trkpt>
      <trkpt lat="43.51023" lon="6.37871">
        <ele>269</ele>
        <time>2022-01-21T15:23:17.000Z</time>
      </trkpt>
      <trkpt lat="43.51023" lon="6.37874">
        <ele>269</ele>
        <time>2022-01-21T15:23:18.000Z</time>
      </trkpt>
      <trkpt lat="43.51023" lon="6.37876">
        <ele>269</ele>
        <time>2022-01-21T15:23:19.000Z</time>
      </trkpt>
      <trkpt lat="43.51023" lon="6.37878">
        <ele>268</ele>
        <time>2022-01-21T15:23:20.000Z</time>
      </trkpt>
      <trkpt lat="43.51023" lon="6.37879">
        <ele>268</ele>
        <time>2022-01-21T15:23:21.000Z</time>
      </trkpt>
      <trkpt lat="43.51023" lon="6.3788">
        <ele>267</ele>
        <time>2022-01-21T15:23:22.000Z</time>
      </trkpt>
      <trkpt lat="43.51023" lon="6.37882">
        <ele>267</ele>
        <time>2022-01-21T15:23:23.000Z</time>
      </trkpt>
      <trkpt lat="43.51023" lon="6.37884">
        <ele>267</ele>
        <time>2022-01-21T15:23:24.000Z</time>
      </trkpt>
      <trkpt lat="43.51024" lon="6.37886">
        <ele>267</ele>
        <time>2022-01-21T15:23:25.000Z</time>
      </trkpt>
      <trkpt lat="43.51024" lon="6.37888">
        <ele>267</ele>
        <time>2022-01-21T15:23:26.000Z</time>
      </trkpt>
      <trkpt lat="43.51024" lon="6.37889">
        <ele>266</ele>
        <time>2022-01-21T15:23:27.000Z</time>
      </trkpt>
      <trkpt lat="43.51024" lon="6.37891">
        <ele>266</ele>
        <time>2022-01-21T15:23:28.000Z</time>
      </trkpt>
      <trkpt lat="43.51024" lon="6.37892">
        <ele>265</ele>
        <time>2022-01-21T15:23:29.000Z</time>
      </trkpt>
      <trkpt lat="43.51024" lon="6.37893">
        <ele>265</ele>
        <time>2022-01-21T15:23:30.000Z</time>
      </trkpt>
      <trkpt lat="43.51024" lon="6.37894">
        <ele>265</ele>
        <time>2022-01-21T15:23:31.000Z</time>
      </trkpt>
      <trkpt lat="43.51024" lon="6.37895">
        <ele>265</ele>
        <time>2022-01-21T15:23:32.000Z</time>
      </trkpt>
      <trkpt lat="43.51024" lon="6.37896">
        <ele>265</ele>
        <time>2022-01-21T15:23:33.000Z</time>
      </trkpt>
      <trkpt lat="43.51024" lon="6.37897">
        <ele>265</ele>
        <time>2022-01-21T15:23:34.000Z</time>
      </trkpt>
      <trkpt lat="43.51024" lon="6.37899">
        <ele>264</ele>
        <time>2022-01-21T15:23:35.000Z</time>
      </trkpt>
      <trkpt lat="43.51023" lon="6.37901">
        <ele>264</ele>
        <time>2022-01-21T15:23:36.000Z</time>
      </trkpt>
      <trkpt lat="43.51023" lon="6.37903">
        <ele>264</ele>
        <time>2022-01-21T15:23:37.000Z</time>
      </trkpt>
      <trkpt lat="43.51023" lon="6.37905">
        <ele>264</ele>
        <time>2022-01-21T15:23:38.000Z</time>
      </trkpt>
      <trkpt lat="43.51022" lon="6.37906">
        <ele>264</ele>
        <time>2022-01-21T15:23:39.000Z</time>
      </trkpt>
      <trkpt lat="43.51022" lon="6.37908">
        <ele>264</ele>
        <time>2022-01-21T15:23:40.000Z</time>
      </trkpt>
      <trkpt lat="43.51022" lon="6.37909">
        <ele>263</ele>
        <time>2022-01-21T15:23:41.000Z</time>
      </trkpt>
      <trkpt lat="43.51022" lon="6.37909">
        <ele>262</ele>
        <time>2022-01-21T15:23:42.000Z</time>
      </trkpt>
      <trkpt lat="43.51022" lon="6.3791">
        <ele>262</ele>
        <time>2022-01-21T15:23:43.000Z</time>
      </trkpt>
      <trkpt lat="43.51021" lon="6.37911">
        <ele>262</ele>
        <time>2022-01-21T15:23:44.000Z</time>
      </trkpt>
      <trkpt lat="43.51021" lon="6.37911">
        <ele>262</ele>
        <time>2022-01-21T15:23:45.000Z</time>
      </trkpt>
      <trkpt lat="43.51021" lon="6.37913">
        <ele>262</ele>
        <time>2022-01-21T15:23:46.000Z</time>
      </trkpt>
      <trkpt lat="43.51021" lon="6.37915">
        <ele>262</ele>
        <time>2022-01-21T15:23:47.000Z</time>
      </trkpt>
      <trkpt lat="43.51021" lon="6.37916">
        <ele>262</ele>
        <time>2022-01-21T15:23:48.000Z</time>
      </trkpt>
      <trkpt lat="43.51021" lon="6.37917">
        <ele>262</ele>
        <time>2022-01-21T15:23:49.000Z</time>
      </trkpt>
      <trkpt lat="43.51021" lon="6.37918">
        <ele>262</ele>
        <time>2022-01-21T15:23:50.000Z</time>
      </trkpt>
      <trkpt lat="43.5102" lon="6.37919">
        <ele>262</ele>
        <time>2022-01-21T15:23:51.000Z</time>
      </trkpt>
      <trkpt lat="43.5102" lon="6.3792">
        <ele>262</ele>
        <time>2022-01-21T15:23:52.000Z</time>
      </trkpt>
      <trkpt lat="43.5102" lon="6.37921">
        <ele>262</ele>
        <time>2022-01-21T15:23:53.000Z</time>
      </trkpt>
      <trkpt lat="43.5102" lon="6.37921">
        <ele>262</ele>
        <time>2022-01-21T15:23:54.000Z</time>
      </trkpt>
      <trkpt lat="43.5102" lon="6.37922">
        <ele>261</ele>
        <time>2022-01-21T15:23:55.000Z</time>
      </trkpt>
      <trkpt lat="43.5102" lon="6.37923">
        <ele>261</ele>
        <time>2022-01-21T15:23:56.000Z</time>
      </trkpt>
      <trkpt lat="43.5102" lon="6.37924">
        <ele>261</ele>
        <time>2022-01-21T15:23:57.000Z</time>
      </trkpt>
      <trkpt lat="43.5102" lon="6.37925">
        <ele>261</ele>
        <time>2022-01-21T15:23:58.000Z</time>
      </trkpt>
      <trkpt lat="43.5102" lon="6.37925">
        <ele>261</ele>
        <time>2022-01-21T15:23:59.000Z</time>
      </trkpt>
      <trkpt lat="43.5102" lon="6.37926">
        <ele>261</ele>
        <time>2022-01-21T15:24:00.000Z</time>
      </trkpt>
      <trkpt lat="43.5102" lon="6.37926">
        <ele>261</ele>
        <time>2022-01-21T15:24:01.000Z</time>
      </trkpt>
      <trkpt lat="43.5102" lon="6.37927">
        <ele>261</ele>
        <time>2022-01-21T15:24:02.000Z</time>
      </trkpt>
      <trkpt lat="43.51019" lon="6.37928">
        <ele>261</ele>
        <time>2022-01-21T15:24:03.000Z</time>
      </trkpt>
      <trkpt lat="43.51019" lon="6.37929">
        <ele>261</ele>
        <time>2022-01-21T15:24:04.000Z</time>
      </trkpt>
      <trkpt lat="43.51019" lon="6.3793">
        <ele>261</ele>
        <time>2022-01-21T15:24:05.000Z</time>
      </trkpt>
      <trkpt lat="43.51018" lon="6.37932">
        <ele>261</ele>
        <time>2022-01-21T15:24:06.000Z</time>
      </trkpt>
      <trkpt lat="43.51017" lon="6.37934">
        <ele>261</ele>
        <time>2022-01-21T15:24:07.000Z</time>
      </trkpt>
      <trkpt lat="43.51017" lon="6.37937">
        <ele>261</ele>
        <time>2022-01-21T15:24:08.000Z</time>
      </trkpt>
      <trkpt lat="43.51016" lon="6.37938">
        <ele>261</ele>
        <time>2022-01-21T15:24:09.000Z</time>
      </trkpt>
      <trkpt lat="43.51016" lon="6.3794">
        <ele>261</ele>
        <time>2022-01-21T15:24:10.000Z</time>
      </trkpt>
      <trkpt lat="43.51016" lon="6.37943">
        <ele>260</ele>
        <time>2022-01-21T15:24:11.000Z</time>
      </trkpt>
      <trkpt lat="43.51015" lon="6.37945">
        <ele>260</ele>
        <time>2022-01-21T15:24:12.000Z</time>
      </trkpt>
      <trkpt lat="43.51015" lon="6.37947">
        <ele>260</ele>
        <time>2022-01-21T15:24:13.000Z</time>
      </trkpt>
      <trkpt lat="43.51015" lon="6.37948">
        <ele>259</ele>
        <time>2022-01-21T15:24:14.000Z</time>
      </trkpt>
      <trkpt lat="43.51015" lon="6.3795">
        <ele>259</ele>
        <time>2022-01-21T15:24:15.000Z</time>
      </trkpt>
      <trkpt lat="43.51015" lon="6.37952">
        <ele>259</ele>
        <time>2022-01-21T15:24:16.000Z</time>
      </trkpt>
      <trkpt lat="43.51015" lon="6.37954">
        <ele>259</ele>
        <time>2022-01-21T15:24:17.000Z</time>
      </trkpt>
      <trkpt lat="43.51015" lon="6.37956">
        <ele>258</ele>
        <time>2022-01-21T15:24:18.000Z</time>
      </trkpt>
      <trkpt lat="43.51015" lon="6.37957">
        <ele>258</ele>
        <time>2022-01-21T15:24:19.000Z</time>
      </trkpt>
      <trkpt lat="43.51015" lon="6.37959">
        <ele>257</ele>
        <time>2022-01-21T15:24:20.000Z</time>
      </trkpt>
      <trkpt lat="43.51015" lon="6.37961">
        <ele>257</ele>
        <time>2022-01-21T15:24:21.000Z</time>
      </trkpt>
      <trkpt lat="43.51015" lon="6.37963">
        <ele>257</ele>
        <time>2022-01-21T15:24:22.000Z</time>
      </trkpt>
      <trkpt lat="43.51015" lon="6.37966">
        <ele>257</ele>
        <time>2022-01-21T15:24:23.000Z</time>
      </trkpt>
      <trkpt lat="43.51015" lon="6.37968">
        <ele>256</ele>
        <time>2022-01-21T15:24:24.000Z</time>
      </trkpt>
      <trkpt lat="43.51015" lon="6.37971">
        <ele>256</ele>
        <time>2022-01-21T15:24:25.000Z</time>
      </trkpt>
      <trkpt lat="43.51015" lon="6.37973">
        <ele>256</ele>
        <time>2022-01-21T15:24:26.000Z</time>
      </trkpt>
      <trkpt lat="43.51015" lon="6.37975">
        <ele>256</ele>
        <time>2022-01-21T15:24:27.000Z</time>
      </trkpt>
      <trkpt lat="43.51014" lon="6.37976">
        <ele>256</ele>
        <time>2022-01-21T15:24:28.000Z</time>
      </trkpt>
      <trkpt lat="43.51014" lon="6.37978">
        <ele>256</ele>
        <time>2022-01-21T15:24:29.000Z</time>
      </trkpt>
      <trkpt lat="43.51014" lon="6.3798">
        <ele>255</ele>
        <time>2022-01-21T15:24:30.000Z</time>
      </trkpt>
      <trkpt lat="43.51013" lon="6.37981">
        <ele>255</ele>
        <time>2022-01-21T15:24:31.000Z</time>
      </trkpt>
      <trkpt lat="43.51012" lon="6.37983">
        <ele>255</ele>
        <time>2022-01-21T15:24:32.000Z</time>
      </trkpt>
      <trkpt lat="43.51011" lon="6.37984">
        <ele>256</ele>
        <time>2022-01-21T15:24:33.000Z</time>
      </trkpt>
      <trkpt lat="43.51011" lon="6.37986">
        <ele>256</ele>
        <time>2022-01-21T15:24:34.000Z</time>
      </trkpt>
      <trkpt lat="43.5101" lon="6.37987">
        <ele>256</ele>
        <time>2022-01-21T15:24:35.000Z</time>
      </trkpt>
      <trkpt lat="43.51009" lon="6.37988">
        <ele>256</ele>
        <time>2022-01-21T15:24:36.000Z</time>
      </trkpt>
      <trkpt lat="43.51008" lon="6.37988">
        <ele>256</ele>
        <time>2022-01-21T15:24:37.000Z</time>
      </trkpt>
      <trkpt lat="43.51007" lon="6.37989">
        <ele>256</ele>
        <time>2022-01-21T15:24:38.000Z</time>
      </trkpt>
      <trkpt lat="43.51006" lon="6.3799">
        <ele>256</ele>
        <time>2022-01-21T15:24:39.000Z</time>
      </trkpt>
      <trkpt lat="43.51006" lon="6.37991">
        <ele>256</ele>
        <time>2022-01-21T15:24:40.000Z</time>
      </trkpt>
      <trkpt lat="43.51005" lon="6.37991">
        <ele>256</ele>
        <time>2022-01-21T15:24:41.000Z</time>
      </trkpt>
      <trkpt lat="43.51004" lon="6.37992">
        <ele>256</ele>
        <time>2022-01-21T15:24:42.000Z</time>
      </trkpt>
      <trkpt lat="43.51003" lon="6.37993">
        <ele>257</ele>
        <time>2022-01-21T15:24:43.000Z</time>
      </trkpt>
      <trkpt lat="43.51002" lon="6.37993">
        <ele>257</ele>
        <time>2022-01-21T15:24:44.000Z</time>
      </trkpt>
      <trkpt lat="43.51002" lon="6.37994">
        <ele>257</ele>
        <time>2022-01-21T15:24:45.000Z</time>
      </trkpt>
      <trkpt lat="43.51001" lon="6.37994">
        <ele>257</ele>
        <time>2022-01-21T15:24:46.000Z</time>
      </trkpt>
      <trkpt lat="43.51" lon="6.37994">
        <ele>257</ele>
        <time>2022-01-21T15:24:47.000Z</time>
      </trkpt>
      <trkpt lat="43.50999" lon="6.37994">
        <ele>257</ele>
        <time>2022-01-21T15:24:48.000Z</time>
      </trkpt>
      <trkpt lat="43.50997" lon="6.37993">
        <ele>257</ele>
        <time>2022-01-21T15:24:49.000Z</time>
      </trkpt>
      <trkpt lat="43.50996" lon="6.37993">
        <ele>257</ele>
        <time>2022-01-21T15:24:50.000Z</time>
      </trkpt>
      <trkpt lat="43.50995" lon="6.37993">
        <ele>257</ele>
        <time>2022-01-21T15:24:51.000Z</time>
      </trkpt>
      <trkpt lat="43.50994" lon="6.37993">
        <ele>257</ele>
        <time>2022-01-21T15:24:52.000Z</time>
      </trkpt>
      <trkpt lat="43.50993" lon="6.37993">
        <ele>257</ele>
        <time>2022-01-21T15:24:53.000Z</time>
      </trkpt>
      <trkpt lat="43.50992" lon="6.37994">
        <ele>257</ele>
        <time>2022-01-21T15:24:54.000Z</time>
      </trkpt>
      <trkpt lat="43.50991" lon="6.37994">
        <ele>257</ele>
        <time>2022-01-21T15:24:55.000Z</time>
      </trkpt>
      <trkpt lat="43.5099" lon="6.37994">
        <ele>257</ele>
        <time>2022-01-21T15:24:56.000Z</time>
      </trkpt>
      <trkpt lat="43.50989" lon="6.37994">
        <ele>257</ele>
        <time>2022-01-21T15:24:57.000Z</time>
      </trkpt>
      <trkpt lat="43.50989" lon="6.37995">
        <ele>257</ele>
        <time>2022-01-21T15:24:58.000Z</time>
      </trkpt>
      <trkpt lat="43.50988" lon="6.37995">
        <ele>257</ele>
        <time>2022-01-21T15:24:59.000Z</time>
      </trkpt>
      <trkpt lat="43.50987" lon="6.37995">
        <ele>257</ele>
        <time>2022-01-21T15:25:00.000Z</time>
      </trkpt>
      <trkpt lat="43.50987" lon="6.37995">
        <ele>257</ele>
        <time>2022-01-21T15:25:01.000Z</time>
      </trkpt>
      <trkpt lat="43.50986" lon="6.37995">
        <ele>257</ele>
        <time>2022-01-21T15:25:02.000Z</time>
      </trkpt>
      <trkpt lat="43.50986" lon="6.37996">
        <ele>257</ele>
        <time>2022-01-21T15:25:03.000Z</time>
      </trkpt>
      <trkpt lat="43.50985" lon="6.37996">
        <ele>257</ele>
        <time>2022-01-21T15:25:04.000Z</time>
      </trkpt>
      <trkpt lat="43.50984" lon="6.37996">
        <ele>257</ele>
        <time>2022-01-21T15:25:05.000Z</time>
      </trkpt>
      <trkpt lat="43.50983" lon="6.37997">
        <ele>258</ele>
        <time>2022-01-21T15:25:06.000Z</time>
      </trkpt>
      <trkpt lat="43.50982" lon="6.37997">
        <ele>258</ele>
        <time>2022-01-21T15:25:07.000Z</time>
      </trkpt>
      <trkpt lat="43.50981" lon="6.37997">
        <ele>258</ele>
        <time>2022-01-21T15:25:08.000Z</time>
      </trkpt>
      <trkpt lat="43.5098" lon="6.37998">
        <ele>258</ele>
        <time>2022-01-21T15:25:09.000Z</time>
      </trkpt>
      <trkpt lat="43.50978" lon="6.37998">
        <ele>258</ele>
        <time>2022-01-21T15:25:10.000Z</time>
      </trkpt>
      <trkpt lat="43.50976" lon="6.37998">
        <ele>258</ele>
        <time>2022-01-21T15:25:11.000Z</time>
      </trkpt>
      <trkpt lat="43.50974" lon="6.37999">
        <ele>258</ele>
        <time>2022-01-21T15:25:12.000Z</time>
      </trkpt>
      <trkpt lat="43.50972" lon="6.37999">
        <ele>258</ele>
        <time>2022-01-21T15:25:13.000Z</time>
      </trkpt>
      <trkpt lat="43.50971" lon="6.38">
        <ele>258</ele>
        <time>2022-01-21T15:25:14.000Z</time>
      </trkpt>
      <trkpt lat="43.50969" lon="6.38">
        <ele>259</ele>
        <time>2022-01-21T15:25:15.000Z</time>
      </trkpt>
      <trkpt lat="43.50968" lon="6.38001">
        <ele>259</ele>
        <time>2022-01-21T15:25:16.000Z</time>
      </trkpt>
      <trkpt lat="43.50967" lon="6.38002">
        <ele>259</ele>
        <time>2022-01-21T15:25:17.000Z</time>
      </trkpt>
      <trkpt lat="43.50966" lon="6.38002">
        <ele>260</ele>
        <time>2022-01-21T15:25:18.000Z</time>
      </trkpt>
      <trkpt lat="43.50964" lon="6.38003">
        <ele>260</ele>
        <time>2022-01-21T15:25:19.000Z</time>
      </trkpt>
      <trkpt lat="43.50963" lon="6.38003">
        <ele>260</ele>
        <time>2022-01-21T15:25:20.000Z</time>
      </trkpt>
      <trkpt lat="43.50962" lon="6.38004">
        <ele>260</ele>
        <time>2022-01-21T15:25:21.000Z</time>
      </trkpt>
      <trkpt lat="43.5096" lon="6.38004">
        <ele>260</ele>
        <time>2022-01-21T15:25:22.000Z</time>
      </trkpt>
      <trkpt lat="43.50959" lon="6.38004">
        <ele>260</ele>
        <time>2022-01-21T15:25:23.000Z</time>
      </trkpt>
      <trkpt lat="43.50958" lon="6.38004">
        <ele>260</ele>
        <time>2022-01-21T15:25:24.000Z</time>
      </trkpt>
      <trkpt lat="43.50956" lon="6.38004">
        <ele>260</ele>
        <time>2022-01-21T15:25:25.000Z</time>
      </trkpt>
      <trkpt lat="43.50955" lon="6.38004">
        <ele>260</ele>
        <time>2022-01-21T15:25:26.000Z</time>
      </trkpt>
      <trkpt lat="43.50953" lon="6.38004">
        <ele>260</ele>
        <time>2022-01-21T15:25:27.000Z</time>
      </trkpt>
      <trkpt lat="43.50952" lon="6.38004">
        <ele>260</ele>
        <time>2022-01-21T15:25:28.000Z</time>
      </trkpt>
      <trkpt lat="43.5095" lon="6.38004">
        <ele>260</ele>
        <time>2022-01-21T15:25:29.000Z</time>
      </trkpt>
      <trkpt lat="43.50949" lon="6.38004">
        <ele>260</ele>
        <time>2022-01-21T15:25:30.000Z</time>
      </trkpt>
      <trkpt lat="43.50948" lon="6.38005">
        <ele>260</ele>
        <time>2022-01-21T15:25:31.000Z</time>
      </trkpt>
      <trkpt lat="43.50947" lon="6.38005">
        <ele>260</ele>
        <time>2022-01-21T15:25:32.000Z</time>
      </trkpt>
      <trkpt lat="43.50947" lon="6.38004">
        <ele>260</ele>
        <time>2022-01-21T15:25:33.000Z</time>
      </trkpt>
      <trkpt lat="43.50947" lon="6.38004">
        <ele>260</ele>
        <time>2022-01-21T15:25:34.000Z</time>
      </trkpt>
      <trkpt lat="43.50947" lon="6.38003">
        <ele>260</ele>
        <time>2022-01-21T15:25:35.000Z</time>
      </trkpt>
      <trkpt lat="43.50947" lon="6.38003">
        <ele>260</ele>
        <time>2022-01-21T15:25:36.000Z</time>
      </trkpt>
      <trkpt lat="43.50947" lon="6.38003">
        <ele>260</ele>
        <time>2022-01-21T15:25:37.000Z</time>
      </trkpt>
      <trkpt lat="43.50947" lon="6.38002">
        <ele>260</ele>
        <time>2022-01-21T15:25:38.000Z</time>
      </trkpt>
      <trkpt lat="43.50947" lon="6.38002">
        <ele>260</ele>
        <time>2022-01-21T15:25:39.000Z</time>
      </trkpt>
      <trkpt lat="43.50947" lon="6.38002">
        <ele>260</ele>
        <time>2022-01-21T15:25:40.000Z</time>
      </trkpt>
      <trkpt lat="43.50947" lon="6.38002">
        <ele>260</ele>
        <time>2022-01-21T15:25:41.000Z</time>
      </trkpt>
      <trkpt lat="43.50947" lon="6.38002">
        <ele>260</ele>
        <time>2022-01-21T15:25:42.000Z</time>
      </trkpt>
      <trkpt lat="43.50946" lon="6.38003">
        <ele>260</ele>
        <time>2022-01-21T15:25:43.000Z</time>
      </trkpt>
      <trkpt lat="43.50946" lon="6.38004">
        <ele>260</ele>
        <time>2022-01-21T15:25:44.000Z</time>
      </trkpt>
      <trkpt lat="43.50945" lon="6.38005">
        <ele>260</ele>
        <time>2022-01-21T15:25:45.000Z</time>
      </trkpt>
      <trkpt lat="43.50944" lon="6.38005">
        <ele>260</ele>
        <time>2022-01-21T15:25:46.000Z</time>
      </trkpt>
      <trkpt lat="43.50943" lon="6.38005">
        <ele>260</ele>
        <time>2022-01-21T15:25:47.000Z</time>
      </trkpt>
      <trkpt lat="43.50942" lon="6.38005">
        <ele>260</ele>
        <time>2022-01-21T15:25:48.000Z</time>
      </trkpt>
      <trkpt lat="43.50941" lon="6.38006">
        <ele>260</ele>
        <time>2022-01-21T15:25:49.000Z</time>
      </trkpt>
      <trkpt lat="43.5094" lon="6.38005">
        <ele>260</ele>
        <time>2022-01-21T15:25:50.000Z</time>
      </trkpt>
      <trkpt lat="43.50939" lon="6.38005">
        <ele>260</ele>
        <time>2022-01-21T15:25:51.000Z</time>
      </trkpt>
      <trkpt lat="43.50937" lon="6.38005">
        <ele>260</ele>
        <time>2022-01-21T15:25:52.000Z</time>
      </trkpt>
      <trkpt lat="43.50936" lon="6.38005">
        <ele>260</ele>
        <time>2022-01-21T15:25:53.000Z</time>
      </trkpt>
      <trkpt lat="43.50934" lon="6.38005">
        <ele>260</ele>
        <time>2022-01-21T15:25:54.000Z</time>
      </trkpt>
      <trkpt lat="43.50933" lon="6.38005">
        <ele>260</ele>
        <time>2022-01-21T15:25:55.000Z</time>
      </trkpt>
      <trkpt lat="43.50932" lon="6.38005">
        <ele>260</ele>
        <time>2022-01-21T15:25:56.000Z</time>
      </trkpt>
      <trkpt lat="43.50931" lon="6.38005">
        <ele>260</ele>
        <time>2022-01-21T15:25:57.000Z</time>
      </trkpt>
      <trkpt lat="43.5093" lon="6.38005">
        <ele>260</ele>
        <time>2022-01-21T15:25:58.000Z</time>
      </trkpt>
      <trkpt lat="43.5093" lon="6.38005">
        <ele>259</ele>
        <time>2022-01-21T15:25:59.000Z</time>
      </trkpt>
      <trkpt lat="43.5093" lon="6.38005">
        <ele>258</ele>
        <time>2022-01-21T15:26:00.000Z</time>
      </trkpt>
      <trkpt lat="43.50929" lon="6.38005">
        <ele>258</ele>
        <time>2022-01-21T15:26:01.000Z</time>
      </trkpt>
      <trkpt lat="43.50929" lon="6.38005">
        <ele>258</ele>
        <time>2022-01-21T15:26:02.000Z</time>
      </trkpt>
      <trkpt lat="43.50928" lon="6.38005">
        <ele>258</ele>
        <time>2022-01-21T15:26:03.000Z</time>
      </trkpt>
      <trkpt lat="43.50927" lon="6.38006">
        <ele>258</ele>
        <time>2022-01-21T15:26:04.000Z</time>
      </trkpt>
      <trkpt lat="43.50926" lon="6.38006">
        <ele>258</ele>
        <time>2022-01-21T15:26:05.000Z</time>
      </trkpt>
      <trkpt lat="43.50924" lon="6.38007">
        <ele>258</ele>
        <time>2022-01-21T15:26:06.000Z</time>
      </trkpt>
      <trkpt lat="43.50923" lon="6.38007">
        <ele>258</ele>
        <time>2022-01-21T15:26:07.000Z</time>
      </trkpt>
      <trkpt lat="43.5092" lon="6.38008">
        <ele>258</ele>
        <time>2022-01-21T15:26:08.000Z</time>
      </trkpt>
      <trkpt lat="43.50919" lon="6.38008">
        <ele>258</ele>
        <time>2022-01-21T15:26:09.000Z</time>
      </trkpt>
      <trkpt lat="43.50917" lon="6.38009">
        <ele>258</ele>
        <time>2022-01-21T15:26:10.000Z</time>
      </trkpt>
      <trkpt lat="43.50916" lon="6.3801">
        <ele>258</ele>
        <time>2022-01-21T15:26:11.000Z</time>
      </trkpt>
      <trkpt lat="43.50914" lon="6.3801">
        <ele>258</ele>
        <time>2022-01-21T15:26:12.000Z</time>
      </trkpt>
      <trkpt lat="43.50913" lon="6.3801">
        <ele>258</ele>
        <time>2022-01-21T15:26:13.000Z</time>
      </trkpt>
      <trkpt lat="43.50912" lon="6.38011">
        <ele>258</ele>
        <time>2022-01-21T15:26:14.000Z</time>
      </trkpt>
      <trkpt lat="43.50911" lon="6.38011">
        <ele>258</ele>
        <time>2022-01-21T15:26:15.000Z</time>
      </trkpt>
      <trkpt lat="43.5091" lon="6.38011">
        <ele>258</ele>
        <time>2022-01-21T15:26:16.000Z</time>
      </trkpt>
      <trkpt lat="43.5091" lon="6.38012">
        <ele>258</ele>
        <time>2022-01-21T15:26:17.000Z</time>
      </trkpt>
      <trkpt lat="43.50909" lon="6.38012">
        <ele>258</ele>
        <time>2022-01-21T15:26:18.000Z</time>
      </trkpt>
      <trkpt lat="43.50908" lon="6.38012">
        <ele>258</ele>
        <time>2022-01-21T15:26:19.000Z</time>
      </trkpt>
      <trkpt lat="43.50907" lon="6.38012">
        <ele>258</ele>
        <time>2022-01-21T15:26:20.000Z</time>
      </trkpt>
      <trkpt lat="43.50906" lon="6.38012">
        <ele>257</ele>
        <time>2022-01-21T15:26:21.000Z</time>
      </trkpt>
      <trkpt lat="43.50905" lon="6.38012">
        <ele>257</ele>
        <time>2022-01-21T15:26:22.000Z</time>
      </trkpt>
      <trkpt lat="43.50904" lon="6.38012">
        <ele>257</ele>
        <time>2022-01-21T15:26:23.000Z</time>
      </trkpt>
      <trkpt lat="43.50903" lon="6.38012">
        <ele>256</ele>
        <time>2022-01-21T15:26:24.000Z</time>
      </trkpt>
      <trkpt lat="43.50902" lon="6.38012">
        <ele>256</ele>
        <time>2022-01-21T15:26:25.000Z</time>
      </trkpt>
      <trkpt lat="43.50901" lon="6.38012">
        <ele>256</ele>
        <time>2022-01-21T15:26:26.000Z</time>
      </trkpt>
      <trkpt lat="43.50901" lon="6.38012">
        <ele>256</ele>
        <time>2022-01-21T15:26:27.000Z</time>
      </trkpt>
      <trkpt lat="43.509" lon="6.38012">
        <ele>256</ele>
        <time>2022-01-21T15:26:28.000Z</time>
      </trkpt>
      <trkpt lat="43.509" lon="6.38012">
        <ele>255</ele>
        <time>2022-01-21T15:26:29.000Z</time>
      </trkpt>
      <trkpt lat="43.50899" lon="6.38012">
        <ele>255</ele>
        <time>2022-01-21T15:26:30.000Z</time>
      </trkpt>
      <trkpt lat="43.50898" lon="6.38012">
        <ele>255</ele>
        <time>2022-01-21T15:26:31.000Z</time>
      </trkpt>
      <trkpt lat="43.50896" lon="6.38011">
        <ele>255</ele>
        <time>2022-01-21T15:26:32.000Z</time>
      </trkpt>
      <trkpt lat="43.50894" lon="6.38011">
        <ele>255</ele>
        <time>2022-01-21T15:26:33.000Z</time>
      </trkpt>
      <trkpt lat="43.50893" lon="6.3801">
        <ele>254</ele>
        <time>2022-01-21T15:26:34.000Z</time>
      </trkpt>
      <trkpt lat="43.50891" lon="6.3801">
        <ele>254</ele>
        <time>2022-01-21T15:26:35.000Z</time>
      </trkpt>
      <trkpt lat="43.5089" lon="6.38009">
        <ele>254</ele>
        <time>2022-01-21T15:26:36.000Z</time>
      </trkpt>
      <trkpt lat="43.50889" lon="6.38009">
        <ele>254</ele>
        <time>2022-01-21T15:26:37.000Z</time>
      </trkpt>
      <trkpt lat="43.50888" lon="6.38008">
        <ele>253</ele>
        <time>2022-01-21T15:26:38.000Z</time>
      </trkpt>
      <trkpt lat="43.50888" lon="6.38007">
        <ele>252</ele>
        <time>2022-01-21T15:26:39.000Z</time>
      </trkpt>
      <trkpt lat="43.50887" lon="6.38006">
        <ele>252</ele>
        <time>2022-01-21T15:26:40.000Z</time>
      </trkpt>
      <trkpt lat="43.50886" lon="6.38006">
        <ele>252</ele>
        <time>2022-01-21T15:26:41.000Z</time>
      </trkpt>
      <trkpt lat="43.50885" lon="6.38005">
        <ele>252</ele>
        <time>2022-01-21T15:26:42.000Z</time>
      </trkpt>
      <trkpt lat="43.50883" lon="6.38005">
        <ele>252</ele>
        <time>2022-01-21T15:26:43.000Z</time>
      </trkpt>
      <trkpt lat="43.50882" lon="6.38004">
        <ele>252</ele>
        <time>2022-01-21T15:26:44.000Z</time>
      </trkpt>
      <trkpt lat="43.50881" lon="6.38004">
        <ele>252</ele>
        <time>2022-01-21T15:26:45.000Z</time>
      </trkpt>
      <trkpt lat="43.50879" lon="6.38004">
        <ele>252</ele>
        <time>2022-01-21T15:26:46.000Z</time>
      </trkpt>
      <trkpt lat="43.50879" lon="6.38003">
        <ele>252</ele>
        <time>2022-01-21T15:26:47.000Z</time>
      </trkpt>
      <trkpt lat="43.50878" lon="6.38003">
        <ele>251</ele>
        <time>2022-01-21T15:26:48.000Z</time>
      </trkpt>
      <trkpt lat="43.50877" lon="6.38003">
        <ele>251</ele>
        <time>2022-01-21T15:26:49.000Z</time>
      </trkpt>
      <trkpt lat="43.50876" lon="6.38002">
        <ele>251</ele>
        <time>2022-01-21T15:26:50.000Z</time>
      </trkpt>
      <trkpt lat="43.50875" lon="6.38002">
        <ele>251</ele>
        <time>2022-01-21T15:26:51.000Z</time>
      </trkpt>
      <trkpt lat="43.50874" lon="6.38001">
        <ele>251</ele>
        <time>2022-01-21T15:26:52.000Z</time>
      </trkpt>
      <trkpt lat="43.50873" lon="6.38">
        <ele>251</ele>
        <time>2022-01-21T15:26:53.000Z</time>
      </trkpt>
      <trkpt lat="43.50872" lon="6.38">
        <ele>251</ele>
        <time>2022-01-21T15:26:54.000Z</time>
      </trkpt>
      <trkpt lat="43.50871" lon="6.37999">
        <ele>251</ele>
        <time>2022-01-21T15:26:55.000Z</time>
      </trkpt>
      <trkpt lat="43.50871" lon="6.37999">
        <ele>251</ele>
        <time>2022-01-21T15:26:56.000Z</time>
      </trkpt>
      <trkpt lat="43.5087" lon="6.37999">
        <ele>251</ele>
        <time>2022-01-21T15:26:57.000Z</time>
      </trkpt>
      <trkpt lat="43.50869" lon="6.37999">
        <ele>252</ele>
        <time>2022-01-21T15:26:58.000Z</time>
      </trkpt>
      <trkpt lat="43.50868" lon="6.37998">
        <ele>252</ele>
        <time>2022-01-21T15:26:59.000Z</time>
      </trkpt>
      <trkpt lat="43.50866" lon="6.37998">
        <ele>252</ele>
        <time>2022-01-21T15:27:00.000Z</time>
      </trkpt>
      <trkpt lat="43.50864" lon="6.37997">
        <ele>252</ele>
        <time>2022-01-21T15:27:01.000Z</time>
      </trkpt>
      <trkpt lat="43.50863" lon="6.37997">
        <ele>252</ele>
        <time>2022-01-21T15:27:02.000Z</time>
      </trkpt>
      <trkpt lat="43.50862" lon="6.37997">
        <ele>252</ele>
        <time>2022-01-21T15:27:03.000Z</time>
      </trkpt>
      <trkpt lat="43.5086" lon="6.37997">
        <ele>252</ele>
        <time>2022-01-21T15:27:04.000Z</time>
      </trkpt>
      <trkpt lat="43.50859" lon="6.37996">
        <ele>252</ele>
        <time>2022-01-21T15:27:05.000Z</time>
      </trkpt>
      <trkpt lat="43.50858" lon="6.37996">
        <ele>252</ele>
        <time>2022-01-21T15:27:06.000Z</time>
      </trkpt>
      <trkpt lat="43.50857" lon="6.37996">
        <ele>252</ele>
        <time>2022-01-21T15:27:07.000Z</time>
      </trkpt>
      <trkpt lat="43.50857" lon="6.37996">
        <ele>251</ele>
        <time>2022-01-21T15:27:08.000Z</time>
      </trkpt>
      <trkpt lat="43.50856" lon="6.37996">
        <ele>251</ele>
        <time>2022-01-21T15:27:09.000Z</time>
      </trkpt>
      <trkpt lat="43.50855" lon="6.37995">
        <ele>251</ele>
        <time>2022-01-21T15:27:10.000Z</time>
      </trkpt>
      <trkpt lat="43.50855" lon="6.37995">
        <ele>251</ele>
        <time>2022-01-21T15:27:11.000Z</time>
      </trkpt>
      <trkpt lat="43.50854" lon="6.37995">
        <ele>251</ele>
        <time>2022-01-21T15:27:12.000Z</time>
      </trkpt>
      <trkpt lat="43.50853" lon="6.37994">
        <ele>250</ele>
        <time>2022-01-21T15:27:13.000Z</time>
      </trkpt>
      <trkpt lat="43.50853" lon="6.37994">
        <ele>250</ele>
        <time>2022-01-21T15:27:14.000Z</time>
      </trkpt>
      <trkpt lat="43.50852" lon="6.37993">
        <ele>250</ele>
        <time>2022-01-21T15:27:15.000Z</time>
      </trkpt>
      <trkpt lat="43.5085" lon="6.37993">
        <ele>250</ele>
        <time>2022-01-21T15:27:16.000Z</time>
      </trkpt>
      <trkpt lat="43.50849" lon="6.37992">
        <ele>250</ele>
        <time>2022-01-21T15:27:17.000Z</time>
      </trkpt>
      <trkpt lat="43.50847" lon="6.37992">
        <ele>249</ele>
        <time>2022-01-21T15:27:18.000Z</time>
      </trkpt>
      <trkpt lat="43.50846" lon="6.37991">
        <ele>249</ele>
        <time>2022-01-21T15:27:19.000Z</time>
      </trkpt>
      <trkpt lat="43.50845" lon="6.37991">
        <ele>249</ele>
        <time>2022-01-21T15:27:20.000Z</time>
      </trkpt>
      <trkpt lat="43.50844" lon="6.37991">
        <ele>249</ele>
        <time>2022-01-21T15:27:21.000Z</time>
      </trkpt>
      <trkpt lat="43.50843" lon="6.37991">
        <ele>249</ele>
        <time>2022-01-21T15:27:22.000Z</time>
      </trkpt>
      <trkpt lat="43.50842" lon="6.37991">
        <ele>249</ele>
        <time>2022-01-21T15:27:23.000Z</time>
      </trkpt>
      <trkpt lat="43.50841" lon="6.37992">
        <ele>249</ele>
        <time>2022-01-21T15:27:24.000Z</time>
      </trkpt>
      <trkpt lat="43.5084" lon="6.37992">
        <ele>249</ele>
        <time>2022-01-21T15:27:25.000Z</time>
      </trkpt>
      <trkpt lat="43.5084" lon="6.37993">
        <ele>249</ele>
        <time>2022-01-21T15:27:26.000Z</time>
      </trkpt>
      <trkpt lat="43.50839" lon="6.37993">
        <ele>249</ele>
        <time>2022-01-21T15:27:27.000Z</time>
      </trkpt>
      <trkpt lat="43.50838" lon="6.37993">
        <ele>249</ele>
        <time>2022-01-21T15:27:28.000Z</time>
      </trkpt>
      <trkpt lat="43.50838" lon="6.37994">
        <ele>249</ele>
        <time>2022-01-21T15:27:29.000Z</time>
      </trkpt>
      <trkpt lat="43.50837" lon="6.37994">
        <ele>249</ele>
        <time>2022-01-21T15:27:30.000Z</time>
      </trkpt>
      <trkpt lat="43.50836" lon="6.37994">
        <ele>249</ele>
        <time>2022-01-21T15:27:31.000Z</time>
      </trkpt>
      <trkpt lat="43.50835" lon="6.37994">
        <ele>249</ele>
        <time>2022-01-21T15:27:32.000Z</time>
      </trkpt>
      <trkpt lat="43.50835" lon="6.37995">
        <ele>249</ele>
        <time>2022-01-21T15:27:33.000Z</time>
      </trkpt>
      <trkpt lat="43.50834" lon="6.37995">
        <ele>249</ele>
        <time>2022-01-21T15:27:34.000Z</time>
      </trkpt>
      <trkpt lat="43.50833" lon="6.37995">
        <ele>249</ele>
        <time>2022-01-21T15:27:35.000Z</time>
      </trkpt>
      <trkpt lat="43.50832" lon="6.37994">
        <ele>249</ele>
        <time>2022-01-21T15:27:36.000Z</time>
      </trkpt>
      <trkpt lat="43.50831" lon="6.37994">
        <ele>249</ele>
        <time>2022-01-21T15:27:37.000Z</time>
      </trkpt>
      <trkpt lat="43.5083" lon="6.37994">
        <ele>249</ele>
        <time>2022-01-21T15:27:38.000Z</time>
      </trkpt>
      <trkpt lat="43.50829" lon="6.37994">
        <ele>249</ele>
        <time>2022-01-21T15:27:39.000Z</time>
      </trkpt>
      <trkpt lat="43.50828" lon="6.37994">
        <ele>249</ele>
        <time>2022-01-21T15:27:40.000Z</time>
      </trkpt>
      <trkpt lat="43.50827" lon="6.37994">
        <ele>249</ele>
        <time>2022-01-21T15:27:41.000Z</time>
      </trkpt>
      <trkpt lat="43.50826" lon="6.37994">
        <ele>249</ele>
        <time>2022-01-21T15:27:42.000Z</time>
      </trkpt>
      <trkpt lat="43.50825" lon="6.37993">
        <ele>249</ele>
        <time>2022-01-21T15:27:43.000Z</time>
      </trkpt>
      <trkpt lat="43.50824" lon="6.37993">
        <ele>249</ele>
        <time>2022-01-21T15:27:44.000Z</time>
      </trkpt>
      <trkpt lat="43.50823" lon="6.37993">
        <ele>249</ele>
        <time>2022-01-21T15:27:45.000Z</time>
      </trkpt>
      <trkpt lat="43.50822" lon="6.37993">
        <ele>249</ele>
        <time>2022-01-21T15:27:46.000Z</time>
      </trkpt>
      <trkpt lat="43.50821" lon="6.37992">
        <ele>249</ele>
        <time>2022-01-21T15:27:47.000Z</time>
      </trkpt>
      <trkpt lat="43.5082" lon="6.37992">
        <ele>249</ele>
        <time>2022-01-21T15:27:48.000Z</time>
      </trkpt>
      <trkpt lat="43.50819" lon="6.37992">
        <ele>249</ele>
        <time>2022-01-21T15:27:49.000Z</time>
      </trkpt>
      <trkpt lat="43.50818" lon="6.37991">
        <ele>249</ele>
        <time>2022-01-21T15:27:50.000Z</time>
      </trkpt>
      <trkpt lat="43.50817" lon="6.37991">
        <ele>249</ele>
        <time>2022-01-21T15:27:51.000Z</time>
      </trkpt>
      <trkpt lat="43.50816" lon="6.37991">
        <ele>249</ele>
        <time>2022-01-21T15:27:52.000Z</time>
      </trkpt>
      <trkpt lat="43.50815" lon="6.37991">
        <ele>249</ele>
        <time>2022-01-21T15:27:53.000Z</time>
      </trkpt>
      <trkpt lat="43.50814" lon="6.37991">
        <ele>249</ele>
        <time>2022-01-21T15:27:54.000Z</time>
      </trkpt>
      <trkpt lat="43.50813" lon="6.3799">
        <ele>249</ele>
        <time>2022-01-21T15:27:55.000Z</time>
      </trkpt>
      <trkpt lat="43.50813" lon="6.3799">
        <ele>249</ele>
        <time>2022-01-21T15:27:56.000Z</time>
      </trkpt>
      <trkpt lat="43.50812" lon="6.3799">
        <ele>249</ele>
        <time>2022-01-21T15:27:57.000Z</time>
      </trkpt>
      <trkpt lat="43.50812" lon="6.3799">
        <ele>249</ele>
        <time>2022-01-21T15:27:58.000Z</time>
      </trkpt>
      <trkpt lat="43.50811" lon="6.37989">
        <ele>249</ele>
        <time>2022-01-21T15:27:59.000Z</time>
      </trkpt>
      <trkpt lat="43.5081" lon="6.37989">
        <ele>249</ele>
        <time>2022-01-21T15:28:00.000Z</time>
      </trkpt>
      <trkpt lat="43.5081" lon="6.37989">
        <ele>249</ele>
        <time>2022-01-21T15:28:01.000Z</time>
      </trkpt>
      <trkpt lat="43.50809" lon="6.37988">
        <ele>249</ele>
        <time>2022-01-21T15:28:02.000Z</time>
      </trkpt>
      <trkpt lat="43.50808" lon="6.37988">
        <ele>249</ele>
        <time>2022-01-21T15:28:03.000Z</time>
      </trkpt>
      <trkpt lat="43.50806" lon="6.37988">
        <ele>249</ele>
        <time>2022-01-21T15:28:04.000Z</time>
      </trkpt>
      <trkpt lat="43.50805" lon="6.37987">
        <ele>249</ele>
        <time>2022-01-21T15:28:05.000Z</time>
      </trkpt>
      <trkpt lat="43.50805" lon="6.37987">
        <ele>249</ele>
        <time>2022-01-21T15:28:06.000Z</time>
      </trkpt>
      <trkpt lat="43.50804" lon="6.37987">
        <ele>249</ele>
        <time>2022-01-21T15:28:07.000Z</time>
      </trkpt>
      <trkpt lat="43.50803" lon="6.37987">
        <ele>250</ele>
        <time>2022-01-21T15:28:08.000Z</time>
      </trkpt>
      <trkpt lat="43.50802" lon="6.37987">
        <ele>250</ele>
        <time>2022-01-21T15:28:09.000Z</time>
      </trkpt>
      <trkpt lat="43.508" lon="6.37987">
        <ele>249</ele>
        <time>2022-01-21T15:28:10.000Z</time>
      </trkpt>
      <trkpt lat="43.50799" lon="6.37987">
        <ele>249</ele>
        <time>2022-01-21T15:28:11.000Z</time>
      </trkpt>
      <trkpt lat="43.50798" lon="6.37987">
        <ele>249</ele>
        <time>2022-01-21T15:28:12.000Z</time>
      </trkpt>
      <trkpt lat="43.50797" lon="6.37987">
        <ele>249</ele>
        <time>2022-01-21T15:28:13.000Z</time>
      </trkpt>
      <trkpt lat="43.50796" lon="6.37987">
        <ele>249</ele>
        <time>2022-01-21T15:28:14.000Z</time>
      </trkpt>
      <trkpt lat="43.50795" lon="6.37987">
        <ele>249</ele>
        <time>2022-01-21T15:28:15.000Z</time>
      </trkpt>
      <trkpt lat="43.50793" lon="6.37987">
        <ele>249</ele>
        <time>2022-01-21T15:28:16.000Z</time>
      </trkpt>
      <trkpt lat="43.50792" lon="6.37987">
        <ele>249</ele>
        <time>2022-01-21T15:28:17.000Z</time>
      </trkpt>
      <trkpt lat="43.50791" lon="6.37987">
        <ele>249</ele>
        <time>2022-01-21T15:28:18.000Z</time>
      </trkpt>
      <trkpt lat="43.5079" lon="6.37987">
        <ele>249</ele>
        <time>2022-01-21T15:28:19.000Z</time>
      </trkpt>
      <trkpt lat="43.50789" lon="6.37987">
        <ele>248</ele>
        <time>2022-01-21T15:28:20.000Z</time>
      </trkpt>
      <trkpt lat="43.50788" lon="6.37987">
        <ele>248</ele>
        <time>2022-01-21T15:28:21.000Z</time>
      </trkpt>
      <trkpt lat="43.50787" lon="6.37987">
        <ele>248</ele>
        <time>2022-01-21T15:28:22.000Z</time>
      </trkpt>
      <trkpt lat="43.50786" lon="6.37987">
        <ele>248</ele>
        <time>2022-01-21T15:28:23.000Z</time>
      </trkpt>
      <trkpt lat="43.50785" lon="6.37987">
        <ele>248</ele>
        <time>2022-01-21T15:28:24.000Z</time>
      </trkpt>
      <trkpt lat="43.50784" lon="6.37987">
        <ele>246</ele>
        <time>2022-01-21T15:28:25.000Z</time>
      </trkpt>
      <trkpt lat="43.50783" lon="6.37987">
        <ele>245</ele>
        <time>2022-01-21T15:28:26.000Z</time>
      </trkpt>
      <trkpt lat="43.50781" lon="6.37987">
        <ele>245</ele>
        <time>2022-01-21T15:28:27.000Z</time>
      </trkpt>
      <trkpt lat="43.5078" lon="6.37987">
        <ele>244</ele>
        <time>2022-01-21T15:28:28.000Z</time>
      </trkpt>
      <trkpt lat="43.50779" lon="6.37987">
        <ele>244</ele>
        <time>2022-01-21T15:28:29.000Z</time>
      </trkpt>
      <trkpt lat="43.50778" lon="6.37988">
        <ele>244</ele>
        <time>2022-01-21T15:28:30.000Z</time>
      </trkpt>
      <trkpt lat="43.50777" lon="6.37988">
        <ele>244</ele>
        <time>2022-01-21T15:28:31.000Z</time>
      </trkpt>
      <trkpt lat="43.50776" lon="6.37988">
        <ele>243</ele>
        <time>2022-01-21T15:28:32.000Z</time>
      </trkpt>
      <trkpt lat="43.50775" lon="6.37989">
        <ele>243</ele>
        <time>2022-01-21T15:28:33.000Z</time>
      </trkpt>
      <trkpt lat="43.50774" lon="6.37989">
        <ele>242</ele>
        <time>2022-01-21T15:28:34.000Z</time>
      </trkpt>
      <trkpt lat="43.50773" lon="6.3799">
        <ele>242</ele>
        <time>2022-01-21T15:28:35.000Z</time>
      </trkpt>
      <trkpt lat="43.50772" lon="6.3799">
        <ele>242</ele>
        <time>2022-01-21T15:28:36.000Z</time>
      </trkpt>
      <trkpt lat="43.50771" lon="6.37991">
        <ele>241</ele>
        <time>2022-01-21T15:28:37.000Z</time>
      </trkpt>
      <trkpt lat="43.50771" lon="6.37991">
        <ele>241</ele>
        <time>2022-01-21T15:28:38.000Z</time>
      </trkpt>
      <trkpt lat="43.5077" lon="6.37991">
        <ele>241</ele>
        <time>2022-01-21T15:28:39.000Z</time>
      </trkpt>
      <trkpt lat="43.50769" lon="6.37991">
        <ele>241</ele>
        <time>2022-01-21T15:28:40.000Z</time>
      </trkpt>
      <trkpt lat="43.50769" lon="6.37992">
        <ele>241</ele>
        <time>2022-01-21T15:28:41.000Z</time>
      </trkpt>
      <trkpt lat="43.50768" lon="6.37992">
        <ele>241</ele>
        <time>2022-01-21T15:28:42.000Z</time>
      </trkpt>
      <trkpt lat="43.50767" lon="6.37992">
        <ele>241</ele>
        <time>2022-01-21T15:28:43.000Z</time>
      </trkpt>
      <trkpt lat="43.50766" lon="6.37993">
        <ele>241</ele>
        <time>2022-01-21T15:28:44.000Z</time>
      </trkpt>
      <trkpt lat="43.50765" lon="6.37994">
        <ele>242</ele>
        <time>2022-01-21T15:28:45.000Z</time>
      </trkpt>
      <trkpt lat="43.50764" lon="6.37994">
        <ele>242</ele>
        <time>2022-01-21T15:28:46.000Z</time>
      </trkpt>
      <trkpt lat="43.50763" lon="6.37995">
        <ele>242</ele>
        <time>2022-01-21T15:28:47.000Z</time>
      </trkpt>
      <trkpt lat="43.50762" lon="6.37995">
        <ele>242</ele>
        <time>2022-01-21T15:28:48.000Z</time>
      </trkpt>
      <trkpt lat="43.50761" lon="6.37996">
        <ele>242</ele>
        <time>2022-01-21T15:28:49.000Z</time>
      </trkpt>
      <trkpt lat="43.5076" lon="6.37996">
        <ele>242</ele>
        <time>2022-01-21T15:28:50.000Z</time>
      </trkpt>
      <trkpt lat="43.50759" lon="6.37996">
        <ele>243</ele>
        <time>2022-01-21T15:28:51.000Z</time>
      </trkpt>
      <trkpt lat="43.50758" lon="6.37997">
        <ele>243</ele>
        <time>2022-01-21T15:28:52.000Z</time>
      </trkpt>
      <trkpt lat="43.50756" lon="6.37997">
        <ele>243</ele>
        <time>2022-01-21T15:28:53.000Z</time>
      </trkpt>
      <trkpt lat="43.50755" lon="6.37997">
        <ele>243</ele>
        <time>2022-01-21T15:28:54.000Z</time>
      </trkpt>
      <trkpt lat="43.50754" lon="6.37996">
        <ele>243</ele>
        <time>2022-01-21T15:28:55.000Z</time>
      </trkpt>
      <trkpt lat="43.50752" lon="6.37996">
        <ele>243</ele>
        <time>2022-01-21T15:28:56.000Z</time>
      </trkpt>
      <trkpt lat="43.50751" lon="6.37995">
        <ele>243</ele>
        <time>2022-01-21T15:28:57.000Z</time>
      </trkpt>
      <trkpt lat="43.5075" lon="6.37994">
        <ele>243</ele>
        <time>2022-01-21T15:28:58.000Z</time>
      </trkpt>
      <trkpt lat="43.50749" lon="6.37994">
        <ele>244</ele>
        <time>2022-01-21T15:28:59.000Z</time>
      </trkpt>
      <trkpt lat="43.50747" lon="6.37994">
        <ele>244</ele>
        <time>2022-01-21T15:29:00.000Z</time>
      </trkpt>
      <trkpt lat="43.50746" lon="6.37994">
        <ele>245</ele>
        <time>2022-01-21T15:29:01.000Z</time>
      </trkpt>
      <trkpt lat="43.50745" lon="6.37993">
        <ele>246</ele>
        <time>2022-01-21T15:29:02.000Z</time>
      </trkpt>
      <trkpt lat="43.50744" lon="6.37993">
        <ele>246</ele>
        <time>2022-01-21T15:29:03.000Z</time>
      </trkpt>
      <trkpt lat="43.50743" lon="6.37992">
        <ele>246</ele>
        <time>2022-01-21T15:29:04.000Z</time>
      </trkpt>
      <trkpt lat="43.50742" lon="6.37992">
        <ele>246</ele>
        <time>2022-01-21T15:29:05.000Z</time>
      </trkpt>
      <trkpt lat="43.50741" lon="6.37992">
        <ele>246</ele>
        <time>2022-01-21T15:29:06.000Z</time>
      </trkpt>
      <trkpt lat="43.5074" lon="6.37993">
        <ele>246</ele>
        <time>2022-01-21T15:29:07.000Z</time>
      </trkpt>
      <trkpt lat="43.5074" lon="6.37993">
        <ele>246</ele>
        <time>2022-01-21T15:29:08.000Z</time>
      </trkpt>
      <trkpt lat="43.50739" lon="6.37994">
        <ele>246</ele>
        <time>2022-01-21T15:29:09.000Z</time>
      </trkpt>
      <trkpt lat="43.50739" lon="6.37995">
        <ele>246</ele>
        <time>2022-01-21T15:29:10.000Z</time>
      </trkpt>
      <trkpt lat="43.50738" lon="6.37995">
        <ele>246</ele>
        <time>2022-01-21T15:29:11.000Z</time>
      </trkpt>
      <trkpt lat="43.50738" lon="6.37996">
        <ele>246</ele>
        <time>2022-01-21T15:29:12.000Z</time>
      </trkpt>
      <trkpt lat="43.50738" lon="6.37996">
        <ele>246</ele>
        <time>2022-01-21T15:29:13.000Z</time>
      </trkpt>
      <trkpt lat="43.50738" lon="6.37997">
        <ele>246</ele>
        <time>2022-01-21T15:29:14.000Z</time>
      </trkpt>
      <trkpt lat="43.50737" lon="6.37997">
        <ele>246</ele>
        <time>2022-01-21T15:29:15.000Z</time>
      </trkpt>
      <trkpt lat="43.50737" lon="6.37998">
        <ele>246</ele>
        <time>2022-01-21T15:29:16.000Z</time>
      </trkpt>
      <trkpt lat="43.50737" lon="6.37998">
        <ele>246</ele>
        <time>2022-01-21T15:29:17.000Z</time>
      </trkpt>
      <trkpt lat="43.50737" lon="6.37999">
        <ele>246</ele>
        <time>2022-01-21T15:29:18.000Z</time>
      </trkpt>
      <trkpt lat="43.50736" lon="6.37999">
        <ele>246</ele>
        <time>2022-01-21T15:29:19.000Z</time>
      </trkpt>
      <trkpt lat="43.50736" lon="6.38">
        <ele>246</ele>
        <time>2022-01-21T15:29:20.000Z</time>
      </trkpt>
      <trkpt lat="43.50735" lon="6.38001">
        <ele>246</ele>
        <time>2022-01-21T15:29:21.000Z</time>
      </trkpt>
      <trkpt lat="43.50735" lon="6.38001">
        <ele>246</ele>
        <time>2022-01-21T15:29:22.000Z</time>
      </trkpt>
      <trkpt lat="43.50734" lon="6.38002">
        <ele>246</ele>
        <time>2022-01-21T15:29:23.000Z</time>
      </trkpt>
      <trkpt lat="43.50734" lon="6.38003">
        <ele>246</ele>
        <time>2022-01-21T15:29:24.000Z</time>
      </trkpt>
      <trkpt lat="43.50733" lon="6.38003">
        <ele>246</ele>
        <time>2022-01-21T15:29:25.000Z</time>
      </trkpt>
      <trkpt lat="43.50732" lon="6.38004">
        <ele>246</ele>
        <time>2022-01-21T15:29:26.000Z</time>
      </trkpt>
      <trkpt lat="43.50732" lon="6.38005">
        <ele>246</ele>
        <time>2022-01-21T15:29:27.000Z</time>
      </trkpt>
      <trkpt lat="43.50731" lon="6.38006">
        <ele>246</ele>
        <time>2022-01-21T15:29:28.000Z</time>
      </trkpt>
      <trkpt lat="43.50731" lon="6.38007">
        <ele>246</ele>
        <time>2022-01-21T15:29:29.000Z</time>
      </trkpt>
      <trkpt lat="43.5073" lon="6.38007">
        <ele>246</ele>
        <time>2022-01-21T15:29:30.000Z</time>
      </trkpt>
      <trkpt lat="43.5073" lon="6.38008">
        <ele>246</ele>
        <time>2022-01-21T15:29:31.000Z</time>
      </trkpt>
      <trkpt lat="43.5073" lon="6.38008">
        <ele>246</ele>
        <time>2022-01-21T15:29:32.000Z</time>
      </trkpt>
      <trkpt lat="43.5073" lon="6.38009">
        <ele>246</ele>
        <time>2022-01-21T15:29:33.000Z</time>
      </trkpt>
      <trkpt lat="43.50731" lon="6.38009">
        <ele>246</ele>
        <time>2022-01-21T15:29:34.000Z</time>
      </trkpt>
      <trkpt lat="43.50731" lon="6.3801">
        <ele>246</ele>
        <time>2022-01-21T15:29:35.000Z</time>
      </trkpt>
      <trkpt lat="43.50731" lon="6.3801">
        <ele>246</ele>
        <time>2022-01-21T15:29:36.000Z</time>
      </trkpt>
      <trkpt lat="43.50731" lon="6.3801">
        <ele>246</ele>
        <time>2022-01-21T15:29:37.000Z</time>
      </trkpt>
      <trkpt lat="43.50731" lon="6.3801">
        <ele>246</ele>
        <time>2022-01-21T15:29:38.000Z</time>
      </trkpt>
      <trkpt lat="43.50731" lon="6.3801">
        <ele>246</ele>
        <time>2022-01-21T15:29:39.000Z</time>
      </trkpt>
      <trkpt lat="43.50731" lon="6.3801">
        <ele>246</ele>
        <time>2022-01-21T15:29:40.000Z</time>
      </trkpt>
      <trkpt lat="43.50731" lon="6.3801">
        <ele>246</ele>
        <time>2022-01-21T15:29:41.000Z</time>
      </trkpt>
      <trkpt lat="43.50731" lon="6.3801">
        <ele>246</ele>
        <time>2022-01-21T15:29:42.000Z</time>
      </trkpt>
      <trkpt lat="43.50731" lon="6.3801">
        <ele>246</ele>
        <time>2022-01-21T15:29:43.000Z</time>
      </trkpt>
      <trkpt lat="43.50731" lon="6.3801">
        <ele>246</ele>
        <time>2022-01-21T15:29:44.000Z</time>
      </trkpt>
      <trkpt lat="43.50731" lon="6.3801">
        <ele>246</ele>
        <time>2022-01-21T15:29:45.000Z</time>
      </trkpt>
      <trkpt lat="43.50731" lon="6.3801">
        <ele>246</ele>
        <time>2022-01-21T15:29:46.000Z</time>
      </trkpt>
      <trkpt lat="43.50731" lon="6.3801">
        <ele>246</ele>
        <time>2022-01-21T15:29:47.000Z</time>
      </trkpt>
      <trkpt lat="43.50731" lon="6.3801">
        <ele>246</ele>
        <time>2022-01-21T15:29:48.000Z</time>
      </trkpt>
      <trkpt lat="43.50731" lon="6.3801">
        <ele>246</ele>
        <time>2022-01-21T15:29:49.000Z</time>
      </trkpt>
      <trkpt lat="43.50731" lon="6.3801">
        <ele>246</ele>
        <time>2022-01-21T15:29:50.000Z</time>
      </trkpt>
      <trkpt lat="43.5073" lon="6.38008">
        <ele>246</ele>
        <time>2022-01-21T15:29:51.000Z</time>
      </trkpt>
      <trkpt lat="43.50729" lon="6.38008">
        <ele>246</ele>
        <time>2022-01-21T15:29:52.000Z</time>
      </trkpt>
      <trkpt lat="43.50728" lon="6.38008">
        <ele>246</ele>
        <time>2022-01-21T15:29:53.000Z</time>
      </trkpt>
      <trkpt lat="43.50728" lon="6.38008">
        <ele>246</ele>
        <time>2022-01-21T15:29:54.000Z</time>
      </trkpt>
      <trkpt lat="43.50727" lon="6.38009">
        <ele>246</ele>
        <time>2022-01-21T15:29:55.000Z</time>
      </trkpt>
      <trkpt lat="43.50726" lon="6.3801">
        <ele>246</ele>
        <time>2022-01-21T15:29:56.000Z</time>
      </trkpt>
      <trkpt lat="43.50726" lon="6.38011">
        <ele>246</ele>
        <time>2022-01-21T15:29:57.000Z</time>
      </trkpt>
      <trkpt lat="43.50725" lon="6.38012">
        <ele>246</ele>
        <time>2022-01-21T15:29:58.000Z</time>
      </trkpt>
      <trkpt lat="43.50724" lon="6.38013">
        <ele>246</ele>
        <time>2022-01-21T15:29:59.000Z</time>
      </trkpt>
      <trkpt lat="43.50723" lon="6.38014">
        <ele>246</ele>
        <time>2022-01-21T15:30:00.000Z</time>
      </trkpt>
      <trkpt lat="43.50723" lon="6.38015">
        <ele>246</ele>
        <time>2022-01-21T15:30:01.000Z</time>
      </trkpt>
      <trkpt lat="43.50722" lon="6.38016">
        <ele>246</ele>
        <time>2022-01-21T15:30:02.000Z</time>
      </trkpt>
      <trkpt lat="43.50721" lon="6.38017">
        <ele>246</ele>
        <time>2022-01-21T15:30:03.000Z</time>
      </trkpt>
      <trkpt lat="43.50721" lon="6.38017">
        <ele>246</ele>
        <time>2022-01-21T15:30:04.000Z</time>
      </trkpt>
      <trkpt lat="43.5072" lon="6.38018">
        <ele>246</ele>
        <time>2022-01-21T15:30:05.000Z</time>
      </trkpt>
      <trkpt lat="43.50718" lon="6.38018">
        <ele>246</ele>
        <time>2022-01-21T15:30:06.000Z</time>
      </trkpt>
      <trkpt lat="43.50717" lon="6.38018">
        <ele>246</ele>
        <time>2022-01-21T15:30:07.000Z</time>
      </trkpt>
      <trkpt lat="43.50716" lon="6.38019">
        <ele>245</ele>
        <time>2022-01-21T15:30:08.000Z</time>
      </trkpt>
      <trkpt lat="43.50715" lon="6.3802">
        <ele>245</ele>
        <time>2022-01-21T15:30:09.000Z</time>
      </trkpt>
      <trkpt lat="43.50714" lon="6.3802">
        <ele>245</ele>
        <time>2022-01-21T15:30:10.000Z</time>
      </trkpt>
      <trkpt lat="43.50713" lon="6.38021">
        <ele>245</ele>
        <time>2022-01-21T15:30:11.000Z</time>
      </trkpt>
      <trkpt lat="43.50712" lon="6.38022">
        <ele>245</ele>
        <time>2022-01-21T15:30:12.000Z</time>
      </trkpt>
      <trkpt lat="43.50711" lon="6.38022">
        <ele>245</ele>
        <time>2022-01-21T15:30:13.000Z</time>
      </trkpt>
      <trkpt lat="43.5071" lon="6.38023">
        <ele>245</ele>
        <time>2022-01-21T15:30:14.000Z</time>
      </trkpt>
      <trkpt lat="43.5071" lon="6.38023">
        <ele>245</ele>
        <time>2022-01-21T15:30:15.000Z</time>
      </trkpt>
      <trkpt lat="43.50709" lon="6.38024">
        <ele>245</ele>
        <time>2022-01-21T15:30:16.000Z</time>
      </trkpt>
      <trkpt lat="43.50708" lon="6.38024">
        <ele>245</ele>
        <time>2022-01-21T15:30:17.000Z</time>
      </trkpt>
      <trkpt lat="43.50708" lon="6.38025">
        <ele>245</ele>
        <time>2022-01-21T15:30:18.000Z</time>
      </trkpt>
      <trkpt lat="43.50707" lon="6.38026">
        <ele>245</ele>
        <time>2022-01-21T15:30:19.000Z</time>
      </trkpt>
      <trkpt lat="43.50706" lon="6.38026">
        <ele>245</ele>
        <time>2022-01-21T15:30:20.000Z</time>
      </trkpt>
      <trkpt lat="43.50705" lon="6.38027">
        <ele>245</ele>
        <time>2022-01-21T15:30:21.000Z</time>
      </trkpt>
      <trkpt lat="43.50704" lon="6.38028">
        <ele>245</ele>
        <time>2022-01-21T15:30:22.000Z</time>
      </trkpt>
      <trkpt lat="43.50703" lon="6.38029">
        <ele>245</ele>
        <time>2022-01-21T15:30:23.000Z</time>
      </trkpt>
      <trkpt lat="43.50703" lon="6.38029">
        <ele>245</ele>
        <time>2022-01-21T15:30:24.000Z</time>
      </trkpt>
      <trkpt lat="43.50702" lon="6.38029">
        <ele>246</ele>
        <time>2022-01-21T15:30:25.000Z</time>
      </trkpt>
      <trkpt lat="43.50701" lon="6.38029">
        <ele>246</ele>
        <time>2022-01-21T15:30:26.000Z</time>
      </trkpt>
      <trkpt lat="43.50699" lon="6.38029">
        <ele>246</ele>
        <time>2022-01-21T15:30:27.000Z</time>
      </trkpt>
      <trkpt lat="43.50698" lon="6.38028">
        <ele>246</ele>
        <time>2022-01-21T15:30:28.000Z</time>
      </trkpt>
      <trkpt lat="43.50696" lon="6.38028">
        <ele>246</ele>
        <time>2022-01-21T15:30:29.000Z</time>
      </trkpt>
      <trkpt lat="43.50695" lon="6.38027">
        <ele>246</ele>
        <time>2022-01-21T15:30:30.000Z</time>
      </trkpt>
      <trkpt lat="43.50694" lon="6.38027">
        <ele>246</ele>
        <time>2022-01-21T15:30:31.000Z</time>
      </trkpt>
      <trkpt lat="43.50692" lon="6.38027">
        <ele>246</ele>
        <time>2022-01-21T15:30:32.000Z</time>
      </trkpt>
      <trkpt lat="43.50691" lon="6.38027">
        <ele>246</ele>
        <time>2022-01-21T15:30:33.000Z</time>
      </trkpt>
      <trkpt lat="43.5069" lon="6.38027">
        <ele>247</ele>
        <time>2022-01-21T15:30:34.000Z</time>
      </trkpt>
      <trkpt lat="43.50689" lon="6.38027">
        <ele>247</ele>
        <time>2022-01-21T15:30:35.000Z</time>
      </trkpt>
      <trkpt lat="43.50688" lon="6.38027">
        <ele>247</ele>
        <time>2022-01-21T15:30:36.000Z</time>
      </trkpt>
      <trkpt lat="43.50687" lon="6.38027">
        <ele>247</ele>
        <time>2022-01-21T15:30:37.000Z</time>
      </trkpt>
      <trkpt lat="43.50686" lon="6.38027">
        <ele>247</ele>
        <time>2022-01-21T15:30:38.000Z</time>
      </trkpt>
      <trkpt lat="43.50685" lon="6.38027">
        <ele>247</ele>
        <time>2022-01-21T15:30:39.000Z</time>
      </trkpt>
      <trkpt lat="43.50684" lon="6.38028">
        <ele>247</ele>
        <time>2022-01-21T15:30:40.000Z</time>
      </trkpt>
      <trkpt lat="43.50683" lon="6.38028">
        <ele>247</ele>
        <time>2022-01-21T15:30:41.000Z</time>
      </trkpt>
      <trkpt lat="43.50682" lon="6.38028">
        <ele>247</ele>
        <time>2022-01-21T15:30:42.000Z</time>
      </trkpt>
      <trkpt lat="43.50681" lon="6.38028">
        <ele>247</ele>
        <time>2022-01-21T15:30:43.000Z</time>
      </trkpt>
      <trkpt lat="43.5068" lon="6.38028">
        <ele>247</ele>
        <time>2022-01-21T15:30:44.000Z</time>
      </trkpt>
      <trkpt lat="43.50679" lon="6.38029">
        <ele>247</ele>
        <time>2022-01-21T15:30:45.000Z</time>
      </trkpt>
      <trkpt lat="43.50677" lon="6.38029">
        <ele>247</ele>
        <time>2022-01-21T15:30:46.000Z</time>
      </trkpt>
      <trkpt lat="43.50676" lon="6.3803">
        <ele>247</ele>
        <time>2022-01-21T15:30:47.000Z</time>
      </trkpt>
      <trkpt lat="43.50675" lon="6.3803">
        <ele>247</ele>
        <time>2022-01-21T15:30:48.000Z</time>
      </trkpt>
      <trkpt lat="43.50674" lon="6.3803">
        <ele>247</ele>
        <time>2022-01-21T15:30:49.000Z</time>
      </trkpt>
      <trkpt lat="43.50674" lon="6.38029">
        <ele>247</ele>
        <time>2022-01-21T15:30:50.000Z</time>
      </trkpt>
      <trkpt lat="43.50674" lon="6.38028">
        <ele>247</ele>
        <time>2022-01-21T15:30:51.000Z</time>
      </trkpt>
      <trkpt lat="43.50673" lon="6.38027">
        <ele>247</ele>
        <time>2022-01-21T15:30:52.000Z</time>
      </trkpt>
      <trkpt lat="43.50673" lon="6.38026">
        <ele>247</ele>
        <time>2022-01-21T15:30:53.000Z</time>
      </trkpt>
      <trkpt lat="43.50673" lon="6.38026">
        <ele>247</ele>
        <time>2022-01-21T15:30:54.000Z</time>
      </trkpt>
      <trkpt lat="43.50673" lon="6.38026">
        <ele>247</ele>
        <time>2022-01-21T15:30:55.000Z</time>
      </trkpt>
      <trkpt lat="43.50672" lon="6.38027">
        <ele>247</ele>
        <time>2022-01-21T15:30:56.000Z</time>
      </trkpt>
      <trkpt lat="43.50672" lon="6.38027">
        <ele>247</ele>
        <time>2022-01-21T15:30:57.000Z</time>
      </trkpt>
      <trkpt lat="43.50671" lon="6.38027">
        <ele>247</ele>
        <time>2022-01-21T15:30:58.000Z</time>
      </trkpt>
      <trkpt lat="43.50671" lon="6.38027">
        <ele>247</ele>
        <time>2022-01-21T15:30:59.000Z</time>
      </trkpt>
      <trkpt lat="43.5067" lon="6.38027">
        <ele>247</ele>
        <time>2022-01-21T15:31:00.000Z</time>
      </trkpt>
      <trkpt lat="43.5067" lon="6.38027">
        <ele>247</ele>
        <time>2022-01-21T15:31:01.000Z</time>
      </trkpt>
      <trkpt lat="43.5067" lon="6.38027">
        <ele>247</ele>
        <time>2022-01-21T15:31:02.000Z</time>
      </trkpt>
      <trkpt lat="43.5067" lon="6.38027">
        <ele>247</ele>
        <time>2022-01-21T15:31:03.000Z</time>
      </trkpt>
      <trkpt lat="43.50669" lon="6.38027">
        <ele>247</ele>
        <time>2022-01-21T15:31:04.000Z</time>
      </trkpt>
      <trkpt lat="43.50669" lon="6.38027">
        <ele>247</ele>
        <time>2022-01-21T15:31:05.000Z</time>
      </trkpt>
      <trkpt lat="43.50668" lon="6.38028">
        <ele>247</ele>
        <time>2022-01-21T15:31:06.000Z</time>
      </trkpt>
      <trkpt lat="43.50668" lon="6.38028">
        <ele>247</ele>
        <time>2022-01-21T15:31:07.000Z</time>
      </trkpt>
      <trkpt lat="43.50667" lon="6.38029">
        <ele>248</ele>
        <time>2022-01-21T15:31:08.000Z</time>
      </trkpt>
      <trkpt lat="43.50667" lon="6.38029">
        <ele>248</ele>
        <time>2022-01-21T15:31:09.000Z</time>
      </trkpt>
      <trkpt lat="43.50666" lon="6.38029">
        <ele>248</ele>
        <time>2022-01-21T15:31:10.000Z</time>
      </trkpt>
      <trkpt lat="43.50665" lon="6.3803">
        <ele>248</ele>
        <time>2022-01-21T15:31:11.000Z</time>
      </trkpt>
      <trkpt lat="43.50665" lon="6.3803">
        <ele>248</ele>
        <time>2022-01-21T15:31:12.000Z</time>
      </trkpt>
      <trkpt lat="43.50664" lon="6.38031">
        <ele>248</ele>
        <time>2022-01-21T15:31:13.000Z</time>
      </trkpt>
      <trkpt lat="43.50663" lon="6.38032">
        <ele>248</ele>
        <time>2022-01-21T15:31:14.000Z</time>
      </trkpt>
      <trkpt lat="43.50661" lon="6.38033">
        <ele>248</ele>
        <time>2022-01-21T15:31:15.000Z</time>
      </trkpt>
      <trkpt lat="43.50659" lon="6.38034">
        <ele>248</ele>
        <time>2022-01-21T15:31:16.000Z</time>
      </trkpt>
      <trkpt lat="43.50658" lon="6.38034">
        <ele>249</ele>
        <time>2022-01-21T15:31:17.000Z</time>
      </trkpt>
      <trkpt lat="43.50658" lon="6.38035">
        <ele>249</ele>
        <time>2022-01-21T15:31:18.000Z</time>
      </trkpt>
      <trkpt lat="43.50657" lon="6.38035">
        <ele>249</ele>
        <time>2022-01-21T15:31:19.000Z</time>
      </trkpt>
      <trkpt lat="43.50657" lon="6.38035">
        <ele>249</ele>
        <time>2022-01-21T15:31:20.000Z</time>
      </trkpt>
      <trkpt lat="43.50656" lon="6.38036">
        <ele>249</ele>
        <time>2022-01-21T15:31:21.000Z</time>
      </trkpt>
      <trkpt lat="43.50656" lon="6.38036">
        <ele>249</ele>
        <time>2022-01-21T15:31:22.000Z</time>
      </trkpt>
      <trkpt lat="43.50655" lon="6.38037">
        <ele>249</ele>
        <time>2022-01-21T15:31:23.000Z</time>
      </trkpt>
      <trkpt lat="43.50654" lon="6.38037">
        <ele>249</ele>
        <time>2022-01-21T15:31:24.000Z</time>
      </trkpt>
      <trkpt lat="43.50654" lon="6.38037">
        <ele>249</ele>
        <time>2022-01-21T15:31:25.000Z</time>
      </trkpt>
      <trkpt lat="43.50653" lon="6.38038">
        <ele>249</ele>
        <time>2022-01-21T15:31:26.000Z</time>
      </trkpt>
      <trkpt lat="43.50652" lon="6.38038">
        <ele>249</ele>
        <time>2022-01-21T15:31:27.000Z</time>
      </trkpt>
      <trkpt lat="43.50652" lon="6.38039">
        <ele>249</ele>
        <time>2022-01-21T15:31:28.000Z</time>
      </trkpt>
      <trkpt lat="43.5065" lon="6.38039">
        <ele>249</ele>
        <time>2022-01-21T15:31:29.000Z</time>
      </trkpt>
      <trkpt lat="43.5065" lon="6.3804">
        <ele>247</ele>
        <time>2022-01-21T15:31:30.000Z</time>
      </trkpt>
      <trkpt lat="43.50649" lon="6.3804">
        <ele>247</ele>
        <time>2022-01-21T15:31:31.000Z</time>
      </trkpt>
      <trkpt lat="43.50648" lon="6.3804">
        <ele>247</ele>
        <time>2022-01-21T15:31:32.000Z</time>
      </trkpt>
      <trkpt lat="43.50647" lon="6.3804">
        <ele>247</ele>
        <time>2022-01-21T15:31:33.000Z</time>
      </trkpt>
      <trkpt lat="43.50647" lon="6.3804">
        <ele>246</ele>
        <time>2022-01-21T15:31:34.000Z</time>
      </trkpt>
      <trkpt lat="43.50645" lon="6.3804">
        <ele>246</ele>
        <time>2022-01-21T15:31:35.000Z</time>
      </trkpt>
      <trkpt lat="43.50643" lon="6.38041">
        <ele>246</ele>
        <time>2022-01-21T15:31:36.000Z</time>
      </trkpt>
      <trkpt lat="43.50641" lon="6.38041">
        <ele>246</ele>
        <time>2022-01-21T15:31:37.000Z</time>
      </trkpt>
      <trkpt lat="43.50639" lon="6.38042">
        <ele>246</ele>
        <time>2022-01-21T15:31:38.000Z</time>
      </trkpt>
      <trkpt lat="43.50638" lon="6.38043">
        <ele>247</ele>
        <time>2022-01-21T15:31:39.000Z</time>
      </trkpt>
      <trkpt lat="43.50637" lon="6.38043">
        <ele>247</ele>
        <time>2022-01-21T15:31:40.000Z</time>
      </trkpt>
      <trkpt lat="43.50637" lon="6.38043">
        <ele>247</ele>
        <time>2022-01-21T15:31:41.000Z</time>
      </trkpt>
      <trkpt lat="43.50636" lon="6.38043">
        <ele>247</ele>
        <time>2022-01-21T15:31:42.000Z</time>
      </trkpt>
      <trkpt lat="43.50635" lon="6.38044">
        <ele>248</ele>
        <time>2022-01-21T15:31:43.000Z</time>
      </trkpt>
      <trkpt lat="43.50635" lon="6.38044">
        <ele>248</ele>
        <time>2022-01-21T15:31:44.000Z</time>
      </trkpt>
      <trkpt lat="43.50634" lon="6.38044">
        <ele>248</ele>
        <time>2022-01-21T15:31:45.000Z</time>
      </trkpt>
      <trkpt lat="43.50634" lon="6.38044">
        <ele>248</ele>
        <time>2022-01-21T15:31:46.000Z</time>
      </trkpt>
      <trkpt lat="43.50633" lon="6.38044">
        <ele>248</ele>
        <time>2022-01-21T15:31:47.000Z</time>
      </trkpt>
      <trkpt lat="43.50633" lon="6.38044">
        <ele>248</ele>
        <time>2022-01-21T15:31:48.000Z</time>
      </trkpt>
      <trkpt lat="43.50633" lon="6.38044">
        <ele>248</ele>
        <time>2022-01-21T15:31:49.000Z</time>
      </trkpt>
      <trkpt lat="43.50632" lon="6.38044">
        <ele>248</ele>
        <time>2022-01-21T15:31:50.000Z</time>
      </trkpt>
      <trkpt lat="43.50632" lon="6.38044">
        <ele>248</ele>
        <time>2022-01-21T15:31:51.000Z</time>
      </trkpt>
      <trkpt lat="43.50632" lon="6.38044">
        <ele>248</ele>
        <time>2022-01-21T15:31:52.000Z</time>
      </trkpt>
      <trkpt lat="43.50631" lon="6.38044">
        <ele>248</ele>
        <time>2022-01-21T15:31:53.000Z</time>
      </trkpt>
      <trkpt lat="43.50631" lon="6.38044">
        <ele>248</ele>
        <time>2022-01-21T15:31:54.000Z</time>
      </trkpt>
      <trkpt lat="43.50631" lon="6.38044">
        <ele>248</ele>
        <time>2022-01-21T15:31:55.000Z</time>
      </trkpt>
      <trkpt lat="43.50631" lon="6.38045">
        <ele>248</ele>
        <time>2022-01-21T15:31:56.000Z</time>
      </trkpt>
      <trkpt lat="43.5063" lon="6.38045">
        <ele>248</ele>
        <time>2022-01-21T15:31:57.000Z</time>
      </trkpt>
      <trkpt lat="43.5063" lon="6.38045">
        <ele>248</ele>
        <time>2022-01-21T15:31:58.000Z</time>
      </trkpt>
      <trkpt lat="43.50629" lon="6.38045">
        <ele>248</ele>
        <time>2022-01-21T15:31:59.000Z</time>
      </trkpt>
      <trkpt lat="43.50628" lon="6.38046">
        <ele>248</ele>
        <time>2022-01-21T15:32:00.000Z</time>
      </trkpt>
      <trkpt lat="43.50627" lon="6.38046">
        <ele>248</ele>
        <time>2022-01-21T15:32:01.000Z</time>
      </trkpt>
      <trkpt lat="43.50626" lon="6.38047">
        <ele>249</ele>
        <time>2022-01-21T15:32:02.000Z</time>
      </trkpt>
      <trkpt lat="43.50625" lon="6.38048">
        <ele>249</ele>
        <time>2022-01-21T15:32:03.000Z</time>
      </trkpt>
      <trkpt lat="43.50624" lon="6.38048">
        <ele>249</ele>
        <time>2022-01-21T15:32:04.000Z</time>
      </trkpt>
      <trkpt lat="43.50624" lon="6.38048">
        <ele>249</ele>
        <time>2022-01-21T15:32:05.000Z</time>
      </trkpt>
      <trkpt lat="43.50623" lon="6.38048">
        <ele>249</ele>
        <time>2022-01-21T15:32:06.000Z</time>
      </trkpt>
      <trkpt lat="43.50622" lon="6.38049">
        <ele>249</ele>
        <time>2022-01-21T15:32:07.000Z</time>
      </trkpt>
      <trkpt lat="43.50621" lon="6.38049">
        <ele>249</ele>
        <time>2022-01-21T15:32:08.000Z</time>
      </trkpt>
      <trkpt lat="43.5062" lon="6.3805">
        <ele>249</ele>
        <time>2022-01-21T15:32:09.000Z</time>
      </trkpt>
      <trkpt lat="43.50618" lon="6.38051">
        <ele>249</ele>
        <time>2022-01-21T15:32:10.000Z</time>
      </trkpt>
      <trkpt lat="43.50616" lon="6.38051">
        <ele>249</ele>
        <time>2022-01-21T15:32:11.000Z</time>
      </trkpt>
      <trkpt lat="43.50615" lon="6.38052">
        <ele>249</ele>
        <time>2022-01-21T15:32:12.000Z</time>
      </trkpt>
      <trkpt lat="43.50615" lon="6.38052">
        <ele>249</ele>
        <time>2022-01-21T15:32:13.000Z</time>
      </trkpt>
      <trkpt lat="43.50614" lon="6.38052">
        <ele>248</ele>
        <time>2022-01-21T15:32:14.000Z</time>
      </trkpt>
      <trkpt lat="43.50614" lon="6.38052">
        <ele>248</ele>
        <time>2022-01-21T15:32:15.000Z</time>
      </trkpt>
      <trkpt lat="43.50614" lon="6.38053">
        <ele>248</ele>
        <time>2022-01-21T15:32:16.000Z</time>
      </trkpt>
      <trkpt lat="43.50613" lon="6.38053">
        <ele>248</ele>
        <time>2022-01-21T15:32:17.000Z</time>
      </trkpt>
      <trkpt lat="43.50613" lon="6.38053">
        <ele>248</ele>
        <time>2022-01-21T15:32:18.000Z</time>
      </trkpt>
      <trkpt lat="43.50613" lon="6.38053">
        <ele>248</ele>
        <time>2022-01-21T15:32:19.000Z</time>
      </trkpt>
      <trkpt lat="43.50612" lon="6.38053">
        <ele>248</ele>
        <time>2022-01-21T15:32:20.000Z</time>
      </trkpt>
      <trkpt lat="43.50612" lon="6.38053">
        <ele>248</ele>
        <time>2022-01-21T15:32:21.000Z</time>
      </trkpt>
      <trkpt lat="43.50612" lon="6.38053">
        <ele>248</ele>
        <time>2022-01-21T15:32:22.000Z</time>
      </trkpt>
      <trkpt lat="43.50611" lon="6.38053">
        <ele>248</ele>
        <time>2022-01-21T15:32:23.000Z</time>
      </trkpt>
      <trkpt lat="43.50611" lon="6.38053">
        <ele>248</ele>
        <time>2022-01-21T15:32:24.000Z</time>
      </trkpt>
      <trkpt lat="43.50611" lon="6.38053">
        <ele>248</ele>
        <time>2022-01-21T15:32:25.000Z</time>
      </trkpt>
      <trkpt lat="43.50611" lon="6.38054">
        <ele>248</ele>
        <time>2022-01-21T15:32:26.000Z</time>
      </trkpt>
      <trkpt lat="43.5061" lon="6.38054">
        <ele>248</ele>
        <time>2022-01-21T15:32:27.000Z</time>
      </trkpt>
      <trkpt lat="43.50609" lon="6.38054">
        <ele>248</ele>
        <time>2022-01-21T15:32:28.000Z</time>
      </trkpt>
      <trkpt lat="43.50608" lon="6.38054">
        <ele>248</ele>
        <time>2022-01-21T15:32:29.000Z</time>
      </trkpt>
      <trkpt lat="43.50607" lon="6.38055">
        <ele>248</ele>
        <time>2022-01-21T15:32:30.000Z</time>
      </trkpt>
      <trkpt lat="43.50606" lon="6.38055">
        <ele>248</ele>
        <time>2022-01-21T15:32:31.000Z</time>
      </trkpt>
      <trkpt lat="43.50604" lon="6.38055">
        <ele>248</ele>
        <time>2022-01-21T15:32:32.000Z</time>
      </trkpt>
      <trkpt lat="43.50603" lon="6.38056">
        <ele>249</ele>
        <time>2022-01-21T15:32:33.000Z</time>
      </trkpt>
      <trkpt lat="43.50601" lon="6.38056">
        <ele>249</ele>
        <time>2022-01-21T15:32:34.000Z</time>
      </trkpt>
      <trkpt lat="43.50598" lon="6.38057">
        <ele>249</ele>
        <time>2022-01-21T15:32:35.000Z</time>
      </trkpt>
      <trkpt lat="43.50596" lon="6.38058">
        <ele>250</ele>
        <time>2022-01-21T15:32:36.000Z</time>
      </trkpt>
      <trkpt lat="43.50594" lon="6.38058">
        <ele>251</ele>
        <time>2022-01-21T15:32:37.000Z</time>
      </trkpt>
      <trkpt lat="43.50592" lon="6.38059">
        <ele>251</ele>
        <time>2022-01-21T15:32:38.000Z</time>
      </trkpt>
      <trkpt lat="43.50591" lon="6.38059">
        <ele>251</ele>
        <time>2022-01-21T15:32:39.000Z</time>
      </trkpt>
      <trkpt lat="43.5059" lon="6.3806">
        <ele>252</ele>
        <time>2022-01-21T15:32:40.000Z</time>
      </trkpt>
      <trkpt lat="43.50589" lon="6.3806">
        <ele>252</ele>
        <time>2022-01-21T15:32:41.000Z</time>
      </trkpt>
      <trkpt lat="43.50589" lon="6.3806">
        <ele>252</ele>
        <time>2022-01-21T15:32:42.000Z</time>
      </trkpt>
      <trkpt lat="43.50588" lon="6.3806">
        <ele>252</ele>
        <time>2022-01-21T15:32:43.000Z</time>
      </trkpt>
      <trkpt lat="43.50587" lon="6.3806">
        <ele>252</ele>
        <time>2022-01-21T15:32:44.000Z</time>
      </trkpt>
      <trkpt lat="43.50586" lon="6.3806">
        <ele>252</ele>
        <time>2022-01-21T15:32:45.000Z</time>
      </trkpt>
      <trkpt lat="43.50584" lon="6.38061">
        <ele>252</ele>
        <time>2022-01-21T15:32:46.000Z</time>
      </trkpt>
      <trkpt lat="43.50583" lon="6.38061">
        <ele>253</ele>
        <time>2022-01-21T15:32:47.000Z</time>
      </trkpt>
      <trkpt lat="43.50582" lon="6.38061">
        <ele>253</ele>
        <time>2022-01-21T15:32:48.000Z</time>
      </trkpt>
      <trkpt lat="43.50582" lon="6.38061">
        <ele>253</ele>
        <time>2022-01-21T15:32:49.000Z</time>
      </trkpt>
      <trkpt lat="43.50581" lon="6.38062">
        <ele>253</ele>
        <time>2022-01-21T15:32:50.000Z</time>
      </trkpt>
      <trkpt lat="43.5058" lon="6.38062">
        <ele>253</ele>
        <time>2022-01-21T15:32:51.000Z</time>
      </trkpt>
      <trkpt lat="43.50579" lon="6.38062">
        <ele>253</ele>
        <time>2022-01-21T15:32:52.000Z</time>
      </trkpt>
      <trkpt lat="43.50579" lon="6.38062">
        <ele>253</ele>
        <time>2022-01-21T15:32:53.000Z</time>
      </trkpt>
      <trkpt lat="43.50578" lon="6.38062">
        <ele>253</ele>
        <time>2022-01-21T15:32:54.000Z</time>
      </trkpt>
      <trkpt lat="43.50576" lon="6.38062">
        <ele>253</ele>
        <time>2022-01-21T15:32:55.000Z</time>
      </trkpt>
      <trkpt lat="43.50575" lon="6.38062">
        <ele>252</ele>
        <time>2022-01-21T15:32:56.000Z</time>
      </trkpt>
      <trkpt lat="43.50575" lon="6.38062">
        <ele>252</ele>
        <time>2022-01-21T15:32:57.000Z</time>
      </trkpt>
      <trkpt lat="43.50574" lon="6.38062">
        <ele>252</ele>
        <time>2022-01-21T15:32:58.000Z</time>
      </trkpt>
      <trkpt lat="43.50574" lon="6.38062">
        <ele>251</ele>
        <time>2022-01-21T15:32:59.000Z</time>
      </trkpt>
      <trkpt lat="43.50574" lon="6.38062">
        <ele>251</ele>
        <time>2022-01-21T15:33:00.000Z</time>
      </trkpt>
      <trkpt lat="43.50573" lon="6.38062">
        <ele>251</ele>
        <time>2022-01-21T15:33:01.000Z</time>
      </trkpt>
      <trkpt lat="43.50573" lon="6.38062">
        <ele>251</ele>
        <time>2022-01-21T15:33:02.000Z</time>
      </trkpt>
      <trkpt lat="43.50573" lon="6.38062">
        <ele>251</ele>
        <time>2022-01-21T15:33:03.000Z</time>
      </trkpt>
      <trkpt lat="43.50572" lon="6.38062">
        <ele>251</ele>
        <time>2022-01-21T15:33:04.000Z</time>
      </trkpt>
      <trkpt lat="43.50572" lon="6.38063">
        <ele>251</ele>
        <time>2022-01-21T15:33:05.000Z</time>
      </trkpt>
      <trkpt lat="43.50571" lon="6.38063">
        <ele>251</ele>
        <time>2022-01-21T15:33:06.000Z</time>
      </trkpt>
      <trkpt lat="43.50568" lon="6.38064">
        <ele>251</ele>
        <time>2022-01-21T15:33:07.000Z</time>
      </trkpt>
      <trkpt lat="43.50567" lon="6.38064">
        <ele>251</ele>
        <time>2022-01-21T15:33:08.000Z</time>
      </trkpt>
      <trkpt lat="43.50565" lon="6.38065">
        <ele>251</ele>
        <time>2022-01-21T15:33:09.000Z</time>
      </trkpt>
      <trkpt lat="43.50564" lon="6.38065">
        <ele>252</ele>
        <time>2022-01-21T15:33:10.000Z</time>
      </trkpt>
      <trkpt lat="43.50563" lon="6.38065">
        <ele>252</ele>
        <time>2022-01-21T15:33:11.000Z</time>
      </trkpt>
      <trkpt lat="43.50562" lon="6.38066">
        <ele>252</ele>
        <time>2022-01-21T15:33:12.000Z</time>
      </trkpt>
      <trkpt lat="43.50562" lon="6.38066">
        <ele>252</ele>
        <time>2022-01-21T15:33:13.000Z</time>
      </trkpt>
      <trkpt lat="43.50561" lon="6.38066">
        <ele>252</ele>
        <time>2022-01-21T15:33:14.000Z</time>
      </trkpt>
      <trkpt lat="43.5056" lon="6.38066">
        <ele>252</ele>
        <time>2022-01-21T15:33:15.000Z</time>
      </trkpt>
      <trkpt lat="43.5056" lon="6.38067">
        <ele>252</ele>
        <time>2022-01-21T15:33:16.000Z</time>
      </trkpt>
      <trkpt lat="43.50558" lon="6.38067">
        <ele>253</ele>
        <time>2022-01-21T15:33:17.000Z</time>
      </trkpt>
      <trkpt lat="43.50557" lon="6.38068">
        <ele>253</ele>
        <time>2022-01-21T15:33:18.000Z</time>
      </trkpt>
      <trkpt lat="43.50556" lon="6.38069">
        <ele>253</ele>
        <time>2022-01-21T15:33:19.000Z</time>
      </trkpt>
      <trkpt lat="43.50555" lon="6.38069">
        <ele>253</ele>
        <time>2022-01-21T15:33:20.000Z</time>
      </trkpt>
      <trkpt lat="43.50554" lon="6.3807">
        <ele>254</ele>
        <time>2022-01-21T15:33:21.000Z</time>
      </trkpt>
      <trkpt lat="43.50554" lon="6.3807">
        <ele>254</ele>
        <time>2022-01-21T15:33:22.000Z</time>
      </trkpt>
      <trkpt lat="43.50553" lon="6.3807">
        <ele>254</ele>
        <time>2022-01-21T15:33:23.000Z</time>
      </trkpt>
      <trkpt lat="43.50552" lon="6.3807">
        <ele>255</ele>
        <time>2022-01-21T15:33:24.000Z</time>
      </trkpt>
      <trkpt lat="43.50551" lon="6.38071">
        <ele>255</ele>
        <time>2022-01-21T15:33:25.000Z</time>
      </trkpt>
      <trkpt lat="43.50551" lon="6.38071">
        <ele>255</ele>
        <time>2022-01-21T15:33:26.000Z</time>
      </trkpt>
      <trkpt lat="43.5055" lon="6.38071">
        <ele>255</ele>
        <time>2022-01-21T15:33:27.000Z</time>
      </trkpt>
      <trkpt lat="43.5055" lon="6.38071">
        <ele>255</ele>
        <time>2022-01-21T15:33:28.000Z</time>
      </trkpt>
      <trkpt lat="43.50549" lon="6.38071">
        <ele>255</ele>
        <time>2022-01-21T15:33:29.000Z</time>
      </trkpt>
      <trkpt lat="43.50548" lon="6.38071">
        <ele>255</ele>
        <time>2022-01-21T15:33:30.000Z</time>
      </trkpt>
      <trkpt lat="43.50547" lon="6.38071">
        <ele>256</ele>
        <time>2022-01-21T15:33:31.000Z</time>
      </trkpt>
      <trkpt lat="43.50545" lon="6.38072">
        <ele>256</ele>
        <time>2022-01-21T15:33:32.000Z</time>
      </trkpt>
      <trkpt lat="43.50544" lon="6.38072">
        <ele>257</ele>
        <time>2022-01-21T15:33:33.000Z</time>
      </trkpt>
      <trkpt lat="43.50544" lon="6.38072">
        <ele>257</ele>
        <time>2022-01-21T15:33:34.000Z</time>
      </trkpt>
      <trkpt lat="43.50543" lon="6.38072">
        <ele>257</ele>
        <time>2022-01-21T15:33:35.000Z</time>
      </trkpt>
      <trkpt lat="43.50543" lon="6.38072">
        <ele>257</ele>
        <time>2022-01-21T15:33:36.000Z</time>
      </trkpt>
      <trkpt lat="43.50542" lon="6.38072">
        <ele>257</ele>
        <time>2022-01-21T15:33:37.000Z</time>
      </trkpt>
      <trkpt lat="43.50541" lon="6.38072">
        <ele>257</ele>
        <time>2022-01-21T15:33:38.000Z</time>
      </trkpt>
      <trkpt lat="43.50541" lon="6.38072">
        <ele>257</ele>
        <time>2022-01-21T15:33:39.000Z</time>
      </trkpt>
      <trkpt lat="43.5054" lon="6.38072">
        <ele>257</ele>
        <time>2022-01-21T15:33:40.000Z</time>
      </trkpt>
      <trkpt lat="43.50539" lon="6.38073">
        <ele>257</ele>
        <time>2022-01-21T15:33:41.000Z</time>
      </trkpt>
      <trkpt lat="43.50539" lon="6.38073">
        <ele>257</ele>
        <time>2022-01-21T15:33:42.000Z</time>
      </trkpt>
      <trkpt lat="43.50538" lon="6.38073">
        <ele>257</ele>
        <time>2022-01-21T15:33:43.000Z</time>
      </trkpt>
      <trkpt lat="43.50538" lon="6.38073">
        <ele>257</ele>
        <time>2022-01-21T15:33:44.000Z</time>
      </trkpt>
      <trkpt lat="43.50537" lon="6.38073">
        <ele>257</ele>
        <time>2022-01-21T15:33:45.000Z</time>
      </trkpt>
      <trkpt lat="43.50537" lon="6.38073">
        <ele>257</ele>
        <time>2022-01-21T15:33:46.000Z</time>
      </trkpt>
      <trkpt lat="43.50537" lon="6.38073">
        <ele>257</ele>
        <time>2022-01-21T15:33:47.000Z</time>
      </trkpt>
      <trkpt lat="43.50537" lon="6.38074">
        <ele>257</ele>
        <time>2022-01-21T15:33:48.000Z</time>
      </trkpt>
      <trkpt lat="43.50536" lon="6.38074">
        <ele>257</ele>
        <time>2022-01-21T15:33:49.000Z</time>
      </trkpt>
      <trkpt lat="43.50536" lon="6.38074">
        <ele>257</ele>
        <time>2022-01-21T15:33:50.000Z</time>
      </trkpt>
      <trkpt lat="43.50535" lon="6.38074">
        <ele>257</ele>
        <time>2022-01-21T15:33:51.000Z</time>
      </trkpt>
      <trkpt lat="43.50534" lon="6.38074">
        <ele>258</ele>
        <time>2022-01-21T15:33:52.000Z</time>
      </trkpt>
      <trkpt lat="43.50533" lon="6.38074">
        <ele>259</ele>
        <time>2022-01-21T15:33:53.000Z</time>
      </trkpt>
      <trkpt lat="43.50532" lon="6.38074">
        <ele>259</ele>
        <time>2022-01-21T15:33:54.000Z</time>
      </trkpt>
      <trkpt lat="43.50531" lon="6.38074">
        <ele>259</ele>
        <time>2022-01-21T15:33:55.000Z</time>
      </trkpt>
      <trkpt lat="43.50529" lon="6.38074">
        <ele>259</ele>
        <time>2022-01-21T15:33:56.000Z</time>
      </trkpt>
      <trkpt lat="43.50528" lon="6.38074">
        <ele>259</ele>
        <time>2022-01-21T15:33:57.000Z</time>
      </trkpt>
      <trkpt lat="43.50527" lon="6.38074">
        <ele>259</ele>
        <time>2022-01-21T15:33:58.000Z</time>
      </trkpt>
      <trkpt lat="43.50526" lon="6.38073">
        <ele>259</ele>
        <time>2022-01-21T15:33:59.000Z</time>
      </trkpt>
      <trkpt lat="43.50524" lon="6.38073">
        <ele>259</ele>
        <time>2022-01-21T15:34:00.000Z</time>
      </trkpt>
      <trkpt lat="43.50523" lon="6.38073">
        <ele>260</ele>
        <time>2022-01-21T15:34:01.000Z</time>
      </trkpt>
      <trkpt lat="43.50522" lon="6.38072">
        <ele>260</ele>
        <time>2022-01-21T15:34:02.000Z</time>
      </trkpt>
      <trkpt lat="43.50521" lon="6.38072">
        <ele>260</ele>
        <time>2022-01-21T15:34:03.000Z</time>
      </trkpt>
      <trkpt lat="43.5052" lon="6.38072">
        <ele>260</ele>
        <time>2022-01-21T15:34:04.000Z</time>
      </trkpt>
      <trkpt lat="43.5052" lon="6.38072">
        <ele>261</ele>
        <time>2022-01-21T15:34:05.000Z</time>
      </trkpt>
      <trkpt lat="43.50519" lon="6.38072">
        <ele>261</ele>
        <time>2022-01-21T15:34:06.000Z</time>
      </trkpt>
      <trkpt lat="43.50519" lon="6.38072">
        <ele>261</ele>
        <time>2022-01-21T15:34:07.000Z</time>
      </trkpt>
      <trkpt lat="43.50519" lon="6.38071">
        <ele>261</ele>
        <time>2022-01-21T15:34:08.000Z</time>
      </trkpt>
      <trkpt lat="43.50518" lon="6.38071">
        <ele>261</ele>
        <time>2022-01-21T15:34:09.000Z</time>
      </trkpt>
      <trkpt lat="43.50518" lon="6.38071">
        <ele>261</ele>
        <time>2022-01-21T15:34:10.000Z</time>
      </trkpt>
      <trkpt lat="43.50518" lon="6.38071">
        <ele>261</ele>
        <time>2022-01-21T15:34:11.000Z</time>
      </trkpt>
      <trkpt lat="43.50517" lon="6.38071">
        <ele>261</ele>
        <time>2022-01-21T15:34:12.000Z</time>
      </trkpt>
      <trkpt lat="43.50516" lon="6.3807">
        <ele>261</ele>
        <time>2022-01-21T15:34:13.000Z</time>
      </trkpt>
      <trkpt lat="43.50515" lon="6.3807">
        <ele>261</ele>
        <time>2022-01-21T15:34:14.000Z</time>
      </trkpt>
      <trkpt lat="43.50513" lon="6.38069">
        <ele>261</ele>
        <time>2022-01-21T15:34:15.000Z</time>
      </trkpt>
      <trkpt lat="43.50512" lon="6.38068">
        <ele>262</ele>
        <time>2022-01-21T15:34:16.000Z</time>
      </trkpt>
      <trkpt lat="43.50511" lon="6.38068">
        <ele>263</ele>
        <time>2022-01-21T15:34:17.000Z</time>
      </trkpt>
      <trkpt lat="43.5051" lon="6.38067">
        <ele>263</ele>
        <time>2022-01-21T15:34:18.000Z</time>
      </trkpt>
      <trkpt lat="43.50508" lon="6.38066">
        <ele>264</ele>
        <time>2022-01-21T15:34:19.000Z</time>
      </trkpt>
      <trkpt lat="43.50507" lon="6.38066">
        <ele>264</ele>
        <time>2022-01-21T15:34:20.000Z</time>
      </trkpt>
      <trkpt lat="43.50506" lon="6.38065">
        <ele>264</ele>
        <time>2022-01-21T15:34:21.000Z</time>
      </trkpt>
      <trkpt lat="43.50505" lon="6.38064">
        <ele>264</ele>
        <time>2022-01-21T15:34:22.000Z</time>
      </trkpt>
      <trkpt lat="43.50505" lon="6.38064">
        <ele>265</ele>
        <time>2022-01-21T15:34:23.000Z</time>
      </trkpt>
      <trkpt lat="43.50504" lon="6.38063">
        <ele>266</ele>
        <time>2022-01-21T15:34:24.000Z</time>
      </trkpt>
      <trkpt lat="43.50504" lon="6.38063">
        <ele>266</ele>
        <time>2022-01-21T15:34:25.000Z</time>
      </trkpt>
      <trkpt lat="43.50503" lon="6.38063">
        <ele>266</ele>
        <time>2022-01-21T15:34:26.000Z</time>
      </trkpt>
      <trkpt lat="43.50503" lon="6.38062">
        <ele>266</ele>
        <time>2022-01-21T15:34:27.000Z</time>
      </trkpt>
      <trkpt lat="43.50503" lon="6.38062">
        <ele>266</ele>
        <time>2022-01-21T15:34:28.000Z</time>
      </trkpt>
      <trkpt lat="43.50503" lon="6.38062">
        <ele>266</ele>
        <time>2022-01-21T15:34:29.000Z</time>
      </trkpt>
      <trkpt lat="43.50503" lon="6.38061">
        <ele>266</ele>
        <time>2022-01-21T15:34:30.000Z</time>
      </trkpt>
      <trkpt lat="43.50502" lon="6.38061">
        <ele>266</ele>
        <time>2022-01-21T15:34:31.000Z</time>
      </trkpt>
      <trkpt lat="43.50502" lon="6.38061">
        <ele>266</ele>
        <time>2022-01-21T15:34:32.000Z</time>
      </trkpt>
      <trkpt lat="43.50502" lon="6.38061">
        <ele>266</ele>
        <time>2022-01-21T15:34:33.000Z</time>
      </trkpt>
      <trkpt lat="43.50502" lon="6.38061">
        <ele>266</ele>
        <time>2022-01-21T15:34:34.000Z</time>
      </trkpt>
      <trkpt lat="43.50501" lon="6.38061">
        <ele>266</ele>
        <time>2022-01-21T15:34:35.000Z</time>
      </trkpt>
      <trkpt lat="43.50501" lon="6.38061">
        <ele>266</ele>
        <time>2022-01-21T15:34:36.000Z</time>
      </trkpt>
      <trkpt lat="43.50501" lon="6.38061">
        <ele>266</ele>
        <time>2022-01-21T15:34:37.000Z</time>
      </trkpt>
      <trkpt lat="43.50501" lon="6.3806">
        <ele>266</ele>
        <time>2022-01-21T15:34:38.000Z</time>
      </trkpt>
      <trkpt lat="43.50501" lon="6.3806">
        <ele>266</ele>
        <time>2022-01-21T15:34:39.000Z</time>
      </trkpt>
      <trkpt lat="43.50501" lon="6.3806">
        <ele>266</ele>
        <time>2022-01-21T15:34:40.000Z</time>
      </trkpt>
      <trkpt lat="43.50501" lon="6.3806">
        <ele>266</ele>
        <time>2022-01-21T15:34:41.000Z</time>
      </trkpt>
      <trkpt lat="43.50501" lon="6.3806">
        <ele>266</ele>
        <time>2022-01-21T15:34:42.000Z</time>
      </trkpt>
      <trkpt lat="43.50501" lon="6.3806">
        <ele>266</ele>
        <time>2022-01-21T15:34:43.000Z</time>
      </trkpt>
      <trkpt lat="43.50501" lon="6.3806">
        <ele>266</ele>
        <time>2022-01-21T15:34:44.000Z</time>
      </trkpt>
      <trkpt lat="43.505" lon="6.3806">
        <ele>266</ele>
        <time>2022-01-21T15:34:45.000Z</time>
      </trkpt>
      <trkpt lat="43.505" lon="6.3806">
        <ele>266</ele>
        <time>2022-01-21T15:34:46.000Z</time>
      </trkpt>
      <trkpt lat="43.505" lon="6.3806">
        <ele>266</ele>
        <time>2022-01-21T15:34:47.000Z</time>
      </trkpt>
      <trkpt lat="43.505" lon="6.3806">
        <ele>266</ele>
        <time>2022-01-21T15:34:48.000Z</time>
      </trkpt>
      <trkpt lat="43.505" lon="6.3806">
        <ele>266</ele>
        <time>2022-01-21T15:34:49.000Z</time>
      </trkpt>
      <trkpt lat="43.505" lon="6.3806">
        <ele>266</ele>
        <time>2022-01-21T15:34:50.000Z</time>
      </trkpt>
      <trkpt lat="43.505" lon="6.3806">
        <ele>266</ele>
        <time>2022-01-21T15:34:51.000Z</time>
      </trkpt>
      <trkpt lat="43.505" lon="6.3806">
        <ele>266</ele>
        <time>2022-01-21T15:34:52.000Z</time>
      </trkpt>
      <trkpt lat="43.505" lon="6.3806">
        <ele>266</ele>
        <time>2022-01-21T15:34:53.000Z</time>
      </trkpt>
      <trkpt lat="43.505" lon="6.3806">
        <ele>266</ele>
        <time>2022-01-21T15:34:54.000Z</time>
      </trkpt>
      <trkpt lat="43.505" lon="6.3806">
        <ele>266</ele>
        <time>2022-01-21T15:34:55.000Z</time>
      </trkpt>
      <trkpt lat="43.505" lon="6.3806">
        <ele>266</ele>
        <time>2022-01-21T15:34:56.000Z</time>
      </trkpt>
      <trkpt lat="43.505" lon="6.3806">
        <ele>266</ele>
        <time>2022-01-21T15:34:57.000Z</time>
      </trkpt>
      <trkpt lat="43.505" lon="6.3806">
        <ele>266</ele>
        <time>2022-01-21T15:34:58.000Z</time>
      </trkpt>
      <trkpt lat="43.505" lon="6.3806">
        <ele>266</ele>
        <time>2022-01-21T15:34:59.000Z</time>
      </trkpt>
      <trkpt lat="43.505" lon="6.3806">
        <ele>266</ele>
        <time>2022-01-21T15:35:00.000Z</time>
      </trkpt>
      <trkpt lat="43.505" lon="6.3806">
        <ele>266</ele>
        <time>2022-01-21T15:35:01.000Z</time>
      </trkpt>
      <trkpt lat="43.505" lon="6.3806">
        <ele>266</ele>
        <time>2022-01-21T15:35:02.000Z</time>
      </trkpt>
      <trkpt lat="43.505" lon="6.3806">
        <ele>266</ele>
        <time>2022-01-21T15:35:03.000Z</time>
      </trkpt>
      <trkpt lat="43.505" lon="6.3806">
        <ele>266</ele>
        <time>2022-01-21T15:35:04.000Z</time>
      </trkpt>
      <trkpt lat="43.505" lon="6.3806">
        <ele>266</ele>
        <time>2022-01-21T15:35:05.000Z</time>
      </trkpt>
      <trkpt lat="43.505" lon="6.3806">
        <ele>266</ele>
        <time>2022-01-21T15:35:06.000Z</time>
      </trkpt>
      <trkpt lat="43.505" lon="6.3806">
        <ele>266</ele>
        <time>2022-01-21T15:35:07.000Z</time>
      </trkpt>
      <trkpt lat="43.505" lon="6.3806">
        <ele>266</ele>
        <time>2022-01-21T15:35:08.000Z</time>
      </trkpt>
      <trkpt lat="43.505" lon="6.3806">
        <ele>266</ele>
        <time>2022-01-21T15:35:09.000Z</time>
      </trkpt>
      <trkpt lat="43.505" lon="6.3806">
        <ele>266</ele>
        <time>2022-01-21T15:35:10.000Z</time>
      </trkpt>
      <trkpt lat="43.505" lon="6.3806">
        <ele>266</ele>
        <time>2022-01-21T15:35:11.000Z</time>
      </trkpt>
      <trkpt lat="43.505" lon="6.3806">
        <ele>266</ele>
        <time>2022-01-21T15:35:12.000Z</time>
      </trkpt>
      <trkpt lat="43.505" lon="6.3806">
        <ele>266</ele>
        <time>2022-01-21T15:35:13.000Z</time>
      </trkpt>
      <trkpt lat="43.505" lon="6.3806">
        <ele>266</ele>
        <time>2022-01-21T15:35:14.000Z</time>
      </trkpt>
      <trkpt lat="43.505" lon="6.3806">
        <ele>266</ele>
        <time>2022-01-21T15:35:15.000Z</time>
      </trkpt>
      <trkpt lat="43.505" lon="6.3806">
        <ele>266</ele>
        <time>2022-01-21T15:35:16.000Z</time>
      </trkpt>
      <trkpt lat="43.505" lon="6.3806">
        <ele>266</ele>
        <time>2022-01-21T15:35:17.000Z</time>
      </trkpt>
      <trkpt lat="43.505" lon="6.3806">
        <ele>266</ele>
        <time>2022-01-21T15:35:18.000Z</time>
      </trkpt>
      <trkpt lat="43.505" lon="6.3806">
        <ele>266</ele>
        <time>2022-01-21T15:35:19.000Z</time>
      </trkpt>
      <trkpt lat="43.505" lon="6.3806">
        <ele>266</ele>
        <time>2022-01-21T15:35:20.000Z</time>
      </trkpt>
      <trkpt lat="43.505" lon="6.3806">
        <ele>266</ele>
        <time>2022-01-21T15:35:21.000Z</time>
      </trkpt>
      <trkpt lat="43.505" lon="6.3806">
        <ele>266</ele>
        <time>2022-01-21T15:35:22.000Z</time>
      </trkpt>
      <trkpt lat="43.505" lon="6.3806">
        <ele>266</ele>
        <time>2022-01-21T15:35:23.000Z</time>
      </trkpt>
      <trkpt lat="43.505" lon="6.3806">
        <ele>266</ele>
        <time>2022-01-21T15:35:24.000Z</time>
      </trkpt>
      <trkpt lat="43.505" lon="6.3806">
        <ele>266</ele>
        <time>2022-01-21T15:35:25.000Z</time>
      </trkpt>
      <trkpt lat="43.505" lon="6.3806">
        <ele>266</ele>
        <time>2022-01-21T15:35:26.000Z</time>
      </trkpt>
      <trkpt lat="43.505" lon="6.3806">
        <ele>266</ele>
        <time>2022-01-21T15:35:27.000Z</time>
      </trkpt>
      <trkpt lat="43.505" lon="6.3806">
        <ele>266</ele>
        <time>2022-01-21T15:35:28.000Z</time>
      </trkpt>
      <trkpt lat="43.505" lon="6.3806">
        <ele>266</ele>
        <time>2022-01-21T15:35:29.000Z</time>
      </trkpt>
      <trkpt lat="43.505" lon="6.3806">
        <ele>266</ele>
        <time>2022-01-21T15:35:30.000Z</time>
      </trkpt>
      <trkpt lat="43.505" lon="6.3806">
        <ele>266</ele>
        <time>2022-01-21T15:35:31.000Z</time>
      </trkpt>
      <trkpt lat="43.505" lon="6.3806">
        <ele>266</ele>
        <time>2022-01-21T15:35:32.000Z</time>
      </trkpt>
      <trkpt lat="43.505" lon="6.3806">
        <ele>266</ele>
        <time>2022-01-21T15:35:33.000Z</time>
      </trkpt>
      <trkpt lat="43.505" lon="6.3806">
        <ele>266</ele>
        <time>2022-01-21T15:35:34.000Z</time>
      </trkpt>
      <trkpt lat="43.505" lon="6.3806">
        <ele>266</ele>
        <time>2022-01-21T15:35:35.000Z</time>
      </trkpt>
      <trkpt lat="43.505" lon="6.3806">
        <ele>266</ele>
        <time>2022-01-21T15:35:36.000Z</time>
      </trkpt>
      <trkpt lat="43.505" lon="6.3806">
        <ele>266</ele>
        <time>2022-01-21T15:35:37.000Z</time>
      </trkpt>
      <trkpt lat="43.505" lon="6.3806">
        <ele>266</ele>
        <time>2022-01-21T15:35:38.000Z</time>
      </trkpt>
      <trkpt lat="43.505" lon="6.3806">
        <ele>266</ele>
        <time>2022-01-21T15:35:39.000Z</time>
      </trkpt>
      <trkpt lat="43.505" lon="6.3806">
        <ele>266</ele>
        <time>2022-01-21T15:35:40.000Z</time>
      </trkpt>
      <trkpt lat="43.505" lon="6.3806">
        <ele>266</ele>
        <time>2022-01-21T15:35:41.000Z</time>
      </trkpt>
      <trkpt lat="43.505" lon="6.3806">
        <ele>266</ele>
        <time>2022-01-21T15:35:42.000Z</time>
      </trkpt>
      <trkpt lat="43.505" lon="6.3806">
        <ele>266</ele>
        <time>2022-01-21T15:35:43.000Z</time>
      </trkpt>
      <trkpt lat="43.505" lon="6.3806">
        <ele>266</ele>
        <time>2022-01-21T15:35:44.000Z</time>
      </trkpt>
      <trkpt lat="43.505" lon="6.3806">
        <ele>266</ele>
        <time>2022-01-21T15:35:45.000Z</time>
      </trkpt>
      <trkpt lat="43.505" lon="6.3806">
        <ele>266</ele>
        <time>2022-01-21T15:35:46.000Z</time>
      </trkpt>
      <trkpt lat="43.505" lon="6.3806">
        <ele>266</ele>
        <time>2022-01-21T15:35:47.000Z</time>
      </trkpt>
      <trkpt lat="43.505" lon="6.3806">
        <ele>266</ele>
        <time>2022-01-21T15:35:48.000Z</time>
      </trkpt>
      <trkpt lat="43.505" lon="6.3806">
        <ele>266</ele>
        <time>2022-01-21T15:35:49.000Z</time>
      </trkpt>
      <trkpt lat="43.505" lon="6.3806">
        <ele>266</ele>
        <time>2022-01-21T15:35:50.000Z</time>
      </trkpt>
      <trkpt lat="43.505" lon="6.3806">
        <ele>266</ele>
        <time>2022-01-21T15:35:51.000Z</time>
      </trkpt>
      <trkpt lat="43.505" lon="6.3806">
        <ele>266</ele>
        <time>2022-01-21T15:35:52.000Z</time>
      </trkpt>
      <trkpt lat="43.505" lon="6.3806">
        <ele>266</ele>
        <time>2022-01-21T15:35:53.000Z</time>
      </trkpt>
      <trkpt lat="43.505" lon="6.3806">
        <ele>266</ele>
        <time>2022-01-21T15:35:54.000Z</time>
      </trkpt>
      <trkpt lat="43.505" lon="6.3806">
        <ele>266</ele>
        <time>2022-01-21T15:35:55.000Z</time>
      </trkpt>
      <trkpt lat="43.505" lon="6.3806">
        <ele>266</ele>
        <time>2022-01-21T15:35:56.000Z</time>
      </trkpt>
      <trkpt lat="43.505" lon="6.3806">
        <ele>266</ele>
        <time>2022-01-21T15:35:57.000Z</time>
      </trkpt>
      <trkpt lat="43.505" lon="6.3806">
        <ele>266</ele>
        <time>2022-01-21T15:35:58.000Z</time>
      </trkpt>
      <trkpt lat="43.505" lon="6.3806">
        <ele>266</ele>
        <time>2022-01-21T15:35:59.000Z</time>
      </trkpt>
      <trkpt lat="43.505" lon="6.3806">
        <ele>266</ele>
        <time>2022-01-21T15:36:00.000Z</time>
      </trkpt>
      <trkpt lat="43.505" lon="6.3806">
        <ele>266</ele>
        <time>2022-01-21T15:36:01.000Z</time>
      </trkpt>
      <trkpt lat="43.505" lon="6.3806">
        <ele>266</ele>
        <time>2022-01-21T15:36:02.000Z</time>
      </trkpt>
      <trkpt lat="43.505" lon="6.3806">
        <ele>266</ele>
        <time>2022-01-21T15:36:03.000Z</time>
      </trkpt>
      <trkpt lat="43.505" lon="6.3806">
        <ele>266</ele>
        <time>2022-01-21T15:36:04.000Z</time>
      </trkpt>
      <trkpt lat="43.505" lon="6.3806">
        <ele>266</ele>
        <time>2022-01-21T15:36:05.000Z</time>
      </trkpt>
      <trkpt lat="43.505" lon="6.3806">
        <ele>266</ele>
        <time>2022-01-21T15:36:06.000Z</time>
      </trkpt>
      <trkpt lat="43.505" lon="6.3806">
        <ele>266</ele>
        <time>2022-01-21T15:36:07.000Z</time>
      </trkpt>
      <trkpt lat="43.505" lon="6.3806">
        <ele>266</ele>
        <time>2022-01-21T15:36:08.000Z</time>
      </trkpt>
      <trkpt lat="43.505" lon="6.3806">
        <ele>266</ele>
        <time>2022-01-21T15:36:09.000Z</time>
      </trkpt>
      <trkpt lat="43.505" lon="6.3806">
        <ele>266</ele>
        <time>2022-01-21T15:36:10.000Z</time>
      </trkpt>
      <trkpt lat="43.505" lon="6.3806">
        <ele>266</ele>
        <time>2022-01-21T15:36:11.000Z</time>
      </trkpt>
      <trkpt lat="43.505" lon="6.3806">
        <ele>266</ele>
        <time>2022-01-21T15:36:12.000Z</time>
      </trkpt>
      <trkpt lat="43.505" lon="6.3806">
        <ele>266</ele>
        <time>2022-01-21T15:36:13.000Z</time>
      </trkpt>
      <trkpt lat="43.505" lon="6.3806">
        <ele>266</ele>
        <time>2022-01-21T15:36:14.000Z</time>
      </trkpt>
      <trkpt lat="43.505" lon="6.3806">
        <ele>266</ele>
        <time>2022-01-21T15:36:15.000Z</time>
      </trkpt>
      <trkpt lat="43.505" lon="6.3806">
        <ele>266</ele>
        <time>2022-01-21T15:36:16.000Z</time>
      </trkpt>
      <trkpt lat="43.505" lon="6.3806">
        <ele>266</ele>
        <time>2022-01-21T15:36:17.000Z</time>
      </trkpt>
      <trkpt lat="43.505" lon="6.3806">
        <ele>266</ele>
        <time>2022-01-21T15:36:18.000Z</time>
      </trkpt>
      <trkpt lat="43.505" lon="6.3806">
        <ele>266</ele>
        <time>2022-01-21T15:36:19.000Z</time>
      </trkpt>
      <trkpt lat="43.505" lon="6.3806">
        <ele>266</ele>
        <time>2022-01-21T15:36:20.000Z</time>
      </trkpt>
      <trkpt lat="43.505" lon="6.3806">
        <ele>266</ele>
        <time>2022-01-21T15:36:21.000Z</time>
      </trkpt>
      <trkpt lat="43.505" lon="6.3806">
        <ele>266</ele>
        <time>2022-01-21T15:36:22.000Z</time>
      </trkpt>
      <trkpt lat="43.505" lon="6.3806">
        <ele>266</ele>
        <time>2022-01-21T15:36:23.000Z</time>
      </trkpt>
      <trkpt lat="43.505" lon="6.3806">
        <ele>266</ele>
        <time>2022-01-21T15:36:24.000Z</time>
      </trkpt>
      <trkpt lat="43.505" lon="6.3806">
        <ele>266</ele>
        <time>2022-01-21T15:36:25.000Z</time>
      </trkpt>
      <trkpt lat="43.505" lon="6.3806">
        <ele>266</ele>
        <time>2022-01-21T15:36:26.000Z</time>
      </trkpt>
      <trkpt lat="43.505" lon="6.3806">
        <ele>266</ele>
        <time>2022-01-21T15:36:27.000Z</time>
      </trkpt>
      <trkpt lat="43.505" lon="6.3806">
        <ele>266</ele>
        <time>2022-01-21T15:36:28.000Z</time>
      </trkpt>
      <trkpt lat="43.505" lon="6.3806">
        <ele>266</ele>
        <time>2022-01-21T15:36:29.000Z</time>
      </trkpt>
      <trkpt lat="43.505" lon="6.3806">
        <ele>266</ele>
        <time>2022-01-21T15:36:30.000Z</time>
      </trkpt>
      <trkpt lat="43.505" lon="6.3806">
        <ele>266</ele>
        <time>2022-01-21T15:36:31.000Z</time>
      </trkpt>
      <trkpt lat="43.505" lon="6.3806">
        <ele>266</ele>
        <time>2022-01-21T15:36:32.000Z</time>
      </trkpt>
      <trkpt lat="43.505" lon="6.3806">
        <ele>266</ele>
        <time>2022-01-21T15:36:33.000Z</time>
      </trkpt>
      <trkpt lat="43.505" lon="6.3806">
        <ele>266</ele>
        <time>2022-01-21T15:36:34.000Z</time>
      </trkpt>
      <trkpt lat="43.505" lon="6.3806">
        <ele>266</ele>
        <time>2022-01-21T15:36:35.000Z</time>
      </trkpt>
      <trkpt lat="43.505" lon="6.3806">
        <ele>266</ele>
        <time>2022-01-21T15:36:36.000Z</time>
      </trkpt>
      <trkpt lat="43.505" lon="6.3806">
        <ele>266</ele>
        <time>2022-01-21T15:36:37.000Z</time>
      </trkpt>
      <trkpt lat="43.505" lon="6.3806">
        <ele>266</ele>
        <time>2022-01-21T15:36:38.000Z</time>
      </trkpt>
      <trkpt lat="43.505" lon="6.3806">
        <ele>266</ele>
        <time>2022-01-21T15:36:39.000Z</time>
      </trkpt>
      <trkpt lat="43.505" lon="6.3806">
        <ele>266</ele>
        <time>2022-01-21T15:36:40.000Z</time>
      </trkpt>
      <trkpt lat="43.505" lon="6.3806">
        <ele>266</ele>
        <time>2022-01-21T15:36:41.000Z</time>
      </trkpt>
      <trkpt lat="43.505" lon="6.3806">
        <ele>266</ele>
        <time>2022-01-21T15:36:42.000Z</time>
      </trkpt>
      <trkpt lat="43.505" lon="6.3806">
        <ele>266</ele>
        <time>2022-01-21T15:36:43.000Z</time>
      </trkpt>
      <trkpt lat="43.505" lon="6.3806">
        <ele>266</ele>
        <time>2022-01-21T15:36:44.000Z</time>
      </trkpt>
      <trkpt lat="43.505" lon="6.3806">
        <ele>266</ele>
        <time>2022-01-21T15:36:45.000Z</time>
      </trkpt>
      <trkpt lat="43.505" lon="6.3806">
        <ele>266</ele>
        <time>2022-01-21T15:36:46.000Z</time>
      </trkpt>
      <trkpt lat="43.505" lon="6.3806">
        <ele>266</ele>
        <time>2022-01-21T15:36:47.000Z</time>
      </trkpt>
      <trkpt lat="43.505" lon="6.3806">
        <ele>266</ele>
        <time>2022-01-21T15:36:48.000Z</time>
      </trkpt>
      <trkpt lat="43.505" lon="6.3806">
        <ele>266</ele>
        <time>2022-01-21T15:36:49.000Z</time>
      </trkpt>
      <trkpt lat="43.505" lon="6.3806">
        <ele>266</ele>
        <time>2022-01-21T15:36:50.000Z</time>
      </trkpt>
      <trkpt lat="43.505" lon="6.3806">
        <ele>266</ele>
        <time>2022-01-21T15:36:51.000Z</time>
      </trkpt>
      <trkpt lat="43.505" lon="6.3806">
        <ele>266</ele>
        <time>2022-01-21T15:36:52.000Z</time>
      </trkpt>
      <trkpt lat="43.505" lon="6.3806">
        <ele>266</ele>
        <time>2022-01-21T15:36:53.000Z</time>
      </trkpt>
      <trkpt lat="43.505" lon="6.3806">
        <ele>266</ele>
        <time>2022-01-21T15:36:54.000Z</time>
      </trkpt>
      <trkpt lat="43.505" lon="6.3806">
        <ele>266</ele>
        <time>2022-01-21T15:36:55.000Z</time>
      </trkpt>
      <trkpt lat="43.505" lon="6.3806">
        <ele>266</ele>
        <time>2022-01-21T15:36:56.000Z</time>
      </trkpt>
      <trkpt lat="43.505" lon="6.3806">
        <ele>266</ele>
        <time>2022-01-21T15:36:57.000Z</time>
      </trkpt>
      <trkpt lat="43.505" lon="6.3806">
        <ele>266</ele>
        <time>2022-01-21T15:36:58.000Z</time>
      </trkpt>
      <trkpt lat="43.505" lon="6.3806">
        <ele>266</ele>
        <time>2022-01-21T15:36:59.000Z</time>
      </trkpt>
      <trkpt lat="43.505" lon="6.3806">
        <ele>266</ele>
        <time>2022-01-21T15:37:00.000Z</time>
      </trkpt>
      <trkpt lat="43.505" lon="6.3806">
        <ele>266</ele>
        <time>2022-01-21T15:37:01.000Z</time>
      </trkpt>
      <trkpt lat="43.505" lon="6.3806">
        <ele>266</ele>
        <time>2022-01-21T15:37:02.000Z</time>
      </trkpt>
      <trkpt lat="43.505" lon="6.3806">
        <ele>266</ele>
        <time>2022-01-21T15:37:03.000Z</time>
      </trkpt>
      <trkpt lat="43.505" lon="6.3806">
        <ele>266</ele>
        <time>2022-01-21T15:37:04.000Z</time>
      </trkpt>
      <trkpt lat="43.505" lon="6.3806">
        <ele>266</ele>
        <time>2022-01-21T15:37:05.000Z</time>
      </trkpt>
      <trkpt lat="43.505" lon="6.3806">
        <ele>266</ele>
        <time>2022-01-21T15:37:06.000Z</time>
      </trkpt>
      <trkpt lat="43.505" lon="6.3806">
        <ele>266</ele>
        <time>2022-01-21T15:37:07.000Z</time>
      </trkpt>
      <trkpt lat="43.505" lon="6.3806">
        <ele>266</ele>
        <time>2022-01-21T15:37:08.000Z</time>
      </trkpt>
      <trkpt lat="43.505" lon="6.3806">
        <ele>266</ele>
        <time>2022-01-21T15:37:09.000Z</time>
      </trkpt>
      <trkpt lat="43.505" lon="6.3806">
        <ele>266</ele>
        <time>2022-01-21T15:37:10.000Z</time>
      </trkpt>
      <trkpt lat="43.505" lon="6.3806">
        <ele>266</ele>
        <time>2022-01-21T15:37:11.000Z</time>
      </trkpt>
      <trkpt lat="43.505" lon="6.3806">
        <ele>266</ele>
        <time>2022-01-21T15:37:12.000Z</time>
      </trkpt>
      <trkpt lat="43.505" lon="6.3806">
        <ele>266</ele>
        <time>2022-01-21T15:37:13.000Z</time>
      </trkpt>
      <trkpt lat="43.505" lon="6.3806">
        <ele>266</ele>
        <time>2022-01-21T15:37:14.000Z</time>
      </trkpt>
      <trkpt lat="43.505" lon="6.3806">
        <ele>266</ele>
        <time>2022-01-21T15:37:15.000Z</time>
      </trkpt>
      <trkpt lat="43.505" lon="6.3806">
        <ele>266</ele>
        <time>2022-01-21T15:37:16.000Z</time>
      </trkpt>
      <trkpt lat="43.505" lon="6.3806">
        <ele>266</ele>
        <time>2022-01-21T15:37:17.000Z</time>
      </trkpt>
      <trkpt lat="43.505" lon="6.3806">
        <ele>266</ele>
        <time>2022-01-21T15:37:18.000Z</time>
      </trkpt>
      <trkpt lat="43.505" lon="6.3806">
        <ele>266</ele>
        <time>2022-01-21T15:37:19.000Z</time>
      </trkpt>
      <trkpt lat="43.505" lon="6.3806">
        <ele>266</ele>
        <time>2022-01-21T15:37:20.000Z</time>
      </trkpt>
      <trkpt lat="43.505" lon="6.3806">
        <ele>266</ele>
        <time>2022-01-21T15:37:21.000Z</time>
      </trkpt>
      <trkpt lat="43.505" lon="6.3806">
        <ele>266</ele>
        <time>2022-01-21T15:37:22.000Z</time>
      </trkpt>
      <trkpt lat="43.505" lon="6.3806">
        <ele>266</ele>
        <time>2022-01-21T15:37:23.000Z</time>
      </trkpt>
      <trkpt lat="43.505" lon="6.3806">
        <ele>266</ele>
        <time>2022-01-21T15:37:24.000Z</time>
      </trkpt>
      <trkpt lat="43.505" lon="6.3806">
        <ele>266</ele>
        <time>2022-01-21T15:37:25.000Z</time>
      </trkpt>
      <trkpt lat="43.505" lon="6.3806">
        <ele>266</ele>
        <time>2022-01-21T15:37:26.000Z</time>
      </trkpt>
      <trkpt lat="43.505" lon="6.3806">
        <ele>266</ele>
        <time>2022-01-21T15:37:27.000Z</time>
      </trkpt>
      <trkpt lat="43.505" lon="6.3806">
        <ele>266</ele>
        <time>2022-01-21T15:37:28.000Z</time>
      </trkpt>
      <trkpt lat="43.505" lon="6.3806">
        <ele>266</ele>
        <time>2022-01-21T15:37:29.000Z</time>
      </trkpt>
      <trkpt lat="43.505" lon="6.3806">
        <ele>266</ele>
        <time>2022-01-21T15:37:30.000Z</time>
      </trkpt>
      <trkpt lat="43.505" lon="6.3806">
        <ele>266</ele>
        <time>2022-01-21T15:37:31.000Z</time>
      </trkpt>
      <trkpt lat="43.505" lon="6.3806">
        <ele>266</ele>
        <time>2022-01-21T15:37:32.000Z</time>
      </trkpt>
      <trkpt lat="43.505" lon="6.3806">
        <ele>266</ele>
        <time>2022-01-21T15:37:33.000Z</time>
      </trkpt>
      <trkpt lat="43.505" lon="6.3806">
        <ele>266</ele>
        <time>2022-01-21T15:37:34.000Z</time>
      </trkpt>
      <trkpt lat="43.505" lon="6.3806">
        <ele>266</ele>
        <time>2022-01-21T15:37:35.000Z</time>
      </trkpt>
      <trkpt lat="43.505" lon="6.3806">
        <ele>266</ele>
        <time>2022-01-21T15:37:36.000Z</time>
      </trkpt>
      <trkpt lat="43.505" lon="6.38061">
        <ele>266</ele>
        <time>2022-01-21T15:37:37.000Z</time>
      </trkpt>
      <trkpt lat="43.505" lon="6.38061">
        <ele>266</ele>
        <time>2022-01-21T15:37:38.000Z</time>
      </trkpt>
      <trkpt lat="43.505" lon="6.38061">
        <ele>266</ele>
        <time>2022-01-21T15:37:39.000Z</time>
      </trkpt>
      <trkpt lat="43.505" lon="6.38061">
        <ele>266</ele>
        <time>2022-01-21T15:37:40.000Z</time>
      </trkpt>
      <trkpt lat="43.505" lon="6.38061">
        <ele>266</ele>
        <time>2022-01-21T15:37:41.000Z</time>
      </trkpt>
      <trkpt lat="43.505" lon="6.38062">
        <ele>266</ele>
        <time>2022-01-21T15:37:42.000Z</time>
      </trkpt>
      <trkpt lat="43.505" lon="6.38062">
        <ele>266</ele>
        <time>2022-01-21T15:37:43.000Z</time>
      </trkpt>
      <trkpt lat="43.505" lon="6.38062">
        <ele>266</ele>
        <time>2022-01-21T15:37:44.000Z</time>
      </trkpt>
      <trkpt lat="43.505" lon="6.38062">
        <ele>266</ele>
        <time>2022-01-21T15:37:45.000Z</time>
      </trkpt>
      <trkpt lat="43.505" lon="6.38062">
        <ele>266</ele>
        <time>2022-01-21T15:37:46.000Z</time>
      </trkpt>
      <trkpt lat="43.505" lon="6.38062">
        <ele>266</ele>
        <time>2022-01-21T15:37:47.000Z</time>
      </trkpt>
      <trkpt lat="43.505" lon="6.38062">
        <ele>266</ele>
        <time>2022-01-21T15:37:48.000Z</time>
      </trkpt>
      <trkpt lat="43.505" lon="6.38062">
        <ele>266</ele>
        <time>2022-01-21T15:37:49.000Z</time>
      </trkpt>
      <trkpt lat="43.505" lon="6.38062">
        <ele>266</ele>
        <time>2022-01-21T15:37:50.000Z</time>
      </trkpt>
      <trkpt lat="43.505" lon="6.38062">
        <ele>266</ele>
        <time>2022-01-21T15:37:51.000Z</time>
      </trkpt>
      <trkpt lat="43.505" lon="6.38062">
        <ele>266</ele>
        <time>2022-01-21T15:37:52.000Z</time>
      </trkpt>
      <trkpt lat="43.505" lon="6.38062">
        <ele>266</ele>
        <time>2022-01-21T15:37:53.000Z</time>
      </trkpt>
      <trkpt lat="43.505" lon="6.38062">
        <ele>266</ele>
        <time>2022-01-21T15:37:54.000Z</time>
      </trkpt>
      <trkpt lat="43.505" lon="6.38062">
        <ele>266</ele>
        <time>2022-01-21T15:37:55.000Z</time>
      </trkpt>
      <trkpt lat="43.505" lon="6.38062">
        <ele>266</ele>
        <time>2022-01-21T15:37:56.000Z</time>
      </trkpt>
      <trkpt lat="43.505" lon="6.38062">
        <ele>266</ele>
        <time>2022-01-21T15:37:57.000Z</time>
      </trkpt>
      <trkpt lat="43.505" lon="6.38062">
        <ele>266</ele>
        <time>2022-01-21T15:37:58.000Z</time>
      </trkpt>
      <trkpt lat="43.505" lon="6.38062">
        <ele>266</ele>
        <time>2022-01-21T15:37:59.000Z</time>
      </trkpt>
      <trkpt lat="43.505" lon="6.38062">
        <ele>266</ele>
        <time>2022-01-21T15:38:00.000Z</time>
      </trkpt>
      <trkpt lat="43.505" lon="6.38062">
        <ele>266</ele>
        <time>2022-01-21T15:38:01.000Z</time>
      </trkpt>
      <trkpt lat="43.505" lon="6.38062">
        <ele>266</ele>
        <time>2022-01-21T15:38:02.000Z</time>
      </trkpt>
      <trkpt lat="43.505" lon="6.38062">
        <ele>266</ele>
        <time>2022-01-21T15:38:03.000Z</time>
      </trkpt>
      <trkpt lat="43.505" lon="6.38062">
        <ele>266</ele>
        <time>2022-01-21T15:38:04.000Z</time>
      </trkpt>
      <trkpt lat="43.505" lon="6.38062">
        <ele>266</ele>
        <time>2022-01-21T15:38:05.000Z</time>
      </trkpt>
      <trkpt lat="43.505" lon="6.38062">
        <ele>266</ele>
        <time>2022-01-21T15:38:06.000Z</time>
      </trkpt>
      <trkpt lat="43.505" lon="6.38062">
        <ele>266</ele>
        <time>2022-01-21T15:38:07.000Z</time>
      </trkpt>
      <trkpt lat="43.505" lon="6.38062">
        <ele>266</ele>
        <time>2022-01-21T15:38:08.000Z</time>
      </trkpt>
      <trkpt lat="43.505" lon="6.38062">
        <ele>266</ele>
        <time>2022-01-21T15:38:09.000Z</time>
      </trkpt>
      <trkpt lat="43.505" lon="6.38062">
        <ele>266</ele>
        <time>2022-01-21T15:38:10.000Z</time>
      </trkpt>
      <trkpt lat="43.505" lon="6.38062">
        <ele>266</ele>
        <time>2022-01-21T15:38:11.000Z</time>
      </trkpt>
      <trkpt lat="43.505" lon="6.38062">
        <ele>266</ele>
        <time>2022-01-21T15:38:12.000Z</time>
      </trkpt>
      <trkpt lat="43.505" lon="6.38062">
        <ele>266</ele>
        <time>2022-01-21T15:38:13.000Z</time>
      </trkpt>
      <trkpt lat="43.505" lon="6.38062">
        <ele>266</ele>
        <time>2022-01-21T15:38:14.000Z</time>
      </trkpt>
      <trkpt lat="43.505" lon="6.38062">
        <ele>266</ele>
        <time>2022-01-21T15:38:15.000Z</time>
      </trkpt>
      <trkpt lat="43.505" lon="6.38062">
        <ele>266</ele>
        <time>2022-01-21T15:38:16.000Z</time>
      </trkpt>
      <trkpt lat="43.505" lon="6.38062">
        <ele>266</ele>
        <time>2022-01-21T15:38:17.000Z</time>
      </trkpt>
      <trkpt lat="43.505" lon="6.38062">
        <ele>266</ele>
        <time>2022-01-21T15:38:18.000Z</time>
      </trkpt>
      <trkpt lat="43.505" lon="6.38062">
        <ele>266</ele>
        <time>2022-01-21T15:38:19.000Z</time>
      </trkpt>
      <trkpt lat="43.505" lon="6.38062">
        <ele>266</ele>
        <time>2022-01-21T15:38:20.000Z</time>
      </trkpt>
      <trkpt lat="43.50499" lon="6.38062">
        <ele>266</ele>
        <time>2022-01-21T15:38:21.000Z</time>
      </trkpt>
      <trkpt lat="43.50499" lon="6.38062">
        <ele>266</ele>
        <time>2022-01-21T15:38:22.000Z</time>
      </trkpt>
      <trkpt lat="43.50499" lon="6.38062">
        <ele>266</ele>
        <time>2022-01-21T15:38:23.000Z</time>
      </trkpt>
      <trkpt lat="43.50499" lon="6.38062">
        <ele>266</ele>
        <time>2022-01-21T15:38:24.000Z</time>
      </trkpt>
      <trkpt lat="43.50499" lon="6.38062">
        <ele>266</ele>
        <time>2022-01-21T15:38:25.000Z</time>
      </trkpt>
      <trkpt lat="43.50499" lon="6.38062">
        <ele>266</ele>
        <time>2022-01-21T15:38:26.000Z</time>
      </trkpt>
      <trkpt lat="43.50499" lon="6.38062">
        <ele>266</ele>
        <time>2022-01-21T15:38:27.000Z</time>
      </trkpt>
      <trkpt lat="43.50499" lon="6.38062">
        <ele>266</ele>
        <time>2022-01-21T15:38:28.000Z</time>
      </trkpt>
      <trkpt lat="43.50499" lon="6.38062">
        <ele>266</ele>
        <time>2022-01-21T15:38:29.000Z</time>
      </trkpt>
      <trkpt lat="43.50499" lon="6.38062">
        <ele>266</ele>
        <time>2022-01-21T15:38:30.000Z</time>
      </trkpt>
      <trkpt lat="43.50499" lon="6.38062">
        <ele>266</ele>
        <time>2022-01-21T15:38:31.000Z</time>
      </trkpt>
      <trkpt lat="43.50499" lon="6.38062">
        <ele>266</ele>
        <time>2022-01-21T15:38:32.000Z</time>
      </trkpt>
      <trkpt lat="43.50499" lon="6.38062">
        <ele>266</ele>
        <time>2022-01-21T15:38:33.000Z</time>
      </trkpt>
      <trkpt lat="43.50499" lon="6.38062">
        <ele>266</ele>
        <time>2022-01-21T15:38:34.000Z</time>
      </trkpt>
      <trkpt lat="43.50499" lon="6.38062">
        <ele>266</ele>
        <time>2022-01-21T15:38:35.000Z</time>
      </trkpt>
      <trkpt lat="43.50499" lon="6.38062">
        <ele>266</ele>
        <time>2022-01-21T15:38:36.000Z</time>
      </trkpt>
      <trkpt lat="43.50499" lon="6.38062">
        <ele>266</ele>
        <time>2022-01-21T15:38:37.000Z</time>
      </trkpt>
      <trkpt lat="43.50499" lon="6.38062">
        <ele>266</ele>
        <time>2022-01-21T15:38:38.000Z</time>
      </trkpt>
      <trkpt lat="43.50499" lon="6.38062">
        <ele>266</ele>
        <time>2022-01-21T15:38:39.000Z</time>
      </trkpt>
      <trkpt lat="43.505" lon="6.38062">
        <ele>266</ele>
        <time>2022-01-21T15:38:40.000Z</time>
      </trkpt>
      <trkpt lat="43.505" lon="6.38062">
        <ele>266</ele>
        <time>2022-01-21T15:38:41.000Z</time>
      </trkpt>
      <trkpt lat="43.505" lon="6.38062">
        <ele>266</ele>
        <time>2022-01-21T15:38:42.000Z</time>
      </trkpt>
      <trkpt lat="43.505" lon="6.38062">
        <ele>266</ele>
        <time>2022-01-21T15:38:43.000Z</time>
      </trkpt>
      <trkpt lat="43.505" lon="6.38062">
        <ele>266</ele>
        <time>2022-01-21T15:38:44.000Z</time>
      </trkpt>
      <trkpt lat="43.505" lon="6.38062">
        <ele>266</ele>
        <time>2022-01-21T15:38:45.000Z</time>
      </trkpt>
      <trkpt lat="43.505" lon="6.38062">
        <ele>266</ele>
        <time>2022-01-21T15:38:46.000Z</time>
      </trkpt>
      <trkpt lat="43.505" lon="6.38062">
        <ele>266</ele>
        <time>2022-01-21T15:38:47.000Z</time>
      </trkpt>
      <trkpt lat="43.505" lon="6.38062">
        <ele>266</ele>
        <time>2022-01-21T15:38:48.000Z</time>
      </trkpt>
      <trkpt lat="43.505" lon="6.38062">
        <ele>266</ele>
        <time>2022-01-21T15:38:49.000Z</time>
      </trkpt>
      <trkpt lat="43.505" lon="6.38062">
        <ele>266</ele>
        <time>2022-01-21T15:38:50.000Z</time>
      </trkpt>
      <trkpt lat="43.505" lon="6.38062">
        <ele>266</ele>
        <time>2022-01-21T15:38:51.000Z</time>
      </trkpt>
      <trkpt lat="43.505" lon="6.38062">
        <ele>266</ele>
        <time>2022-01-21T15:38:52.000Z</time>
      </trkpt>
      <trkpt lat="43.505" lon="6.38062">
        <ele>266</ele>
        <time>2022-01-21T15:38:53.000Z</time>
      </trkpt>
      <trkpt lat="43.505" lon="6.38062">
        <ele>266</ele>
        <time>2022-01-21T15:38:54.000Z</time>
      </trkpt>
      <trkpt lat="43.505" lon="6.38062">
        <ele>266</ele>
        <time>2022-01-21T15:38:55.000Z</time>
      </trkpt>
      <trkpt lat="43.505" lon="6.38062">
        <ele>266</ele>
        <time>2022-01-21T15:38:56.000Z</time>
      </trkpt>
      <trkpt lat="43.505" lon="6.38062">
        <ele>266</ele>
        <time>2022-01-21T15:38:57.000Z</time>
      </trkpt>
      <trkpt lat="43.505" lon="6.38062">
        <ele>266</ele>
        <time>2022-01-21T15:38:58.000Z</time>
      </trkpt>
      <trkpt lat="43.505" lon="6.38062">
        <ele>266</ele>
        <time>2022-01-21T15:38:59.000Z</time>
      </trkpt>
      <trkpt lat="43.505" lon="6.38062">
        <ele>266</ele>
        <time>2022-01-21T15:39:00.000Z</time>
      </trkpt>
      <trkpt lat="43.505" lon="6.38062">
        <ele>266</ele>
        <time>2022-01-21T15:39:01.000Z</time>
      </trkpt>
      <trkpt lat="43.505" lon="6.38062">
        <ele>266</ele>
        <time>2022-01-21T15:39:02.000Z</time>
      </trkpt>
      <trkpt lat="43.505" lon="6.38062">
        <ele>266</ele>
        <time>2022-01-21T15:39:03.000Z</time>
      </trkpt>
      <trkpt lat="43.505" lon="6.38062">
        <ele>266</ele>
        <time>2022-01-21T15:39:04.000Z</time>
      </trkpt>
      <trkpt lat="43.505" lon="6.38062">
        <ele>266</ele>
        <time>2022-01-21T15:39:05.000Z</time>
      </trkpt>
      <trkpt lat="43.505" lon="6.38062">
        <ele>266</ele>
        <time>2022-01-21T15:39:06.000Z</time>
      </trkpt>
      <trkpt lat="43.505" lon="6.38062">
        <ele>266</ele>
        <time>2022-01-21T15:39:07.000Z</time>
      </trkpt>
      <trkpt lat="43.505" lon="6.38062">
        <ele>266</ele>
        <time>2022-01-21T15:39:08.000Z</time>
      </trkpt>
      <trkpt lat="43.505" lon="6.38062">
        <ele>266</ele>
        <time>2022-01-21T15:39:09.000Z</time>
      </trkpt>
      <trkpt lat="43.505" lon="6.38062">
        <ele>266</ele>
        <time>2022-01-21T15:39:10.000Z</time>
      </trkpt>
      <trkpt lat="43.505" lon="6.38062">
        <ele>266</ele>
        <time>2022-01-21T15:39:11.000Z</time>
      </trkpt>
      <trkpt lat="43.505" lon="6.38062">
        <ele>266</ele>
        <time>2022-01-21T15:39:12.000Z</time>
      </trkpt>
      <trkpt lat="43.505" lon="6.38062">
        <ele>266</ele>
        <time>2022-01-21T15:39:13.000Z</time>
      </trkpt>
      <trkpt lat="43.505" lon="6.38062">
        <ele>266</ele>
        <time>2022-01-21T15:39:14.000Z</time>
      </trkpt>
      <trkpt lat="43.505" lon="6.38062">
        <ele>266</ele>
        <time>2022-01-21T15:39:15.000Z</time>
      </trkpt>
      <trkpt lat="43.505" lon="6.38062">
        <ele>266</ele>
        <time>2022-01-21T15:39:16.000Z</time>
      </trkpt>
      <trkpt lat="43.505" lon="6.38062">
        <ele>266</ele>
        <time>2022-01-21T15:39:17.000Z</time>
      </trkpt>
      <trkpt lat="43.505" lon="6.38062">
        <ele>266</ele>
        <time>2022-01-21T15:39:18.000Z</time>
      </trkpt>
      <trkpt lat="43.505" lon="6.38062">
        <ele>266</ele>
        <time>2022-01-21T15:39:19.000Z</time>
      </trkpt>
      <trkpt lat="43.505" lon="6.38062">
        <ele>266</ele>
        <time>2022-01-21T15:39:20.000Z</time>
      </trkpt>
      <trkpt lat="43.505" lon="6.38062">
        <ele>266</ele>
        <time>2022-01-21T15:39:21.000Z</time>
      </trkpt>
      <trkpt lat="43.505" lon="6.38062">
        <ele>266</ele>
        <time>2022-01-21T15:39:22.000Z</time>
      </trkpt>
      <trkpt lat="43.505" lon="6.38062">
        <ele>266</ele>
        <time>2022-01-21T15:39:23.000Z</time>
      </trkpt>
      <trkpt lat="43.505" lon="6.38062">
        <ele>266</ele>
        <time>2022-01-21T15:39:24.000Z</time>
      </trkpt>
      <trkpt lat="43.505" lon="6.38062">
        <ele>266</ele>
        <time>2022-01-21T15:39:25.000Z</time>
      </trkpt>
      <trkpt lat="43.505" lon="6.38062">
        <ele>266</ele>
        <time>2022-01-21T15:39:26.000Z</time>
      </trkpt>
      <trkpt lat="43.505" lon="6.38062">
        <ele>266</ele>
        <time>2022-01-21T15:39:27.000Z</time>
      </trkpt>
      <trkpt lat="43.505" lon="6.38062">
        <ele>266</ele>
        <time>2022-01-21T15:39:28.000Z</time>
      </trkpt>
      <trkpt lat="43.505" lon="6.38062">
        <ele>266</ele>
        <time>2022-01-21T15:39:29.000Z</time>
      </trkpt>
      <trkpt lat="43.505" lon="6.38062">
        <ele>266</ele>
        <time>2022-01-21T15:39:30.000Z</time>
      </trkpt>
      <trkpt lat="43.505" lon="6.38062">
        <ele>266</ele>
        <time>2022-01-21T15:39:31.000Z</time>
      </trkpt>
      <trkpt lat="43.505" lon="6.38062">
        <ele>266</ele>
        <time>2022-01-21T15:39:32.000Z</time>
      </trkpt>
      <trkpt lat="43.505" lon="6.38062">
        <ele>266</ele>
        <time>2022-01-21T15:39:33.000Z</time>
      </trkpt>
      <trkpt lat="43.505" lon="6.38062">
        <ele>266</ele>
        <time>2022-01-21T15:39:34.000Z</time>
      </trkpt>
      <trkpt lat="43.505" lon="6.38062">
        <ele>266</ele>
        <time>2022-01-21T15:39:35.000Z</time>
      </trkpt>
      <trkpt lat="43.505" lon="6.38062">
        <ele>266</ele>
        <time>2022-01-21T15:39:36.000Z</time>
      </trkpt>
      <trkpt lat="43.505" lon="6.38062">
        <ele>266</ele>
        <time>2022-01-21T15:39:37.000Z</time>
      </trkpt>
      <trkpt lat="43.505" lon="6.38062">
        <ele>266</ele>
        <time>2022-01-21T15:39:38.000Z</time>
      </trkpt>
      <trkpt lat="43.505" lon="6.38062">
        <ele>266</ele>
        <time>2022-01-21T15:39:39.000Z</time>
      </trkpt>
      <trkpt lat="43.505" lon="6.38062">
        <ele>266</ele>
        <time>2022-01-21T15:39:40.000Z</time>
      </trkpt>
      <trkpt lat="43.505" lon="6.38062">
        <ele>266</ele>
        <time>2022-01-21T15:39:41.000Z</time>
      </trkpt>
      <trkpt lat="43.505" lon="6.38062">
        <ele>266</ele>
        <time>2022-01-21T15:39:42.000Z</time>
      </trkpt>
      <trkpt lat="43.505" lon="6.38062">
        <ele>266</ele>
        <time>2022-01-21T15:39:43.000Z</time>
      </trkpt>
      <trkpt lat="43.505" lon="6.38062">
        <ele>266</ele>
        <time>2022-01-21T15:39:44.000Z</time>
      </trkpt>
      <trkpt lat="43.505" lon="6.38062">
        <ele>266</ele>
        <time>2022-01-21T15:39:45.000Z</time>
      </trkpt>
      <trkpt lat="43.505" lon="6.38062">
        <ele>266</ele>
        <time>2022-01-21T15:39:46.000Z</time>
      </trkpt>
      <trkpt lat="43.505" lon="6.38062">
        <ele>266</ele>
        <time>2022-01-21T15:39:47.000Z</time>
      </trkpt>
      <trkpt lat="43.505" lon="6.38062">
        <ele>266</ele>
        <time>2022-01-21T15:39:48.000Z</time>
      </trkpt>
      <trkpt lat="43.505" lon="6.38062">
        <ele>266</ele>
        <time>2022-01-21T15:39:49.000Z</time>
      </trkpt>
      <trkpt lat="43.505" lon="6.38062">
        <ele>266</ele>
        <time>2022-01-21T15:39:50.000Z</time>
      </trkpt>
      <trkpt lat="43.505" lon="6.38062">
        <ele>266</ele>
        <time>2022-01-21T15:39:51.000Z</time>
      </trkpt>
      <trkpt lat="43.50498" lon="6.38061">
        <ele>266</ele>
        <time>2022-01-21T15:39:52.000Z</time>
      </trkpt>
      <trkpt lat="43.50496" lon="6.38059">
        <ele>266</ele>
        <time>2022-01-21T15:39:53.000Z</time>
      </trkpt>
      <trkpt lat="43.50493" lon="6.38058">
        <ele>266</ele>
        <time>2022-01-21T15:39:54.000Z</time>
      </trkpt>
      <trkpt lat="43.5049" lon="6.38056">
        <ele>266</ele>
        <time>2022-01-21T15:39:55.000Z</time>
      </trkpt>
      <trkpt lat="43.50488" lon="6.38054">
        <ele>266</ele>
        <time>2022-01-21T15:39:56.000Z</time>
      </trkpt>
      <trkpt lat="43.50488" lon="6.38054">
        <ele>266</ele>
        <time>2022-01-21T15:39:57.000Z</time>
      </trkpt>
      <trkpt lat="43.50488" lon="6.38054">
        <ele>266</ele>
        <time>2022-01-21T15:39:58.000Z</time>
      </trkpt>
      <trkpt lat="43.50488" lon="6.38054">
        <ele>266</ele>
        <time>2022-01-21T15:39:59.000Z</time>
      </trkpt>
      <trkpt lat="43.50488" lon="6.38054">
        <ele>266</ele>
        <time>2022-01-21T15:40:00.000Z</time>
      </trkpt>
      <trkpt lat="43.50488" lon="6.38054">
        <ele>266</ele>
        <time>2022-01-21T15:40:01.000Z</time>
      </trkpt>
      <trkpt lat="43.50488" lon="6.38054">
        <ele>266</ele>
        <time>2022-01-21T15:40:02.000Z</time>
      </trkpt>
      <trkpt lat="43.50482" lon="6.3805">
        <ele>267</ele>
        <time>2022-01-21T15:40:03.000Z</time>
      </trkpt>
      <trkpt lat="43.50482" lon="6.3805">
        <ele>267</ele>
        <time>2022-01-21T15:40:04.000Z</time>
      </trkpt>
      <trkpt lat="43.50481" lon="6.38049">
        <ele>267</ele>
        <time>2022-01-21T15:40:05.000Z</time>
      </trkpt>
      <trkpt lat="43.50481" lon="6.38049">
        <ele>267</ele>
        <time>2022-01-21T15:40:06.000Z</time>
      </trkpt>
      <trkpt lat="43.50481" lon="6.38049">
        <ele>267</ele>
        <time>2022-01-21T15:40:07.000Z</time>
      </trkpt>
      <trkpt lat="43.5048" lon="6.38049">
        <ele>267</ele>
        <time>2022-01-21T15:40:08.000Z</time>
      </trkpt>
      <trkpt lat="43.50479" lon="6.38048">
        <ele>267</ele>
        <time>2022-01-21T15:40:09.000Z</time>
      </trkpt>
      <trkpt lat="43.50478" lon="6.38048">
        <ele>267</ele>
        <time>2022-01-21T15:40:10.000Z</time>
      </trkpt>
      <trkpt lat="43.50477" lon="6.38047">
        <ele>267</ele>
        <time>2022-01-21T15:40:11.000Z</time>
      </trkpt>
      <trkpt lat="43.50477" lon="6.38047">
        <ele>268</ele>
        <time>2022-01-21T15:40:12.000Z</time>
      </trkpt>
      <trkpt lat="43.50477" lon="6.38047">
        <ele>268</ele>
        <time>2022-01-21T15:40:13.000Z</time>
      </trkpt>
      <trkpt lat="43.50477" lon="6.38047">
        <ele>268</ele>
        <time>2022-01-21T15:40:14.000Z</time>
      </trkpt>
      <trkpt lat="43.50477" lon="6.38047">
        <ele>268</ele>
        <time>2022-01-21T15:40:15.000Z</time>
      </trkpt>
      <trkpt lat="43.50476" lon="6.38047">
        <ele>268</ele>
        <time>2022-01-21T15:40:16.000Z</time>
      </trkpt>
      <trkpt lat="43.50476" lon="6.38047">
        <ele>268</ele>
        <time>2022-01-21T15:40:17.000Z</time>
      </trkpt>
      <trkpt lat="43.50476" lon="6.38046">
        <ele>268</ele>
        <time>2022-01-21T15:40:18.000Z</time>
      </trkpt>
      <trkpt lat="43.50475" lon="6.38046">
        <ele>268</ele>
        <time>2022-01-21T15:40:19.000Z</time>
      </trkpt>
      <trkpt lat="43.50474" lon="6.38045">
        <ele>268</ele>
        <time>2022-01-21T15:40:20.000Z</time>
      </trkpt>
      <trkpt lat="43.50474" lon="6.38045">
        <ele>268</ele>
        <time>2022-01-21T15:40:21.000Z</time>
      </trkpt>
      <trkpt lat="43.50474" lon="6.38045">
        <ele>268</ele>
        <time>2022-01-21T15:40:22.000Z</time>
      </trkpt>
      <trkpt lat="43.50473" lon="6.38045">
        <ele>268</ele>
        <time>2022-01-21T15:40:23.000Z</time>
      </trkpt>
      <trkpt lat="43.50473" lon="6.38044">
        <ele>268</ele>
        <time>2022-01-21T15:40:24.000Z</time>
      </trkpt>
      <trkpt lat="43.50473" lon="6.38044">
        <ele>268</ele>
        <time>2022-01-21T15:40:25.000Z</time>
      </trkpt>
      <trkpt lat="43.50473" lon="6.38044">
        <ele>268</ele>
        <time>2022-01-21T15:40:26.000Z</time>
      </trkpt>
      <trkpt lat="43.50472" lon="6.38044">
        <ele>268</ele>
        <time>2022-01-21T15:40:27.000Z</time>
      </trkpt>
      <trkpt lat="43.50472" lon="6.38043">
        <ele>268</ele>
        <time>2022-01-21T15:40:28.000Z</time>
      </trkpt>
      <trkpt lat="43.50472" lon="6.38043">
        <ele>268</ele>
        <time>2022-01-21T15:40:29.000Z</time>
      </trkpt>
      <trkpt lat="43.50471" lon="6.38042">
        <ele>268</ele>
        <time>2022-01-21T15:40:30.000Z</time>
      </trkpt>
      <trkpt lat="43.50471" lon="6.38042">
        <ele>268</ele>
        <time>2022-01-21T15:40:31.000Z</time>
      </trkpt>
      <trkpt lat="43.5047" lon="6.38042">
        <ele>268</ele>
        <time>2022-01-21T15:40:32.000Z</time>
      </trkpt>
      <trkpt lat="43.5047" lon="6.38041">
        <ele>268</ele>
        <time>2022-01-21T15:40:33.000Z</time>
      </trkpt>
      <trkpt lat="43.50469" lon="6.38041">
        <ele>268</ele>
        <time>2022-01-21T15:40:34.000Z</time>
      </trkpt>
      <trkpt lat="43.50469" lon="6.38041">
        <ele>268</ele>
        <time>2022-01-21T15:40:35.000Z</time>
      </trkpt>
      <trkpt lat="43.50468" lon="6.38041">
        <ele>268</ele>
        <time>2022-01-21T15:40:36.000Z</time>
      </trkpt>
      <trkpt lat="43.50467" lon="6.3804">
        <ele>268</ele>
        <time>2022-01-21T15:40:37.000Z</time>
      </trkpt>
      <trkpt lat="43.50466" lon="6.38039">
        <ele>268</ele>
        <time>2022-01-21T15:40:38.000Z</time>
      </trkpt>
      <trkpt lat="43.50465" lon="6.38039">
        <ele>268</ele>
        <time>2022-01-21T15:40:39.000Z</time>
      </trkpt>
      <trkpt lat="43.50464" lon="6.38038">
        <ele>269</ele>
        <time>2022-01-21T15:40:40.000Z</time>
      </trkpt>
      <trkpt lat="43.50463" lon="6.38037">
        <ele>270</ele>
        <time>2022-01-21T15:40:41.000Z</time>
      </trkpt>
      <trkpt lat="43.50462" lon="6.38037">
        <ele>270</ele>
        <time>2022-01-21T15:40:42.000Z</time>
      </trkpt>
      <trkpt lat="43.50462" lon="6.38037">
        <ele>270</ele>
        <time>2022-01-21T15:40:43.000Z</time>
      </trkpt>
      <trkpt lat="43.50462" lon="6.38037">
        <ele>270</ele>
        <time>2022-01-21T15:40:44.000Z</time>
      </trkpt>
      <trkpt lat="43.50461" lon="6.38036">
        <ele>270</ele>
        <time>2022-01-21T15:40:45.000Z</time>
      </trkpt>
      <trkpt lat="43.50461" lon="6.38036">
        <ele>270</ele>
        <time>2022-01-21T15:40:46.000Z</time>
      </trkpt>
      <trkpt lat="43.5046" lon="6.38036">
        <ele>270</ele>
        <time>2022-01-21T15:40:47.000Z</time>
      </trkpt>
      <trkpt lat="43.5046" lon="6.38035">
        <ele>270</ele>
        <time>2022-01-21T15:40:48.000Z</time>
      </trkpt>
      <trkpt lat="43.50459" lon="6.38034">
        <ele>270</ele>
        <time>2022-01-21T15:40:49.000Z</time>
      </trkpt>
      <trkpt lat="43.50458" lon="6.38034">
        <ele>270</ele>
        <time>2022-01-21T15:40:50.000Z</time>
      </trkpt>
      <trkpt lat="43.50457" lon="6.38033">
        <ele>270</ele>
        <time>2022-01-21T15:40:51.000Z</time>
      </trkpt>
      <trkpt lat="43.50456" lon="6.38032">
        <ele>271</ele>
        <time>2022-01-21T15:40:52.000Z</time>
      </trkpt>
      <trkpt lat="43.50455" lon="6.38031">
        <ele>271</ele>
        <time>2022-01-21T15:40:53.000Z</time>
      </trkpt>
      <trkpt lat="43.50455" lon="6.38031">
        <ele>271</ele>
        <time>2022-01-21T15:40:54.000Z</time>
      </trkpt>
      <trkpt lat="43.50454" lon="6.3803">
        <ele>271</ele>
        <time>2022-01-21T15:40:55.000Z</time>
      </trkpt>
      <trkpt lat="43.50453" lon="6.38029">
        <ele>271</ele>
        <time>2022-01-21T15:40:56.000Z</time>
      </trkpt>
      <trkpt lat="43.50452" lon="6.38029">
        <ele>271</ele>
        <time>2022-01-21T15:40:57.000Z</time>
      </trkpt>
      <trkpt lat="43.50452" lon="6.38028">
        <ele>271</ele>
        <time>2022-01-21T15:40:58.000Z</time>
      </trkpt>
      <trkpt lat="43.50451" lon="6.38028">
        <ele>271</ele>
        <time>2022-01-21T15:40:59.000Z</time>
      </trkpt>
      <trkpt lat="43.5045" lon="6.38027">
        <ele>271</ele>
        <time>2022-01-21T15:41:00.000Z</time>
      </trkpt>
      <trkpt lat="43.50449" lon="6.38026">
        <ele>271</ele>
        <time>2022-01-21T15:41:01.000Z</time>
      </trkpt>
      <trkpt lat="43.50448" lon="6.38026">
        <ele>271</ele>
        <time>2022-01-21T15:41:02.000Z</time>
      </trkpt>
      <trkpt lat="43.50448" lon="6.38025">
        <ele>271</ele>
        <time>2022-01-21T15:41:03.000Z</time>
      </trkpt>
      <trkpt lat="43.50447" lon="6.38024">
        <ele>271</ele>
        <time>2022-01-21T15:41:04.000Z</time>
      </trkpt>
      <trkpt lat="43.50445" lon="6.38024">
        <ele>271</ele>
        <time>2022-01-21T15:41:05.000Z</time>
      </trkpt>
      <trkpt lat="43.50444" lon="6.38023">
        <ele>271</ele>
        <time>2022-01-21T15:41:06.000Z</time>
      </trkpt>
      <trkpt lat="43.50443" lon="6.38022">
        <ele>271</ele>
        <time>2022-01-21T15:41:07.000Z</time>
      </trkpt>
      <trkpt lat="43.50443" lon="6.38022">
        <ele>271</ele>
        <time>2022-01-21T15:41:08.000Z</time>
      </trkpt>
      <trkpt lat="43.50442" lon="6.38022">
        <ele>271</ele>
        <time>2022-01-21T15:41:09.000Z</time>
      </trkpt>
      <trkpt lat="43.50442" lon="6.38022">
        <ele>272</ele>
        <time>2022-01-21T15:41:10.000Z</time>
      </trkpt>
      <trkpt lat="43.50441" lon="6.38021">
        <ele>272</ele>
        <time>2022-01-21T15:41:11.000Z</time>
      </trkpt>
      <trkpt lat="43.50441" lon="6.38021">
        <ele>272</ele>
        <time>2022-01-21T15:41:12.000Z</time>
      </trkpt>
      <trkpt lat="43.5044" lon="6.3802">
        <ele>272</ele>
        <time>2022-01-21T15:41:13.000Z</time>
      </trkpt>
      <trkpt lat="43.5044" lon="6.3802">
        <ele>272</ele>
        <time>2022-01-21T15:41:14.000Z</time>
      </trkpt>
      <trkpt lat="43.5044" lon="6.3802">
        <ele>272</ele>
        <time>2022-01-21T15:41:15.000Z</time>
      </trkpt>
      <trkpt lat="43.50439" lon="6.38019">
        <ele>272</ele>
        <time>2022-01-21T15:41:16.000Z</time>
      </trkpt>
      <trkpt lat="43.50439" lon="6.38019">
        <ele>272</ele>
        <time>2022-01-21T15:41:17.000Z</time>
      </trkpt>
      <trkpt lat="43.50439" lon="6.38019">
        <ele>272</ele>
        <time>2022-01-21T15:41:18.000Z</time>
      </trkpt>
      <trkpt lat="43.50438" lon="6.38019">
        <ele>273</ele>
        <time>2022-01-21T15:41:19.000Z</time>
      </trkpt>
      <trkpt lat="43.50438" lon="6.38018">
        <ele>273</ele>
        <time>2022-01-21T15:41:20.000Z</time>
      </trkpt>
      <trkpt lat="43.50438" lon="6.38018">
        <ele>273</ele>
        <time>2022-01-21T15:41:21.000Z</time>
      </trkpt>
      <trkpt lat="43.50438" lon="6.38018">
        <ele>273</ele>
        <time>2022-01-21T15:41:22.000Z</time>
      </trkpt>
      <trkpt lat="43.50437" lon="6.38018">
        <ele>273</ele>
        <time>2022-01-21T15:41:23.000Z</time>
      </trkpt>
      <trkpt lat="43.50437" lon="6.38017">
        <ele>273</ele>
        <time>2022-01-21T15:41:24.000Z</time>
      </trkpt>
      <trkpt lat="43.50436" lon="6.38017">
        <ele>273</ele>
        <time>2022-01-21T15:41:25.000Z</time>
      </trkpt>
      <trkpt lat="43.50436" lon="6.38016">
        <ele>273</ele>
        <time>2022-01-21T15:41:26.000Z</time>
      </trkpt>
      <trkpt lat="43.50436" lon="6.38016">
        <ele>273</ele>
        <time>2022-01-21T15:41:27.000Z</time>
      </trkpt>
      <trkpt lat="43.50435" lon="6.38015">
        <ele>273</ele>
        <time>2022-01-21T15:41:28.000Z</time>
      </trkpt>
      <trkpt lat="43.50435" lon="6.38015">
        <ele>273</ele>
        <time>2022-01-21T15:41:29.000Z</time>
      </trkpt>
      <trkpt lat="43.50435" lon="6.38015">
        <ele>273</ele>
        <time>2022-01-21T15:41:30.000Z</time>
      </trkpt>
      <trkpt lat="43.50435" lon="6.38015">
        <ele>273</ele>
        <time>2022-01-21T15:41:31.000Z</time>
      </trkpt>
      <trkpt lat="43.50434" lon="6.38014">
        <ele>273</ele>
        <time>2022-01-21T15:41:32.000Z</time>
      </trkpt>
      <trkpt lat="43.50433" lon="6.38014">
        <ele>273</ele>
        <time>2022-01-21T15:41:33.000Z</time>
      </trkpt>
      <trkpt lat="43.50433" lon="6.38013">
        <ele>273</ele>
        <time>2022-01-21T15:41:34.000Z</time>
      </trkpt>
      <trkpt lat="43.50432" lon="6.38011">
        <ele>273</ele>
        <time>2022-01-21T15:41:35.000Z</time>
      </trkpt>
      <trkpt lat="43.50431" lon="6.3801">
        <ele>273</ele>
        <time>2022-01-21T15:41:36.000Z</time>
      </trkpt>
      <trkpt lat="43.5043" lon="6.38008">
        <ele>274</ele>
        <time>2022-01-21T15:41:37.000Z</time>
      </trkpt>
      <trkpt lat="43.50429" lon="6.38007">
        <ele>275</ele>
        <time>2022-01-21T15:41:38.000Z</time>
      </trkpt>
      <trkpt lat="43.50428" lon="6.38006">
        <ele>275</ele>
        <time>2022-01-21T15:41:39.000Z</time>
      </trkpt>
      <trkpt lat="43.50427" lon="6.38005">
        <ele>276</ele>
        <time>2022-01-21T15:41:40.000Z</time>
      </trkpt>
      <trkpt lat="43.50426" lon="6.38004">
        <ele>276</ele>
        <time>2022-01-21T15:41:41.000Z</time>
      </trkpt>
      <trkpt lat="43.50425" lon="6.38002">
        <ele>276</ele>
        <time>2022-01-21T15:41:42.000Z</time>
      </trkpt>
      <trkpt lat="43.50423" lon="6.38001">
        <ele>276</ele>
        <time>2022-01-21T15:41:43.000Z</time>
      </trkpt>
      <trkpt lat="43.50422" lon="6.38">
        <ele>277</ele>
        <time>2022-01-21T15:41:44.000Z</time>
      </trkpt>
      <trkpt lat="43.50421" lon="6.37998">
        <ele>277</ele>
        <time>2022-01-21T15:41:45.000Z</time>
      </trkpt>
      <trkpt lat="43.50421" lon="6.37996">
        <ele>277</ele>
        <time>2022-01-21T15:41:46.000Z</time>
      </trkpt>
      <trkpt lat="43.5042" lon="6.37996">
        <ele>277</ele>
        <time>2022-01-21T15:41:47.000Z</time>
      </trkpt>
      <trkpt lat="43.5042" lon="6.37995">
        <ele>277</ele>
        <time>2022-01-21T15:41:48.000Z</time>
      </trkpt>
      <trkpt lat="43.5042" lon="6.37994">
        <ele>277</ele>
        <time>2022-01-21T15:41:49.000Z</time>
      </trkpt>
      <trkpt lat="43.5042" lon="6.37994">
        <ele>277</ele>
        <time>2022-01-21T15:41:50.000Z</time>
      </trkpt>
      <trkpt lat="43.5042" lon="6.37993">
        <ele>277</ele>
        <time>2022-01-21T15:41:51.000Z</time>
      </trkpt>
      <trkpt lat="43.5042" lon="6.37992">
        <ele>278</ele>
        <time>2022-01-21T15:41:52.000Z</time>
      </trkpt>
      <trkpt lat="43.5042" lon="6.37992">
        <ele>278</ele>
        <time>2022-01-21T15:41:53.000Z</time>
      </trkpt>
      <trkpt lat="43.50419" lon="6.37991">
        <ele>278</ele>
        <time>2022-01-21T15:41:54.000Z</time>
      </trkpt>
      <trkpt lat="43.50419" lon="6.3799">
        <ele>278</ele>
        <time>2022-01-21T15:41:55.000Z</time>
      </trkpt>
      <trkpt lat="43.50419" lon="6.3799">
        <ele>278</ele>
        <time>2022-01-21T15:41:56.000Z</time>
      </trkpt>
      <trkpt lat="43.50419" lon="6.37989">
        <ele>278</ele>
        <time>2022-01-21T15:41:57.000Z</time>
      </trkpt>
      <trkpt lat="43.50419" lon="6.37989">
        <ele>278</ele>
        <time>2022-01-21T15:41:58.000Z</time>
      </trkpt>
      <trkpt lat="43.50419" lon="6.37988">
        <ele>278</ele>
        <time>2022-01-21T15:41:59.000Z</time>
      </trkpt>
      <trkpt lat="43.50418" lon="6.37988">
        <ele>278</ele>
        <time>2022-01-21T15:42:00.000Z</time>
      </trkpt>
      <trkpt lat="43.50418" lon="6.37988">
        <ele>278</ele>
        <time>2022-01-21T15:42:01.000Z</time>
      </trkpt>
      <trkpt lat="43.50418" lon="6.37987">
        <ele>278</ele>
        <time>2022-01-21T15:42:02.000Z</time>
      </trkpt>
      <trkpt lat="43.50418" lon="6.37986">
        <ele>278</ele>
        <time>2022-01-21T15:42:03.000Z</time>
      </trkpt>
      <trkpt lat="43.50418" lon="6.37984">
        <ele>278</ele>
        <time>2022-01-21T15:42:04.000Z</time>
      </trkpt>
      <trkpt lat="43.50418" lon="6.37983">
        <ele>278</ele>
        <time>2022-01-21T15:42:05.000Z</time>
      </trkpt>
      <trkpt lat="43.50418" lon="6.37982">
        <ele>278</ele>
        <time>2022-01-21T15:42:06.000Z</time>
      </trkpt>
      <trkpt lat="43.50418" lon="6.37981">
        <ele>278</ele>
        <time>2022-01-21T15:42:07.000Z</time>
      </trkpt>
      <trkpt lat="43.50418" lon="6.37981">
        <ele>278</ele>
        <time>2022-01-21T15:42:08.000Z</time>
      </trkpt>
      <trkpt lat="43.50418" lon="6.3798">
        <ele>279</ele>
        <time>2022-01-21T15:42:09.000Z</time>
      </trkpt>
      <trkpt lat="43.50418" lon="6.3798">
        <ele>279</ele>
        <time>2022-01-21T15:42:10.000Z</time>
      </trkpt>
      <trkpt lat="43.50418" lon="6.37979">
        <ele>279</ele>
        <time>2022-01-21T15:42:11.000Z</time>
      </trkpt>
      <trkpt lat="43.50418" lon="6.37978">
        <ele>279</ele>
        <time>2022-01-21T15:42:12.000Z</time>
      </trkpt>
      <trkpt lat="43.50418" lon="6.37977">
        <ele>279</ele>
        <time>2022-01-21T15:42:13.000Z</time>
      </trkpt>
      <trkpt lat="43.50417" lon="6.37976">
        <ele>279</ele>
        <time>2022-01-21T15:42:14.000Z</time>
      </trkpt>
      <trkpt lat="43.50417" lon="6.37974">
        <ele>279</ele>
        <time>2022-01-21T15:42:15.000Z</time>
      </trkpt>
      <trkpt lat="43.50417" lon="6.37971">
        <ele>279</ele>
        <time>2022-01-21T15:42:16.000Z</time>
      </trkpt>
      <trkpt lat="43.50416" lon="6.37969">
        <ele>279</ele>
        <time>2022-01-21T15:42:17.000Z</time>
      </trkpt>
      <trkpt lat="43.50416" lon="6.37967">
        <ele>279</ele>
        <time>2022-01-21T15:42:18.000Z</time>
      </trkpt>
      <trkpt lat="43.50416" lon="6.37966">
        <ele>279</ele>
        <time>2022-01-21T15:42:19.000Z</time>
      </trkpt>
      <trkpt lat="43.50415" lon="6.37965">
        <ele>279</ele>
        <time>2022-01-21T15:42:20.000Z</time>
      </trkpt>
      <trkpt lat="43.50415" lon="6.37964">
        <ele>279</ele>
        <time>2022-01-21T15:42:21.000Z</time>
      </trkpt>
      <trkpt lat="43.50415" lon="6.37963">
        <ele>280</ele>
        <time>2022-01-21T15:42:22.000Z</time>
      </trkpt>
      <trkpt lat="43.50415" lon="6.37961">
        <ele>280</ele>
        <time>2022-01-21T15:42:23.000Z</time>
      </trkpt>
      <trkpt lat="43.50414" lon="6.37959">
        <ele>280</ele>
        <time>2022-01-21T15:42:24.000Z</time>
      </trkpt>
      <trkpt lat="43.50414" lon="6.37958">
        <ele>280</ele>
        <time>2022-01-21T15:42:25.000Z</time>
      </trkpt>
      <trkpt lat="43.50414" lon="6.37957">
        <ele>280</ele>
        <time>2022-01-21T15:42:26.000Z</time>
      </trkpt>
      <trkpt lat="43.50414" lon="6.37956">
        <ele>280</ele>
        <time>2022-01-21T15:42:27.000Z</time>
      </trkpt>
      <trkpt lat="43.50414" lon="6.37956">
        <ele>280</ele>
        <time>2022-01-21T15:42:28.000Z</time>
      </trkpt>
      <trkpt lat="43.50414" lon="6.37955">
        <ele>280</ele>
        <time>2022-01-21T15:42:29.000Z</time>
      </trkpt>
      <trkpt lat="43.50414" lon="6.37954">
        <ele>280</ele>
        <time>2022-01-21T15:42:30.000Z</time>
      </trkpt>
      <trkpt lat="43.50414" lon="6.37953">
        <ele>280</ele>
        <time>2022-01-21T15:42:31.000Z</time>
      </trkpt>
      <trkpt lat="43.50414" lon="6.37951">
        <ele>280</ele>
        <time>2022-01-21T15:42:32.000Z</time>
      </trkpt>
      <trkpt lat="43.50413" lon="6.37949">
        <ele>281</ele>
        <time>2022-01-21T15:42:33.000Z</time>
      </trkpt>
      <trkpt lat="43.50413" lon="6.37948">
        <ele>281</ele>
        <time>2022-01-21T15:42:34.000Z</time>
      </trkpt>
      <trkpt lat="43.50413" lon="6.37947">
        <ele>282</ele>
        <time>2022-01-21T15:42:35.000Z</time>
      </trkpt>
      <trkpt lat="43.50413" lon="6.37946">
        <ele>282</ele>
        <time>2022-01-21T15:42:36.000Z</time>
      </trkpt>
      <trkpt lat="43.50413" lon="6.37946">
        <ele>282</ele>
        <time>2022-01-21T15:42:37.000Z</time>
      </trkpt>
      <trkpt lat="43.50413" lon="6.37945">
        <ele>282</ele>
        <time>2022-01-21T15:42:38.000Z</time>
      </trkpt>
      <trkpt lat="43.50412" lon="6.37944">
        <ele>282</ele>
        <time>2022-01-21T15:42:39.000Z</time>
      </trkpt>
      <trkpt lat="43.50412" lon="6.37942">
        <ele>282</ele>
        <time>2022-01-21T15:42:40.000Z</time>
      </trkpt>
      <trkpt lat="43.50411" lon="6.3794">
        <ele>282</ele>
        <time>2022-01-21T15:42:41.000Z</time>
      </trkpt>
      <trkpt lat="43.50411" lon="6.37938">
        <ele>282</ele>
        <time>2022-01-21T15:42:42.000Z</time>
      </trkpt>
      <trkpt lat="43.5041" lon="6.37936">
        <ele>282</ele>
        <time>2022-01-21T15:42:43.000Z</time>
      </trkpt>
      <trkpt lat="43.5041" lon="6.37934">
        <ele>282</ele>
        <time>2022-01-21T15:42:44.000Z</time>
      </trkpt>
      <trkpt lat="43.50409" lon="6.37933">
        <ele>281</ele>
        <time>2022-01-21T15:42:45.000Z</time>
      </trkpt>
      <trkpt lat="43.50409" lon="6.37932">
        <ele>281</ele>
        <time>2022-01-21T15:42:46.000Z</time>
      </trkpt>
      <trkpt lat="43.50409" lon="6.37932">
        <ele>281</ele>
        <time>2022-01-21T15:42:47.000Z</time>
      </trkpt>
      <trkpt lat="43.50409" lon="6.37931">
        <ele>281</ele>
        <time>2022-01-21T15:42:48.000Z</time>
      </trkpt>
      <trkpt lat="43.50409" lon="6.37931">
        <ele>281</ele>
        <time>2022-01-21T15:42:49.000Z</time>
      </trkpt>
      <trkpt lat="43.50409" lon="6.37931">
        <ele>281</ele>
        <time>2022-01-21T15:42:50.000Z</time>
      </trkpt>
      <trkpt lat="43.50408" lon="6.3793">
        <ele>281</ele>
        <time>2022-01-21T15:42:51.000Z</time>
      </trkpt>
      <trkpt lat="43.50408" lon="6.3793">
        <ele>281</ele>
        <time>2022-01-21T15:42:52.000Z</time>
      </trkpt>
      <trkpt lat="43.50408" lon="6.37929">
        <ele>281</ele>
        <time>2022-01-21T15:42:53.000Z</time>
      </trkpt>
      <trkpt lat="43.50408" lon="6.37929">
        <ele>281</ele>
        <time>2022-01-21T15:42:54.000Z</time>
      </trkpt>
      <trkpt lat="43.50408" lon="6.37928">
        <ele>281</ele>
        <time>2022-01-21T15:42:55.000Z</time>
      </trkpt>
      <trkpt lat="43.50408" lon="6.37927">
        <ele>281</ele>
        <time>2022-01-21T15:42:56.000Z</time>
      </trkpt>
      <trkpt lat="43.50407" lon="6.37925">
        <ele>281</ele>
        <time>2022-01-21T15:42:57.000Z</time>
      </trkpt>
      <trkpt lat="43.50407" lon="6.37923">
        <ele>281</ele>
        <time>2022-01-21T15:42:58.000Z</time>
      </trkpt>
      <trkpt lat="43.50407" lon="6.37921">
        <ele>281</ele>
        <time>2022-01-21T15:42:59.000Z</time>
      </trkpt>
      <trkpt lat="43.50406" lon="6.3792">
        <ele>281</ele>
        <time>2022-01-21T15:43:00.000Z</time>
      </trkpt>
      <trkpt lat="43.50406" lon="6.37919">
        <ele>281</ele>
        <time>2022-01-21T15:43:01.000Z</time>
      </trkpt>
      <trkpt lat="43.50406" lon="6.37917">
        <ele>281</ele>
        <time>2022-01-21T15:43:02.000Z</time>
      </trkpt>
      <trkpt lat="43.50406" lon="6.37916">
        <ele>281</ele>
        <time>2022-01-21T15:43:03.000Z</time>
      </trkpt>
      <trkpt lat="43.50406" lon="6.37914">
        <ele>281</ele>
        <time>2022-01-21T15:43:04.000Z</time>
      </trkpt>
      <trkpt lat="43.50406" lon="6.37913">
        <ele>281</ele>
        <time>2022-01-21T15:43:05.000Z</time>
      </trkpt>
      <trkpt lat="43.50406" lon="6.37912">
        <ele>281</ele>
        <time>2022-01-21T15:43:06.000Z</time>
      </trkpt>
      <trkpt lat="43.50406" lon="6.37911">
        <ele>281</ele>
        <time>2022-01-21T15:43:07.000Z</time>
      </trkpt>
      <trkpt lat="43.50406" lon="6.3791">
        <ele>281</ele>
        <time>2022-01-21T15:43:08.000Z</time>
      </trkpt>
      <trkpt lat="43.50406" lon="6.3791">
        <ele>281</ele>
        <time>2022-01-21T15:43:09.000Z</time>
      </trkpt>
      <trkpt lat="43.50406" lon="6.37909">
        <ele>281</ele>
        <time>2022-01-21T15:43:10.000Z</time>
      </trkpt>
      <trkpt lat="43.50406" lon="6.37907">
        <ele>281</ele>
        <time>2022-01-21T15:43:11.000Z</time>
      </trkpt>
      <trkpt lat="43.50406" lon="6.37905">
        <ele>282</ele>
        <time>2022-01-21T15:43:12.000Z</time>
      </trkpt>
      <trkpt lat="43.50406" lon="6.37903">
        <ele>282</ele>
        <time>2022-01-21T15:43:13.000Z</time>
      </trkpt>
      <trkpt lat="43.50407" lon="6.379">
        <ele>282</ele>
        <time>2022-01-21T15:43:14.000Z</time>
      </trkpt>
      <trkpt lat="43.50407" lon="6.37898">
        <ele>282</ele>
        <time>2022-01-21T15:43:15.000Z</time>
      </trkpt>
      <trkpt lat="43.50407" lon="6.37897">
        <ele>282</ele>
        <time>2022-01-21T15:43:16.000Z</time>
      </trkpt>
      <trkpt lat="43.50407" lon="6.37895">
        <ele>282</ele>
        <time>2022-01-21T15:43:17.000Z</time>
      </trkpt>
      <trkpt lat="43.50407" lon="6.37894">
        <ele>282</ele>
        <time>2022-01-21T15:43:18.000Z</time>
      </trkpt>
      <trkpt lat="43.50406" lon="6.37892">
        <ele>282</ele>
        <time>2022-01-21T15:43:19.000Z</time>
      </trkpt>
      <trkpt lat="43.50406" lon="6.37891">
        <ele>282</ele>
        <time>2022-01-21T15:43:20.000Z</time>
      </trkpt>
      <trkpt lat="43.50406" lon="6.3789">
        <ele>283</ele>
        <time>2022-01-21T15:43:21.000Z</time>
      </trkpt>
      <trkpt lat="43.50406" lon="6.37889">
        <ele>283</ele>
        <time>2022-01-21T15:43:22.000Z</time>
      </trkpt>
      <trkpt lat="43.50406" lon="6.37888">
        <ele>283</ele>
        <time>2022-01-21T15:43:23.000Z</time>
      </trkpt>
      <trkpt lat="43.50406" lon="6.37887">
        <ele>283</ele>
        <time>2022-01-21T15:43:24.000Z</time>
      </trkpt>
      <trkpt lat="43.50406" lon="6.37885">
        <ele>283</ele>
        <time>2022-01-21T15:43:25.000Z</time>
      </trkpt>
      <trkpt lat="43.50406" lon="6.37884">
        <ele>283</ele>
        <time>2022-01-21T15:43:26.000Z</time>
      </trkpt>
      <trkpt lat="43.50406" lon="6.37883">
        <ele>283</ele>
        <time>2022-01-21T15:43:27.000Z</time>
      </trkpt>
      <trkpt lat="43.50406" lon="6.37882">
        <ele>283</ele>
        <time>2022-01-21T15:43:28.000Z</time>
      </trkpt>
      <trkpt lat="43.50405" lon="6.37881">
        <ele>283</ele>
        <time>2022-01-21T15:43:29.000Z</time>
      </trkpt>
      <trkpt lat="43.50405" lon="6.37879">
        <ele>283</ele>
        <time>2022-01-21T15:43:30.000Z</time>
      </trkpt>
      <trkpt lat="43.50405" lon="6.37878">
        <ele>283</ele>
        <time>2022-01-21T15:43:31.000Z</time>
      </trkpt>
      <trkpt lat="43.50405" lon="6.37877">
        <ele>283</ele>
        <time>2022-01-21T15:43:32.000Z</time>
      </trkpt>
      <trkpt lat="43.50406" lon="6.37875">
        <ele>283</ele>
        <time>2022-01-21T15:43:33.000Z</time>
      </trkpt>
      <trkpt lat="43.50406" lon="6.37874">
        <ele>283</ele>
        <time>2022-01-21T15:43:34.000Z</time>
      </trkpt>
      <trkpt lat="43.50406" lon="6.37873">
        <ele>283</ele>
        <time>2022-01-21T15:43:35.000Z</time>
      </trkpt>
      <trkpt lat="43.50406" lon="6.37872">
        <ele>283</ele>
        <time>2022-01-21T15:43:36.000Z</time>
      </trkpt>
      <trkpt lat="43.50406" lon="6.3787">
        <ele>283</ele>
        <time>2022-01-21T15:43:37.000Z</time>
      </trkpt>
      <trkpt lat="43.50406" lon="6.37869">
        <ele>283</ele>
        <time>2022-01-21T15:43:38.000Z</time>
      </trkpt>
      <trkpt lat="43.50406" lon="6.37868">
        <ele>283</ele>
        <time>2022-01-21T15:43:39.000Z</time>
      </trkpt>
      <trkpt lat="43.50407" lon="6.37866">
        <ele>283</ele>
        <time>2022-01-21T15:43:40.000Z</time>
      </trkpt>
      <trkpt lat="43.50407" lon="6.37865">
        <ele>283</ele>
        <time>2022-01-21T15:43:41.000Z</time>
      </trkpt>
      <trkpt lat="43.50407" lon="6.37864">
        <ele>283</ele>
        <time>2022-01-21T15:43:42.000Z</time>
      </trkpt>
      <trkpt lat="43.50407" lon="6.37863">
        <ele>283</ele>
        <time>2022-01-21T15:43:43.000Z</time>
      </trkpt>
      <trkpt lat="43.50408" lon="6.37862">
        <ele>283</ele>
        <time>2022-01-21T15:43:44.000Z</time>
      </trkpt>
      <trkpt lat="43.50408" lon="6.3786">
        <ele>283</ele>
        <time>2022-01-21T15:43:45.000Z</time>
      </trkpt>
      <trkpt lat="43.50408" lon="6.37859">
        <ele>283</ele>
        <time>2022-01-21T15:43:46.000Z</time>
      </trkpt>
      <trkpt lat="43.50408" lon="6.37858">
        <ele>283</ele>
        <time>2022-01-21T15:43:47.000Z</time>
      </trkpt>
      <trkpt lat="43.50408" lon="6.37857">
        <ele>283</ele>
        <time>2022-01-21T15:43:48.000Z</time>
      </trkpt>
      <trkpt lat="43.50409" lon="6.37856">
        <ele>283</ele>
        <time>2022-01-21T15:43:49.000Z</time>
      </trkpt>
      <trkpt lat="43.50409" lon="6.37855">
        <ele>283</ele>
        <time>2022-01-21T15:43:50.000Z</time>
      </trkpt>
      <trkpt lat="43.50409" lon="6.37854">
        <ele>283</ele>
        <time>2022-01-21T15:43:51.000Z</time>
      </trkpt>
      <trkpt lat="43.50409" lon="6.37853">
        <ele>283</ele>
        <time>2022-01-21T15:43:52.000Z</time>
      </trkpt>
      <trkpt lat="43.5041" lon="6.37852">
        <ele>283</ele>
        <time>2022-01-21T15:43:53.000Z</time>
      </trkpt>
      <trkpt lat="43.5041" lon="6.37851">
        <ele>283</ele>
        <time>2022-01-21T15:43:54.000Z</time>
      </trkpt>
      <trkpt lat="43.5041" lon="6.3785">
        <ele>284</ele>
        <time>2022-01-21T15:43:55.000Z</time>
      </trkpt>
      <trkpt lat="43.5041" lon="6.37848">
        <ele>284</ele>
        <time>2022-01-21T15:43:56.000Z</time>
      </trkpt>
      <trkpt lat="43.50411" lon="6.37847">
        <ele>284</ele>
        <time>2022-01-21T15:43:57.000Z</time>
      </trkpt>
      <trkpt lat="43.50411" lon="6.37846">
        <ele>284</ele>
        <time>2022-01-21T15:43:58.000Z</time>
      </trkpt>
      <trkpt lat="43.50411" lon="6.37844">
        <ele>284</ele>
        <time>2022-01-21T15:43:59.000Z</time>
      </trkpt>
      <trkpt lat="43.50412" lon="6.37842">
        <ele>284</ele>
        <time>2022-01-21T15:44:00.000Z</time>
      </trkpt>
      <trkpt lat="43.50412" lon="6.3784">
        <ele>284</ele>
        <time>2022-01-21T15:44:01.000Z</time>
      </trkpt>
      <trkpt lat="43.50412" lon="6.37838">
        <ele>284</ele>
        <time>2022-01-21T15:44:02.000Z</time>
      </trkpt>
      <trkpt lat="43.50413" lon="6.37836">
        <ele>284</ele>
        <time>2022-01-21T15:44:03.000Z</time>
      </trkpt>
      <trkpt lat="43.50414" lon="6.37833">
        <ele>284</ele>
        <time>2022-01-21T15:44:04.000Z</time>
      </trkpt>
      <trkpt lat="43.50414" lon="6.37832">
        <ele>284</ele>
        <time>2022-01-21T15:44:05.000Z</time>
      </trkpt>
      <trkpt lat="43.50414" lon="6.3783">
        <ele>284</ele>
        <time>2022-01-21T15:44:06.000Z</time>
      </trkpt>
      <trkpt lat="43.50414" lon="6.3783">
        <ele>284</ele>
        <time>2022-01-21T15:44:07.000Z</time>
      </trkpt>
      <trkpt lat="43.50415" lon="6.37829">
        <ele>284</ele>
        <time>2022-01-21T15:44:08.000Z</time>
      </trkpt>
      <trkpt lat="43.50415" lon="6.37829">
        <ele>285</ele>
        <time>2022-01-21T15:44:09.000Z</time>
      </trkpt>
      <trkpt lat="43.50415" lon="6.37828">
        <ele>285</ele>
        <time>2022-01-21T15:44:10.000Z</time>
      </trkpt>
      <trkpt lat="43.50415" lon="6.37827">
        <ele>285</ele>
        <time>2022-01-21T15:44:11.000Z</time>
      </trkpt>
      <trkpt lat="43.50415" lon="6.37826">
        <ele>285</ele>
        <time>2022-01-21T15:44:12.000Z</time>
      </trkpt>
      <trkpt lat="43.50415" lon="6.37826">
        <ele>285</ele>
        <time>2022-01-21T15:44:13.000Z</time>
      </trkpt>
      <trkpt lat="43.50415" lon="6.37825">
        <ele>285</ele>
        <time>2022-01-21T15:44:14.000Z</time>
      </trkpt>
      <trkpt lat="43.50415" lon="6.37823">
        <ele>285</ele>
        <time>2022-01-21T15:44:15.000Z</time>
      </trkpt>
      <trkpt lat="43.50415" lon="6.37822">
        <ele>285</ele>
        <time>2022-01-21T15:44:16.000Z</time>
      </trkpt>
      <trkpt lat="43.50415" lon="6.3782">
        <ele>285</ele>
        <time>2022-01-21T15:44:17.000Z</time>
      </trkpt>
      <trkpt lat="43.50415" lon="6.37818">
        <ele>285</ele>
        <time>2022-01-21T15:44:18.000Z</time>
      </trkpt>
      <trkpt lat="43.50415" lon="6.37817">
        <ele>285</ele>
        <time>2022-01-21T15:44:19.000Z</time>
      </trkpt>
      <trkpt lat="43.50415" lon="6.37817">
        <ele>285</ele>
        <time>2022-01-21T15:44:20.000Z</time>
      </trkpt>
      <trkpt lat="43.50415" lon="6.37816">
        <ele>285</ele>
        <time>2022-01-21T15:44:21.000Z</time>
      </trkpt>
      <trkpt lat="43.50415" lon="6.37816">
        <ele>285</ele>
        <time>2022-01-21T15:44:22.000Z</time>
      </trkpt>
      <trkpt lat="43.50415" lon="6.37816">
        <ele>285</ele>
        <time>2022-01-21T15:44:23.000Z</time>
      </trkpt>
      <trkpt lat="43.50415" lon="6.37815">
        <ele>286</ele>
        <time>2022-01-21T15:44:24.000Z</time>
      </trkpt>
      <trkpt lat="43.50415" lon="6.37814">
        <ele>286</ele>
        <time>2022-01-21T15:44:25.000Z</time>
      </trkpt>
      <trkpt lat="43.50415" lon="6.37814">
        <ele>286</ele>
        <time>2022-01-21T15:44:26.000Z</time>
      </trkpt>
      <trkpt lat="43.50415" lon="6.37813">
        <ele>286</ele>
        <time>2022-01-21T15:44:27.000Z</time>
      </trkpt>
      <trkpt lat="43.50415" lon="6.37812">
        <ele>286</ele>
        <time>2022-01-21T15:44:28.000Z</time>
      </trkpt>
      <trkpt lat="43.50415" lon="6.37811">
        <ele>286</ele>
        <time>2022-01-21T15:44:29.000Z</time>
      </trkpt>
      <trkpt lat="43.50416" lon="6.3781">
        <ele>287</ele>
        <time>2022-01-21T15:44:30.000Z</time>
      </trkpt>
      <trkpt lat="43.50416" lon="6.37809">
        <ele>287</ele>
        <time>2022-01-21T15:44:31.000Z</time>
      </trkpt>
      <trkpt lat="43.50416" lon="6.37807">
        <ele>287</ele>
        <time>2022-01-21T15:44:32.000Z</time>
      </trkpt>
      <trkpt lat="43.50417" lon="6.37805">
        <ele>288</ele>
        <time>2022-01-21T15:44:33.000Z</time>
      </trkpt>
      <trkpt lat="43.50417" lon="6.37804">
        <ele>288</ele>
        <time>2022-01-21T15:44:34.000Z</time>
      </trkpt>
      <trkpt lat="43.50417" lon="6.37803">
        <ele>288</ele>
        <time>2022-01-21T15:44:35.000Z</time>
      </trkpt>
      <trkpt lat="43.50417" lon="6.37803">
        <ele>288</ele>
        <time>2022-01-21T15:44:36.000Z</time>
      </trkpt>
      <trkpt lat="43.50417" lon="6.37802">
        <ele>288</ele>
        <time>2022-01-21T15:44:37.000Z</time>
      </trkpt>
      <trkpt lat="43.50417" lon="6.37801">
        <ele>288</ele>
        <time>2022-01-21T15:44:38.000Z</time>
      </trkpt>
      <trkpt lat="43.50418" lon="6.37801">
        <ele>288</ele>
        <time>2022-01-21T15:44:39.000Z</time>
      </trkpt>
      <trkpt lat="43.50418" lon="6.37801">
        <ele>288</ele>
        <time>2022-01-21T15:44:40.000Z</time>
      </trkpt>
      <trkpt lat="43.50418" lon="6.378">
        <ele>288</ele>
        <time>2022-01-21T15:44:41.000Z</time>
      </trkpt>
      <trkpt lat="43.50418" lon="6.378">
        <ele>288</ele>
        <time>2022-01-21T15:44:42.000Z</time>
      </trkpt>
      <trkpt lat="43.50418" lon="6.378">
        <ele>288</ele>
        <time>2022-01-21T15:44:43.000Z</time>
      </trkpt>
      <trkpt lat="43.50418" lon="6.37799">
        <ele>288</ele>
        <time>2022-01-21T15:44:44.000Z</time>
      </trkpt>
      <trkpt lat="43.50418" lon="6.37799">
        <ele>288</ele>
        <time>2022-01-21T15:44:45.000Z</time>
      </trkpt>
      <trkpt lat="43.50418" lon="6.37799">
        <ele>288</ele>
        <time>2022-01-21T15:44:46.000Z</time>
      </trkpt>
      <trkpt lat="43.50418" lon="6.37799">
        <ele>288</ele>
        <time>2022-01-21T15:44:47.000Z</time>
      </trkpt>
      <trkpt lat="43.50418" lon="6.37798">
        <ele>288</ele>
        <time>2022-01-21T15:44:48.000Z</time>
      </trkpt>
      <trkpt lat="43.50418" lon="6.37797">
        <ele>289</ele>
        <time>2022-01-21T15:44:49.000Z</time>
      </trkpt>
      <trkpt lat="43.50418" lon="6.37795">
        <ele>289</ele>
        <time>2022-01-21T15:44:50.000Z</time>
      </trkpt>
      <trkpt lat="43.50418" lon="6.37793">
        <ele>289</ele>
        <time>2022-01-21T15:44:51.000Z</time>
      </trkpt>
      <trkpt lat="43.50418" lon="6.3779">
        <ele>289</ele>
        <time>2022-01-21T15:44:52.000Z</time>
      </trkpt>
      <trkpt lat="43.50418" lon="6.37788">
        <ele>289</ele>
        <time>2022-01-21T15:44:53.000Z</time>
      </trkpt>
      <trkpt lat="43.50418" lon="6.37786">
        <ele>289</ele>
        <time>2022-01-21T15:44:54.000Z</time>
      </trkpt>
      <trkpt lat="43.50418" lon="6.37784">
        <ele>291</ele>
        <time>2022-01-21T15:44:55.000Z</time>
      </trkpt>
      <trkpt lat="43.50417" lon="6.37782">
        <ele>292</ele>
        <time>2022-01-21T15:44:56.000Z</time>
      </trkpt>
      <trkpt lat="43.50417" lon="6.37781">
        <ele>292</ele>
        <time>2022-01-21T15:44:57.000Z</time>
      </trkpt>
      <trkpt lat="43.50417" lon="6.37779">
        <ele>293</ele>
        <time>2022-01-21T15:44:58.000Z</time>
      </trkpt>
      <trkpt lat="43.50417" lon="6.37778">
        <ele>293</ele>
        <time>2022-01-21T15:44:59.000Z</time>
      </trkpt>
      <trkpt lat="43.50416" lon="6.37776">
        <ele>293</ele>
        <time>2022-01-21T15:45:00.000Z</time>
      </trkpt>
      <trkpt lat="43.50416" lon="6.37775">
        <ele>293</ele>
        <time>2022-01-21T15:45:01.000Z</time>
      </trkpt>
      <trkpt lat="43.50415" lon="6.37772">
        <ele>293</ele>
        <time>2022-01-21T15:45:02.000Z</time>
      </trkpt>
      <trkpt lat="43.50415" lon="6.37771">
        <ele>293</ele>
        <time>2022-01-21T15:45:03.000Z</time>
      </trkpt>
      <trkpt lat="43.50414" lon="6.3777">
        <ele>294</ele>
        <time>2022-01-21T15:45:04.000Z</time>
      </trkpt>
      <trkpt lat="43.50414" lon="6.37769">
        <ele>294</ele>
        <time>2022-01-21T15:45:05.000Z</time>
      </trkpt>
      <trkpt lat="43.50414" lon="6.37768">
        <ele>294</ele>
        <time>2022-01-21T15:45:06.000Z</time>
      </trkpt>
      <trkpt lat="43.50414" lon="6.37768">
        <ele>294</ele>
        <time>2022-01-21T15:45:07.000Z</time>
      </trkpt>
      <trkpt lat="43.50413" lon="6.37767">
        <ele>294</ele>
        <time>2022-01-21T15:45:08.000Z</time>
      </trkpt>
      <trkpt lat="43.50413" lon="6.37767">
        <ele>294</ele>
        <time>2022-01-21T15:45:09.000Z</time>
      </trkpt>
      <trkpt lat="43.50413" lon="6.37766">
        <ele>294</ele>
        <time>2022-01-21T15:45:10.000Z</time>
      </trkpt>
      <trkpt lat="43.50412" lon="6.37765">
        <ele>294</ele>
        <time>2022-01-21T15:45:11.000Z</time>
      </trkpt>
      <trkpt lat="43.50411" lon="6.37764">
        <ele>294</ele>
        <time>2022-01-21T15:45:12.000Z</time>
      </trkpt>
      <trkpt lat="43.50411" lon="6.37763">
        <ele>294</ele>
        <time>2022-01-21T15:45:13.000Z</time>
      </trkpt>
      <trkpt lat="43.5041" lon="6.37761">
        <ele>294</ele>
        <time>2022-01-21T15:45:14.000Z</time>
      </trkpt>
      <trkpt lat="43.50409" lon="6.3776">
        <ele>294</ele>
        <time>2022-01-21T15:45:15.000Z</time>
      </trkpt>
      <trkpt lat="43.50409" lon="6.37758">
        <ele>294</ele>
        <time>2022-01-21T15:45:16.000Z</time>
      </trkpt>
      <trkpt lat="43.50408" lon="6.37757">
        <ele>294</ele>
        <time>2022-01-21T15:45:17.000Z</time>
      </trkpt>
      <trkpt lat="43.50407" lon="6.37756">
        <ele>294</ele>
        <time>2022-01-21T15:45:18.000Z</time>
      </trkpt>
      <trkpt lat="43.50407" lon="6.37755">
        <ele>294</ele>
        <time>2022-01-21T15:45:19.000Z</time>
      </trkpt>
      <trkpt lat="43.50407" lon="6.37755">
        <ele>294</ele>
        <time>2022-01-21T15:45:20.000Z</time>
      </trkpt>
      <trkpt lat="43.50406" lon="6.37754">
        <ele>294</ele>
        <time>2022-01-21T15:45:21.000Z</time>
      </trkpt>
      <trkpt lat="43.50406" lon="6.37754">
        <ele>294</ele>
        <time>2022-01-21T15:45:22.000Z</time>
      </trkpt>
      <trkpt lat="43.50406" lon="6.37753">
        <ele>294</ele>
        <time>2022-01-21T15:45:23.000Z</time>
      </trkpt>
      <trkpt lat="43.50405" lon="6.37752">
        <ele>294</ele>
        <time>2022-01-21T15:45:24.000Z</time>
      </trkpt>
      <trkpt lat="43.50405" lon="6.37751">
        <ele>294</ele>
        <time>2022-01-21T15:45:25.000Z</time>
      </trkpt>
      <trkpt lat="43.50404" lon="6.3775">
        <ele>294</ele>
        <time>2022-01-21T15:45:26.000Z</time>
      </trkpt>
      <trkpt lat="43.50403" lon="6.37749">
        <ele>294</ele>
        <time>2022-01-21T15:45:27.000Z</time>
      </trkpt>
      <trkpt lat="43.50403" lon="6.37748">
        <ele>294</ele>
        <time>2022-01-21T15:45:28.000Z</time>
      </trkpt>
      <trkpt lat="43.50402" lon="6.37747">
        <ele>294</ele>
        <time>2022-01-21T15:45:29.000Z</time>
      </trkpt>
      <trkpt lat="43.50401" lon="6.37746">
        <ele>294</ele>
        <time>2022-01-21T15:45:30.000Z</time>
      </trkpt>
      <trkpt lat="43.504" lon="6.37745">
        <ele>295</ele>
        <time>2022-01-21T15:45:31.000Z</time>
      </trkpt>
      <trkpt lat="43.504" lon="6.37744">
        <ele>295</ele>
        <time>2022-01-21T15:45:32.000Z</time>
      </trkpt>
      <trkpt lat="43.50399" lon="6.37743">
        <ele>295</ele>
        <time>2022-01-21T15:45:33.000Z</time>
      </trkpt>
      <trkpt lat="43.50398" lon="6.37742">
        <ele>296</ele>
        <time>2022-01-21T15:45:34.000Z</time>
      </trkpt>
      <trkpt lat="43.50397" lon="6.3774">
        <ele>296</ele>
        <time>2022-01-21T15:45:35.000Z</time>
      </trkpt>
      <trkpt lat="43.50396" lon="6.37739">
        <ele>296</ele>
        <time>2022-01-21T15:45:36.000Z</time>
      </trkpt>
      <trkpt lat="43.50395" lon="6.37738">
        <ele>296</ele>
        <time>2022-01-21T15:45:37.000Z</time>
      </trkpt>
      <trkpt lat="43.50394" lon="6.37738">
        <ele>296</ele>
        <time>2022-01-21T15:45:38.000Z</time>
      </trkpt>
      <trkpt lat="43.50394" lon="6.37737">
        <ele>297</ele>
        <time>2022-01-21T15:45:39.000Z</time>
      </trkpt>
      <trkpt lat="43.50393" lon="6.37736">
        <ele>297</ele>
        <time>2022-01-21T15:45:40.000Z</time>
      </trkpt>
      <trkpt lat="43.50392" lon="6.37735">
        <ele>297</ele>
        <time>2022-01-21T15:45:41.000Z</time>
      </trkpt>
      <trkpt lat="43.50391" lon="6.37734">
        <ele>297</ele>
        <time>2022-01-21T15:45:42.000Z</time>
      </trkpt>
      <trkpt lat="43.5039" lon="6.37733">
        <ele>297</ele>
        <time>2022-01-21T15:45:43.000Z</time>
      </trkpt>
      <trkpt lat="43.5039" lon="6.37732">
        <ele>297</ele>
        <time>2022-01-21T15:45:44.000Z</time>
      </trkpt>
      <trkpt lat="43.50389" lon="6.37731">
        <ele>297</ele>
        <time>2022-01-21T15:45:45.000Z</time>
      </trkpt>
      <trkpt lat="43.50388" lon="6.3773">
        <ele>297</ele>
        <time>2022-01-21T15:45:46.000Z</time>
      </trkpt>
      <trkpt lat="43.50388" lon="6.3773">
        <ele>297</ele>
        <time>2022-01-21T15:45:47.000Z</time>
      </trkpt>
      <trkpt lat="43.50387" lon="6.37729">
        <ele>297</ele>
        <time>2022-01-21T15:45:48.000Z</time>
      </trkpt>
      <trkpt lat="43.50387" lon="6.37728">
        <ele>297</ele>
        <time>2022-01-21T15:45:49.000Z</time>
      </trkpt>
      <trkpt lat="43.50386" lon="6.37728">
        <ele>297</ele>
        <time>2022-01-21T15:45:50.000Z</time>
      </trkpt>
      <trkpt lat="43.50385" lon="6.37727">
        <ele>297</ele>
        <time>2022-01-21T15:45:51.000Z</time>
      </trkpt>
      <trkpt lat="43.50385" lon="6.37727">
        <ele>296</ele>
        <time>2022-01-21T15:45:52.000Z</time>
      </trkpt>
      <trkpt lat="43.50385" lon="6.37726">
        <ele>296</ele>
        <time>2022-01-21T15:45:53.000Z</time>
      </trkpt>
      <trkpt lat="43.50384" lon="6.37726">
        <ele>296</ele>
        <time>2022-01-21T15:45:54.000Z</time>
      </trkpt>
      <trkpt lat="43.50384" lon="6.37726">
        <ele>296</ele>
        <time>2022-01-21T15:45:55.000Z</time>
      </trkpt>
      <trkpt lat="43.50384" lon="6.37726">
        <ele>296</ele>
        <time>2022-01-21T15:45:56.000Z</time>
      </trkpt>
      <trkpt lat="43.50384" lon="6.37725">
        <ele>296</ele>
        <time>2022-01-21T15:45:57.000Z</time>
      </trkpt>
      <trkpt lat="43.50383" lon="6.37725">
        <ele>296</ele>
        <time>2022-01-21T15:45:58.000Z</time>
      </trkpt>
      <trkpt lat="43.50383" lon="6.37724">
        <ele>296</ele>
        <time>2022-01-21T15:45:59.000Z</time>
      </trkpt>
      <trkpt lat="43.50383" lon="6.37723">
        <ele>296</ele>
        <time>2022-01-21T15:46:00.000Z</time>
      </trkpt>
      <trkpt lat="43.50381" lon="6.37721">
        <ele>295</ele>
        <time>2022-01-21T15:46:01.000Z</time>
      </trkpt>
      <trkpt lat="43.5038" lon="6.3772">
        <ele>295</ele>
        <time>2022-01-21T15:46:02.000Z</time>
      </trkpt>
      <trkpt lat="43.5038" lon="6.37719">
        <ele>295</ele>
        <time>2022-01-21T15:46:03.000Z</time>
      </trkpt>
      <trkpt lat="43.50379" lon="6.37718">
        <ele>295</ele>
        <time>2022-01-21T15:46:04.000Z</time>
      </trkpt>
      <trkpt lat="43.50379" lon="6.37717">
        <ele>295</ele>
        <time>2022-01-21T15:46:05.000Z</time>
      </trkpt>
      <trkpt lat="43.50378" lon="6.37715">
        <ele>295</ele>
        <time>2022-01-21T15:46:06.000Z</time>
      </trkpt>
      <trkpt lat="43.50377" lon="6.37714">
        <ele>295</ele>
        <time>2022-01-21T15:46:07.000Z</time>
      </trkpt>
      <trkpt lat="43.50376" lon="6.37712">
        <ele>295</ele>
        <time>2022-01-21T15:46:08.000Z</time>
      </trkpt>
      <trkpt lat="43.50376" lon="6.37711">
        <ele>295</ele>
        <time>2022-01-21T15:46:09.000Z</time>
      </trkpt>
      <trkpt lat="43.50375" lon="6.3771">
        <ele>295</ele>
        <time>2022-01-21T15:46:10.000Z</time>
      </trkpt>
      <trkpt lat="43.50374" lon="6.37708">
        <ele>294</ele>
        <time>2022-01-21T15:46:11.000Z</time>
      </trkpt>
      <trkpt lat="43.50373" lon="6.37707">
        <ele>294</ele>
        <time>2022-01-21T15:46:12.000Z</time>
      </trkpt>
      <trkpt lat="43.50372" lon="6.37706">
        <ele>294</ele>
        <time>2022-01-21T15:46:13.000Z</time>
      </trkpt>
      <trkpt lat="43.50372" lon="6.37705">
        <ele>294</ele>
        <time>2022-01-21T15:46:14.000Z</time>
      </trkpt>
      <trkpt lat="43.50371" lon="6.37704">
        <ele>294</ele>
        <time>2022-01-21T15:46:15.000Z</time>
      </trkpt>
      <trkpt lat="43.50371" lon="6.37704">
        <ele>294</ele>
        <time>2022-01-21T15:46:16.000Z</time>
      </trkpt>
      <trkpt lat="43.5037" lon="6.37703">
        <ele>294</ele>
        <time>2022-01-21T15:46:17.000Z</time>
      </trkpt>
      <trkpt lat="43.5037" lon="6.37702">
        <ele>294</ele>
        <time>2022-01-21T15:46:18.000Z</time>
      </trkpt>
      <trkpt lat="43.50369" lon="6.37701">
        <ele>294</ele>
        <time>2022-01-21T15:46:19.000Z</time>
      </trkpt>
      <trkpt lat="43.50368" lon="6.37701">
        <ele>294</ele>
        <time>2022-01-21T15:46:20.000Z</time>
      </trkpt>
      <trkpt lat="43.50368" lon="6.377">
        <ele>294</ele>
        <time>2022-01-21T15:46:21.000Z</time>
      </trkpt>
      <trkpt lat="43.50368" lon="6.377">
        <ele>294</ele>
        <time>2022-01-21T15:46:22.000Z</time>
      </trkpt>
      <trkpt lat="43.50367" lon="6.37699">
        <ele>294</ele>
        <time>2022-01-21T15:46:23.000Z</time>
      </trkpt>
      <trkpt lat="43.50367" lon="6.37699">
        <ele>294</ele>
        <time>2022-01-21T15:46:24.000Z</time>
      </trkpt>
      <trkpt lat="43.50366" lon="6.37698">
        <ele>294</ele>
        <time>2022-01-21T15:46:25.000Z</time>
      </trkpt>
      <trkpt lat="43.50366" lon="6.37698">
        <ele>294</ele>
        <time>2022-01-21T15:46:26.000Z</time>
      </trkpt>
      <trkpt lat="43.50366" lon="6.37697">
        <ele>294</ele>
        <time>2022-01-21T15:46:27.000Z</time>
      </trkpt>
      <trkpt lat="43.50366" lon="6.37697">
        <ele>294</ele>
        <time>2022-01-21T15:46:28.000Z</time>
      </trkpt>
      <trkpt lat="43.50365" lon="6.37696">
        <ele>294</ele>
        <time>2022-01-21T15:46:29.000Z</time>
      </trkpt>
      <trkpt lat="43.50365" lon="6.37696">
        <ele>294</ele>
        <time>2022-01-21T15:46:30.000Z</time>
      </trkpt>
      <trkpt lat="43.50365" lon="6.37696">
        <ele>294</ele>
        <time>2022-01-21T15:46:31.000Z</time>
      </trkpt>
      <trkpt lat="43.50365" lon="6.37695">
        <ele>294</ele>
        <time>2022-01-21T15:46:32.000Z</time>
      </trkpt>
      <trkpt lat="43.50364" lon="6.37695">
        <ele>294</ele>
        <time>2022-01-21T15:46:33.000Z</time>
      </trkpt>
      <trkpt lat="43.50364" lon="6.37695">
        <ele>294</ele>
        <time>2022-01-21T15:46:34.000Z</time>
      </trkpt>
      <trkpt lat="43.50364" lon="6.37694">
        <ele>294</ele>
        <time>2022-01-21T15:46:35.000Z</time>
      </trkpt>
      <trkpt lat="43.50363" lon="6.37694">
        <ele>294</ele>
        <time>2022-01-21T15:46:36.000Z</time>
      </trkpt>
      <trkpt lat="43.50362" lon="6.37693">
        <ele>294</ele>
        <time>2022-01-21T15:46:37.000Z</time>
      </trkpt>
      <trkpt lat="43.50361" lon="6.37693">
        <ele>294</ele>
        <time>2022-01-21T15:46:38.000Z</time>
      </trkpt>
      <trkpt lat="43.5036" lon="6.37692">
        <ele>293</ele>
        <time>2022-01-21T15:46:39.000Z</time>
      </trkpt>
      <trkpt lat="43.50359" lon="6.37691">
        <ele>293</ele>
        <time>2022-01-21T15:46:40.000Z</time>
      </trkpt>
      <trkpt lat="43.50358" lon="6.3769">
        <ele>293</ele>
        <time>2022-01-21T15:46:41.000Z</time>
      </trkpt>
      <trkpt lat="43.50357" lon="6.37688">
        <ele>293</ele>
        <time>2022-01-21T15:46:42.000Z</time>
      </trkpt>
      <trkpt lat="43.50356" lon="6.37687">
        <ele>293</ele>
        <time>2022-01-21T15:46:43.000Z</time>
      </trkpt>
      <trkpt lat="43.50356" lon="6.37686">
        <ele>292</ele>
        <time>2022-01-21T15:46:44.000Z</time>
      </trkpt>
      <trkpt lat="43.50355" lon="6.37685">
        <ele>292</ele>
        <time>2022-01-21T15:46:45.000Z</time>
      </trkpt>
      <trkpt lat="43.50355" lon="6.37684">
        <ele>292</ele>
        <time>2022-01-21T15:46:46.000Z</time>
      </trkpt>
      <trkpt lat="43.50354" lon="6.37683">
        <ele>292</ele>
        <time>2022-01-21T15:46:47.000Z</time>
      </trkpt>
      <trkpt lat="43.50353" lon="6.37681">
        <ele>292</ele>
        <time>2022-01-21T15:46:48.000Z</time>
      </trkpt>
      <trkpt lat="43.50352" lon="6.3768">
        <ele>292</ele>
        <time>2022-01-21T15:46:49.000Z</time>
      </trkpt>
      <trkpt lat="43.50351" lon="6.37679">
        <ele>292</ele>
        <time>2022-01-21T15:46:50.000Z</time>
      </trkpt>
      <trkpt lat="43.50351" lon="6.37678">
        <ele>292</ele>
        <time>2022-01-21T15:46:51.000Z</time>
      </trkpt>
      <trkpt lat="43.5035" lon="6.37677">
        <ele>293</ele>
        <time>2022-01-21T15:46:52.000Z</time>
      </trkpt>
      <trkpt lat="43.50349" lon="6.37676">
        <ele>293</ele>
        <time>2022-01-21T15:46:53.000Z</time>
      </trkpt>
      <trkpt lat="43.50348" lon="6.37675">
        <ele>293</ele>
        <time>2022-01-21T15:46:54.000Z</time>
      </trkpt>
      <trkpt lat="43.50347" lon="6.37673">
        <ele>293</ele>
        <time>2022-01-21T15:46:55.000Z</time>
      </trkpt>
      <trkpt lat="43.50346" lon="6.37672">
        <ele>293</ele>
        <time>2022-01-21T15:46:56.000Z</time>
      </trkpt>
      <trkpt lat="43.50345" lon="6.37671">
        <ele>293</ele>
        <time>2022-01-21T15:46:57.000Z</time>
      </trkpt>
      <trkpt lat="43.50345" lon="6.3767">
        <ele>293</ele>
        <time>2022-01-21T15:46:58.000Z</time>
      </trkpt>
      <trkpt lat="43.50344" lon="6.37669">
        <ele>293</ele>
        <time>2022-01-21T15:46:59.000Z</time>
      </trkpt>
      <trkpt lat="43.50343" lon="6.37669">
        <ele>293</ele>
        <time>2022-01-21T15:47:00.000Z</time>
      </trkpt>
      <trkpt lat="43.50342" lon="6.37668">
        <ele>293</ele>
        <time>2022-01-21T15:47:01.000Z</time>
      </trkpt>
      <trkpt lat="43.50341" lon="6.37667">
        <ele>293</ele>
        <time>2022-01-21T15:47:02.000Z</time>
      </trkpt>
      <trkpt lat="43.5034" lon="6.37667">
        <ele>293</ele>
        <time>2022-01-21T15:47:03.000Z</time>
      </trkpt>
      <trkpt lat="43.50339" lon="6.37666">
        <ele>293</ele>
        <time>2022-01-21T15:47:04.000Z</time>
      </trkpt>
      <trkpt lat="43.50338" lon="6.37665">
        <ele>293</ele>
        <time>2022-01-21T15:47:05.000Z</time>
      </trkpt>
      <trkpt lat="43.50338" lon="6.37665">
        <ele>293</ele>
        <time>2022-01-21T15:47:06.000Z</time>
      </trkpt>
      <trkpt lat="43.50337" lon="6.37665">
        <ele>293</ele>
        <time>2022-01-21T15:47:07.000Z</time>
      </trkpt>
      <trkpt lat="43.50337" lon="6.37664">
        <ele>293</ele>
        <time>2022-01-21T15:47:08.000Z</time>
      </trkpt>
      <trkpt lat="43.50336" lon="6.37664">
        <ele>293</ele>
        <time>2022-01-21T15:47:09.000Z</time>
      </trkpt>
      <trkpt lat="43.50335" lon="6.37663">
        <ele>292</ele>
        <time>2022-01-21T15:47:10.000Z</time>
      </trkpt>
      <trkpt lat="43.50334" lon="6.37663">
        <ele>292</ele>
        <time>2022-01-21T15:47:11.000Z</time>
      </trkpt>
      <trkpt lat="43.50334" lon="6.37662">
        <ele>292</ele>
        <time>2022-01-21T15:47:12.000Z</time>
      </trkpt>
      <trkpt lat="43.50333" lon="6.37662">
        <ele>292</ele>
        <time>2022-01-21T15:47:13.000Z</time>
      </trkpt>
      <trkpt lat="43.50333" lon="6.37661">
        <ele>292</ele>
        <time>2022-01-21T15:47:14.000Z</time>
      </trkpt>
      <trkpt lat="43.50332" lon="6.37661">
        <ele>292</ele>
        <time>2022-01-21T15:47:15.000Z</time>
      </trkpt>
      <trkpt lat="43.50331" lon="6.3766">
        <ele>292</ele>
        <time>2022-01-21T15:47:16.000Z</time>
      </trkpt>
      <trkpt lat="43.5033" lon="6.37659">
        <ele>292</ele>
        <time>2022-01-21T15:47:17.000Z</time>
      </trkpt>
      <trkpt lat="43.50329" lon="6.37658">
        <ele>292</ele>
        <time>2022-01-21T15:47:18.000Z</time>
      </trkpt>
      <trkpt lat="43.50329" lon="6.37658">
        <ele>292</ele>
        <time>2022-01-21T15:47:19.000Z</time>
      </trkpt>
      <trkpt lat="43.50328" lon="6.37657">
        <ele>292</ele>
        <time>2022-01-21T15:47:20.000Z</time>
      </trkpt>
      <trkpt lat="43.50328" lon="6.37656">
        <ele>292</ele>
        <time>2022-01-21T15:47:21.000Z</time>
      </trkpt>
      <trkpt lat="43.50326" lon="6.37654">
        <ele>292</ele>
        <time>2022-01-21T15:47:22.000Z</time>
      </trkpt>
      <trkpt lat="43.50325" lon="6.37653">
        <ele>292</ele>
        <time>2022-01-21T15:47:23.000Z</time>
      </trkpt>
      <trkpt lat="43.50324" lon="6.37651">
        <ele>292</ele>
        <time>2022-01-21T15:47:24.000Z</time>
      </trkpt>
      <trkpt lat="43.50323" lon="6.3765">
        <ele>292</ele>
        <time>2022-01-21T15:47:25.000Z</time>
      </trkpt>
      <trkpt lat="43.50323" lon="6.3765">
        <ele>292</ele>
        <time>2022-01-21T15:47:26.000Z</time>
      </trkpt>
      <trkpt lat="43.50322" lon="6.37649">
        <ele>292</ele>
        <time>2022-01-21T15:47:27.000Z</time>
      </trkpt>
      <trkpt lat="43.50322" lon="6.37648">
        <ele>292</ele>
        <time>2022-01-21T15:47:28.000Z</time>
      </trkpt>
      <trkpt lat="43.50321" lon="6.37647">
        <ele>291</ele>
        <time>2022-01-21T15:47:29.000Z</time>
      </trkpt>
      <trkpt lat="43.5032" lon="6.37646">
        <ele>291</ele>
        <time>2022-01-21T15:47:30.000Z</time>
      </trkpt>
      <trkpt lat="43.5032" lon="6.37645">
        <ele>291</ele>
        <time>2022-01-21T15:47:31.000Z</time>
      </trkpt>
      <trkpt lat="43.50319" lon="6.37644">
        <ele>291</ele>
        <time>2022-01-21T15:47:32.000Z</time>
      </trkpt>
      <trkpt lat="43.50318" lon="6.37643">
        <ele>291</ele>
        <time>2022-01-21T15:47:33.000Z</time>
      </trkpt>
      <trkpt lat="43.50318" lon="6.37642">
        <ele>290</ele>
        <time>2022-01-21T15:47:34.000Z</time>
      </trkpt>
      <trkpt lat="43.50317" lon="6.37642">
        <ele>290</ele>
        <time>2022-01-21T15:47:35.000Z</time>
      </trkpt>
      <trkpt lat="43.50316" lon="6.37641">
        <ele>290</ele>
        <time>2022-01-21T15:47:36.000Z</time>
      </trkpt>
      <trkpt lat="43.50315" lon="6.3764">
        <ele>290</ele>
        <time>2022-01-21T15:47:37.000Z</time>
      </trkpt>
      <trkpt lat="43.50314" lon="6.37638">
        <ele>290</ele>
        <time>2022-01-21T15:47:38.000Z</time>
      </trkpt>
      <trkpt lat="43.50312" lon="6.37637">
        <ele>290</ele>
        <time>2022-01-21T15:47:39.000Z</time>
      </trkpt>
      <trkpt lat="43.50311" lon="6.37636">
        <ele>290</ele>
        <time>2022-01-21T15:47:40.000Z</time>
      </trkpt>
      <trkpt lat="43.5031" lon="6.37636">
        <ele>290</ele>
        <time>2022-01-21T15:47:41.000Z</time>
      </trkpt>
      <trkpt lat="43.5031" lon="6.37635">
        <ele>290</ele>
        <time>2022-01-21T15:47:42.000Z</time>
      </trkpt>
      <trkpt lat="43.50309" lon="6.37634">
        <ele>290</ele>
        <time>2022-01-21T15:47:43.000Z</time>
      </trkpt>
      <trkpt lat="43.50308" lon="6.37634">
        <ele>290</ele>
        <time>2022-01-21T15:47:44.000Z</time>
      </trkpt>
      <trkpt lat="43.50307" lon="6.37633">
        <ele>290</ele>
        <time>2022-01-21T15:47:45.000Z</time>
      </trkpt>
      <trkpt lat="43.50307" lon="6.37633">
        <ele>291</ele>
        <time>2022-01-21T15:47:46.000Z</time>
      </trkpt>
      <trkpt lat="43.50306" lon="6.37632">
        <ele>291</ele>
        <time>2022-01-21T15:47:47.000Z</time>
      </trkpt>
      <trkpt lat="43.50306" lon="6.37632">
        <ele>291</ele>
        <time>2022-01-21T15:47:48.000Z</time>
      </trkpt>
      <trkpt lat="43.50305" lon="6.37631">
        <ele>291</ele>
        <time>2022-01-21T15:47:49.000Z</time>
      </trkpt>
      <trkpt lat="43.50305" lon="6.37631">
        <ele>291</ele>
        <time>2022-01-21T15:47:50.000Z</time>
      </trkpt>
      <trkpt lat="43.50304" lon="6.3763">
        <ele>291</ele>
        <time>2022-01-21T15:47:51.000Z</time>
      </trkpt>
      <trkpt lat="43.50304" lon="6.3763">
        <ele>291</ele>
        <time>2022-01-21T15:47:52.000Z</time>
      </trkpt>
      <trkpt lat="43.50303" lon="6.37629">
        <ele>291</ele>
        <time>2022-01-21T15:47:53.000Z</time>
      </trkpt>
      <trkpt lat="43.50302" lon="6.37629">
        <ele>292</ele>
        <time>2022-01-21T15:47:54.000Z</time>
      </trkpt>
      <trkpt lat="43.50302" lon="6.37628">
        <ele>292</ele>
        <time>2022-01-21T15:47:55.000Z</time>
      </trkpt>
      <trkpt lat="43.503" lon="6.37626">
        <ele>292</ele>
        <time>2022-01-21T15:47:56.000Z</time>
      </trkpt>
      <trkpt lat="43.503" lon="6.37625">
        <ele>292</ele>
        <time>2022-01-21T15:47:57.000Z</time>
      </trkpt>
      <trkpt lat="43.50299" lon="6.37625">
        <ele>292</ele>
        <time>2022-01-21T15:47:58.000Z</time>
      </trkpt>
      <trkpt lat="43.50299" lon="6.37624">
        <ele>292</ele>
        <time>2022-01-21T15:47:59.000Z</time>
      </trkpt>
      <trkpt lat="43.50299" lon="6.37624">
        <ele>292</ele>
        <time>2022-01-21T15:48:00.000Z</time>
      </trkpt>
      <trkpt lat="43.50298" lon="6.37624">
        <ele>292</ele>
        <time>2022-01-21T15:48:01.000Z</time>
      </trkpt>
      <trkpt lat="43.50298" lon="6.37623">
        <ele>292</ele>
        <time>2022-01-21T15:48:02.000Z</time>
      </trkpt>
      <trkpt lat="43.50298" lon="6.37623">
        <ele>292</ele>
        <time>2022-01-21T15:48:03.000Z</time>
      </trkpt>
      <trkpt lat="43.50297" lon="6.37623">
        <ele>292</ele>
        <time>2022-01-21T15:48:04.000Z</time>
      </trkpt>
      <trkpt lat="43.50297" lon="6.37622">
        <ele>292</ele>
        <time>2022-01-21T15:48:05.000Z</time>
      </trkpt>
      <trkpt lat="43.50296" lon="6.37621">
        <ele>293</ele>
        <time>2022-01-21T15:48:06.000Z</time>
      </trkpt>
      <trkpt lat="43.50295" lon="6.37621">
        <ele>293</ele>
        <time>2022-01-21T15:48:07.000Z</time>
      </trkpt>
      <trkpt lat="43.50295" lon="6.3762">
        <ele>293</ele>
        <time>2022-01-21T15:48:08.000Z</time>
      </trkpt>
      <trkpt lat="43.50294" lon="6.37619">
        <ele>293</ele>
        <time>2022-01-21T15:48:09.000Z</time>
      </trkpt>
      <trkpt lat="43.50293" lon="6.37618">
        <ele>293</ele>
        <time>2022-01-21T15:48:10.000Z</time>
      </trkpt>
      <trkpt lat="43.50292" lon="6.37617">
        <ele>293</ele>
        <time>2022-01-21T15:48:11.000Z</time>
      </trkpt>
      <trkpt lat="43.5029" lon="6.37616">
        <ele>293</ele>
        <time>2022-01-21T15:48:12.000Z</time>
      </trkpt>
      <trkpt lat="43.50289" lon="6.37615">
        <ele>293</ele>
        <time>2022-01-21T15:48:13.000Z</time>
      </trkpt>
      <trkpt lat="43.50288" lon="6.37614">
        <ele>293</ele>
        <time>2022-01-21T15:48:14.000Z</time>
      </trkpt>
      <trkpt lat="43.50286" lon="6.37612">
        <ele>293</ele>
        <time>2022-01-21T15:48:15.000Z</time>
      </trkpt>
      <trkpt lat="43.50285" lon="6.37611">
        <ele>293</ele>
        <time>2022-01-21T15:48:16.000Z</time>
      </trkpt>
      <trkpt lat="43.50284" lon="6.37609">
        <ele>293</ele>
        <time>2022-01-21T15:48:17.000Z</time>
      </trkpt>
      <trkpt lat="43.50282" lon="6.37608">
        <ele>293</ele>
        <time>2022-01-21T15:48:18.000Z</time>
      </trkpt>
      <trkpt lat="43.50281" lon="6.37607">
        <ele>293</ele>
        <time>2022-01-21T15:48:19.000Z</time>
      </trkpt>
      <trkpt lat="43.50281" lon="6.37606">
        <ele>294</ele>
        <time>2022-01-21T15:48:20.000Z</time>
      </trkpt>
      <trkpt lat="43.5028" lon="6.37606">
        <ele>294</ele>
        <time>2022-01-21T15:48:21.000Z</time>
      </trkpt>
      <trkpt lat="43.5028" lon="6.37605">
        <ele>294</ele>
        <time>2022-01-21T15:48:22.000Z</time>
      </trkpt>
      <trkpt lat="43.5028" lon="6.37605">
        <ele>294</ele>
        <time>2022-01-21T15:48:23.000Z</time>
      </trkpt>
      <trkpt lat="43.50279" lon="6.37604">
        <ele>294</ele>
        <time>2022-01-21T15:48:24.000Z</time>
      </trkpt>
      <trkpt lat="43.50279" lon="6.37604">
        <ele>294</ele>
        <time>2022-01-21T15:48:25.000Z</time>
      </trkpt>
      <trkpt lat="43.50279" lon="6.37604">
        <ele>294</ele>
        <time>2022-01-21T15:48:26.000Z</time>
      </trkpt>
      <trkpt lat="43.50278" lon="6.37604">
        <ele>294</ele>
        <time>2022-01-21T15:48:27.000Z</time>
      </trkpt>
      <trkpt lat="43.50278" lon="6.37603">
        <ele>294</ele>
        <time>2022-01-21T15:48:28.000Z</time>
      </trkpt>
      <trkpt lat="43.50278" lon="6.37603">
        <ele>294</ele>
        <time>2022-01-21T15:48:29.000Z</time>
      </trkpt>
      <trkpt lat="43.50278" lon="6.37603">
        <ele>294</ele>
        <time>2022-01-21T15:48:30.000Z</time>
      </trkpt>
      <trkpt lat="43.50277" lon="6.37603">
        <ele>294</ele>
        <time>2022-01-21T15:48:31.000Z</time>
      </trkpt>
      <trkpt lat="43.50277" lon="6.37602">
        <ele>294</ele>
        <time>2022-01-21T15:48:32.000Z</time>
      </trkpt>
      <trkpt lat="43.50277" lon="6.37602">
        <ele>294</ele>
        <time>2022-01-21T15:48:33.000Z</time>
      </trkpt>
      <trkpt lat="43.50277" lon="6.37602">
        <ele>294</ele>
        <time>2022-01-21T15:48:34.000Z</time>
      </trkpt>
      <trkpt lat="43.50277" lon="6.37602">
        <ele>294</ele>
        <time>2022-01-21T15:48:35.000Z</time>
      </trkpt>
      <trkpt lat="43.50277" lon="6.37602">
        <ele>294</ele>
        <time>2022-01-21T15:48:36.000Z</time>
      </trkpt>
      <trkpt lat="43.50276" lon="6.37602">
        <ele>294</ele>
        <time>2022-01-21T15:48:37.000Z</time>
      </trkpt>
      <trkpt lat="43.50275" lon="6.37601">
        <ele>294</ele>
        <time>2022-01-21T15:48:38.000Z</time>
      </trkpt>
      <trkpt lat="43.50274" lon="6.376">
        <ele>294</ele>
        <time>2022-01-21T15:48:39.000Z</time>
      </trkpt>
      <trkpt lat="43.50273" lon="6.37599">
        <ele>294</ele>
        <time>2022-01-21T15:48:40.000Z</time>
      </trkpt>
      <trkpt lat="43.50272" lon="6.37598">
        <ele>294</ele>
        <time>2022-01-21T15:48:41.000Z</time>
      </trkpt>
      <trkpt lat="43.50271" lon="6.37596">
        <ele>294</ele>
        <time>2022-01-21T15:48:42.000Z</time>
      </trkpt>
      <trkpt lat="43.5027" lon="6.37594">
        <ele>294</ele>
        <time>2022-01-21T15:48:43.000Z</time>
      </trkpt>
      <trkpt lat="43.50268" lon="6.37592">
        <ele>294</ele>
        <time>2022-01-21T15:48:44.000Z</time>
      </trkpt>
      <trkpt lat="43.50266" lon="6.3759">
        <ele>294</ele>
        <time>2022-01-21T15:48:45.000Z</time>
      </trkpt>
      <trkpt lat="43.50265" lon="6.37588">
        <ele>294</ele>
        <time>2022-01-21T15:48:46.000Z</time>
      </trkpt>
      <trkpt lat="43.50264" lon="6.37587">
        <ele>294</ele>
        <time>2022-01-21T15:48:47.000Z</time>
      </trkpt>
      <trkpt lat="43.50263" lon="6.37586">
        <ele>294</ele>
        <time>2022-01-21T15:48:48.000Z</time>
      </trkpt>
      <trkpt lat="43.50263" lon="6.37586">
        <ele>294</ele>
        <time>2022-01-21T15:48:49.000Z</time>
      </trkpt>
      <trkpt lat="43.50262" lon="6.37585">
        <ele>294</ele>
        <time>2022-01-21T15:48:50.000Z</time>
      </trkpt>
      <trkpt lat="43.50262" lon="6.37585">
        <ele>294</ele>
        <time>2022-01-21T15:48:51.000Z</time>
      </trkpt>
      <trkpt lat="43.50262" lon="6.37584">
        <ele>294</ele>
        <time>2022-01-21T15:48:52.000Z</time>
      </trkpt>
      <trkpt lat="43.50261" lon="6.37584">
        <ele>294</ele>
        <time>2022-01-21T15:48:53.000Z</time>
      </trkpt>
      <trkpt lat="43.5026" lon="6.37583">
        <ele>294</ele>
        <time>2022-01-21T15:48:54.000Z</time>
      </trkpt>
      <trkpt lat="43.50259" lon="6.37582">
        <ele>294</ele>
        <time>2022-01-21T15:48:55.000Z</time>
      </trkpt>
      <trkpt lat="43.50257" lon="6.3758">
        <ele>294</ele>
        <time>2022-01-21T15:48:56.000Z</time>
      </trkpt>
      <trkpt lat="43.50256" lon="6.37579">
        <ele>293</ele>
        <time>2022-01-21T15:48:57.000Z</time>
      </trkpt>
      <trkpt lat="43.50254" lon="6.37578">
        <ele>293</ele>
        <time>2022-01-21T15:48:58.000Z</time>
      </trkpt>
      <trkpt lat="43.50253" lon="6.37577">
        <ele>293</ele>
        <time>2022-01-21T15:48:59.000Z</time>
      </trkpt>
      <trkpt lat="43.50253" lon="6.37577">
        <ele>293</ele>
        <time>2022-01-21T15:49:00.000Z</time>
      </trkpt>
      <trkpt lat="43.50252" lon="6.37576">
        <ele>293</ele>
        <time>2022-01-21T15:49:01.000Z</time>
      </trkpt>
      <trkpt lat="43.50251" lon="6.37575">
        <ele>293</ele>
        <time>2022-01-21T15:49:02.000Z</time>
      </trkpt>
      <trkpt lat="43.50249" lon="6.37574">
        <ele>293</ele>
        <time>2022-01-21T15:49:03.000Z</time>
      </trkpt>
      <trkpt lat="43.50248" lon="6.37573">
        <ele>293</ele>
        <time>2022-01-21T15:49:04.000Z</time>
      </trkpt>
      <trkpt lat="43.50246" lon="6.37572">
        <ele>293</ele>
        <time>2022-01-21T15:49:05.000Z</time>
      </trkpt>
      <trkpt lat="43.50245" lon="6.37572">
        <ele>293</ele>
        <time>2022-01-21T15:49:06.000Z</time>
      </trkpt>
      <trkpt lat="43.50244" lon="6.37571">
        <ele>293</ele>
        <time>2022-01-21T15:49:07.000Z</time>
      </trkpt>
      <trkpt lat="43.50243" lon="6.3757">
        <ele>293</ele>
        <time>2022-01-21T15:49:08.000Z</time>
      </trkpt>
      <trkpt lat="43.50242" lon="6.37569">
        <ele>293</ele>
        <time>2022-01-21T15:49:09.000Z</time>
      </trkpt>
      <trkpt lat="43.50241" lon="6.37568">
        <ele>293</ele>
        <time>2022-01-21T15:49:10.000Z</time>
      </trkpt>
      <trkpt lat="43.50241" lon="6.37568">
        <ele>293</ele>
        <time>2022-01-21T15:49:11.000Z</time>
      </trkpt>
      <trkpt lat="43.5024" lon="6.37567">
        <ele>292</ele>
        <time>2022-01-21T15:49:12.000Z</time>
      </trkpt>
      <trkpt lat="43.50239" lon="6.37566">
        <ele>291</ele>
        <time>2022-01-21T15:49:13.000Z</time>
      </trkpt>
      <trkpt lat="43.50239" lon="6.37565">
        <ele>291</ele>
        <time>2022-01-21T15:49:14.000Z</time>
      </trkpt>
      <trkpt lat="43.50238" lon="6.37565">
        <ele>291</ele>
        <time>2022-01-21T15:49:15.000Z</time>
      </trkpt>
      <trkpt lat="43.50238" lon="6.37564">
        <ele>291</ele>
        <time>2022-01-21T15:49:16.000Z</time>
      </trkpt>
      <trkpt lat="43.50237" lon="6.37563">
        <ele>291</ele>
        <time>2022-01-21T15:49:17.000Z</time>
      </trkpt>
      <trkpt lat="43.50235" lon="6.37562">
        <ele>291</ele>
        <time>2022-01-21T15:49:18.000Z</time>
      </trkpt>
      <trkpt lat="43.50234" lon="6.37561">
        <ele>291</ele>
        <time>2022-01-21T15:49:19.000Z</time>
      </trkpt>
      <trkpt lat="43.50233" lon="6.3756">
        <ele>290</ele>
        <time>2022-01-21T15:49:20.000Z</time>
      </trkpt>
      <trkpt lat="43.50232" lon="6.37559">
        <ele>290</ele>
        <time>2022-01-21T15:49:21.000Z</time>
      </trkpt>
      <trkpt lat="43.50231" lon="6.37559">
        <ele>290</ele>
        <time>2022-01-21T15:49:22.000Z</time>
      </trkpt>
      <trkpt lat="43.5023" lon="6.37558">
        <ele>290</ele>
        <time>2022-01-21T15:49:23.000Z</time>
      </trkpt>
      <trkpt lat="43.50229" lon="6.37558">
        <ele>290</ele>
        <time>2022-01-21T15:49:24.000Z</time>
      </trkpt>
      <trkpt lat="43.50227" lon="6.37557">
        <ele>290</ele>
        <time>2022-01-21T15:49:25.000Z</time>
      </trkpt>
      <trkpt lat="43.50225" lon="6.37556">
        <ele>290</ele>
        <time>2022-01-21T15:49:26.000Z</time>
      </trkpt>
      <trkpt lat="43.50223" lon="6.37556">
        <ele>290</ele>
        <time>2022-01-21T15:49:27.000Z</time>
      </trkpt>
      <trkpt lat="43.50222" lon="6.37555">
        <ele>290</ele>
        <time>2022-01-21T15:49:28.000Z</time>
      </trkpt>
      <trkpt lat="43.50221" lon="6.37555">
        <ele>290</ele>
        <time>2022-01-21T15:49:29.000Z</time>
      </trkpt>
      <trkpt lat="43.50221" lon="6.37555">
        <ele>289</ele>
        <time>2022-01-21T15:49:30.000Z</time>
      </trkpt>
      <trkpt lat="43.5022" lon="6.37555">
        <ele>289</ele>
        <time>2022-01-21T15:49:31.000Z</time>
      </trkpt>
      <trkpt lat="43.5022" lon="6.37555">
        <ele>289</ele>
        <time>2022-01-21T15:49:32.000Z</time>
      </trkpt>
      <trkpt lat="43.50219" lon="6.37554">
        <ele>289</ele>
        <time>2022-01-21T15:49:33.000Z</time>
      </trkpt>
      <trkpt lat="43.50219" lon="6.37554">
        <ele>288</ele>
        <time>2022-01-21T15:49:34.000Z</time>
      </trkpt>
      <trkpt lat="43.50217" lon="6.37553">
        <ele>287</ele>
        <time>2022-01-21T15:49:35.000Z</time>
      </trkpt>
      <trkpt lat="43.50217" lon="6.37552">
        <ele>287</ele>
        <time>2022-01-21T15:49:36.000Z</time>
      </trkpt>
      <trkpt lat="43.50216" lon="6.37552">
        <ele>286</ele>
        <time>2022-01-21T15:49:37.000Z</time>
      </trkpt>
      <trkpt lat="43.50215" lon="6.37551">
        <ele>286</ele>
        <time>2022-01-21T15:49:38.000Z</time>
      </trkpt>
      <trkpt lat="43.50214" lon="6.3755">
        <ele>286</ele>
        <time>2022-01-21T15:49:39.000Z</time>
      </trkpt>
      <trkpt lat="43.50213" lon="6.37549">
        <ele>286</ele>
        <time>2022-01-21T15:49:40.000Z</time>
      </trkpt>
      <trkpt lat="43.50211" lon="6.37548">
        <ele>286</ele>
        <time>2022-01-21T15:49:41.000Z</time>
      </trkpt>
      <trkpt lat="43.50211" lon="6.37547">
        <ele>285</ele>
        <time>2022-01-21T15:49:42.000Z</time>
      </trkpt>
      <trkpt lat="43.5021" lon="6.37547">
        <ele>284</ele>
        <time>2022-01-21T15:49:43.000Z</time>
      </trkpt>
      <trkpt lat="43.50209" lon="6.37546">
        <ele>284</ele>
        <time>2022-01-21T15:49:44.000Z</time>
      </trkpt>
      <trkpt lat="43.50208" lon="6.37545">
        <ele>284</ele>
        <time>2022-01-21T15:49:45.000Z</time>
      </trkpt>
      <trkpt lat="43.50207" lon="6.37544">
        <ele>284</ele>
        <time>2022-01-21T15:49:46.000Z</time>
      </trkpt>
      <trkpt lat="43.50206" lon="6.37543">
        <ele>284</ele>
        <time>2022-01-21T15:49:47.000Z</time>
      </trkpt>
      <trkpt lat="43.50205" lon="6.37543">
        <ele>284</ele>
        <time>2022-01-21T15:49:48.000Z</time>
      </trkpt>
      <trkpt lat="43.50204" lon="6.37542">
        <ele>284</ele>
        <time>2022-01-21T15:49:49.000Z</time>
      </trkpt>
      <trkpt lat="43.50202" lon="6.37541">
        <ele>284</ele>
        <time>2022-01-21T15:49:50.000Z</time>
      </trkpt>
      <trkpt lat="43.50201" lon="6.37541">
        <ele>284</ele>
        <time>2022-01-21T15:49:51.000Z</time>
      </trkpt>
      <trkpt lat="43.502" lon="6.3754">
        <ele>284</ele>
        <time>2022-01-21T15:49:52.000Z</time>
      </trkpt>
      <trkpt lat="43.50199" lon="6.37539">
        <ele>284</ele>
        <time>2022-01-21T15:49:53.000Z</time>
      </trkpt>
      <trkpt lat="43.50197" lon="6.37538">
        <ele>284</ele>
        <time>2022-01-21T15:49:54.000Z</time>
      </trkpt>
      <trkpt lat="43.50195" lon="6.37536">
        <ele>284</ele>
        <time>2022-01-21T15:49:55.000Z</time>
      </trkpt>
      <trkpt lat="43.50194" lon="6.37535">
        <ele>284</ele>
        <time>2022-01-21T15:49:56.000Z</time>
      </trkpt>
      <trkpt lat="43.50193" lon="6.37534">
        <ele>284</ele>
        <time>2022-01-21T15:49:57.000Z</time>
      </trkpt>
      <trkpt lat="43.50192" lon="6.37533">
        <ele>284</ele>
        <time>2022-01-21T15:49:58.000Z</time>
      </trkpt>
      <trkpt lat="43.50191" lon="6.37532">
        <ele>284</ele>
        <time>2022-01-21T15:49:59.000Z</time>
      </trkpt>
      <trkpt lat="43.5019" lon="6.37532">
        <ele>284</ele>
        <time>2022-01-21T15:50:00.000Z</time>
      </trkpt>
      <trkpt lat="43.50189" lon="6.37531">
        <ele>284</ele>
        <time>2022-01-21T15:50:01.000Z</time>
      </trkpt>
      <trkpt lat="43.50188" lon="6.3753">
        <ele>284</ele>
        <time>2022-01-21T15:50:02.000Z</time>
      </trkpt>
      <trkpt lat="43.50188" lon="6.37529">
        <ele>284</ele>
        <time>2022-01-21T15:50:03.000Z</time>
      </trkpt>
      <trkpt lat="43.50187" lon="6.37528">
        <ele>284</ele>
        <time>2022-01-21T15:50:04.000Z</time>
      </trkpt>
      <trkpt lat="43.50186" lon="6.37527">
        <ele>284</ele>
        <time>2022-01-21T15:50:05.000Z</time>
      </trkpt>
      <trkpt lat="43.50185" lon="6.37526">
        <ele>284</ele>
        <time>2022-01-21T15:50:06.000Z</time>
      </trkpt>
      <trkpt lat="43.50185" lon="6.37525">
        <ele>284</ele>
        <time>2022-01-21T15:50:07.000Z</time>
      </trkpt>
      <trkpt lat="43.50184" lon="6.37525">
        <ele>283</ele>
        <time>2022-01-21T15:50:08.000Z</time>
      </trkpt>
      <trkpt lat="43.50183" lon="6.37524">
        <ele>283</ele>
        <time>2022-01-21T15:50:09.000Z</time>
      </trkpt>
      <trkpt lat="43.50182" lon="6.37523">
        <ele>283</ele>
        <time>2022-01-21T15:50:10.000Z</time>
      </trkpt>
      <trkpt lat="43.50182" lon="6.37522">
        <ele>283</ele>
        <time>2022-01-21T15:50:11.000Z</time>
      </trkpt>
      <trkpt lat="43.50181" lon="6.37522">
        <ele>283</ele>
        <time>2022-01-21T15:50:12.000Z</time>
      </trkpt>
      <trkpt lat="43.5018" lon="6.37521">
        <ele>283</ele>
        <time>2022-01-21T15:50:13.000Z</time>
      </trkpt>
      <trkpt lat="43.5018" lon="6.3752">
        <ele>283</ele>
        <time>2022-01-21T15:50:14.000Z</time>
      </trkpt>
      <trkpt lat="43.5018" lon="6.3752">
        <ele>283</ele>
        <time>2022-01-21T15:50:15.000Z</time>
      </trkpt>
      <trkpt lat="43.50179" lon="6.37519">
        <ele>283</ele>
        <time>2022-01-21T15:50:16.000Z</time>
      </trkpt>
      <trkpt lat="43.50179" lon="6.37519">
        <ele>283</ele>
        <time>2022-01-21T15:50:17.000Z</time>
      </trkpt>
      <trkpt lat="43.50178" lon="6.37518">
        <ele>283</ele>
        <time>2022-01-21T15:50:18.000Z</time>
      </trkpt>
      <trkpt lat="43.50178" lon="6.37518">
        <ele>283</ele>
        <time>2022-01-21T15:50:19.000Z</time>
      </trkpt>
      <trkpt lat="43.50177" lon="6.37518">
        <ele>283</ele>
        <time>2022-01-21T15:50:20.000Z</time>
      </trkpt>
      <trkpt lat="43.50177" lon="6.37517">
        <ele>283</ele>
        <time>2022-01-21T15:50:21.000Z</time>
      </trkpt>
      <trkpt lat="43.50176" lon="6.37517">
        <ele>283</ele>
        <time>2022-01-21T15:50:22.000Z</time>
      </trkpt>
      <trkpt lat="43.50176" lon="6.37516">
        <ele>283</ele>
        <time>2022-01-21T15:50:23.000Z</time>
      </trkpt>
      <trkpt lat="43.50175" lon="6.37516">
        <ele>283</ele>
        <time>2022-01-21T15:50:24.000Z</time>
      </trkpt>
      <trkpt lat="43.50174" lon="6.37515">
        <ele>283</ele>
        <time>2022-01-21T15:50:25.000Z</time>
      </trkpt>
      <trkpt lat="43.50173" lon="6.37514">
        <ele>283</ele>
        <time>2022-01-21T15:50:26.000Z</time>
      </trkpt>
      <trkpt lat="43.50172" lon="6.37514">
        <ele>283</ele>
        <time>2022-01-21T15:50:27.000Z</time>
      </trkpt>
      <trkpt lat="43.50171" lon="6.37513">
        <ele>283</ele>
        <time>2022-01-21T15:50:28.000Z</time>
      </trkpt>
      <trkpt lat="43.5017" lon="6.37512">
        <ele>283</ele>
        <time>2022-01-21T15:50:29.000Z</time>
      </trkpt>
      <trkpt lat="43.50169" lon="6.37512">
        <ele>283</ele>
        <time>2022-01-21T15:50:30.000Z</time>
      </trkpt>
      <trkpt lat="43.50168" lon="6.37511">
        <ele>283</ele>
        <time>2022-01-21T15:50:31.000Z</time>
      </trkpt>
      <trkpt lat="43.50167" lon="6.37511">
        <ele>283</ele>
        <time>2022-01-21T15:50:32.000Z</time>
      </trkpt>
      <trkpt lat="43.50166" lon="6.3751">
        <ele>282</ele>
        <time>2022-01-21T15:50:33.000Z</time>
      </trkpt>
      <trkpt lat="43.50165" lon="6.37509">
        <ele>282</ele>
        <time>2022-01-21T15:50:34.000Z</time>
      </trkpt>
      <trkpt lat="43.50163" lon="6.37508">
        <ele>282</ele>
        <time>2022-01-21T15:50:35.000Z</time>
      </trkpt>
      <trkpt lat="43.50162" lon="6.37507">
        <ele>282</ele>
        <time>2022-01-21T15:50:36.000Z</time>
      </trkpt>
      <trkpt lat="43.50161" lon="6.37506">
        <ele>282</ele>
        <time>2022-01-21T15:50:37.000Z</time>
      </trkpt>
      <trkpt lat="43.5016" lon="6.37506">
        <ele>282</ele>
        <time>2022-01-21T15:50:38.000Z</time>
      </trkpt>
      <trkpt lat="43.50159" lon="6.37505">
        <ele>282</ele>
        <time>2022-01-21T15:50:39.000Z</time>
      </trkpt>
      <trkpt lat="43.50158" lon="6.37504">
        <ele>281</ele>
        <time>2022-01-21T15:50:40.000Z</time>
      </trkpt>
      <trkpt lat="43.50157" lon="6.37503">
        <ele>281</ele>
        <time>2022-01-21T15:50:41.000Z</time>
      </trkpt>
      <trkpt lat="43.50156" lon="6.37501">
        <ele>281</ele>
        <time>2022-01-21T15:50:42.000Z</time>
      </trkpt>
      <trkpt lat="43.50155" lon="6.375">
        <ele>281</ele>
        <time>2022-01-21T15:50:43.000Z</time>
      </trkpt>
      <trkpt lat="43.50154" lon="6.37499">
        <ele>281</ele>
        <time>2022-01-21T15:50:44.000Z</time>
      </trkpt>
      <trkpt lat="43.50153" lon="6.37498">
        <ele>281</ele>
        <time>2022-01-21T15:50:45.000Z</time>
      </trkpt>
      <trkpt lat="43.50152" lon="6.37497">
        <ele>281</ele>
        <time>2022-01-21T15:50:46.000Z</time>
      </trkpt>
      <trkpt lat="43.50151" lon="6.37496">
        <ele>281</ele>
        <time>2022-01-21T15:50:47.000Z</time>
      </trkpt>
      <trkpt lat="43.50151" lon="6.37495">
        <ele>281</ele>
        <time>2022-01-21T15:50:48.000Z</time>
      </trkpt>
      <trkpt lat="43.5015" lon="6.37494">
        <ele>281</ele>
        <time>2022-01-21T15:50:49.000Z</time>
      </trkpt>
      <trkpt lat="43.50149" lon="6.37493">
        <ele>281</ele>
        <time>2022-01-21T15:50:50.000Z</time>
      </trkpt>
      <trkpt lat="43.50148" lon="6.37492">
        <ele>281</ele>
        <time>2022-01-21T15:50:51.000Z</time>
      </trkpt>
      <trkpt lat="43.50148" lon="6.37491">
        <ele>281</ele>
        <time>2022-01-21T15:50:52.000Z</time>
      </trkpt>
      <trkpt lat="43.50147" lon="6.3749">
        <ele>281</ele>
        <time>2022-01-21T15:50:53.000Z</time>
      </trkpt>
      <trkpt lat="43.50146" lon="6.37489">
        <ele>281</ele>
        <time>2022-01-21T15:50:54.000Z</time>
      </trkpt>
      <trkpt lat="43.50146" lon="6.37488">
        <ele>281</ele>
        <time>2022-01-21T15:50:55.000Z</time>
      </trkpt>
      <trkpt lat="43.50145" lon="6.37487">
        <ele>281</ele>
        <time>2022-01-21T15:50:56.000Z</time>
      </trkpt>
      <trkpt lat="43.50144" lon="6.37486">
        <ele>281</ele>
        <time>2022-01-21T15:50:57.000Z</time>
      </trkpt>
      <trkpt lat="43.50143" lon="6.37485">
        <ele>281</ele>
        <time>2022-01-21T15:50:58.000Z</time>
      </trkpt>
      <trkpt lat="43.50143" lon="6.37484">
        <ele>281</ele>
        <time>2022-01-21T15:50:59.000Z</time>
      </trkpt>
      <trkpt lat="43.50142" lon="6.37483">
        <ele>281</ele>
        <time>2022-01-21T15:51:00.000Z</time>
      </trkpt>
      <trkpt lat="43.50141" lon="6.37482">
        <ele>281</ele>
        <time>2022-01-21T15:51:01.000Z</time>
      </trkpt>
      <trkpt lat="43.50141" lon="6.37481">
        <ele>281</ele>
        <time>2022-01-21T15:51:02.000Z</time>
      </trkpt>
      <trkpt lat="43.5014" lon="6.3748">
        <ele>281</ele>
        <time>2022-01-21T15:51:03.000Z</time>
      </trkpt>
      <trkpt lat="43.50139" lon="6.37479">
        <ele>281</ele>
        <time>2022-01-21T15:51:04.000Z</time>
      </trkpt>
      <trkpt lat="43.50139" lon="6.37479">
        <ele>281</ele>
        <time>2022-01-21T15:51:05.000Z</time>
      </trkpt>
      <trkpt lat="43.50138" lon="6.37478">
        <ele>281</ele>
        <time>2022-01-21T15:51:06.000Z</time>
      </trkpt>
      <trkpt lat="43.50138" lon="6.37477">
        <ele>281</ele>
        <time>2022-01-21T15:51:07.000Z</time>
      </trkpt>
      <trkpt lat="43.50137" lon="6.37475">
        <ele>281</ele>
        <time>2022-01-21T15:51:08.000Z</time>
      </trkpt>
      <trkpt lat="43.50136" lon="6.37474">
        <ele>281</ele>
        <time>2022-01-21T15:51:09.000Z</time>
      </trkpt>
      <trkpt lat="43.50136" lon="6.37473">
        <ele>281</ele>
        <time>2022-01-21T15:51:10.000Z</time>
      </trkpt>
      <trkpt lat="43.50135" lon="6.37472">
        <ele>281</ele>
        <time>2022-01-21T15:51:11.000Z</time>
      </trkpt>
      <trkpt lat="43.50135" lon="6.37471">
        <ele>281</ele>
        <time>2022-01-21T15:51:12.000Z</time>
      </trkpt>
      <trkpt lat="43.50134" lon="6.3747">
        <ele>280</ele>
        <time>2022-01-21T15:51:13.000Z</time>
      </trkpt>
      <trkpt lat="43.50134" lon="6.37469">
        <ele>280</ele>
        <time>2022-01-21T15:51:14.000Z</time>
      </trkpt>
      <trkpt lat="43.50133" lon="6.37468">
        <ele>280</ele>
        <time>2022-01-21T15:51:15.000Z</time>
      </trkpt>
      <trkpt lat="43.50133" lon="6.37467">
        <ele>280</ele>
        <time>2022-01-21T15:51:16.000Z</time>
      </trkpt>
      <trkpt lat="43.50133" lon="6.37466">
        <ele>280</ele>
        <time>2022-01-21T15:51:17.000Z</time>
      </trkpt>
      <trkpt lat="43.50132" lon="6.37466">
        <ele>280</ele>
        <time>2022-01-21T15:51:18.000Z</time>
      </trkpt>
      <trkpt lat="43.50132" lon="6.37465">
        <ele>280</ele>
        <time>2022-01-21T15:51:19.000Z</time>
      </trkpt>
      <trkpt lat="43.50131" lon="6.37464">
        <ele>280</ele>
        <time>2022-01-21T15:51:20.000Z</time>
      </trkpt>
      <trkpt lat="43.50131" lon="6.37463">
        <ele>280</ele>
        <time>2022-01-21T15:51:21.000Z</time>
      </trkpt>
      <trkpt lat="43.5013" lon="6.37462">
        <ele>280</ele>
        <time>2022-01-21T15:51:22.000Z</time>
      </trkpt>
      <trkpt lat="43.5013" lon="6.37461">
        <ele>279</ele>
        <time>2022-01-21T15:51:23.000Z</time>
      </trkpt>
      <trkpt lat="43.50129" lon="6.3746">
        <ele>279</ele>
        <time>2022-01-21T15:51:24.000Z</time>
      </trkpt>
      <trkpt lat="43.50129" lon="6.37459">
        <ele>279</ele>
        <time>2022-01-21T15:51:25.000Z</time>
      </trkpt>
      <trkpt lat="43.50128" lon="6.37458">
        <ele>279</ele>
        <time>2022-01-21T15:51:26.000Z</time>
      </trkpt>
      <trkpt lat="43.50128" lon="6.37457">
        <ele>279</ele>
        <time>2022-01-21T15:51:27.000Z</time>
      </trkpt>
      <trkpt lat="43.50128" lon="6.37456">
        <ele>278</ele>
        <time>2022-01-21T15:51:28.000Z</time>
      </trkpt>
      <trkpt lat="43.50127" lon="6.37454">
        <ele>277</ele>
        <time>2022-01-21T15:51:29.000Z</time>
      </trkpt>
      <trkpt lat="43.50127" lon="6.37453">
        <ele>277</ele>
        <time>2022-01-21T15:51:30.000Z</time>
      </trkpt>
      <trkpt lat="43.50127" lon="6.37452">
        <ele>277</ele>
        <time>2022-01-21T15:51:31.000Z</time>
      </trkpt>
      <trkpt lat="43.50127" lon="6.37451">
        <ele>277</ele>
        <time>2022-01-21T15:51:32.000Z</time>
      </trkpt>
      <trkpt lat="43.50126" lon="6.3745">
        <ele>277</ele>
        <time>2022-01-21T15:51:33.000Z</time>
      </trkpt>
      <trkpt lat="43.50127" lon="6.37448">
        <ele>277</ele>
        <time>2022-01-21T15:51:34.000Z</time>
      </trkpt>
      <trkpt lat="43.50127" lon="6.37447">
        <ele>277</ele>
        <time>2022-01-21T15:51:35.000Z</time>
      </trkpt>
      <trkpt lat="43.50126" lon="6.37445">
        <ele>277</ele>
        <time>2022-01-21T15:51:36.000Z</time>
      </trkpt>
      <trkpt lat="43.50126" lon="6.37444">
        <ele>277</ele>
        <time>2022-01-21T15:51:37.000Z</time>
      </trkpt>
      <trkpt lat="43.50126" lon="6.37443">
        <ele>277</ele>
        <time>2022-01-21T15:51:38.000Z</time>
      </trkpt>
      <trkpt lat="43.50126" lon="6.37442">
        <ele>277</ele>
        <time>2022-01-21T15:51:39.000Z</time>
      </trkpt>
      <trkpt lat="43.50126" lon="6.37441">
        <ele>277</ele>
        <time>2022-01-21T15:51:40.000Z</time>
      </trkpt>
      <trkpt lat="43.50125" lon="6.3744">
        <ele>277</ele>
        <time>2022-01-21T15:51:41.000Z</time>
      </trkpt>
      <trkpt lat="43.50125" lon="6.37439">
        <ele>277</ele>
        <time>2022-01-21T15:51:42.000Z</time>
      </trkpt>
      <trkpt lat="43.50125" lon="6.3744">
        <ele>277</ele>
        <time>2022-01-21T15:51:43.000Z</time>
      </trkpt>
      <trkpt lat="43.50125" lon="6.3744">
        <ele>277</ele>
        <time>2022-01-21T15:51:44.000Z</time>
      </trkpt>
      <trkpt lat="43.50124" lon="6.3744">
        <ele>277</ele>
        <time>2022-01-21T15:51:45.000Z</time>
      </trkpt>
      <trkpt lat="43.50124" lon="6.3744">
        <ele>277</ele>
        <time>2022-01-21T15:51:46.000Z</time>
      </trkpt>
      <trkpt lat="43.50124" lon="6.3744">
        <ele>277</ele>
        <time>2022-01-21T15:51:47.000Z</time>
      </trkpt>
      <trkpt lat="43.50124" lon="6.3744">
        <ele>277</ele>
        <time>2022-01-21T15:51:48.000Z</time>
      </trkpt>
      <trkpt lat="43.50124" lon="6.37439">
        <ele>277</ele>
        <time>2022-01-21T15:51:49.000Z</time>
      </trkpt>
      <trkpt lat="43.50124" lon="6.37439">
        <ele>277</ele>
        <time>2022-01-21T15:51:50.000Z</time>
      </trkpt>
      <trkpt lat="43.50124" lon="6.37438">
        <ele>277</ele>
        <time>2022-01-21T15:51:51.000Z</time>
      </trkpt>
      <trkpt lat="43.50124" lon="6.37437">
        <ele>277</ele>
        <time>2022-01-21T15:51:52.000Z</time>
      </trkpt>
      <trkpt lat="43.50124" lon="6.37435">
        <ele>277</ele>
        <time>2022-01-21T15:51:53.000Z</time>
      </trkpt>
      <trkpt lat="43.50124" lon="6.37433">
        <ele>277</ele>
        <time>2022-01-21T15:51:54.000Z</time>
      </trkpt>
      <trkpt lat="43.50124" lon="6.37431">
        <ele>277</ele>
        <time>2022-01-21T15:51:55.000Z</time>
      </trkpt>
      <trkpt lat="43.50124" lon="6.3743">
        <ele>277</ele>
        <time>2022-01-21T15:51:56.000Z</time>
      </trkpt>
      <trkpt lat="43.50123" lon="6.37428">
        <ele>277</ele>
        <time>2022-01-21T15:51:57.000Z</time>
      </trkpt>
      <trkpt lat="43.50123" lon="6.37427">
        <ele>278</ele>
        <time>2022-01-21T15:51:58.000Z</time>
      </trkpt>
      <trkpt lat="43.50123" lon="6.37427">
        <ele>278</ele>
        <time>2022-01-21T15:51:59.000Z</time>
      </trkpt>
      <trkpt lat="43.50123" lon="6.37426">
        <ele>278</ele>
        <time>2022-01-21T15:52:00.000Z</time>
      </trkpt>
      <trkpt lat="43.50123" lon="6.37425">
        <ele>278</ele>
        <time>2022-01-21T15:52:01.000Z</time>
      </trkpt>
      <trkpt lat="43.50123" lon="6.37424">
        <ele>278</ele>
        <time>2022-01-21T15:52:02.000Z</time>
      </trkpt>
      <trkpt lat="43.50123" lon="6.37423">
        <ele>278</ele>
        <time>2022-01-21T15:52:03.000Z</time>
      </trkpt>
      <trkpt lat="43.50123" lon="6.37422">
        <ele>278</ele>
        <time>2022-01-21T15:52:04.000Z</time>
      </trkpt>
      <trkpt lat="43.50123" lon="6.37421">
        <ele>278</ele>
        <time>2022-01-21T15:52:05.000Z</time>
      </trkpt>
      <trkpt lat="43.50123" lon="6.37419">
        <ele>278</ele>
        <time>2022-01-21T15:52:06.000Z</time>
      </trkpt>
      <trkpt lat="43.50123" lon="6.37418">
        <ele>278</ele>
        <time>2022-01-21T15:52:07.000Z</time>
      </trkpt>
      <trkpt lat="43.50123" lon="6.37417">
        <ele>278</ele>
        <time>2022-01-21T15:52:08.000Z</time>
      </trkpt>
      <trkpt lat="43.50123" lon="6.37415">
        <ele>278</ele>
        <time>2022-01-21T15:52:09.000Z</time>
      </trkpt>
      <trkpt lat="43.50123" lon="6.37414">
        <ele>279</ele>
        <time>2022-01-21T15:52:10.000Z</time>
      </trkpt>
      <trkpt lat="43.50123" lon="6.37412">
        <ele>279</ele>
        <time>2022-01-21T15:52:11.000Z</time>
      </trkpt>
      <trkpt lat="43.50124" lon="6.37411">
        <ele>279</ele>
        <time>2022-01-21T15:52:12.000Z</time>
      </trkpt>
      <trkpt lat="43.50124" lon="6.37409">
        <ele>279</ele>
        <time>2022-01-21T15:52:13.000Z</time>
      </trkpt>
      <trkpt lat="43.50124" lon="6.37408">
        <ele>279</ele>
        <time>2022-01-21T15:52:14.000Z</time>
      </trkpt>
      <trkpt lat="43.50124" lon="6.37407">
        <ele>279</ele>
        <time>2022-01-21T15:52:15.000Z</time>
      </trkpt>
      <trkpt lat="43.50125" lon="6.37405">
        <ele>280</ele>
        <time>2022-01-21T15:52:16.000Z</time>
      </trkpt>
      <trkpt lat="43.50125" lon="6.37404">
        <ele>280</ele>
        <time>2022-01-21T15:52:17.000Z</time>
      </trkpt>
      <trkpt lat="43.50125" lon="6.37402">
        <ele>280</ele>
        <time>2022-01-21T15:52:18.000Z</time>
      </trkpt>
      <trkpt lat="43.50125" lon="6.37401">
        <ele>280</ele>
        <time>2022-01-21T15:52:19.000Z</time>
      </trkpt>
      <trkpt lat="43.50125" lon="6.374">
        <ele>280</ele>
        <time>2022-01-21T15:52:20.000Z</time>
      </trkpt>
      <trkpt lat="43.50125" lon="6.37399">
        <ele>280</ele>
        <time>2022-01-21T15:52:21.000Z</time>
      </trkpt>
      <trkpt lat="43.50125" lon="6.37398">
        <ele>279</ele>
        <time>2022-01-21T15:52:22.000Z</time>
      </trkpt>
      <trkpt lat="43.50125" lon="6.37397">
        <ele>279</ele>
        <time>2022-01-21T15:52:23.000Z</time>
      </trkpt>
      <trkpt lat="43.50126" lon="6.37396">
        <ele>279</ele>
        <time>2022-01-21T15:52:24.000Z</time>
      </trkpt>
      <trkpt lat="43.50126" lon="6.37394">
        <ele>278</ele>
        <time>2022-01-21T15:52:25.000Z</time>
      </trkpt>
      <trkpt lat="43.50126" lon="6.37393">
        <ele>278</ele>
        <time>2022-01-21T15:52:26.000Z</time>
      </trkpt>
      <trkpt lat="43.50126" lon="6.37392">
        <ele>278</ele>
        <time>2022-01-21T15:52:27.000Z</time>
      </trkpt>
      <trkpt lat="43.50127" lon="6.37391">
        <ele>278</ele>
        <time>2022-01-21T15:52:28.000Z</time>
      </trkpt>
      <trkpt lat="43.50127" lon="6.3739">
        <ele>278</ele>
        <time>2022-01-21T15:52:29.000Z</time>
      </trkpt>
      <trkpt lat="43.50127" lon="6.37389">
        <ele>278</ele>
        <time>2022-01-21T15:52:30.000Z</time>
      </trkpt>
      <trkpt lat="43.50128" lon="6.37387">
        <ele>278</ele>
        <time>2022-01-21T15:52:31.000Z</time>
      </trkpt>
      <trkpt lat="43.50128" lon="6.37386">
        <ele>278</ele>
        <time>2022-01-21T15:52:32.000Z</time>
      </trkpt>
      <trkpt lat="43.50128" lon="6.37385">
        <ele>278</ele>
        <time>2022-01-21T15:52:33.000Z</time>
      </trkpt>
      <trkpt lat="43.50129" lon="6.37384">
        <ele>278</ele>
        <time>2022-01-21T15:52:34.000Z</time>
      </trkpt>
      <trkpt lat="43.50129" lon="6.37383">
        <ele>278</ele>
        <time>2022-01-21T15:52:35.000Z</time>
      </trkpt>
      <trkpt lat="43.50129" lon="6.37382">
        <ele>278</ele>
        <time>2022-01-21T15:52:36.000Z</time>
      </trkpt>
      <trkpt lat="43.50129" lon="6.37381">
        <ele>278</ele>
        <time>2022-01-21T15:52:37.000Z</time>
      </trkpt>
      <trkpt lat="43.5013" lon="6.37379">
        <ele>278</ele>
        <time>2022-01-21T15:52:38.000Z</time>
      </trkpt>
      <trkpt lat="43.5013" lon="6.37378">
        <ele>278</ele>
        <time>2022-01-21T15:52:39.000Z</time>
      </trkpt>
      <trkpt lat="43.5013" lon="6.37377">
        <ele>278</ele>
        <time>2022-01-21T15:52:40.000Z</time>
      </trkpt>
      <trkpt lat="43.5013" lon="6.37375">
        <ele>278</ele>
        <time>2022-01-21T15:52:41.000Z</time>
      </trkpt>
      <trkpt lat="43.50131" lon="6.37374">
        <ele>278</ele>
        <time>2022-01-21T15:52:42.000Z</time>
      </trkpt>
      <trkpt lat="43.50131" lon="6.37372">
        <ele>278</ele>
        <time>2022-01-21T15:52:43.000Z</time>
      </trkpt>
      <trkpt lat="43.50131" lon="6.37371">
        <ele>278</ele>
        <time>2022-01-21T15:52:44.000Z</time>
      </trkpt>
      <trkpt lat="43.50132" lon="6.3737">
        <ele>279</ele>
        <time>2022-01-21T15:52:45.000Z</time>
      </trkpt>
      <trkpt lat="43.50132" lon="6.37368">
        <ele>280</ele>
        <time>2022-01-21T15:52:46.000Z</time>
      </trkpt>
      <trkpt lat="43.50132" lon="6.37367">
        <ele>280</ele>
        <time>2022-01-21T15:52:47.000Z</time>
      </trkpt>
      <trkpt lat="43.50132" lon="6.37366">
        <ele>280</ele>
        <time>2022-01-21T15:52:48.000Z</time>
      </trkpt>
      <trkpt lat="43.50132" lon="6.37364">
        <ele>280</ele>
        <time>2022-01-21T15:52:49.000Z</time>
      </trkpt>
      <trkpt lat="43.50132" lon="6.37363">
        <ele>280</ele>
        <time>2022-01-21T15:52:50.000Z</time>
      </trkpt>
      <trkpt lat="43.50133" lon="6.37361">
        <ele>280</ele>
        <time>2022-01-21T15:52:51.000Z</time>
      </trkpt>
      <trkpt lat="43.50133" lon="6.3736">
        <ele>280</ele>
        <time>2022-01-21T15:52:52.000Z</time>
      </trkpt>
      <trkpt lat="43.50133" lon="6.37359">
        <ele>280</ele>
        <time>2022-01-21T15:52:53.000Z</time>
      </trkpt>
      <trkpt lat="43.50133" lon="6.37358">
        <ele>280</ele>
        <time>2022-01-21T15:52:54.000Z</time>
      </trkpt>
      <trkpt lat="43.50133" lon="6.37357">
        <ele>280</ele>
        <time>2022-01-21T15:52:55.000Z</time>
      </trkpt>
      <trkpt lat="43.50133" lon="6.37356">
        <ele>281</ele>
        <time>2022-01-21T15:52:56.000Z</time>
      </trkpt>
      <trkpt lat="43.50133" lon="6.37355">
        <ele>281</ele>
        <time>2022-01-21T15:52:57.000Z</time>
      </trkpt>
      <trkpt lat="43.50133" lon="6.37353">
        <ele>281</ele>
        <time>2022-01-21T15:52:58.000Z</time>
      </trkpt>
      <trkpt lat="43.50133" lon="6.37352">
        <ele>281</ele>
        <time>2022-01-21T15:52:59.000Z</time>
      </trkpt>
      <trkpt lat="43.50133" lon="6.3735">
        <ele>281</ele>
        <time>2022-01-21T15:53:00.000Z</time>
      </trkpt>
      <trkpt lat="43.50133" lon="6.3735">
        <ele>281</ele>
        <time>2022-01-21T15:53:01.000Z</time>
      </trkpt>
      <trkpt lat="43.50133" lon="6.37349">
        <ele>281</ele>
        <time>2022-01-21T15:53:02.000Z</time>
      </trkpt>
      <trkpt lat="43.50133" lon="6.37348">
        <ele>282</ele>
        <time>2022-01-21T15:53:03.000Z</time>
      </trkpt>
      <trkpt lat="43.50133" lon="6.37348">
        <ele>282</ele>
        <time>2022-01-21T15:53:04.000Z</time>
      </trkpt>
      <trkpt lat="43.50133" lon="6.37347">
        <ele>281</ele>
        <time>2022-01-21T15:53:05.000Z</time>
      </trkpt>
      <trkpt lat="43.50133" lon="6.37346">
        <ele>281</ele>
        <time>2022-01-21T15:53:06.000Z</time>
      </trkpt>
      <trkpt lat="43.50132" lon="6.37345">
        <ele>281</ele>
        <time>2022-01-21T15:53:07.000Z</time>
      </trkpt>
      <trkpt lat="43.50132" lon="6.37344">
        <ele>281</ele>
        <time>2022-01-21T15:53:08.000Z</time>
      </trkpt>
      <trkpt lat="43.50132" lon="6.37342">
        <ele>281</ele>
        <time>2022-01-21T15:53:09.000Z</time>
      </trkpt>
      <trkpt lat="43.50131" lon="6.3734">
        <ele>281</ele>
        <time>2022-01-21T15:53:10.000Z</time>
      </trkpt>
      <trkpt lat="43.50131" lon="6.37338">
        <ele>281</ele>
        <time>2022-01-21T15:53:11.000Z</time>
      </trkpt>
      <trkpt lat="43.5013" lon="6.37336">
        <ele>281</ele>
        <time>2022-01-21T15:53:12.000Z</time>
      </trkpt>
      <trkpt lat="43.5013" lon="6.37334">
        <ele>281</ele>
        <time>2022-01-21T15:53:13.000Z</time>
      </trkpt>
      <trkpt lat="43.50129" lon="6.37332">
        <ele>282</ele>
        <time>2022-01-21T15:53:14.000Z</time>
      </trkpt>
      <trkpt lat="43.50129" lon="6.37331">
        <ele>282</ele>
        <time>2022-01-21T15:53:15.000Z</time>
      </trkpt>
      <trkpt lat="43.50128" lon="6.37329">
        <ele>282</ele>
        <time>2022-01-21T15:53:16.000Z</time>
      </trkpt>
      <trkpt lat="43.50127" lon="6.37328">
        <ele>282</ele>
        <time>2022-01-21T15:53:17.000Z</time>
      </trkpt>
      <trkpt lat="43.50127" lon="6.37327">
        <ele>281</ele>
        <time>2022-01-21T15:53:18.000Z</time>
      </trkpt>
      <trkpt lat="43.50126" lon="6.37326">
        <ele>281</ele>
        <time>2022-01-21T15:53:19.000Z</time>
      </trkpt>
      <trkpt lat="43.50126" lon="6.37326">
        <ele>281</ele>
        <time>2022-01-21T15:53:20.000Z</time>
      </trkpt>
      <trkpt lat="43.50125" lon="6.37325">
        <ele>281</ele>
        <time>2022-01-21T15:53:21.000Z</time>
      </trkpt>
      <trkpt lat="43.50125" lon="6.37325">
        <ele>281</ele>
        <time>2022-01-21T15:53:22.000Z</time>
      </trkpt>
      <trkpt lat="43.50124" lon="6.37325">
        <ele>281</ele>
        <time>2022-01-21T15:53:23.000Z</time>
      </trkpt>
      <trkpt lat="43.50123" lon="6.37325">
        <ele>281</ele>
        <time>2022-01-21T15:53:24.000Z</time>
      </trkpt>
      <trkpt lat="43.50123" lon="6.37325">
        <ele>281</ele>
        <time>2022-01-21T15:53:25.000Z</time>
      </trkpt>
      <trkpt lat="43.50122" lon="6.37326">
        <ele>281</ele>
        <time>2022-01-21T15:53:26.000Z</time>
      </trkpt>
      <trkpt lat="43.50121" lon="6.37326">
        <ele>281</ele>
        <time>2022-01-21T15:53:27.000Z</time>
      </trkpt>
      <trkpt lat="43.5012" lon="6.37327">
        <ele>281</ele>
        <time>2022-01-21T15:53:28.000Z</time>
      </trkpt>
      <trkpt lat="43.50119" lon="6.37327">
        <ele>282</ele>
        <time>2022-01-21T15:53:29.000Z</time>
      </trkpt>
      <trkpt lat="43.50118" lon="6.37328">
        <ele>282</ele>
        <time>2022-01-21T15:53:30.000Z</time>
      </trkpt>
      <trkpt lat="43.50116" lon="6.37328">
        <ele>282</ele>
        <time>2022-01-21T15:53:31.000Z</time>
      </trkpt>
      <trkpt lat="43.50115" lon="6.37328">
        <ele>282</ele>
        <time>2022-01-21T15:53:32.000Z</time>
      </trkpt>
      <trkpt lat="43.50114" lon="6.37328">
        <ele>282</ele>
        <time>2022-01-21T15:53:33.000Z</time>
      </trkpt>
      <trkpt lat="43.50113" lon="6.37328">
        <ele>282</ele>
        <time>2022-01-21T15:53:34.000Z</time>
      </trkpt>
      <trkpt lat="43.50112" lon="6.37327">
        <ele>282</ele>
        <time>2022-01-21T15:53:35.000Z</time>
      </trkpt>
      <trkpt lat="43.50112" lon="6.37327">
        <ele>283</ele>
        <time>2022-01-21T15:53:36.000Z</time>
      </trkpt>
      <trkpt lat="43.50111" lon="6.37327">
        <ele>283</ele>
        <time>2022-01-21T15:53:37.000Z</time>
      </trkpt>
      <trkpt lat="43.50111" lon="6.37327">
        <ele>283</ele>
        <time>2022-01-21T15:53:38.000Z</time>
      </trkpt>
      <trkpt lat="43.5011" lon="6.37326">
        <ele>283</ele>
        <time>2022-01-21T15:53:39.000Z</time>
      </trkpt>
      <trkpt lat="43.50109" lon="6.37326">
        <ele>283</ele>
        <time>2022-01-21T15:53:40.000Z</time>
      </trkpt>
      <trkpt lat="43.50109" lon="6.37326">
        <ele>283</ele>
        <time>2022-01-21T15:53:41.000Z</time>
      </trkpt>
      <trkpt lat="43.50108" lon="6.37325">
        <ele>283</ele>
        <time>2022-01-21T15:53:42.000Z</time>
      </trkpt>
      <trkpt lat="43.50108" lon="6.37325">
        <ele>283</ele>
        <time>2022-01-21T15:53:43.000Z</time>
      </trkpt>
      <trkpt lat="43.50107" lon="6.37325">
        <ele>283</ele>
        <time>2022-01-21T15:53:44.000Z</time>
      </trkpt>
      <trkpt lat="43.50107" lon="6.37325">
        <ele>283</ele>
        <time>2022-01-21T15:53:45.000Z</time>
      </trkpt>
      <trkpt lat="43.50106" lon="6.37325">
        <ele>283</ele>
        <time>2022-01-21T15:53:46.000Z</time>
      </trkpt>
      <trkpt lat="43.50106" lon="6.37326">
        <ele>283</ele>
        <time>2022-01-21T15:53:47.000Z</time>
      </trkpt>
      <trkpt lat="43.50105" lon="6.37326">
        <ele>283</ele>
        <time>2022-01-21T15:53:48.000Z</time>
      </trkpt>
      <trkpt lat="43.50105" lon="6.37326">
        <ele>283</ele>
        <time>2022-01-21T15:53:49.000Z</time>
      </trkpt>
      <trkpt lat="43.50104" lon="6.37326">
        <ele>283</ele>
        <time>2022-01-21T15:53:50.000Z</time>
      </trkpt>
      <trkpt lat="43.50104" lon="6.37327">
        <ele>283</ele>
        <time>2022-01-21T15:53:51.000Z</time>
      </trkpt>
      <trkpt lat="43.50103" lon="6.37327">
        <ele>283</ele>
        <time>2022-01-21T15:53:52.000Z</time>
      </trkpt>
      <trkpt lat="43.50102" lon="6.37328">
        <ele>283</ele>
        <time>2022-01-21T15:53:53.000Z</time>
      </trkpt>
      <trkpt lat="43.50101" lon="6.37329">
        <ele>282</ele>
        <time>2022-01-21T15:53:54.000Z</time>
      </trkpt>
      <trkpt lat="43.501" lon="6.3733">
        <ele>281</ele>
        <time>2022-01-21T15:53:55.000Z</time>
      </trkpt>
      <trkpt lat="43.50099" lon="6.3733">
        <ele>281</ele>
        <time>2022-01-21T15:53:56.000Z</time>
      </trkpt>
      <trkpt lat="43.50099" lon="6.37331">
        <ele>281</ele>
        <time>2022-01-21T15:53:57.000Z</time>
      </trkpt>
      <trkpt lat="43.50099" lon="6.37331">
        <ele>281</ele>
        <time>2022-01-21T15:53:58.000Z</time>
      </trkpt>
      <trkpt lat="43.50099" lon="6.37331">
        <ele>281</ele>
        <time>2022-01-21T15:53:59.000Z</time>
      </trkpt>
      <trkpt lat="43.50098" lon="6.37332">
        <ele>280</ele>
        <time>2022-01-21T15:54:00.000Z</time>
      </trkpt>
      <trkpt lat="43.50098" lon="6.37332">
        <ele>280</ele>
        <time>2022-01-21T15:54:01.000Z</time>
      </trkpt>
      <trkpt lat="43.50097" lon="6.37333">
        <ele>280</ele>
        <time>2022-01-21T15:54:02.000Z</time>
      </trkpt>
      <trkpt lat="43.50096" lon="6.37334">
        <ele>280</ele>
        <time>2022-01-21T15:54:03.000Z</time>
      </trkpt>
      <trkpt lat="43.50096" lon="6.37334">
        <ele>280</ele>
        <time>2022-01-21T15:54:04.000Z</time>
      </trkpt>
      <trkpt lat="43.50096" lon="6.37334">
        <ele>280</ele>
        <time>2022-01-21T15:54:05.000Z</time>
      </trkpt>
      <trkpt lat="43.50095" lon="6.37334">
        <ele>280</ele>
        <time>2022-01-21T15:54:06.000Z</time>
      </trkpt>
      <trkpt lat="43.50095" lon="6.37333">
        <ele>280</ele>
        <time>2022-01-21T15:54:07.000Z</time>
      </trkpt>
      <trkpt lat="43.50094" lon="6.37332">
        <ele>280</ele>
        <time>2022-01-21T15:54:08.000Z</time>
      </trkpt>
      <trkpt lat="43.50094" lon="6.37331">
        <ele>279</ele>
        <time>2022-01-21T15:54:09.000Z</time>
      </trkpt>
      <trkpt lat="43.50093" lon="6.37331">
        <ele>279</ele>
        <time>2022-01-21T15:54:10.000Z</time>
      </trkpt>
      <trkpt lat="43.50093" lon="6.37331">
        <ele>279</ele>
        <time>2022-01-21T15:54:11.000Z</time>
      </trkpt>
      <trkpt lat="43.50092" lon="6.37331">
        <ele>279</ele>
        <time>2022-01-21T15:54:12.000Z</time>
      </trkpt>
      <trkpt lat="43.50092" lon="6.37331">
        <ele>279</ele>
        <time>2022-01-21T15:54:13.000Z</time>
      </trkpt>
      <trkpt lat="43.50092" lon="6.37331">
        <ele>279</ele>
        <time>2022-01-21T15:54:14.000Z</time>
      </trkpt>
      <trkpt lat="43.50092" lon="6.37332">
        <ele>278</ele>
        <time>2022-01-21T15:54:15.000Z</time>
      </trkpt>
      <trkpt lat="43.50091" lon="6.37332">
        <ele>278</ele>
        <time>2022-01-21T15:54:16.000Z</time>
      </trkpt>
      <trkpt lat="43.50091" lon="6.37332">
        <ele>278</ele>
        <time>2022-01-21T15:54:17.000Z</time>
      </trkpt>
      <trkpt lat="43.50091" lon="6.37332">
        <ele>278</ele>
        <time>2022-01-21T15:54:18.000Z</time>
      </trkpt>
      <trkpt lat="43.50091" lon="6.37332">
        <ele>278</ele>
        <time>2022-01-21T15:54:19.000Z</time>
      </trkpt>
      <trkpt lat="43.50091" lon="6.37332">
        <ele>278</ele>
        <time>2022-01-21T15:54:20.000Z</time>
      </trkpt>
      <trkpt lat="43.50091" lon="6.37332">
        <ele>278</ele>
        <time>2022-01-21T15:54:21.000Z</time>
      </trkpt>
      <trkpt lat="43.50091" lon="6.37332">
        <ele>278</ele>
        <time>2022-01-21T15:54:22.000Z</time>
      </trkpt>
      <trkpt lat="43.5009" lon="6.37332">
        <ele>278</ele>
        <time>2022-01-21T15:54:23.000Z</time>
      </trkpt>
      <trkpt lat="43.5009" lon="6.37332">
        <ele>278</ele>
        <time>2022-01-21T15:54:24.000Z</time>
      </trkpt>
      <trkpt lat="43.5009" lon="6.37333">
        <ele>278</ele>
        <time>2022-01-21T15:54:25.000Z</time>
      </trkpt>
      <trkpt lat="43.5009" lon="6.37333">
        <ele>278</ele>
        <time>2022-01-21T15:54:26.000Z</time>
      </trkpt>
      <trkpt lat="43.50089" lon="6.37334">
        <ele>278</ele>
        <time>2022-01-21T15:54:27.000Z</time>
      </trkpt>
      <trkpt lat="43.50089" lon="6.37334">
        <ele>278</ele>
        <time>2022-01-21T15:54:28.000Z</time>
      </trkpt>
      <trkpt lat="43.50088" lon="6.37335">
        <ele>278</ele>
        <time>2022-01-21T15:54:29.000Z</time>
      </trkpt>
      <trkpt lat="43.50088" lon="6.37335">
        <ele>278</ele>
        <time>2022-01-21T15:54:30.000Z</time>
      </trkpt>
    </trkseg>
  </trk>
</gpx>